<?xml version='1.0' encoding='UTF-8'?><gpx version="1.1" creator="JPX - https://github.com/jenetics/jpx" xmlns="http://www.topografix.com/GPX/1/1"><trk><trkseg><trkpt lat="45.6153106" lon="11.381258"><ele>177.0</ele><time>2026-04-25T06:45:26.102Z</time></trkpt><trkpt lat="45.6152642" lon="11.3811626"><ele>177.0</ele><time>2026-04-25T06:45:39.102Z</time></trkpt><trkpt lat="45.6152141" lon="11.3810382"><ele>177.0</ele><time>2026-04-25T06:45:41.101Z</time></trkpt><trkpt lat="45.6151574" lon="11.380967"><ele>177.0</ele><time>2026-04-25T06:45:42.102Z</time></trkpt><trkpt lat="45.6150726" lon="11.3809"><ele>177.0</ele><time>2026-04-25T06:45:43.101Z</time></trkpt><trkpt lat="45.6149669" lon="11.3808247"><ele>177.0</ele><time>2026-04-25T06:45:44.102Z</time></trkpt><trkpt lat="45.6148491" lon="11.380751"><ele>177.0</ele><time>2026-04-25T06:45:45.101Z</time></trkpt><trkpt lat="45.6147242" lon="11.3806857"><ele>177.0</ele><time>2026-04-25T06:45:46.103Z</time></trkpt><trkpt lat="45.6145988" lon="11.3806294"><ele>177.0</ele><time>2026-04-25T06:45:47.101Z</time></trkpt><trkpt lat="45.6144709" lon="11.3805829"><ele>176.5</ele><time>2026-04-25T06:45:48.102Z</time></trkpt><trkpt lat="45.6143457" lon="11.3805441"><ele>176.0</ele><time>2026-04-25T06:45:49.101Z</time></trkpt><trkpt lat="45.6142225" lon="11.3805134"><ele>175.5</ele><time>2026-04-25T06:45:50.103Z</time></trkpt><trkpt lat="45.6141013" lon="11.380485"><ele>175.0</ele><time>2026-04-25T06:45:51.101Z</time></trkpt><trkpt lat="45.6139832" lon="11.3804579"><ele>175.0</ele><time>2026-04-25T06:45:52.102Z</time></trkpt><trkpt lat="45.6138656" lon="11.3804288"><ele>175.0</ele><time>2026-04-25T06:45:53.103Z</time></trkpt><trkpt lat="45.6137434" lon="11.3803992"><ele>175.0</ele><time>2026-04-25T06:45:54.102Z</time></trkpt><trkpt lat="45.6136193" lon="11.3803704"><ele>175.0</ele><time>2026-04-25T06:45:55.102Z</time></trkpt><trkpt lat="45.6134891" lon="11.3803442"><ele>174.75</ele><time>2026-04-25T06:45:56.101Z</time></trkpt><trkpt lat="45.6133519" lon="11.3803225"><ele>174.5</ele><time>2026-04-25T06:45:57.101Z</time></trkpt><trkpt lat="45.6132088" lon="11.3802967"><ele>174.25</ele><time>2026-04-25T06:45:58.102Z</time></trkpt><trkpt lat="45.6130598" lon="11.3802709"><ele>174.0</ele><time>2026-04-25T06:45:59.102Z</time></trkpt><trkpt lat="45.6129075" lon="11.3802431"><ele>174.33333333333334</ele><time>2026-04-25T06:46:00.103Z</time></trkpt><trkpt lat="45.6127547" lon="11.3802115"><ele>174.66666666666669</ele><time>2026-04-25T06:46:01.102Z</time></trkpt><trkpt lat="45.6126003" lon="11.3801772"><ele>175.0</ele><time>2026-04-25T06:46:02.102Z</time></trkpt><trkpt lat="45.6124432" lon="11.3801436"><ele>175.0</ele><time>2026-04-25T06:46:03.101Z</time></trkpt><trkpt lat="45.612282" lon="11.3801055"><ele>175.0</ele><time>2026-04-25T06:46:04.103Z</time></trkpt><trkpt lat="45.6121165" lon="11.3800684"><ele>175.0</ele><time>2026-04-25T06:46:05.101Z</time></trkpt><trkpt lat="45.6119493" lon="11.3800266"><ele>173.33333333333334</ele><time>2026-04-25T06:46:06.102Z</time></trkpt><trkpt lat="45.6117804" lon="11.379984"><ele>171.66666666666666</ele><time>2026-04-25T06:46:07.102Z</time></trkpt><trkpt lat="45.6116151" lon="11.3799339"><ele>170.0</ele><time>2026-04-25T06:46:08.102Z</time></trkpt><trkpt lat="45.6114522" lon="11.3798813"><ele>170.0</ele><time>2026-04-25T06:46:09.101Z</time></trkpt><trkpt lat="45.611294" lon="11.3798279"><ele>170.0</ele><time>2026-04-25T06:46:10.102Z</time></trkpt><trkpt lat="45.6111424" lon="11.3797731"><ele>170.0</ele><time>2026-04-25T06:46:11.101Z</time></trkpt><trkpt lat="45.610981" lon="11.3797132"><ele>170.33333333333331</ele><time>2026-04-25T06:46:12.102Z</time></trkpt><trkpt lat="45.6108081" lon="11.3796487"><ele>170.66666666666666</ele><time>2026-04-25T06:46:13.101Z</time></trkpt><trkpt lat="45.6106241" lon="11.3795815"><ele>171.0</ele><time>2026-04-25T06:46:14.101Z</time></trkpt><trkpt lat="45.6104284" lon="11.379512"><ele>169.33333333333334</ele><time>2026-04-25T06:46:15.102Z</time></trkpt><trkpt lat="45.6102287" lon="11.3794464"><ele>167.66666666666669</ele><time>2026-04-25T06:46:16.101Z</time></trkpt><trkpt lat="45.6100307" lon="11.3793899"><ele>166.0</ele><time>2026-04-25T06:46:17.102Z</time></trkpt><trkpt lat="45.6098342" lon="11.3793473"><ele>166.0</ele><time>2026-04-25T06:46:18.101Z</time></trkpt><trkpt lat="45.6096403" lon="11.3793184"><ele>166.0</ele><time>2026-04-25T06:46:19.101Z</time></trkpt><trkpt lat="45.6094472" lon="11.3792944"><ele>166.0</ele><time>2026-04-25T06:46:20.101Z</time></trkpt><trkpt lat="45.6092548" lon="11.3792745"><ele>165.0</ele><time>2026-04-25T06:46:21.102Z</time></trkpt><trkpt lat="45.6090662" lon="11.3792576"><ele>164.0</ele><time>2026-04-25T06:46:22.101Z</time></trkpt><trkpt lat="45.6088802" lon="11.3792409"><ele>163.0</ele><time>2026-04-25T06:46:23.101Z</time></trkpt><trkpt lat="45.6086911" lon="11.3792265"><ele>162.33333333333334</ele><time>2026-04-25T06:46:24.103Z</time></trkpt><trkpt lat="45.6085023" lon="11.3792202"><ele>161.66666666666666</ele><time>2026-04-25T06:46:25.102Z</time></trkpt><trkpt lat="45.6083152" lon="11.3792301"><ele>161.0</ele><time>2026-04-25T06:46:26.101Z</time></trkpt><trkpt lat="45.6081286" lon="11.3792596"><ele>161.0</ele><time>2026-04-25T06:46:27.102Z</time></trkpt><trkpt lat="45.6079421" lon="11.3793085"><ele>161.0</ele><time>2026-04-25T06:46:28.102Z</time></trkpt><trkpt lat="45.6077601" lon="11.3793742"><ele>161.0</ele><time>2026-04-25T06:46:29.101Z</time></trkpt><trkpt lat="45.6075784" lon="11.3794538"><ele>160.66666666666666</ele><time>2026-04-25T06:46:30.102Z</time></trkpt><trkpt lat="45.6073986" lon="11.3795488"><ele>160.33333333333334</ele><time>2026-04-25T06:46:31.102Z</time></trkpt><trkpt lat="45.6072223" lon="11.3796565"><ele>160.0</ele><time>2026-04-25T06:46:32.101Z</time></trkpt><trkpt lat="45.6070501" lon="11.3797799"><ele>160.0</ele><time>2026-04-25T06:46:33.101Z</time></trkpt><trkpt lat="45.6068784" lon="11.3799145"><ele>160.0</ele><time>2026-04-25T06:46:34.102Z</time></trkpt><trkpt lat="45.6067061" lon="11.3800541"><ele>160.0</ele><time>2026-04-25T06:46:35.101Z</time></trkpt><trkpt lat="45.606534" lon="11.3801927"><ele>160.0</ele><time>2026-04-25T06:46:36.101Z</time></trkpt><trkpt lat="45.6063618" lon="11.3803302"><ele>160.0</ele><time>2026-04-25T06:46:37.101Z</time></trkpt><trkpt lat="45.6061912" lon="11.3804677"><ele>160.0</ele><time>2026-04-25T06:46:38.102Z</time></trkpt><trkpt lat="45.6060201" lon="11.380603"><ele>158.33333333333334</ele><time>2026-04-25T06:46:39.101Z</time></trkpt><trkpt lat="45.6058485" lon="11.3807421"><ele>156.66666666666666</ele><time>2026-04-25T06:46:40.101Z</time></trkpt><trkpt lat="45.6056759" lon="11.3808818"><ele>155.0</ele><time>2026-04-25T06:46:41.102Z</time></trkpt><trkpt lat="45.6055021" lon="11.3810219"><ele>154.66666666666666</ele><time>2026-04-25T06:46:42.103Z</time></trkpt><trkpt lat="45.6053249" lon="11.3811603"><ele>154.33333333333334</ele><time>2026-04-25T06:46:43.101Z</time></trkpt><trkpt lat="45.6051468" lon="11.3812995"><ele>154.0</ele><time>2026-04-25T06:46:44.101Z</time></trkpt><trkpt lat="45.6049637" lon="11.3814352"><ele>154.0</ele><time>2026-04-25T06:46:45.102Z</time></trkpt><trkpt lat="45.6047727" lon="11.3815557"><ele>154.0</ele><time>2026-04-25T06:46:46.102Z</time></trkpt><trkpt lat="45.6045762" lon="11.3816633"><ele>154.0</ele><time>2026-04-25T06:46:47.102Z</time></trkpt><trkpt lat="45.6043742" lon="11.3817562"><ele>152.66666666666669</ele><time>2026-04-25T06:46:48.101Z</time></trkpt><trkpt lat="45.6041668" lon="11.3818363"><ele>151.33333333333334</ele><time>2026-04-25T06:46:49.101Z</time></trkpt><trkpt lat="45.6039553" lon="11.381904"><ele>150.0</ele><time>2026-04-25T06:46:50.102Z</time></trkpt><trkpt lat="45.6037392" lon="11.381959"><ele>149.66666666666666</ele><time>2026-04-25T06:46:51.102Z</time></trkpt><trkpt lat="45.6035219" lon="11.381997"><ele>149.33333333333331</ele><time>2026-04-25T06:46:52.102Z</time></trkpt><trkpt lat="45.6033009" lon="11.3820214"><ele>149.0</ele><time>2026-04-25T06:46:53.102Z</time></trkpt><trkpt lat="45.6030795" lon="11.382034"><ele>149.0</ele><time>2026-04-25T06:46:54.101Z</time></trkpt><trkpt lat="45.6028581" lon="11.3820396"><ele>149.0</ele><time>2026-04-25T06:46:55.101Z</time></trkpt><trkpt lat="45.6026361" lon="11.382039"><ele>149.0</ele><time>2026-04-25T06:46:56.101Z</time></trkpt><trkpt lat="45.6024164" lon="11.382036"><ele>149.66666666666666</ele><time>2026-04-25T06:46:57.101Z</time></trkpt><trkpt lat="45.6021978" lon="11.3820323"><ele>150.33333333333334</ele><time>2026-04-25T06:46:58.101Z</time></trkpt><trkpt lat="45.6019803" lon="11.3820343"><ele>151.0</ele><time>2026-04-25T06:46:59.101Z</time></trkpt><trkpt lat="45.6017637" lon="11.3820359"><ele>151.0</ele><time>2026-04-25T06:47:00.101Z</time></trkpt><trkpt lat="45.601547" lon="11.3820352"><ele>151.0</ele><time>2026-04-25T06:47:01.101Z</time></trkpt><trkpt lat="45.6013329" lon="11.3820336"><ele>151.0</ele><time>2026-04-25T06:47:02.101Z</time></trkpt><trkpt lat="45.6011217" lon="11.3820269"><ele>151.66666666666669</ele><time>2026-04-25T06:47:03.101Z</time></trkpt><trkpt lat="45.6009113" lon="11.3820095"><ele>152.33333333333334</ele><time>2026-04-25T06:47:04.101Z</time></trkpt><trkpt lat="45.6007043" lon="11.3819724"><ele>153.0</ele><time>2026-04-25T06:47:05.103Z</time></trkpt><trkpt lat="45.6004999" lon="11.3819165"><ele>153.33333333333334</ele><time>2026-04-25T06:47:06.102Z</time></trkpt><trkpt lat="45.6002985" lon="11.3818478"><ele>153.66666666666669</ele><time>2026-04-25T06:47:07.101Z</time></trkpt><trkpt lat="45.6001015" lon="11.3817612"><ele>154.0</ele><time>2026-04-25T06:47:08.101Z</time></trkpt><trkpt lat="45.5999078" lon="11.3816616"><ele>154.0</ele><time>2026-04-25T06:47:09.102Z</time></trkpt><trkpt lat="45.5997178" lon="11.3815435"><ele>154.0</ele><time>2026-04-25T06:47:10.101Z</time></trkpt><trkpt lat="45.5995338" lon="11.3814086"><ele>154.0</ele><time>2026-04-25T06:47:11.102Z</time></trkpt><trkpt lat="45.5993561" lon="11.3812569"><ele>155.0</ele><time>2026-04-25T06:47:12.102Z</time></trkpt><trkpt lat="45.5991835" lon="11.3810869"><ele>156.0</ele><time>2026-04-25T06:47:13.102Z</time></trkpt><trkpt lat="45.5990211" lon="11.3809057"><ele>157.0</ele><time>2026-04-25T06:47:14.102Z</time></trkpt><trkpt lat="45.5988677" lon="11.3807131"><ele>157.0</ele><time>2026-04-25T06:47:15.102Z</time></trkpt><trkpt lat="45.5987207" lon="11.380512"><ele>157.0</ele><time>2026-04-25T06:47:16.101Z</time></trkpt><trkpt lat="45.5985802" lon="11.3802995"><ele>157.0</ele><time>2026-04-25T06:47:17.102Z</time></trkpt><trkpt lat="45.5984486" lon="11.3800773"><ele>157.0</ele><time>2026-04-25T06:47:18.103Z</time></trkpt><trkpt lat="45.5983265" lon="11.379844"><ele>157.0</ele><time>2026-04-25T06:47:19.101Z</time></trkpt><trkpt lat="45.598215" lon="11.3796028"><ele>157.0</ele><time>2026-04-25T06:47:20.101Z</time></trkpt><trkpt lat="45.5981103" lon="11.3793527"><ele>157.0</ele><time>2026-04-25T06:47:21.101Z</time></trkpt><trkpt lat="45.5980074" lon="11.3791028"><ele>157.0</ele><time>2026-04-25T06:47:22.101Z</time></trkpt><trkpt lat="45.5979029" lon="11.3788508"><ele>157.0</ele><time>2026-04-25T06:47:23.102Z</time></trkpt><trkpt lat="45.5977971" lon="11.3786018"><ele>156.66666666666669</ele><time>2026-04-25T06:47:24.101Z</time></trkpt><trkpt lat="45.5976905" lon="11.3783564"><ele>156.33333333333334</ele><time>2026-04-25T06:47:25.101Z</time></trkpt><trkpt lat="45.5975885" lon="11.3781292"><ele>156.0</ele><time>2026-04-25T06:47:26.103Z</time></trkpt><trkpt lat="45.5974977" lon="11.3779237"><ele>156.0</ele><time>2026-04-25T06:47:27.102Z</time></trkpt><trkpt lat="45.5974171" lon="11.3777481"><ele>156.0</ele><time>2026-04-25T06:47:28.102Z</time></trkpt><trkpt lat="45.5973457" lon="11.3775966"><ele>156.0</ele><time>2026-04-25T06:47:29.094Z</time></trkpt><trkpt lat="45.5972894" lon="11.377442"><ele>156.0</ele><time>2026-04-25T06:47:30.102Z</time></trkpt><trkpt lat="45.5972621" lon="11.3772674"><ele>156.0</ele><time>2026-04-25T06:47:31.101Z</time></trkpt><trkpt lat="45.5972381" lon="11.3771011"><ele>156.0</ele><time>2026-04-25T06:47:32.102Z</time></trkpt><trkpt lat="45.597183" lon="11.3769597"><ele>156.0</ele><time>2026-04-25T06:47:33.102Z</time></trkpt><trkpt lat="45.5971009" lon="11.3768519"><ele>156.0</ele><time>2026-04-25T06:47:34.102Z</time></trkpt><trkpt lat="45.5969937" lon="11.3767851"><ele>156.0</ele><time>2026-04-25T06:47:35.101Z</time></trkpt><trkpt lat="45.5968729" lon="11.3767469"><ele>156.0</ele><time>2026-04-25T06:47:36.102Z</time></trkpt><trkpt lat="45.5967562" lon="11.3766714"><ele>156.0</ele><time>2026-04-25T06:47:37.101Z</time></trkpt><trkpt lat="45.5966463" lon="11.3765583"><ele>156.0</ele><time>2026-04-25T06:47:38.101Z</time></trkpt><trkpt lat="45.5965327" lon="11.3764359"><ele>156.66666666666666</ele><time>2026-04-25T06:47:39.101Z</time></trkpt><trkpt lat="45.5964092" lon="11.3763061"><ele>157.33333333333331</ele><time>2026-04-25T06:47:40.103Z</time></trkpt><trkpt lat="45.5962729" lon="11.3761708"><ele>158.0</ele><time>2026-04-25T06:47:41.102Z</time></trkpt><trkpt lat="45.5961289" lon="11.3760365"><ele>158.0</ele><time>2026-04-25T06:47:42.101Z</time></trkpt><trkpt lat="45.5959786" lon="11.3759082"><ele>158.0</ele><time>2026-04-25T06:47:43.101Z</time></trkpt><trkpt lat="45.5958219" lon="11.3757865"><ele>158.0</ele><time>2026-04-25T06:47:44.101Z</time></trkpt><trkpt lat="45.5956598" lon="11.375671"><ele>158.0</ele><time>2026-04-25T06:47:45.101Z</time></trkpt><trkpt lat="45.5954929" lon="11.3755634"><ele>158.0</ele><time>2026-04-25T06:47:46.101Z</time></trkpt><trkpt lat="45.5953216" lon="11.3754671"><ele>158.0</ele><time>2026-04-25T06:47:47.102Z</time></trkpt><trkpt lat="45.5951457" lon="11.3753808"><ele>158.33333333333331</ele><time>2026-04-25T06:47:48.102Z</time></trkpt><trkpt lat="45.594966" lon="11.3753018"><ele>158.66666666666666</ele><time>2026-04-25T06:47:49.102Z</time></trkpt><trkpt lat="45.5947844" lon="11.3752327"><ele>159.0</ele><time>2026-04-25T06:47:50.101Z</time></trkpt><trkpt lat="45.5946031" lon="11.3751734"><ele>158.66666666666666</ele><time>2026-04-25T06:47:51.102Z</time></trkpt><trkpt lat="45.5944265" lon="11.3751204"><ele>158.33333333333331</ele><time>2026-04-25T06:47:52.101Z</time></trkpt><trkpt lat="45.594261" lon="11.3750675"><ele>158.0</ele><time>2026-04-25T06:47:53.101Z</time></trkpt><trkpt lat="45.5941097" lon="11.3750147"><ele>158.0</ele><time>2026-04-25T06:47:54.101Z</time></trkpt><trkpt lat="45.5939715" lon="11.3749668"><ele>158.0</ele><time>2026-04-25T06:47:55.102Z</time></trkpt><trkpt lat="45.593852" lon="11.3749175"><ele>158.0</ele><time>2026-04-25T06:47:56.101Z</time></trkpt><trkpt lat="45.5937549" lon="11.3748509"><ele>158.0</ele><time>2026-04-25T06:47:57.102Z</time></trkpt><trkpt lat="45.5936832" lon="11.3747788"><ele>158.0</ele><time>2026-04-25T06:47:58.101Z</time></trkpt><trkpt lat="45.5936312" lon="11.3747159"><ele>158.0</ele><time>2026-04-25T06:47:59.103Z</time></trkpt><trkpt lat="45.5935586" lon="11.3746367"><ele>158.0</ele><time>2026-04-25T06:48:01.102Z</time></trkpt><trkpt lat="45.5934847" lon="11.3745969"><ele>158.0</ele><time>2026-04-25T06:48:23.102Z</time></trkpt><trkpt lat="45.5933934" lon="11.3746337"><ele>158.0</ele><time>2026-04-25T06:48:25.102Z</time></trkpt><trkpt lat="45.5933305" lon="11.3747029"><ele>158.0</ele><time>2026-04-25T06:48:26.101Z</time></trkpt><trkpt lat="45.5932617" lon="11.3747825"><ele>158.0</ele><time>2026-04-25T06:48:27.102Z</time></trkpt><trkpt lat="45.5931779" lon="11.3748719"><ele>158.0</ele><time>2026-04-25T06:48:28.101Z</time></trkpt><trkpt lat="45.5930847" lon="11.3749663"><ele>158.0</ele><time>2026-04-25T06:48:29.102Z</time></trkpt><trkpt lat="45.5929868" lon="11.375065"><ele>158.0</ele><time>2026-04-25T06:48:30.101Z</time></trkpt><trkpt lat="45.5928843" lon="11.3751754"><ele>157.25</ele><time>2026-04-25T06:48:31.102Z</time></trkpt><trkpt lat="45.5927792" lon="11.3752915"><ele>156.5</ele><time>2026-04-25T06:48:32.102Z</time></trkpt><trkpt lat="45.5926722" lon="11.3754066"><ele>155.75</ele><time>2026-04-25T06:48:33.101Z</time></trkpt><trkpt lat="45.5925643" lon="11.3755177"><ele>155.0</ele><time>2026-04-25T06:48:34.102Z</time></trkpt><trkpt lat="45.5924595" lon="11.3756235"><ele>155.0</ele><time>2026-04-25T06:48:35.103Z</time></trkpt><trkpt lat="45.5923572" lon="11.3757209"><ele>155.0</ele><time>2026-04-25T06:48:36.102Z</time></trkpt><trkpt lat="45.5922597" lon="11.3758047"><ele>155.0</ele><time>2026-04-25T06:48:37.102Z</time></trkpt><trkpt lat="45.5921678" lon="11.3758703"><ele>155.0</ele><time>2026-04-25T06:48:38.102Z</time></trkpt><trkpt lat="45.5920788" lon="11.375912"><ele>155.0</ele><time>2026-04-25T06:48:39.102Z</time></trkpt><trkpt lat="45.5919867" lon="11.3759126"><ele>154.8</ele><time>2026-04-25T06:48:40.102Z</time></trkpt><trkpt lat="45.5918946" lon="11.3758789"><ele>154.6</ele><time>2026-04-25T06:48:41.101Z</time></trkpt><trkpt lat="45.5918006" lon="11.3758276"><ele>154.4</ele><time>2026-04-25T06:48:42.101Z</time></trkpt><trkpt lat="45.5916999" lon="11.3757745"><ele>154.2</ele><time>2026-04-25T06:48:43.101Z</time></trkpt><trkpt lat="45.5915937" lon="11.3757241"><ele>154.0</ele><time>2026-04-25T06:48:44.101Z</time></trkpt><trkpt lat="45.5914862" lon="11.3756648"><ele>154.0</ele><time>2026-04-25T06:48:45.102Z</time></trkpt><trkpt lat="45.5913915" lon="11.3755628"><ele>154.0</ele><time>2026-04-25T06:48:46.102Z</time></trkpt><trkpt lat="45.5913114" lon="11.3754337"><ele>154.0</ele><time>2026-04-25T06:48:47.102Z</time></trkpt><trkpt lat="45.5912332" lon="11.3752945"><ele>154.0</ele><time>2026-04-25T06:48:48.102Z</time></trkpt><trkpt lat="45.5911569" lon="11.3751435"><ele>154.0</ele><time>2026-04-25T06:48:49.102Z</time></trkpt><trkpt lat="45.591087" lon="11.3749802"><ele>154.0</ele><time>2026-04-25T06:48:50.102Z</time></trkpt><trkpt lat="45.5910263" lon="11.3748021"><ele>154.0</ele><time>2026-04-25T06:48:51.103Z</time></trkpt><trkpt lat="45.5909707" lon="11.3746112"><ele>154.0</ele><time>2026-04-25T06:48:52.101Z</time></trkpt><trkpt lat="45.5909258" lon="11.3744112"><ele>154.0</ele><time>2026-04-25T06:48:53.102Z</time></trkpt><trkpt lat="45.5908939" lon="11.3742027"><ele>154.0</ele><time>2026-04-25T06:48:54.101Z</time></trkpt><trkpt lat="45.5908779" lon="11.3739869"><ele>154.0</ele><time>2026-04-25T06:48:55.101Z</time></trkpt><trkpt lat="45.5908816" lon="11.3737685"><ele>154.66666666666669</ele><time>2026-04-25T06:48:56.102Z</time></trkpt><trkpt lat="45.5908966" lon="11.3735488"><ele>155.33333333333334</ele><time>2026-04-25T06:48:57.102Z</time></trkpt><trkpt lat="45.5909147" lon="11.3733261"><ele>156.0</ele><time>2026-04-25T06:48:58.101Z</time></trkpt><trkpt lat="45.5909366" lon="11.3731123"><ele>156.25</ele><time>2026-04-25T06:48:59.102Z</time></trkpt><trkpt lat="45.5909608" lon="11.3729096"><ele>156.5</ele><time>2026-04-25T06:49:00.101Z</time></trkpt><trkpt lat="45.5909841" lon="11.3727144"><ele>156.75</ele><time>2026-04-25T06:49:01.101Z</time></trkpt><trkpt lat="45.591004" lon="11.3725187"><ele>157.0</ele><time>2026-04-25T06:49:02.102Z</time></trkpt><trkpt lat="45.5910189" lon="11.3723275"><ele>157.25</ele><time>2026-04-25T06:49:03.101Z</time></trkpt><trkpt lat="45.5910168" lon="11.3721418"><ele>157.5</ele><time>2026-04-25T06:49:04.101Z</time></trkpt><trkpt lat="45.5909995" lon="11.3719626"><ele>157.75</ele><time>2026-04-25T06:49:05.102Z</time></trkpt><trkpt lat="45.5909655" lon="11.3717848"><ele>158.0</ele><time>2026-04-25T06:49:06.101Z</time></trkpt><trkpt lat="45.5909143" lon="11.3716116"><ele>158.0</ele><time>2026-04-25T06:49:07.101Z</time></trkpt><trkpt lat="45.5908549" lon="11.371439"><ele>158.0</ele><time>2026-04-25T06:49:08.103Z</time></trkpt><trkpt lat="45.590789" lon="11.3712652"><ele>158.0</ele><time>2026-04-25T06:49:09.101Z</time></trkpt><trkpt lat="45.5907244" lon="11.3710876"><ele>158.0</ele><time>2026-04-25T06:49:10.101Z</time></trkpt><trkpt lat="45.5906557" lon="11.3709072"><ele>158.0</ele><time>2026-04-25T06:49:11.102Z</time></trkpt><trkpt lat="45.5905836" lon="11.3707268"><ele>158.0</ele><time>2026-04-25T06:49:12.102Z</time></trkpt><trkpt lat="45.5905112" lon="11.3705454"><ele>158.0</ele><time>2026-04-25T06:49:13.101Z</time></trkpt><trkpt lat="45.5904375" lon="11.3703609"><ele>158.0</ele><time>2026-04-25T06:49:14.102Z</time></trkpt><trkpt lat="45.5903643" lon="11.3701805"><ele>157.5</ele><time>2026-04-25T06:49:15.101Z</time></trkpt><trkpt lat="45.5902939" lon="11.3700116"><ele>157.0</ele><time>2026-04-25T06:49:16.101Z</time></trkpt><trkpt lat="45.5902284" lon="11.3698585"><ele>156.5</ele><time>2026-04-25T06:49:17.101Z</time></trkpt><trkpt lat="45.590162" lon="11.369718"><ele>156.0</ele><time>2026-04-25T06:49:18.101Z</time></trkpt><trkpt lat="45.5901033" lon="11.3695914"><ele>156.0</ele><time>2026-04-25T06:49:19.101Z</time></trkpt><trkpt lat="45.5900485" lon="11.3694778"><ele>156.0</ele><time>2026-04-25T06:49:20.101Z</time></trkpt><trkpt lat="45.5900022" lon="11.3693723"><ele>156.0</ele><time>2026-04-25T06:49:21.102Z</time></trkpt><trkpt lat="45.5899637" lon="11.3692746"><ele>156.0</ele><time>2026-04-25T06:49:22.102Z</time></trkpt><trkpt lat="45.5899272" lon="11.3691822"><ele>156.0</ele><time>2026-04-25T06:49:23.102Z</time></trkpt><trkpt lat="45.5898931" lon="11.3691033"><ele>156.0</ele><time>2026-04-25T06:49:24.102Z</time></trkpt><trkpt lat="45.5898592" lon="11.3689776"><ele>156.0</ele><time>2026-04-25T06:49:26.101Z</time></trkpt><trkpt lat="45.5898503" lon="11.3688784"><ele>156.0</ele><time>2026-04-25T06:49:28.102Z</time></trkpt><trkpt lat="45.5898159" lon="11.3687849"><ele>156.0</ele><time>2026-04-25T06:49:32.101Z</time></trkpt><trkpt lat="45.5897491" lon="11.3687779"><ele>156.0</ele><time>2026-04-25T06:53:36.102Z</time></trkpt><trkpt lat="45.5896912" lon="11.3687018"><ele>156.0</ele><time>2026-04-25T06:53:41.102Z</time></trkpt><trkpt lat="45.5896796" lon="11.3685855"><ele>156.0</ele><time>2026-04-25T06:53:43.102Z</time></trkpt><trkpt lat="45.5896791" lon="11.3684456"><ele>156.66666666666666</ele><time>2026-04-25T06:53:45.102Z</time></trkpt><trkpt lat="45.5896988" lon="11.3682819"><ele>157.33333333333334</ele><time>2026-04-25T06:53:47.103Z</time></trkpt><trkpt lat="45.5897237" lon="11.3681908"><ele>158.0</ele><time>2026-04-25T06:53:48.102Z</time></trkpt><trkpt lat="45.5897598" lon="11.3681008"><ele>158.66666666666669</ele><time>2026-04-25T06:53:49.103Z</time></trkpt><trkpt lat="45.5898029" lon="11.368008"><ele>159.33333333333334</ele><time>2026-04-25T06:53:50.102Z</time></trkpt><trkpt lat="45.589857" lon="11.3679168"><ele>160.0</ele><time>2026-04-25T06:53:51.103Z</time></trkpt><trkpt lat="45.5899184" lon="11.3678222"><ele>160.5</ele><time>2026-04-25T06:53:52.104Z</time></trkpt><trkpt lat="45.5899831" lon="11.3677319"><ele>161.0</ele><time>2026-04-25T06:53:53.103Z</time></trkpt><trkpt lat="45.5900553" lon="11.3676409"><ele>161.5</ele><time>2026-04-25T06:53:54.102Z</time></trkpt><trkpt lat="45.5901255" lon="11.3675542"><ele>162.0</ele><time>2026-04-25T06:53:55.103Z</time></trkpt><trkpt lat="45.590193" lon="11.3674784"><ele>162.5</ele><time>2026-04-25T06:53:56.102Z</time></trkpt><trkpt lat="45.5902479" lon="11.3674037"><ele>163.0</ele><time>2026-04-25T06:53:57.102Z</time></trkpt><trkpt lat="45.5902724" lon="11.3673169"><ele>163.0</ele><time>2026-04-25T06:53:58.103Z</time></trkpt><trkpt lat="45.5902771" lon="11.3672193"><ele>163.0</ele><time>2026-04-25T06:53:59.102Z</time></trkpt><trkpt lat="45.5902564" lon="11.3671121"><ele>163.0</ele><time>2026-04-25T06:54:00.102Z</time></trkpt><trkpt lat="45.5902219" lon="11.3670035"><ele>163.0</ele><time>2026-04-25T06:54:01.103Z</time></trkpt><trkpt lat="45.5901908" lon="11.3668821"><ele>163.0</ele><time>2026-04-25T06:54:02.104Z</time></trkpt><trkpt lat="45.5901679" lon="11.3667509"><ele>163.0</ele><time>2026-04-25T06:54:03.102Z</time></trkpt><trkpt lat="45.5901468" lon="11.3666135"><ele>163.0</ele><time>2026-04-25T06:54:04.102Z</time></trkpt><trkpt lat="45.5901113" lon="11.3664781"><ele>163.0</ele><time>2026-04-25T06:54:05.103Z</time></trkpt><trkpt lat="45.5900638" lon="11.3663574"><ele>163.0</ele><time>2026-04-25T06:54:06.103Z</time></trkpt><trkpt lat="45.5900071" lon="11.3662506"><ele>163.0</ele><time>2026-04-25T06:54:07.102Z</time></trkpt><trkpt lat="45.5899399" lon="11.3661563"><ele>163.0</ele><time>2026-04-25T06:54:08.102Z</time></trkpt><trkpt lat="45.5898671" lon="11.3660685"><ele>162.60000000000002</ele><time>2026-04-25T06:54:09.102Z</time></trkpt><trkpt lat="45.5898121" lon="11.3659547"><ele>162.20000000000002</ele><time>2026-04-25T06:54:10.102Z</time></trkpt><trkpt lat="45.589784" lon="11.3658206"><ele>161.8</ele><time>2026-04-25T06:54:11.103Z</time></trkpt><trkpt lat="45.5897759" lon="11.365675"><ele>161.4</ele><time>2026-04-25T06:54:12.103Z</time></trkpt><trkpt lat="45.5897762" lon="11.3655214"><ele>161.0</ele><time>2026-04-25T06:54:13.103Z</time></trkpt><trkpt lat="45.5897723" lon="11.365362"><ele>161.0</ele><time>2026-04-25T06:54:14.102Z</time></trkpt><trkpt lat="45.5897549" lon="11.365205"><ele>161.0</ele><time>2026-04-25T06:54:15.102Z</time></trkpt><trkpt lat="45.5897169" lon="11.3650606"><ele>161.0</ele><time>2026-04-25T06:54:16.103Z</time></trkpt><trkpt lat="45.5896654" lon="11.3649308"><ele>161.0</ele><time>2026-04-25T06:54:17.104Z</time></trkpt><trkpt lat="45.5895982" lon="11.3648253"><ele>161.0</ele><time>2026-04-25T06:54:18.103Z</time></trkpt><trkpt lat="45.5895149" lon="11.3647483"><ele>163.4</ele><time>2026-04-25T06:54:19.102Z</time></trkpt><trkpt lat="45.5894174" lon="11.3647201"><ele>165.8</ele><time>2026-04-25T06:54:20.102Z</time></trkpt><trkpt lat="45.5893144" lon="11.3647108"><ele>168.20000000000002</ele><time>2026-04-25T06:54:21.102Z</time></trkpt><trkpt lat="45.5892088" lon="11.3646936"><ele>170.60000000000002</ele><time>2026-04-25T06:54:22.102Z</time></trkpt><trkpt lat="45.5891071" lon="11.3646723"><ele>173.0</ele><time>2026-04-25T06:54:23.102Z</time></trkpt><trkpt lat="45.5890137" lon="11.3646558"><ele>173.0</ele><time>2026-04-25T06:54:24.103Z</time></trkpt><trkpt lat="45.5889319" lon="11.3646451"><ele>173.0</ele><time>2026-04-25T06:54:25.103Z</time></trkpt><trkpt lat="45.5888643" lon="11.3646438"><ele>173.0</ele><time>2026-04-25T06:54:26.103Z</time></trkpt><trkpt lat="45.588782" lon="11.3646745"><ele>173.0</ele><time>2026-04-25T06:54:28.102Z</time></trkpt><trkpt lat="45.5887488" lon="11.364799"><ele>173.0</ele><time>2026-04-25T06:54:31.103Z</time></trkpt><trkpt lat="45.5887626" lon="11.3649275"><ele>173.0</ele><time>2026-04-25T06:54:33.102Z</time></trkpt><trkpt lat="45.5887329" lon="11.3650333"><ele>173.60000000000002</ele><time>2026-04-25T06:54:35.103Z</time></trkpt><trkpt lat="45.58865" lon="11.3650792"><ele>174.20000000000002</ele><time>2026-04-25T06:54:37.102Z</time></trkpt><trkpt lat="45.5885234" lon="11.3650583"><ele>174.8</ele><time>2026-04-25T06:54:39.102Z</time></trkpt><trkpt lat="45.5884469" lon="11.3650359"><ele>175.4</ele><time>2026-04-25T06:54:40.102Z</time></trkpt><trkpt lat="45.5883593" lon="11.365007"><ele>176.0</ele><time>2026-04-25T06:54:41.103Z</time></trkpt><trkpt lat="45.5882704" lon="11.3649681"><ele>176.0</ele><time>2026-04-25T06:54:42.103Z</time></trkpt><trkpt lat="45.5881801" lon="11.3649069"><ele>176.0</ele><time>2026-04-25T06:54:43.103Z</time></trkpt><trkpt lat="45.5880956" lon="11.3648266"><ele>176.0</ele><time>2026-04-25T06:54:44.103Z</time></trkpt><trkpt lat="45.5880081" lon="11.3647472"><ele>176.0</ele><time>2026-04-25T06:54:45.103Z</time></trkpt><trkpt lat="45.5879203" lon="11.3646735"><ele>176.0</ele><time>2026-04-25T06:54:46.103Z</time></trkpt><trkpt lat="45.5878335" lon="11.3646113"><ele>177.4</ele><time>2026-04-25T06:54:47.103Z</time></trkpt><trkpt lat="45.587742" lon="11.3645654"><ele>178.8</ele><time>2026-04-25T06:54:48.102Z</time></trkpt><trkpt lat="45.5876579" lon="11.3645178"><ele>180.20000000000002</ele><time>2026-04-25T06:54:49.102Z</time></trkpt><trkpt lat="45.5875726" lon="11.3644709"><ele>181.60000000000002</ele><time>2026-04-25T06:54:50.102Z</time></trkpt><trkpt lat="45.5874873" lon="11.3644214"><ele>183.0</ele><time>2026-04-25T06:54:51.102Z</time></trkpt><trkpt lat="45.5874041" lon="11.3643554"><ele>183.0</ele><time>2026-04-25T06:54:52.103Z</time></trkpt><trkpt lat="45.5873269" lon="11.3642738"><ele>183.0</ele><time>2026-04-25T06:54:53.102Z</time></trkpt><trkpt lat="45.5872438" lon="11.3641925"><ele>183.0</ele><time>2026-04-25T06:54:54.103Z</time></trkpt><trkpt lat="45.5871509" lon="11.3641333"><ele>183.0</ele><time>2026-04-25T06:54:55.102Z</time></trkpt><trkpt lat="45.5870535" lon="11.3640942"><ele>183.0</ele><time>2026-04-25T06:54:56.103Z</time></trkpt><trkpt lat="45.5869553" lon="11.3640797"><ele>184.60000000000002</ele><time>2026-04-25T06:54:57.103Z</time></trkpt><trkpt lat="45.5868526" lon="11.3641076"><ele>186.20000000000002</ele><time>2026-04-25T06:54:58.103Z</time></trkpt><trkpt lat="45.5867516" lon="11.3641636"><ele>187.8</ele><time>2026-04-25T06:54:59.102Z</time></trkpt><trkpt lat="45.5866478" lon="11.3642227"><ele>189.4</ele><time>2026-04-25T06:55:00.102Z</time></trkpt><trkpt lat="45.5865428" lon="11.3642845"><ele>191.0</ele><time>2026-04-25T06:55:01.102Z</time></trkpt><trkpt lat="45.5864322" lon="11.3643436"><ele>191.0</ele><time>2026-04-25T06:55:02.103Z</time></trkpt><trkpt lat="45.5863179" lon="11.3644046"><ele>191.0</ele><time>2026-04-25T06:55:03.103Z</time></trkpt><trkpt lat="45.5861962" lon="11.3644702"><ele>191.0</ele><time>2026-04-25T06:55:04.101Z</time></trkpt><trkpt lat="45.5860678" lon="11.3645401"><ele>191.0</ele><time>2026-04-25T06:55:05.101Z</time></trkpt><trkpt lat="45.5859458" lon="11.3646052"><ele>191.60000000000002</ele><time>2026-04-25T06:55:06.101Z</time></trkpt><trkpt lat="45.5858378" lon="11.3646648"><ele>192.2</ele><time>2026-04-25T06:55:07.101Z</time></trkpt><trkpt lat="45.585747" lon="11.3646978"><ele>192.8</ele><time>2026-04-25T06:55:08.101Z</time></trkpt><trkpt lat="45.5856651" lon="11.3646916"><ele>193.39999999999998</ele><time>2026-04-25T06:55:09.102Z</time></trkpt><trkpt lat="45.5855877" lon="11.3646435"><ele>194.0</ele><time>2026-04-25T06:55:10.102Z</time></trkpt><trkpt lat="45.5855071" lon="11.3645716"><ele>196.6</ele><time>2026-04-25T06:55:11.101Z</time></trkpt><trkpt lat="45.5854188" lon="11.3644967"><ele>199.2</ele><time>2026-04-25T06:55:12.102Z</time></trkpt><trkpt lat="45.5853271" lon="11.3644151"><ele>201.79999999999998</ele><time>2026-04-25T06:55:13.102Z</time></trkpt><trkpt lat="45.5852407" lon="11.36434"><ele>204.39999999999998</ele><time>2026-04-25T06:55:14.101Z</time></trkpt><trkpt lat="45.5851504" lon="11.3642867"><ele>207.0</ele><time>2026-04-25T06:55:15.102Z</time></trkpt><trkpt lat="45.5850551" lon="11.3642564"><ele>208.0</ele><time>2026-04-25T06:55:16.102Z</time></trkpt><trkpt lat="45.5849679" lon="11.3642326"><ele>209.0</ele><time>2026-04-25T06:55:17.101Z</time></trkpt><trkpt lat="45.5849075" lon="11.3641726"><ele>210.0</ele><time>2026-04-25T06:55:18.101Z</time></trkpt><trkpt lat="45.584879" lon="11.3640885"><ele>211.0</ele><time>2026-04-25T06:55:19.101Z</time></trkpt><trkpt lat="45.5849107" lon="11.3639409"><ele>212.0</ele><time>2026-04-25T06:55:21.102Z</time></trkpt><trkpt lat="45.5849712" lon="11.3638841"><ele>213.0</ele><time>2026-04-25T06:55:22.102Z</time></trkpt><trkpt lat="45.5850513" lon="11.3638485"><ele>214.2</ele><time>2026-04-25T06:55:23.102Z</time></trkpt><trkpt lat="45.5851384" lon="11.3638121"><ele>215.4</ele><time>2026-04-25T06:55:24.101Z</time></trkpt><trkpt lat="45.5852312" lon="11.3637719"><ele>216.59999999999997</ele><time>2026-04-25T06:55:25.102Z</time></trkpt><trkpt lat="45.5853259" lon="11.363731"><ele>217.79999999999998</ele><time>2026-04-25T06:55:26.101Z</time></trkpt><trkpt lat="45.5854179" lon="11.3636914"><ele>219.0</ele><time>2026-04-25T06:55:27.102Z</time></trkpt><trkpt lat="45.5854894" lon="11.3636589"><ele>219.0</ele><time>2026-04-25T06:55:28.101Z</time></trkpt><trkpt lat="45.5855474" lon="11.3636046"><ele>219.0</ele><time>2026-04-25T06:55:29.103Z</time></trkpt><trkpt lat="45.5855786" lon="11.3635247"><ele>219.0</ele><time>2026-04-25T06:55:30.101Z</time></trkpt><trkpt lat="45.5855792" lon="11.3634289"><ele>219.0</ele><time>2026-04-25T06:55:31.102Z</time></trkpt><trkpt lat="45.5855437" lon="11.3633383"><ele>219.0</ele><time>2026-04-25T06:55:32.102Z</time></trkpt><trkpt lat="45.5854781" lon="11.3632734"><ele>219.0</ele><time>2026-04-25T06:55:33.102Z</time></trkpt><trkpt lat="45.5853962" lon="11.3632282"><ele>219.0</ele><time>2026-04-25T06:55:34.101Z</time></trkpt><trkpt lat="45.58531" lon="11.3631757"><ele>220.39999999999998</ele><time>2026-04-25T06:55:35.101Z</time></trkpt><trkpt lat="45.5852292" lon="11.363098"><ele>221.79999999999998</ele><time>2026-04-25T06:55:36.101Z</time></trkpt><trkpt lat="45.5851629" lon="11.3629995"><ele>223.20000000000002</ele><time>2026-04-25T06:55:37.101Z</time></trkpt><trkpt lat="45.5851046" lon="11.3628695"><ele>224.60000000000002</ele><time>2026-04-25T06:55:38.101Z</time></trkpt><trkpt lat="45.5850556" lon="11.3627146"><ele>226.0</ele><time>2026-04-25T06:55:39.101Z</time></trkpt><trkpt lat="45.5850127" lon="11.362545"><ele>228.25</ele><time>2026-04-25T06:55:40.102Z</time></trkpt><trkpt lat="45.5849702" lon="11.3623726"><ele>230.5</ele><time>2026-04-25T06:55:41.101Z</time></trkpt><trkpt lat="45.5849242" lon="11.3621887"><ele>232.75</ele><time>2026-04-25T06:55:42.101Z</time></trkpt><trkpt lat="45.5848748" lon="11.3620105"><ele>235.0</ele><time>2026-04-25T06:55:43.101Z</time></trkpt><trkpt lat="45.5848304" lon="11.3618571"><ele>236.2</ele><time>2026-04-25T06:55:44.102Z</time></trkpt><trkpt lat="45.5848205" lon="11.3617207"><ele>237.4</ele><time>2026-04-25T06:55:45.102Z</time></trkpt><trkpt lat="45.5848448" lon="11.3615972"><ele>238.60000000000002</ele><time>2026-04-25T06:55:46.101Z</time></trkpt><trkpt lat="45.5849055" lon="11.3615021"><ele>239.8</ele><time>2026-04-25T06:55:47.101Z</time></trkpt><trkpt lat="45.5849922" lon="11.3614441"><ele>241.0</ele><time>2026-04-25T06:55:48.101Z</time></trkpt><trkpt lat="45.5850863" lon="11.3614142"><ele>242.4</ele><time>2026-04-25T06:55:49.102Z</time></trkpt><trkpt lat="45.585175" lon="11.3613543"><ele>243.8</ele><time>2026-04-25T06:55:50.102Z</time></trkpt><trkpt lat="45.5852465" lon="11.3612525"><ele>245.20000000000002</ele><time>2026-04-25T06:55:51.101Z</time></trkpt><trkpt lat="45.5852951" lon="11.3611172"><ele>246.60000000000002</ele><time>2026-04-25T06:55:52.101Z</time></trkpt><trkpt lat="45.5853153" lon="11.3609568"><ele>248.0</ele><time>2026-04-25T06:55:53.102Z</time></trkpt><trkpt lat="45.5853139" lon="11.3607847"><ele>248.0</ele><time>2026-04-25T06:55:54.101Z</time></trkpt><trkpt lat="45.5853059" lon="11.3605987"><ele>248.0</ele><time>2026-04-25T06:55:55.101Z</time></trkpt><trkpt lat="45.5852905" lon="11.3604064"><ele>248.0</ele><time>2026-04-25T06:55:56.101Z</time></trkpt><trkpt lat="45.5852727" lon="11.3602086"><ele>248.0</ele><time>2026-04-25T06:55:57.101Z</time></trkpt><trkpt lat="45.5852494" lon="11.3600091"><ele>250.25</ele><time>2026-04-25T06:55:58.102Z</time></trkpt><trkpt lat="45.5852184" lon="11.3598165"><ele>252.5</ele><time>2026-04-25T06:55:59.102Z</time></trkpt><trkpt lat="45.5851752" lon="11.3596388"><ele>254.75</ele><time>2026-04-25T06:56:00.102Z</time></trkpt><trkpt lat="45.585127" lon="11.3594707"><ele>257.0</ele><time>2026-04-25T06:56:01.102Z</time></trkpt><trkpt lat="45.5850729" lon="11.3593068"><ele>258.0</ele><time>2026-04-25T06:56:02.101Z</time></trkpt><trkpt lat="45.5850127" lon="11.3591462"><ele>259.0</ele><time>2026-04-25T06:56:03.101Z</time></trkpt><trkpt lat="45.5849503" lon="11.3589919"><ele>260.0</ele><time>2026-04-25T06:56:04.102Z</time></trkpt><trkpt lat="45.5848877" lon="11.3588363"><ele>261.0</ele><time>2026-04-25T06:56:05.101Z</time></trkpt><trkpt lat="45.5848259" lon="11.358678"><ele>261.75</ele><time>2026-04-25T06:56:06.101Z</time></trkpt><trkpt lat="45.5847619" lon="11.3585174"><ele>262.5</ele><time>2026-04-25T06:56:07.102Z</time></trkpt><trkpt lat="45.5846941" lon="11.3583534"><ele>263.25</ele><time>2026-04-25T06:56:08.102Z</time></trkpt><trkpt lat="45.5846251" lon="11.3581853"><ele>264.0</ele><time>2026-04-25T06:56:09.101Z</time></trkpt><trkpt lat="45.5845525" lon="11.3580148"><ele>268.5</ele><time>2026-04-25T06:56:10.101Z</time></trkpt><trkpt lat="45.5844804" lon="11.3578435"><ele>273.0</ele><time>2026-04-25T06:56:11.101Z</time></trkpt><trkpt lat="45.5844075" lon="11.3576728"><ele>277.5</ele><time>2026-04-25T06:56:12.102Z</time></trkpt><trkpt lat="45.5843353" lon="11.357499"><ele>282.0</ele><time>2026-04-25T06:56:13.102Z</time></trkpt><trkpt lat="45.5842622" lon="11.3573249"><ele>282.25</ele><time>2026-04-25T06:56:14.101Z</time></trkpt><trkpt lat="45.5841886" lon="11.3571501"><ele>282.5</ele><time>2026-04-25T06:56:15.102Z</time></trkpt><trkpt lat="45.5841161" lon="11.3569767"><ele>282.75</ele><time>2026-04-25T06:56:16.102Z</time></trkpt><trkpt lat="45.5840398" lon="11.3568053"><ele>283.0</ele><time>2026-04-25T06:56:17.101Z</time></trkpt><trkpt lat="45.583955" lon="11.3566374"><ele>283.0</ele><time>2026-04-25T06:56:18.101Z</time></trkpt><trkpt lat="45.5838615" lon="11.3564737"><ele>283.0</ele><time>2026-04-25T06:56:19.101Z</time></trkpt><trkpt lat="45.5837644" lon="11.356314"><ele>283.0</ele><time>2026-04-25T06:56:20.101Z</time></trkpt><trkpt lat="45.5836657" lon="11.3561551"><ele>283.0</ele><time>2026-04-25T06:56:21.102Z</time></trkpt><trkpt lat="45.5835677" lon="11.3559934"><ele>287.0</ele><time>2026-04-25T06:56:22.102Z</time></trkpt><trkpt lat="45.5834744" lon="11.3558417"><ele>291.0</ele><time>2026-04-25T06:56:23.101Z</time></trkpt><trkpt lat="45.5833834" lon="11.3557233"><ele>295.0</ele><time>2026-04-25T06:56:24.102Z</time></trkpt><trkpt lat="45.5832846" lon="11.3556453"><ele>299.0</ele><time>2026-04-25T06:56:25.102Z</time></trkpt><trkpt lat="45.5831762" lon="11.3556245"><ele>299.0</ele><time>2026-04-25T06:56:26.101Z</time></trkpt><trkpt lat="45.5830574" lon="11.3556562"><ele>299.0</ele><time>2026-04-25T06:56:27.101Z</time></trkpt><trkpt lat="45.5829349" lon="11.3557205"><ele>299.0</ele><time>2026-04-25T06:56:28.101Z</time></trkpt><trkpt lat="45.5828135" lon="11.3557848"><ele>299.0</ele><time>2026-04-25T06:56:29.102Z</time></trkpt><trkpt lat="45.5827112" lon="11.3558254"><ele>300.5</ele><time>2026-04-25T06:56:30.101Z</time></trkpt><trkpt lat="45.5826249" lon="11.355826"><ele>302.0</ele><time>2026-04-25T06:56:31.102Z</time></trkpt><trkpt lat="45.5825536" lon="11.3557893"><ele>303.5</ele><time>2026-04-25T06:56:32.101Z</time></trkpt><trkpt lat="45.5824993" lon="11.3557225"><ele>305.0</ele><time>2026-04-25T06:56:33.101Z</time></trkpt><trkpt lat="45.5824755" lon="11.3556249"><ele>306.5</ele><time>2026-04-25T06:56:34.101Z</time></trkpt><trkpt lat="45.5824782" lon="11.3555122"><ele>308.0</ele><time>2026-04-25T06:56:35.101Z</time></trkpt><trkpt lat="45.5825021" lon="11.355392"><ele>310.2</ele><time>2026-04-25T06:56:36.102Z</time></trkpt><trkpt lat="45.5825407" lon="11.3552635"><ele>312.4</ele><time>2026-04-25T06:56:37.102Z</time></trkpt><trkpt lat="45.5825816" lon="11.3551252"><ele>314.59999999999997</ele><time>2026-04-25T06:56:38.103Z</time></trkpt><trkpt lat="45.5826262" lon="11.3549775"><ele>316.8</ele><time>2026-04-25T06:56:39.101Z</time></trkpt><trkpt lat="45.5826701" lon="11.3548238"><ele>319.0</ele><time>2026-04-25T06:56:40.101Z</time></trkpt><trkpt lat="45.5827143" lon="11.354662"><ele>319.25</ele><time>2026-04-25T06:56:41.102Z</time></trkpt><trkpt lat="45.5827606" lon="11.3544933"><ele>319.5</ele><time>2026-04-25T06:56:42.102Z</time></trkpt><trkpt lat="45.5828101" lon="11.3543205"><ele>319.75</ele><time>2026-04-25T06:56:43.102Z</time></trkpt><trkpt lat="45.5828608" lon="11.3541565"><ele>320.0</ele><time>2026-04-25T06:56:44.102Z</time></trkpt><trkpt lat="45.5829121" lon="11.3540045"><ele>320.25</ele><time>2026-04-25T06:56:45.102Z</time></trkpt><trkpt lat="45.5829734" lon="11.3538596"><ele>320.5</ele><time>2026-04-25T06:56:46.101Z</time></trkpt><trkpt lat="45.5830511" lon="11.3537171"><ele>320.75</ele><time>2026-04-25T06:56:47.101Z</time></trkpt><trkpt lat="45.5831472" lon="11.3535898"><ele>321.0</ele><time>2026-04-25T06:56:48.102Z</time></trkpt><trkpt lat="45.583257" lon="11.3534811"><ele>321.0</ele><time>2026-04-25T06:56:49.101Z</time></trkpt><trkpt lat="45.5833746" lon="11.3533895"><ele>321.0</ele><time>2026-04-25T06:56:50.101Z</time></trkpt><trkpt lat="45.5834952" lon="11.3532903"><ele>321.0</ele><time>2026-04-25T06:56:51.101Z</time></trkpt><trkpt lat="45.583617" lon="11.3531926"><ele>321.0</ele><time>2026-04-25T06:56:52.102Z</time></trkpt><trkpt lat="45.5837417" lon="11.3530924"><ele>323.25</ele><time>2026-04-25T06:56:53.102Z</time></trkpt><trkpt lat="45.5838684" lon="11.3529925"><ele>325.5</ele><time>2026-04-25T06:56:54.101Z</time></trkpt><trkpt lat="45.5839974" lon="11.3528938"><ele>327.75</ele><time>2026-04-25T06:56:55.101Z</time></trkpt><trkpt lat="45.5841216" lon="11.3527899"><ele>330.0</ele><time>2026-04-25T06:56:56.101Z</time></trkpt><trkpt lat="45.5842432" lon="11.3526772"><ele>330.0</ele><time>2026-04-25T06:56:57.102Z</time></trkpt><trkpt lat="45.5843544" lon="11.3525477"><ele>330.0</ele><time>2026-04-25T06:56:58.101Z</time></trkpt><trkpt lat="45.5844532" lon="11.3524003"><ele>330.0</ele><time>2026-04-25T06:56:59.102Z</time></trkpt><trkpt lat="45.5845361" lon="11.3522344"><ele>330.0</ele><time>2026-04-25T06:57:00.101Z</time></trkpt><trkpt lat="45.5846068" lon="11.3520496"><ele>331.0</ele><time>2026-04-25T06:57:01.101Z</time></trkpt><trkpt lat="45.5846639" lon="11.3518493"><ele>332.0</ele><time>2026-04-25T06:57:02.101Z</time></trkpt><trkpt lat="45.584719" lon="11.3516412"><ele>333.0</ele><time>2026-04-25T06:57:03.103Z</time></trkpt><trkpt lat="45.5847788" lon="11.3514347"><ele>336.3333333333333</ele><time>2026-04-25T06:57:04.102Z</time></trkpt><trkpt lat="45.584834" lon="11.3512247"><ele>339.66666666666663</ele><time>2026-04-25T06:57:05.102Z</time></trkpt><trkpt lat="45.5848887" lon="11.3510163"><ele>343.0</ele><time>2026-04-25T06:57:06.101Z</time></trkpt><trkpt lat="45.584951" lon="11.3508123"><ele>343.0</ele><time>2026-04-25T06:57:07.102Z</time></trkpt><trkpt lat="45.5850162" lon="11.350615"><ele>343.0</ele><time>2026-04-25T06:57:08.102Z</time></trkpt><trkpt lat="45.5850862" lon="11.3504269"><ele>343.0</ele><time>2026-04-25T06:57:09.101Z</time></trkpt><trkpt lat="45.5851612" lon="11.3502494"><ele>343.0</ele><time>2026-04-25T06:57:10.102Z</time></trkpt><trkpt lat="45.5852325" lon="11.3500806"><ele>344.0</ele><time>2026-04-25T06:57:11.101Z</time></trkpt><trkpt lat="45.5852987" lon="11.3499219"><ele>345.0</ele><time>2026-04-25T06:57:12.102Z</time></trkpt><trkpt lat="45.5853571" lon="11.3497588"><ele>346.0</ele><time>2026-04-25T06:57:13.102Z</time></trkpt><trkpt lat="45.5854095" lon="11.3495803"><ele>347.0</ele><time>2026-04-25T06:57:14.101Z</time></trkpt><trkpt lat="45.5854361" lon="11.3493848"><ele>350.33333333333337</ele><time>2026-04-25T06:57:15.101Z</time></trkpt><trkpt lat="45.5854487" lon="11.3491778"><ele>353.6666666666667</ele><time>2026-04-25T06:57:16.101Z</time></trkpt><trkpt lat="45.5854523" lon="11.3489612"><ele>357.0</ele><time>2026-04-25T06:57:17.102Z</time></trkpt><trkpt lat="45.5854528" lon="11.3487394"><ele>358.0</ele><time>2026-04-25T06:57:18.101Z</time></trkpt><trkpt lat="45.5854541" lon="11.348514"><ele>359.0</ele><time>2026-04-25T06:57:19.101Z</time></trkpt><trkpt lat="45.5854587" lon="11.3483001"><ele>360.0</ele><time>2026-04-25T06:57:20.101Z</time></trkpt><trkpt lat="45.5854635" lon="11.3481039"><ele>361.0</ele><time>2026-04-25T06:57:21.101Z</time></trkpt><trkpt lat="45.585468" lon="11.34792"><ele>362.75</ele><time>2026-04-25T06:57:22.102Z</time></trkpt><trkpt lat="45.5854712" lon="11.34774"><ele>364.5</ele><time>2026-04-25T06:57:23.103Z</time></trkpt><trkpt lat="45.5854729" lon="11.3475764"><ele>366.25</ele><time>2026-04-25T06:57:24.101Z</time></trkpt><trkpt lat="45.5854807" lon="11.3474224"><ele>368.0</ele><time>2026-04-25T06:57:25.101Z</time></trkpt><trkpt lat="45.5855029" lon="11.3472734"><ele>368.5</ele><time>2026-04-25T06:57:26.102Z</time></trkpt><trkpt lat="45.5855493" lon="11.3471361"><ele>369.0</ele><time>2026-04-25T06:57:27.101Z</time></trkpt><trkpt lat="45.5856242" lon="11.3470175"><ele>369.5</ele><time>2026-04-25T06:57:28.101Z</time></trkpt><trkpt lat="45.5857226" lon="11.3469104"><ele>370.0</ele><time>2026-04-25T06:57:29.102Z</time></trkpt><trkpt lat="45.5858413" lon="11.3468138"><ele>370.0</ele><time>2026-04-25T06:57:30.101Z</time></trkpt><trkpt lat="45.5859719" lon="11.3467173"><ele>370.0</ele><time>2026-04-25T06:57:31.102Z</time></trkpt><trkpt lat="45.5861096" lon="11.346618"><ele>370.0</ele><time>2026-04-25T06:57:32.102Z</time></trkpt><trkpt lat="45.5862512" lon="11.3465092"><ele>372.0</ele><time>2026-04-25T06:57:33.101Z</time></trkpt><trkpt lat="45.5863919" lon="11.3464028"><ele>374.0</ele><time>2026-04-25T06:57:34.101Z</time></trkpt><trkpt lat="45.5865287" lon="11.3462947"><ele>376.0</ele><time>2026-04-25T06:57:35.101Z</time></trkpt><trkpt lat="45.5866602" lon="11.3461979"><ele>377.0</ele><time>2026-04-25T06:57:36.101Z</time></trkpt><trkpt lat="45.5867834" lon="11.346113"><ele>378.0</ele><time>2026-04-25T06:57:37.102Z</time></trkpt><trkpt lat="45.586898" lon="11.3460306"><ele>379.0</ele><time>2026-04-25T06:57:38.101Z</time></trkpt><trkpt lat="45.5870046" lon="11.3459481"><ele>380.0</ele><time>2026-04-25T06:57:39.103Z</time></trkpt><trkpt lat="45.5870904" lon="11.3458512"><ele>382.0</ele><time>2026-04-25T06:57:40.101Z</time></trkpt><trkpt lat="45.5871506" lon="11.3457229"><ele>384.0</ele><time>2026-04-25T06:57:41.102Z</time></trkpt><trkpt lat="45.5871783" lon="11.34557"><ele>386.0</ele><time>2026-04-25T06:57:42.102Z</time></trkpt><trkpt lat="45.5871752" lon="11.3454027"><ele>388.0</ele><time>2026-04-25T06:57:43.102Z</time></trkpt><trkpt lat="45.5871751" lon="11.3452323"><ele>390.25</ele><time>2026-04-25T06:57:44.102Z</time></trkpt><trkpt lat="45.5871827" lon="11.3450642"><ele>392.5</ele><time>2026-04-25T06:57:45.101Z</time></trkpt><trkpt lat="45.5871985" lon="11.3448908"><ele>394.75</ele><time>2026-04-25T06:57:46.101Z</time></trkpt><trkpt lat="45.5872225" lon="11.3447207"><ele>397.0</ele><time>2026-04-25T06:57:47.102Z</time></trkpt><trkpt lat="45.587256" lon="11.3445485"><ele>397.0</ele><time>2026-04-25T06:57:48.101Z</time></trkpt><trkpt lat="45.5872775" lon="11.3443663"><ele>397.0</ele><time>2026-04-25T06:57:49.101Z</time></trkpt><trkpt lat="45.5872824" lon="11.3441829"><ele>397.0</ele><time>2026-04-25T06:57:50.103Z</time></trkpt><trkpt lat="45.5872717" lon="11.3439969"><ele>397.0</ele><time>2026-04-25T06:57:51.102Z</time></trkpt><trkpt lat="45.5872459" lon="11.3438086"><ele>398.0</ele><time>2026-04-25T06:57:52.102Z</time></trkpt><trkpt lat="45.5872137" lon="11.343624"><ele>399.0</ele><time>2026-04-25T06:57:53.102Z</time></trkpt><trkpt lat="45.5871798" lon="11.3434508"><ele>400.0</ele><time>2026-04-25T06:57:54.101Z</time></trkpt><trkpt lat="45.5871551" lon="11.3432845"><ele>401.0</ele><time>2026-04-25T06:57:55.101Z</time></trkpt><trkpt lat="45.5871441" lon="11.3431135"><ele>401.25</ele><time>2026-04-25T06:57:56.102Z</time></trkpt><trkpt lat="45.5871575" lon="11.34294"><ele>401.5</ele><time>2026-04-25T06:57:57.101Z</time></trkpt><trkpt lat="45.5871973" lon="11.3427719"><ele>401.75</ele><time>2026-04-25T06:57:58.102Z</time></trkpt><trkpt lat="45.5872375" lon="11.3425986"><ele>402.0</ele><time>2026-04-25T06:57:59.101Z</time></trkpt><trkpt lat="45.5872318" lon="11.3424116"><ele>402.0</ele><time>2026-04-25T06:58:00.101Z</time></trkpt><trkpt lat="45.5872002" lon="11.3422245"><ele>402.0</ele><time>2026-04-25T06:58:01.101Z</time></trkpt><trkpt lat="45.5871464" lon="11.3420427"><ele>402.0</ele><time>2026-04-25T06:58:02.102Z</time></trkpt><trkpt lat="45.5870797" lon="11.3418649"><ele>402.0</ele><time>2026-04-25T06:58:03.102Z</time></trkpt><trkpt lat="45.5870132" lon="11.3416864"><ele>403.0</ele><time>2026-04-25T06:58:04.102Z</time></trkpt><trkpt lat="45.5869465" lon="11.341513"><ele>404.0</ele><time>2026-04-25T06:58:05.101Z</time></trkpt><trkpt lat="45.5868783" lon="11.3413402"><ele>405.0</ele><time>2026-04-25T06:58:06.101Z</time></trkpt><trkpt lat="45.5868116" lon="11.3411695"><ele>406.0</ele><time>2026-04-25T06:58:07.101Z</time></trkpt><trkpt lat="45.586748" lon="11.3410007"><ele>406.0</ele><time>2026-04-25T06:58:08.102Z</time></trkpt><trkpt lat="45.5866974" lon="11.3408312"><ele>406.0</ele><time>2026-04-25T06:58:09.102Z</time></trkpt><trkpt lat="45.5866648" lon="11.3406454"><ele>406.0</ele><time>2026-04-25T06:58:10.102Z</time></trkpt><trkpt lat="45.5866612" lon="11.340453"><ele>406.0</ele><time>2026-04-25T06:58:11.102Z</time></trkpt><trkpt lat="45.5866827" lon="11.3402608"><ele>406.75</ele><time>2026-04-25T06:58:12.102Z</time></trkpt><trkpt lat="45.5867097" lon="11.3400692"><ele>407.5</ele><time>2026-04-25T06:58:13.101Z</time></trkpt><trkpt lat="45.5867386" lon="11.3398813"><ele>408.25</ele><time>2026-04-25T06:58:14.102Z</time></trkpt><trkpt lat="45.5867713" lon="11.3397035"><ele>409.0</ele><time>2026-04-25T06:58:15.102Z</time></trkpt><trkpt lat="45.5868025" lon="11.3395407"><ele>409.25</ele><time>2026-04-25T06:58:16.102Z</time></trkpt><trkpt lat="45.5868348" lon="11.3393823"><ele>409.5</ele><time>2026-04-25T06:58:17.101Z</time></trkpt><trkpt lat="45.5868724" lon="11.3392164"><ele>409.75</ele><time>2026-04-25T06:58:18.101Z</time></trkpt><trkpt lat="45.5869165" lon="11.3390455"><ele>410.0</ele><time>2026-04-25T06:58:19.101Z</time></trkpt><trkpt lat="45.586966" lon="11.3388695"><ele>408.75</ele><time>2026-04-25T06:58:20.102Z</time></trkpt><trkpt lat="45.5870177" lon="11.3386898"><ele>407.5</ele><time>2026-04-25T06:58:21.102Z</time></trkpt><trkpt lat="45.5870713" lon="11.338512"><ele>406.25</ele><time>2026-04-25T06:58:22.102Z</time></trkpt><trkpt lat="45.5871272" lon="11.3383279"><ele>405.0</ele><time>2026-04-25T06:58:23.101Z</time></trkpt><trkpt lat="45.5871798" lon="11.3381467"><ele>405.5</ele><time>2026-04-25T06:58:24.101Z</time></trkpt><trkpt lat="45.5872215" lon="11.3379683"><ele>406.0</ele><time>2026-04-25T06:58:25.101Z</time></trkpt><trkpt lat="45.5872494" lon="11.3377772"><ele>406.5</ele><time>2026-04-25T06:58:26.102Z</time></trkpt><trkpt lat="45.5872627" lon="11.337585"><ele>407.0</ele><time>2026-04-25T06:58:27.101Z</time></trkpt><trkpt lat="45.5872732" lon="11.3374016"><ele>407.0</ele><time>2026-04-25T06:58:28.101Z</time></trkpt><trkpt lat="45.5872951" lon="11.3372247"><ele>407.0</ele><time>2026-04-25T06:58:29.103Z</time></trkpt><trkpt lat="45.5873311" lon="11.3370579"><ele>407.0</ele><time>2026-04-25T06:58:30.102Z</time></trkpt><trkpt lat="45.5873748" lon="11.3369075"><ele>407.0</ele><time>2026-04-25T06:58:31.101Z</time></trkpt><trkpt lat="45.5874144" lon="11.3367653"><ele>407.49999999999994</ele><time>2026-04-25T06:58:32.102Z</time></trkpt><trkpt lat="45.5874511" lon="11.3366364"><ele>408.0</ele><time>2026-04-25T06:58:33.101Z</time></trkpt><trkpt lat="45.5874849" lon="11.3365156"><ele>408.5</ele><time>2026-04-25T06:58:34.101Z</time></trkpt><trkpt lat="45.5875156" lon="11.336412"><ele>409.0</ele><time>2026-04-25T06:58:35.102Z</time></trkpt><trkpt lat="45.5875535" lon="11.336338"><ele>409.49999999999994</ele><time>2026-04-25T06:58:36.102Z</time></trkpt><trkpt lat="45.5876321" lon="11.3362581"><ele>410.0</ele><time>2026-04-25T06:58:38.101Z</time></trkpt><trkpt lat="45.5877087" lon="11.3362241"><ele>411.4</ele><time>2026-04-25T06:58:41.101Z</time></trkpt><trkpt lat="45.5877653" lon="11.3361613"><ele>412.8</ele><time>2026-04-25T06:58:44.101Z</time></trkpt><trkpt lat="45.5877495" lon="11.3359996"><ele>414.20000000000005</ele><time>2026-04-25T06:58:46.103Z</time></trkpt><trkpt lat="45.5877431" lon="11.3358863"><ele>415.6</ele><time>2026-04-25T06:58:47.102Z</time></trkpt><trkpt lat="45.5877314" lon="11.3357612"><ele>417.0</ele><time>2026-04-25T06:58:48.102Z</time></trkpt><trkpt lat="45.5877083" lon="11.3356195"><ele>417.5</ele><time>2026-04-25T06:58:49.102Z</time></trkpt><trkpt lat="45.5876761" lon="11.3354624"><ele>418.0</ele><time>2026-04-25T06:58:50.101Z</time></trkpt><trkpt lat="45.5876431" lon="11.3352949"><ele>418.5</ele><time>2026-04-25T06:58:51.101Z</time></trkpt><trkpt lat="45.5876125" lon="11.3351254"><ele>419.0</ele><time>2026-04-25T06:58:52.102Z</time></trkpt><trkpt lat="45.5875962" lon="11.3349719"><ele>419.0</ele><time>2026-04-25T06:58:53.102Z</time></trkpt><trkpt lat="45.5875895" lon="11.3348209"><ele>419.0</ele><time>2026-04-25T06:58:54.102Z</time></trkpt><trkpt lat="45.5875893" lon="11.3346681"><ele>419.0</ele><time>2026-04-25T06:58:55.102Z</time></trkpt><trkpt lat="45.5875915" lon="11.3345161"><ele>419.0</ele><time>2026-04-25T06:58:56.103Z</time></trkpt><trkpt lat="45.5875956" lon="11.3343653"><ele>419.0</ele><time>2026-04-25T06:58:57.101Z</time></trkpt><trkpt lat="45.5875997" lon="11.3342168"><ele>420.0</ele><time>2026-04-25T06:58:58.102Z</time></trkpt><trkpt lat="45.5876076" lon="11.3340703"><ele>421.0</ele><time>2026-04-25T06:58:59.101Z</time></trkpt><trkpt lat="45.5876259" lon="11.3339254"><ele>422.0</ele><time>2026-04-25T06:59:00.102Z</time></trkpt><trkpt lat="45.5876544" lon="11.3337775"><ele>423.0</ele><time>2026-04-25T06:59:01.101Z</time></trkpt><trkpt lat="45.58769" lon="11.3336249"><ele>424.0</ele><time>2026-04-25T06:59:02.102Z</time></trkpt><trkpt lat="45.587727" lon="11.3334755"><ele>424.5</ele><time>2026-04-25T06:59:03.101Z</time></trkpt><trkpt lat="45.5877637" lon="11.333304"><ele>425.0</ele><time>2026-04-25T06:59:04.102Z</time></trkpt><trkpt lat="45.5878066" lon="11.3331144"><ele>425.5</ele><time>2026-04-25T06:59:05.101Z</time></trkpt><trkpt lat="45.58786" lon="11.3329229"><ele>426.0</ele><time>2026-04-25T06:59:06.102Z</time></trkpt><trkpt lat="45.587913" lon="11.3327399"><ele>426.75</ele><time>2026-04-25T06:59:07.101Z</time></trkpt><trkpt lat="45.5879598" lon="11.3325655"><ele>427.5</ele><time>2026-04-25T06:59:08.102Z</time></trkpt><trkpt lat="45.5880038" lon="11.3323937"><ele>428.25</ele><time>2026-04-25T06:59:09.102Z</time></trkpt><trkpt lat="45.5880454" lon="11.3322217"><ele>429.0</ele><time>2026-04-25T06:59:10.102Z</time></trkpt><trkpt lat="45.5880847" lon="11.3320447"><ele>430.25</ele><time>2026-04-25T06:59:11.102Z</time></trkpt><trkpt lat="45.5881139" lon="11.331857"><ele>431.5</ele><time>2026-04-25T06:59:12.101Z</time></trkpt><trkpt lat="45.588137" lon="11.3316611"><ele>432.75</ele><time>2026-04-25T06:59:13.101Z</time></trkpt><trkpt lat="45.5881611" lon="11.3314642"><ele>434.0</ele><time>2026-04-25T06:59:14.101Z</time></trkpt><trkpt lat="45.5881862" lon="11.3312751"><ele>435.5</ele><time>2026-04-25T06:59:15.101Z</time></trkpt><trkpt lat="45.5882059" lon="11.3310944"><ele>437.0</ele><time>2026-04-25T06:59:16.102Z</time></trkpt><trkpt lat="45.5882231" lon="11.3309227"><ele>438.5</ele><time>2026-04-25T06:59:17.101Z</time></trkpt><trkpt lat="45.5882486" lon="11.3307567"><ele>440.0</ele><time>2026-04-25T06:59:18.102Z</time></trkpt><trkpt lat="45.5882918" lon="11.3305986"><ele>441.8</ele><time>2026-04-25T06:59:19.101Z</time></trkpt><trkpt lat="45.5883575" lon="11.3304652"><ele>443.6</ele><time>2026-04-25T06:59:20.102Z</time></trkpt><trkpt lat="45.5884438" lon="11.3303607"><ele>445.4</ele><time>2026-04-25T06:59:21.101Z</time></trkpt><trkpt lat="45.5885414" lon="11.3302917"><ele>447.2</ele><time>2026-04-25T06:59:22.102Z</time></trkpt><trkpt lat="45.5886354" lon="11.330237"><ele>449.0</ele><time>2026-04-25T06:59:23.101Z</time></trkpt><trkpt lat="45.588703" lon="11.3301444"><ele>449.0</ele><time>2026-04-25T06:59:24.103Z</time></trkpt><trkpt lat="45.5887325" lon="11.3300133"><ele>449.0</ele><time>2026-04-25T06:59:25.102Z</time></trkpt><trkpt lat="45.5887203" lon="11.3298735"><ele>449.0</ele><time>2026-04-25T06:59:26.102Z</time></trkpt><trkpt lat="45.5886688" lon="11.3297428"><ele>449.0</ele><time>2026-04-25T06:59:27.102Z</time></trkpt><trkpt lat="45.5885881" lon="11.3296369"><ele>449.0</ele><time>2026-04-25T06:59:28.101Z</time></trkpt><trkpt lat="45.5884851" lon="11.3295648"><ele>452.5</ele><time>2026-04-25T06:59:29.101Z</time></trkpt><trkpt lat="45.5883801" lon="11.3295151"><ele>456.0</ele><time>2026-04-25T06:59:30.101Z</time></trkpt><trkpt lat="45.5882788" lon="11.3294495"><ele>459.5</ele><time>2026-04-25T06:59:31.101Z</time></trkpt><trkpt lat="45.588181" lon="11.329358"><ele>463.0</ele><time>2026-04-25T06:59:32.102Z</time></trkpt><trkpt lat="45.5880901" lon="11.3292491"><ele>463.0</ele><time>2026-04-25T06:59:33.101Z</time></trkpt><trkpt lat="45.587995" lon="11.3291308"><ele>463.0</ele><time>2026-04-25T06:59:34.101Z</time></trkpt><trkpt lat="45.5879062" lon="11.3290143"><ele>463.0</ele><time>2026-04-25T06:59:35.101Z</time></trkpt><trkpt lat="45.5878283" lon="11.3289071"><ele>463.0</ele><time>2026-04-25T06:59:36.103Z</time></trkpt><trkpt lat="45.5877742" lon="11.3287942"><ele>462.2</ele><time>2026-04-25T06:59:37.101Z</time></trkpt><trkpt lat="45.5877481" lon="11.3286754"><ele>461.4</ele><time>2026-04-25T06:59:38.101Z</time></trkpt><trkpt lat="45.5877427" lon="11.3285412"><ele>460.59999999999997</ele><time>2026-04-25T06:59:39.102Z</time></trkpt><trkpt lat="45.5877612" lon="11.3284114"><ele>459.79999999999995</ele><time>2026-04-25T06:59:40.101Z</time></trkpt><trkpt lat="45.5877993" lon="11.3283"><ele>459.0</ele><time>2026-04-25T06:59:41.101Z</time></trkpt><trkpt lat="45.5878584" lon="11.328203"><ele>461.0</ele><time>2026-04-25T06:59:42.102Z</time></trkpt><trkpt lat="45.5879284" lon="11.3281215"><ele>463.0</ele><time>2026-04-25T06:59:43.102Z</time></trkpt><trkpt lat="45.5880018" lon="11.3280486"><ele>465.0</ele><time>2026-04-25T06:59:44.101Z</time></trkpt><trkpt lat="45.5880783" lon="11.3279782"><ele>467.0</ele><time>2026-04-25T06:59:45.101Z</time></trkpt><trkpt lat="45.5881546" lon="11.327905"><ele>469.0</ele><time>2026-04-25T06:59:46.102Z</time></trkpt><trkpt lat="45.5882274" lon="11.3278279"><ele>469.0</ele><time>2026-04-25T06:59:47.103Z</time></trkpt><trkpt lat="45.5882963" lon="11.3277456"><ele>469.0</ele><time>2026-04-25T06:59:48.101Z</time></trkpt><trkpt lat="45.5883608" lon="11.3276558"><ele>469.0</ele><time>2026-04-25T06:59:49.102Z</time></trkpt><trkpt lat="45.5884239" lon="11.3275587"><ele>469.0</ele><time>2026-04-25T06:59:50.101Z</time></trkpt><trkpt lat="45.5884786" lon="11.3274537"><ele>469.0</ele><time>2026-04-25T06:59:51.101Z</time></trkpt><trkpt lat="45.588521" lon="11.3273476"><ele>469.00000000000006</ele><time>2026-04-25T06:59:52.102Z</time></trkpt><trkpt lat="45.588554" lon="11.3272369"><ele>469.0</ele><time>2026-04-25T06:59:53.102Z</time></trkpt><trkpt lat="45.5885765" lon="11.3271194"><ele>469.0</ele><time>2026-04-25T06:59:54.101Z</time></trkpt><trkpt lat="45.5885785" lon="11.3269927"><ele>469.0</ele><time>2026-04-25T06:59:55.101Z</time></trkpt><trkpt lat="45.5885608" lon="11.3268632"><ele>469.00000000000006</ele><time>2026-04-25T06:59:56.101Z</time></trkpt><trkpt lat="45.5885376" lon="11.326728"><ele>469.0</ele><time>2026-04-25T06:59:57.102Z</time></trkpt><trkpt lat="45.5885141" lon="11.3265899"><ele>469.2</ele><time>2026-04-25T06:59:58.102Z</time></trkpt><trkpt lat="45.5884973" lon="11.3264488"><ele>469.4</ele><time>2026-04-25T06:59:59.101Z</time></trkpt><trkpt lat="45.588495" lon="11.3262973"><ele>469.6</ele><time>2026-04-25T07:00:00.102Z</time></trkpt><trkpt lat="45.5885181" lon="11.3261423"><ele>469.8</ele><time>2026-04-25T07:00:01.101Z</time></trkpt><trkpt lat="45.5885517" lon="11.3259787"><ele>470.0</ele><time>2026-04-25T07:00:02.101Z</time></trkpt><trkpt lat="45.588589" lon="11.3258111"><ele>471.5</ele><time>2026-04-25T07:00:03.102Z</time></trkpt><trkpt lat="45.5886246" lon="11.3256418"><ele>473.0</ele><time>2026-04-25T07:00:04.101Z</time></trkpt><trkpt lat="45.588652" lon="11.325475"><ele>474.5</ele><time>2026-04-25T07:00:05.101Z</time></trkpt><trkpt lat="45.5886691" lon="11.3253164"><ele>476.0</ele><time>2026-04-25T07:00:06.102Z</time></trkpt><trkpt lat="45.5886825" lon="11.3251629"><ele>474.4</ele><time>2026-04-25T07:00:07.102Z</time></trkpt><trkpt lat="45.5886871" lon="11.325015"><ele>472.8</ele><time>2026-04-25T07:00:08.101Z</time></trkpt><trkpt lat="45.5886844" lon="11.3248707"><ele>471.19999999999993</ele><time>2026-04-25T07:00:09.102Z</time></trkpt><trkpt lat="45.5886819" lon="11.3247339"><ele>469.59999999999997</ele><time>2026-04-25T07:00:10.102Z</time></trkpt><trkpt lat="45.5886896" lon="11.3246119"><ele>468.0</ele><time>2026-04-25T07:00:11.103Z</time></trkpt><trkpt lat="45.5887194" lon="11.32449"><ele>468.0</ele><time>2026-04-25T07:00:12.101Z</time></trkpt><trkpt lat="45.5887664" lon="11.324374"><ele>467.99999999999994</ele><time>2026-04-25T07:00:13.101Z</time></trkpt><trkpt lat="45.5888235" lon="11.3242476"><ele>467.99999999999994</ele><time>2026-04-25T07:00:14.101Z</time></trkpt><trkpt lat="45.5888867" lon="11.3241151"><ele>468.0</ele><time>2026-04-25T07:00:15.102Z</time></trkpt><trkpt lat="45.5889536" lon="11.3239824"><ele>468.0</ele><time>2026-04-25T07:00:16.101Z</time></trkpt><trkpt lat="45.5890196" lon="11.3238456"><ele>470.25</ele><time>2026-04-25T07:00:17.102Z</time></trkpt><trkpt lat="45.5890792" lon="11.3236986"><ele>472.5</ele><time>2026-04-25T07:00:18.101Z</time></trkpt><trkpt lat="45.5891266" lon="11.3235393"><ele>474.75</ele><time>2026-04-25T07:00:19.101Z</time></trkpt><trkpt lat="45.5891672" lon="11.3233718"><ele>477.0</ele><time>2026-04-25T07:00:20.101Z</time></trkpt><trkpt lat="45.5892044" lon="11.3231981"><ele>478.25</ele><time>2026-04-25T07:00:21.101Z</time></trkpt><trkpt lat="45.5892356" lon="11.3230174"><ele>479.5</ele><time>2026-04-25T07:00:22.102Z</time></trkpt><trkpt lat="45.5892628" lon="11.3228301"><ele>480.75</ele><time>2026-04-25T07:00:23.102Z</time></trkpt><trkpt lat="45.5892933" lon="11.3226381"><ele>482.0</ele><time>2026-04-25T07:00:24.102Z</time></trkpt><trkpt lat="45.5893273" lon="11.3224413"><ele>482.0</ele><time>2026-04-25T07:00:25.102Z</time></trkpt><trkpt lat="45.5893597" lon="11.3222474"><ele>482.0</ele><time>2026-04-25T07:00:26.102Z</time></trkpt><trkpt lat="45.5893879" lon="11.3220736"><ele>482.0</ele><time>2026-04-25T07:00:27.101Z</time></trkpt><trkpt lat="45.5894092" lon="11.3219026"><ele>482.0</ele><time>2026-04-25T07:00:28.102Z</time></trkpt><trkpt lat="45.5894135" lon="11.3217285"><ele>482.5</ele><time>2026-04-25T07:00:29.102Z</time></trkpt><trkpt lat="45.589394" lon="11.3215504"><ele>483.0</ele><time>2026-04-25T07:00:30.101Z</time></trkpt><trkpt lat="45.5893585" lon="11.3213761"><ele>483.5</ele><time>2026-04-25T07:00:31.101Z</time></trkpt><trkpt lat="45.5893191" lon="11.3212017"><ele>484.0</ele><time>2026-04-25T07:00:32.102Z</time></trkpt><trkpt lat="45.5892817" lon="11.3210235"><ele>484.75</ele><time>2026-04-25T07:00:33.102Z</time></trkpt><trkpt lat="45.5892453" lon="11.3208457"><ele>485.5</ele><time>2026-04-25T07:00:34.101Z</time></trkpt><trkpt lat="45.5892095" lon="11.3206681"><ele>486.25</ele><time>2026-04-25T07:00:35.101Z</time></trkpt><trkpt lat="45.5891742" lon="11.3205022"><ele>487.0</ele><time>2026-04-25T07:00:36.101Z</time></trkpt><trkpt lat="45.589142" lon="11.3203538"><ele>488.20000000000005</ele><time>2026-04-25T07:00:37.102Z</time></trkpt><trkpt lat="45.5891018" lon="11.320216"><ele>489.40000000000003</ele><time>2026-04-25T07:00:38.102Z</time></trkpt><trkpt lat="45.5890485" lon="11.3200815"><ele>490.59999999999997</ele><time>2026-04-25T07:00:39.102Z</time></trkpt><trkpt lat="45.5889884" lon="11.3199476"><ele>491.79999999999995</ele><time>2026-04-25T07:00:40.101Z</time></trkpt><trkpt lat="45.5889219" lon="11.3198131"><ele>493.0</ele><time>2026-04-25T07:00:41.101Z</time></trkpt><trkpt lat="45.5888585" lon="11.3196804"><ele>493.59999999999997</ele><time>2026-04-25T07:00:42.101Z</time></trkpt><trkpt lat="45.5887944" lon="11.3195536"><ele>494.19999999999993</ele><time>2026-04-25T07:00:43.101Z</time></trkpt><trkpt lat="45.5887365" lon="11.319428"><ele>494.8</ele><time>2026-04-25T07:00:44.102Z</time></trkpt><trkpt lat="45.5886951" lon="11.3192818"><ele>495.4</ele><time>2026-04-25T07:00:45.101Z</time></trkpt><trkpt lat="45.5886701" lon="11.3191208"><ele>496.0</ele><time>2026-04-25T07:00:46.102Z</time></trkpt><trkpt lat="45.58865" lon="11.3189507"><ele>494.0</ele><time>2026-04-25T07:00:47.101Z</time></trkpt><trkpt lat="45.5886291" lon="11.318787"><ele>492.0</ele><time>2026-04-25T07:00:48.102Z</time></trkpt><trkpt lat="45.5886158" lon="11.3186151"><ele>490.0</ele><time>2026-04-25T07:00:49.101Z</time></trkpt><trkpt lat="45.5886184" lon="11.3184272"><ele>488.0</ele><time>2026-04-25T07:00:50.102Z</time></trkpt><trkpt lat="45.5886407" lon="11.3182328"><ele>487.25</ele><time>2026-04-25T07:00:51.101Z</time></trkpt><trkpt lat="45.5886662" lon="11.3180316"><ele>486.5</ele><time>2026-04-25T07:00:52.102Z</time></trkpt><trkpt lat="45.5886913" lon="11.3178303"><ele>485.75</ele><time>2026-04-25T07:00:53.101Z</time></trkpt><trkpt lat="45.5887216" lon="11.3176275"><ele>485.0</ele><time>2026-04-25T07:00:54.101Z</time></trkpt><trkpt lat="45.5887586" lon="11.3174276"><ele>486.75</ele><time>2026-04-25T07:00:55.102Z</time></trkpt><trkpt lat="45.5888013" lon="11.3172282"><ele>488.5</ele><time>2026-04-25T07:00:56.101Z</time></trkpt><trkpt lat="45.5888509" lon="11.317044"><ele>490.25</ele><time>2026-04-25T07:00:57.101Z</time></trkpt><trkpt lat="45.5889023" lon="11.3168861"><ele>492.0</ele><time>2026-04-25T07:00:58.102Z</time></trkpt><trkpt lat="45.5889651" lon="11.3167732"><ele>492.0</ele><time>2026-04-25T07:00:59.102Z</time></trkpt><trkpt lat="45.5890476" lon="11.316686"><ele>492.00000000000006</ele><time>2026-04-25T07:01:00.103Z</time></trkpt><trkpt lat="45.5891389" lon="11.3166082"><ele>492.00000000000006</ele><time>2026-04-25T07:01:01.101Z</time></trkpt><trkpt lat="45.5892365" lon="11.316521"><ele>492.0</ele><time>2026-04-25T07:01:02.102Z</time></trkpt><trkpt lat="45.5893299" lon="11.3164175"><ele>492.0</ele><time>2026-04-25T07:01:03.102Z</time></trkpt><trkpt lat="45.5894218" lon="11.3162937"><ele>491.0</ele><time>2026-04-25T07:01:04.102Z</time></trkpt><trkpt lat="45.5895006" lon="11.3161461"><ele>490.0</ele><time>2026-04-25T07:01:05.101Z</time></trkpt><trkpt lat="45.5895691" lon="11.31598"><ele>489.0</ele><time>2026-04-25T07:01:06.101Z</time></trkpt><trkpt lat="45.5896341" lon="11.3158075"><ele>488.0</ele><time>2026-04-25T07:01:07.101Z</time></trkpt><trkpt lat="45.589694" lon="11.3156324"><ele>491.25</ele><time>2026-04-25T07:01:08.101Z</time></trkpt><trkpt lat="45.5897429" lon="11.3154561"><ele>494.5</ele><time>2026-04-25T07:01:09.102Z</time></trkpt><trkpt lat="45.5897811" lon="11.3152691"><ele>497.75</ele><time>2026-04-25T07:01:10.101Z</time></trkpt><trkpt lat="45.5898143" lon="11.3150807"><ele>501.0</ele><time>2026-04-25T07:01:11.102Z</time></trkpt><trkpt lat="45.5898457" lon="11.31489"><ele>500.5</ele><time>2026-04-25T07:01:12.102Z</time></trkpt><trkpt lat="45.5898757" lon="11.3146958"><ele>500.0</ele><time>2026-04-25T07:01:13.102Z</time></trkpt><trkpt lat="45.5899044" lon="11.3145032"><ele>499.5</ele><time>2026-04-25T07:01:14.101Z</time></trkpt><trkpt lat="45.5899387" lon="11.3143164"><ele>499.0</ele><time>2026-04-25T07:01:15.101Z</time></trkpt><trkpt lat="45.589986" lon="11.3141359"><ele>499.0</ele><time>2026-04-25T07:01:16.102Z</time></trkpt><trkpt lat="45.5900457" lon="11.3139753"><ele>499.0</ele><time>2026-04-25T07:01:17.102Z</time></trkpt><trkpt lat="45.5901197" lon="11.3138464"><ele>499.0</ele><time>2026-04-25T07:01:18.102Z</time></trkpt><trkpt lat="45.5901954" lon="11.3137386"><ele>499.0</ele><time>2026-04-25T07:01:19.101Z</time></trkpt><trkpt lat="45.5902597" lon="11.3136197"><ele>499.2</ele><time>2026-04-25T07:01:20.102Z</time></trkpt><trkpt lat="45.5902853" lon="11.3134705"><ele>499.4</ele><time>2026-04-25T07:01:21.103Z</time></trkpt><trkpt lat="45.5902846" lon="11.3133206"><ele>499.6</ele><time>2026-04-25T07:01:22.102Z</time></trkpt><trkpt lat="45.5902419" lon="11.3131835"><ele>499.8</ele><time>2026-04-25T07:01:23.102Z</time></trkpt><trkpt lat="45.5901698" lon="11.3130818"><ele>500.0</ele><time>2026-04-25T07:01:24.103Z</time></trkpt><trkpt lat="45.5900755" lon="11.3130293"><ele>503.75</ele><time>2026-04-25T07:01:25.101Z</time></trkpt><trkpt lat="45.5899638" lon="11.3129794"><ele>507.5</ele><time>2026-04-25T07:01:26.102Z</time></trkpt><trkpt lat="45.5898427" lon="11.3129259"><ele>511.25</ele><time>2026-04-25T07:01:27.102Z</time></trkpt><trkpt lat="45.5897199" lon="11.3128718"><ele>515.0</ele><time>2026-04-25T07:01:28.102Z</time></trkpt><trkpt lat="45.5895979" lon="11.3128132"><ele>513.5</ele><time>2026-04-25T07:01:29.102Z</time></trkpt><trkpt lat="45.5894796" lon="11.3127366"><ele>512.0</ele><time>2026-04-25T07:01:30.103Z</time></trkpt><trkpt lat="45.5893632" lon="11.3126467"><ele>510.5</ele><time>2026-04-25T07:01:31.103Z</time></trkpt><trkpt lat="45.58925" lon="11.3125546"><ele>509.0</ele><time>2026-04-25T07:01:32.102Z</time></trkpt><trkpt lat="45.5891442" lon="11.3124696"><ele>509.0</ele><time>2026-04-25T07:01:33.103Z</time></trkpt><trkpt lat="45.5890477" lon="11.3123924"><ele>509.0</ele><time>2026-04-25T07:01:34.102Z</time></trkpt><trkpt lat="45.5889627" lon="11.3123021"><ele>509.0</ele><time>2026-04-25T07:01:35.102Z</time></trkpt><trkpt lat="45.5888893" lon="11.3121872"><ele>509.0</ele><time>2026-04-25T07:01:36.103Z</time></trkpt><trkpt lat="45.5888265" lon="11.3120519"><ele>509.0</ele><time>2026-04-25T07:01:37.102Z</time></trkpt><trkpt lat="45.5887669" lon="11.3119075"><ele>508.0</ele><time>2026-04-25T07:01:38.102Z</time></trkpt><trkpt lat="45.5887135" lon="11.3117632"><ele>507.0</ele><time>2026-04-25T07:01:39.102Z</time></trkpt><trkpt lat="45.5886832" lon="11.3116271"><ele>506.0</ele><time>2026-04-25T07:01:40.103Z</time></trkpt><trkpt lat="45.5886633" lon="11.3114782"><ele>505.0</ele><time>2026-04-25T07:01:41.102Z</time></trkpt><trkpt lat="45.5886676" lon="11.3113197"><ele>504.0</ele><time>2026-04-25T07:01:42.103Z</time></trkpt><trkpt lat="45.5886977" lon="11.3111623"><ele>507.75</ele><time>2026-04-25T07:01:43.103Z</time></trkpt><trkpt lat="45.588734" lon="11.3110151"><ele>511.5</ele><time>2026-04-25T07:01:44.102Z</time></trkpt><trkpt lat="45.5887467" lon="11.3108527"><ele>515.25</ele><time>2026-04-25T07:01:45.103Z</time></trkpt><trkpt lat="45.5887391" lon="11.310686"><ele>519.0</ele><time>2026-04-25T07:01:46.103Z</time></trkpt><trkpt lat="45.588709" lon="11.3105298"><ele>518.6</ele><time>2026-04-25T07:01:47.103Z</time></trkpt><trkpt lat="45.5886583" lon="11.3103941"><ele>518.2</ele><time>2026-04-25T07:01:48.102Z</time></trkpt><trkpt lat="45.5885786" lon="11.3102809"><ele>517.8000000000001</ele><time>2026-04-25T07:01:49.103Z</time></trkpt><trkpt lat="45.5884799" lon="11.3102007"><ele>517.4</ele><time>2026-04-25T07:01:50.102Z</time></trkpt><trkpt lat="45.5883721" lon="11.3101462"><ele>517.0</ele><time>2026-04-25T07:01:51.103Z</time></trkpt><trkpt lat="45.588268" lon="11.3101146"><ele>517.0</ele><time>2026-04-25T07:01:52.102Z</time></trkpt><trkpt lat="45.5881741" lon="11.3101157"><ele>517.0</ele><time>2026-04-25T07:01:53.102Z</time></trkpt><trkpt lat="45.588103" lon="11.3101759"><ele>517.0</ele><time>2026-04-25T07:01:54.103Z</time></trkpt><trkpt lat="45.5880571" lon="11.3102699"><ele>517.0</ele><time>2026-04-25T07:01:55.102Z</time></trkpt><trkpt lat="45.5880396" lon="11.310394"><ele>517.0</ele><time>2026-04-25T07:01:56.103Z</time></trkpt><trkpt lat="45.5880321" lon="11.3105259"><ele>517.0</ele><time>2026-04-25T07:01:57.102Z</time></trkpt><trkpt lat="45.5880096" lon="11.3106542"><ele>517.0</ele><time>2026-04-25T07:01:58.103Z</time></trkpt><trkpt lat="45.5879739" lon="11.3107696"><ele>517.0</ele><time>2026-04-25T07:01:59.103Z</time></trkpt><trkpt lat="45.5879239" lon="11.3108617"><ele>517.0</ele><time>2026-04-25T07:02:00.104Z</time></trkpt><trkpt lat="45.5878586" lon="11.3109417"><ele>517.0</ele><time>2026-04-25T07:02:01.103Z</time></trkpt><trkpt lat="45.5877788" lon="11.3110087"><ele>517.0</ele><time>2026-04-25T07:02:02.102Z</time></trkpt><trkpt lat="45.5876942" lon="11.3110678"><ele>517.0</ele><time>2026-04-25T07:02:03.104Z</time></trkpt><trkpt lat="45.5875974" lon="11.3111352"><ele>517.0</ele><time>2026-04-25T07:02:04.103Z</time></trkpt><trkpt lat="45.5874928" lon="11.3111965"><ele>517.0</ele><time>2026-04-25T07:02:05.103Z</time></trkpt><trkpt lat="45.5873819" lon="11.3112307"><ele>517.0</ele><time>2026-04-25T07:02:06.102Z</time></trkpt><trkpt lat="45.5872672" lon="11.3112606"><ele>517.0</ele><time>2026-04-25T07:02:07.103Z</time></trkpt><trkpt lat="45.5871473" lon="11.3113077"><ele>517.0</ele><time>2026-04-25T07:02:08.102Z</time></trkpt><trkpt lat="45.5870293" lon="11.3113587"><ele>517.0</ele><time>2026-04-25T07:02:09.103Z</time></trkpt><trkpt lat="45.5869425" lon="11.3114194"><ele>517.0</ele><time>2026-04-25T07:02:10.102Z</time></trkpt><trkpt lat="45.5868428" lon="11.3114671"><ele>517.0</ele><time>2026-04-25T07:02:11.103Z</time></trkpt><trkpt lat="45.5867255" lon="11.3114563"><ele>517.0</ele><time>2026-04-25T07:02:12.103Z</time></trkpt><trkpt lat="45.5866115" lon="11.3114217"><ele>518.0</ele><time>2026-04-25T07:02:13.103Z</time></trkpt><trkpt lat="45.5864972" lon="11.3113582"><ele>519.0</ele><time>2026-04-25T07:02:14.102Z</time></trkpt><trkpt lat="45.5863803" lon="11.3112639"><ele>520.0</ele><time>2026-04-25T07:02:15.102Z</time></trkpt><trkpt lat="45.5862653" lon="11.3111597"><ele>521.0</ele><time>2026-04-25T07:02:16.103Z</time></trkpt><trkpt lat="45.586149" lon="11.3110804"><ele>521.75</ele><time>2026-04-25T07:02:17.102Z</time></trkpt><trkpt lat="45.5860271" lon="11.3110314"><ele>522.5</ele><time>2026-04-25T07:02:18.102Z</time></trkpt><trkpt lat="45.5859009" lon="11.3110145"><ele>523.25</ele><time>2026-04-25T07:02:19.102Z</time></trkpt><trkpt lat="45.585776" lon="11.3110116"><ele>524.0</ele><time>2026-04-25T07:02:20.102Z</time></trkpt><trkpt lat="45.5856486" lon="11.3110151"><ele>524.0</ele><time>2026-04-25T07:02:21.103Z</time></trkpt><trkpt lat="45.5855187" lon="11.3110194"><ele>524.0</ele><time>2026-04-25T07:02:22.103Z</time></trkpt><trkpt lat="45.5853883" lon="11.3110214"><ele>524.0</ele><time>2026-04-25T07:02:23.103Z</time></trkpt><trkpt lat="45.5852656" lon="11.3110116"><ele>524.0</ele><time>2026-04-25T07:02:24.103Z</time></trkpt><trkpt lat="45.5851535" lon="11.3109784"><ele>525.0</ele><time>2026-04-25T07:02:25.103Z</time></trkpt><trkpt lat="45.5850482" lon="11.3109077"><ele>526.0</ele><time>2026-04-25T07:02:26.103Z</time></trkpt><trkpt lat="45.5849424" lon="11.310819"><ele>527.0</ele><time>2026-04-25T07:02:27.103Z</time></trkpt><trkpt lat="45.5848384" lon="11.3107214"><ele>528.0</ele><time>2026-04-25T07:02:28.103Z</time></trkpt><trkpt lat="45.584738" lon="11.3106184"><ele>528.75</ele><time>2026-04-25T07:02:29.102Z</time></trkpt><trkpt lat="45.5846323" lon="11.3105086"><ele>529.5</ele><time>2026-04-25T07:02:30.103Z</time></trkpt><trkpt lat="45.5845172" lon="11.3103946"><ele>530.25</ele><time>2026-04-25T07:02:31.103Z</time></trkpt><trkpt lat="45.5843972" lon="11.3102748"><ele>531.0</ele><time>2026-04-25T07:02:32.103Z</time></trkpt><trkpt lat="45.5842755" lon="11.3101552"><ele>531.0</ele><time>2026-04-25T07:02:33.104Z</time></trkpt><trkpt lat="45.5841543" lon="11.3100344"><ele>531.0</ele><time>2026-04-25T07:02:34.102Z</time></trkpt><trkpt lat="45.5840343" lon="11.3099181"><ele>531.0</ele><time>2026-04-25T07:02:35.103Z</time></trkpt><trkpt lat="45.583915" lon="11.309816"><ele>531.0</ele><time>2026-04-25T07:02:36.103Z</time></trkpt><trkpt lat="45.5837948" lon="11.3097293"><ele>533.0</ele><time>2026-04-25T07:02:37.103Z</time></trkpt><trkpt lat="45.5836696" lon="11.3096606"><ele>535.0</ele><time>2026-04-25T07:02:38.103Z</time></trkpt><trkpt lat="45.5835387" lon="11.309617"><ele>537.0</ele><time>2026-04-25T07:02:39.103Z</time></trkpt><trkpt lat="45.5834045" lon="11.3096007"><ele>539.0</ele><time>2026-04-25T07:02:40.103Z</time></trkpt><trkpt lat="45.5832729" lon="11.3095963"><ele>539.0</ele><time>2026-04-25T07:02:41.102Z</time></trkpt><trkpt lat="45.5831475" lon="11.3095947"><ele>539.0</ele><time>2026-04-25T07:02:42.103Z</time></trkpt><trkpt lat="45.5830247" lon="11.3095865"><ele>539.0</ele><time>2026-04-25T07:02:43.103Z</time></trkpt><trkpt lat="45.5829015" lon="11.3095566"><ele>539.0</ele><time>2026-04-25T07:02:44.103Z</time></trkpt><trkpt lat="45.5827821" lon="11.3094975"><ele>538.75</ele><time>2026-04-25T07:02:45.102Z</time></trkpt><trkpt lat="45.5826643" lon="11.3094165"><ele>538.5</ele><time>2026-04-25T07:02:46.102Z</time></trkpt><trkpt lat="45.5825449" lon="11.3093267"><ele>538.25</ele><time>2026-04-25T07:02:47.104Z</time></trkpt><trkpt lat="45.5824249" lon="11.3092539"><ele>538.0</ele><time>2026-04-25T07:02:48.102Z</time></trkpt><trkpt lat="45.5823012" lon="11.3092002"><ele>538.0</ele><time>2026-04-25T07:02:49.103Z</time></trkpt><trkpt lat="45.5821733" lon="11.3091777"><ele>538.0</ele><time>2026-04-25T07:02:50.102Z</time></trkpt><trkpt lat="45.5820407" lon="11.3091649"><ele>538.0</ele><time>2026-04-25T07:02:51.103Z</time></trkpt><trkpt lat="45.5819063" lon="11.30916"><ele>538.0</ele><time>2026-04-25T07:02:52.103Z</time></trkpt><trkpt lat="45.5817727" lon="11.3091549"><ele>538.5</ele><time>2026-04-25T07:02:53.102Z</time></trkpt><trkpt lat="45.5816381" lon="11.3091442"><ele>539.0</ele><time>2026-04-25T07:02:54.103Z</time></trkpt><trkpt lat="45.5815054" lon="11.3091219"><ele>539.5</ele><time>2026-04-25T07:02:55.102Z</time></trkpt><trkpt lat="45.5813793" lon="11.3090944"><ele>540.0</ele><time>2026-04-25T07:02:56.103Z</time></trkpt><trkpt lat="45.5812562" lon="11.3090812"><ele>542.0</ele><time>2026-04-25T07:02:57.102Z</time></trkpt><trkpt lat="45.5811381" lon="11.3091118"><ele>544.0</ele><time>2026-04-25T07:02:58.103Z</time></trkpt><trkpt lat="45.5810244" lon="11.309175"><ele>546.0</ele><time>2026-04-25T07:02:59.103Z</time></trkpt><trkpt lat="45.5809164" lon="11.3092642"><ele>548.0</ele><time>2026-04-25T07:03:00.103Z</time></trkpt><trkpt lat="45.5808105" lon="11.309355"><ele>548.0</ele><time>2026-04-25T07:03:01.102Z</time></trkpt><trkpt lat="45.5807085" lon="11.3094373"><ele>548.0</ele><time>2026-04-25T07:03:02.103Z</time></trkpt><trkpt lat="45.5806199" lon="11.3095074"><ele>548.0</ele><time>2026-04-25T07:03:03.102Z</time></trkpt><trkpt lat="45.5805405" lon="11.3095666"><ele>548.0</ele><time>2026-04-25T07:03:04.102Z</time></trkpt><trkpt lat="45.5804677" lon="11.3096183"><ele>548.0</ele><time>2026-04-25T07:03:05.102Z</time></trkpt><trkpt lat="45.5804043" lon="11.3096569"><ele>548.0</ele><time>2026-04-25T07:03:06.103Z</time></trkpt><trkpt lat="45.5802997" lon="11.3096587"><ele>548.0</ele><time>2026-04-25T07:03:08.103Z</time></trkpt><trkpt lat="45.5802184" lon="11.3095174"><ele>548.0</ele><time>2026-04-25T07:03:10.102Z</time></trkpt><trkpt lat="45.5801989" lon="11.3094048"><ele>548.0</ele><time>2026-04-25T07:03:11.102Z</time></trkpt><trkpt lat="45.5801799" lon="11.3092753"><ele>548.0</ele><time>2026-04-25T07:03:12.104Z</time></trkpt><trkpt lat="45.5801603" lon="11.3091332"><ele>548.0</ele><time>2026-04-25T07:03:13.103Z</time></trkpt><trkpt lat="45.5801367" lon="11.3089843"><ele>548.0</ele><time>2026-04-25T07:03:14.102Z</time></trkpt><trkpt lat="45.5800935" lon="11.3088423"><ele>548.0</ele><time>2026-04-25T07:03:15.103Z</time></trkpt><trkpt lat="45.5800331" lon="11.3087112"><ele>548.0</ele><time>2026-04-25T07:03:16.103Z</time></trkpt><trkpt lat="45.5799602" lon="11.3085929"><ele>548.0</ele><time>2026-04-25T07:03:17.102Z</time></trkpt><trkpt lat="45.5798744" lon="11.3084932"><ele>550.0</ele><time>2026-04-25T07:03:18.102Z</time></trkpt><trkpt lat="45.5797844" lon="11.3084012"><ele>552.0</ele><time>2026-04-25T07:03:19.103Z</time></trkpt><trkpt lat="45.5796955" lon="11.3082953"><ele>554.0</ele><time>2026-04-25T07:03:20.102Z</time></trkpt><trkpt lat="45.579616" lon="11.3081667"><ele>556.0</ele><time>2026-04-25T07:03:21.102Z</time></trkpt><trkpt lat="45.5795449" lon="11.3080188"><ele>555.5</ele><time>2026-04-25T07:03:22.103Z</time></trkpt><trkpt lat="45.5794774" lon="11.307865"><ele>555.0</ele><time>2026-04-25T07:03:23.103Z</time></trkpt><trkpt lat="45.5794124" lon="11.3077117"><ele>554.5</ele><time>2026-04-25T07:03:24.104Z</time></trkpt><trkpt lat="45.5793565" lon="11.3075517"><ele>554.0</ele><time>2026-04-25T07:03:25.102Z</time></trkpt><trkpt lat="45.5793112" lon="11.307383"><ele>555.6</ele><time>2026-04-25T07:03:26.102Z</time></trkpt><trkpt lat="45.5792675" lon="11.3072236"><ele>557.2</ele><time>2026-04-25T07:03:27.103Z</time></trkpt><trkpt lat="45.5792217" lon="11.3070833"><ele>558.8000000000001</ele><time>2026-04-25T07:03:28.102Z</time></trkpt><trkpt lat="45.5791572" lon="11.3069724"><ele>560.4</ele><time>2026-04-25T07:03:29.103Z</time></trkpt><trkpt lat="45.5790685" lon="11.306918"><ele>562.0</ele><time>2026-04-25T07:03:30.103Z</time></trkpt><trkpt lat="45.5789711" lon="11.3069028"><ele>562.0</ele><time>2026-04-25T07:03:31.102Z</time></trkpt><trkpt lat="45.5788725" lon="11.3068852"><ele>562.0</ele><time>2026-04-25T07:03:32.103Z</time></trkpt><trkpt lat="45.5787861" lon="11.3068434"><ele>562.0</ele><time>2026-04-25T07:03:33.103Z</time></trkpt><trkpt lat="45.5787162" lon="11.3067607"><ele>562.0</ele><time>2026-04-25T07:03:34.102Z</time></trkpt><trkpt lat="45.5786758" lon="11.3066387"><ele>562.0</ele><time>2026-04-25T07:03:35.103Z</time></trkpt><trkpt lat="45.5786314" lon="11.3065117"><ele>563.2</ele><time>2026-04-25T07:03:36.102Z</time></trkpt><trkpt lat="45.5785529" lon="11.3064079"><ele>564.4000000000001</ele><time>2026-04-25T07:03:37.102Z</time></trkpt><trkpt lat="45.5784583" lon="11.3063282"><ele>565.5999999999999</ele><time>2026-04-25T07:03:38.102Z</time></trkpt><trkpt lat="45.5783515" lon="11.306273"><ele>566.8</ele><time>2026-04-25T07:03:39.102Z</time></trkpt><trkpt lat="45.5782373" lon="11.3062391"><ele>568.0</ele><time>2026-04-25T07:03:40.103Z</time></trkpt><trkpt lat="45.5781222" lon="11.3062126"><ele>568.0</ele><time>2026-04-25T07:03:41.102Z</time></trkpt><trkpt lat="45.5780156" lon="11.3062029"><ele>568.0</ele><time>2026-04-25T07:03:42.102Z</time></trkpt><trkpt lat="45.5779147" lon="11.3061941"><ele>568.0</ele><time>2026-04-25T07:03:43.103Z</time></trkpt><trkpt lat="45.5778165" lon="11.306175"><ele>568.0</ele><time>2026-04-25T07:03:44.102Z</time></trkpt><trkpt lat="45.5777213" lon="11.3061394"><ele>568.0</ele><time>2026-04-25T07:03:45.103Z</time></trkpt><trkpt lat="45.5776345" lon="11.3060789"><ele>567.5</ele><time>2026-04-25T07:03:46.102Z</time></trkpt><trkpt lat="45.5775588" lon="11.3059803"><ele>567.0</ele><time>2026-04-25T07:03:47.103Z</time></trkpt><trkpt lat="45.5774931" lon="11.3058514"><ele>566.5</ele><time>2026-04-25T07:03:48.103Z</time></trkpt><trkpt lat="45.5774272" lon="11.3057065"><ele>566.0</ele><time>2026-04-25T07:03:49.103Z</time></trkpt><trkpt lat="45.5773628" lon="11.3055535"><ele>566.0</ele><time>2026-04-25T07:03:50.103Z</time></trkpt><trkpt lat="45.577297" lon="11.3054042"><ele>566.0</ele><time>2026-04-25T07:03:51.102Z</time></trkpt><trkpt lat="45.5772219" lon="11.3052663"><ele>566.0</ele><time>2026-04-25T07:03:52.103Z</time></trkpt><trkpt lat="45.5771288" lon="11.3051566"><ele>566.0</ele><time>2026-04-25T07:03:53.102Z</time></trkpt><trkpt lat="45.5770197" lon="11.3050824"><ele>562.6</ele><time>2026-04-25T07:03:54.103Z</time></trkpt><trkpt lat="45.5769075" lon="11.3050348"><ele>559.2</ele><time>2026-04-25T07:03:55.102Z</time></trkpt><trkpt lat="45.5768024" lon="11.3049797"><ele>555.8</ele><time>2026-04-25T07:03:56.103Z</time></trkpt><trkpt lat="45.5767138" lon="11.3048836"><ele>552.4</ele><time>2026-04-25T07:03:57.103Z</time></trkpt><trkpt lat="45.5766463" lon="11.3047686"><ele>549.0</ele><time>2026-04-25T07:03:58.103Z</time></trkpt><trkpt lat="45.5766055" lon="11.304634"><ele>549.0</ele><time>2026-04-25T07:03:59.102Z</time></trkpt><trkpt lat="45.5765908" lon="11.3044873"><ele>549.0</ele><time>2026-04-25T07:04:00.104Z</time></trkpt><trkpt lat="45.5766041" lon="11.3043387"><ele>549.0</ele><time>2026-04-25T07:04:01.102Z</time></trkpt><trkpt lat="45.5766408" lon="11.3042109"><ele>549.0</ele><time>2026-04-25T07:04:02.103Z</time></trkpt><trkpt lat="45.5766866" lon="11.3040993"><ele>549.0</ele><time>2026-04-25T07:04:03.102Z</time></trkpt><trkpt lat="45.576726" lon="11.3040013"><ele>550.7142857142857</ele><time>2026-04-25T07:04:04.103Z</time></trkpt><trkpt lat="45.5767454" lon="11.3038989"><ele>552.4285714285714</ele><time>2026-04-25T07:04:05.102Z</time></trkpt><trkpt lat="45.5767246" lon="11.303807"><ele>554.1428571428571</ele><time>2026-04-25T07:04:06.103Z</time></trkpt><trkpt lat="45.5766802" lon="11.3037322"><ele>555.8571428571429</ele><time>2026-04-25T07:04:07.103Z</time></trkpt><trkpt lat="45.5766054" lon="11.3036954"><ele>557.5714285714286</ele><time>2026-04-25T07:04:08.102Z</time></trkpt><trkpt lat="45.5765333" lon="11.3036524"><ele>559.2857142857142</ele><time>2026-04-25T07:04:09.103Z</time></trkpt><trkpt lat="45.5764608" lon="11.3036563"><ele>561.0</ele><time>2026-04-25T07:04:10.102Z</time></trkpt><trkpt lat="45.5764017" lon="11.3038191"><ele>561.3333333333334</ele><time>2026-04-25T07:04:11.103Z</time></trkpt><trkpt lat="45.5763484" lon="11.3039143"><ele>561.6666666666666</ele><time>2026-04-25T07:04:12.103Z</time></trkpt><trkpt lat="45.5762943" lon="11.3040213"><ele>562.0</ele><time>2026-04-25T07:04:13.103Z</time></trkpt><trkpt lat="45.5762432" lon="11.3041209"><ele>562.3333333333333</ele><time>2026-04-25T07:04:14.102Z</time></trkpt><trkpt lat="45.5761805" lon="11.3041995"><ele>562.6666666666666</ele><time>2026-04-25T07:04:15.102Z</time></trkpt><trkpt lat="45.576107" lon="11.30427"><ele>563.0</ele><time>2026-04-25T07:04:16.103Z</time></trkpt><trkpt lat="45.5760293" lon="11.3043262"><ele>563.0</ele><time>2026-04-25T07:04:17.102Z</time></trkpt><trkpt lat="45.5759408" lon="11.304374"><ele>563.0</ele><time>2026-04-25T07:04:18.102Z</time></trkpt><trkpt lat="45.5758542" lon="11.3044369"><ele>563.0</ele><time>2026-04-25T07:04:19.103Z</time></trkpt><trkpt lat="45.5757691" lon="11.3045165"><ele>563.0</ele><time>2026-04-25T07:04:20.103Z</time></trkpt><trkpt lat="45.5756987" lon="11.3046035"><ele>563.0</ele><time>2026-04-25T07:04:21.103Z</time></trkpt><trkpt lat="45.5756202" lon="11.3046959"><ele>561.75</ele><time>2026-04-25T07:04:22.102Z</time></trkpt><trkpt lat="45.5755394" lon="11.3047965"><ele>560.5</ele><time>2026-04-25T07:04:23.103Z</time></trkpt><trkpt lat="45.5754535" lon="11.3048969"><ele>559.25</ele><time>2026-04-25T07:04:24.102Z</time></trkpt><trkpt lat="45.5753486" lon="11.3049855"><ele>558.0</ele><time>2026-04-25T07:04:25.103Z</time></trkpt><trkpt lat="45.5752366" lon="11.3050758"><ele>558.0</ele><time>2026-04-25T07:04:26.103Z</time></trkpt><trkpt lat="45.5751187" lon="11.3051562"><ele>558.0</ele><time>2026-04-25T07:04:27.103Z</time></trkpt><trkpt lat="45.5749993" lon="11.3052496"><ele>558.0</ele><time>2026-04-25T07:04:28.103Z</time></trkpt><trkpt lat="45.5748826" lon="11.3053575"><ele>558.0</ele><time>2026-04-25T07:04:29.103Z</time></trkpt><trkpt lat="45.5747623" lon="11.305471"><ele>558.0</ele><time>2026-04-25T07:04:30.103Z</time></trkpt><trkpt lat="45.5746403" lon="11.3055712"><ele>558.0</ele><time>2026-04-25T07:04:31.103Z</time></trkpt><trkpt lat="45.5745128" lon="11.305646"><ele>558.0</ele><time>2026-04-25T07:04:32.102Z</time></trkpt><trkpt lat="45.5743821" lon="11.3057145"><ele>558.0</ele><time>2026-04-25T07:04:33.102Z</time></trkpt><trkpt lat="45.5742504" lon="11.3057839"><ele>557.25</ele><time>2026-04-25T07:04:34.103Z</time></trkpt><trkpt lat="45.5741246" lon="11.3058494"><ele>556.5</ele><time>2026-04-25T07:04:35.102Z</time></trkpt><trkpt lat="45.5740016" lon="11.3059051"><ele>555.75</ele><time>2026-04-25T07:04:36.102Z</time></trkpt><trkpt lat="45.5738763" lon="11.3059294"><ele>555.0</ele><time>2026-04-25T07:04:37.103Z</time></trkpt><trkpt lat="45.5737651" lon="11.3059185"><ele>555.8</ele><time>2026-04-25T07:04:38.102Z</time></trkpt><trkpt lat="45.5736701" lon="11.3058824"><ele>556.6</ele><time>2026-04-25T07:04:39.103Z</time></trkpt><trkpt lat="45.5735791" lon="11.3058214"><ele>557.4</ele><time>2026-04-25T07:04:40.102Z</time></trkpt><trkpt lat="45.5734857" lon="11.3057363"><ele>558.2</ele><time>2026-04-25T07:04:41.102Z</time></trkpt><trkpt lat="45.5733974" lon="11.3056257"><ele>559.0</ele><time>2026-04-25T07:04:42.103Z</time></trkpt><trkpt lat="45.5733176" lon="11.3054939"><ele>561.0</ele><time>2026-04-25T07:04:43.103Z</time></trkpt><trkpt lat="45.5732438" lon="11.3053524"><ele>563.0</ele><time>2026-04-25T07:04:44.104Z</time></trkpt><trkpt lat="45.5731708" lon="11.3052214"><ele>565.0</ele><time>2026-04-25T07:04:45.103Z</time></trkpt><trkpt lat="45.5731041" lon="11.3050971"><ele>567.0</ele><time>2026-04-25T07:04:46.103Z</time></trkpt><trkpt lat="45.5730474" lon="11.3049798"><ele>567.0</ele><time>2026-04-25T07:04:47.103Z</time></trkpt><trkpt lat="45.5730077" lon="11.3048441"><ele>567.0</ele><time>2026-04-25T07:04:48.103Z</time></trkpt><trkpt lat="45.5729872" lon="11.3046983"><ele>567.0</ele><time>2026-04-25T07:04:49.102Z</time></trkpt><trkpt lat="45.5729571" lon="11.3045642"><ele>567.0</ele><time>2026-04-25T07:04:50.103Z</time></trkpt><trkpt lat="45.5729021" lon="11.3044412"><ele>567.0</ele><time>2026-04-25T07:04:51.104Z</time></trkpt><trkpt lat="45.5728289" lon="11.3043235"><ele>566.5</ele><time>2026-04-25T07:04:52.104Z</time></trkpt><trkpt lat="45.5727391" lon="11.3042155"><ele>566.0</ele><time>2026-04-25T07:04:53.103Z</time></trkpt><trkpt lat="45.5726415" lon="11.3041032"><ele>565.5</ele><time>2026-04-25T07:04:54.103Z</time></trkpt><trkpt lat="45.5725415" lon="11.3039876"><ele>565.0</ele><time>2026-04-25T07:04:55.102Z</time></trkpt><trkpt lat="45.5724299" lon="11.3038846"><ele>564.0</ele><time>2026-04-25T07:04:56.102Z</time></trkpt><trkpt lat="45.5723135" lon="11.3038193"><ele>563.0</ele><time>2026-04-25T07:04:57.102Z</time></trkpt><trkpt lat="45.572197" lon="11.3037911"><ele>562.0</ele><time>2026-04-25T07:04:58.102Z</time></trkpt><trkpt lat="45.572091" lon="11.3037698"><ele>561.0</ele><time>2026-04-25T07:04:59.102Z</time></trkpt><trkpt lat="45.5720006" lon="11.3037092"><ele>561.0</ele><time>2026-04-25T07:05:00.102Z</time></trkpt><trkpt lat="45.57193" lon="11.3036169"><ele>561.0</ele><time>2026-04-25T07:05:01.102Z</time></trkpt><trkpt lat="45.5718714" lon="11.3035098"><ele>561.0</ele><time>2026-04-25T07:05:02.102Z</time></trkpt><trkpt lat="45.5718093" lon="11.3033783"><ele>561.0</ele><time>2026-04-25T07:05:03.104Z</time></trkpt><trkpt lat="45.5717505" lon="11.3032404"><ele>561.0</ele><time>2026-04-25T07:05:04.102Z</time></trkpt><trkpt lat="45.5716958" lon="11.3030939"><ele>564.25</ele><time>2026-04-25T07:05:05.102Z</time></trkpt><trkpt lat="45.5716432" lon="11.302938"><ele>567.5</ele><time>2026-04-25T07:05:06.103Z</time></trkpt><trkpt lat="45.5715999" lon="11.302777"><ele>570.75</ele><time>2026-04-25T07:05:07.102Z</time></trkpt><trkpt lat="45.5715616" lon="11.3026131"><ele>574.0</ele><time>2026-04-25T07:05:08.103Z</time></trkpt><trkpt lat="45.5715188" lon="11.3024508"><ele>574.0</ele><time>2026-04-25T07:05:09.102Z</time></trkpt><trkpt lat="45.5714804" lon="11.3022951"><ele>574.0</ele><time>2026-04-25T07:05:10.103Z</time></trkpt><trkpt lat="45.571447" lon="11.3021458"><ele>574.0</ele><time>2026-04-25T07:05:11.102Z</time></trkpt><trkpt lat="45.5714185" lon="11.3020128"><ele>574.0</ele><time>2026-04-25T07:05:12.103Z</time></trkpt><trkpt lat="45.5713782" lon="11.3019031"><ele>574.0</ele><time>2026-04-25T07:05:13.102Z</time></trkpt><trkpt lat="45.5713186" lon="11.3018298"><ele>574.5</ele><time>2026-04-25T07:05:14.103Z</time></trkpt><trkpt lat="45.5712477" lon="11.3018067"><ele>575.0</ele><time>2026-04-25T07:05:15.104Z</time></trkpt><trkpt lat="45.5711763" lon="11.3018476"><ele>575.5</ele><time>2026-04-25T07:05:16.102Z</time></trkpt><trkpt lat="45.5711296" lon="11.3019386"><ele>576.0</ele><time>2026-04-25T07:05:17.103Z</time></trkpt><trkpt lat="45.5711081" lon="11.3020505"><ele>576.5</ele><time>2026-04-25T07:05:18.102Z</time></trkpt><trkpt lat="45.5710882" lon="11.3021627"><ele>577.0</ele><time>2026-04-25T07:05:19.103Z</time></trkpt><trkpt lat="45.5710442" lon="11.302242"><ele>577.0</ele><time>2026-04-25T07:05:20.103Z</time></trkpt><trkpt lat="45.5709762" lon="11.3022817"><ele>577.0</ele><time>2026-04-25T07:05:21.102Z</time></trkpt><trkpt lat="45.5708944" lon="11.3022865"><ele>577.0</ele><time>2026-04-25T07:05:22.103Z</time></trkpt><trkpt lat="45.5708061" lon="11.3022533"><ele>577.0</ele><time>2026-04-25T07:05:23.103Z</time></trkpt><trkpt lat="45.5707125" lon="11.3021981"><ele>577.0</ele><time>2026-04-25T07:05:24.103Z</time></trkpt><trkpt lat="45.5706091" lon="11.3021459"><ele>577.0</ele><time>2026-04-25T07:05:25.102Z</time></trkpt><trkpt lat="45.5704975" lon="11.3021039"><ele>577.0</ele><time>2026-04-25T07:05:26.102Z</time></trkpt><trkpt lat="45.5703828" lon="11.3020742"><ele>577.0</ele><time>2026-04-25T07:05:27.103Z</time></trkpt><trkpt lat="45.5702684" lon="11.3020521"><ele>577.0</ele><time>2026-04-25T07:05:28.103Z</time></trkpt><trkpt lat="45.5701541" lon="11.3020258"><ele>573.6</ele><time>2026-04-25T07:05:29.102Z</time></trkpt><trkpt lat="45.5700479" lon="11.301999"><ele>570.2</ele><time>2026-04-25T07:05:30.103Z</time></trkpt><trkpt lat="45.5699527" lon="11.301961"><ele>566.8</ele><time>2026-04-25T07:05:31.103Z</time></trkpt><trkpt lat="45.5698566" lon="11.3018906"><ele>563.4</ele><time>2026-04-25T07:05:32.103Z</time></trkpt><trkpt lat="45.5697591" lon="11.301802"><ele>560.0</ele><time>2026-04-25T07:05:33.103Z</time></trkpt><trkpt lat="45.5696512" lon="11.3017254"><ele>560.0</ele><time>2026-04-25T07:05:34.102Z</time></trkpt><trkpt lat="45.5695345" lon="11.3016684"><ele>560.0</ele><time>2026-04-25T07:05:35.102Z</time></trkpt><trkpt lat="45.5694234" lon="11.3016116"><ele>560.0</ele><time>2026-04-25T07:05:36.103Z</time></trkpt><trkpt lat="45.5693156" lon="11.3015608"><ele>560.0</ele><time>2026-04-25T07:05:37.103Z</time></trkpt><trkpt lat="45.569215" lon="11.3015162"><ele>559.3333333333333</ele><time>2026-04-25T07:05:38.102Z</time></trkpt><trkpt lat="45.5691195" lon="11.3014694"><ele>558.6666666666666</ele><time>2026-04-25T07:05:39.102Z</time></trkpt><trkpt lat="45.5690315" lon="11.3014244"><ele>558.0</ele><time>2026-04-25T07:05:40.102Z</time></trkpt><trkpt lat="45.5689567" lon="11.3013764"><ele>557.3333333333334</ele><time>2026-04-25T07:05:41.103Z</time></trkpt><trkpt lat="45.5688896" lon="11.3013046"><ele>556.6666666666667</ele><time>2026-04-25T07:05:42.102Z</time></trkpt><trkpt lat="45.5688389" lon="11.3012069"><ele>556.0</ele><time>2026-04-25T07:05:43.102Z</time></trkpt><trkpt lat="45.5688052" lon="11.3010916"><ele>556.0</ele><time>2026-04-25T07:05:44.102Z</time></trkpt><trkpt lat="45.5688007" lon="11.3009574"><ele>556.0</ele><time>2026-04-25T07:05:45.102Z</time></trkpt><trkpt lat="45.5688112" lon="11.3008191"><ele>556.0</ele><time>2026-04-25T07:05:46.103Z</time></trkpt><trkpt lat="45.5688269" lon="11.3006942"><ele>556.0</ele><time>2026-04-25T07:05:47.103Z</time></trkpt><trkpt lat="45.5688612" lon="11.3005825"><ele>556.0</ele><time>2026-04-25T07:05:48.102Z</time></trkpt><trkpt lat="45.5689192" lon="11.3004935"><ele>555.8333333333334</ele><time>2026-04-25T07:05:49.103Z</time></trkpt><trkpt lat="45.5689884" lon="11.3004213"><ele>555.6666666666667</ele><time>2026-04-25T07:05:50.103Z</time></trkpt><trkpt lat="45.5690598" lon="11.3003668"><ele>555.5</ele><time>2026-04-25T07:05:51.102Z</time></trkpt><trkpt lat="45.5691211" lon="11.3003055"><ele>555.3333333333334</ele><time>2026-04-25T07:05:52.102Z</time></trkpt><trkpt lat="45.569157" lon="11.3002235"><ele>555.1666666666666</ele><time>2026-04-25T07:05:53.102Z</time></trkpt><trkpt lat="45.5691188" lon="11.3000715"><ele>555.0</ele><time>2026-04-25T07:05:55.102Z</time></trkpt><trkpt lat="45.5690538" lon="11.3000276"><ele>555.0</ele><time>2026-04-25T07:05:56.103Z</time></trkpt><trkpt lat="45.5689693" lon="11.2999888"><ele>555.0</ele><time>2026-04-25T07:05:57.102Z</time></trkpt><trkpt lat="45.5688778" lon="11.2999424"><ele>555.0</ele><time>2026-04-25T07:05:58.102Z</time></trkpt><trkpt lat="45.5687799" lon="11.299881"><ele>555.0</ele><time>2026-04-25T07:05:59.102Z</time></trkpt><trkpt lat="45.5686761" lon="11.2998109"><ele>555.0</ele><time>2026-04-25T07:06:00.103Z</time></trkpt><trkpt lat="45.5685685" lon="11.2997351"><ele>555.75</ele><time>2026-04-25T07:06:01.102Z</time></trkpt><trkpt lat="45.5684578" lon="11.2996678"><ele>556.5</ele><time>2026-04-25T07:06:02.103Z</time></trkpt><trkpt lat="45.5683495" lon="11.2996031"><ele>557.25</ele><time>2026-04-25T07:06:03.103Z</time></trkpt><trkpt lat="45.5682486" lon="11.2995261"><ele>558.0</ele><time>2026-04-25T07:06:04.103Z</time></trkpt><trkpt lat="45.5681563" lon="11.2994455"><ele>558.0</ele><time>2026-04-25T07:06:05.102Z</time></trkpt><trkpt lat="45.5680648" lon="11.2993695"><ele>558.0</ele><time>2026-04-25T07:06:06.103Z</time></trkpt><trkpt lat="45.5679736" lon="11.2993053"><ele>558.0</ele><time>2026-04-25T07:06:07.103Z</time></trkpt><trkpt lat="45.5678818" lon="11.2992445"><ele>558.0</ele><time>2026-04-25T07:06:08.103Z</time></trkpt><trkpt lat="45.5677914" lon="11.2991756"><ele>558.0</ele><time>2026-04-25T07:06:09.103Z</time></trkpt><trkpt lat="45.5677081" lon="11.2990998"><ele>556.1999999999999</ele><time>2026-04-25T07:06:10.103Z</time></trkpt><trkpt lat="45.5676363" lon="11.2990059"><ele>554.4</ele><time>2026-04-25T07:06:11.102Z</time></trkpt><trkpt lat="45.5675652" lon="11.2989149"><ele>552.5999999999999</ele><time>2026-04-25T07:06:12.103Z</time></trkpt><trkpt lat="45.5674736" lon="11.2988759"><ele>550.8</ele><time>2026-04-25T07:06:13.102Z</time></trkpt><trkpt lat="45.5673784" lon="11.2988682"><ele>549.0</ele><time>2026-04-25T07:06:14.103Z</time></trkpt><trkpt lat="45.5672812" lon="11.2988591"><ele>549.0</ele><time>2026-04-25T07:06:15.103Z</time></trkpt><trkpt lat="45.5671851" lon="11.2988264"><ele>549.0</ele><time>2026-04-25T07:06:16.102Z</time></trkpt><trkpt lat="45.5670969" lon="11.29878"><ele>549.0</ele><time>2026-04-25T07:06:17.102Z</time></trkpt><trkpt lat="45.5670147" lon="11.2987064"><ele>549.0</ele><time>2026-04-25T07:06:18.102Z</time></trkpt><trkpt lat="45.5669352" lon="11.2986053"><ele>549.0</ele><time>2026-04-25T07:06:19.103Z</time></trkpt><trkpt lat="45.5668576" lon="11.2984793"><ele>545.0</ele><time>2026-04-25T07:06:20.103Z</time></trkpt><trkpt lat="45.5667856" lon="11.298332"><ele>541.0</ele><time>2026-04-25T07:06:21.102Z</time></trkpt><trkpt lat="45.5667151" lon="11.2981698"><ele>537.0</ele><time>2026-04-25T07:06:22.102Z</time></trkpt><trkpt lat="45.5666463" lon="11.2979995"><ele>533.0</ele><time>2026-04-25T07:06:23.103Z</time></trkpt><trkpt lat="45.5665797" lon="11.2978233"><ele>533.0</ele><time>2026-04-25T07:06:24.103Z</time></trkpt><trkpt lat="45.5665147" lon="11.2976449"><ele>533.0</ele><time>2026-04-25T07:06:25.103Z</time></trkpt><trkpt lat="45.5664509" lon="11.2974641"><ele>533.0</ele><time>2026-04-25T07:06:26.103Z</time></trkpt><trkpt lat="45.5663858" lon="11.2972848"><ele>533.0</ele><time>2026-04-25T07:06:27.102Z</time></trkpt><trkpt lat="45.5663156" lon="11.2971083"><ele>536.0</ele><time>2026-04-25T07:06:28.102Z</time></trkpt><trkpt lat="45.5662385" lon="11.2969415"><ele>539.0</ele><time>2026-04-25T07:06:29.102Z</time></trkpt><trkpt lat="45.566151" lon="11.2967882"><ele>542.0</ele><time>2026-04-25T07:06:30.102Z</time></trkpt><trkpt lat="45.5660533" lon="11.296655"><ele>545.0</ele><time>2026-04-25T07:06:31.103Z</time></trkpt><trkpt lat="45.5659493" lon="11.2965291"><ele>544.0</ele><time>2026-04-25T07:06:32.102Z</time></trkpt><trkpt lat="45.5658428" lon="11.2964102"><ele>543.0</ele><time>2026-04-25T07:06:33.103Z</time></trkpt><trkpt lat="45.5657358" lon="11.2962873"><ele>542.0</ele><time>2026-04-25T07:06:34.103Z</time></trkpt><trkpt lat="45.5656274" lon="11.2961632"><ele>541.0</ele><time>2026-04-25T07:06:35.102Z</time></trkpt><trkpt lat="45.5655167" lon="11.2960467"><ele>541.0</ele><time>2026-04-25T07:06:36.103Z</time></trkpt><trkpt lat="45.5653978" lon="11.2959528"><ele>541.0</ele><time>2026-04-25T07:06:37.102Z</time></trkpt><trkpt lat="45.5652785" lon="11.2958719"><ele>541.0</ele><time>2026-04-25T07:06:38.102Z</time></trkpt><trkpt lat="45.5651621" lon="11.2957958"><ele>541.0</ele><time>2026-04-25T07:06:39.102Z</time></trkpt><trkpt lat="45.5650472" lon="11.2957137"><ele>540.75</ele><time>2026-04-25T07:06:40.103Z</time></trkpt><trkpt lat="45.5649417" lon="11.2956229"><ele>540.5</ele><time>2026-04-25T07:06:41.102Z</time></trkpt><trkpt lat="45.5648496" lon="11.2955057"><ele>540.25</ele><time>2026-04-25T07:06:42.102Z</time></trkpt><trkpt lat="45.5647766" lon="11.2953705"><ele>540.0</ele><time>2026-04-25T07:06:43.104Z</time></trkpt><trkpt lat="45.5647137" lon="11.2952285"><ele>540.0</ele><time>2026-04-25T07:06:44.102Z</time></trkpt><trkpt lat="45.5646599" lon="11.2950797"><ele>540.0</ele><time>2026-04-25T07:06:45.103Z</time></trkpt><trkpt lat="45.5646147" lon="11.2949262"><ele>540.0</ele><time>2026-04-25T07:06:46.102Z</time></trkpt><trkpt lat="45.5645643" lon="11.2947737"><ele>540.0</ele><time>2026-04-25T07:06:47.103Z</time></trkpt><trkpt lat="45.5645038" lon="11.2946292"><ele>538.6</ele><time>2026-04-25T07:06:48.103Z</time></trkpt><trkpt lat="45.5644409" lon="11.2944926"><ele>537.2</ele><time>2026-04-25T07:06:49.102Z</time></trkpt><trkpt lat="45.5643799" lon="11.29436"><ele>535.8</ele><time>2026-04-25T07:06:50.103Z</time></trkpt><trkpt lat="45.5643229" lon="11.2942277"><ele>534.4</ele><time>2026-04-25T07:06:51.102Z</time></trkpt><trkpt lat="45.5642679" lon="11.2941014"><ele>533.0</ele><time>2026-04-25T07:06:52.104Z</time></trkpt><trkpt lat="45.5641994" lon="11.293977"><ele>535.0</ele><time>2026-04-25T07:06:53.103Z</time></trkpt><trkpt lat="45.5641159" lon="11.293867"><ele>537.0</ele><time>2026-04-25T07:06:54.102Z</time></trkpt><trkpt lat="45.5640264" lon="11.2937677"><ele>539.0</ele><time>2026-04-25T07:06:55.102Z</time></trkpt><trkpt lat="45.5639357" lon="11.2936735"><ele>541.0</ele><time>2026-04-25T07:06:56.102Z</time></trkpt><trkpt lat="45.56385" lon="11.2935849"><ele>543.0</ele><time>2026-04-25T07:06:57.102Z</time></trkpt><trkpt lat="45.5637593" lon="11.2935052"><ele>541.6</ele><time>2026-04-25T07:06:58.103Z</time></trkpt><trkpt lat="45.5636624" lon="11.2934387"><ele>540.1999999999999</ele><time>2026-04-25T07:06:59.103Z</time></trkpt><trkpt lat="45.5635571" lon="11.2933943"><ele>538.8</ele><time>2026-04-25T07:07:00.102Z</time></trkpt><trkpt lat="45.5634549" lon="11.293359"><ele>537.4</ele><time>2026-04-25T07:07:01.102Z</time></trkpt><trkpt lat="45.5633565" lon="11.2933232"><ele>536.0</ele><time>2026-04-25T07:07:02.102Z</time></trkpt><trkpt lat="45.5632598" lon="11.2932882"><ele>536.0</ele><time>2026-04-25T07:07:03.102Z</time></trkpt><trkpt lat="45.5631695" lon="11.2932739"><ele>536.0</ele><time>2026-04-25T07:07:04.103Z</time></trkpt><trkpt lat="45.5630782" lon="11.2932918"><ele>536.0</ele><time>2026-04-25T07:07:05.102Z</time></trkpt><trkpt lat="45.5629892" lon="11.2933464"><ele>536.0</ele><time>2026-04-25T07:07:06.103Z</time></trkpt><trkpt lat="45.5629029" lon="11.2934165"><ele>536.0</ele><time>2026-04-25T07:07:07.102Z</time></trkpt><trkpt lat="45.5628234" lon="11.2934827"><ele>535.4</ele><time>2026-04-25T07:07:08.103Z</time></trkpt><trkpt lat="45.5627443" lon="11.2935395"><ele>534.8</ele><time>2026-04-25T07:07:09.103Z</time></trkpt><trkpt lat="45.5626546" lon="11.2935706"><ele>534.1999999999999</ele><time>2026-04-25T07:07:10.104Z</time></trkpt><trkpt lat="45.562559" lon="11.2935616"><ele>533.6</ele><time>2026-04-25T07:07:11.102Z</time></trkpt><trkpt lat="45.5624817" lon="11.2935051"><ele>533.0</ele><time>2026-04-25T07:07:12.103Z</time></trkpt><trkpt lat="45.562424" lon="11.2934032"><ele>533.0</ele><time>2026-04-25T07:07:13.102Z</time></trkpt><trkpt lat="45.5623838" lon="11.2932692"><ele>533.0</ele><time>2026-04-25T07:07:14.104Z</time></trkpt><trkpt lat="45.5623445" lon="11.2931224"><ele>533.0</ele><time>2026-04-25T07:07:15.103Z</time></trkpt><trkpt lat="45.5622992" lon="11.2929807"><ele>533.0</ele><time>2026-04-25T07:07:16.103Z</time></trkpt><trkpt lat="45.5622477" lon="11.2928518"><ele>533.0</ele><time>2026-04-25T07:07:17.102Z</time></trkpt><trkpt lat="45.5621954" lon="11.2927328"><ele>534.1999999999999</ele><time>2026-04-25T07:07:18.103Z</time></trkpt><trkpt lat="45.5621343" lon="11.2926249"><ele>535.4</ele><time>2026-04-25T07:07:19.102Z</time></trkpt><trkpt lat="45.5620476" lon="11.2925407"><ele>536.5999999999999</ele><time>2026-04-25T07:07:20.102Z</time></trkpt><trkpt lat="45.5619501" lon="11.2924815"><ele>537.8</ele><time>2026-04-25T07:07:21.102Z</time></trkpt><trkpt lat="45.5618475" lon="11.2924295"><ele>539.0</ele><time>2026-04-25T07:07:22.104Z</time></trkpt><trkpt lat="45.5617484" lon="11.2923801"><ele>537.6</ele><time>2026-04-25T07:07:23.102Z</time></trkpt><trkpt lat="45.5616532" lon="11.2923324"><ele>536.2</ele><time>2026-04-25T07:07:24.103Z</time></trkpt><trkpt lat="45.5615622" lon="11.2922788"><ele>534.8000000000001</ele><time>2026-04-25T07:07:25.103Z</time></trkpt><trkpt lat="45.5614852" lon="11.2921996"><ele>533.4</ele><time>2026-04-25T07:07:26.104Z</time></trkpt><trkpt lat="45.5614276" lon="11.2920934"><ele>532.0</ele><time>2026-04-25T07:07:27.102Z</time></trkpt><trkpt lat="45.5613863" lon="11.2919677"><ele>532.0</ele><time>2026-04-25T07:07:28.104Z</time></trkpt><trkpt lat="45.5613565" lon="11.2918347"><ele>532.0</ele><time>2026-04-25T07:07:29.103Z</time></trkpt><trkpt lat="45.5613219" lon="11.2916942"><ele>532.0</ele><time>2026-04-25T07:07:30.103Z</time></trkpt><trkpt lat="45.561289" lon="11.2915499"><ele>532.0</ele><time>2026-04-25T07:07:31.103Z</time></trkpt><trkpt lat="45.5612592" lon="11.2913993"><ele>532.0</ele><time>2026-04-25T07:07:32.104Z</time></trkpt><trkpt lat="45.5612311" lon="11.2912472"><ele>532.6</ele><time>2026-04-25T07:07:33.103Z</time></trkpt><trkpt lat="45.5612027" lon="11.2910943"><ele>533.2</ele><time>2026-04-25T07:07:34.104Z</time></trkpt><trkpt lat="45.5611739" lon="11.2909442"><ele>533.8</ele><time>2026-04-25T07:07:35.103Z</time></trkpt><trkpt lat="45.5611436" lon="11.2908033"><ele>534.4</ele><time>2026-04-25T07:07:36.103Z</time></trkpt><trkpt lat="45.5611017" lon="11.2906801"><ele>535.0</ele><time>2026-04-25T07:07:37.102Z</time></trkpt><trkpt lat="45.5610415" lon="11.2905733"><ele>533.6</ele><time>2026-04-25T07:07:38.103Z</time></trkpt><trkpt lat="45.560959" lon="11.2904893"><ele>532.2</ele><time>2026-04-25T07:07:39.102Z</time></trkpt><trkpt lat="45.5608614" lon="11.2904335"><ele>530.8</ele><time>2026-04-25T07:07:40.104Z</time></trkpt><trkpt lat="45.5607535" lon="11.2903923"><ele>529.4</ele><time>2026-04-25T07:07:41.103Z</time></trkpt><trkpt lat="45.5606443" lon="11.2903488"><ele>528.0</ele><time>2026-04-25T07:07:42.102Z</time></trkpt><trkpt lat="45.5605461" lon="11.2902886"><ele>528.0</ele><time>2026-04-25T07:07:43.102Z</time></trkpt><trkpt lat="45.5604522" lon="11.2902237"><ele>528.0</ele><time>2026-04-25T07:07:44.103Z</time></trkpt><trkpt lat="45.5603604" lon="11.2901605"><ele>528.0</ele><time>2026-04-25T07:07:45.102Z</time></trkpt><trkpt lat="45.560274" lon="11.2901005"><ele>528.0</ele><time>2026-04-25T07:07:46.104Z</time></trkpt><trkpt lat="45.560195" lon="11.2900349"><ele>528.0</ele><time>2026-04-25T07:07:47.102Z</time></trkpt><trkpt lat="45.5601261" lon="11.2899684"><ele>527.4</ele><time>2026-04-25T07:07:48.103Z</time></trkpt><trkpt lat="45.5600576" lon="11.2899036"><ele>526.8</ele><time>2026-04-25T07:07:49.103Z</time></trkpt><trkpt lat="45.5599853" lon="11.2898269"><ele>526.2</ele><time>2026-04-25T07:07:50.103Z</time></trkpt><trkpt lat="45.5599172" lon="11.2897289"><ele>525.6</ele><time>2026-04-25T07:07:51.103Z</time></trkpt><trkpt lat="45.5598563" lon="11.2896185"><ele>525.0</ele><time>2026-04-25T07:07:52.103Z</time></trkpt><trkpt lat="45.5597969" lon="11.2895001"><ele>525.0</ele><time>2026-04-25T07:07:53.102Z</time></trkpt><trkpt lat="45.5597358" lon="11.2893774"><ele>525.0</ele><time>2026-04-25T07:07:54.103Z</time></trkpt><trkpt lat="45.5596758" lon="11.2892495"><ele>525.0</ele><time>2026-04-25T07:07:55.102Z</time></trkpt><trkpt lat="45.5596143" lon="11.2891215"><ele>525.0</ele><time>2026-04-25T07:07:56.103Z</time></trkpt><trkpt lat="45.5595569" lon="11.2890044"><ele>525.0</ele><time>2026-04-25T07:07:57.102Z</time></trkpt><trkpt lat="45.5595093" lon="11.2889058"><ele>524.5</ele><time>2026-04-25T07:07:58.103Z</time></trkpt><trkpt lat="45.5594502" lon="11.2887785"><ele>524.0</ele><time>2026-04-25T07:08:00.103Z</time></trkpt><trkpt lat="45.5594137" lon="11.2887052"><ele>523.5</ele><time>2026-04-25T07:08:02.103Z</time></trkpt><trkpt lat="45.5593775" lon="11.288621"><ele>523.0</ele><time>2026-04-25T07:08:04.102Z</time></trkpt><trkpt lat="45.5593396" lon="11.2884509"><ele>522.5</ele><time>2026-04-25T07:08:06.104Z</time></trkpt><trkpt lat="45.5593416" lon="11.28834"><ele>522.0</ele><time>2026-04-25T07:08:07.102Z</time></trkpt><trkpt lat="45.5593662" lon="11.2882261"><ele>522.0</ele><time>2026-04-25T07:08:08.102Z</time></trkpt><trkpt lat="45.5594063" lon="11.2881204"><ele>522.0</ele><time>2026-04-25T07:08:09.103Z</time></trkpt><trkpt lat="45.559459" lon="11.2880115"><ele>522.0</ele><time>2026-04-25T07:08:10.102Z</time></trkpt><trkpt lat="45.5595221" lon="11.2879028"><ele>522.0</ele><time>2026-04-25T07:08:11.103Z</time></trkpt><trkpt lat="45.5595941" lon="11.2877924"><ele>522.0</ele><time>2026-04-25T07:08:12.102Z</time></trkpt><trkpt lat="45.559669" lon="11.2876792"><ele>522.5</ele><time>2026-04-25T07:08:13.103Z</time></trkpt><trkpt lat="45.5597452" lon="11.2875628"><ele>523.0</ele><time>2026-04-25T07:08:14.102Z</time></trkpt><trkpt lat="45.5598235" lon="11.2874434"><ele>523.5</ele><time>2026-04-25T07:08:15.102Z</time></trkpt><trkpt lat="45.5599015" lon="11.2873231"><ele>524.0</ele><time>2026-04-25T07:08:16.102Z</time></trkpt><trkpt lat="45.5599787" lon="11.2871968"><ele>525.75</ele><time>2026-04-25T07:08:17.103Z</time></trkpt><trkpt lat="45.5600588" lon="11.2870656"><ele>527.5</ele><time>2026-04-25T07:08:18.102Z</time></trkpt><trkpt lat="45.5601381" lon="11.286932"><ele>529.25</ele><time>2026-04-25T07:08:19.102Z</time></trkpt><trkpt lat="45.5602117" lon="11.2867936"><ele>531.0</ele><time>2026-04-25T07:08:20.102Z</time></trkpt><trkpt lat="45.5602815" lon="11.2866584"><ele>531.0</ele><time>2026-04-25T07:08:21.102Z</time></trkpt><trkpt lat="45.5603479" lon="11.2865243"><ele>531.0</ele><time>2026-04-25T07:08:22.102Z</time></trkpt><trkpt lat="45.5604161" lon="11.2863933"><ele>531.0</ele><time>2026-04-25T07:08:23.102Z</time></trkpt><trkpt lat="45.5604835" lon="11.2862656"><ele>531.0</ele><time>2026-04-25T07:08:24.102Z</time></trkpt><trkpt lat="45.5605528" lon="11.2861442"><ele>530.75</ele><time>2026-04-25T07:08:25.102Z</time></trkpt><trkpt lat="45.5606237" lon="11.2860264"><ele>530.5</ele><time>2026-04-25T07:08:26.102Z</time></trkpt><trkpt lat="45.5606938" lon="11.2858967"><ele>530.25</ele><time>2026-04-25T07:08:27.103Z</time></trkpt><trkpt lat="45.5607617" lon="11.2857517"><ele>530.0</ele><time>2026-04-25T07:08:28.103Z</time></trkpt><trkpt lat="45.5608227" lon="11.2855951"><ele>527.5</ele><time>2026-04-25T07:08:29.102Z</time></trkpt><trkpt lat="45.5608709" lon="11.2854352"><ele>525.0</ele><time>2026-04-25T07:08:30.102Z</time></trkpt><trkpt lat="45.5609145" lon="11.2852844"><ele>522.5</ele><time>2026-04-25T07:08:31.103Z</time></trkpt><trkpt lat="45.5609574" lon="11.2851391"><ele>520.0</ele><time>2026-04-25T07:08:32.102Z</time></trkpt><trkpt lat="45.5610056" lon="11.2850062"><ele>520.0</ele><time>2026-04-25T07:08:33.102Z</time></trkpt><trkpt lat="45.5610714" lon="11.2848959"><ele>520.0</ele><time>2026-04-25T07:08:34.103Z</time></trkpt><trkpt lat="45.5611606" lon="11.2848032"><ele>520.0</ele><time>2026-04-25T07:08:35.104Z</time></trkpt><trkpt lat="45.561265" lon="11.2847272"><ele>520.0</ele><time>2026-04-25T07:08:36.103Z</time></trkpt><trkpt lat="45.5613747" lon="11.2846504"><ele>516.25</ele><time>2026-04-25T07:08:37.103Z</time></trkpt><trkpt lat="45.5614833" lon="11.2845784"><ele>512.5</ele><time>2026-04-25T07:08:38.103Z</time></trkpt><trkpt lat="45.5615925" lon="11.284523"><ele>508.75</ele><time>2026-04-25T07:08:39.104Z</time></trkpt><trkpt lat="45.5617027" lon="11.2844967"><ele>505.0</ele><time>2026-04-25T07:08:40.103Z</time></trkpt><trkpt lat="45.5618121" lon="11.2844736"><ele>505.0</ele><time>2026-04-25T07:08:41.103Z</time></trkpt><trkpt lat="45.5619235" lon="11.284455"><ele>505.0</ele><time>2026-04-25T07:08:42.102Z</time></trkpt><trkpt lat="45.5620335" lon="11.2844457"><ele>505.0</ele><time>2026-04-25T07:08:43.102Z</time></trkpt><trkpt lat="45.56214" lon="11.2844344"><ele>505.0</ele><time>2026-04-25T07:08:44.104Z</time></trkpt><trkpt lat="45.5622435" lon="11.2844253"><ele>505.0</ele><time>2026-04-25T07:08:45.103Z</time></trkpt><trkpt lat="45.5623461" lon="11.2844086"><ele>506.2</ele><time>2026-04-25T07:08:46.103Z</time></trkpt><trkpt lat="45.5624348" lon="11.2843458"><ele>507.4</ele><time>2026-04-25T07:08:47.103Z</time></trkpt><trkpt lat="45.5625127" lon="11.2842386"><ele>508.6</ele><time>2026-04-25T07:08:48.104Z</time></trkpt><trkpt lat="45.5625767" lon="11.2841019"><ele>509.8</ele><time>2026-04-25T07:08:49.102Z</time></trkpt><trkpt lat="45.5626631" lon="11.2839855"><ele>511.0</ele><time>2026-04-25T07:08:50.102Z</time></trkpt><trkpt lat="45.5627605" lon="11.2838938"><ele>507.5</ele><time>2026-04-25T07:08:51.103Z</time></trkpt><trkpt lat="45.5628645" lon="11.2838193"><ele>504.0</ele><time>2026-04-25T07:08:52.102Z</time></trkpt><trkpt lat="45.5629691" lon="11.2837408"><ele>500.5</ele><time>2026-04-25T07:08:53.103Z</time></trkpt><trkpt lat="45.5630717" lon="11.283657"><ele>497.0</ele><time>2026-04-25T07:08:54.103Z</time></trkpt><trkpt lat="45.5631723" lon="11.2835787"><ele>497.0</ele><time>2026-04-25T07:08:55.103Z</time></trkpt><trkpt lat="45.5632774" lon="11.2835142"><ele>497.0</ele><time>2026-04-25T07:08:56.102Z</time></trkpt><trkpt lat="45.5633904" lon="11.2834681"><ele>497.0</ele><time>2026-04-25T07:08:57.103Z</time></trkpt><trkpt lat="45.5635134" lon="11.2834317"><ele>497.0</ele><time>2026-04-25T07:08:58.102Z</time></trkpt><trkpt lat="45.5636421" lon="11.2833998"><ele>498.25</ele><time>2026-04-25T07:08:59.102Z</time></trkpt><trkpt lat="45.5637732" lon="11.2833729"><ele>499.5</ele><time>2026-04-25T07:09:00.103Z</time></trkpt><trkpt lat="45.5639001" lon="11.2833404"><ele>500.75</ele><time>2026-04-25T07:09:01.102Z</time></trkpt><trkpt lat="45.5640261" lon="11.2833097"><ele>502.0</ele><time>2026-04-25T07:09:02.103Z</time></trkpt><trkpt lat="45.564148" lon="11.2832833"><ele>502.0</ele><time>2026-04-25T07:09:03.103Z</time></trkpt><trkpt lat="45.5642679" lon="11.2832546"><ele>502.0</ele><time>2026-04-25T07:09:04.102Z</time></trkpt><trkpt lat="45.5643868" lon="11.2832147"><ele>502.0</ele><time>2026-04-25T07:09:05.102Z</time></trkpt><trkpt lat="45.5645007" lon="11.2831556"><ele>502.0</ele><time>2026-04-25T07:09:06.103Z</time></trkpt><trkpt lat="45.5646004" lon="11.2830892"><ele>501.6</ele><time>2026-04-25T07:09:07.103Z</time></trkpt><trkpt lat="45.5646811" lon="11.2830131"><ele>501.20000000000005</ele><time>2026-04-25T07:09:08.102Z</time></trkpt><trkpt lat="45.5647419" lon="11.282913"><ele>500.8</ele><time>2026-04-25T07:09:09.103Z</time></trkpt><trkpt lat="45.5647731" lon="11.2827854"><ele>500.4</ele><time>2026-04-25T07:09:10.104Z</time></trkpt><trkpt lat="45.5647719" lon="11.2826436"><ele>500.0</ele><time>2026-04-25T07:09:11.103Z</time></trkpt><trkpt lat="45.5647443" lon="11.2824957"><ele>500.0</ele><time>2026-04-25T07:09:12.103Z</time></trkpt><trkpt lat="45.5647096" lon="11.2823396"><ele>500.0</ele><time>2026-04-25T07:09:13.102Z</time></trkpt><trkpt lat="45.5646734" lon="11.2821868"><ele>500.0</ele><time>2026-04-25T07:09:14.102Z</time></trkpt><trkpt lat="45.5646371" lon="11.2820397"><ele>500.0</ele><time>2026-04-25T07:09:15.102Z</time></trkpt><trkpt lat="45.5646071" lon="11.2818999"><ele>500.0</ele><time>2026-04-25T07:09:16.102Z</time></trkpt><trkpt lat="45.5645769" lon="11.2817796"><ele>496.66666666666663</ele><time>2026-04-25T07:09:17.103Z</time></trkpt><trkpt lat="45.5645239" lon="11.2817042"><ele>493.3333333333333</ele><time>2026-04-25T07:09:18.103Z</time></trkpt><trkpt lat="45.5644513" lon="11.2816815"><ele>490.0</ele><time>2026-04-25T07:09:19.103Z</time></trkpt><trkpt lat="45.5643814" lon="11.2817238"><ele>486.66666666666663</ele><time>2026-04-25T07:09:20.103Z</time></trkpt><trkpt lat="45.5643121" lon="11.281797"><ele>483.3333333333333</ele><time>2026-04-25T07:09:21.103Z</time></trkpt><trkpt lat="45.5642368" lon="11.2818855"><ele>480.0</ele><time>2026-04-25T07:09:22.103Z</time></trkpt><trkpt lat="45.5641608" lon="11.2819795"><ele>480.0</ele><time>2026-04-25T07:09:23.102Z</time></trkpt><trkpt lat="45.5640883" lon="11.2820746"><ele>480.0</ele><time>2026-04-25T07:09:24.102Z</time></trkpt><trkpt lat="45.5640169" lon="11.2821677"><ele>480.0</ele><time>2026-04-25T07:09:25.103Z</time></trkpt><trkpt lat="45.5639426" lon="11.2822566"><ele>480.0</ele><time>2026-04-25T07:09:26.102Z</time></trkpt><trkpt lat="45.5638666" lon="11.2823455"><ele>480.0</ele><time>2026-04-25T07:09:27.103Z</time></trkpt><trkpt lat="45.5637867" lon="11.2824337"><ele>479.5</ele><time>2026-04-25T07:09:28.102Z</time></trkpt><trkpt lat="45.5637045" lon="11.2825079"><ele>479.0</ele><time>2026-04-25T07:09:29.102Z</time></trkpt><trkpt lat="45.5636231" lon="11.2825501"><ele>478.5</ele><time>2026-04-25T07:09:30.102Z</time></trkpt><trkpt lat="45.5635392" lon="11.2825443"><ele>478.0</ele><time>2026-04-25T07:09:31.102Z</time></trkpt><trkpt lat="45.5634695" lon="11.2824837"><ele>477.5</ele><time>2026-04-25T07:09:32.104Z</time></trkpt><trkpt lat="45.563414" lon="11.2823937"><ele>477.0</ele><time>2026-04-25T07:09:33.103Z</time></trkpt><trkpt lat="45.5633448" lon="11.2823327"><ele>477.0</ele><time>2026-04-25T07:09:34.102Z</time></trkpt><trkpt lat="45.5632624" lon="11.282314"><ele>477.0</ele><time>2026-04-25T07:09:35.103Z</time></trkpt><trkpt lat="45.5631875" lon="11.2823342"><ele>477.0</ele><time>2026-04-25T07:09:36.102Z</time></trkpt><trkpt lat="45.5631196" lon="11.282388"><ele>477.0</ele><time>2026-04-25T07:09:37.102Z</time></trkpt><trkpt lat="45.5630687" lon="11.2824544"><ele>477.0</ele><time>2026-04-25T07:09:38.103Z</time></trkpt><trkpt lat="45.5629777" lon="11.2825354"><ele>477.0</ele><time>2026-04-25T07:09:40.103Z</time></trkpt><trkpt lat="45.5628787" lon="11.2824609"><ele>475.3333333333333</ele><time>2026-04-25T07:09:42.102Z</time></trkpt><trkpt lat="45.5628614" lon="11.2823674"><ele>473.66666666666663</ele><time>2026-04-25T07:09:43.102Z</time></trkpt><trkpt lat="45.5628629" lon="11.2822541"><ele>472.0</ele><time>2026-04-25T07:09:44.103Z</time></trkpt><trkpt lat="45.5628674" lon="11.282143"><ele>470.3333333333333</ele><time>2026-04-25T07:09:45.103Z</time></trkpt><trkpt lat="45.5628904" lon="11.2820538"><ele>468.66666666666663</ele><time>2026-04-25T07:09:46.103Z</time></trkpt><trkpt lat="45.562991" lon="11.2819673"><ele>467.0</ele><time>2026-04-25T07:09:48.103Z</time></trkpt><trkpt lat="45.5630638" lon="11.28185"><ele>466.8</ele><time>2026-04-25T07:09:50.102Z</time></trkpt><trkpt lat="45.5630671" lon="11.2816842"><ele>466.6</ele><time>2026-04-25T07:09:52.103Z</time></trkpt><trkpt lat="45.5630824" lon="11.2814952"><ele>466.40000000000003</ele><time>2026-04-25T07:09:54.103Z</time></trkpt><trkpt lat="45.5631338" lon="11.2814093"><ele>466.20000000000005</ele><time>2026-04-25T07:09:55.103Z</time></trkpt><trkpt lat="45.5632046" lon="11.2813442"><ele>466.0</ele><time>2026-04-25T07:09:56.102Z</time></trkpt><trkpt lat="45.563292" lon="11.2812966"><ele>462.6</ele><time>2026-04-25T07:09:57.103Z</time></trkpt><trkpt lat="45.5633842" lon="11.281253"><ele>459.20000000000005</ele><time>2026-04-25T07:09:58.103Z</time></trkpt><trkpt lat="45.563472" lon="11.2811971"><ele>455.79999999999995</ele><time>2026-04-25T07:09:59.102Z</time></trkpt><trkpt lat="45.5635516" lon="11.2811249"><ele>452.4</ele><time>2026-04-25T07:10:00.102Z</time></trkpt><trkpt lat="45.5636222" lon="11.2810449"><ele>449.0</ele><time>2026-04-25T07:10:01.104Z</time></trkpt><trkpt lat="45.5636874" lon="11.2809533"><ele>448.99999999999994</ele><time>2026-04-25T07:10:02.102Z</time></trkpt><trkpt lat="45.5637422" lon="11.2808601"><ele>449.0</ele><time>2026-04-25T07:10:03.102Z</time></trkpt><trkpt lat="45.5637908" lon="11.2807751"><ele>449.0</ele><time>2026-04-25T07:10:04.104Z</time></trkpt><trkpt lat="45.5638418" lon="11.2806995"><ele>449.0</ele><time>2026-04-25T07:10:05.102Z</time></trkpt><trkpt lat="45.5638833" lon="11.2806303"><ele>448.99999999999994</ele><time>2026-04-25T07:10:06.102Z</time></trkpt><trkpt lat="45.5639216" lon="11.2805065"><ele>449.0</ele><time>2026-04-25T07:10:08.102Z</time></trkpt><trkpt lat="45.5638519" lon="11.2804532"><ele>448.99999999999994</ele><time>2026-04-25T07:10:10.103Z</time></trkpt><trkpt lat="45.5637666" lon="11.280541"><ele>449.0</ele><time>2026-04-25T07:10:12.102Z</time></trkpt><trkpt lat="45.5637145" lon="11.2806044"><ele>449.0</ele><time>2026-04-25T07:10:13.102Z</time></trkpt><trkpt lat="45.5636547" lon="11.2806668"><ele>449.0</ele><time>2026-04-25T07:10:14.102Z</time></trkpt><trkpt lat="45.5635822" lon="11.2807202"><ele>448.99999999999994</ele><time>2026-04-25T07:10:15.103Z</time></trkpt><trkpt lat="45.5634956" lon="11.280758"><ele>449.0</ele><time>2026-04-25T07:10:16.102Z</time></trkpt><trkpt lat="45.5634042" lon="11.2807883"><ele>448.99999999999994</ele><time>2026-04-25T07:10:17.102Z</time></trkpt><trkpt lat="45.5633217" lon="11.2808178"><ele>449.0</ele><time>2026-04-25T07:10:18.102Z</time></trkpt><trkpt lat="45.5632466" lon="11.2808479"><ele>449.0</ele><time>2026-04-25T07:10:19.103Z</time></trkpt><trkpt lat="45.5631399" lon="11.2809"><ele>449.0</ele><time>2026-04-25T07:10:21.102Z</time></trkpt><trkpt lat="45.5630761" lon="11.2808423"><ele>448.99999999999994</ele><time>2026-04-25T07:10:23.103Z</time></trkpt><trkpt lat="45.5631229" lon="11.2807515"><ele>449.0</ele><time>2026-04-25T07:10:25.103Z</time></trkpt><trkpt lat="45.5632496" lon="11.2806904"><ele>449.0</ele><time>2026-04-25T07:10:27.102Z</time></trkpt><trkpt lat="45.5633333" lon="11.2806414"><ele>449.0</ele><time>2026-04-25T07:10:28.102Z</time></trkpt><trkpt lat="45.5634276" lon="11.2805806"><ele>449.0</ele><time>2026-04-25T07:10:29.103Z</time></trkpt><trkpt lat="45.5635256" lon="11.2805099"><ele>449.0</ele><time>2026-04-25T07:10:30.102Z</time></trkpt><trkpt lat="45.5636242" lon="11.2804241"><ele>449.0</ele><time>2026-04-25T07:10:31.102Z</time></trkpt><trkpt lat="45.563718" lon="11.2803228"><ele>449.0</ele><time>2026-04-25T07:10:32.103Z</time></trkpt><trkpt lat="45.5638072" lon="11.2802176"><ele>449.0</ele><time>2026-04-25T07:10:33.102Z</time></trkpt><trkpt lat="45.5638937" lon="11.2801045"><ele>449.0</ele><time>2026-04-25T07:10:34.102Z</time></trkpt><trkpt lat="45.5639797" lon="11.2799993"><ele>449.0</ele><time>2026-04-25T07:10:35.103Z</time></trkpt><trkpt lat="45.5640631" lon="11.2798975"><ele>449.0</ele><time>2026-04-25T07:10:36.102Z</time></trkpt><trkpt lat="45.564146" lon="11.2797957"><ele>449.0</ele><time>2026-04-25T07:10:37.102Z</time></trkpt><trkpt lat="45.5642281" lon="11.2797026"><ele>449.0</ele><time>2026-04-25T07:10:38.102Z</time></trkpt><trkpt lat="45.5643105" lon="11.2796176"><ele>449.0</ele><time>2026-04-25T07:10:39.103Z</time></trkpt><trkpt lat="45.5643944" lon="11.2795425"><ele>449.0</ele><time>2026-04-25T07:10:40.103Z</time></trkpt><trkpt lat="45.5644798" lon="11.2794847"><ele>447.0</ele><time>2026-04-25T07:10:41.102Z</time></trkpt><trkpt lat="45.5645595" lon="11.2794408"><ele>445.0</ele><time>2026-04-25T07:10:42.103Z</time></trkpt><trkpt lat="45.5646282" lon="11.2794078"><ele>443.0</ele><time>2026-04-25T07:10:43.102Z</time></trkpt><trkpt lat="45.5647155" lon="11.2793115"><ele>441.0</ele><time>2026-04-25T07:10:45.102Z</time></trkpt><trkpt lat="45.5646766" lon="11.2791953"><ele>439.0</ele><time>2026-04-25T07:10:47.102Z</time></trkpt><trkpt lat="45.5645503" lon="11.2792051"><ele>436.6</ele><time>2026-04-25T07:10:49.102Z</time></trkpt><trkpt lat="45.5644647" lon="11.27923"><ele>434.2</ele><time>2026-04-25T07:10:50.103Z</time></trkpt><trkpt lat="45.5643638" lon="11.2792563"><ele>431.80000000000007</ele><time>2026-04-25T07:10:51.103Z</time></trkpt><trkpt lat="45.5642503" lon="11.2792854"><ele>429.40000000000003</ele><time>2026-04-25T07:10:52.102Z</time></trkpt><trkpt lat="45.5641274" lon="11.27932"><ele>427.0</ele><time>2026-04-25T07:10:53.102Z</time></trkpt><trkpt lat="45.5640033" lon="11.2793539"><ele>427.0</ele><time>2026-04-25T07:10:54.103Z</time></trkpt><trkpt lat="45.5638839" lon="11.2793922"><ele>427.0</ele><time>2026-04-25T07:10:55.102Z</time></trkpt><trkpt lat="45.5637734" lon="11.2794493"><ele>427.0</ele><time>2026-04-25T07:10:56.103Z</time></trkpt><trkpt lat="45.5636758" lon="11.2795369"><ele>427.0</ele><time>2026-04-25T07:10:57.102Z</time></trkpt><trkpt lat="45.5635925" lon="11.2796402"><ele>427.6</ele><time>2026-04-25T07:10:58.103Z</time></trkpt><trkpt lat="45.5635207" lon="11.2797564"><ele>428.20000000000005</ele><time>2026-04-25T07:10:59.104Z</time></trkpt><trkpt lat="45.5634578" lon="11.2798624"><ele>428.8</ele><time>2026-04-25T07:11:00.104Z</time></trkpt><trkpt lat="45.5634106" lon="11.2799516"><ele>429.4</ele><time>2026-04-25T07:11:01.104Z</time></trkpt><trkpt lat="45.5633293" lon="11.2800359"><ele>430.0</ele><time>2026-04-25T07:11:03.102Z</time></trkpt><trkpt lat="45.5632584" lon="11.2799617"><ele>430.0</ele><time>2026-04-25T07:11:05.103Z</time></trkpt><trkpt lat="45.5632913" lon="11.2798151"><ele>430.0</ele><time>2026-04-25T07:11:07.102Z</time></trkpt><trkpt lat="45.5633315" lon="11.2797296"><ele>430.0</ele><time>2026-04-25T07:11:08.102Z</time></trkpt><trkpt lat="45.5633781" lon="11.2796247"><ele>430.0</ele><time>2026-04-25T07:11:09.103Z</time></trkpt><trkpt lat="45.5634247" lon="11.2795047"><ele>430.0</ele><time>2026-04-25T07:11:10.102Z</time></trkpt><trkpt lat="45.5634639" lon="11.2793816"><ele>427.1666666666667</ele><time>2026-04-25T07:11:11.104Z</time></trkpt><trkpt lat="45.5635022" lon="11.2792692"><ele>424.33333333333337</ele><time>2026-04-25T07:11:12.102Z</time></trkpt><trkpt lat="45.5635417" lon="11.2791679"><ele>421.5</ele><time>2026-04-25T07:11:13.103Z</time></trkpt><trkpt lat="45.5635836" lon="11.2790784"><ele>418.66666666666663</ele><time>2026-04-25T07:11:14.103Z</time></trkpt><trkpt lat="45.5636212" lon="11.2790022"><ele>415.8333333333333</ele><time>2026-04-25T07:11:15.102Z</time></trkpt><trkpt lat="45.5636262" lon="11.2788576"><ele>413.0</ele><time>2026-04-25T07:11:17.102Z</time></trkpt><trkpt lat="45.5635267" lon="11.2788509"><ele>413.0</ele><time>2026-04-25T07:11:19.102Z</time></trkpt><trkpt lat="45.5634736" lon="11.278927"><ele>413.0</ele><time>2026-04-25T07:11:20.103Z</time></trkpt><trkpt lat="45.5634207" lon="11.2790373"><ele>413.0</ele><time>2026-04-25T07:11:21.103Z</time></trkpt><trkpt lat="45.5633571" lon="11.2791605"><ele>413.0</ele><time>2026-04-25T07:11:22.102Z</time></trkpt><trkpt lat="45.5632758" lon="11.2792783"><ele>413.0</ele><time>2026-04-25T07:11:23.103Z</time></trkpt><trkpt lat="45.5631816" lon="11.2793729"><ele>413.0</ele><time>2026-04-25T07:11:24.102Z</time></trkpt><trkpt lat="45.563083" lon="11.2794617"><ele>413.0</ele><time>2026-04-25T07:11:25.103Z</time></trkpt><trkpt lat="45.5629861" lon="11.2795521"><ele>413.0</ele><time>2026-04-25T07:11:26.104Z</time></trkpt><trkpt lat="45.5628931" lon="11.279643"><ele>413.0</ele><time>2026-04-25T07:11:27.103Z</time></trkpt><trkpt lat="45.5628032" lon="11.2797335"><ele>413.3333333333333</ele><time>2026-04-25T07:11:28.102Z</time></trkpt><trkpt lat="45.5627161" lon="11.2798218"><ele>413.66666666666663</ele><time>2026-04-25T07:11:29.102Z</time></trkpt><trkpt lat="45.562639" lon="11.2799061"><ele>414.0</ele><time>2026-04-25T07:11:30.102Z</time></trkpt><trkpt lat="45.5625729" lon="11.2799822"><ele>414.33333333333337</ele><time>2026-04-25T07:11:31.102Z</time></trkpt><trkpt lat="45.5625088" lon="11.2800415"><ele>414.6666666666667</ele><time>2026-04-25T07:11:32.103Z</time></trkpt><trkpt lat="45.5624373" lon="11.2800702"><ele>415.0</ele><time>2026-04-25T07:11:33.102Z</time></trkpt><trkpt lat="45.5623663" lon="11.2800561"><ele>415.00000000000006</ele><time>2026-04-25T07:11:34.102Z</time></trkpt><trkpt lat="45.5623082" lon="11.2799937"><ele>415.0</ele><time>2026-04-25T07:11:35.103Z</time></trkpt><trkpt lat="45.5622797" lon="11.2798936"><ele>415.0</ele><time>2026-04-25T07:11:36.103Z</time></trkpt><trkpt lat="45.5622874" lon="11.2797752"><ele>415.0</ele><time>2026-04-25T07:11:37.102Z</time></trkpt><trkpt lat="45.5623239" lon="11.2796596"><ele>415.00000000000006</ele><time>2026-04-25T07:11:38.102Z</time></trkpt><trkpt lat="45.5623834" lon="11.2795443"><ele>415.0</ele><time>2026-04-25T07:11:39.103Z</time></trkpt><trkpt lat="45.5624552" lon="11.2794279"><ele>411.6</ele><time>2026-04-25T07:11:40.103Z</time></trkpt><trkpt lat="45.5625394" lon="11.2793184"><ele>408.2</ele><time>2026-04-25T07:11:41.103Z</time></trkpt><trkpt lat="45.5626294" lon="11.2792169"><ele>404.79999999999995</ele><time>2026-04-25T07:11:42.103Z</time></trkpt><trkpt lat="45.5627146" lon="11.2791196"><ele>401.4</ele><time>2026-04-25T07:11:43.102Z</time></trkpt><trkpt lat="45.5627977" lon="11.2790257"><ele>398.0</ele><time>2026-04-25T07:11:44.102Z</time></trkpt><trkpt lat="45.5628747" lon="11.2789264"><ele>398.0</ele><time>2026-04-25T07:11:45.102Z</time></trkpt><trkpt lat="45.5629314" lon="11.2788112"><ele>398.0</ele><time>2026-04-25T07:11:46.103Z</time></trkpt><trkpt lat="45.5629575" lon="11.2786787"><ele>398.0</ele><time>2026-04-25T07:11:47.103Z</time></trkpt><trkpt lat="45.5629493" lon="11.2785447"><ele>398.0</ele><time>2026-04-25T07:11:48.102Z</time></trkpt><trkpt lat="45.5629166" lon="11.2784146"><ele>398.0</ele><time>2026-04-25T07:11:49.102Z</time></trkpt><trkpt lat="45.5628697" lon="11.2782893"><ele>395.49999999999994</ele><time>2026-04-25T07:11:50.104Z</time></trkpt><trkpt lat="45.5628122" lon="11.2781756"><ele>393.0</ele><time>2026-04-25T07:11:51.102Z</time></trkpt><trkpt lat="45.5627554" lon="11.2780786"><ele>390.5</ele><time>2026-04-25T07:11:52.102Z</time></trkpt><trkpt lat="45.5627098" lon="11.2779888"><ele>388.0</ele><time>2026-04-25T07:11:53.103Z</time></trkpt><trkpt lat="45.5626888" lon="11.2778861"><ele>385.5</ele><time>2026-04-25T07:11:54.103Z</time></trkpt><trkpt lat="45.5627224" lon="11.2777746"><ele>383.0</ele><time>2026-04-25T07:11:55.102Z</time></trkpt><trkpt lat="45.5627836" lon="11.2776823"><ele>383.6666666666667</ele><time>2026-04-25T07:11:56.102Z</time></trkpt><trkpt lat="45.5628605" lon="11.2775912"><ele>384.33333333333337</ele><time>2026-04-25T07:11:57.103Z</time></trkpt><trkpt lat="45.5629373" lon="11.2775133"><ele>385.0</ele><time>2026-04-25T07:11:58.102Z</time></trkpt><trkpt lat="45.5630178" lon="11.2774489"><ele>385.6666666666667</ele><time>2026-04-25T07:11:59.102Z</time></trkpt><trkpt lat="45.5630966" lon="11.2774005"><ele>386.3333333333333</ele><time>2026-04-25T07:12:00.102Z</time></trkpt><trkpt lat="45.5631721" lon="11.2773842"><ele>387.0</ele><time>2026-04-25T07:12:01.102Z</time></trkpt><trkpt lat="45.5632396" lon="11.2773936"><ele>387.0</ele><time>2026-04-25T07:12:02.102Z</time></trkpt><trkpt lat="45.5633384" lon="11.2773914"><ele>387.0</ele><time>2026-04-25T07:12:04.103Z</time></trkpt><trkpt lat="45.5633268" lon="11.2772566"><ele>387.0</ele><time>2026-04-25T07:12:06.103Z</time></trkpt><trkpt lat="45.5632014" lon="11.2771535"><ele>387.0</ele><time>2026-04-25T07:12:08.103Z</time></trkpt><trkpt lat="45.5631149" lon="11.2770977"><ele>387.0</ele><time>2026-04-25T07:12:09.102Z</time></trkpt><trkpt lat="45.5630241" lon="11.2770443"><ele>387.0</ele><time>2026-04-25T07:12:10.102Z</time></trkpt><trkpt lat="45.5629333" lon="11.2770085"><ele>387.0</ele><time>2026-04-25T07:12:11.104Z</time></trkpt><trkpt lat="45.5628313" lon="11.277002"><ele>387.0</ele><time>2026-04-25T07:12:12.104Z</time></trkpt><trkpt lat="45.5627268" lon="11.2770249"><ele>387.0</ele><time>2026-04-25T07:12:13.103Z</time></trkpt><trkpt lat="45.5626186" lon="11.2770682"><ele>387.0</ele><time>2026-04-25T07:12:14.103Z</time></trkpt><trkpt lat="45.5625063" lon="11.277114"><ele>383.6</ele><time>2026-04-25T07:12:15.103Z</time></trkpt><trkpt lat="45.5623972" lon="11.277156"><ele>380.20000000000005</ele><time>2026-04-25T07:12:16.102Z</time></trkpt><trkpt lat="45.5622884" lon="11.2771886"><ele>376.8</ele><time>2026-04-25T07:12:17.102Z</time></trkpt><trkpt lat="45.5621799" lon="11.2772043"><ele>373.4</ele><time>2026-04-25T07:12:18.103Z</time></trkpt><trkpt lat="45.5620787" lon="11.2772102"><ele>370.0</ele><time>2026-04-25T07:12:19.103Z</time></trkpt><trkpt lat="45.5619899" lon="11.2772232"><ele>369.1428571428571</ele><time>2026-04-25T07:12:20.102Z</time></trkpt><trkpt lat="45.5619124" lon="11.2772645"><ele>368.2857142857143</ele><time>2026-04-25T07:12:21.103Z</time></trkpt><trkpt lat="45.561859" lon="11.2773413"><ele>367.42857142857144</ele><time>2026-04-25T07:12:22.103Z</time></trkpt><trkpt lat="45.5618331" lon="11.2774364"><ele>366.57142857142856</ele><time>2026-04-25T07:12:23.103Z</time></trkpt><trkpt lat="45.5618365" lon="11.2775391"><ele>365.7142857142857</ele><time>2026-04-25T07:12:24.103Z</time></trkpt><trkpt lat="45.5618627" lon="11.2776301"><ele>364.85714285714283</ele><time>2026-04-25T07:12:25.103Z</time></trkpt><trkpt lat="45.5619003" lon="11.2777047"><ele>364.0</ele><time>2026-04-25T07:12:26.102Z</time></trkpt><trkpt lat="45.5619711" lon="11.2778005"><ele>364.0</ele><time>2026-04-25T07:12:28.103Z</time></trkpt><trkpt lat="45.561966" lon="11.2778987"><ele>364.0</ele><time>2026-04-25T07:12:30.103Z</time></trkpt><trkpt lat="45.5618931" lon="11.2778954"><ele>364.0</ele><time>2026-04-25T07:12:32.103Z</time></trkpt><trkpt lat="45.5618379" lon="11.277751"><ele>364.0</ele><time>2026-04-25T07:12:34.103Z</time></trkpt><trkpt lat="45.5618061" lon="11.2776656"><ele>364.0</ele><time>2026-04-25T07:12:35.102Z</time></trkpt><trkpt lat="45.5617701" lon="11.2775758"><ele>364.0</ele><time>2026-04-25T07:12:36.102Z</time></trkpt><trkpt lat="45.5617346" lon="11.2774739"><ele>364.0</ele><time>2026-04-25T07:12:37.102Z</time></trkpt><trkpt lat="45.5617015" lon="11.2773648"><ele>364.0</ele><time>2026-04-25T07:12:38.102Z</time></trkpt><trkpt lat="45.5616705" lon="11.2772549"><ele>364.0</ele><time>2026-04-25T07:12:39.102Z</time></trkpt><trkpt lat="45.5616426" lon="11.277143"><ele>364.0</ele><time>2026-04-25T07:12:40.104Z</time></trkpt><trkpt lat="45.5616187" lon="11.2770314"><ele>364.0</ele><time>2026-04-25T07:12:41.102Z</time></trkpt><trkpt lat="45.5616023" lon="11.2769197"><ele>364.0</ele><time>2026-04-25T07:12:42.103Z</time></trkpt><trkpt lat="45.5615921" lon="11.2768086"><ele>362.66666666666663</ele><time>2026-04-25T07:12:43.102Z</time></trkpt><trkpt lat="45.5615916" lon="11.2766983"><ele>361.3333333333333</ele><time>2026-04-25T07:12:44.104Z</time></trkpt><trkpt lat="45.5616054" lon="11.2765898"><ele>360.0</ele><time>2026-04-25T07:12:45.102Z</time></trkpt><trkpt lat="45.5616367" lon="11.2764869"><ele>358.6666666666667</ele><time>2026-04-25T07:12:46.103Z</time></trkpt><trkpt lat="45.5616864" lon="11.2764085"><ele>357.33333333333337</ele><time>2026-04-25T07:12:47.104Z</time></trkpt><trkpt lat="45.5617517" lon="11.2763584"><ele>356.0</ele><time>2026-04-25T07:12:48.103Z</time></trkpt><trkpt lat="45.5618266" lon="11.2763254"><ele>354.6</ele><time>2026-04-25T07:12:49.102Z</time></trkpt><trkpt lat="45.5618936" lon="11.2763012"><ele>353.20000000000005</ele><time>2026-04-25T07:12:50.103Z</time></trkpt><trkpt lat="45.5620061" lon="11.2762678"><ele>351.79999999999995</ele><time>2026-04-25T07:12:52.104Z</time></trkpt><trkpt lat="45.5620424" lon="11.276144"><ele>350.4</ele><time>2026-04-25T07:12:54.103Z</time></trkpt><trkpt lat="45.5619502" lon="11.275998"><ele>349.0</ele><time>2026-04-25T07:12:56.103Z</time></trkpt><trkpt lat="45.5618758" lon="11.2759184"><ele>349.0</ele><time>2026-04-25T07:12:57.103Z</time></trkpt><trkpt lat="45.561788" lon="11.2758497"><ele>349.0</ele><time>2026-04-25T07:12:58.103Z</time></trkpt><trkpt lat="45.5616959" lon="11.2757888"><ele>349.0</ele><time>2026-04-25T07:12:59.102Z</time></trkpt><trkpt lat="45.5616005" lon="11.2757314"><ele>349.0</ele><time>2026-04-25T07:13:00.102Z</time></trkpt><trkpt lat="45.5615037" lon="11.2756545"><ele>349.0</ele><time>2026-04-25T07:13:01.102Z</time></trkpt><trkpt lat="45.5614108" lon="11.2755546"><ele>349.25</ele><time>2026-04-25T07:13:02.102Z</time></trkpt><trkpt lat="45.5613188" lon="11.2754509"><ele>349.5</ele><time>2026-04-25T07:13:03.102Z</time></trkpt><trkpt lat="45.5612287" lon="11.2753438"><ele>349.75</ele><time>2026-04-25T07:13:04.102Z</time></trkpt><trkpt lat="45.5611371" lon="11.275239"><ele>350.0</ele><time>2026-04-25T07:13:05.102Z</time></trkpt><trkpt lat="45.5610384" lon="11.2751517"><ele>348.0</ele><time>2026-04-25T07:13:06.102Z</time></trkpt><trkpt lat="45.5609394" lon="11.2750773"><ele>346.0</ele><time>2026-04-25T07:13:07.103Z</time></trkpt><trkpt lat="45.5608346" lon="11.2750342"><ele>344.0</ele><time>2026-04-25T07:13:08.103Z</time></trkpt><trkpt lat="45.5607261" lon="11.2750255"><ele>342.0</ele><time>2026-04-25T07:13:09.103Z</time></trkpt><trkpt lat="45.5606128" lon="11.2750484"><ele>340.0</ele><time>2026-04-25T07:13:10.103Z</time></trkpt><trkpt lat="45.5604935" lon="11.2750828"><ele>340.0</ele><time>2026-04-25T07:13:11.102Z</time></trkpt><trkpt lat="45.5603697" lon="11.2751222"><ele>340.0</ele><time>2026-04-25T07:13:12.102Z</time></trkpt><trkpt lat="45.5602442" lon="11.2751624"><ele>340.0</ele><time>2026-04-25T07:13:13.103Z</time></trkpt><trkpt lat="45.5601161" lon="11.2752038"><ele>340.0</ele><time>2026-04-25T07:13:14.103Z</time></trkpt><trkpt lat="45.5599906" lon="11.2752485"><ele>336.4</ele><time>2026-04-25T07:13:15.102Z</time></trkpt><trkpt lat="45.559876" lon="11.2752906"><ele>332.8</ele><time>2026-04-25T07:13:16.102Z</time></trkpt><trkpt lat="45.559773" lon="11.2753262"><ele>329.20000000000005</ele><time>2026-04-25T07:13:17.102Z</time></trkpt><trkpt lat="45.5596853" lon="11.275355"><ele>325.6</ele><time>2026-04-25T07:13:18.102Z</time></trkpt><trkpt lat="45.5596105" lon="11.2753778"><ele>322.0</ele><time>2026-04-25T07:13:19.103Z</time></trkpt><trkpt lat="45.5595001" lon="11.2753469"><ele>322.0</ele><time>2026-04-25T07:13:21.103Z</time></trkpt><trkpt lat="45.5594899" lon="11.2751847"><ele>322.0</ele><time>2026-04-25T07:13:23.103Z</time></trkpt><trkpt lat="45.5595283" lon="11.2750851"><ele>322.0</ele><time>2026-04-25T07:13:24.102Z</time></trkpt><trkpt lat="45.5595436" lon="11.2749608"><ele>322.0</ele><time>2026-04-25T07:13:25.102Z</time></trkpt><trkpt lat="45.5595345" lon="11.274842"><ele>322.0</ele><time>2026-04-25T07:13:26.102Z</time></trkpt><trkpt lat="45.559517" lon="11.274736"><ele>322.0</ele><time>2026-04-25T07:13:27.102Z</time></trkpt><trkpt lat="45.5595347" lon="11.2746383"><ele>320.3333333333333</ele><time>2026-04-25T07:13:28.102Z</time></trkpt><trkpt lat="45.559576" lon="11.2745601"><ele>318.66666666666663</ele><time>2026-04-25T07:13:29.102Z</time></trkpt><trkpt lat="45.5596487" lon="11.2744378"><ele>317.0</ele><time>2026-04-25T07:13:31.103Z</time></trkpt><trkpt lat="45.5595982" lon="11.2743167"><ele>315.3333333333333</ele><time>2026-04-25T07:13:33.103Z</time></trkpt><trkpt lat="45.559535" lon="11.2742833"><ele>313.6666666666667</ele><time>2026-04-25T07:13:34.103Z</time></trkpt><trkpt lat="45.5594661" lon="11.2742896"><ele>312.0</ele><time>2026-04-25T07:13:35.103Z</time></trkpt><trkpt lat="45.5593986" lon="11.2743369"><ele>309.4</ele><time>2026-04-25T07:13:36.102Z</time></trkpt><trkpt lat="45.5593491" lon="11.2744224"><ele>306.79999999999995</ele><time>2026-04-25T07:13:37.104Z</time></trkpt><trkpt lat="45.5593117" lon="11.2745448"><ele>304.2</ele><time>2026-04-25T07:13:38.103Z</time></trkpt><trkpt lat="45.559285" lon="11.2746833"><ele>301.59999999999997</ele><time>2026-04-25T07:13:39.103Z</time></trkpt><trkpt lat="45.5592657" lon="11.274835"><ele>299.0</ele><time>2026-04-25T07:13:40.103Z</time></trkpt><trkpt lat="45.5592269" lon="11.2749814"><ele>299.0</ele><time>2026-04-25T07:13:41.103Z</time></trkpt><trkpt lat="45.5591635" lon="11.2751086"><ele>299.0</ele><time>2026-04-25T07:13:42.102Z</time></trkpt><trkpt lat="45.5590931" lon="11.2752293"><ele>299.0</ele><time>2026-04-25T07:13:43.103Z</time></trkpt><trkpt lat="45.559016" lon="11.2753451"><ele>299.0</ele><time>2026-04-25T07:13:44.102Z</time></trkpt><trkpt lat="45.5589348" lon="11.275452"><ele>299.0</ele><time>2026-04-25T07:13:45.103Z</time></trkpt><trkpt lat="45.5588555" lon="11.2755473"><ele>299.1666666666667</ele><time>2026-04-25T07:13:46.104Z</time></trkpt><trkpt lat="45.5587789" lon="11.2756433"><ele>299.33333333333337</ele><time>2026-04-25T07:13:47.103Z</time></trkpt><trkpt lat="45.5587174" lon="11.2757498"><ele>299.5</ele><time>2026-04-25T07:13:48.102Z</time></trkpt><trkpt lat="45.5586726" lon="11.2758412"><ele>299.6666666666667</ele><time>2026-04-25T07:13:49.103Z</time></trkpt><trkpt lat="45.5586285" lon="11.2759159"><ele>299.8333333333333</ele><time>2026-04-25T07:13:50.102Z</time></trkpt><trkpt lat="45.5585428" lon="11.2759309"><ele>300.0</ele><time>2026-04-25T07:13:52.103Z</time></trkpt><trkpt lat="45.5585342" lon="11.2758046"><ele>296.0</ele><time>2026-04-25T07:13:54.102Z</time></trkpt><trkpt lat="45.5586076" lon="11.2756426"><ele>292.0</ele><time>2026-04-25T07:13:56.103Z</time></trkpt><trkpt lat="45.558637" lon="11.2755556"><ele>288.0</ele><time>2026-04-25T07:13:57.102Z</time></trkpt><trkpt lat="45.5586409" lon="11.2754013"><ele>284.0</ele><time>2026-04-25T07:13:59.103Z</time></trkpt><trkpt lat="45.5585538" lon="11.2753817"><ele>280.0</ele><time>2026-04-25T07:14:01.104Z</time></trkpt><trkpt lat="45.5584677" lon="11.2755352"><ele>280.0</ele><time>2026-04-25T07:14:03.102Z</time></trkpt><trkpt lat="45.5584205" lon="11.275638"><ele>280.0</ele><time>2026-04-25T07:14:04.102Z</time></trkpt><trkpt lat="45.5583777" lon="11.2757349"><ele>280.0</ele><time>2026-04-25T07:14:05.104Z</time></trkpt><trkpt lat="45.5582876" lon="11.2758532"><ele>280.0</ele><time>2026-04-25T07:14:07.102Z</time></trkpt><trkpt lat="45.5582232" lon="11.2758366"><ele>280.0</ele><time>2026-04-25T07:14:08.102Z</time></trkpt><trkpt lat="45.5581729" lon="11.2757674"><ele>280.0</ele><time>2026-04-25T07:14:09.104Z</time></trkpt><trkpt lat="45.5581133" lon="11.275674"><ele>278.8</ele><time>2026-04-25T07:14:10.103Z</time></trkpt><trkpt lat="45.5580436" lon="11.2755724"><ele>277.6</ele><time>2026-04-25T07:14:11.103Z</time></trkpt><trkpt lat="45.5579702" lon="11.2754647"><ele>276.4</ele><time>2026-04-25T07:14:12.102Z</time></trkpt><trkpt lat="45.5578997" lon="11.2753592"><ele>275.2</ele><time>2026-04-25T07:14:13.102Z</time></trkpt><trkpt lat="45.5578367" lon="11.2752702"><ele>274.0</ele><time>2026-04-25T07:14:14.102Z</time></trkpt><trkpt lat="45.5577775" lon="11.2752107"><ele>271.3333333333333</ele><time>2026-04-25T07:14:15.102Z</time></trkpt><trkpt lat="45.5577176" lon="11.2751796"><ele>268.66666666666663</ele><time>2026-04-25T07:14:16.103Z</time></trkpt><trkpt lat="45.557634" lon="11.2752481"><ele>266.0</ele><time>2026-04-25T07:14:18.102Z</time></trkpt><trkpt lat="45.5576609" lon="11.2753829"><ele>263.3333333333333</ele><time>2026-04-25T07:14:20.102Z</time></trkpt><trkpt lat="45.5577047" lon="11.2754484"><ele>260.6666666666667</ele><time>2026-04-25T07:14:21.103Z</time></trkpt><trkpt lat="45.5577577" lon="11.2755131"><ele>258.0</ele><time>2026-04-25T07:14:22.103Z</time></trkpt><trkpt lat="45.5578112" lon="11.2755765"><ele>258.0</ele><time>2026-04-25T07:14:23.103Z</time></trkpt><trkpt lat="45.5578975" lon="11.2756758"><ele>258.0</ele><time>2026-04-25T07:14:25.102Z</time></trkpt><trkpt lat="45.5578951" lon="11.275783"><ele>258.0</ele><time>2026-04-25T07:14:27.103Z</time></trkpt><trkpt lat="45.557816" lon="11.275783"><ele>258.0</ele><time>2026-04-25T07:14:29.102Z</time></trkpt><trkpt lat="45.5577459" lon="11.2756563"><ele>258.0</ele><time>2026-04-25T07:14:31.102Z</time></trkpt><trkpt lat="45.5576968" lon="11.2755717"><ele>258.0</ele><time>2026-04-25T07:14:32.102Z</time></trkpt><trkpt lat="45.5576299" lon="11.2754887"><ele>258.0</ele><time>2026-04-25T07:14:33.103Z</time></trkpt><trkpt lat="45.5575573" lon="11.2754057"><ele>258.0</ele><time>2026-04-25T07:14:34.102Z</time></trkpt><trkpt lat="45.5574792" lon="11.275327"><ele>258.0</ele><time>2026-04-25T07:14:35.103Z</time></trkpt><trkpt lat="45.5573972" lon="11.2752563"><ele>258.0</ele><time>2026-04-25T07:14:36.103Z</time></trkpt><trkpt lat="45.5573236" lon="11.2752011"><ele>258.0</ele><time>2026-04-25T07:14:37.103Z</time></trkpt><trkpt lat="45.5572655" lon="11.2751512"><ele>258.0</ele><time>2026-04-25T07:14:38.103Z</time></trkpt><trkpt lat="45.5572521" lon="11.2750092"><ele>258.0</ele><time>2026-04-25T07:14:40.102Z</time></trkpt><trkpt lat="45.557364" lon="11.2749254"><ele>258.0</ele><time>2026-04-25T07:14:42.103Z</time></trkpt><trkpt lat="45.5574454" lon="11.2748618"><ele>258.0</ele><time>2026-04-25T07:14:43.103Z</time></trkpt><trkpt lat="45.5575366" lon="11.2747875"><ele>258.0</ele><time>2026-04-25T07:14:44.102Z</time></trkpt><trkpt lat="45.5576363" lon="11.2747056"><ele>258.0</ele><time>2026-04-25T07:14:45.104Z</time></trkpt><trkpt lat="45.557739" lon="11.2746286"><ele>258.0</ele><time>2026-04-25T07:14:46.104Z</time></trkpt><trkpt lat="45.5578377" lon="11.2745511"><ele>258.0</ele><time>2026-04-25T07:14:47.102Z</time></trkpt><trkpt lat="45.557935" lon="11.2744736"><ele>258.0</ele><time>2026-04-25T07:14:48.102Z</time></trkpt><trkpt lat="45.5580292" lon="11.2744027"><ele>258.0</ele><time>2026-04-25T07:14:49.103Z</time></trkpt><trkpt lat="45.55811" lon="11.2743515"><ele>258.0</ele><time>2026-04-25T07:14:50.102Z</time></trkpt><trkpt lat="45.5581801" lon="11.274304"><ele>258.0</ele><time>2026-04-25T07:14:51.102Z</time></trkpt><trkpt lat="45.5582463" lon="11.2742785"><ele>258.0</ele><time>2026-04-25T07:14:52.103Z</time></trkpt><trkpt lat="45.5583497" lon="11.2742148"><ele>258.0</ele><time>2026-04-25T07:14:54.103Z</time></trkpt><trkpt lat="45.5583598" lon="11.2740876"><ele>258.0</ele><time>2026-04-25T07:14:56.103Z</time></trkpt><trkpt lat="45.5582562" lon="11.2740543"><ele>258.0</ele><time>2026-04-25T07:14:58.102Z</time></trkpt><trkpt lat="45.5581873" lon="11.2740837"><ele>258.0</ele><time>2026-04-25T07:14:59.103Z</time></trkpt><trkpt lat="45.5581055" lon="11.2741247"><ele>258.0</ele><time>2026-04-25T07:15:00.102Z</time></trkpt><trkpt lat="45.55801" lon="11.274176"><ele>258.0</ele><time>2026-04-25T07:15:01.103Z</time></trkpt><trkpt lat="45.5579002" lon="11.2742326"><ele>258.0</ele><time>2026-04-25T07:15:02.102Z</time></trkpt><trkpt lat="45.5577799" lon="11.2742804"><ele>258.0</ele><time>2026-04-25T07:15:03.102Z</time></trkpt><trkpt lat="45.5576527" lon="11.2743177"><ele>258.0</ele><time>2026-04-25T07:15:04.103Z</time></trkpt><trkpt lat="45.5575239" lon="11.2743463"><ele>252.0</ele><time>2026-04-25T07:15:05.102Z</time></trkpt><trkpt lat="45.5573934" lon="11.2743654"><ele>246.0</ele><time>2026-04-25T07:15:06.103Z</time></trkpt><trkpt lat="45.557272" lon="11.2743592"><ele>240.0</ele><time>2026-04-25T07:15:07.103Z</time></trkpt><trkpt lat="45.5571575" lon="11.2743432"><ele>234.0</ele><time>2026-04-25T07:15:08.102Z</time></trkpt><trkpt lat="45.5570432" lon="11.2743532"><ele>230.0</ele><time>2026-04-25T07:15:09.104Z</time></trkpt><trkpt lat="45.5569274" lon="11.2744039"><ele>226.0</ele><time>2026-04-25T07:15:10.102Z</time></trkpt><trkpt lat="45.5568138" lon="11.274455"><ele>222.0</ele><time>2026-04-25T07:15:11.104Z</time></trkpt><trkpt lat="45.5567082" lon="11.2745123"><ele>218.0</ele><time>2026-04-25T07:15:12.102Z</time></trkpt><trkpt lat="45.5566135" lon="11.2745747"><ele>218.00000000000003</ele><time>2026-04-25T07:15:13.103Z</time></trkpt><trkpt lat="45.5565414" lon="11.2746363"><ele>218.0</ele><time>2026-04-25T07:15:14.102Z</time></trkpt><trkpt lat="45.5564886" lon="11.274686"><ele>218.0</ele><time>2026-04-25T07:15:15.102Z</time></trkpt><trkpt lat="45.5564001" lon="11.2746886"><ele>218.0</ele><time>2026-04-25T07:15:17.102Z</time></trkpt><trkpt lat="45.5564011" lon="11.2745822"><ele>218.00000000000003</ele><time>2026-04-25T07:15:19.103Z</time></trkpt><trkpt lat="45.5564964" lon="11.2744964"><ele>218.0</ele><time>2026-04-25T07:15:21.103Z</time></trkpt><trkpt lat="45.5565604" lon="11.2744304"><ele>218.0</ele><time>2026-04-25T07:15:22.102Z</time></trkpt><trkpt lat="45.5566368" lon="11.2743541"><ele>218.0</ele><time>2026-04-25T07:15:23.102Z</time></trkpt><trkpt lat="45.5567151" lon="11.2742837"><ele>218.0</ele><time>2026-04-25T07:15:24.103Z</time></trkpt><trkpt lat="45.5567931" lon="11.2742159"><ele>218.0</ele><time>2026-04-25T07:15:25.102Z</time></trkpt><trkpt lat="45.5568687" lon="11.2741471"><ele>218.0</ele><time>2026-04-25T07:15:26.102Z</time></trkpt><trkpt lat="45.55694" lon="11.274084"><ele>218.00000000000003</ele><time>2026-04-25T07:15:27.102Z</time></trkpt><trkpt lat="45.5570057" lon="11.2740321"><ele>218.0</ele><time>2026-04-25T07:15:28.102Z</time></trkpt><trkpt lat="45.5570591" lon="11.2739795"><ele>218.0</ele><time>2026-04-25T07:15:29.104Z</time></trkpt><trkpt lat="45.5570995" lon="11.2738488"><ele>218.0</ele><time>2026-04-25T07:15:31.102Z</time></trkpt><trkpt lat="45.557024" lon="11.2737772"><ele>218.00000000000003</ele><time>2026-04-25T07:15:33.103Z</time></trkpt><trkpt lat="45.5569576" lon="11.2737981"><ele>218.0</ele><time>2026-04-25T07:15:34.103Z</time></trkpt><trkpt lat="45.5568749" lon="11.2738309"><ele>218.0</ele><time>2026-04-25T07:15:35.104Z</time></trkpt><trkpt lat="45.5567757" lon="11.2738691"><ele>218.0</ele><time>2026-04-25T07:15:36.103Z</time></trkpt><trkpt lat="45.5566602" lon="11.2739019"><ele>218.0</ele><time>2026-04-25T07:15:37.102Z</time></trkpt><trkpt lat="45.5565377" lon="11.2739392"><ele>218.0</ele><time>2026-04-25T07:15:38.102Z</time></trkpt><trkpt lat="45.5564096" lon="11.2739816"><ele>218.0</ele><time>2026-04-25T07:15:39.102Z</time></trkpt><trkpt lat="45.5562831" lon="11.2740309"><ele>218.0</ele><time>2026-04-25T07:15:40.103Z</time></trkpt><trkpt lat="45.5561604" lon="11.2740878"><ele>218.0</ele><time>2026-04-25T07:15:41.103Z</time></trkpt><trkpt lat="45.5560449" lon="11.274159"><ele>218.0</ele><time>2026-04-25T07:15:42.102Z</time></trkpt><trkpt lat="45.5559352" lon="11.2742445"><ele>213.25</ele><time>2026-04-25T07:15:43.103Z</time></trkpt><trkpt lat="45.5558284" lon="11.2743314"><ele>208.5</ele><time>2026-04-25T07:15:44.102Z</time></trkpt><trkpt lat="45.5557247" lon="11.2744124"><ele>203.75</ele><time>2026-04-25T07:15:45.103Z</time></trkpt><trkpt lat="45.5556242" lon="11.2744915"><ele>199.0</ele><time>2026-04-25T07:15:46.102Z</time></trkpt><trkpt lat="45.5555264" lon="11.2745699"><ele>199.0</ele><time>2026-04-25T07:15:47.103Z</time></trkpt><trkpt lat="45.555432" lon="11.2746456"><ele>199.0</ele><time>2026-04-25T07:15:48.103Z</time></trkpt><trkpt lat="45.5553372" lon="11.2747078"><ele>199.0</ele><time>2026-04-25T07:15:49.102Z</time></trkpt><trkpt lat="45.5552429" lon="11.2747478"><ele>199.0</ele><time>2026-04-25T07:15:50.103Z</time></trkpt><trkpt lat="45.555145" lon="11.2747653"><ele>199.0</ele><time>2026-04-25T07:15:51.102Z</time></trkpt><trkpt lat="45.5550467" lon="11.2747591"><ele>199.2</ele><time>2026-04-25T07:15:52.102Z</time></trkpt><trkpt lat="45.5549477" lon="11.2747494"><ele>199.39999999999998</ele><time>2026-04-25T07:15:53.102Z</time></trkpt><trkpt lat="45.5548506" lon="11.2747538"><ele>199.6</ele><time>2026-04-25T07:15:54.102Z</time></trkpt><trkpt lat="45.5547599" lon="11.2747901"><ele>199.8</ele><time>2026-04-25T07:15:55.102Z</time></trkpt><trkpt lat="45.5546748" lon="11.2748547"><ele>200.0</ele><time>2026-04-25T07:15:56.103Z</time></trkpt><trkpt lat="45.5545968" lon="11.2749288"><ele>198.2</ele><time>2026-04-25T07:15:57.103Z</time></trkpt><trkpt lat="45.5545114" lon="11.2750064"><ele>196.4</ele><time>2026-04-25T07:15:58.102Z</time></trkpt><trkpt lat="45.5544219" lon="11.2750891"><ele>194.60000000000002</ele><time>2026-04-25T07:15:59.103Z</time></trkpt><trkpt lat="45.554329" lon="11.2751786"><ele>192.8</ele><time>2026-04-25T07:16:00.102Z</time></trkpt><trkpt lat="45.554232" lon="11.2752718"><ele>191.0</ele><time>2026-04-25T07:16:01.103Z</time></trkpt><trkpt lat="45.5541304" lon="11.2753665"><ele>191.0</ele><time>2026-04-25T07:16:02.102Z</time></trkpt><trkpt lat="45.5540247" lon="11.2754608"><ele>191.0</ele><time>2026-04-25T07:16:03.103Z</time></trkpt><trkpt lat="45.5539201" lon="11.2755555"><ele>191.0</ele><time>2026-04-25T07:16:04.104Z</time></trkpt><trkpt lat="45.553817" lon="11.2756484"><ele>191.0</ele><time>2026-04-25T07:16:05.103Z</time></trkpt><trkpt lat="45.5537145" lon="11.2757389"><ele>190.75</ele><time>2026-04-25T07:16:06.102Z</time></trkpt><trkpt lat="45.5536112" lon="11.2758188"><ele>190.5</ele><time>2026-04-25T07:16:07.102Z</time></trkpt><trkpt lat="45.5535069" lon="11.2758954"><ele>190.25</ele><time>2026-04-25T07:16:08.102Z</time></trkpt><trkpt lat="45.553399" lon="11.2759671"><ele>190.0</ele><time>2026-04-25T07:16:09.102Z</time></trkpt><trkpt lat="45.5532841" lon="11.2760295"><ele>190.0</ele><time>2026-04-25T07:16:10.103Z</time></trkpt><trkpt lat="45.5531688" lon="11.2760838"><ele>190.0</ele><time>2026-04-25T07:16:11.102Z</time></trkpt><trkpt lat="45.5530472" lon="11.2761372"><ele>190.0</ele><time>2026-04-25T07:16:12.102Z</time></trkpt><trkpt lat="45.5529227" lon="11.2761828"><ele>190.0</ele><time>2026-04-25T07:16:13.104Z</time></trkpt><trkpt lat="45.5527972" lon="11.2762155"><ele>189.0</ele><time>2026-04-25T07:16:14.102Z</time></trkpt><trkpt lat="45.5526752" lon="11.2762474"><ele>188.0</ele><time>2026-04-25T07:16:15.103Z</time></trkpt><trkpt lat="45.5525543" lon="11.2762754"><ele>187.0</ele><time>2026-04-25T07:16:16.103Z</time></trkpt><trkpt lat="45.5524363" lon="11.2763021"><ele>186.0</ele><time>2026-04-25T07:16:17.102Z</time></trkpt><trkpt lat="45.5523168" lon="11.2763335"><ele>186.0</ele><time>2026-04-25T07:16:18.103Z</time></trkpt><trkpt lat="45.5522007" lon="11.2763658"><ele>186.0</ele><time>2026-04-25T07:16:19.103Z</time></trkpt><trkpt lat="45.5520881" lon="11.276394"><ele>186.0</ele><time>2026-04-25T07:16:20.102Z</time></trkpt><trkpt lat="45.5519824" lon="11.2764188"><ele>186.0</ele><time>2026-04-25T07:16:21.103Z</time></trkpt><trkpt lat="45.5518806" lon="11.2764441"><ele>186.0</ele><time>2026-04-25T07:16:22.103Z</time></trkpt><trkpt lat="45.5517824" lon="11.2764709"><ele>185.8</ele><time>2026-04-25T07:16:23.102Z</time></trkpt><trkpt lat="45.5516872" lon="11.2764972"><ele>185.60000000000002</ele><time>2026-04-25T07:16:24.103Z</time></trkpt><trkpt lat="45.5515935" lon="11.2765152"><ele>185.4</ele><time>2026-04-25T07:16:25.102Z</time></trkpt><trkpt lat="45.5514978" lon="11.2765128"><ele>185.2</ele><time>2026-04-25T07:16:26.103Z</time></trkpt><trkpt lat="45.5514026" lon="11.27648"><ele>185.0</ele><time>2026-04-25T07:16:27.104Z</time></trkpt><trkpt lat="45.5513146" lon="11.2764226"><ele>184.4</ele><time>2026-04-25T07:16:28.102Z</time></trkpt><trkpt lat="45.5512343" lon="11.2763447"><ele>183.8</ele><time>2026-04-25T07:16:29.103Z</time></trkpt><trkpt lat="45.5511678" lon="11.2762515"><ele>183.2</ele><time>2026-04-25T07:16:30.103Z</time></trkpt><trkpt lat="45.5511144" lon="11.2761543"><ele>182.6</ele><time>2026-04-25T07:16:31.102Z</time></trkpt><trkpt lat="45.5510781" lon="11.2760677"><ele>182.0</ele><time>2026-04-25T07:16:32.102Z</time></trkpt><trkpt lat="45.5510298" lon="11.2759326"><ele>182.0</ele><time>2026-04-25T07:16:34.104Z</time></trkpt><trkpt lat="45.5510037" lon="11.2758488"><ele>182.0</ele><time>2026-04-25T07:16:36.104Z</time></trkpt><trkpt lat="45.5509408" lon="11.2757785"><ele>182.0</ele><time>2026-04-25T07:17:21.102Z</time></trkpt><trkpt lat="45.5508627" lon="11.2757947"><ele>182.0</ele><time>2026-04-25T07:17:23.102Z</time></trkpt><trkpt lat="45.5507693" lon="11.2758765"><ele>182.0</ele><time>2026-04-25T07:17:25.102Z</time></trkpt><trkpt lat="45.5506643" lon="11.2759658"><ele>182.0</ele><time>2026-04-25T07:17:27.103Z</time></trkpt><trkpt lat="45.5505716" lon="11.2759876"><ele>182.0</ele><time>2026-04-25T07:17:29.102Z</time></trkpt><trkpt lat="45.5505109" lon="11.2759116"><ele>182.0</ele><time>2026-04-25T07:17:31.102Z</time></trkpt><trkpt lat="45.5504503" lon="11.2757846"><ele>182.0</ele><time>2026-04-25T07:17:33.104Z</time></trkpt><trkpt lat="45.5504116" lon="11.275711"><ele>182.0</ele><time>2026-04-25T07:17:34.103Z</time></trkpt><trkpt lat="45.5503727" lon="11.2756345"><ele>182.0</ele><time>2026-04-25T07:17:35.104Z</time></trkpt><trkpt lat="45.5503028" lon="11.2754894"><ele>181.8</ele><time>2026-04-25T07:17:37.104Z</time></trkpt><trkpt lat="45.5502617" lon="11.2753434"><ele>181.6</ele><time>2026-04-25T07:17:39.105Z</time></trkpt><trkpt lat="45.5502531" lon="11.2751769"><ele>181.4</ele><time>2026-04-25T07:17:41.104Z</time></trkpt><trkpt lat="45.5502904" lon="11.2750082"><ele>181.20000000000002</ele><time>2026-04-25T07:17:43.104Z</time></trkpt><trkpt lat="45.5503255" lon="11.2749166"><ele>181.0</ele><time>2026-04-25T07:17:44.104Z</time></trkpt><trkpt lat="45.5503692" lon="11.2748153"><ele>181.4</ele><time>2026-04-25T07:17:45.105Z</time></trkpt><trkpt lat="45.5504212" lon="11.2747049"><ele>181.8</ele><time>2026-04-25T07:17:46.103Z</time></trkpt><trkpt lat="45.5504782" lon="11.2745919"><ele>182.20000000000002</ele><time>2026-04-25T07:17:47.103Z</time></trkpt><trkpt lat="45.5505399" lon="11.2744697"><ele>182.60000000000002</ele><time>2026-04-25T07:17:48.105Z</time></trkpt><trkpt lat="45.5506006" lon="11.2743459"><ele>183.0</ele><time>2026-04-25T07:17:49.103Z</time></trkpt><trkpt lat="45.5506635" lon="11.2742196"><ele>183.0</ele><time>2026-04-25T07:17:50.103Z</time></trkpt><trkpt lat="45.5507241" lon="11.2740902"><ele>183.0</ele><time>2026-04-25T07:17:51.104Z</time></trkpt><trkpt lat="45.5507826" lon="11.2739513"><ele>183.0</ele><time>2026-04-25T07:17:52.104Z</time></trkpt><trkpt lat="45.5508365" lon="11.2738045"><ele>183.0</ele><time>2026-04-25T07:17:53.104Z</time></trkpt><trkpt lat="45.5508927" lon="11.2736576"><ele>183.0</ele><time>2026-04-25T07:17:54.103Z</time></trkpt><trkpt lat="45.5509492" lon="11.2735098"><ele>183.0</ele><time>2026-04-25T07:17:55.103Z</time></trkpt><trkpt lat="45.5510052" lon="11.2733596"><ele>183.0</ele><time>2026-04-25T07:17:56.103Z</time></trkpt><trkpt lat="45.551065" lon="11.2732081"><ele>183.0</ele><time>2026-04-25T07:17:57.104Z</time></trkpt><trkpt lat="45.5511318" lon="11.2730594"><ele>183.0</ele><time>2026-04-25T07:17:58.103Z</time></trkpt><trkpt lat="45.5512009" lon="11.2729287"><ele>183.0</ele><time>2026-04-25T07:17:59.103Z</time></trkpt><trkpt lat="45.5512722" lon="11.2728103"><ele>183.0</ele><time>2026-04-25T07:18:00.104Z</time></trkpt><trkpt lat="45.5513457" lon="11.2726919"><ele>183.0</ele><time>2026-04-25T07:18:01.103Z</time></trkpt><trkpt lat="45.5514231" lon="11.2725723"><ele>183.0</ele><time>2026-04-25T07:18:02.104Z</time></trkpt><trkpt lat="45.5515074" lon="11.2724531"><ele>183.0</ele><time>2026-04-25T07:18:03.103Z</time></trkpt><trkpt lat="45.5515968" lon="11.2723303"><ele>183.0</ele><time>2026-04-25T07:18:04.103Z</time></trkpt><trkpt lat="45.5516925" lon="11.2722075"><ele>183.0</ele><time>2026-04-25T07:18:05.103Z</time></trkpt><trkpt lat="45.5517923" lon="11.2720826"><ele>183.0</ele><time>2026-04-25T07:18:06.104Z</time></trkpt><trkpt lat="45.551895" lon="11.2719546"><ele>183.5</ele><time>2026-04-25T07:18:07.103Z</time></trkpt><trkpt lat="45.5520002" lon="11.2718245"><ele>184.0</ele><time>2026-04-25T07:18:08.103Z</time></trkpt><trkpt lat="45.5521029" lon="11.2716956"><ele>184.5</ele><time>2026-04-25T07:18:09.105Z</time></trkpt><trkpt lat="45.5522053" lon="11.27157"><ele>185.0</ele><time>2026-04-25T07:18:10.103Z</time></trkpt><trkpt lat="45.5523048" lon="11.2714556"><ele>184.8</ele><time>2026-04-25T07:18:11.103Z</time></trkpt><trkpt lat="45.5524013" lon="11.2713493"><ele>184.6</ele><time>2026-04-25T07:18:12.105Z</time></trkpt><trkpt lat="45.5524933" lon="11.2712499"><ele>184.39999999999998</ele><time>2026-04-25T07:18:13.103Z</time></trkpt><trkpt lat="45.5525849" lon="11.2711665"><ele>184.2</ele><time>2026-04-25T07:18:14.104Z</time></trkpt><trkpt lat="45.5526716" lon="11.2710944"><ele>184.0</ele><time>2026-04-25T07:18:15.103Z</time></trkpt><trkpt lat="45.5527595" lon="11.2710431"><ele>184.0</ele><time>2026-04-25T07:18:16.103Z</time></trkpt><trkpt lat="45.5528425" lon="11.2710059"><ele>184.0</ele><time>2026-04-25T07:18:17.105Z</time></trkpt><trkpt lat="45.5529163" lon="11.2709741"><ele>184.0</ele><time>2026-04-25T07:18:18.103Z</time></trkpt><trkpt lat="45.5529842" lon="11.2709333"><ele>184.0</ele><time>2026-04-25T07:18:19.103Z</time></trkpt><trkpt lat="45.5530475" lon="11.2708734"><ele>184.0</ele><time>2026-04-25T07:18:20.104Z</time></trkpt><trkpt lat="45.5531123" lon="11.2707988"><ele>184.0</ele><time>2026-04-25T07:18:21.103Z</time></trkpt><trkpt lat="45.5531832" lon="11.2707172"><ele>184.39999999999998</ele><time>2026-04-25T07:18:22.103Z</time></trkpt><trkpt lat="45.553265" lon="11.2706424"><ele>184.8</ele><time>2026-04-25T07:18:23.104Z</time></trkpt><trkpt lat="45.5533589" lon="11.2705894"><ele>185.2</ele><time>2026-04-25T07:18:24.103Z</time></trkpt><trkpt lat="45.5534594" lon="11.2705467"><ele>185.60000000000002</ele><time>2026-04-25T07:18:25.105Z</time></trkpt><trkpt lat="45.5535665" lon="11.2705072"><ele>186.0</ele><time>2026-04-25T07:18:26.105Z</time></trkpt><trkpt lat="45.5536751" lon="11.2704575"><ele>187.0</ele><time>2026-04-25T07:18:27.104Z</time></trkpt><trkpt lat="45.553784" lon="11.2704065"><ele>188.0</ele><time>2026-04-25T07:18:28.104Z</time></trkpt><trkpt lat="45.5538864" lon="11.2703575"><ele>189.0</ele><time>2026-04-25T07:18:29.103Z</time></trkpt><trkpt lat="45.553982" lon="11.270305"><ele>190.0</ele><time>2026-04-25T07:18:30.103Z</time></trkpt><trkpt lat="45.5540777" lon="11.2702509"><ele>191.0</ele><time>2026-04-25T07:18:31.104Z</time></trkpt><trkpt lat="45.5541751" lon="11.2701957"><ele>191.0</ele><time>2026-04-25T07:18:32.104Z</time></trkpt><trkpt lat="45.5542596" lon="11.2701337"><ele>191.0</ele><time>2026-04-25T07:18:33.103Z</time></trkpt><trkpt lat="45.5543198" lon="11.2700535"><ele>191.0</ele><time>2026-04-25T07:18:34.103Z</time></trkpt><trkpt lat="45.5543472" lon="11.2699574"><ele>191.0</ele><time>2026-04-25T07:18:35.104Z</time></trkpt><trkpt lat="45.5543435" lon="11.2698472"><ele>191.0</ele><time>2026-04-25T07:18:36.104Z</time></trkpt><trkpt lat="45.5543204" lon="11.2697235"><ele>191.0</ele><time>2026-04-25T07:18:37.105Z</time></trkpt><trkpt lat="45.5542937" lon="11.2695909"><ele>191.33333333333331</ele><time>2026-04-25T07:18:38.104Z</time></trkpt><trkpt lat="45.5542671" lon="11.2694549"><ele>191.66666666666666</ele><time>2026-04-25T07:18:39.104Z</time></trkpt><trkpt lat="45.5542386" lon="11.2693291"><ele>192.0</ele><time>2026-04-25T07:18:40.103Z</time></trkpt><trkpt lat="45.5542182" lon="11.2692208"><ele>192.33333333333331</ele><time>2026-04-25T07:18:41.105Z</time></trkpt><trkpt lat="45.5542155" lon="11.2691178"><ele>192.66666666666666</ele><time>2026-04-25T07:18:42.103Z</time></trkpt><trkpt lat="45.5542375" lon="11.269028"><ele>193.0</ele><time>2026-04-25T07:18:43.103Z</time></trkpt><trkpt lat="45.5542856" lon="11.2689507"><ele>194.0</ele><time>2026-04-25T07:18:44.103Z</time></trkpt><trkpt lat="45.5543552" lon="11.2689025"><ele>195.0</ele><time>2026-04-25T07:18:45.103Z</time></trkpt><trkpt lat="45.5544405" lon="11.2688635"><ele>196.0</ele><time>2026-04-25T07:18:46.104Z</time></trkpt><trkpt lat="45.5545304" lon="11.2688209"><ele>197.0</ele><time>2026-04-25T07:18:47.103Z</time></trkpt><trkpt lat="45.5546178" lon="11.2687525"><ele>198.0</ele><time>2026-04-25T07:18:48.103Z</time></trkpt><trkpt lat="45.5546913" lon="11.2686526"><ele>198.8</ele><time>2026-04-25T07:18:49.103Z</time></trkpt><trkpt lat="45.5547512" lon="11.2685347"><ele>199.60000000000002</ele><time>2026-04-25T07:18:50.103Z</time></trkpt><trkpt lat="45.5548163" lon="11.2684183"><ele>200.39999999999998</ele><time>2026-04-25T07:18:51.104Z</time></trkpt><trkpt lat="45.5548856" lon="11.2683034"><ele>201.2</ele><time>2026-04-25T07:18:52.103Z</time></trkpt><trkpt lat="45.5549499" lon="11.268186"><ele>202.0</ele><time>2026-04-25T07:18:53.103Z</time></trkpt><trkpt lat="45.5549973" lon="11.2680548"><ele>203.39999999999998</ele><time>2026-04-25T07:18:54.103Z</time></trkpt><trkpt lat="45.5550173" lon="11.2679083"><ele>204.79999999999998</ele><time>2026-04-25T07:18:55.105Z</time></trkpt><trkpt lat="45.5550161" lon="11.2677603"><ele>206.2</ele><time>2026-04-25T07:18:56.104Z</time></trkpt><trkpt lat="45.5550161" lon="11.2676136"><ele>207.6</ele><time>2026-04-25T07:18:57.104Z</time></trkpt><trkpt lat="45.5550284" lon="11.267463"><ele>209.0</ele><time>2026-04-25T07:18:58.105Z</time></trkpt><trkpt lat="45.5550638" lon="11.2673234"><ele>211.0</ele><time>2026-04-25T07:18:59.104Z</time></trkpt><trkpt lat="45.5551096" lon="11.2672004"><ele>213.0</ele><time>2026-04-25T07:19:00.103Z</time></trkpt><trkpt lat="45.5551462" lon="11.2670985"><ele>214.99999999999997</ele><time>2026-04-25T07:19:01.104Z</time></trkpt><trkpt lat="45.5551769" lon="11.267018"><ele>217.0</ele><time>2026-04-25T07:19:02.104Z</time></trkpt><trkpt lat="45.555173" lon="11.266884"><ele>219.0</ele><time>2026-04-25T07:19:04.103Z</time></trkpt><trkpt lat="45.5550828" lon="11.2667765"><ele>219.0</ele><time>2026-04-25T07:19:06.104Z</time></trkpt><trkpt lat="45.5550039" lon="11.2666847"><ele>218.99999999999997</ele><time>2026-04-25T07:19:08.103Z</time></trkpt><trkpt lat="45.5549953" lon="11.2665598"><ele>218.99999999999997</ele><time>2026-04-25T07:19:10.104Z</time></trkpt><trkpt lat="45.5550594" lon="11.2664203"><ele>219.0</ele><time>2026-04-25T07:19:12.104Z</time></trkpt><trkpt lat="45.5551115" lon="11.2663472"><ele>219.0</ele><time>2026-04-25T07:19:13.103Z</time></trkpt><trkpt lat="45.555165" lon="11.2662632"><ele>221.0</ele><time>2026-04-25T07:19:14.104Z</time></trkpt><trkpt lat="45.5552203" lon="11.2661631"><ele>222.99999999999997</ele><time>2026-04-25T07:19:15.104Z</time></trkpt><trkpt lat="45.5552769" lon="11.2660506"><ele>224.99999999999997</ele><time>2026-04-25T07:19:16.104Z</time></trkpt><trkpt lat="45.5553301" lon="11.2659289"><ele>227.0</ele><time>2026-04-25T07:19:17.104Z</time></trkpt><trkpt lat="45.5553798" lon="11.2657947"><ele>229.0</ele><time>2026-04-25T07:19:18.104Z</time></trkpt><trkpt lat="45.5554272" lon="11.2656534"><ele>232.75</ele><time>2026-04-25T07:19:19.104Z</time></trkpt><trkpt lat="45.5554745" lon="11.2655067"><ele>236.5</ele><time>2026-04-25T07:19:20.103Z</time></trkpt><trkpt lat="45.5555202" lon="11.2653579"><ele>240.25</ele><time>2026-04-25T07:19:21.103Z</time></trkpt><trkpt lat="45.5555669" lon="11.265211"><ele>244.0</ele><time>2026-04-25T07:19:22.104Z</time></trkpt><trkpt lat="45.5556266" lon="11.2650714"><ele>244.0</ele><time>2026-04-25T07:19:23.105Z</time></trkpt><trkpt lat="45.5557002" lon="11.2649486"><ele>243.99999999999997</ele><time>2026-04-25T07:19:24.104Z</time></trkpt><trkpt lat="45.5557859" lon="11.2648459"><ele>243.99999999999997</ele><time>2026-04-25T07:19:25.103Z</time></trkpt><trkpt lat="45.5558819" lon="11.2647668"><ele>244.0</ele><time>2026-04-25T07:19:26.103Z</time></trkpt><trkpt lat="45.5559865" lon="11.2647215"><ele>244.0</ele><time>2026-04-25T07:19:27.104Z</time></trkpt><trkpt lat="45.5560926" lon="11.2647067"><ele>248.0</ele><time>2026-04-25T07:19:28.104Z</time></trkpt><trkpt lat="45.5561964" lon="11.2647092"><ele>251.99999999999997</ele><time>2026-04-25T07:19:29.104Z</time></trkpt><trkpt lat="45.5563046" lon="11.2647218"><ele>255.99999999999997</ele><time>2026-04-25T07:19:30.103Z</time></trkpt><trkpt lat="45.5564116" lon="11.2647139"><ele>260.0</ele><time>2026-04-25T07:19:31.103Z</time></trkpt><trkpt lat="45.5565123" lon="11.2646788"><ele>264.0</ele><time>2026-04-25T07:19:32.104Z</time></trkpt><trkpt lat="45.5566069" lon="11.2646044"><ele>264.59999999999997</ele><time>2026-04-25T07:19:33.105Z</time></trkpt><trkpt lat="45.5566935" lon="11.2645031"><ele>265.2</ele><time>2026-04-25T07:19:34.105Z</time></trkpt><trkpt lat="45.5567733" lon="11.264396"><ele>265.79999999999995</ele><time>2026-04-25T07:19:35.104Z</time></trkpt><trkpt lat="45.5568474" lon="11.2642955"><ele>266.4</ele><time>2026-04-25T07:19:36.103Z</time></trkpt><trkpt lat="45.5569148" lon="11.2642049"><ele>267.0</ele><time>2026-04-25T07:19:37.103Z</time></trkpt><trkpt lat="45.5569699" lon="11.2641321"><ele>267.0</ele><time>2026-04-25T07:19:38.105Z</time></trkpt><trkpt lat="45.5570279" lon="11.2640493"><ele>267.0</ele><time>2026-04-25T07:19:39.104Z</time></trkpt><trkpt lat="45.5570839" lon="11.2639692"><ele>267.0</ele><time>2026-04-25T07:19:40.103Z</time></trkpt><trkpt lat="45.5571401" lon="11.2638855"><ele>267.0</ele><time>2026-04-25T07:19:41.103Z</time></trkpt><trkpt lat="45.5571953" lon="11.263805"><ele>267.0</ele><time>2026-04-25T07:19:42.104Z</time></trkpt><trkpt lat="45.5572513" lon="11.2637257"><ele>267.0</ele><time>2026-04-25T07:19:43.103Z</time></trkpt><trkpt lat="45.5573017" lon="11.2636399"><ele>268.0</ele><time>2026-04-25T07:19:44.105Z</time></trkpt><trkpt lat="45.5573447" lon="11.2635445"><ele>269.0</ele><time>2026-04-25T07:19:45.104Z</time></trkpt><trkpt lat="45.5573771" lon="11.2634418"><ele>270.0</ele><time>2026-04-25T07:19:46.103Z</time></trkpt><trkpt lat="45.5573985" lon="11.2633339"><ele>271.0</ele><time>2026-04-25T07:19:47.104Z</time></trkpt><trkpt lat="45.5574147" lon="11.2632255"><ele>272.0</ele><time>2026-04-25T07:19:48.104Z</time></trkpt><trkpt lat="45.5574265" lon="11.2631185"><ele>273.0</ele><time>2026-04-25T07:19:49.103Z</time></trkpt><trkpt lat="45.5574365" lon="11.2630099"><ele>275.2857142857143</ele><time>2026-04-25T07:19:50.105Z</time></trkpt><trkpt lat="45.5574461" lon="11.2629012"><ele>277.57142857142856</ele><time>2026-04-25T07:19:51.105Z</time></trkpt><trkpt lat="45.557452" lon="11.2627973"><ele>279.8571428571429</ele><time>2026-04-25T07:19:52.103Z</time></trkpt><trkpt lat="45.5574507" lon="11.2626967"><ele>282.1428571428571</ele><time>2026-04-25T07:19:53.103Z</time></trkpt><trkpt lat="45.5574348" lon="11.2626027"><ele>284.42857142857144</ele><time>2026-04-25T07:19:54.104Z</time></trkpt><trkpt lat="45.5574087" lon="11.2625107"><ele>286.7142857142857</ele><time>2026-04-25T07:19:55.103Z</time></trkpt><trkpt lat="45.5573751" lon="11.2624239"><ele>289.0</ele><time>2026-04-25T07:19:56.104Z</time></trkpt><trkpt lat="45.5573386" lon="11.2623414"><ele>291.42857142857144</ele><time>2026-04-25T07:19:57.105Z</time></trkpt><trkpt lat="45.5573106" lon="11.2622556"><ele>293.85714285714283</ele><time>2026-04-25T07:19:58.104Z</time></trkpt><trkpt lat="45.5573058" lon="11.2621615"><ele>296.2857142857143</ele><time>2026-04-25T07:19:59.103Z</time></trkpt><trkpt lat="45.5573257" lon="11.2620736"><ele>298.7142857142857</ele><time>2026-04-25T07:20:00.103Z</time></trkpt><trkpt lat="45.5573685" lon="11.2619986"><ele>301.14285714285717</ele><time>2026-04-25T07:20:01.103Z</time></trkpt><trkpt lat="45.5574083" lon="11.2619154"><ele>303.57142857142856</ele><time>2026-04-25T07:20:02.104Z</time></trkpt><trkpt lat="45.5574432" lon="11.2618237"><ele>306.0</ele><time>2026-04-25T07:20:03.104Z</time></trkpt><trkpt lat="45.5574713" lon="11.261728"><ele>306.0</ele><time>2026-04-25T07:20:04.103Z</time></trkpt><trkpt lat="45.5574966" lon="11.2616312"><ele>306.0</ele><time>2026-04-25T07:20:05.104Z</time></trkpt><trkpt lat="45.5575201" lon="11.2615349"><ele>306.0</ele><time>2026-04-25T07:20:06.104Z</time></trkpt><trkpt lat="45.557542" lon="11.2614399"><ele>306.0</ele><time>2026-04-25T07:20:07.103Z</time></trkpt><trkpt lat="45.557559" lon="11.2613413"><ele>306.0</ele><time>2026-04-25T07:20:08.104Z</time></trkpt><trkpt lat="45.5575712" lon="11.2612427"><ele>306.0</ele><time>2026-04-25T07:20:09.104Z</time></trkpt><trkpt lat="45.5575839" lon="11.2611425"><ele>306.0</ele><time>2026-04-25T07:20:10.104Z</time></trkpt><trkpt lat="45.5575889" lon="11.2610323"><ele>308.0</ele><time>2026-04-25T07:20:11.103Z</time></trkpt><trkpt lat="45.5575825" lon="11.2609227"><ele>310.0</ele><time>2026-04-25T07:20:12.103Z</time></trkpt><trkpt lat="45.5575645" lon="11.2608122"><ele>312.0</ele><time>2026-04-25T07:20:13.104Z</time></trkpt><trkpt lat="45.5575361" lon="11.2607041"><ele>314.0</ele><time>2026-04-25T07:20:14.103Z</time></trkpt><trkpt lat="45.5574985" lon="11.2605957"><ele>316.0</ele><time>2026-04-25T07:20:15.103Z</time></trkpt><trkpt lat="45.5574612" lon="11.2604822"><ele>318.0</ele><time>2026-04-25T07:20:16.104Z</time></trkpt><trkpt lat="45.5574264" lon="11.2603637"><ele>319.6</ele><time>2026-04-25T07:20:17.104Z</time></trkpt><trkpt lat="45.5573956" lon="11.2602394"><ele>321.20000000000005</ele><time>2026-04-25T07:20:18.103Z</time></trkpt><trkpt lat="45.5573674" lon="11.2601093"><ele>322.8</ele><time>2026-04-25T07:20:19.104Z</time></trkpt><trkpt lat="45.557344" lon="11.2599807"><ele>324.40000000000003</ele><time>2026-04-25T07:20:20.103Z</time></trkpt><trkpt lat="45.5573244" lon="11.2598569"><ele>326.0</ele><time>2026-04-25T07:20:21.103Z</time></trkpt><trkpt lat="45.5573045" lon="11.259743"><ele>328.42857142857144</ele><time>2026-04-25T07:20:22.103Z</time></trkpt><trkpt lat="45.5572827" lon="11.2596362"><ele>330.85714285714283</ele><time>2026-04-25T07:20:23.103Z</time></trkpt><trkpt lat="45.5572667" lon="11.2595284"><ele>333.2857142857143</ele><time>2026-04-25T07:20:24.103Z</time></trkpt><trkpt lat="45.5572602" lon="11.2594218"><ele>335.7142857142857</ele><time>2026-04-25T07:20:25.103Z</time></trkpt><trkpt lat="45.5572667" lon="11.2593197"><ele>338.1428571428571</ele><time>2026-04-25T07:20:26.103Z</time></trkpt><trkpt lat="45.557293" lon="11.2592295"><ele>340.57142857142856</ele><time>2026-04-25T07:20:27.103Z</time></trkpt><trkpt lat="45.5573362" lon="11.2591518"><ele>343.0</ele><time>2026-04-25T07:20:28.104Z</time></trkpt><trkpt lat="45.5573919" lon="11.2590899"><ele>343.0</ele><time>2026-04-25T07:20:29.103Z</time></trkpt><trkpt lat="45.5574508" lon="11.2590235"><ele>343.0</ele><time>2026-04-25T07:20:30.103Z</time></trkpt><trkpt lat="45.5574981" lon="11.2589393"><ele>343.0</ele><time>2026-04-25T07:20:31.103Z</time></trkpt><trkpt lat="45.5575319" lon="11.2588376"><ele>343.0</ele><time>2026-04-25T07:20:32.103Z</time></trkpt><trkpt lat="45.5575457" lon="11.2587289"><ele>343.0</ele><time>2026-04-25T07:20:33.104Z</time></trkpt><trkpt lat="45.557543" lon="11.2586242"><ele>343.0</ele><time>2026-04-25T07:20:34.104Z</time></trkpt><trkpt lat="45.5575247" lon="11.2585253"><ele>345.0</ele><time>2026-04-25T07:20:35.104Z</time></trkpt><trkpt lat="45.5574965" lon="11.2584349"><ele>347.0</ele><time>2026-04-25T07:20:36.104Z</time></trkpt><trkpt lat="45.5574662" lon="11.2583478"><ele>349.0</ele><time>2026-04-25T07:20:37.104Z</time></trkpt><trkpt lat="45.5574416" lon="11.2582597"><ele>351.0</ele><time>2026-04-25T07:20:38.103Z</time></trkpt><trkpt lat="45.557435" lon="11.2581657"><ele>353.0</ele><time>2026-04-25T07:20:39.104Z</time></trkpt><trkpt lat="45.5574828" lon="11.2580014"><ele>355.0</ele><time>2026-04-25T07:20:41.104Z</time></trkpt><trkpt lat="45.5575379" lon="11.2579304"><ele>355.8333333333333</ele><time>2026-04-25T07:20:42.105Z</time></trkpt><trkpt lat="45.5576004" lon="11.2578457"><ele>356.66666666666663</ele><time>2026-04-25T07:20:43.103Z</time></trkpt><trkpt lat="45.5576437" lon="11.2577392"><ele>357.5</ele><time>2026-04-25T07:20:44.103Z</time></trkpt><trkpt lat="45.5576794" lon="11.2576198"><ele>358.3333333333333</ele><time>2026-04-25T07:20:45.103Z</time></trkpt><trkpt lat="45.5577009" lon="11.2574974"><ele>359.1666666666667</ele><time>2026-04-25T07:20:46.104Z</time></trkpt><trkpt lat="45.5577277" lon="11.2573751"><ele>360.0</ele><time>2026-04-25T07:20:47.104Z</time></trkpt><trkpt lat="45.5577681" lon="11.2572597"><ele>361.6</ele><time>2026-04-25T07:20:48.104Z</time></trkpt><trkpt lat="45.5578194" lon="11.2571441"><ele>363.2</ele><time>2026-04-25T07:20:49.103Z</time></trkpt><trkpt lat="45.5578805" lon="11.2570309"><ele>364.79999999999995</ele><time>2026-04-25T07:20:50.104Z</time></trkpt><trkpt lat="45.5579451" lon="11.2569232"><ele>366.4</ele><time>2026-04-25T07:20:51.103Z</time></trkpt><trkpt lat="45.5580103" lon="11.2568161"><ele>368.0</ele><time>2026-04-25T07:20:52.104Z</time></trkpt><trkpt lat="45.558076" lon="11.2567108"><ele>369.0</ele><time>2026-04-25T07:20:53.103Z</time></trkpt><trkpt lat="45.5581336" lon="11.2565942"><ele>370.0</ele><time>2026-04-25T07:20:54.104Z</time></trkpt><trkpt lat="45.5581784" lon="11.2564633"><ele>371.0</ele><time>2026-04-25T07:20:55.104Z</time></trkpt><trkpt lat="45.5582122" lon="11.2563276"><ele>372.0</ele><time>2026-04-25T07:20:56.104Z</time></trkpt><trkpt lat="45.558228" lon="11.2561714"><ele>373.0</ele><time>2026-04-25T07:20:57.104Z</time></trkpt><trkpt lat="45.5582451" lon="11.2560086"><ele>373.8333333333333</ele><time>2026-04-25T07:20:58.104Z</time></trkpt><trkpt lat="45.558265" lon="11.2558765"><ele>374.66666666666663</ele><time>2026-04-25T07:20:59.103Z</time></trkpt><trkpt lat="45.5582821" lon="11.2557498"><ele>375.5</ele><time>2026-04-25T07:21:00.103Z</time></trkpt><trkpt lat="45.558297" lon="11.2556361"><ele>376.3333333333333</ele><time>2026-04-25T07:21:01.103Z</time></trkpt><trkpt lat="45.5583079" lon="11.255527"><ele>377.1666666666667</ele><time>2026-04-25T07:21:02.103Z</time></trkpt><trkpt lat="45.5583175" lon="11.2554124"><ele>378.0</ele><time>2026-04-25T07:21:03.104Z</time></trkpt><trkpt lat="45.5583262" lon="11.2552917"><ele>379.0</ele><time>2026-04-25T07:21:04.103Z</time></trkpt><trkpt lat="45.5583362" lon="11.2551719"><ele>380.0</ele><time>2026-04-25T07:21:05.103Z</time></trkpt><trkpt lat="45.5583484" lon="11.2550472"><ele>381.0</ele><time>2026-04-25T07:21:06.104Z</time></trkpt><trkpt lat="45.5583612" lon="11.2549213"><ele>382.0</ele><time>2026-04-25T07:21:07.104Z</time></trkpt><trkpt lat="45.5583747" lon="11.2547977"><ele>383.0</ele><time>2026-04-25T07:21:08.104Z</time></trkpt><trkpt lat="45.5583857" lon="11.2546808"><ele>384.0</ele><time>2026-04-25T07:21:09.104Z</time></trkpt><trkpt lat="45.5583962" lon="11.2545673"><ele>385.1666666666667</ele><time>2026-04-25T07:21:10.103Z</time></trkpt><trkpt lat="45.5584101" lon="11.2544567"><ele>386.33333333333337</ele><time>2026-04-25T07:21:11.103Z</time></trkpt><trkpt lat="45.5584335" lon="11.2543471"><ele>387.5</ele><time>2026-04-25T07:21:12.103Z</time></trkpt><trkpt lat="45.5584699" lon="11.254241"><ele>388.6666666666667</ele><time>2026-04-25T07:21:13.103Z</time></trkpt><trkpt lat="45.5585161" lon="11.254144"><ele>389.83333333333337</ele><time>2026-04-25T07:21:14.104Z</time></trkpt><trkpt lat="45.558565" lon="11.2540541"><ele>391.0</ele><time>2026-04-25T07:21:15.103Z</time></trkpt><trkpt lat="45.5586182" lon="11.2539671"><ele>391.83333333333337</ele><time>2026-04-25T07:21:16.104Z</time></trkpt><trkpt lat="45.5586664" lon="11.2538691"><ele>392.6666666666667</ele><time>2026-04-25T07:21:17.103Z</time></trkpt><trkpt lat="45.5587073" lon="11.2537618"><ele>393.5</ele><time>2026-04-25T07:21:18.104Z</time></trkpt><trkpt lat="45.5587479" lon="11.2536467"><ele>394.33333333333337</ele><time>2026-04-25T07:21:19.104Z</time></trkpt><trkpt lat="45.5587873" lon="11.253526"><ele>395.1666666666667</ele><time>2026-04-25T07:21:20.105Z</time></trkpt><trkpt lat="45.5588262" lon="11.2534089"><ele>396.0</ele><time>2026-04-25T07:21:21.105Z</time></trkpt><trkpt lat="45.5588641" lon="11.2532887"><ele>396.0</ele><time>2026-04-25T07:21:22.104Z</time></trkpt><trkpt lat="45.5589014" lon="11.2531667"><ele>396.0</ele><time>2026-04-25T07:21:23.105Z</time></trkpt><trkpt lat="45.558937" lon="11.2530469"><ele>396.0</ele><time>2026-04-25T07:21:24.103Z</time></trkpt><trkpt lat="45.5589719" lon="11.2529262"><ele>396.0</ele><time>2026-04-25T07:21:25.103Z</time></trkpt><trkpt lat="45.559007" lon="11.2528093"><ele>396.0</ele><time>2026-04-25T07:21:26.105Z</time></trkpt><trkpt lat="45.5590458" lon="11.2526984"><ele>398.5</ele><time>2026-04-25T07:21:27.104Z</time></trkpt><trkpt lat="45.5590899" lon="11.2525955"><ele>401.0</ele><time>2026-04-25T07:21:28.103Z</time></trkpt><trkpt lat="45.559135" lon="11.2524997"><ele>403.5</ele><time>2026-04-25T07:21:29.103Z</time></trkpt><trkpt lat="45.5591773" lon="11.2524119"><ele>406.0</ele><time>2026-04-25T07:21:30.104Z</time></trkpt><trkpt lat="45.5592092" lon="11.2523018"><ele>408.5</ele><time>2026-04-25T07:21:32.104Z</time></trkpt><trkpt lat="45.5591752" lon="11.2522096"><ele>411.0</ele><time>2026-04-25T07:21:34.103Z</time></trkpt><trkpt lat="45.5590896" lon="11.2522116"><ele>414.6</ele><time>2026-04-25T07:21:36.103Z</time></trkpt><trkpt lat="45.5589953" lon="11.2522591"><ele>418.20000000000005</ele><time>2026-04-25T07:21:38.103Z</time></trkpt><trkpt lat="45.5589116" lon="11.2522272"><ele>421.79999999999995</ele><time>2026-04-25T07:21:40.103Z</time></trkpt><trkpt lat="45.5588852" lon="11.2521266"><ele>425.4</ele><time>2026-04-25T07:21:42.104Z</time></trkpt><trkpt lat="45.5589162" lon="11.2520127"><ele>429.0</ele><time>2026-04-25T07:21:44.104Z</time></trkpt><trkpt lat="45.558995" lon="11.2518885"><ele>429.0</ele><time>2026-04-25T07:21:46.103Z</time></trkpt><trkpt lat="45.5590294" lon="11.251813"><ele>429.0</ele><time>2026-04-25T07:21:47.104Z</time></trkpt><trkpt lat="45.5590577" lon="11.2517321"><ele>429.0</ele><time>2026-04-25T07:21:48.104Z</time></trkpt><trkpt lat="45.5590833" lon="11.2516451"><ele>429.0</ele><time>2026-04-25T07:21:49.104Z</time></trkpt><trkpt lat="45.5591068" lon="11.251559"><ele>429.0</ele><time>2026-04-25T07:21:50.104Z</time></trkpt><trkpt lat="45.5590984" lon="11.251405"><ele>429.0</ele><time>2026-04-25T07:21:52.103Z</time></trkpt><trkpt lat="45.5590165" lon="11.2513502"><ele>429.0</ele><time>2026-04-25T07:21:54.105Z</time></trkpt><trkpt lat="45.5589007" lon="11.2514142"><ele>429.0</ele><time>2026-04-25T07:21:56.105Z</time></trkpt><trkpt lat="45.5588361" lon="11.2514646"><ele>429.0</ele><time>2026-04-25T07:21:57.104Z</time></trkpt><trkpt lat="45.5587652" lon="11.2515144"><ele>429.0</ele><time>2026-04-25T07:21:58.103Z</time></trkpt><trkpt lat="45.5586921" lon="11.2515582"><ele>429.0</ele><time>2026-04-25T07:21:59.104Z</time></trkpt><trkpt lat="45.5586193" lon="11.2515985"><ele>429.0</ele><time>2026-04-25T07:22:00.103Z</time></trkpt><trkpt lat="45.5585451" lon="11.2516298"><ele>431.0</ele><time>2026-04-25T07:22:01.103Z</time></trkpt><trkpt lat="45.558469" lon="11.251656"><ele>433.0</ele><time>2026-04-25T07:22:02.103Z</time></trkpt><trkpt lat="45.5583938" lon="11.2516741"><ele>435.0</ele><time>2026-04-25T07:22:03.103Z</time></trkpt><trkpt lat="45.5583205" lon="11.2516833"><ele>437.0</ele><time>2026-04-25T07:22:04.103Z</time></trkpt><trkpt lat="45.5582532" lon="11.2516767"><ele>439.0</ele><time>2026-04-25T07:22:05.104Z</time></trkpt><trkpt lat="45.5581418" lon="11.2515882"><ele>441.0</ele><time>2026-04-25T07:22:07.105Z</time></trkpt><trkpt lat="45.5581017" lon="11.251508"><ele>443.0</ele><time>2026-04-25T07:22:08.103Z</time></trkpt><trkpt lat="45.558068" lon="11.2514148"><ele>445.0</ele><time>2026-04-25T07:22:09.103Z</time></trkpt><trkpt lat="45.5580393" lon="11.2513143"><ele>447.0</ele><time>2026-04-25T07:22:10.104Z</time></trkpt><trkpt lat="45.5580099" lon="11.2512097"><ele>449.0</ele><time>2026-04-25T07:22:11.103Z</time></trkpt><trkpt lat="45.5579847" lon="11.2511062"><ele>451.0</ele><time>2026-04-25T07:22:12.103Z</time></trkpt><trkpt lat="45.557954" lon="11.2509569"><ele>453.0</ele><time>2026-04-25T07:22:14.104Z</time></trkpt><trkpt lat="45.558014" lon="11.2508571"><ele>453.0</ele><time>2026-04-25T07:22:17.103Z</time></trkpt><trkpt lat="45.5580904" lon="11.2508187"><ele>452.99999999999994</ele><time>2026-04-25T07:22:19.104Z</time></trkpt><trkpt lat="45.5581827" lon="11.2507682"><ele>452.99999999999994</ele><time>2026-04-25T07:22:21.103Z</time></trkpt><trkpt lat="45.558284" lon="11.250701"><ele>453.0</ele><time>2026-04-25T07:22:23.105Z</time></trkpt><trkpt lat="45.5583774" lon="11.250635"><ele>453.0</ele><time>2026-04-25T07:22:25.104Z</time></trkpt><trkpt lat="45.5584585" lon="11.2505628"><ele>454.6666666666667</ele><time>2026-04-25T07:22:27.104Z</time></trkpt><trkpt lat="45.5585138" lon="11.2504585"><ele>456.33333333333337</ele><time>2026-04-25T07:22:29.104Z</time></trkpt><trkpt lat="45.5585301" lon="11.2503178"><ele>458.0</ele><time>2026-04-25T07:22:31.103Z</time></trkpt><trkpt lat="45.5585069" lon="11.2501516"><ele>459.6666666666667</ele><time>2026-04-25T07:22:33.104Z</time></trkpt><trkpt lat="45.5584912" lon="11.2500642"><ele>461.33333333333337</ele><time>2026-04-25T07:22:34.105Z</time></trkpt><trkpt lat="45.5584742" lon="11.2499768"><ele>463.0</ele><time>2026-04-25T07:22:35.103Z</time></trkpt><trkpt lat="45.5584628" lon="11.2498859"><ele>465.4</ele><time>2026-04-25T07:22:36.103Z</time></trkpt><trkpt lat="45.5584475" lon="11.2497277"><ele>467.79999999999995</ele><time>2026-04-25T07:22:38.103Z</time></trkpt><trkpt lat="45.5584793" lon="11.2496003"><ele>470.2</ele><time>2026-04-25T07:22:40.105Z</time></trkpt><trkpt lat="45.5585732" lon="11.2495373"><ele>472.6</ele><time>2026-04-25T07:22:42.104Z</time></trkpt><trkpt lat="45.5586965" lon="11.249513"><ele>475.0</ele><time>2026-04-25T07:22:44.103Z</time></trkpt><trkpt lat="45.5587618" lon="11.2495023"><ele>475.0</ele><time>2026-04-25T07:22:45.103Z</time></trkpt><trkpt lat="45.5588314" lon="11.2494872"><ele>475.00000000000006</ele><time>2026-04-25T07:22:46.103Z</time></trkpt><trkpt lat="45.5588986" lon="11.2494737"><ele>475.0</ele><time>2026-04-25T07:22:47.103Z</time></trkpt><trkpt lat="45.5589671" lon="11.249467"><ele>475.0</ele><time>2026-04-25T07:22:48.104Z</time></trkpt><trkpt lat="45.5590318" lon="11.2494609"><ele>475.00000000000006</ele><time>2026-04-25T07:22:49.104Z</time></trkpt><trkpt lat="45.5590966" lon="11.2494299"><ele>475.0</ele><time>2026-04-25T07:22:50.105Z</time></trkpt><trkpt lat="45.5591533" lon="11.2493781"><ele>475.0</ele><time>2026-04-25T07:22:51.103Z</time></trkpt><trkpt lat="45.5592084" lon="11.2493172"><ele>475.0</ele><time>2026-04-25T07:22:52.103Z</time></trkpt><trkpt lat="45.5592631" lon="11.2492566"><ele>475.00000000000006</ele><time>2026-04-25T07:22:53.103Z</time></trkpt><trkpt lat="45.5593161" lon="11.2491969"><ele>475.0</ele><time>2026-04-25T07:22:54.104Z</time></trkpt><trkpt lat="45.5593679" lon="11.2491356"><ele>475.0</ele><time>2026-04-25T07:22:55.103Z</time></trkpt><trkpt lat="45.5594203" lon="11.2490693"><ele>475.00000000000006</ele><time>2026-04-25T07:22:56.103Z</time></trkpt><trkpt lat="45.5594699" lon="11.2490028"><ele>475.0</ele><time>2026-04-25T07:22:57.103Z</time></trkpt><trkpt lat="45.5595215" lon="11.2489405"><ele>475.0</ele><time>2026-04-25T07:22:58.104Z</time></trkpt><trkpt lat="45.5595788" lon="11.2488961"><ele>476.42857142857144</ele><time>2026-04-25T07:22:59.103Z</time></trkpt><trkpt lat="45.5596403" lon="11.2488649"><ele>477.8571428571429</ele><time>2026-04-25T07:23:00.104Z</time></trkpt><trkpt lat="45.559707" lon="11.2488503"><ele>479.28571428571433</ele><time>2026-04-25T07:23:01.103Z</time></trkpt><trkpt lat="45.5597795" lon="11.2488423"><ele>480.7142857142858</ele><time>2026-04-25T07:23:02.104Z</time></trkpt><trkpt lat="45.5598553" lon="11.2488288"><ele>482.14285714285717</ele><time>2026-04-25T07:23:03.103Z</time></trkpt><trkpt lat="45.5599344" lon="11.2488145"><ele>483.57142857142867</ele><time>2026-04-25T07:23:04.104Z</time></trkpt><trkpt lat="45.5600111" lon="11.2487982"><ele>485.00000000000006</ele><time>2026-04-25T07:23:05.104Z</time></trkpt><trkpt lat="45.5600914" lon="11.2487792"><ele>484.99999999999994</ele><time>2026-04-25T07:23:06.103Z</time></trkpt><trkpt lat="45.5601678" lon="11.2487468"><ele>485.0</ele><time>2026-04-25T07:23:07.104Z</time></trkpt><trkpt lat="45.5602403" lon="11.2487058"><ele>485.0</ele><time>2026-04-25T07:23:08.103Z</time></trkpt><trkpt lat="45.5603111" lon="11.2486686"><ele>485.0</ele><time>2026-04-25T07:23:09.105Z</time></trkpt><trkpt lat="45.5603804" lon="11.2486321"><ele>484.99999999999994</ele><time>2026-04-25T07:23:10.104Z</time></trkpt><trkpt lat="45.5604481" lon="11.2485882"><ele>485.0</ele><time>2026-04-25T07:23:11.104Z</time></trkpt><trkpt lat="45.5605155" lon="11.2485334"><ele>484.99999999999994</ele><time>2026-04-25T07:23:12.103Z</time></trkpt><trkpt lat="45.560578" lon="11.24847"><ele>485.0</ele><time>2026-04-25T07:23:13.104Z</time></trkpt><trkpt lat="45.5606365" lon="11.2483937"><ele>485.0</ele><time>2026-04-25T07:23:14.103Z</time></trkpt><trkpt lat="45.5606921" lon="11.248312"><ele>485.0</ele><time>2026-04-25T07:23:15.103Z</time></trkpt><trkpt lat="45.5607444" lon="11.2482297"><ele>484.99999999999994</ele><time>2026-04-25T07:23:16.104Z</time></trkpt><trkpt lat="45.5607992" lon="11.2481436"><ele>485.0</ele><time>2026-04-25T07:23:17.103Z</time></trkpt><trkpt lat="45.560848" lon="11.248052"><ele>487.3333333333333</ele><time>2026-04-25T07:23:18.103Z</time></trkpt><trkpt lat="45.560894" lon="11.2479504"><ele>489.66666666666663</ele><time>2026-04-25T07:23:19.104Z</time></trkpt><trkpt lat="45.560934" lon="11.2478403"><ele>492.0</ele><time>2026-04-25T07:23:20.103Z</time></trkpt><trkpt lat="45.5609718" lon="11.24773"><ele>494.33333333333337</ele><time>2026-04-25T07:23:21.104Z</time></trkpt><trkpt lat="45.5610076" lon="11.247624"><ele>496.6666666666667</ele><time>2026-04-25T07:23:22.103Z</time></trkpt><trkpt lat="45.5610428" lon="11.2475263"><ele>499.0</ele><time>2026-04-25T07:23:23.103Z</time></trkpt><trkpt lat="45.5610761" lon="11.2474348"><ele>499.00000000000006</ele><time>2026-04-25T07:23:24.104Z</time></trkpt><trkpt lat="45.5611034" lon="11.2473458"><ele>499.0</ele><time>2026-04-25T07:23:25.103Z</time></trkpt><trkpt lat="45.5611352" lon="11.2472135"><ele>499.0</ele><time>2026-04-25T07:23:27.104Z</time></trkpt><trkpt lat="45.5611112" lon="11.2472997"><ele>499.0</ele><time>2026-04-25T07:24:29.103Z</time></trkpt><trkpt lat="45.5610874" lon="11.2473993"><ele>499.00000000000006</ele><time>2026-04-25T07:24:33.104Z</time></trkpt><trkpt lat="45.5610517" lon="11.2474822"><ele>499.0</ele><time>2026-04-25T07:24:39.103Z</time></trkpt><trkpt lat="45.5610101" lon="11.2475883"><ele>499.0</ele><time>2026-04-25T07:24:45.104Z</time></trkpt><trkpt lat="45.5609759" lon="11.2477013"><ele>499.0</ele><time>2026-04-25T07:24:47.104Z</time></trkpt><trkpt lat="45.5609279" lon="11.2478533"><ele>499.0</ele><time>2026-04-25T07:24:49.103Z</time></trkpt><trkpt lat="45.5608634" lon="11.248008"><ele>499.0</ele><time>2026-04-25T07:24:51.104Z</time></trkpt><trkpt lat="45.560828" lon="11.2480827"><ele>499.0</ele><time>2026-04-25T07:24:52.104Z</time></trkpt><trkpt lat="45.5607876" lon="11.2481578"><ele>496.6666666666667</ele><time>2026-04-25T07:24:53.103Z</time></trkpt><trkpt lat="45.5607464" lon="11.2482263"><ele>494.33333333333337</ele><time>2026-04-25T07:24:54.103Z</time></trkpt><trkpt lat="45.5606692" lon="11.2483524"><ele>492.0</ele><time>2026-04-25T07:24:56.103Z</time></trkpt><trkpt lat="45.5605756" lon="11.2484797"><ele>489.66666666666663</ele><time>2026-04-25T07:24:58.103Z</time></trkpt><trkpt lat="45.560519" lon="11.2485361"><ele>487.3333333333333</ele><time>2026-04-25T07:24:59.103Z</time></trkpt><trkpt lat="45.5604596" lon="11.2485867"><ele>485.0</ele><time>2026-04-25T07:25:00.104Z</time></trkpt><trkpt lat="45.5603953" lon="11.2486292"><ele>485.00000000000006</ele><time>2026-04-25T07:25:01.104Z</time></trkpt><trkpt lat="45.5603307" lon="11.248666"><ele>485.0</ele><time>2026-04-25T07:25:02.104Z</time></trkpt><trkpt lat="45.5602641" lon="11.2486974"><ele>485.00000000000006</ele><time>2026-04-25T07:25:03.103Z</time></trkpt><trkpt lat="45.5601995" lon="11.2487344"><ele>485.00000000000006</ele><time>2026-04-25T07:25:04.103Z</time></trkpt><trkpt lat="45.5601348" lon="11.2487681"><ele>485.0</ele><time>2026-04-25T07:25:05.103Z</time></trkpt><trkpt lat="45.5600677" lon="11.2487891"><ele>485.00000000000006</ele><time>2026-04-25T07:25:06.104Z</time></trkpt><trkpt lat="45.5599998" lon="11.248803"><ele>485.00000000000006</ele><time>2026-04-25T07:25:07.104Z</time></trkpt><trkpt lat="45.5599318" lon="11.2488131"><ele>484.99999999999994</ele><time>2026-04-25T07:25:08.104Z</time></trkpt><trkpt lat="45.5598588" lon="11.2488269"><ele>485.0</ele><time>2026-04-25T07:25:09.103Z</time></trkpt><trkpt lat="45.5597852" lon="11.2488381"><ele>485.0</ele><time>2026-04-25T07:25:10.104Z</time></trkpt><trkpt lat="45.5597179" lon="11.2488451"><ele>485.0</ele><time>2026-04-25T07:25:11.104Z</time></trkpt><trkpt lat="45.5596549" lon="11.248851"><ele>484.99999999999994</ele><time>2026-04-25T07:25:12.103Z</time></trkpt><trkpt lat="45.5595411" lon="11.2489162"><ele>485.0</ele><time>2026-04-25T07:25:14.103Z</time></trkpt><trkpt lat="45.5594498" lon="11.249041"><ele>483.3333333333333</ele><time>2026-04-25T07:25:16.105Z</time></trkpt><trkpt lat="45.5593567" lon="11.249154"><ele>481.66666666666663</ele><time>2026-04-25T07:25:18.104Z</time></trkpt><trkpt lat="45.5593016" lon="11.2492063"><ele>480.0</ele><time>2026-04-25T07:25:19.103Z</time></trkpt><trkpt lat="45.5592458" lon="11.2492634"><ele>478.33333333333337</ele><time>2026-04-25T07:25:20.105Z</time></trkpt><trkpt lat="45.5591919" lon="11.2493274"><ele>476.6666666666667</ele><time>2026-04-25T07:25:21.103Z</time></trkpt><trkpt lat="45.5590981" lon="11.2494297"><ele>475.0</ele><time>2026-04-25T07:25:23.104Z</time></trkpt><trkpt lat="45.5589793" lon="11.2494655"><ele>475.00000000000006</ele><time>2026-04-25T07:25:25.103Z</time></trkpt><trkpt lat="45.5589125" lon="11.2494703"><ele>475.0</ele><time>2026-04-25T07:25:26.104Z</time></trkpt><trkpt lat="45.5588402" lon="11.2494765"><ele>475.0</ele><time>2026-04-25T07:25:27.103Z</time></trkpt><trkpt lat="45.558772" lon="11.2494924"><ele>475.0</ele><time>2026-04-25T07:25:28.104Z</time></trkpt><trkpt lat="45.5587059" lon="11.2495086"><ele>475.00000000000006</ele><time>2026-04-25T07:25:29.103Z</time></trkpt><trkpt lat="45.5585864" lon="11.2495307"><ele>475.0</ele><time>2026-04-25T07:25:31.104Z</time></trkpt><trkpt lat="45.5584941" lon="11.2495832"><ele>475.33333333333337</ele><time>2026-04-25T07:25:33.104Z</time></trkpt><trkpt lat="45.5584605" lon="11.2497292"><ele>475.6666666666667</ele><time>2026-04-25T07:25:35.104Z</time></trkpt><trkpt lat="45.5584653" lon="11.2498228"><ele>476.0</ele><time>2026-04-25T07:25:36.103Z</time></trkpt><trkpt lat="45.5584788" lon="11.2499304"><ele>476.33333333333337</ele><time>2026-04-25T07:25:37.103Z</time></trkpt><trkpt lat="45.5584952" lon="11.2500453"><ele>476.6666666666667</ele><time>2026-04-25T07:25:38.104Z</time></trkpt><trkpt lat="45.5585136" lon="11.2501562"><ele>477.0</ele><time>2026-04-25T07:25:39.104Z</time></trkpt><trkpt lat="45.5585328" lon="11.2502576"><ele>474.6666666666667</ele><time>2026-04-25T07:25:40.104Z</time></trkpt><trkpt lat="45.5585361" lon="11.2503613"><ele>472.33333333333337</ele><time>2026-04-25T07:25:41.103Z</time></trkpt><trkpt lat="45.5585163" lon="11.2504545"><ele>470.0</ele><time>2026-04-25T07:25:42.104Z</time></trkpt><trkpt lat="45.5584813" lon="11.2505322"><ele>467.6666666666667</ele><time>2026-04-25T07:25:43.104Z</time></trkpt><trkpt lat="45.5584314" lon="11.2505915"><ele>465.33333333333337</ele><time>2026-04-25T07:25:44.103Z</time></trkpt><trkpt lat="45.5583163" lon="11.2506787"><ele>463.0</ele><time>2026-04-25T07:25:46.103Z</time></trkpt><trkpt lat="45.5582546" lon="11.2507185"><ele>461.33333333333337</ele><time>2026-04-25T07:25:47.105Z</time></trkpt><trkpt lat="45.5581911" lon="11.2507609"><ele>459.6666666666667</ele><time>2026-04-25T07:25:48.104Z</time></trkpt><trkpt lat="45.5581285" lon="11.250796"><ele>458.0</ele><time>2026-04-25T07:25:49.103Z</time></trkpt><trkpt lat="45.5580219" lon="11.2508418"><ele>456.33333333333337</ele><time>2026-04-25T07:25:51.104Z</time></trkpt><trkpt lat="45.5579547" lon="11.2509239"><ele>454.6666666666667</ele><time>2026-04-25T07:25:53.103Z</time></trkpt><trkpt lat="45.55797" lon="11.2510646"><ele>453.0</ele><time>2026-04-25T07:25:55.103Z</time></trkpt><trkpt lat="45.5579908" lon="11.2511572"><ele>452.99999999999994</ele><time>2026-04-25T07:25:56.103Z</time></trkpt><trkpt lat="45.5580164" lon="11.251254"><ele>453.0</ele><time>2026-04-25T07:25:57.103Z</time></trkpt><trkpt lat="45.558044" lon="11.2513553"><ele>452.99999999999994</ele><time>2026-04-25T07:25:58.103Z</time></trkpt><trkpt lat="45.5580665" lon="11.2514493"><ele>452.99999999999994</ele><time>2026-04-25T07:25:59.104Z</time></trkpt><trkpt lat="45.5580931" lon="11.2515375"><ele>453.0</ele><time>2026-04-25T07:26:00.103Z</time></trkpt><trkpt lat="45.5581386" lon="11.2516073"><ele>452.99999999999994</ele><time>2026-04-25T07:26:01.103Z</time></trkpt><trkpt lat="45.5581963" lon="11.2516585"><ele>452.99999999999994</ele><time>2026-04-25T07:26:02.104Z</time></trkpt><trkpt lat="45.5582682" lon="11.2516883"><ele>451.0</ele><time>2026-04-25T07:26:03.103Z</time></trkpt><trkpt lat="45.5583495" lon="11.2516899"><ele>449.0</ele><time>2026-04-25T07:26:04.104Z</time></trkpt><trkpt lat="45.558437" lon="11.2516754"><ele>447.0</ele><time>2026-04-25T07:26:05.103Z</time></trkpt><trkpt lat="45.5585278" lon="11.2516474"><ele>445.0</ele><time>2026-04-25T07:26:06.104Z</time></trkpt><trkpt lat="45.5586174" lon="11.2516127"><ele>443.0</ele><time>2026-04-25T07:26:07.104Z</time></trkpt><trkpt lat="45.5587049" lon="11.2515677"><ele>441.0</ele><time>2026-04-25T07:26:08.104Z</time></trkpt><trkpt lat="45.5587838" lon="11.2515132"><ele>441.8333333333333</ele><time>2026-04-25T07:26:09.103Z</time></trkpt><trkpt lat="45.5588524" lon="11.2514616"><ele>442.66666666666663</ele><time>2026-04-25T07:26:10.104Z</time></trkpt><trkpt lat="45.558911" lon="11.2514128"><ele>443.5</ele><time>2026-04-25T07:26:11.103Z</time></trkpt><trkpt lat="45.5590022" lon="11.2513619"><ele>444.3333333333333</ele><time>2026-04-25T07:26:13.103Z</time></trkpt><trkpt lat="45.5590746" lon="11.2513898"><ele>445.16666666666663</ele><time>2026-04-25T07:26:15.104Z</time></trkpt><trkpt lat="45.5591021" lon="11.2515071"><ele>446.0</ele><time>2026-04-25T07:26:17.104Z</time></trkpt><trkpt lat="45.5590692" lon="11.2516632"><ele>443.16666666666663</ele><time>2026-04-25T07:26:19.104Z</time></trkpt><trkpt lat="45.5590402" lon="11.251749"><ele>440.3333333333333</ele><time>2026-04-25T07:26:20.104Z</time></trkpt><trkpt lat="45.5590064" lon="11.2518344"><ele>437.5</ele><time>2026-04-25T07:26:21.104Z</time></trkpt><trkpt lat="45.5589714" lon="11.2519107"><ele>434.66666666666663</ele><time>2026-04-25T07:26:22.103Z</time></trkpt><trkpt lat="45.5589017" lon="11.2520245"><ele>431.8333333333333</ele><time>2026-04-25T07:26:24.105Z</time></trkpt><trkpt lat="45.5588675" lon="11.2521277"><ele>429.0</ele><time>2026-04-25T07:26:26.103Z</time></trkpt><trkpt lat="45.5588985" lon="11.2522285"><ele>429.0</ele><time>2026-04-25T07:26:28.104Z</time></trkpt><trkpt lat="45.5589813" lon="11.2522711"><ele>429.0</ele><time>2026-04-25T07:26:30.103Z</time></trkpt><trkpt lat="45.559063" lon="11.2522303"><ele>429.0</ele><time>2026-04-25T07:26:32.103Z</time></trkpt><trkpt lat="45.559138" lon="11.2522012"><ele>429.0</ele><time>2026-04-25T07:26:34.104Z</time></trkpt><trkpt lat="45.5591861" lon="11.2522607"><ele>429.0</ele><time>2026-04-25T07:26:36.103Z</time></trkpt><trkpt lat="45.5591793" lon="11.2523747"><ele>429.0</ele><time>2026-04-25T07:26:38.103Z</time></trkpt><trkpt lat="45.5591132" lon="11.2525039"><ele>426.0</ele><time>2026-04-25T07:26:40.104Z</time></trkpt><trkpt lat="45.5590707" lon="11.2525958"><ele>423.0</ele><time>2026-04-25T07:26:41.103Z</time></trkpt><trkpt lat="45.5590333" lon="11.2527102"><ele>420.0</ele><time>2026-04-25T07:26:42.103Z</time></trkpt><trkpt lat="45.5589993" lon="11.2528256"><ele>417.0</ele><time>2026-04-25T07:26:43.104Z</time></trkpt><trkpt lat="45.5589623" lon="11.2529436"><ele>414.0</ele><time>2026-04-25T07:26:44.103Z</time></trkpt><trkpt lat="45.5589264" lon="11.2530667"><ele>411.0</ele><time>2026-04-25T07:26:45.104Z</time></trkpt><trkpt lat="45.5588922" lon="11.2531858"><ele>409.1666666666667</ele><time>2026-04-25T07:26:46.104Z</time></trkpt><trkpt lat="45.5588559" lon="11.2533013"><ele>407.33333333333337</ele><time>2026-04-25T07:26:47.103Z</time></trkpt><trkpt lat="45.5588203" lon="11.2534144"><ele>405.5</ele><time>2026-04-25T07:26:48.104Z</time></trkpt><trkpt lat="45.5587834" lon="11.2535287"><ele>403.6666666666667</ele><time>2026-04-25T07:26:49.103Z</time></trkpt><trkpt lat="45.5587444" lon="11.2536395"><ele>401.83333333333337</ele><time>2026-04-25T07:26:50.103Z</time></trkpt><trkpt lat="45.5587051" lon="11.2537479"><ele>400.0</ele><time>2026-04-25T07:26:51.104Z</time></trkpt><trkpt lat="45.5586615" lon="11.2538537"><ele>400.00000000000006</ele><time>2026-04-25T07:26:52.104Z</time></trkpt><trkpt lat="45.5586112" lon="11.2539473"><ele>400.0</ele><time>2026-04-25T07:26:53.103Z</time></trkpt><trkpt lat="45.5585599" lon="11.2540375"><ele>400.0</ele><time>2026-04-25T07:26:54.104Z</time></trkpt><trkpt lat="45.5585104" lon="11.2541255"><ele>400.0</ele><time>2026-04-25T07:26:55.103Z</time></trkpt><trkpt lat="45.5584656" lon="11.2542189"><ele>400.00000000000006</ele><time>2026-04-25T07:26:56.103Z</time></trkpt><trkpt lat="45.5584301" lon="11.2543194"><ele>400.0</ele><time>2026-04-25T07:26:57.103Z</time></trkpt><trkpt lat="45.5584054" lon="11.2544352"><ele>398.2</ele><time>2026-04-25T07:26:58.103Z</time></trkpt><trkpt lat="45.5583878" lon="11.2545623"><ele>396.4</ele><time>2026-04-25T07:26:59.105Z</time></trkpt><trkpt lat="45.5583774" lon="11.2546972"><ele>394.6</ele><time>2026-04-25T07:27:00.104Z</time></trkpt><trkpt lat="45.5583671" lon="11.2548353"><ele>392.8</ele><time>2026-04-25T07:27:01.103Z</time></trkpt><trkpt lat="45.5583552" lon="11.2549779"><ele>391.0</ele><time>2026-04-25T07:27:02.103Z</time></trkpt><trkpt lat="45.5583401" lon="11.2551189"><ele>389.83333333333337</ele><time>2026-04-25T07:27:03.103Z</time></trkpt><trkpt lat="45.5583257" lon="11.2552486"><ele>388.6666666666667</ele><time>2026-04-25T07:27:04.103Z</time></trkpt><trkpt lat="45.5583155" lon="11.2553673"><ele>387.5</ele><time>2026-04-25T07:27:05.104Z</time></trkpt><trkpt lat="45.5583072" lon="11.2554713"><ele>386.33333333333337</ele><time>2026-04-25T07:27:06.105Z</time></trkpt><trkpt lat="45.5583021" lon="11.2556055"><ele>385.1666666666667</ele><time>2026-04-25T07:27:08.104Z</time></trkpt><trkpt lat="45.5583158" lon="11.2557158"><ele>384.0</ele><time>2026-04-25T07:27:11.103Z</time></trkpt><trkpt lat="45.5583873" lon="11.2557425"><ele>384.0</ele><time>2026-04-25T07:27:14.103Z</time></trkpt><trkpt lat="45.5584491" lon="11.2556728"><ele>384.0</ele><time>2026-04-25T07:27:16.104Z</time></trkpt><trkpt lat="45.5585134" lon="11.2556015"><ele>384.0</ele><time>2026-04-25T07:27:18.104Z</time></trkpt><trkpt lat="45.5585876" lon="11.2555454"><ele>384.0</ele><time>2026-04-25T07:27:20.104Z</time></trkpt><trkpt lat="45.558678" lon="11.2554875"><ele>384.0</ele><time>2026-04-25T07:27:22.104Z</time></trkpt><trkpt lat="45.5587885" lon="11.2554184"><ele>384.0</ele><time>2026-04-25T07:27:24.104Z</time></trkpt><trkpt lat="45.5588489" lon="11.2553778"><ele>384.0</ele><time>2026-04-25T07:27:25.104Z</time></trkpt><trkpt lat="45.5589602" lon="11.2553068"><ele>384.0</ele><time>2026-04-25T07:27:27.103Z</time></trkpt><trkpt lat="45.5590213" lon="11.2552688"><ele>384.0</ele><time>2026-04-25T07:27:28.104Z</time></trkpt><trkpt lat="45.5590837" lon="11.2552345"><ele>384.0</ele><time>2026-04-25T07:27:29.103Z</time></trkpt><trkpt lat="45.5591517" lon="11.2551925"><ele>384.0</ele><time>2026-04-25T07:27:30.104Z</time></trkpt><trkpt lat="45.5592239" lon="11.2551506"><ele>384.0</ele><time>2026-04-25T07:27:31.104Z</time></trkpt><trkpt lat="45.5592996" lon="11.2551048"><ele>384.0</ele><time>2026-04-25T07:27:32.103Z</time></trkpt><trkpt lat="45.5593831" lon="11.2550541"><ele>384.0</ele><time>2026-04-25T07:27:33.103Z</time></trkpt><trkpt lat="45.5594727" lon="11.2549991"><ele>384.0</ele><time>2026-04-25T07:27:34.104Z</time></trkpt><trkpt lat="45.5595666" lon="11.254941"><ele>384.0</ele><time>2026-04-25T07:27:35.104Z</time></trkpt><trkpt lat="45.5596629" lon="11.2548772"><ele>383.79999999999995</ele><time>2026-04-25T07:27:36.103Z</time></trkpt><trkpt lat="45.5597588" lon="11.2548126"><ele>383.59999999999997</ele><time>2026-04-25T07:27:37.103Z</time></trkpt><trkpt lat="45.5598518" lon="11.2547467"><ele>383.4</ele><time>2026-04-25T07:27:38.104Z</time></trkpt><trkpt lat="45.5599417" lon="11.2546864"><ele>383.2</ele><time>2026-04-25T07:27:39.104Z</time></trkpt><trkpt lat="45.5600306" lon="11.2546228"><ele>383.0</ele><time>2026-04-25T07:27:40.103Z</time></trkpt><trkpt lat="45.5601231" lon="11.2545605"><ele>384.0</ele><time>2026-04-25T07:27:41.103Z</time></trkpt><trkpt lat="45.5602125" lon="11.2545101"><ele>385.0</ele><time>2026-04-25T07:27:42.103Z</time></trkpt><trkpt lat="45.5603012" lon="11.2544767"><ele>386.0</ele><time>2026-04-25T07:27:43.103Z</time></trkpt><trkpt lat="45.5603918" lon="11.254455"><ele>387.0</ele><time>2026-04-25T07:27:44.103Z</time></trkpt><trkpt lat="45.5604792" lon="11.2544244"><ele>388.0</ele><time>2026-04-25T07:27:45.103Z</time></trkpt><trkpt lat="45.5605696" lon="11.2543775"><ele>388.33333333333337</ele><time>2026-04-25T07:27:46.103Z</time></trkpt><trkpt lat="45.5606564" lon="11.2543389"><ele>388.6666666666667</ele><time>2026-04-25T07:27:47.103Z</time></trkpt><trkpt lat="45.5607367" lon="11.2543033"><ele>389.0</ele><time>2026-04-25T07:27:48.103Z</time></trkpt><trkpt lat="45.5608071" lon="11.2542607"><ele>389.33333333333337</ele><time>2026-04-25T07:27:49.103Z</time></trkpt><trkpt lat="45.5608717" lon="11.2541883"><ele>389.6666666666667</ele><time>2026-04-25T07:27:50.104Z</time></trkpt><trkpt lat="45.56091" lon="11.2540877"><ele>390.0</ele><time>2026-04-25T07:27:51.104Z</time></trkpt><trkpt lat="45.5609293" lon="11.2539716"><ele>389.8333333333333</ele><time>2026-04-25T07:27:52.103Z</time></trkpt><trkpt lat="45.5609382" lon="11.2538493"><ele>389.66666666666663</ele><time>2026-04-25T07:27:53.103Z</time></trkpt><trkpt lat="45.5609505" lon="11.2537272"><ele>389.5</ele><time>2026-04-25T07:27:54.103Z</time></trkpt><trkpt lat="45.5609668" lon="11.2536064"><ele>389.3333333333333</ele><time>2026-04-25T07:27:55.103Z</time></trkpt><trkpt lat="45.5609933" lon="11.2534852"><ele>389.16666666666663</ele><time>2026-04-25T07:27:56.104Z</time></trkpt><trkpt lat="45.5610363" lon="11.2533668"><ele>389.0</ele><time>2026-04-25T07:27:57.103Z</time></trkpt><trkpt lat="45.5610907" lon="11.25325"><ele>389.0</ele><time>2026-04-25T07:27:58.103Z</time></trkpt><trkpt lat="45.5611507" lon="11.2531349"><ele>389.0</ele><time>2026-04-25T07:27:59.104Z</time></trkpt><trkpt lat="45.5612143" lon="11.2530193"><ele>389.0</ele><time>2026-04-25T07:28:00.103Z</time></trkpt><trkpt lat="45.5612828" lon="11.2529108"><ele>389.0</ele><time>2026-04-25T07:28:01.104Z</time></trkpt><trkpt lat="45.5613585" lon="11.2528263"><ele>389.0</ele><time>2026-04-25T07:28:02.104Z</time></trkpt><trkpt lat="45.5614358" lon="11.2527474"><ele>390.0</ele><time>2026-04-25T07:28:03.103Z</time></trkpt><trkpt lat="45.5615208" lon="11.2526798"><ele>391.0</ele><time>2026-04-25T07:28:04.105Z</time></trkpt><trkpt lat="45.5616181" lon="11.2526294"><ele>392.0</ele><time>2026-04-25T07:28:05.105Z</time></trkpt><trkpt lat="45.5617208" lon="11.2525886"><ele>393.0</ele><time>2026-04-25T07:28:06.104Z</time></trkpt><trkpt lat="45.561829" lon="11.2525477"><ele>394.0</ele><time>2026-04-25T07:28:07.103Z</time></trkpt><trkpt lat="45.5619401" lon="11.2524895"><ele>392.75</ele><time>2026-04-25T07:28:08.104Z</time></trkpt><trkpt lat="45.5620518" lon="11.2524019"><ele>391.5</ele><time>2026-04-25T07:28:09.103Z</time></trkpt><trkpt lat="45.562167" lon="11.252292"><ele>390.25</ele><time>2026-04-25T07:28:10.104Z</time></trkpt><trkpt lat="45.5622891" lon="11.2521622"><ele>389.0</ele><time>2026-04-25T07:28:11.105Z</time></trkpt><trkpt lat="45.5624106" lon="11.2520215"><ele>393.3333333333333</ele><time>2026-04-25T07:28:12.103Z</time></trkpt><trkpt lat="45.5625299" lon="11.2518721"><ele>397.66666666666663</ele><time>2026-04-25T07:28:13.103Z</time></trkpt><trkpt lat="45.5626434" lon="11.2517147"><ele>402.0</ele><time>2026-04-25T07:28:14.105Z</time></trkpt><trkpt lat="45.5627507" lon="11.2515614"><ele>404.25</ele><time>2026-04-25T07:28:15.103Z</time></trkpt><trkpt lat="45.5628579" lon="11.2514132"><ele>406.5</ele><time>2026-04-25T07:28:16.104Z</time></trkpt><trkpt lat="45.5629727" lon="11.251284"><ele>408.75</ele><time>2026-04-25T07:28:17.103Z</time></trkpt><trkpt lat="45.5630946" lon="11.2511702"><ele>411.0</ele><time>2026-04-25T07:28:18.103Z</time></trkpt><trkpt lat="45.5632217" lon="11.2510739"><ele>411.0</ele><time>2026-04-25T07:28:19.104Z</time></trkpt><trkpt lat="45.5633463" lon="11.2509926"><ele>411.0</ele><time>2026-04-25T07:28:20.104Z</time></trkpt><trkpt lat="45.5634657" lon="11.250914"><ele>411.0</ele><time>2026-04-25T07:28:21.104Z</time></trkpt><trkpt lat="45.563584" lon="11.2508238"><ele>411.0</ele><time>2026-04-25T07:28:22.104Z</time></trkpt><trkpt lat="45.5637" lon="11.250726"><ele>413.75</ele><time>2026-04-25T07:28:23.104Z</time></trkpt><trkpt lat="45.5638135" lon="11.2506281"><ele>416.5</ele><time>2026-04-25T07:28:24.104Z</time></trkpt><trkpt lat="45.5639278" lon="11.25053"><ele>419.25</ele><time>2026-04-25T07:28:25.103Z</time></trkpt><trkpt lat="45.5640422" lon="11.2504346"><ele>422.0</ele><time>2026-04-25T07:28:26.103Z</time></trkpt><trkpt lat="45.5641617" lon="11.2503514"><ele>422.0</ele><time>2026-04-25T07:28:27.103Z</time></trkpt><trkpt lat="45.5642871" lon="11.2502835"><ele>422.0</ele><time>2026-04-25T07:28:28.104Z</time></trkpt><trkpt lat="45.5644186" lon="11.2502251"><ele>422.0</ele><time>2026-04-25T07:28:29.104Z</time></trkpt><trkpt lat="45.56455" lon="11.250168"><ele>422.0</ele><time>2026-04-25T07:28:30.103Z</time></trkpt><trkpt lat="45.5646755" lon="11.2501107"><ele>420.75</ele><time>2026-04-25T07:28:31.103Z</time></trkpt><trkpt lat="45.5647988" lon="11.2500566"><ele>419.5</ele><time>2026-04-25T07:28:32.104Z</time></trkpt><trkpt lat="45.5649257" lon="11.250001"><ele>418.25</ele><time>2026-04-25T07:28:33.104Z</time></trkpt><trkpt lat="45.5650478" lon="11.2499477"><ele>417.0</ele><time>2026-04-25T07:28:34.104Z</time></trkpt><trkpt lat="45.5651684" lon="11.249899"><ele>417.0</ele><time>2026-04-25T07:28:35.103Z</time></trkpt><trkpt lat="45.5652884" lon="11.249848"><ele>417.0</ele><time>2026-04-25T07:28:36.104Z</time></trkpt><trkpt lat="45.5654087" lon="11.2497982"><ele>417.0</ele><time>2026-04-25T07:28:37.105Z</time></trkpt><trkpt lat="45.5655388" lon="11.2497534"><ele>417.0</ele><time>2026-04-25T07:28:38.104Z</time></trkpt><trkpt lat="45.5656729" lon="11.2497217"><ele>419.0</ele><time>2026-04-25T07:28:39.104Z</time></trkpt><trkpt lat="45.565811" lon="11.2496975"><ele>421.0</ele><time>2026-04-25T07:28:40.103Z</time></trkpt><trkpt lat="45.5659521" lon="11.2496827"><ele>423.0</ele><time>2026-04-25T07:28:41.105Z</time></trkpt><trkpt lat="45.5660847" lon="11.2496666"><ele>425.0</ele><time>2026-04-25T07:28:42.104Z</time></trkpt><trkpt lat="45.5662119" lon="11.2496391"><ele>425.0</ele><time>2026-04-25T07:28:43.104Z</time></trkpt><trkpt lat="45.566332" lon="11.2496084"><ele>425.0</ele><time>2026-04-25T07:28:44.103Z</time></trkpt><trkpt lat="45.5664362" lon="11.2495653"><ele>425.0</ele><time>2026-04-25T07:28:45.103Z</time></trkpt><trkpt lat="45.566527" lon="11.2494889"><ele>425.0</ele><time>2026-04-25T07:28:46.104Z</time></trkpt><trkpt lat="45.5666121" lon="11.2494117"><ele>425.0</ele><time>2026-04-25T07:28:47.104Z</time></trkpt><trkpt lat="45.5666998" lon="11.2493422"><ele>425.0</ele><time>2026-04-25T07:28:48.104Z</time></trkpt><trkpt lat="45.5667911" lon="11.2493237"><ele>425.0</ele><time>2026-04-25T07:28:49.104Z</time></trkpt><trkpt lat="45.5668866" lon="11.2493431"><ele>425.0</ele><time>2026-04-25T07:28:50.103Z</time></trkpt><trkpt lat="45.5669787" lon="11.2493995"><ele>425.0</ele><time>2026-04-25T07:28:51.103Z</time></trkpt><trkpt lat="45.5670682" lon="11.2494799"><ele>425.0</ele><time>2026-04-25T07:28:52.103Z</time></trkpt><trkpt lat="45.567153" lon="11.2495619"><ele>425.0</ele><time>2026-04-25T07:28:53.104Z</time></trkpt><trkpt lat="45.5672474" lon="11.249625"><ele>425.0</ele><time>2026-04-25T07:28:54.103Z</time></trkpt><trkpt lat="45.5673499" lon="11.2496754"><ele>425.0</ele><time>2026-04-25T07:28:55.103Z</time></trkpt><trkpt lat="45.5674592" lon="11.2497147"><ele>425.0</ele><time>2026-04-25T07:28:56.103Z</time></trkpt><trkpt lat="45.5675713" lon="11.2497503"><ele>425.0</ele><time>2026-04-25T07:28:57.104Z</time></trkpt><trkpt lat="45.5676833" lon="11.249789"><ele>425.4</ele><time>2026-04-25T07:28:58.104Z</time></trkpt><trkpt lat="45.5677912" lon="11.2498341"><ele>425.8</ele><time>2026-04-25T07:28:59.104Z</time></trkpt><trkpt lat="45.5678925" lon="11.2498838"><ele>426.20000000000005</ele><time>2026-04-25T07:29:00.104Z</time></trkpt><trkpt lat="45.567986" lon="11.2499312"><ele>426.6</ele><time>2026-04-25T07:29:01.103Z</time></trkpt><trkpt lat="45.5680707" lon="11.2499818"><ele>427.0</ele><time>2026-04-25T07:29:02.103Z</time></trkpt><trkpt lat="45.5681508" lon="11.2500406"><ele>427.00000000000006</ele><time>2026-04-25T07:29:03.103Z</time></trkpt><trkpt lat="45.5682149" lon="11.2501102"><ele>427.0</ele><time>2026-04-25T07:29:04.104Z</time></trkpt><trkpt lat="45.5682672" lon="11.2501941"><ele>427.0</ele><time>2026-04-25T07:29:05.104Z</time></trkpt><trkpt lat="45.5683048" lon="11.2502941"><ele>427.0</ele><time>2026-04-25T07:29:06.103Z</time></trkpt><trkpt lat="45.5683222" lon="11.2504049"><ele>427.00000000000006</ele><time>2026-04-25T07:29:07.103Z</time></trkpt><trkpt lat="45.5683217" lon="11.2505165"><ele>427.0</ele><time>2026-04-25T07:29:08.103Z</time></trkpt><trkpt lat="45.5682952" lon="11.2506646"><ele>427.20000000000005</ele><time>2026-04-25T07:29:10.103Z</time></trkpt><trkpt lat="45.5682809" lon="11.2507671"><ele>427.40000000000003</ele><time>2026-04-25T07:29:12.104Z</time></trkpt><trkpt lat="45.568257" lon="11.2509127"><ele>427.59999999999997</ele><time>2026-04-25T07:29:14.103Z</time></trkpt><trkpt lat="45.5682221" lon="11.2510794"><ele>427.79999999999995</ele><time>2026-04-25T07:29:16.103Z</time></trkpt><trkpt lat="45.5682683" lon="11.2512403"><ele>428.0</ele><time>2026-04-25T07:29:18.104Z</time></trkpt><trkpt lat="45.5683215" lon="11.2513083"><ele>427.99999999999994</ele><time>2026-04-25T07:29:19.103Z</time></trkpt><trkpt lat="45.5683845" lon="11.2513735"><ele>428.0</ele><time>2026-04-25T07:29:20.103Z</time></trkpt><trkpt lat="45.5684512" lon="11.251437"><ele>428.0</ele><time>2026-04-25T07:29:21.104Z</time></trkpt><trkpt lat="45.5685178" lon="11.2514958"><ele>428.0</ele><time>2026-04-25T07:29:22.103Z</time></trkpt><trkpt lat="45.5685832" lon="11.2515502"><ele>427.99999999999994</ele><time>2026-04-25T07:29:23.103Z</time></trkpt><trkpt lat="45.5686505" lon="11.2515924"><ele>428.0</ele><time>2026-04-25T07:29:24.103Z</time></trkpt><trkpt lat="45.5687207" lon="11.2516114"><ele>429.49999999999994</ele><time>2026-04-25T07:29:25.103Z</time></trkpt><trkpt lat="45.5687898" lon="11.2515985"><ele>431.0</ele><time>2026-04-25T07:29:26.104Z</time></trkpt><trkpt lat="45.5688579" lon="11.251552"><ele>432.5</ele><time>2026-04-25T07:29:27.103Z</time></trkpt><trkpt lat="45.5689243" lon="11.2514883"><ele>434.0</ele><time>2026-04-25T07:29:28.103Z</time></trkpt><trkpt lat="45.5689953" lon="11.2514168"><ele>435.49999999999994</ele><time>2026-04-25T07:29:29.103Z</time></trkpt><trkpt lat="45.5690682" lon="11.2513454"><ele>437.0</ele><time>2026-04-25T07:29:30.104Z</time></trkpt><trkpt lat="45.5691445" lon="11.2512715"><ele>437.20000000000005</ele><time>2026-04-25T07:29:31.104Z</time></trkpt><trkpt lat="45.569224" lon="11.2511939"><ele>437.40000000000003</ele><time>2026-04-25T07:29:32.105Z</time></trkpt><trkpt lat="45.5693074" lon="11.2511131"><ele>437.59999999999997</ele><time>2026-04-25T07:29:33.103Z</time></trkpt><trkpt lat="45.5693951" lon="11.2510322"><ele>437.79999999999995</ele><time>2026-04-25T07:29:34.104Z</time></trkpt><trkpt lat="45.569489" lon="11.2509555"><ele>438.0</ele><time>2026-04-25T07:29:35.103Z</time></trkpt><trkpt lat="45.5695898" lon="11.2508941"><ele>439.5</ele><time>2026-04-25T07:29:36.103Z</time></trkpt><trkpt lat="45.5696966" lon="11.2508548"><ele>441.0</ele><time>2026-04-25T07:29:37.104Z</time></trkpt><trkpt lat="45.569808" lon="11.2508221"><ele>442.5</ele><time>2026-04-25T07:29:38.103Z</time></trkpt><trkpt lat="45.5699191" lon="11.2507927"><ele>444.0</ele><time>2026-04-25T07:29:39.104Z</time></trkpt><trkpt lat="45.5700304" lon="11.2507577"><ele>444.0</ele><time>2026-04-25T07:29:40.104Z</time></trkpt><trkpt lat="45.5701429" lon="11.2507207"><ele>444.0</ele><time>2026-04-25T07:29:41.104Z</time></trkpt><trkpt lat="45.5702515" lon="11.2506775"><ele>444.0</ele><time>2026-04-25T07:29:42.103Z</time></trkpt><trkpt lat="45.5703513" lon="11.2506164"><ele>444.0</ele><time>2026-04-25T07:29:43.103Z</time></trkpt><trkpt lat="45.5704471" lon="11.2505353"><ele>444.0</ele><time>2026-04-25T07:29:44.103Z</time></trkpt><trkpt lat="45.5705349" lon="11.2504369"><ele>446.25</ele><time>2026-04-25T07:29:45.104Z</time></trkpt><trkpt lat="45.570624" lon="11.25033"><ele>448.5</ele><time>2026-04-25T07:29:46.103Z</time></trkpt><trkpt lat="45.5707134" lon="11.2502197"><ele>450.75</ele><time>2026-04-25T07:29:47.105Z</time></trkpt><trkpt lat="45.5708024" lon="11.2501048"><ele>453.0</ele><time>2026-04-25T07:29:48.104Z</time></trkpt><trkpt lat="45.5708905" lon="11.2499879"><ele>453.0</ele><time>2026-04-25T07:29:49.103Z</time></trkpt><trkpt lat="45.5709783" lon="11.2498711"><ele>453.0</ele><time>2026-04-25T07:29:50.103Z</time></trkpt><trkpt lat="45.571066" lon="11.2497545"><ele>453.0</ele><time>2026-04-25T07:29:51.105Z</time></trkpt><trkpt lat="45.5711545" lon="11.2496391"><ele>453.0</ele><time>2026-04-25T07:29:52.105Z</time></trkpt><trkpt lat="45.5712408" lon="11.2495253"><ele>455.0</ele><time>2026-04-25T07:29:53.103Z</time></trkpt><trkpt lat="45.5713296" lon="11.2494173"><ele>457.0</ele><time>2026-04-25T07:29:54.105Z</time></trkpt><trkpt lat="45.5714235" lon="11.2493175"><ele>459.0</ele><time>2026-04-25T07:29:55.103Z</time></trkpt><trkpt lat="45.571521" lon="11.2492341"><ele>461.0</ele><time>2026-04-25T07:29:56.103Z</time></trkpt><trkpt lat="45.5716174" lon="11.2491639"><ele>460.99999999999994</ele><time>2026-04-25T07:29:57.104Z</time></trkpt><trkpt lat="45.5717131" lon="11.2491133"><ele>461.0</ele><time>2026-04-25T07:29:58.103Z</time></trkpt><trkpt lat="45.5718024" lon="11.2490731"><ele>461.0</ele><time>2026-04-25T07:29:59.103Z</time></trkpt><trkpt lat="45.571875" lon="11.2490391"><ele>461.0</ele><time>2026-04-25T07:30:00.104Z</time></trkpt><trkpt lat="45.5719325" lon="11.2489849"><ele>460.99999999999994</ele><time>2026-04-25T07:30:01.103Z</time></trkpt><trkpt lat="45.5719709" lon="11.2489023"><ele>461.0</ele><time>2026-04-25T07:30:02.103Z</time></trkpt><trkpt lat="45.5719788" lon="11.2488017"><ele>462.20000000000005</ele><time>2026-04-25T07:30:03.104Z</time></trkpt><trkpt lat="45.5719539" lon="11.2486985"><ele>463.40000000000003</ele><time>2026-04-25T07:30:04.103Z</time></trkpt><trkpt lat="45.5719056" lon="11.2485949"><ele>464.6</ele><time>2026-04-25T07:30:05.103Z</time></trkpt><trkpt lat="45.5718424" lon="11.2484972"><ele>465.8</ele><time>2026-04-25T07:30:06.103Z</time></trkpt><trkpt lat="45.5717744" lon="11.2483931"><ele>467.0</ele><time>2026-04-25T07:30:07.103Z</time></trkpt><trkpt lat="45.57171" lon="11.2482904"><ele>467.0</ele><time>2026-04-25T07:30:08.103Z</time></trkpt><trkpt lat="45.5716628" lon="11.2481765"><ele>467.00000000000006</ele><time>2026-04-25T07:30:09.104Z</time></trkpt><trkpt lat="45.5716447" lon="11.2480459"><ele>467.00000000000006</ele><time>2026-04-25T07:30:10.104Z</time></trkpt><trkpt lat="45.5716527" lon="11.2479009"><ele>467.0</ele><time>2026-04-25T07:30:11.104Z</time></trkpt><trkpt lat="45.5716945" lon="11.2477654"><ele>467.0</ele><time>2026-04-25T07:30:12.103Z</time></trkpt><trkpt lat="45.5717668" lon="11.2476455"><ele>468.75</ele><time>2026-04-25T07:30:13.104Z</time></trkpt><trkpt lat="45.571861" lon="11.2475341"><ele>470.5</ele><time>2026-04-25T07:30:14.104Z</time></trkpt><trkpt lat="45.5719686" lon="11.2474331"><ele>472.25</ele><time>2026-04-25T07:30:15.103Z</time></trkpt><trkpt lat="45.5720811" lon="11.2473316"><ele>474.0</ele><time>2026-04-25T07:30:16.105Z</time></trkpt><trkpt lat="45.5721971" lon="11.2472301"><ele>476.5</ele><time>2026-04-25T07:30:17.104Z</time></trkpt><trkpt lat="45.5723159" lon="11.2471289"><ele>479.0</ele><time>2026-04-25T07:30:18.103Z</time></trkpt><trkpt lat="45.572426" lon="11.2470181"><ele>481.5</ele><time>2026-04-25T07:30:19.105Z</time></trkpt><trkpt lat="45.5725247" lon="11.2469016"><ele>484.0</ele><time>2026-04-25T07:30:20.104Z</time></trkpt><trkpt lat="45.5726181" lon="11.2467836"><ele>484.0</ele><time>2026-04-25T07:30:21.104Z</time></trkpt><trkpt lat="45.5727111" lon="11.2466702"><ele>484.0</ele><time>2026-04-25T07:30:22.104Z</time></trkpt><trkpt lat="45.5728" lon="11.2465617"><ele>484.0</ele><time>2026-04-25T07:30:23.103Z</time></trkpt><trkpt lat="45.5728879" lon="11.2464572"><ele>484.0</ele><time>2026-04-25T07:30:24.104Z</time></trkpt><trkpt lat="45.5729751" lon="11.2463533"><ele>487.0</ele><time>2026-04-25T07:30:25.103Z</time></trkpt><trkpt lat="45.5730521" lon="11.2462344"><ele>490.0</ele><time>2026-04-25T07:30:26.104Z</time></trkpt><trkpt lat="45.5731174" lon="11.2461045"><ele>493.0</ele><time>2026-04-25T07:30:27.103Z</time></trkpt><trkpt lat="45.573179" lon="11.2459664"><ele>496.0</ele><time>2026-04-25T07:30:28.104Z</time></trkpt><trkpt lat="45.5732408" lon="11.2458286"><ele>496.0</ele><time>2026-04-25T07:30:29.103Z</time></trkpt><trkpt lat="45.5732923" lon="11.2457135"><ele>496.0</ele><time>2026-04-25T07:30:30.104Z</time></trkpt><trkpt lat="45.5733279" lon="11.2456234"><ele>496.0</ele><time>2026-04-25T07:30:31.104Z</time></trkpt><trkpt lat="45.5734161" lon="11.2455061"><ele>496.0</ele><time>2026-04-25T07:30:33.103Z</time></trkpt><trkpt lat="45.5735391" lon="11.2455292"><ele>496.0</ele><time>2026-04-25T07:30:35.103Z</time></trkpt><trkpt lat="45.5735927" lon="11.2455936"><ele>496.00000000000006</ele><time>2026-04-25T07:30:36.104Z</time></trkpt><trkpt lat="45.5736354" lon="11.2456836"><ele>496.0</ele><time>2026-04-25T07:30:37.105Z</time></trkpt><trkpt lat="45.5736637" lon="11.2457887"><ele>496.0</ele><time>2026-04-25T07:30:38.103Z</time></trkpt><trkpt lat="45.5736838" lon="11.245894"><ele>496.0</ele><time>2026-04-25T07:30:39.104Z</time></trkpt><trkpt lat="45.5737085" lon="11.2459919"><ele>496.00000000000006</ele><time>2026-04-25T07:30:40.104Z</time></trkpt><trkpt lat="45.5737492" lon="11.246079"><ele>496.0</ele><time>2026-04-25T07:30:41.103Z</time></trkpt><trkpt lat="45.5738042" lon="11.246153"><ele>498.00000000000006</ele><time>2026-04-25T07:30:42.104Z</time></trkpt><trkpt lat="45.5738726" lon="11.2462001"><ele>500.0</ele><time>2026-04-25T07:30:43.103Z</time></trkpt><trkpt lat="45.5739437" lon="11.2462226"><ele>502.0</ele><time>2026-04-25T07:30:44.104Z</time></trkpt><trkpt lat="45.5740125" lon="11.246235"><ele>504.0</ele><time>2026-04-25T07:30:45.104Z</time></trkpt><trkpt lat="45.5741206" lon="11.2461915"><ele>506.00000000000006</ele><time>2026-04-25T07:30:47.103Z</time></trkpt><trkpt lat="45.5741438" lon="11.2460469"><ele>508.0</ele><time>2026-04-25T07:30:49.104Z</time></trkpt><trkpt lat="45.5741242" lon="11.2459596"><ele>508.00000000000006</ele><time>2026-04-25T07:30:50.104Z</time></trkpt><trkpt lat="45.5740944" lon="11.2458647"><ele>508.0</ele><time>2026-04-25T07:30:51.103Z</time></trkpt><trkpt lat="45.5740605" lon="11.245758"><ele>508.0</ele><time>2026-04-25T07:30:52.103Z</time></trkpt><trkpt lat="45.574024" lon="11.2456413"><ele>508.0</ele><time>2026-04-25T07:30:53.104Z</time></trkpt><trkpt lat="45.573984" lon="11.2455186"><ele>508.00000000000006</ele><time>2026-04-25T07:30:54.103Z</time></trkpt><trkpt lat="45.573944" lon="11.2453862"><ele>508.0</ele><time>2026-04-25T07:30:55.103Z</time></trkpt><trkpt lat="45.5739035" lon="11.245255"><ele>509.2</ele><time>2026-04-25T07:30:56.104Z</time></trkpt><trkpt lat="45.5738644" lon="11.2451216"><ele>510.4</ele><time>2026-04-25T07:30:57.104Z</time></trkpt><trkpt lat="45.5738293" lon="11.2449871"><ele>511.59999999999997</ele><time>2026-04-25T07:30:58.104Z</time></trkpt><trkpt lat="45.5737959" lon="11.2448555"><ele>512.8</ele><time>2026-04-25T07:30:59.104Z</time></trkpt><trkpt lat="45.5737638" lon="11.2447289"><ele>514.0</ele><time>2026-04-25T07:31:00.103Z</time></trkpt><trkpt lat="45.5737349" lon="11.2446048"><ele>516.0</ele><time>2026-04-25T07:31:01.103Z</time></trkpt><trkpt lat="45.5737081" lon="11.2444788"><ele>518.0</ele><time>2026-04-25T07:31:02.103Z</time></trkpt><trkpt lat="45.573683" lon="11.2443483"><ele>520.0</ele><time>2026-04-25T07:31:03.105Z</time></trkpt><trkpt lat="45.57365" lon="11.2442211"><ele>522.0</ele><time>2026-04-25T07:31:04.104Z</time></trkpt><trkpt lat="45.5736062" lon="11.2441008"><ele>524.0</ele><time>2026-04-25T07:31:05.104Z</time></trkpt><trkpt lat="45.5735637" lon="11.2439842"><ele>524.0</ele><time>2026-04-25T07:31:06.104Z</time></trkpt><trkpt lat="45.5735323" lon="11.2438859"><ele>524.0</ele><time>2026-04-25T07:31:07.104Z</time></trkpt><trkpt lat="45.5734974" lon="11.2438049"><ele>524.0</ele><time>2026-04-25T07:31:08.103Z</time></trkpt><trkpt lat="45.5733957" lon="11.2437337"><ele>524.0</ele><time>2026-04-25T07:31:10.104Z</time></trkpt><trkpt lat="45.5733109" lon="11.2438309"><ele>524.0</ele><time>2026-04-25T07:31:12.104Z</time></trkpt><trkpt lat="45.5732921" lon="11.2439392"><ele>524.0</ele><time>2026-04-25T07:31:13.104Z</time></trkpt><trkpt lat="45.5732687" lon="11.2440411"><ele>524.0</ele><time>2026-04-25T07:31:14.103Z</time></trkpt><trkpt lat="45.5732236" lon="11.2441213"><ele>524.0</ele><time>2026-04-25T07:31:15.103Z</time></trkpt><trkpt lat="45.5731165" lon="11.2441487"><ele>524.0</ele><time>2026-04-25T07:31:17.103Z</time></trkpt><trkpt lat="45.5730585" lon="11.244106"><ele>524.0</ele><time>2026-04-25T07:31:18.104Z</time></trkpt><trkpt lat="45.5729966" lon="11.2440396"><ele>524.0</ele><time>2026-04-25T07:31:19.104Z</time></trkpt><trkpt lat="45.5729216" lon="11.243974"><ele>524.0</ele><time>2026-04-25T07:31:20.104Z</time></trkpt><trkpt lat="45.5728402" lon="11.24392"><ele>529.6666666666666</ele><time>2026-04-25T07:31:21.103Z</time></trkpt><trkpt lat="45.5727543" lon="11.2438907"><ele>535.3333333333333</ele><time>2026-04-25T07:31:22.104Z</time></trkpt><trkpt lat="45.5726746" lon="11.2438876"><ele>541.0</ele><time>2026-04-25T07:31:23.104Z</time></trkpt><trkpt lat="45.57261" lon="11.2439053"><ele>546.6666666666666</ele><time>2026-04-25T07:31:24.104Z</time></trkpt><trkpt lat="45.5725202" lon="11.2438869"><ele>552.3333333333334</ele><time>2026-04-25T07:31:26.104Z</time></trkpt><trkpt lat="45.5725077" lon="11.2437867"><ele>558.0</ele><time>2026-04-25T07:31:28.103Z</time></trkpt><trkpt lat="45.5725916" lon="11.2437327"><ele>558.0</ele><time>2026-04-25T07:31:30.104Z</time></trkpt><trkpt lat="45.5726671" lon="11.2437447"><ele>558.0</ele><time>2026-04-25T07:31:31.104Z</time></trkpt><trkpt lat="45.5727468" lon="11.2437558"><ele>558.0</ele><time>2026-04-25T07:31:32.103Z</time></trkpt><trkpt lat="45.5728261" lon="11.2437675"><ele>558.0</ele><time>2026-04-25T07:31:33.103Z</time></trkpt><trkpt lat="45.5728952" lon="11.2437711"><ele>558.0</ele><time>2026-04-25T07:31:34.103Z</time></trkpt><trkpt lat="45.5730112" lon="11.2437555"><ele>558.0</ele><time>2026-04-25T07:31:36.104Z</time></trkpt><trkpt lat="45.5730667" lon="11.2436409"><ele>558.0</ele><time>2026-04-25T07:31:38.104Z</time></trkpt><trkpt lat="45.5730158" lon="11.2435408"><ele>558.0</ele><time>2026-04-25T07:31:40.104Z</time></trkpt><trkpt lat="45.5729028" lon="11.243535"><ele>558.0</ele><time>2026-04-25T07:31:42.104Z</time></trkpt><trkpt lat="45.5728363" lon="11.2435378"><ele>558.0</ele><time>2026-04-25T07:31:43.103Z</time></trkpt><trkpt lat="45.5727675" lon="11.243538"><ele>558.0</ele><time>2026-04-25T07:31:44.104Z</time></trkpt><trkpt lat="45.5726962" lon="11.2435344"><ele>558.0</ele><time>2026-04-25T07:31:45.103Z</time></trkpt><trkpt lat="45.5726224" lon="11.2435328"><ele>558.0</ele><time>2026-04-25T07:31:46.103Z</time></trkpt><trkpt lat="45.5725447" lon="11.243535"><ele>558.0</ele><time>2026-04-25T07:31:47.104Z</time></trkpt><trkpt lat="45.5724621" lon="11.2435372"><ele>558.0</ele><time>2026-04-25T07:31:48.103Z</time></trkpt><trkpt lat="45.5723724" lon="11.2435366"><ele>558.0</ele><time>2026-04-25T07:31:49.104Z</time></trkpt><trkpt lat="45.5722761" lon="11.2435347"><ele>558.0</ele><time>2026-04-25T07:31:50.104Z</time></trkpt><trkpt lat="45.5721778" lon="11.2435419"><ele>558.0</ele><time>2026-04-25T07:31:51.104Z</time></trkpt><trkpt lat="45.5720767" lon="11.2435499"><ele>557.8</ele><time>2026-04-25T07:31:52.104Z</time></trkpt><trkpt lat="45.57197" lon="11.2435629"><ele>557.5999999999999</ele><time>2026-04-25T07:31:53.104Z</time></trkpt><trkpt lat="45.5718641" lon="11.2435768"><ele>557.4000000000001</ele><time>2026-04-25T07:31:54.103Z</time></trkpt><trkpt lat="45.5717561" lon="11.2435805"><ele>557.2</ele><time>2026-04-25T07:31:55.103Z</time></trkpt><trkpt lat="45.5716473" lon="11.2435711"><ele>557.0</ele><time>2026-04-25T07:31:56.104Z</time></trkpt><trkpt lat="45.5715366" lon="11.2435427"><ele>557.0</ele><time>2026-04-25T07:31:57.103Z</time></trkpt><trkpt lat="45.5714276" lon="11.2434948"><ele>557.0</ele><time>2026-04-25T07:31:58.103Z</time></trkpt><trkpt lat="45.5713209" lon="11.2434449"><ele>557.0</ele><time>2026-04-25T07:31:59.103Z</time></trkpt><trkpt lat="45.5712202" lon="11.2433956"><ele>557.0</ele><time>2026-04-25T07:32:00.104Z</time></trkpt><trkpt lat="45.5711309" lon="11.2433434"><ele>557.0</ele><time>2026-04-25T07:32:01.104Z</time></trkpt><trkpt lat="45.5710532" lon="11.2432865"><ele>556.4</ele><time>2026-04-25T07:32:02.104Z</time></trkpt><trkpt lat="45.5709787" lon="11.2432185"><ele>555.8000000000001</ele><time>2026-04-25T07:32:03.104Z</time></trkpt><trkpt lat="45.5709079" lon="11.2431452"><ele>555.2</ele><time>2026-04-25T07:32:04.104Z</time></trkpt><trkpt lat="45.5708384" lon="11.2430591"><ele>554.6</ele><time>2026-04-25T07:32:05.104Z</time></trkpt><trkpt lat="45.5707684" lon="11.2429731"><ele>554.0</ele><time>2026-04-25T07:32:06.103Z</time></trkpt><trkpt lat="45.5706934" lon="11.242882"><ele>556.0</ele><time>2026-04-25T07:32:07.104Z</time></trkpt><trkpt lat="45.5706136" lon="11.2427916"><ele>558.0</ele><time>2026-04-25T07:32:08.104Z</time></trkpt><trkpt lat="45.570532" lon="11.2427056"><ele>560.0</ele><time>2026-04-25T07:32:09.103Z</time></trkpt><trkpt lat="45.5704414" lon="11.2426412"><ele>562.0</ele><time>2026-04-25T07:32:10.104Z</time></trkpt><trkpt lat="45.57035" lon="11.2425983"><ele>564.0</ele><time>2026-04-25T07:32:11.103Z</time></trkpt><trkpt lat="45.5702607" lon="11.2425685"><ele>564.0</ele><time>2026-04-25T07:32:12.103Z</time></trkpt><trkpt lat="45.5701788" lon="11.2425316"><ele>564.0</ele><time>2026-04-25T07:32:13.103Z</time></trkpt><trkpt lat="45.570107" lon="11.2424673"><ele>564.0</ele><time>2026-04-25T07:32:14.103Z</time></trkpt><trkpt lat="45.5700436" lon="11.2423727"><ele>564.0</ele><time>2026-04-25T07:32:15.103Z</time></trkpt><trkpt lat="45.5699921" lon="11.2422514"><ele>564.0</ele><time>2026-04-25T07:32:16.103Z</time></trkpt><trkpt lat="45.5699495" lon="11.2421164"><ele>565.8</ele><time>2026-04-25T07:32:17.103Z</time></trkpt><trkpt lat="45.5699168" lon="11.2419734"><ele>567.5999999999999</ele><time>2026-04-25T07:32:18.103Z</time></trkpt><trkpt lat="45.5698957" lon="11.24182"><ele>569.4</ele><time>2026-04-25T07:32:19.103Z</time></trkpt><trkpt lat="45.5698798" lon="11.2416717"><ele>571.1999999999999</ele><time>2026-04-25T07:32:20.104Z</time></trkpt><trkpt lat="45.5698696" lon="11.2415298"><ele>573.0</ele><time>2026-04-25T07:32:21.103Z</time></trkpt><trkpt lat="45.5698627" lon="11.2413959"><ele>573.5</ele><time>2026-04-25T07:32:22.104Z</time></trkpt><trkpt lat="45.569856" lon="11.2412763"><ele>574.0</ele><time>2026-04-25T07:32:23.105Z</time></trkpt><trkpt lat="45.5698547" lon="11.2411634"><ele>574.5</ele><time>2026-04-25T07:32:24.104Z</time></trkpt><trkpt lat="45.5698519" lon="11.2410567"><ele>575.0</ele><time>2026-04-25T07:32:25.103Z</time></trkpt><trkpt lat="45.5698515" lon="11.2409432"><ele>575.5</ele><time>2026-04-25T07:32:26.103Z</time></trkpt><trkpt lat="45.5698562" lon="11.2408239"><ele>576.0</ele><time>2026-04-25T07:32:27.103Z</time></trkpt><trkpt lat="45.5698636" lon="11.2407047"><ele>576.4</ele><time>2026-04-25T07:32:28.104Z</time></trkpt><trkpt lat="45.5698718" lon="11.2405867"><ele>576.8</ele><time>2026-04-25T07:32:29.103Z</time></trkpt><trkpt lat="45.5698815" lon="11.2404631"><ele>577.1999999999999</ele><time>2026-04-25T07:32:30.104Z</time></trkpt><trkpt lat="45.5698928" lon="11.2403354"><ele>577.6</ele><time>2026-04-25T07:32:31.103Z</time></trkpt><trkpt lat="45.5699048" lon="11.2402019"><ele>578.0</ele><time>2026-04-25T07:32:32.103Z</time></trkpt><trkpt lat="45.5699167" lon="11.2400645"><ele>578.0</ele><time>2026-04-25T07:32:33.104Z</time></trkpt><trkpt lat="45.5699239" lon="11.2399249"><ele>578.0</ele><time>2026-04-25T07:32:34.103Z</time></trkpt><trkpt lat="45.5699345" lon="11.2397919"><ele>578.0</ele><time>2026-04-25T07:32:35.104Z</time></trkpt><trkpt lat="45.5699493" lon="11.2396676"><ele>578.0</ele><time>2026-04-25T07:32:36.103Z</time></trkpt><trkpt lat="45.5699685" lon="11.2395488"><ele>578.0</ele><time>2026-04-25T07:32:37.104Z</time></trkpt><trkpt lat="45.569993" lon="11.239425"><ele>577.0</ele><time>2026-04-25T07:32:38.103Z</time></trkpt><trkpt lat="45.5700244" lon="11.2393056"><ele>576.0</ele><time>2026-04-25T07:32:39.103Z</time></trkpt><trkpt lat="45.570066" lon="11.2391812"><ele>575.0</ele><time>2026-04-25T07:32:40.103Z</time></trkpt><trkpt lat="45.570112" lon="11.2390511"><ele>574.0</ele><time>2026-04-25T07:32:41.104Z</time></trkpt><trkpt lat="45.5701582" lon="11.2389184"><ele>573.0</ele><time>2026-04-25T07:32:42.104Z</time></trkpt><trkpt lat="45.5702175" lon="11.2387828"><ele>574.6</ele><time>2026-04-25T07:32:43.103Z</time></trkpt><trkpt lat="45.5702793" lon="11.2386537"><ele>576.1999999999999</ele><time>2026-04-25T07:32:44.103Z</time></trkpt><trkpt lat="45.5703459" lon="11.2385309"><ele>577.8</ele><time>2026-04-25T07:32:45.104Z</time></trkpt><trkpt lat="45.5704155" lon="11.2384082"><ele>579.4</ele><time>2026-04-25T07:32:46.103Z</time></trkpt><trkpt lat="45.5704892" lon="11.2382859"><ele>581.0</ele><time>2026-04-25T07:32:47.103Z</time></trkpt><trkpt lat="45.5705637" lon="11.2381633"><ele>577.6</ele><time>2026-04-25T07:32:48.103Z</time></trkpt><trkpt lat="45.5706345" lon="11.2380417"><ele>574.2</ele><time>2026-04-25T07:32:49.104Z</time></trkpt><trkpt lat="45.5707115" lon="11.2379332"><ele>570.8</ele><time>2026-04-25T07:32:50.104Z</time></trkpt><trkpt lat="45.5707965" lon="11.237838"><ele>567.4</ele><time>2026-04-25T07:32:51.103Z</time></trkpt><trkpt lat="45.5708895" lon="11.2377523"><ele>564.0</ele><time>2026-04-25T07:32:52.103Z</time></trkpt><trkpt lat="45.570983" lon="11.2376748"><ele>564.0</ele><time>2026-04-25T07:32:53.103Z</time></trkpt><trkpt lat="45.5710705" lon="11.2376001"><ele>564.0</ele><time>2026-04-25T07:32:54.103Z</time></trkpt><trkpt lat="45.5711456" lon="11.2375157"><ele>564.0</ele><time>2026-04-25T07:32:55.104Z</time></trkpt><trkpt lat="45.5712018" lon="11.2374057"><ele>564.0</ele><time>2026-04-25T07:32:56.104Z</time></trkpt><trkpt lat="45.5712427" lon="11.2372797"><ele>564.0</ele><time>2026-04-25T07:32:57.103Z</time></trkpt><trkpt lat="45.5712738" lon="11.2371547"><ele>564.6</ele><time>2026-04-25T07:32:58.103Z</time></trkpt><trkpt lat="45.5713179" lon="11.2370432"><ele>565.2</ele><time>2026-04-25T07:32:59.104Z</time></trkpt><trkpt lat="45.5713678" lon="11.2369445"><ele>565.8000000000001</ele><time>2026-04-25T07:33:00.103Z</time></trkpt><trkpt lat="45.5714317" lon="11.2368585"><ele>566.4</ele><time>2026-04-25T07:33:01.103Z</time></trkpt><trkpt lat="45.5715089" lon="11.2367908"><ele>567.0</ele><time>2026-04-25T07:33:02.103Z</time></trkpt><trkpt lat="45.5715929" lon="11.2367235"><ele>567.0</ele><time>2026-04-25T07:33:03.104Z</time></trkpt><trkpt lat="45.5716833" lon="11.2366453"><ele>567.0</ele><time>2026-04-25T07:33:04.105Z</time></trkpt><trkpt lat="45.5717766" lon="11.2365654"><ele>567.0</ele><time>2026-04-25T07:33:05.104Z</time></trkpt><trkpt lat="45.5718699" lon="11.2364865"><ele>567.0</ele><time>2026-04-25T07:33:06.103Z</time></trkpt><trkpt lat="45.5719655" lon="11.2364133"><ele>567.0</ele><time>2026-04-25T07:33:07.103Z</time></trkpt><trkpt lat="45.5720613" lon="11.2363519"><ele>564.3333333333334</ele><time>2026-04-25T07:33:08.103Z</time></trkpt><trkpt lat="45.5721521" lon="11.236306"><ele>561.6666666666666</ele><time>2026-04-25T07:33:09.103Z</time></trkpt><trkpt lat="45.572234" lon="11.2362801"><ele>559.0</ele><time>2026-04-25T07:33:10.104Z</time></trkpt><trkpt lat="45.5723138" lon="11.2362805"><ele>556.3333333333333</ele><time>2026-04-25T07:33:11.104Z</time></trkpt><trkpt lat="45.5723864" lon="11.236311"><ele>553.6666666666666</ele><time>2026-04-25T07:33:12.103Z</time></trkpt><trkpt lat="45.5724463" lon="11.2363676"><ele>551.0</ele><time>2026-04-25T07:33:13.103Z</time></trkpt><trkpt lat="45.5725015" lon="11.2364259"><ele>551.0</ele><time>2026-04-25T07:33:14.104Z</time></trkpt><trkpt lat="45.5725711" lon="11.2364501"><ele>551.0</ele><time>2026-04-25T07:33:15.104Z</time></trkpt><trkpt lat="45.5726428" lon="11.2364328"><ele>551.0</ele><time>2026-04-25T07:33:16.103Z</time></trkpt><trkpt lat="45.572709" lon="11.2363815"><ele>551.0</ele><time>2026-04-25T07:33:17.104Z</time></trkpt><trkpt lat="45.5727686" lon="11.2363037"><ele>551.0</ele><time>2026-04-25T07:33:18.103Z</time></trkpt><trkpt lat="45.5728347" lon="11.2362205"><ele>551.0</ele><time>2026-04-25T07:33:19.103Z</time></trkpt><trkpt lat="45.5729066" lon="11.2361381"><ele>550.8</ele><time>2026-04-25T07:33:20.103Z</time></trkpt><trkpt lat="45.5729791" lon="11.2360548"><ele>550.6</ele><time>2026-04-25T07:33:21.103Z</time></trkpt><trkpt lat="45.573052" lon="11.2359634"><ele>550.4</ele><time>2026-04-25T07:33:22.103Z</time></trkpt><trkpt lat="45.5731225" lon="11.2358649"><ele>550.2</ele><time>2026-04-25T07:33:23.103Z</time></trkpt><trkpt lat="45.5731928" lon="11.2357844"><ele>550.0</ele><time>2026-04-25T07:33:24.103Z</time></trkpt><trkpt lat="45.5732626" lon="11.2357287"><ele>550.0</ele><time>2026-04-25T07:33:25.104Z</time></trkpt><trkpt lat="45.5733439" lon="11.2357014"><ele>550.0</ele><time>2026-04-25T07:33:26.103Z</time></trkpt><trkpt lat="45.5734342" lon="11.2356848"><ele>550.0</ele><time>2026-04-25T07:33:27.104Z</time></trkpt><trkpt lat="45.5735281" lon="11.235647"><ele>550.0</ele><time>2026-04-25T07:33:28.103Z</time></trkpt><trkpt lat="45.5736234" lon="11.2355858"><ele>550.0</ele><time>2026-04-25T07:33:29.103Z</time></trkpt><trkpt lat="45.5737121" lon="11.2355088"><ele>547.6</ele><time>2026-04-25T07:33:30.103Z</time></trkpt><trkpt lat="45.5737891" lon="11.235416"><ele>545.2</ele><time>2026-04-25T07:33:31.103Z</time></trkpt><trkpt lat="45.5738529" lon="11.2353101"><ele>542.8</ele><time>2026-04-25T07:33:32.103Z</time></trkpt><trkpt lat="45.5739045" lon="11.2351973"><ele>540.4</ele><time>2026-04-25T07:33:33.103Z</time></trkpt><trkpt lat="45.5739473" lon="11.2350773"><ele>538.0</ele><time>2026-04-25T07:33:34.104Z</time></trkpt><trkpt lat="45.573985" lon="11.234954"><ele>538.0</ele><time>2026-04-25T07:33:35.104Z</time></trkpt><trkpt lat="45.574009" lon="11.2348262"><ele>538.0</ele><time>2026-04-25T07:33:36.104Z</time></trkpt><trkpt lat="45.5740238" lon="11.2346906"><ele>538.0</ele><time>2026-04-25T07:33:37.104Z</time></trkpt><trkpt lat="45.5740339" lon="11.2345604"><ele>538.0</ele><time>2026-04-25T07:33:38.105Z</time></trkpt><trkpt lat="45.574047" lon="11.2344372"><ele>538.0</ele><time>2026-04-25T07:33:39.104Z</time></trkpt><trkpt lat="45.5740644" lon="11.2343272"><ele>538.0</ele><time>2026-04-25T07:33:40.105Z</time></trkpt><trkpt lat="45.5740869" lon="11.2342326"><ele>536.4</ele><time>2026-04-25T07:33:41.103Z</time></trkpt><trkpt lat="45.5740669" lon="11.2340765"><ele>534.8</ele><time>2026-04-25T07:33:43.104Z</time></trkpt><trkpt lat="45.573953" lon="11.2340135"><ele>533.2</ele><time>2026-04-25T07:33:45.104Z</time></trkpt><trkpt lat="45.5738846" lon="11.234019"><ele>531.6</ele><time>2026-04-25T07:33:46.103Z</time></trkpt><trkpt lat="45.5738103" lon="11.234038"><ele>530.0</ele><time>2026-04-25T07:33:47.103Z</time></trkpt><trkpt lat="45.5737353" lon="11.2340662"><ele>528.0</ele><time>2026-04-25T07:33:48.103Z</time></trkpt><trkpt lat="45.5736337" lon="11.2341099"><ele>526.0</ele><time>2026-04-25T07:33:50.103Z</time></trkpt><trkpt lat="45.5735716" lon="11.2340592"><ele>524.0</ele><time>2026-04-25T07:33:52.104Z</time></trkpt><trkpt lat="45.573592" lon="11.2339551"><ele>522.0</ele><time>2026-04-25T07:33:54.103Z</time></trkpt><trkpt lat="45.5736953" lon="11.2338842"><ele>520.0</ele><time>2026-04-25T07:33:56.104Z</time></trkpt><trkpt lat="45.5737712" lon="11.2338463"><ele>518.0</ele><time>2026-04-25T07:33:57.104Z</time></trkpt><trkpt lat="45.5738594" lon="11.2337935"><ele>517.0</ele><time>2026-04-25T07:33:58.104Z</time></trkpt><trkpt lat="45.5739536" lon="11.2337331"><ele>516.0</ele><time>2026-04-25T07:33:59.104Z</time></trkpt><trkpt lat="45.5740502" lon="11.2336744"><ele>515.0</ele><time>2026-04-25T07:34:00.104Z</time></trkpt><trkpt lat="45.5741503" lon="11.233616"><ele>514.0</ele><time>2026-04-25T07:34:01.103Z</time></trkpt><trkpt lat="45.574245" lon="11.2335555"><ele>513.0</ele><time>2026-04-25T07:34:02.104Z</time></trkpt><trkpt lat="45.5743349" lon="11.2334976"><ele>513.0</ele><time>2026-04-25T07:34:03.105Z</time></trkpt><trkpt lat="45.5744212" lon="11.2334373"><ele>513.0</ele><time>2026-04-25T07:34:04.104Z</time></trkpt><trkpt lat="45.5745059" lon="11.2333815"><ele>513.0</ele><time>2026-04-25T07:34:05.104Z</time></trkpt><trkpt lat="45.574589" lon="11.2333239"><ele>513.0</ele><time>2026-04-25T07:34:06.103Z</time></trkpt><trkpt lat="45.5746621" lon="11.2332546"><ele>513.0</ele><time>2026-04-25T07:34:07.104Z</time></trkpt><trkpt lat="45.5747332" lon="11.233169"><ele>512.6666666666666</ele><time>2026-04-25T07:34:08.105Z</time></trkpt><trkpt lat="45.5748012" lon="11.2330748"><ele>512.3333333333334</ele><time>2026-04-25T07:34:09.103Z</time></trkpt><trkpt lat="45.5748679" lon="11.2329883"><ele>512.0</ele><time>2026-04-25T07:34:10.103Z</time></trkpt><trkpt lat="45.5749311" lon="11.2329084"><ele>511.6666666666667</ele><time>2026-04-25T07:34:11.103Z</time></trkpt><trkpt lat="45.574984" lon="11.2328304"><ele>511.33333333333337</ele><time>2026-04-25T07:34:12.103Z</time></trkpt><trkpt lat="45.5750167" lon="11.232742"><ele>511.0</ele><time>2026-04-25T07:34:13.103Z</time></trkpt><trkpt lat="45.5750225" lon="11.2326439"><ele>511.00000000000006</ele><time>2026-04-25T07:34:14.104Z</time></trkpt><trkpt lat="45.5750004" lon="11.2325493"><ele>511.0</ele><time>2026-04-25T07:34:15.104Z</time></trkpt><trkpt lat="45.5749517" lon="11.2324836"><ele>511.0</ele><time>2026-04-25T07:34:16.103Z</time></trkpt><trkpt lat="45.5748877" lon="11.2324467"><ele>511.0</ele><time>2026-04-25T07:34:17.103Z</time></trkpt><trkpt lat="45.5748185" lon="11.2324214"><ele>511.00000000000006</ele><time>2026-04-25T07:34:18.103Z</time></trkpt><trkpt lat="45.5747234" lon="11.2323591"><ele>511.0</ele><time>2026-04-25T07:34:20.103Z</time></trkpt><trkpt lat="45.5746535" lon="11.232314"><ele>511.20000000000005</ele><time>2026-04-25T07:34:24.105Z</time></trkpt><trkpt lat="45.5745611" lon="11.2322785"><ele>511.40000000000003</ele><time>2026-04-25T07:34:27.104Z</time></trkpt><trkpt lat="45.5744659" lon="11.2322327"><ele>511.6</ele><time>2026-04-25T07:34:29.103Z</time></trkpt><trkpt lat="45.5743765" lon="11.2321339"><ele>511.8</ele><time>2026-04-25T07:34:31.103Z</time></trkpt><trkpt lat="45.5743222" lon="11.231968"><ele>512.0</ele><time>2026-04-25T07:34:33.104Z</time></trkpt><trkpt lat="45.5742968" lon="11.2318509"><ele>509.0</ele><time>2026-04-25T07:34:34.104Z</time></trkpt><trkpt lat="45.5742661" lon="11.2317188"><ele>506.00000000000006</ele><time>2026-04-25T07:34:35.104Z</time></trkpt><trkpt lat="45.5742375" lon="11.2315903"><ele>503.00000000000006</ele><time>2026-04-25T07:34:36.103Z</time></trkpt><trkpt lat="45.5742126" lon="11.231466"><ele>500.0</ele><time>2026-04-25T07:34:37.103Z</time></trkpt><trkpt lat="45.5741892" lon="11.2313457"><ele>497.0</ele><time>2026-04-25T07:34:38.103Z</time></trkpt><trkpt lat="45.574166" lon="11.231221"><ele>496.8</ele><time>2026-04-25T07:34:39.104Z</time></trkpt><trkpt lat="45.5741402" lon="11.2310983"><ele>496.6</ele><time>2026-04-25T07:34:40.103Z</time></trkpt><trkpt lat="45.5741098" lon="11.2309778"><ele>496.40000000000003</ele><time>2026-04-25T07:34:41.103Z</time></trkpt><trkpt lat="45.5740821" lon="11.2308567"><ele>496.20000000000005</ele><time>2026-04-25T07:34:42.104Z</time></trkpt><trkpt lat="45.5740522" lon="11.2307314"><ele>496.0</ele><time>2026-04-25T07:34:43.103Z</time></trkpt><trkpt lat="45.5740216" lon="11.2306003"><ele>495.50000000000006</ele><time>2026-04-25T07:34:44.104Z</time></trkpt><trkpt lat="45.573993" lon="11.2304701"><ele>495.0</ele><time>2026-04-25T07:34:45.103Z</time></trkpt><trkpt lat="45.5739663" lon="11.2303448"><ele>494.5</ele><time>2026-04-25T07:34:46.104Z</time></trkpt><trkpt lat="45.5739413" lon="11.2302267"><ele>494.0</ele><time>2026-04-25T07:34:47.103Z</time></trkpt><trkpt lat="45.5739182" lon="11.2301168"><ele>493.50000000000006</ele><time>2026-04-25T07:34:48.103Z</time></trkpt><trkpt lat="45.5738988" lon="11.2300136"><ele>493.0</ele><time>2026-04-25T07:34:49.103Z</time></trkpt><trkpt lat="45.5738786" lon="11.2299175"><ele>493.0</ele><time>2026-04-25T07:34:50.104Z</time></trkpt><trkpt lat="45.5738556" lon="11.229818"><ele>493.0</ele><time>2026-04-25T07:34:51.103Z</time></trkpt><trkpt lat="45.5738372" lon="11.2297169"><ele>493.0</ele><time>2026-04-25T07:34:52.104Z</time></trkpt><trkpt lat="45.5738172" lon="11.2296151"><ele>493.0</ele><time>2026-04-25T07:34:53.104Z</time></trkpt><trkpt lat="45.5737957" lon="11.2295109"><ele>493.0</ele><time>2026-04-25T07:34:54.104Z</time></trkpt><trkpt lat="45.5737736" lon="11.2294117"><ele>493.0</ele><time>2026-04-25T07:34:55.104Z</time></trkpt><trkpt lat="45.5737564" lon="11.2293242"><ele>493.0</ele><time>2026-04-25T07:34:56.104Z</time></trkpt><trkpt lat="45.5737301" lon="11.2291895"><ele>492.75</ele><time>2026-04-25T07:34:58.103Z</time></trkpt><trkpt lat="45.5736968" lon="11.2290467"><ele>492.5</ele><time>2026-04-25T07:35:00.104Z</time></trkpt><trkpt lat="45.5736683" lon="11.2288908"><ele>492.25</ele><time>2026-04-25T07:35:02.104Z</time></trkpt><trkpt lat="45.57364" lon="11.2287325"><ele>492.0</ele><time>2026-04-25T07:35:04.104Z</time></trkpt><trkpt lat="45.5736146" lon="11.2285684"><ele>490.3333333333333</ele><time>2026-04-25T07:35:06.103Z</time></trkpt><trkpt lat="45.5735856" lon="11.2283994"><ele>488.66666666666663</ele><time>2026-04-25T07:35:08.103Z</time></trkpt><trkpt lat="45.5735679" lon="11.2282276"><ele>487.0</ele><time>2026-04-25T07:35:10.104Z</time></trkpt><trkpt lat="45.5735599" lon="11.2281367"><ele>485.3333333333333</ele><time>2026-04-25T07:35:11.103Z</time></trkpt><trkpt lat="45.5735474" lon="11.228045"><ele>483.66666666666663</ele><time>2026-04-25T07:35:12.103Z</time></trkpt><trkpt lat="45.5735337" lon="11.2279555"><ele>482.0</ele><time>2026-04-25T07:35:13.103Z</time></trkpt><trkpt lat="45.5735164" lon="11.2278178"><ele>481.99999999999994</ele><time>2026-04-25T07:35:15.105Z</time></trkpt><trkpt lat="45.5734913" lon="11.2276984"><ele>482.0</ele><time>2026-04-25T07:35:18.103Z</time></trkpt><trkpt lat="45.5734295" lon="11.2276721"><ele>482.0</ele><time>2026-04-25T07:35:20.104Z</time></trkpt><trkpt lat="45.5733668" lon="11.2277025"><ele>482.0</ele><time>2026-04-25T07:35:22.103Z</time></trkpt><trkpt lat="45.5732913" lon="11.2277774"><ele>481.99999999999994</ele><time>2026-04-25T07:35:24.103Z</time></trkpt><trkpt lat="45.5731835" lon="11.2278685"><ele>482.0</ele><time>2026-04-25T07:35:26.103Z</time></trkpt><trkpt lat="45.5731203" lon="11.2279191"><ele>481.99999999999994</ele><time>2026-04-25T07:35:27.103Z</time></trkpt><trkpt lat="45.5730496" lon="11.2279782"><ele>482.0</ele><time>2026-04-25T07:35:28.104Z</time></trkpt><trkpt lat="45.572976" lon="11.2280425"><ele>482.0</ele><time>2026-04-25T07:35:29.104Z</time></trkpt><trkpt lat="45.5729057" lon="11.2281056"><ele>482.0</ele><time>2026-04-25T07:35:30.104Z</time></trkpt><trkpt lat="45.5728447" lon="11.2281675"><ele>481.99999999999994</ele><time>2026-04-25T07:35:31.103Z</time></trkpt><trkpt lat="45.5727875" lon="11.2282284"><ele>482.0</ele><time>2026-04-25T07:35:32.103Z</time></trkpt><trkpt lat="45.5727347" lon="11.228291"><ele>480.3333333333333</ele><time>2026-04-25T07:35:33.104Z</time></trkpt><trkpt lat="45.5726803" lon="11.2283542"><ele>478.66666666666663</ele><time>2026-04-25T07:35:34.104Z</time></trkpt><trkpt lat="45.5726257" lon="11.2284212"><ele>477.0</ele><time>2026-04-25T07:35:35.103Z</time></trkpt><trkpt lat="45.5725733" lon="11.2284901"><ele>475.33333333333337</ele><time>2026-04-25T07:35:36.103Z</time></trkpt><trkpt lat="45.5725233" lon="11.22855"><ele>473.6666666666667</ele><time>2026-04-25T07:35:37.103Z</time></trkpt><trkpt lat="45.5724207" lon="11.2286551"><ele>472.0</ele><time>2026-04-25T07:35:39.103Z</time></trkpt><trkpt lat="45.5723572" lon="11.2287155"><ele>472.0</ele><time>2026-04-25T07:35:40.103Z</time></trkpt><trkpt lat="45.5722844" lon="11.2287697"><ele>472.00000000000006</ele><time>2026-04-25T07:35:41.104Z</time></trkpt><trkpt lat="45.5722009" lon="11.2288082"><ele>472.00000000000006</ele><time>2026-04-25T07:35:42.104Z</time></trkpt><trkpt lat="45.5721114" lon="11.228829"><ele>472.0</ele><time>2026-04-25T07:35:43.103Z</time></trkpt><trkpt lat="45.572014" lon="11.2288397"><ele>472.0</ele><time>2026-04-25T07:35:44.105Z</time></trkpt><trkpt lat="45.5719098" lon="11.228835"><ele>469.8</ele><time>2026-04-25T07:35:45.103Z</time></trkpt><trkpt lat="45.5718094" lon="11.2288085"><ele>467.6</ele><time>2026-04-25T07:35:46.104Z</time></trkpt><trkpt lat="45.5717127" lon="11.2287631"><ele>465.40000000000003</ele><time>2026-04-25T07:35:47.103Z</time></trkpt><trkpt lat="45.5716152" lon="11.228712"><ele>463.20000000000005</ele><time>2026-04-25T07:35:48.103Z</time></trkpt><trkpt lat="45.5715193" lon="11.2286627"><ele>461.0</ele><time>2026-04-25T07:35:49.103Z</time></trkpt><trkpt lat="45.5714269" lon="11.2286193"><ele>461.0</ele><time>2026-04-25T07:35:50.104Z</time></trkpt><trkpt lat="45.5713352" lon="11.2285887"><ele>461.0</ele><time>2026-04-25T07:35:51.103Z</time></trkpt><trkpt lat="45.5712436" lon="11.2285729"><ele>461.0</ele><time>2026-04-25T07:35:52.104Z</time></trkpt><trkpt lat="45.5711519" lon="11.228565"><ele>461.0</ele><time>2026-04-25T07:35:53.104Z</time></trkpt><trkpt lat="45.5710598" lon="11.228574"><ele>461.0</ele><time>2026-04-25T07:35:54.104Z</time></trkpt><trkpt lat="45.5709623" lon="11.2285963"><ele>459.0</ele><time>2026-04-25T07:35:55.104Z</time></trkpt><trkpt lat="45.5708704" lon="11.2286356"><ele>457.0</ele><time>2026-04-25T07:35:56.103Z</time></trkpt><trkpt lat="45.5707866" lon="11.2286833"><ele>455.0</ele><time>2026-04-25T07:35:57.104Z</time></trkpt><trkpt lat="45.5707055" lon="11.2287293"><ele>453.0</ele><time>2026-04-25T07:35:58.103Z</time></trkpt><trkpt lat="45.5706214" lon="11.2287793"><ele>451.0</ele><time>2026-04-25T07:35:59.103Z</time></trkpt><trkpt lat="45.5705324" lon="11.2288324"><ele>451.0</ele><time>2026-04-25T07:36:00.104Z</time></trkpt><trkpt lat="45.5704382" lon="11.2288895"><ele>451.0</ele><time>2026-04-25T07:36:01.104Z</time></trkpt><trkpt lat="45.5703377" lon="11.2289518"><ele>451.0</ele><time>2026-04-25T07:36:02.104Z</time></trkpt><trkpt lat="45.5702339" lon="11.2290191"><ele>451.0</ele><time>2026-04-25T07:36:03.103Z</time></trkpt><trkpt lat="45.5701221" lon="11.2290907"><ele>451.0</ele><time>2026-04-25T07:36:04.104Z</time></trkpt><trkpt lat="45.5700065" lon="11.229167"><ele>450.25</ele><time>2026-04-25T07:36:05.103Z</time></trkpt><trkpt lat="45.5698843" lon="11.2292449"><ele>449.5</ele><time>2026-04-25T07:36:06.103Z</time></trkpt><trkpt lat="45.5697607" lon="11.229319"><ele>448.75</ele><time>2026-04-25T07:36:07.104Z</time></trkpt><trkpt lat="45.5696413" lon="11.2293938"><ele>448.0</ele><time>2026-04-25T07:36:08.104Z</time></trkpt><trkpt lat="45.5695239" lon="11.2294636"><ele>446.79999999999995</ele><time>2026-04-25T07:36:09.103Z</time></trkpt><trkpt lat="45.5694153" lon="11.2295299"><ele>445.59999999999997</ele><time>2026-04-25T07:36:10.105Z</time></trkpt><trkpt lat="45.5693145" lon="11.2295899"><ele>444.40000000000003</ele><time>2026-04-25T07:36:11.104Z</time></trkpt><trkpt lat="45.5692191" lon="11.2296278"><ele>443.20000000000005</ele><time>2026-04-25T07:36:12.104Z</time></trkpt><trkpt lat="45.5691227" lon="11.2296321"><ele>442.0</ele><time>2026-04-25T07:36:13.103Z</time></trkpt><trkpt lat="45.5690379" lon="11.2295836"><ele>442.0</ele><time>2026-04-25T07:36:14.103Z</time></trkpt><trkpt lat="45.5689697" lon="11.2294878"><ele>442.00000000000006</ele><time>2026-04-25T07:36:15.103Z</time></trkpt><trkpt lat="45.5689291" lon="11.2293627"><ele>442.00000000000006</ele><time>2026-04-25T07:36:16.103Z</time></trkpt><trkpt lat="45.568928" lon="11.2292238"><ele>442.0</ele><time>2026-04-25T07:36:17.103Z</time></trkpt><trkpt lat="45.568963" lon="11.2290982"><ele>442.0</ele><time>2026-04-25T07:36:18.104Z</time></trkpt><trkpt lat="45.5690376" lon="11.2289934"><ele>441.40000000000003</ele><time>2026-04-25T07:36:19.103Z</time></trkpt><trkpt lat="45.5691368" lon="11.2289246"><ele>440.80000000000007</ele><time>2026-04-25T07:36:20.103Z</time></trkpt><trkpt lat="45.5692487" lon="11.2288869"><ele>440.2</ele><time>2026-04-25T07:36:21.104Z</time></trkpt><trkpt lat="45.569359" lon="11.228862"><ele>439.6</ele><time>2026-04-25T07:36:22.103Z</time></trkpt><trkpt lat="45.5694648" lon="11.2288332"><ele>439.0</ele><time>2026-04-25T07:36:23.104Z</time></trkpt><trkpt lat="45.56955" lon="11.2287718"><ele>439.00000000000006</ele><time>2026-04-25T07:36:24.104Z</time></trkpt><trkpt lat="45.5696134" lon="11.2286805"><ele>439.0</ele><time>2026-04-25T07:36:25.103Z</time></trkpt><trkpt lat="45.5696479" lon="11.2285702"><ele>439.0</ele><time>2026-04-25T07:36:26.104Z</time></trkpt><trkpt lat="45.5696521" lon="11.228452"><ele>439.0</ele><time>2026-04-25T07:36:27.105Z</time></trkpt><trkpt lat="45.5696272" lon="11.2283436"><ele>439.00000000000006</ele><time>2026-04-25T07:36:28.103Z</time></trkpt><trkpt lat="45.5695705" lon="11.2282505"><ele>439.0</ele><time>2026-04-25T07:36:29.104Z</time></trkpt><trkpt lat="45.5694833" lon="11.2281865"><ele>434.5</ele><time>2026-04-25T07:36:30.103Z</time></trkpt><trkpt lat="45.5693777" lon="11.2281381"><ele>430.0</ele><time>2026-04-25T07:36:31.103Z</time></trkpt><trkpt lat="45.5692607" lon="11.2280897"><ele>425.5</ele><time>2026-04-25T07:36:32.104Z</time></trkpt><trkpt lat="45.5691324" lon="11.2280417"><ele>421.0</ele><time>2026-04-25T07:36:33.103Z</time></trkpt><trkpt lat="45.5689974" lon="11.227996"><ele>421.0</ele><time>2026-04-25T07:36:34.103Z</time></trkpt><trkpt lat="45.5688582" lon="11.2279491"><ele>421.0</ele><time>2026-04-25T07:36:35.103Z</time></trkpt><trkpt lat="45.5687165" lon="11.2279023"><ele>421.0</ele><time>2026-04-25T07:36:36.104Z</time></trkpt><trkpt lat="45.5685749" lon="11.227857"><ele>421.0</ele><time>2026-04-25T07:36:37.104Z</time></trkpt><trkpt lat="45.568432" lon="11.2278138"><ele>418.75</ele><time>2026-04-25T07:36:38.103Z</time></trkpt><trkpt lat="45.5682901" lon="11.2277697"><ele>416.5</ele><time>2026-04-25T07:36:39.104Z</time></trkpt><trkpt lat="45.5681475" lon="11.2277261"><ele>414.25</ele><time>2026-04-25T07:36:40.104Z</time></trkpt><trkpt lat="45.5680076" lon="11.2276858"><ele>412.0</ele><time>2026-04-25T07:36:41.104Z</time></trkpt><trkpt lat="45.5678657" lon="11.2276541"><ele>410.75</ele><time>2026-04-25T07:36:42.103Z</time></trkpt><trkpt lat="45.5677248" lon="11.2276343"><ele>409.5</ele><time>2026-04-25T07:36:43.103Z</time></trkpt><trkpt lat="45.5675793" lon="11.2276255"><ele>408.25</ele><time>2026-04-25T07:36:44.104Z</time></trkpt><trkpt lat="45.5674303" lon="11.2276206"><ele>407.0</ele><time>2026-04-25T07:36:45.103Z</time></trkpt><trkpt lat="45.567282" lon="11.2276182"><ele>407.0</ele><time>2026-04-25T07:36:46.103Z</time></trkpt><trkpt lat="45.5671358" lon="11.2276118"><ele>407.0</ele><time>2026-04-25T07:36:47.103Z</time></trkpt><trkpt lat="45.5669925" lon="11.2276035"><ele>407.0</ele><time>2026-04-25T07:36:48.104Z</time></trkpt><trkpt lat="45.5668505" lon="11.2275909"><ele>407.0</ele><time>2026-04-25T07:36:49.104Z</time></trkpt><trkpt lat="45.5667084" lon="11.2275851"><ele>404.5</ele><time>2026-04-25T07:36:50.103Z</time></trkpt><trkpt lat="45.5665687" lon="11.2275781"><ele>402.0</ele><time>2026-04-25T07:36:51.103Z</time></trkpt><trkpt lat="45.5664318" lon="11.2275744"><ele>399.5</ele><time>2026-04-25T07:36:52.103Z</time></trkpt><trkpt lat="45.5662958" lon="11.227574"><ele>397.0</ele><time>2026-04-25T07:36:53.104Z</time></trkpt><trkpt lat="45.5661593" lon="11.2275704"><ele>394.75</ele><time>2026-04-25T07:36:54.103Z</time></trkpt><trkpt lat="45.5660216" lon="11.2275678"><ele>392.5</ele><time>2026-04-25T07:36:55.104Z</time></trkpt><trkpt lat="45.565884" lon="11.2275622"><ele>390.25</ele><time>2026-04-25T07:36:56.103Z</time></trkpt><trkpt lat="45.5657548" lon="11.2275588"><ele>388.0</ele><time>2026-04-25T07:36:57.103Z</time></trkpt><trkpt lat="45.5656377" lon="11.2275618"><ele>388.00000000000006</ele><time>2026-04-25T07:36:58.104Z</time></trkpt><trkpt lat="45.5655376" lon="11.2275708"><ele>388.0</ele><time>2026-04-25T07:36:59.104Z</time></trkpt><trkpt lat="45.5654556" lon="11.2275817"><ele>388.0</ele><time>2026-04-25T07:37:00.103Z</time></trkpt><trkpt lat="45.5653544" lon="11.2276054"><ele>388.0</ele><time>2026-04-25T07:37:02.104Z</time></trkpt><trkpt lat="45.5652877" lon="11.2275716"><ele>388.00000000000006</ele><time>2026-04-25T07:37:05.105Z</time></trkpt><trkpt lat="45.5653282" lon="11.2274688"><ele>388.0</ele><time>2026-04-25T07:37:09.103Z</time></trkpt><trkpt lat="45.5653844" lon="11.2273852"><ele>386.4</ele><time>2026-04-25T07:37:11.103Z</time></trkpt><trkpt lat="45.5654556" lon="11.2272992"><ele>384.79999999999995</ele><time>2026-04-25T07:37:13.104Z</time></trkpt><trkpt lat="45.5655377" lon="11.227191"><ele>383.2</ele><time>2026-04-25T07:37:15.103Z</time></trkpt><trkpt lat="45.5656186" lon="11.2271031"><ele>381.6</ele><time>2026-04-25T07:37:17.103Z</time></trkpt><trkpt lat="45.5656735" lon="11.2270173"><ele>380.0</ele><time>2026-04-25T07:37:19.103Z</time></trkpt><trkpt lat="45.5656863" lon="11.2269183"><ele>380.0</ele><time>2026-04-25T07:37:21.104Z</time></trkpt><trkpt lat="45.565688" lon="11.2268021"><ele>380.0</ele><time>2026-04-25T07:37:25.103Z</time></trkpt><trkpt lat="45.5657354" lon="11.2267425"><ele>380.0</ele><time>2026-04-25T07:37:27.104Z</time></trkpt><trkpt lat="45.5658024" lon="11.2266667"><ele>380.0</ele><time>2026-04-25T07:37:29.104Z</time></trkpt><trkpt lat="45.5658498" lon="11.2265381"><ele>380.0</ele><time>2026-04-25T07:37:31.103Z</time></trkpt><trkpt lat="45.5658574" lon="11.2264122"><ele>380.0</ele><time>2026-04-25T07:37:33.104Z</time></trkpt><trkpt lat="45.5658539" lon="11.226286"><ele>378.8</ele><time>2026-04-25T07:37:35.103Z</time></trkpt><trkpt lat="45.5658772" lon="11.2261618"><ele>377.6</ele><time>2026-04-25T07:37:37.103Z</time></trkpt><trkpt lat="45.5659312" lon="11.2260628"><ele>376.4</ele><time>2026-04-25T07:37:39.104Z</time></trkpt><trkpt lat="45.5660085" lon="11.2259602"><ele>375.2</ele><time>2026-04-25T07:37:41.105Z</time></trkpt><trkpt lat="45.5660842" lon="11.2258675"><ele>374.0</ele><time>2026-04-25T07:37:43.103Z</time></trkpt><trkpt lat="45.5661442" lon="11.2258011"><ele>374.0</ele><time>2026-04-25T07:37:45.103Z</time></trkpt><trkpt lat="45.5661514" lon="11.2257103"><ele>374.0</ele><time>2026-04-25T07:37:49.103Z</time></trkpt><trkpt lat="45.5661188" lon="11.2258233"><ele>374.0</ele><time>2026-04-25T07:38:14.104Z</time></trkpt><trkpt lat="45.5660589" lon="11.2259087"><ele>374.0</ele><time>2026-04-25T07:38:17.104Z</time></trkpt><trkpt lat="45.5659858" lon="11.2259886"><ele>374.0</ele><time>2026-04-25T07:38:20.103Z</time></trkpt><trkpt lat="45.5659369" lon="11.2260474"><ele>374.0</ele><time>2026-04-25T07:38:22.103Z</time></trkpt><trkpt lat="45.565893" lon="11.226118"><ele>374.0</ele><time>2026-04-25T07:38:24.103Z</time></trkpt><trkpt lat="45.5658607" lon="11.226208"><ele>374.0</ele><time>2026-04-25T07:38:26.104Z</time></trkpt><trkpt lat="45.5658572" lon="11.2263094"><ele>374.0</ele><time>2026-04-25T07:38:28.104Z</time></trkpt><trkpt lat="45.5658697" lon="11.2264127"><ele>374.0</ele><time>2026-04-25T07:38:30.104Z</time></trkpt><trkpt lat="45.5658309" lon="11.2265616"><ele>374.0</ele><time>2026-04-25T07:38:32.103Z</time></trkpt><trkpt lat="45.5657872" lon="11.2266461"><ele>374.0</ele><time>2026-04-25T07:38:33.104Z</time></trkpt><trkpt lat="45.5657108" lon="11.2267589"><ele>375.0</ele><time>2026-04-25T07:38:35.104Z</time></trkpt><trkpt lat="45.5656821" lon="11.2268925"><ele>376.0</ele><time>2026-04-25T07:38:37.105Z</time></trkpt><trkpt lat="45.5656407" lon="11.2270531"><ele>377.0</ele><time>2026-04-25T07:38:39.103Z</time></trkpt><trkpt lat="45.5655947" lon="11.2271191"><ele>378.0</ele><time>2026-04-25T07:38:40.104Z</time></trkpt><trkpt lat="45.5655361" lon="11.2271803"><ele>379.0</ele><time>2026-04-25T07:38:41.104Z</time></trkpt><trkpt lat="45.5654862" lon="11.2272375"><ele>380.0</ele><time>2026-04-25T07:38:42.103Z</time></trkpt><trkpt lat="45.5653963" lon="11.2273437"><ele>378.8</ele><time>2026-04-25T07:38:44.104Z</time></trkpt><trkpt lat="45.5653458" lon="11.2274032"><ele>377.6</ele><time>2026-04-25T07:38:45.103Z</time></trkpt><trkpt lat="45.5652712" lon="11.2275123"><ele>376.4</ele><time>2026-04-25T07:38:47.103Z</time></trkpt><trkpt lat="45.5652109" lon="11.2275947"><ele>375.2</ele><time>2026-04-25T07:38:49.104Z</time></trkpt><trkpt lat="45.5650984" lon="11.2276647"><ele>374.0</ele><time>2026-04-25T07:38:51.104Z</time></trkpt><trkpt lat="45.5650211" lon="11.2277056"><ele>374.0</ele><time>2026-04-25T07:38:52.103Z</time></trkpt><trkpt lat="45.5649396" lon="11.227754"><ele>374.0</ele><time>2026-04-25T07:38:53.104Z</time></trkpt><trkpt lat="45.5648527" lon="11.2278101"><ele>374.0</ele><time>2026-04-25T07:38:54.104Z</time></trkpt><trkpt lat="45.5647613" lon="11.2278669"><ele>374.0</ele><time>2026-04-25T07:38:55.103Z</time></trkpt><trkpt lat="45.5646681" lon="11.2279247"><ele>374.0</ele><time>2026-04-25T07:38:56.103Z</time></trkpt><trkpt lat="45.5645721" lon="11.2279827"><ele>374.0</ele><time>2026-04-25T07:38:57.103Z</time></trkpt><trkpt lat="45.5644702" lon="11.2280381"><ele>374.0</ele><time>2026-04-25T07:38:58.103Z</time></trkpt><trkpt lat="45.5643612" lon="11.2280876"><ele>374.0</ele><time>2026-04-25T07:38:59.103Z</time></trkpt><trkpt lat="45.5642482" lon="11.2281254"><ele>374.0</ele><time>2026-04-25T07:39:00.103Z</time></trkpt><trkpt lat="45.5641276" lon="11.2281489"><ele>374.0</ele><time>2026-04-25T07:39:01.103Z</time></trkpt><trkpt lat="45.564001" lon="11.2281545"><ele>374.0</ele><time>2026-04-25T07:39:02.103Z</time></trkpt><trkpt lat="45.5638715" lon="11.2281517"><ele>374.0</ele><time>2026-04-25T07:39:03.104Z</time></trkpt><trkpt lat="45.5637373" lon="11.2281317"><ele>374.0</ele><time>2026-04-25T07:39:04.103Z</time></trkpt><trkpt lat="45.5636019" lon="11.2280916"><ele>370.25</ele><time>2026-04-25T07:39:05.104Z</time></trkpt><trkpt lat="45.5634689" lon="11.2280362"><ele>366.5</ele><time>2026-04-25T07:39:06.103Z</time></trkpt><trkpt lat="45.5633286" lon="11.227978"><ele>362.75</ele><time>2026-04-25T07:39:07.103Z</time></trkpt><trkpt lat="45.5631849" lon="11.2279146"><ele>359.0</ele><time>2026-04-25T07:39:08.103Z</time></trkpt><trkpt lat="45.56304" lon="11.2278488"><ele>359.0</ele><time>2026-04-25T07:39:09.104Z</time></trkpt><trkpt lat="45.5629" lon="11.2277881"><ele>359.0</ele><time>2026-04-25T07:39:10.103Z</time></trkpt><trkpt lat="45.5627606" lon="11.2277324"><ele>359.0</ele><time>2026-04-25T07:39:11.104Z</time></trkpt><trkpt lat="45.5626252" lon="11.2276775"><ele>359.0</ele><time>2026-04-25T07:39:12.103Z</time></trkpt><trkpt lat="45.5624902" lon="11.2276227"><ele>358.25</ele><time>2026-04-25T07:39:13.103Z</time></trkpt><trkpt lat="45.5623551" lon="11.2275681"><ele>357.5</ele><time>2026-04-25T07:39:14.103Z</time></trkpt><trkpt lat="45.5622178" lon="11.2275164"><ele>356.75</ele><time>2026-04-25T07:39:15.103Z</time></trkpt><trkpt lat="45.5620778" lon="11.2274588"><ele>356.0</ele><time>2026-04-25T07:39:16.103Z</time></trkpt><trkpt lat="45.5619334" lon="11.2273998"><ele>356.0</ele><time>2026-04-25T07:39:17.104Z</time></trkpt><trkpt lat="45.5617826" lon="11.2273369"><ele>356.0</ele><time>2026-04-25T07:39:18.103Z</time></trkpt><trkpt lat="45.5616306" lon="11.227272"><ele>356.0</ele><time>2026-04-25T07:39:19.103Z</time></trkpt><trkpt lat="45.5614792" lon="11.2272147"><ele>352.33333333333337</ele><time>2026-04-25T07:39:20.103Z</time></trkpt><trkpt lat="45.5613216" lon="11.2271603"><ele>348.6666666666667</ele><time>2026-04-25T07:39:21.104Z</time></trkpt><trkpt lat="45.5611596" lon="11.2271127"><ele>345.0</ele><time>2026-04-25T07:39:22.104Z</time></trkpt><trkpt lat="45.5609949" lon="11.2270785"><ele>345.0</ele><time>2026-04-25T07:39:23.103Z</time></trkpt><trkpt lat="45.5608293" lon="11.2270556"><ele>345.0</ele><time>2026-04-25T07:39:24.104Z</time></trkpt><trkpt lat="45.560663" lon="11.2270448"><ele>345.0</ele><time>2026-04-25T07:39:25.104Z</time></trkpt><trkpt lat="45.5604946" lon="11.2270592"><ele>345.3333333333333</ele><time>2026-04-25T07:39:26.104Z</time></trkpt><trkpt lat="45.5603207" lon="11.2270949"><ele>345.66666666666663</ele><time>2026-04-25T07:39:27.103Z</time></trkpt><trkpt lat="45.5601487" lon="11.2271459"><ele>346.0</ele><time>2026-04-25T07:39:28.104Z</time></trkpt><trkpt lat="45.5599761" lon="11.2271983"><ele>346.0</ele><time>2026-04-25T07:39:29.104Z</time></trkpt><trkpt lat="45.5598086" lon="11.2272429"><ele>346.0</ele><time>2026-04-25T07:39:30.103Z</time></trkpt><trkpt lat="45.5596434" lon="11.2272883"><ele>346.0</ele><time>2026-04-25T07:39:31.103Z</time></trkpt><trkpt lat="45.5594813" lon="11.227331"><ele>342.0</ele><time>2026-04-25T07:39:32.105Z</time></trkpt><trkpt lat="45.5593252" lon="11.2273758"><ele>338.0</ele><time>2026-04-25T07:39:33.103Z</time></trkpt><trkpt lat="45.5591727" lon="11.2274208"><ele>334.0</ele><time>2026-04-25T07:39:34.103Z</time></trkpt><trkpt lat="45.5590225" lon="11.2274669"><ele>334.0</ele><time>2026-04-25T07:39:35.104Z</time></trkpt><trkpt lat="45.5588719" lon="11.2275108"><ele>334.0</ele><time>2026-04-25T07:39:36.103Z</time></trkpt><trkpt lat="45.5587173" lon="11.2275504"><ele>334.0</ele><time>2026-04-25T07:39:37.104Z</time></trkpt><trkpt lat="45.5585591" lon="11.2275837"><ele>331.3333333333333</ele><time>2026-04-25T07:39:38.104Z</time></trkpt><trkpt lat="45.5583977" lon="11.2276018"><ele>328.6666666666667</ele><time>2026-04-25T07:39:39.103Z</time></trkpt><trkpt lat="45.5582277" lon="11.2276032"><ele>326.0</ele><time>2026-04-25T07:39:40.103Z</time></trkpt><trkpt lat="45.5580544" lon="11.2275974"><ele>326.0</ele><time>2026-04-25T07:39:41.104Z</time></trkpt><trkpt lat="45.5578821" lon="11.227592"><ele>326.0</ele><time>2026-04-25T07:39:42.104Z</time></trkpt><trkpt lat="45.5577134" lon="11.2275883"><ele>326.0</ele><time>2026-04-25T07:39:43.104Z</time></trkpt><trkpt lat="45.5575456" lon="11.2275775"><ele>324.0</ele><time>2026-04-25T07:39:44.104Z</time></trkpt><trkpt lat="45.5573876" lon="11.2275556"><ele>322.0</ele><time>2026-04-25T07:39:45.104Z</time></trkpt><trkpt lat="45.5572329" lon="11.2275323"><ele>320.0</ele><time>2026-04-25T07:39:46.103Z</time></trkpt><trkpt lat="45.5570815" lon="11.2275174"><ele>318.6666666666667</ele><time>2026-04-25T07:39:47.103Z</time></trkpt><trkpt lat="45.5569263" lon="11.2275292"><ele>317.3333333333333</ele><time>2026-04-25T07:39:48.103Z</time></trkpt><trkpt lat="45.5567681" lon="11.2275635"><ele>316.0</ele><time>2026-04-25T07:39:49.105Z</time></trkpt><trkpt lat="45.5566088" lon="11.2276027"><ele>316.0</ele><time>2026-04-25T07:39:50.103Z</time></trkpt><trkpt lat="45.5564481" lon="11.2276441"><ele>316.0</ele><time>2026-04-25T07:39:51.104Z</time></trkpt><trkpt lat="45.556284" lon="11.2276857"><ele>316.0</ele><time>2026-04-25T07:39:52.103Z</time></trkpt><trkpt lat="45.5561206" lon="11.2277275"><ele>314.0</ele><time>2026-04-25T07:39:53.104Z</time></trkpt><trkpt lat="45.5559581" lon="11.2277641"><ele>312.0</ele><time>2026-04-25T07:39:54.103Z</time></trkpt><trkpt lat="45.5557947" lon="11.2277964"><ele>310.0</ele><time>2026-04-25T07:39:55.103Z</time></trkpt><trkpt lat="45.5556305" lon="11.2278227"><ele>310.0</ele><time>2026-04-25T07:39:56.103Z</time></trkpt><trkpt lat="45.5554665" lon="11.2278382"><ele>310.0</ele><time>2026-04-25T07:39:57.104Z</time></trkpt><trkpt lat="45.5552994" lon="11.2278498"><ele>310.0</ele><time>2026-04-25T07:39:58.103Z</time></trkpt><trkpt lat="45.555132" lon="11.2278634"><ele>308.0</ele><time>2026-04-25T07:39:59.103Z</time></trkpt><trkpt lat="45.5549632" lon="11.2278716"><ele>306.0</ele><time>2026-04-25T07:40:00.104Z</time></trkpt><trkpt lat="45.5547935" lon="11.2278676"><ele>304.0</ele><time>2026-04-25T07:40:01.104Z</time></trkpt><trkpt lat="45.5546211" lon="11.2278539"><ele>302.66666666666663</ele><time>2026-04-25T07:40:02.103Z</time></trkpt><trkpt lat="45.5544451" lon="11.2278321"><ele>301.3333333333333</ele><time>2026-04-25T07:40:03.105Z</time></trkpt><trkpt lat="45.5542679" lon="11.2278077"><ele>300.0</ele><time>2026-04-25T07:40:04.104Z</time></trkpt><trkpt lat="45.5540934" lon="11.2277817"><ele>300.0</ele><time>2026-04-25T07:40:05.103Z</time></trkpt><trkpt lat="45.5539208" lon="11.2277563"><ele>300.0</ele><time>2026-04-25T07:40:06.103Z</time></trkpt><trkpt lat="45.553749" lon="11.2277342"><ele>300.0</ele><time>2026-04-25T07:40:07.103Z</time></trkpt><trkpt lat="45.5535746" lon="11.2277145"><ele>298.0</ele><time>2026-04-25T07:40:08.103Z</time></trkpt><trkpt lat="45.5534011" lon="11.2276969"><ele>296.0</ele><time>2026-04-25T07:40:09.103Z</time></trkpt><trkpt lat="45.5532251" lon="11.2276812"><ele>294.0</ele><time>2026-04-25T07:40:10.103Z</time></trkpt><trkpt lat="45.5530453" lon="11.2276667"><ele>293.3333333333333</ele><time>2026-04-25T07:40:11.103Z</time></trkpt><trkpt lat="45.5528671" lon="11.2276455"><ele>292.66666666666663</ele><time>2026-04-25T07:40:12.103Z</time></trkpt><trkpt lat="45.5526879" lon="11.227628"><ele>292.0</ele><time>2026-04-25T07:40:13.103Z</time></trkpt><trkpt lat="45.5525089" lon="11.2276175"><ele>292.0</ele><time>2026-04-25T07:40:14.104Z</time></trkpt><trkpt lat="45.5523303" lon="11.2276229"><ele>292.0</ele><time>2026-04-25T07:40:15.103Z</time></trkpt><trkpt lat="45.5521527" lon="11.2276449"><ele>292.0</ele><time>2026-04-25T07:40:16.103Z</time></trkpt><trkpt lat="45.5519749" lon="11.2276761"><ele>289.66666666666663</ele><time>2026-04-25T07:40:17.104Z</time></trkpt><trkpt lat="45.5518005" lon="11.2277157"><ele>287.3333333333333</ele><time>2026-04-25T07:40:18.103Z</time></trkpt><trkpt lat="45.5516288" lon="11.2277627"><ele>285.0</ele><time>2026-04-25T07:40:19.103Z</time></trkpt><trkpt lat="45.551457" lon="11.2278196"><ele>285.0</ele><time>2026-04-25T07:40:20.103Z</time></trkpt><trkpt lat="45.5512871" lon="11.2278856"><ele>285.0</ele><time>2026-04-25T07:40:21.103Z</time></trkpt><trkpt lat="45.5511181" lon="11.2279565"><ele>285.0</ele><time>2026-04-25T07:40:22.103Z</time></trkpt><trkpt lat="45.55095" lon="11.2280282"><ele>285.3333333333333</ele><time>2026-04-25T07:40:23.103Z</time></trkpt><trkpt lat="45.5507824" lon="11.2281015"><ele>285.66666666666663</ele><time>2026-04-25T07:40:24.104Z</time></trkpt><trkpt lat="45.5506142" lon="11.2281702"><ele>286.0</ele><time>2026-04-25T07:40:25.103Z</time></trkpt><trkpt lat="45.5504487" lon="11.2282395"><ele>285.0</ele><time>2026-04-25T07:40:26.104Z</time></trkpt><trkpt lat="45.5502833" lon="11.2283042"><ele>284.0</ele><time>2026-04-25T07:40:27.103Z</time></trkpt><trkpt lat="45.5501199" lon="11.2283687"><ele>283.0</ele><time>2026-04-25T07:40:28.103Z</time></trkpt><trkpt lat="45.5499583" lon="11.2284335"><ele>283.0</ele><time>2026-04-25T07:40:29.103Z</time></trkpt><trkpt lat="45.5497952" lon="11.2285018"><ele>283.0</ele><time>2026-04-25T07:40:30.104Z</time></trkpt><trkpt lat="45.549637" lon="11.2285772"><ele>283.0</ele><time>2026-04-25T07:40:31.103Z</time></trkpt><trkpt lat="45.5494833" lon="11.2286586"><ele>281.0</ele><time>2026-04-25T07:40:32.103Z</time></trkpt><trkpt lat="45.5493337" lon="11.228726"><ele>279.0</ele><time>2026-04-25T07:40:33.104Z</time></trkpt><trkpt lat="45.5491842" lon="11.228779"><ele>277.0</ele><time>2026-04-25T07:40:34.104Z</time></trkpt><trkpt lat="45.5490303" lon="11.2288287"><ele>277.0</ele><time>2026-04-25T07:40:35.103Z</time></trkpt><trkpt lat="45.5488708" lon="11.2288729"><ele>277.0</ele><time>2026-04-25T07:40:36.103Z</time></trkpt><trkpt lat="45.5487069" lon="11.2289147"><ele>277.0</ele><time>2026-04-25T07:40:37.103Z</time></trkpt><trkpt lat="45.5485389" lon="11.22896"><ele>279.0</ele><time>2026-04-25T07:40:38.103Z</time></trkpt><trkpt lat="45.5483687" lon="11.2290056"><ele>281.0</ele><time>2026-04-25T07:40:39.104Z</time></trkpt><trkpt lat="45.5481942" lon="11.2290515"><ele>283.0</ele><time>2026-04-25T07:40:40.104Z</time></trkpt><trkpt lat="45.5480214" lon="11.2290977"><ele>281.0</ele><time>2026-04-25T07:40:41.104Z</time></trkpt><trkpt lat="45.5478466" lon="11.2291473"><ele>279.0</ele><time>2026-04-25T07:40:42.104Z</time></trkpt><trkpt lat="45.5476748" lon="11.2291961"><ele>277.0</ele><time>2026-04-25T07:40:43.103Z</time></trkpt><trkpt lat="45.5475069" lon="11.229243"><ele>277.0</ele><time>2026-04-25T07:40:44.104Z</time></trkpt><trkpt lat="45.5473441" lon="11.2292832"><ele>277.0</ele><time>2026-04-25T07:40:45.105Z</time></trkpt><trkpt lat="45.5471851" lon="11.2293228"><ele>277.0</ele><time>2026-04-25T07:40:46.103Z</time></trkpt><trkpt lat="45.5470315" lon="11.2293626"><ele>274.66666666666663</ele><time>2026-04-25T07:40:47.103Z</time></trkpt><trkpt lat="45.5468806" lon="11.229401"><ele>272.3333333333333</ele><time>2026-04-25T07:40:48.104Z</time></trkpt><trkpt lat="45.54673" lon="11.2294412"><ele>270.0</ele><time>2026-04-25T07:40:49.103Z</time></trkpt><trkpt lat="45.5465779" lon="11.2294842"><ele>270.0</ele><time>2026-04-25T07:40:50.103Z</time></trkpt><trkpt lat="45.5464218" lon="11.2295269"><ele>270.0</ele><time>2026-04-25T07:40:51.103Z</time></trkpt><trkpt lat="45.5462633" lon="11.2295697"><ele>270.0</ele><time>2026-04-25T07:40:52.105Z</time></trkpt><trkpt lat="45.5460991" lon="11.2296108"><ele>268.6666666666667</ele><time>2026-04-25T07:40:53.104Z</time></trkpt><trkpt lat="45.5459324" lon="11.2296459"><ele>267.33333333333337</ele><time>2026-04-25T07:40:54.103Z</time></trkpt><trkpt lat="45.545762" lon="11.2296803"><ele>266.0</ele><time>2026-04-25T07:40:55.104Z</time></trkpt><trkpt lat="45.5455873" lon="11.2297121"><ele>266.0</ele><time>2026-04-25T07:40:56.103Z</time></trkpt><trkpt lat="45.5454079" lon="11.2297479"><ele>266.0</ele><time>2026-04-25T07:40:57.103Z</time></trkpt><trkpt lat="45.5452282" lon="11.2297829"><ele>266.0</ele><time>2026-04-25T07:40:58.103Z</time></trkpt><trkpt lat="45.5450561" lon="11.2298188"><ele>269.0</ele><time>2026-04-25T07:40:59.103Z</time></trkpt><trkpt lat="45.5448878" lon="11.2298553"><ele>272.0</ele><time>2026-04-25T07:41:00.103Z</time></trkpt><trkpt lat="45.5447193" lon="11.2298893"><ele>275.0</ele><time>2026-04-25T07:41:01.104Z</time></trkpt><trkpt lat="45.5445464" lon="11.2299246"><ele>271.0</ele><time>2026-04-25T07:41:02.103Z</time></trkpt><trkpt lat="45.5443674" lon="11.2299597"><ele>267.0</ele><time>2026-04-25T07:41:03.104Z</time></trkpt><trkpt lat="45.5441866" lon="11.2299973"><ele>263.0</ele><time>2026-04-25T07:41:04.103Z</time></trkpt><trkpt lat="45.5440002" lon="11.2300359"><ele>263.0</ele><time>2026-04-25T07:41:05.104Z</time></trkpt><trkpt lat="45.5438112" lon="11.2300751"><ele>263.0</ele><time>2026-04-25T07:41:06.105Z</time></trkpt><trkpt lat="45.5436184" lon="11.2301104"><ele>263.0</ele><time>2026-04-25T07:41:07.103Z</time></trkpt><trkpt lat="45.5434271" lon="11.2301487"><ele>260.0</ele><time>2026-04-25T07:41:08.104Z</time></trkpt><trkpt lat="45.5432365" lon="11.2301889"><ele>257.0</ele><time>2026-04-25T07:41:09.104Z</time></trkpt><trkpt lat="45.5430475" lon="11.2302282"><ele>254.0</ele><time>2026-04-25T07:41:10.103Z</time></trkpt><trkpt lat="45.5428605" lon="11.2302653"><ele>252.66666666666669</ele><time>2026-04-25T07:41:11.105Z</time></trkpt><trkpt lat="45.5426766" lon="11.2303001"><ele>251.33333333333331</ele><time>2026-04-25T07:41:12.104Z</time></trkpt><trkpt lat="45.5424959" lon="11.2303351"><ele>250.0</ele><time>2026-04-25T07:41:13.103Z</time></trkpt><trkpt lat="45.5423206" lon="11.2303748"><ele>250.0</ele><time>2026-04-25T07:41:14.104Z</time></trkpt><trkpt lat="45.542148" lon="11.2304172"><ele>250.0</ele><time>2026-04-25T07:41:15.103Z</time></trkpt><trkpt lat="45.541978" lon="11.2304694"><ele>250.0</ele><time>2026-04-25T07:41:16.104Z</time></trkpt><trkpt lat="45.5418069" lon="11.2305327"><ele>249.0</ele><time>2026-04-25T07:41:17.105Z</time></trkpt><trkpt lat="45.5416339" lon="11.2305878"><ele>248.0</ele><time>2026-04-25T07:41:18.103Z</time></trkpt><trkpt lat="45.5414593" lon="11.2306476"><ele>247.0</ele><time>2026-04-25T07:41:19.103Z</time></trkpt><trkpt lat="45.541284" lon="11.2307235"><ele>245.0</ele><time>2026-04-25T07:41:20.104Z</time></trkpt><trkpt lat="45.5411118" lon="11.2308177"><ele>243.0</ele><time>2026-04-25T07:41:21.103Z</time></trkpt><trkpt lat="45.5409442" lon="11.2309241"><ele>241.0</ele><time>2026-04-25T07:41:22.103Z</time></trkpt><trkpt lat="45.5407754" lon="11.2310333"><ele>241.0</ele><time>2026-04-25T07:41:23.104Z</time></trkpt><trkpt lat="45.5406083" lon="11.2311439"><ele>241.0</ele><time>2026-04-25T07:41:24.103Z</time></trkpt><trkpt lat="45.5404415" lon="11.2312502"><ele>241.0</ele><time>2026-04-25T07:41:25.103Z</time></trkpt><trkpt lat="45.5402753" lon="11.2313551"><ele>240.66666666666666</ele><time>2026-04-25T07:41:26.104Z</time></trkpt><trkpt lat="45.5401091" lon="11.2314595"><ele>240.33333333333331</ele><time>2026-04-25T07:41:27.104Z</time></trkpt><trkpt lat="45.5399444" lon="11.2315649"><ele>240.0</ele><time>2026-04-25T07:41:28.103Z</time></trkpt><trkpt lat="45.53978" lon="11.2316669"><ele>240.33333333333331</ele><time>2026-04-25T07:41:29.103Z</time></trkpt><trkpt lat="45.5396151" lon="11.2317725"><ele>240.66666666666666</ele><time>2026-04-25T07:41:30.103Z</time></trkpt><trkpt lat="45.5394523" lon="11.231877"><ele>241.0</ele><time>2026-04-25T07:41:31.103Z</time></trkpt><trkpt lat="45.5392835" lon="11.2319831"><ele>241.0</ele><time>2026-04-25T07:41:32.103Z</time></trkpt><trkpt lat="45.5391086" lon="11.2320984"><ele>241.0</ele><time>2026-04-25T07:41:33.103Z</time></trkpt><trkpt lat="45.5389299" lon="11.2322156"><ele>241.0</ele><time>2026-04-25T07:41:34.104Z</time></trkpt><trkpt lat="45.5387466" lon="11.2323336"><ele>243.66666666666666</ele><time>2026-04-25T07:41:35.104Z</time></trkpt><trkpt lat="45.5385628" lon="11.2324459"><ele>246.33333333333331</ele><time>2026-04-25T07:41:36.104Z</time></trkpt><trkpt lat="45.5383825" lon="11.2325455"><ele>249.0</ele><time>2026-04-25T07:41:37.103Z</time></trkpt><trkpt lat="45.53821" lon="11.2326251"><ele>249.0</ele><time>2026-04-25T07:41:38.103Z</time></trkpt><trkpt lat="45.5380471" lon="11.2326937"><ele>249.0</ele><time>2026-04-25T07:41:39.104Z</time></trkpt><trkpt lat="45.537886" lon="11.2327556"><ele>249.0</ele><time>2026-04-25T07:41:40.104Z</time></trkpt><trkpt lat="45.5377216" lon="11.2328074"><ele>247.0</ele><time>2026-04-25T07:41:41.103Z</time></trkpt><trkpt lat="45.5375488" lon="11.2328557"><ele>245.0</ele><time>2026-04-25T07:41:42.103Z</time></trkpt><trkpt lat="45.5373682" lon="11.2328994"><ele>243.0</ele><time>2026-04-25T07:41:43.103Z</time></trkpt><trkpt lat="45.5371821" lon="11.2329303"><ele>240.0</ele><time>2026-04-25T07:41:44.104Z</time></trkpt><trkpt lat="45.536991" lon="11.2329529"><ele>237.0</ele><time>2026-04-25T07:41:45.103Z</time></trkpt><trkpt lat="45.5367993" lon="11.2329665"><ele>234.0</ele><time>2026-04-25T07:41:46.103Z</time></trkpt><trkpt lat="45.5366064" lon="11.2329669"><ele>234.0</ele><time>2026-04-25T07:41:47.104Z</time></trkpt><trkpt lat="45.5364131" lon="11.2329569"><ele>234.0</ele><time>2026-04-25T07:41:48.104Z</time></trkpt><trkpt lat="45.5362183" lon="11.2329521"><ele>234.0</ele><time>2026-04-25T07:41:49.103Z</time></trkpt><trkpt lat="45.53602" lon="11.2329488"><ele>231.33333333333331</ele><time>2026-04-25T07:41:50.103Z</time></trkpt><trkpt lat="45.5358193" lon="11.2329433"><ele>228.66666666666666</ele><time>2026-04-25T07:41:51.103Z</time></trkpt><trkpt lat="45.5356203" lon="11.2329335"><ele>226.0</ele><time>2026-04-25T07:41:52.103Z</time></trkpt><trkpt lat="45.5354197" lon="11.2329262"><ele>224.33333333333331</ele><time>2026-04-25T07:41:53.103Z</time></trkpt><trkpt lat="45.5352198" lon="11.2329263"><ele>222.66666666666669</ele><time>2026-04-25T07:41:54.103Z</time></trkpt><trkpt lat="45.5350212" lon="11.2329213"><ele>221.0</ele><time>2026-04-25T07:41:55.103Z</time></trkpt><trkpt lat="45.5348229" lon="11.2329135"><ele>221.0</ele><time>2026-04-25T07:41:56.104Z</time></trkpt><trkpt lat="45.5346265" lon="11.2329084"><ele>221.0</ele><time>2026-04-25T07:41:57.105Z</time></trkpt><trkpt lat="45.5344305" lon="11.2329034"><ele>221.0</ele><time>2026-04-25T07:41:58.104Z</time></trkpt><trkpt lat="45.5342362" lon="11.2329003"><ele>219.0</ele><time>2026-04-25T07:41:59.103Z</time></trkpt><trkpt lat="45.5340436" lon="11.2328946"><ele>217.0</ele><time>2026-04-25T07:42:00.103Z</time></trkpt><trkpt lat="45.5338523" lon="11.2328887"><ele>215.0</ele><time>2026-04-25T07:42:01.104Z</time></trkpt><trkpt lat="45.5336619" lon="11.2328833"><ele>214.0</ele><time>2026-04-25T07:42:02.104Z</time></trkpt><trkpt lat="45.5334746" lon="11.2328766"><ele>213.0</ele><time>2026-04-25T07:42:03.104Z</time></trkpt><trkpt lat="45.5332938" lon="11.2328745"><ele>212.0</ele><time>2026-04-25T07:42:04.103Z</time></trkpt><trkpt lat="45.5331217" lon="11.2328787"><ele>212.0</ele><time>2026-04-25T07:42:05.103Z</time></trkpt><trkpt lat="45.5329549" lon="11.2328888"><ele>212.0</ele><time>2026-04-25T07:42:06.103Z</time></trkpt><trkpt lat="45.5327952" lon="11.2329105"><ele>212.0</ele><time>2026-04-25T07:42:07.104Z</time></trkpt><trkpt lat="45.5326336" lon="11.2329444"><ele>210.66666666666669</ele><time>2026-04-25T07:42:08.103Z</time></trkpt><trkpt lat="45.53247" lon="11.2329794"><ele>209.33333333333331</ele><time>2026-04-25T07:42:09.103Z</time></trkpt><trkpt lat="45.5323018" lon="11.233009"><ele>208.0</ele><time>2026-04-25T07:42:10.104Z</time></trkpt><trkpt lat="45.532128" lon="11.2330405"><ele>207.66666666666666</ele><time>2026-04-25T07:42:11.104Z</time></trkpt><trkpt lat="45.5319543" lon="11.2330711"><ele>207.33333333333331</ele><time>2026-04-25T07:42:12.104Z</time></trkpt><trkpt lat="45.5317825" lon="11.2330968"><ele>207.0</ele><time>2026-04-25T07:42:13.104Z</time></trkpt><trkpt lat="45.5316134" lon="11.2331218"><ele>207.33333333333331</ele><time>2026-04-25T07:42:14.103Z</time></trkpt><trkpt lat="45.5314466" lon="11.2331446"><ele>207.66666666666666</ele><time>2026-04-25T07:42:15.103Z</time></trkpt><trkpt lat="45.5312797" lon="11.2331688"><ele>208.0</ele><time>2026-04-25T07:42:16.105Z</time></trkpt><trkpt lat="45.531112" lon="11.2331858"><ele>206.66666666666666</ele><time>2026-04-25T07:42:17.103Z</time></trkpt><trkpt lat="45.5309445" lon="11.233205"><ele>205.33333333333331</ele><time>2026-04-25T07:42:18.104Z</time></trkpt><trkpt lat="45.5307749" lon="11.2332177"><ele>204.0</ele><time>2026-04-25T07:42:19.103Z</time></trkpt><trkpt lat="45.5306035" lon="11.2332296"><ele>204.0</ele><time>2026-04-25T07:42:20.104Z</time></trkpt><trkpt lat="45.5304296" lon="11.2332382"><ele>204.0</ele><time>2026-04-25T07:42:21.104Z</time></trkpt><trkpt lat="45.5302528" lon="11.2332446"><ele>204.0</ele><time>2026-04-25T07:42:22.103Z</time></trkpt><trkpt lat="45.5300765" lon="11.2332507"><ele>203.0</ele><time>2026-04-25T07:42:23.105Z</time></trkpt><trkpt lat="45.5299056" lon="11.233256"><ele>202.0</ele><time>2026-04-25T07:42:24.105Z</time></trkpt><trkpt lat="45.5297421" lon="11.2332634"><ele>201.0</ele><time>2026-04-25T07:42:25.103Z</time></trkpt><trkpt lat="45.5295839" lon="11.2332719"><ele>200.5</ele><time>2026-04-25T07:42:26.103Z</time></trkpt><trkpt lat="45.5294311" lon="11.2332806"><ele>200.0</ele><time>2026-04-25T07:42:27.104Z</time></trkpt><trkpt lat="45.5292833" lon="11.2332921"><ele>199.5</ele><time>2026-04-25T07:42:28.104Z</time></trkpt><trkpt lat="45.5291406" lon="11.2333008"><ele>199.0</ele><time>2026-04-25T07:42:29.105Z</time></trkpt><trkpt lat="45.5290086" lon="11.233312"><ele>199.0</ele><time>2026-04-25T07:42:30.103Z</time></trkpt><trkpt lat="45.5288862" lon="11.2333256"><ele>199.0</ele><time>2026-04-25T07:42:31.103Z</time></trkpt><trkpt lat="45.5287747" lon="11.2333378"><ele>199.0</ele><time>2026-04-25T07:42:32.104Z</time></trkpt><trkpt lat="45.528675" lon="11.2333477"><ele>199.0</ele><time>2026-04-25T07:42:33.103Z</time></trkpt><trkpt lat="45.528581" lon="11.2333448"><ele>199.0</ele><time>2026-04-25T07:42:34.104Z</time></trkpt><trkpt lat="45.528491" lon="11.233318"><ele>198.33333333333331</ele><time>2026-04-25T07:42:35.103Z</time></trkpt><trkpt lat="45.5284054" lon="11.2332806"><ele>197.66666666666666</ele><time>2026-04-25T07:42:36.104Z</time></trkpt><trkpt lat="45.5283255" lon="11.2332834"><ele>197.0</ele><time>2026-04-25T07:42:37.105Z</time></trkpt><trkpt lat="45.5282539" lon="11.2333291"><ele>196.33333333333331</ele><time>2026-04-25T07:42:38.103Z</time></trkpt><trkpt lat="45.5282031" lon="11.2334129"><ele>195.66666666666666</ele><time>2026-04-25T07:42:39.104Z</time></trkpt><trkpt lat="45.5281794" lon="11.2335182"><ele>195.0</ele><time>2026-04-25T07:42:40.103Z</time></trkpt><trkpt lat="45.5281715" lon="11.2336249"><ele>195.0</ele><time>2026-04-25T07:42:41.103Z</time></trkpt><trkpt lat="45.528154" lon="11.2337225"><ele>195.0</ele><time>2026-04-25T07:42:42.105Z</time></trkpt><trkpt lat="45.528112" lon="11.2338044"><ele>195.0</ele><time>2026-04-25T07:42:43.103Z</time></trkpt><trkpt lat="45.5280482" lon="11.233865"><ele>195.0</ele><time>2026-04-25T07:42:44.104Z</time></trkpt><trkpt lat="45.5279705" lon="11.233912"><ele>195.0</ele><time>2026-04-25T07:42:45.105Z</time></trkpt><trkpt lat="45.5278864" lon="11.2339563"><ele>195.0</ele><time>2026-04-25T07:42:46.105Z</time></trkpt><trkpt lat="45.5277985" lon="11.2339993"><ele>195.2</ele><time>2026-04-25T07:42:47.104Z</time></trkpt><trkpt lat="45.5277095" lon="11.2340419"><ele>195.4</ele><time>2026-04-25T07:42:48.105Z</time></trkpt><trkpt lat="45.5276176" lon="11.234082"><ele>195.60000000000002</ele><time>2026-04-25T07:42:49.104Z</time></trkpt><trkpt lat="45.5275271" lon="11.2341223"><ele>195.8</ele><time>2026-04-25T07:42:50.105Z</time></trkpt><trkpt lat="45.5274414" lon="11.2341603"><ele>196.0</ele><time>2026-04-25T07:42:51.105Z</time></trkpt><trkpt lat="45.527359" lon="11.2341946"><ele>195.99999999999997</ele><time>2026-04-25T07:42:52.105Z</time></trkpt><trkpt lat="45.52728" lon="11.234225"><ele>196.0</ele><time>2026-04-25T07:42:53.105Z</time></trkpt><trkpt lat="45.5272004" lon="11.2342515"><ele>196.0</ele><time>2026-04-25T07:42:54.105Z</time></trkpt><trkpt lat="45.5271191" lon="11.2342806"><ele>196.0</ele><time>2026-04-25T07:42:55.105Z</time></trkpt><trkpt lat="45.5270341" lon="11.2343105"><ele>195.99999999999997</ele><time>2026-04-25T07:42:56.104Z</time></trkpt><trkpt lat="45.5269449" lon="11.2343414"><ele>196.0</ele><time>2026-04-25T07:42:57.105Z</time></trkpt><trkpt lat="45.5268519" lon="11.2343696"><ele>195.60000000000002</ele><time>2026-04-25T07:42:58.104Z</time></trkpt><trkpt lat="45.5267541" lon="11.2343949"><ele>195.2</ele><time>2026-04-25T07:42:59.105Z</time></trkpt><trkpt lat="45.5266558" lon="11.2344192"><ele>194.8</ele><time>2026-04-25T07:43:00.104Z</time></trkpt><trkpt lat="45.5265561" lon="11.2344448"><ele>194.39999999999998</ele><time>2026-04-25T07:43:01.105Z</time></trkpt><trkpt lat="45.5264539" lon="11.2344642"><ele>194.0</ele><time>2026-04-25T07:43:02.104Z</time></trkpt><trkpt lat="45.5263526" lon="11.2344856"><ele>194.0</ele><time>2026-04-25T07:43:03.105Z</time></trkpt><trkpt lat="45.526252" lon="11.2345057"><ele>194.0</ele><time>2026-04-25T07:43:04.105Z</time></trkpt><trkpt lat="45.5261525" lon="11.2345233"><ele>194.0</ele><time>2026-04-25T07:43:05.104Z</time></trkpt><trkpt lat="45.5260572" lon="11.2345407"><ele>194.0</ele><time>2026-04-25T07:43:06.104Z</time></trkpt><trkpt lat="45.5259658" lon="11.2345555"><ele>194.0</ele><time>2026-04-25T07:43:07.104Z</time></trkpt><trkpt lat="45.525879" lon="11.2345763"><ele>193.50000000000003</ele><time>2026-04-25T07:43:08.105Z</time></trkpt><trkpt lat="45.5257944" lon="11.2346029"><ele>193.0</ele><time>2026-04-25T07:43:09.105Z</time></trkpt><trkpt lat="45.5257137" lon="11.2346423"><ele>192.5</ele><time>2026-04-25T07:43:10.106Z</time></trkpt><trkpt lat="45.5256364" lon="11.2346992"><ele>192.0</ele><time>2026-04-25T07:43:11.106Z</time></trkpt><trkpt lat="45.5255617" lon="11.2347664"><ele>191.5</ele><time>2026-04-25T07:43:12.105Z</time></trkpt><trkpt lat="45.5254879" lon="11.234832"><ele>191.0</ele><time>2026-04-25T07:43:13.105Z</time></trkpt><trkpt lat="45.5254137" lon="11.2348964"><ele>191.0</ele><time>2026-04-25T07:43:14.105Z</time></trkpt><trkpt lat="45.5253358" lon="11.2349529"><ele>191.0</ele><time>2026-04-25T07:43:15.104Z</time></trkpt><trkpt lat="45.5252633" lon="11.23499"><ele>191.0</ele><time>2026-04-25T07:43:16.106Z</time></trkpt><trkpt lat="45.5251901" lon="11.2350182"><ele>191.0</ele><time>2026-04-25T07:43:17.105Z</time></trkpt><trkpt lat="45.5251168" lon="11.2350383"><ele>191.0</ele><time>2026-04-25T07:43:18.106Z</time></trkpt><trkpt lat="45.5250453" lon="11.2350584"><ele>191.0</ele><time>2026-04-25T07:43:19.105Z</time></trkpt><trkpt lat="45.5249804" lon="11.2350802"><ele>191.0</ele><time>2026-04-25T07:43:20.104Z</time></trkpt><trkpt lat="45.5248763" lon="11.2351168"><ele>191.0</ele><time>2026-04-25T07:43:22.104Z</time></trkpt><trkpt lat="45.5248139" lon="11.2351322"><ele>191.0</ele><time>2026-04-25T07:43:24.105Z</time></trkpt><trkpt lat="45.5247581" lon="11.2350443"><ele>191.0</ele><time>2026-04-25T07:43:27.104Z</time></trkpt><trkpt lat="45.5247423" lon="11.2349355"><ele>191.0</ele><time>2026-04-25T07:43:29.105Z</time></trkpt><trkpt lat="45.5247293" lon="11.234809"><ele>191.0</ele><time>2026-04-25T07:43:31.106Z</time></trkpt><trkpt lat="45.5247224" lon="11.2346717"><ele>190.4</ele><time>2026-04-25T07:43:33.104Z</time></trkpt><trkpt lat="45.5247161" lon="11.2345288"><ele>189.8</ele><time>2026-04-25T07:43:35.105Z</time></trkpt><trkpt lat="45.5247151" lon="11.2343849"><ele>189.20000000000002</ele><time>2026-04-25T07:43:37.105Z</time></trkpt><trkpt lat="45.5247096" lon="11.2342369"><ele>188.60000000000002</ele><time>2026-04-25T07:43:39.105Z</time></trkpt><trkpt lat="45.5247046" lon="11.234119"><ele>188.0</ele><time>2026-04-25T07:43:41.105Z</time></trkpt><trkpt lat="45.5246966" lon="11.2340263"><ele>187.5</ele><time>2026-04-25T07:43:43.104Z</time></trkpt><trkpt lat="45.5246899" lon="11.2339168"><ele>187.0</ele><time>2026-04-25T07:43:46.104Z</time></trkpt><trkpt lat="45.5246611" lon="11.2338161"><ele>186.5</ele><time>2026-04-25T07:43:51.105Z</time></trkpt><trkpt lat="45.5245515" lon="11.2338076"><ele>186.0</ele><time>2026-04-25T07:43:53.106Z</time></trkpt><trkpt lat="45.5244874" lon="11.2338122"><ele>185.5</ele><time>2026-04-25T07:43:54.104Z</time></trkpt><trkpt lat="45.5244151" lon="11.2338143"><ele>185.0</ele><time>2026-04-25T07:43:55.104Z</time></trkpt><trkpt lat="45.5243364" lon="11.2338129"><ele>184.66666666666666</ele><time>2026-04-25T07:43:56.104Z</time></trkpt><trkpt lat="45.5242548" lon="11.2338135"><ele>184.33333333333331</ele><time>2026-04-25T07:43:57.105Z</time></trkpt><trkpt lat="45.5241701" lon="11.2338118"><ele>184.0</ele><time>2026-04-25T07:43:58.105Z</time></trkpt><trkpt lat="45.5240855" lon="11.2338119"><ele>183.66666666666666</ele><time>2026-04-25T07:43:59.105Z</time></trkpt><trkpt lat="45.5240012" lon="11.2338091"><ele>183.33333333333334</ele><time>2026-04-25T07:44:00.106Z</time></trkpt><trkpt lat="45.523918" lon="11.2338072"><ele>183.0</ele><time>2026-04-25T07:44:01.104Z</time></trkpt><trkpt lat="45.5238449" lon="11.2338078"><ele>183.0</ele><time>2026-04-25T07:44:02.104Z</time></trkpt><trkpt lat="45.5237785" lon="11.2338122"><ele>183.0</ele><time>2026-04-25T07:44:03.104Z</time></trkpt><trkpt lat="45.5236676" lon="11.2338376"><ele>183.0</ele><time>2026-04-25T07:44:05.105Z</time></trkpt><trkpt lat="45.5236085" lon="11.2339251"><ele>183.0</ele><time>2026-04-25T07:44:07.105Z</time></trkpt><trkpt lat="45.5236084" lon="11.2340537"><ele>183.0</ele><time>2026-04-25T07:44:09.104Z</time></trkpt><trkpt lat="45.5236121" lon="11.2342116"><ele>183.16666666666666</ele><time>2026-04-25T07:44:11.104Z</time></trkpt><trkpt lat="45.5236259" lon="11.2343626"><ele>183.33333333333334</ele><time>2026-04-25T07:44:13.105Z</time></trkpt><trkpt lat="45.523647" lon="11.2345045"><ele>183.5</ele><time>2026-04-25T07:44:15.105Z</time></trkpt><trkpt lat="45.5236652" lon="11.2345952"><ele>183.66666666666669</ele><time>2026-04-25T07:44:17.104Z</time></trkpt><trkpt lat="45.5236275" lon="11.2346812"><ele>183.83333333333334</ele><time>2026-04-25T07:44:25.104Z</time></trkpt><trkpt lat="45.5235483" lon="11.234698"><ele>184.0</ele><time>2026-04-25T07:44:29.105Z</time></trkpt><trkpt lat="45.5234781" lon="11.234717"><ele>184.0</ele><time>2026-04-25T07:44:33.105Z</time></trkpt><trkpt lat="45.5234101" lon="11.2347427"><ele>184.0</ele><time>2026-04-25T07:44:36.105Z</time></trkpt><trkpt lat="45.5233452" lon="11.2347906"><ele>184.0</ele><time>2026-04-25T07:44:40.105Z</time></trkpt><trkpt lat="45.5234135" lon="11.2347531"><ele>184.0</ele><time>2026-04-25T07:47:44.105Z</time></trkpt><trkpt lat="45.5234746" lon="11.2347772"><ele>184.0</ele><time>2026-04-25T07:47:52.105Z</time></trkpt></trkseg><trkseg><trkpt lat="45.5233216" lon="11.2348812"><ele>188.16666666666666</ele><time>2026-04-25T08:21:50.106Z</time></trkpt><trkpt lat="45.5233586" lon="11.2347863"><ele>187.33333333333334</ele><time>2026-04-25T08:22:02.106Z</time></trkpt><trkpt lat="45.5234334" lon="11.2347656"><ele>186.5</ele><time>2026-04-25T08:22:05.107Z</time></trkpt><trkpt lat="45.5235359" lon="11.2347695"><ele>185.66666666666669</ele><time>2026-04-25T08:22:08.107Z</time></trkpt><trkpt lat="45.5236171" lon="11.2347603"><ele>184.83333333333334</ele><time>2026-04-25T08:22:10.105Z</time></trkpt><trkpt lat="45.5236857" lon="11.2347316"><ele>184.0</ele><time>2026-04-25T08:22:12.106Z</time></trkpt><trkpt lat="45.5237252" lon="11.2346362"><ele>184.0</ele><time>2026-04-25T08:22:15.106Z</time></trkpt><trkpt lat="45.5237407" lon="11.2345372"><ele>184.0</ele><time>2026-04-25T08:22:22.105Z</time></trkpt><trkpt lat="45.5236818" lon="11.2344296"><ele>184.0</ele><time>2026-04-25T08:22:24.105Z</time></trkpt><trkpt lat="45.5236586" lon="11.2343284"><ele>184.0</ele><time>2026-04-25T08:22:25.106Z</time></trkpt><trkpt lat="45.5236514" lon="11.2341654"><ele>184.0</ele><time>2026-04-25T08:22:27.106Z</time></trkpt><trkpt lat="45.523655" lon="11.2340328"><ele>184.0</ele><time>2026-04-25T08:22:29.105Z</time></trkpt><trkpt lat="45.5236579" lon="11.2339333"><ele>183.33333333333334</ele><time>2026-04-25T08:22:32.105Z</time></trkpt><trkpt lat="45.5236356" lon="11.2338259"><ele>182.66666666666669</ele><time>2026-04-25T08:22:46.107Z</time></trkpt><trkpt lat="45.5235305" lon="11.2337875"><ele>182.0</ele><time>2026-04-25T08:22:48.106Z</time></trkpt><trkpt lat="45.5234587" lon="11.2337867"><ele>181.33333333333334</ele><time>2026-04-25T08:22:49.106Z</time></trkpt><trkpt lat="45.5233811" lon="11.2337833"><ele>180.66666666666666</ele><time>2026-04-25T08:22:50.105Z</time></trkpt><trkpt lat="45.5233127" lon="11.2337831"><ele>180.0</ele><time>2026-04-25T08:22:51.105Z</time></trkpt><trkpt lat="45.5232475" lon="11.2337781"><ele>180.0</ele><time>2026-04-25T08:22:52.106Z</time></trkpt><trkpt lat="45.5231379" lon="11.2337798"><ele>180.0</ele><time>2026-04-25T08:22:54.106Z</time></trkpt><trkpt lat="45.523033" lon="11.2337718"><ele>180.0</ele><time>2026-04-25T08:22:56.105Z</time></trkpt><trkpt lat="45.5229159" lon="11.2337703"><ele>180.0</ele><time>2026-04-25T08:22:58.102Z</time></trkpt><trkpt lat="45.522844" lon="11.2337714"><ele>180.0</ele><time>2026-04-25T08:22:59.105Z</time></trkpt><trkpt lat="45.5227695" lon="11.2337694"><ele>179.5</ele><time>2026-04-25T08:23:00.105Z</time></trkpt><trkpt lat="45.5226923" lon="11.2337654"><ele>179.0</ele><time>2026-04-25T08:23:01.106Z</time></trkpt><trkpt lat="45.5226134" lon="11.2337654"><ele>178.5</ele><time>2026-04-25T08:23:02.105Z</time></trkpt><trkpt lat="45.5225289" lon="11.2337605"><ele>178.0</ele><time>2026-04-25T08:23:03.107Z</time></trkpt><trkpt lat="45.5224476" lon="11.233753"><ele>177.5</ele><time>2026-04-25T08:23:04.106Z</time></trkpt><trkpt lat="45.522369" lon="11.2337474"><ele>177.0</ele><time>2026-04-25T08:23:05.106Z</time></trkpt><trkpt lat="45.5222947" lon="11.2337467"><ele>177.0</ele><time>2026-04-25T08:23:06.105Z</time></trkpt><trkpt lat="45.5222161" lon="11.23375"><ele>177.0</ele><time>2026-04-25T08:23:07.105Z</time></trkpt><trkpt lat="45.5221346" lon="11.2337499"><ele>177.0</ele><time>2026-04-25T08:23:08.105Z</time></trkpt><trkpt lat="45.5220539" lon="11.2337493"><ele>177.0</ele><time>2026-04-25T08:23:09.106Z</time></trkpt><trkpt lat="45.5219718" lon="11.2337507"><ele>177.0</ele><time>2026-04-25T08:23:10.106Z</time></trkpt><trkpt lat="45.5218948" lon="11.2337505"><ele>177.0</ele><time>2026-04-25T08:23:11.106Z</time></trkpt><trkpt lat="45.521827" lon="11.2337516"><ele>176.8</ele><time>2026-04-25T08:23:12.105Z</time></trkpt><trkpt lat="45.5217084" lon="11.2337598"><ele>176.6</ele><time>2026-04-25T08:23:14.106Z</time></trkpt><trkpt lat="45.5216114" lon="11.2337876"><ele>176.4</ele><time>2026-04-25T08:23:16.106Z</time></trkpt><trkpt lat="45.5215143" lon="11.2338332"><ele>176.20000000000002</ele><time>2026-04-25T08:23:18.106Z</time></trkpt><trkpt lat="45.5214031" lon="11.2338803"><ele>176.0</ele><time>2026-04-25T08:23:20.105Z</time></trkpt><trkpt lat="45.5213012" lon="11.2339313"><ele>175.4</ele><time>2026-04-25T08:23:22.106Z</time></trkpt><trkpt lat="45.5212042" lon="11.2339821"><ele>174.8</ele><time>2026-04-25T08:23:24.106Z</time></trkpt><trkpt lat="45.5211135" lon="11.2340238"><ele>174.20000000000002</ele><time>2026-04-25T08:23:26.105Z</time></trkpt><trkpt lat="45.5210288" lon="11.2340711"><ele>173.60000000000002</ele><time>2026-04-25T08:23:28.105Z</time></trkpt><trkpt lat="45.5209389" lon="11.2341035"><ele>173.0</ele><time>2026-04-25T08:23:30.105Z</time></trkpt><trkpt lat="45.5208253" lon="11.2341186"><ele>173.0</ele><time>2026-04-25T08:23:32.106Z</time></trkpt><trkpt lat="45.5207659" lon="11.2341662"><ele>173.0</ele><time>2026-04-25T08:23:33.106Z</time></trkpt><trkpt lat="45.520711" lon="11.2342306"><ele>173.0</ele><time>2026-04-25T08:23:34.105Z</time></trkpt><trkpt lat="45.5206461" lon="11.2342861"><ele>173.0</ele><time>2026-04-25T08:23:35.106Z</time></trkpt><trkpt lat="45.5205697" lon="11.2343352"><ele>173.0</ele><time>2026-04-25T08:23:36.106Z</time></trkpt><trkpt lat="45.520484" lon="11.2343778"><ele>173.0</ele><time>2026-04-25T08:23:37.106Z</time></trkpt><trkpt lat="45.5203899" lon="11.2344239"><ele>172.0</ele><time>2026-04-25T08:23:38.105Z</time></trkpt><trkpt lat="45.5202879" lon="11.2344671"><ele>171.0</ele><time>2026-04-25T08:23:39.105Z</time></trkpt><trkpt lat="45.5201747" lon="11.234512"><ele>170.0</ele><time>2026-04-25T08:23:40.106Z</time></trkpt><trkpt lat="45.5200544" lon="11.2345601"><ele>169.0</ele><time>2026-04-25T08:23:41.107Z</time></trkpt><trkpt lat="45.5199317" lon="11.234612"><ele>169.0</ele><time>2026-04-25T08:23:42.106Z</time></trkpt><trkpt lat="45.5198074" lon="11.2346657"><ele>169.0</ele><time>2026-04-25T08:23:43.105Z</time></trkpt><trkpt lat="45.5196846" lon="11.2347134"><ele>169.0</ele><time>2026-04-25T08:23:44.106Z</time></trkpt><trkpt lat="45.5195595" lon="11.2347589"><ele>169.0</ele><time>2026-04-25T08:23:45.105Z</time></trkpt><trkpt lat="45.5194366" lon="11.2348033"><ele>168.75</ele><time>2026-04-25T08:23:46.105Z</time></trkpt><trkpt lat="45.5193123" lon="11.2348482"><ele>168.5</ele><time>2026-04-25T08:23:47.106Z</time></trkpt><trkpt lat="45.5191823" lon="11.2348948"><ele>168.25</ele><time>2026-04-25T08:23:48.105Z</time></trkpt><trkpt lat="45.5190493" lon="11.2349434"><ele>168.0</ele><time>2026-04-25T08:23:49.106Z</time></trkpt><trkpt lat="45.518915" lon="11.2349935"><ele>168.0</ele><time>2026-04-25T08:23:50.105Z</time></trkpt><trkpt lat="45.5187806" lon="11.235048"><ele>168.0</ele><time>2026-04-25T08:23:51.106Z</time></trkpt><trkpt lat="45.5186445" lon="11.2351054"><ele>168.0</ele><time>2026-04-25T08:23:52.105Z</time></trkpt><trkpt lat="45.5185099" lon="11.2351646"><ele>168.0</ele><time>2026-04-25T08:23:53.106Z</time></trkpt><trkpt lat="45.5183753" lon="11.235229"><ele>167.0</ele><time>2026-04-25T08:23:54.106Z</time></trkpt><trkpt lat="45.518239" lon="11.2353043"><ele>166.0</ele><time>2026-04-25T08:23:55.105Z</time></trkpt><trkpt lat="45.5181033" lon="11.235387"><ele>165.0</ele><time>2026-04-25T08:23:56.106Z</time></trkpt><trkpt lat="45.517969" lon="11.2354743"><ele>164.0</ele><time>2026-04-25T08:23:57.105Z</time></trkpt><trkpt lat="45.5178375" lon="11.2355674"><ele>163.66666666666666</ele><time>2026-04-25T08:23:58.105Z</time></trkpt><trkpt lat="45.517708" lon="11.2356698"><ele>163.33333333333334</ele><time>2026-04-25T08:23:59.106Z</time></trkpt><trkpt lat="45.517573" lon="11.235772"><ele>163.0</ele><time>2026-04-25T08:24:00.106Z</time></trkpt><trkpt lat="45.5174381" lon="11.2358744"><ele>163.0</ele><time>2026-04-25T08:24:01.105Z</time></trkpt><trkpt lat="45.5173078" lon="11.2359796"><ele>163.0</ele><time>2026-04-25T08:24:02.106Z</time></trkpt><trkpt lat="45.5171785" lon="11.2360895"><ele>163.0</ele><time>2026-04-25T08:24:03.106Z</time></trkpt><trkpt lat="45.5170442" lon="11.23621"><ele>162.33333333333334</ele><time>2026-04-25T08:24:04.106Z</time></trkpt><trkpt lat="45.5168919" lon="11.2363662"><ele>161.66666666666666</ele><time>2026-04-25T08:24:05.106Z</time></trkpt><trkpt lat="45.5167267" lon="11.2365502"><ele>161.0</ele><time>2026-04-25T08:24:06.106Z</time></trkpt><trkpt lat="45.5165489" lon="11.2367302"><ele>160.33333333333331</ele><time>2026-04-25T08:24:07.105Z</time></trkpt><trkpt lat="45.516367" lon="11.2368922"><ele>159.66666666666666</ele><time>2026-04-25T08:24:08.106Z</time></trkpt><trkpt lat="45.516193" lon="11.2370561"><ele>159.0</ele><time>2026-04-25T08:24:09.105Z</time></trkpt><trkpt lat="45.5160336" lon="11.2372206"><ele>158.33333333333334</ele><time>2026-04-25T08:24:10.105Z</time></trkpt><trkpt lat="45.5158793" lon="11.2373735"><ele>157.66666666666669</ele><time>2026-04-25T08:24:11.105Z</time></trkpt><trkpt lat="45.515729" lon="11.2375259"><ele>157.0</ele><time>2026-04-25T08:24:12.105Z</time></trkpt><trkpt lat="45.5155793" lon="11.2376793"><ele>157.0</ele><time>2026-04-25T08:24:13.105Z</time></trkpt><trkpt lat="45.5154261" lon="11.2378335"><ele>157.0</ele><time>2026-04-25T08:24:14.106Z</time></trkpt><trkpt lat="45.5152693" lon="11.2379891"><ele>157.0</ele><time>2026-04-25T08:24:15.105Z</time></trkpt><trkpt lat="45.5151085" lon="11.2381456"><ele>156.66666666666669</ele><time>2026-04-25T08:24:16.105Z</time></trkpt><trkpt lat="45.5149423" lon="11.2382978"><ele>156.33333333333334</ele><time>2026-04-25T08:24:17.106Z</time></trkpt><trkpt lat="45.5147744" lon="11.2384478"><ele>156.0</ele><time>2026-04-25T08:24:18.105Z</time></trkpt><trkpt lat="45.5146051" lon="11.2385956"><ele>155.0</ele><time>2026-04-25T08:24:19.106Z</time></trkpt><trkpt lat="45.5144347" lon="11.2387358"><ele>154.0</ele><time>2026-04-25T08:24:20.105Z</time></trkpt><trkpt lat="45.5142639" lon="11.238868"><ele>153.0</ele><time>2026-04-25T08:24:21.105Z</time></trkpt><trkpt lat="45.5140963" lon="11.2389958"><ele>153.0</ele><time>2026-04-25T08:24:22.105Z</time></trkpt><trkpt lat="45.5139317" lon="11.2391294"><ele>153.0</ele><time>2026-04-25T08:24:23.105Z</time></trkpt><trkpt lat="45.5137698" lon="11.2392643"><ele>153.0</ele><time>2026-04-25T08:24:24.105Z</time></trkpt><trkpt lat="45.5136118" lon="11.2394001"><ele>152.33333333333334</ele><time>2026-04-25T08:24:25.106Z</time></trkpt><trkpt lat="45.5134622" lon="11.2395429"><ele>151.66666666666669</ele><time>2026-04-25T08:24:26.105Z</time></trkpt><trkpt lat="45.5133246" lon="11.2397061"><ele>151.0</ele><time>2026-04-25T08:24:27.106Z</time></trkpt><trkpt lat="45.5132016" lon="11.2398933"><ele>151.0</ele><time>2026-04-25T08:24:28.105Z</time></trkpt><trkpt lat="45.5130956" lon="11.2401016"><ele>151.0</ele><time>2026-04-25T08:24:29.105Z</time></trkpt><trkpt lat="45.5130013" lon="11.2403267"><ele>151.0</ele><time>2026-04-25T08:24:30.106Z</time></trkpt><trkpt lat="45.5129076" lon="11.2405474"><ele>149.66666666666669</ele><time>2026-04-25T08:24:31.105Z</time></trkpt><trkpt lat="45.5128098" lon="11.2407686"><ele>148.33333333333334</ele><time>2026-04-25T08:24:32.105Z</time></trkpt><trkpt lat="45.5127079" lon="11.2409871"><ele>147.0</ele><time>2026-04-25T08:24:33.106Z</time></trkpt><trkpt lat="45.5125947" lon="11.2411956"><ele>147.0</ele><time>2026-04-25T08:24:34.107Z</time></trkpt><trkpt lat="45.5124672" lon="11.2413883"><ele>147.0</ele><time>2026-04-25T08:24:35.105Z</time></trkpt><trkpt lat="45.5123309" lon="11.2415702"><ele>147.0</ele><time>2026-04-25T08:24:36.106Z</time></trkpt><trkpt lat="45.5121882" lon="11.241748"><ele>146.33333333333334</ele><time>2026-04-25T08:24:37.106Z</time></trkpt><trkpt lat="45.5120429" lon="11.2419181"><ele>145.66666666666669</ele><time>2026-04-25T08:24:38.106Z</time></trkpt><trkpt lat="45.5118951" lon="11.2420831"><ele>145.0</ele><time>2026-04-25T08:24:39.105Z</time></trkpt><trkpt lat="45.5117512" lon="11.2422421"><ele>147.66666666666669</ele><time>2026-04-25T08:24:40.106Z</time></trkpt><trkpt lat="45.5116106" lon="11.242396"><ele>150.33333333333334</ele><time>2026-04-25T08:24:41.105Z</time></trkpt><trkpt lat="45.5114719" lon="11.2425496"><ele>153.0</ele><time>2026-04-25T08:24:42.105Z</time></trkpt><trkpt lat="45.5113363" lon="11.2427028"><ele>151.0</ele><time>2026-04-25T08:24:43.105Z</time></trkpt><trkpt lat="45.5111955" lon="11.242856"><ele>149.0</ele><time>2026-04-25T08:24:44.105Z</time></trkpt><trkpt lat="45.5110537" lon="11.2430088"><ele>147.0</ele><time>2026-04-25T08:24:45.106Z</time></trkpt><trkpt lat="45.5109101" lon="11.243164"><ele>147.0</ele><time>2026-04-25T08:24:46.106Z</time></trkpt><trkpt lat="45.5107691" lon="11.2433119"><ele>147.0</ele><time>2026-04-25T08:24:47.105Z</time></trkpt><trkpt lat="45.5106217" lon="11.2434428"><ele>147.0</ele><time>2026-04-25T08:24:48.105Z</time></trkpt><trkpt lat="45.5104779" lon="11.2435754"><ele>144.33333333333334</ele><time>2026-04-25T08:24:49.106Z</time></trkpt><trkpt lat="45.5103377" lon="11.243712"><ele>141.66666666666669</ele><time>2026-04-25T08:24:50.105Z</time></trkpt><trkpt lat="45.5101952" lon="11.2438343"><ele>139.0</ele><time>2026-04-25T08:24:51.105Z</time></trkpt><trkpt lat="45.5100468" lon="11.2439324"><ele>139.66666666666669</ele><time>2026-04-25T08:24:52.105Z</time></trkpt><trkpt lat="45.509892" lon="11.2440248"><ele>140.33333333333334</ele><time>2026-04-25T08:24:53.105Z</time></trkpt><trkpt lat="45.5097324" lon="11.2441078"><ele>141.0</ele><time>2026-04-25T08:24:54.106Z</time></trkpt><trkpt lat="45.5095682" lon="11.2441783"><ele>139.33333333333334</ele><time>2026-04-25T08:24:55.105Z</time></trkpt><trkpt lat="45.5094034" lon="11.2442427"><ele>137.66666666666669</ele><time>2026-04-25T08:24:56.106Z</time></trkpt><trkpt lat="45.5092368" lon="11.2443053"><ele>136.0</ele><time>2026-04-25T08:24:57.106Z</time></trkpt><trkpt lat="45.5090694" lon="11.2443647"><ele>136.0</ele><time>2026-04-25T08:24:58.106Z</time></trkpt><trkpt lat="45.5089029" lon="11.2444265"><ele>136.0</ele><time>2026-04-25T08:24:59.105Z</time></trkpt><trkpt lat="45.5087367" lon="11.2444911"><ele>136.0</ele><time>2026-04-25T08:25:00.106Z</time></trkpt><trkpt lat="45.5085718" lon="11.2445513"><ele>135.66666666666669</ele><time>2026-04-25T08:25:01.106Z</time></trkpt><trkpt lat="45.5084049" lon="11.2446155"><ele>135.33333333333334</ele><time>2026-04-25T08:25:02.106Z</time></trkpt><trkpt lat="45.5082378" lon="11.2446767"><ele>135.0</ele><time>2026-04-25T08:25:03.106Z</time></trkpt><trkpt lat="45.5080693" lon="11.2447381"><ele>133.33333333333334</ele><time>2026-04-25T08:25:04.105Z</time></trkpt><trkpt lat="45.5079067" lon="11.2448012"><ele>131.66666666666669</ele><time>2026-04-25T08:25:05.107Z</time></trkpt><trkpt lat="45.5077429" lon="11.2448592"><ele>130.0</ele><time>2026-04-25T08:25:06.106Z</time></trkpt><trkpt lat="45.5075824" lon="11.2449194"><ele>130.0</ele><time>2026-04-25T08:25:07.105Z</time></trkpt><trkpt lat="45.5074199" lon="11.2449794"><ele>130.0</ele><time>2026-04-25T08:25:08.105Z</time></trkpt><trkpt lat="45.507255" lon="11.2450387"><ele>130.0</ele><time>2026-04-25T08:25:09.105Z</time></trkpt><trkpt lat="45.5070919" lon="11.2450956"><ele>129.66666666666669</ele><time>2026-04-25T08:25:10.106Z</time></trkpt><trkpt lat="45.5069399" lon="11.2451491"><ele>129.33333333333334</ele><time>2026-04-25T08:25:11.106Z</time></trkpt><trkpt lat="45.5067949" lon="11.2452001"><ele>129.0</ele><time>2026-04-25T08:25:12.105Z</time></trkpt><trkpt lat="45.5066494" lon="11.2452537"><ele>129.0</ele><time>2026-04-25T08:25:13.105Z</time></trkpt><trkpt lat="45.5065015" lon="11.2452959"><ele>129.0</ele><time>2026-04-25T08:25:14.106Z</time></trkpt><trkpt lat="45.5063483" lon="11.2453229"><ele>129.0</ele><time>2026-04-25T08:25:15.106Z</time></trkpt><trkpt lat="45.5061896" lon="11.2453345"><ele>129.0</ele><time>2026-04-25T08:25:16.106Z</time></trkpt><trkpt lat="45.5060262" lon="11.2453322"><ele>129.0</ele><time>2026-04-25T08:25:17.107Z</time></trkpt><trkpt lat="45.5058595" lon="11.245324"><ele>129.0</ele><time>2026-04-25T08:25:18.105Z</time></trkpt><trkpt lat="45.5056902" lon="11.2453173"><ele>129.0</ele><time>2026-04-25T08:25:19.106Z</time></trkpt><trkpt lat="45.5055176" lon="11.2453166"><ele>129.0</ele><time>2026-04-25T08:25:20.105Z</time></trkpt><trkpt lat="45.5053442" lon="11.2453184"><ele>129.0</ele><time>2026-04-25T08:25:21.105Z</time></trkpt><trkpt lat="45.5051697" lon="11.2453272"><ele>128.66666666666666</ele><time>2026-04-25T08:25:22.105Z</time></trkpt><trkpt lat="45.5049931" lon="11.2453494"><ele>128.33333333333331</ele><time>2026-04-25T08:25:23.106Z</time></trkpt><trkpt lat="45.5048217" lon="11.2453815"><ele>128.0</ele><time>2026-04-25T08:25:24.106Z</time></trkpt><trkpt lat="45.5046506" lon="11.2454283"><ele>126.0</ele><time>2026-04-25T08:25:25.105Z</time></trkpt><trkpt lat="45.5044791" lon="11.2454831"><ele>124.0</ele><time>2026-04-25T08:25:26.106Z</time></trkpt><trkpt lat="45.5043022" lon="11.2455414"><ele>122.0</ele><time>2026-04-25T08:25:27.106Z</time></trkpt><trkpt lat="45.5041222" lon="11.2455976"><ele>123.0</ele><time>2026-04-25T08:25:28.107Z</time></trkpt><trkpt lat="45.5039391" lon="11.2456559"><ele>124.0</ele><time>2026-04-25T08:25:29.106Z</time></trkpt><trkpt lat="45.5037539" lon="11.2457134"><ele>125.0</ele><time>2026-04-25T08:25:30.106Z</time></trkpt><trkpt lat="45.5035694" lon="11.2457701"><ele>123.0</ele><time>2026-04-25T08:25:31.106Z</time></trkpt><trkpt lat="45.5033822" lon="11.2458263"><ele>121.0</ele><time>2026-04-25T08:25:32.105Z</time></trkpt><trkpt lat="45.503195" lon="11.2458873"><ele>119.0</ele><time>2026-04-25T08:25:33.106Z</time></trkpt><trkpt lat="45.5030036" lon="11.2459497"><ele>118.66666666666666</ele><time>2026-04-25T08:25:34.106Z</time></trkpt><trkpt lat="45.5028109" lon="11.2460135"><ele>118.33333333333334</ele><time>2026-04-25T08:25:35.105Z</time></trkpt><trkpt lat="45.5026162" lon="11.2460789"><ele>118.0</ele><time>2026-04-25T08:25:36.106Z</time></trkpt><trkpt lat="45.502419" lon="11.2461378"><ele>118.0</ele><time>2026-04-25T08:25:37.106Z</time></trkpt><trkpt lat="45.50222" lon="11.2461967"><ele>118.0</ele><time>2026-04-25T08:25:38.105Z</time></trkpt><trkpt lat="45.50202" lon="11.2462624"><ele>118.0</ele><time>2026-04-25T08:25:39.106Z</time></trkpt><trkpt lat="45.5018219" lon="11.246329"><ele>117.66666666666667</ele><time>2026-04-25T08:25:40.105Z</time></trkpt><trkpt lat="45.5016271" lon="11.2463906"><ele>117.33333333333334</ele><time>2026-04-25T08:25:41.105Z</time></trkpt><trkpt lat="45.5014317" lon="11.2464547"><ele>117.0</ele><time>2026-04-25T08:25:42.105Z</time></trkpt><trkpt lat="45.5012367" lon="11.2465186"><ele>115.66666666666666</ele><time>2026-04-25T08:25:43.105Z</time></trkpt><trkpt lat="45.5010438" lon="11.2465822"><ele>114.33333333333333</ele><time>2026-04-25T08:25:44.105Z</time></trkpt><trkpt lat="45.5008505" lon="11.2466485"><ele>113.0</ele><time>2026-04-25T08:25:45.106Z</time></trkpt><trkpt lat="45.5006573" lon="11.2467217"><ele>113.0</ele><time>2026-04-25T08:25:46.105Z</time></trkpt><trkpt lat="45.5004683" lon="11.2468121"><ele>113.0</ele><time>2026-04-25T08:25:47.106Z</time></trkpt><trkpt lat="45.5002848" lon="11.2469197"><ele>113.0</ele><time>2026-04-25T08:25:48.105Z</time></trkpt><trkpt lat="45.5001042" lon="11.2470375"><ele>113.33333333333333</ele><time>2026-04-25T08:25:49.105Z</time></trkpt><trkpt lat="45.4999267" lon="11.2471666"><ele>113.66666666666666</ele><time>2026-04-25T08:25:50.105Z</time></trkpt><trkpt lat="45.4997585" lon="11.2473027"><ele>114.0</ele><time>2026-04-25T08:25:51.106Z</time></trkpt><trkpt lat="45.4996036" lon="11.2474392"><ele>112.66666666666666</ele><time>2026-04-25T08:25:52.105Z</time></trkpt><trkpt lat="45.4994559" lon="11.2475837"><ele>111.33333333333333</ele><time>2026-04-25T08:25:53.106Z</time></trkpt><trkpt lat="45.4993147" lon="11.2477358"><ele>110.0</ele><time>2026-04-25T08:25:54.106Z</time></trkpt><trkpt lat="45.49918" lon="11.2478956"><ele>110.0</ele><time>2026-04-25T08:25:55.105Z</time></trkpt><trkpt lat="45.4990463" lon="11.2480607"><ele>110.0</ele><time>2026-04-25T08:25:56.106Z</time></trkpt><trkpt lat="45.4989167" lon="11.2482352"><ele>110.0</ele><time>2026-04-25T08:25:57.105Z</time></trkpt><trkpt lat="45.4987936" lon="11.2484206"><ele>109.33333333333333</ele><time>2026-04-25T08:25:58.105Z</time></trkpt><trkpt lat="45.4986765" lon="11.2486116"><ele>108.66666666666666</ele><time>2026-04-25T08:25:59.106Z</time></trkpt><trkpt lat="45.4985623" lon="11.2488095"><ele>108.0</ele><time>2026-04-25T08:26:00.105Z</time></trkpt><trkpt lat="45.4984526" lon="11.2490144"><ele>108.0</ele><time>2026-04-25T08:26:01.105Z</time></trkpt><trkpt lat="45.4983482" lon="11.2492243"><ele>108.0</ele><time>2026-04-25T08:26:02.106Z</time></trkpt><trkpt lat="45.4982485" lon="11.2494367"><ele>108.0</ele><time>2026-04-25T08:26:03.106Z</time></trkpt><trkpt lat="45.4981524" lon="11.2496572"><ele>109.0</ele><time>2026-04-25T08:26:04.105Z</time></trkpt><trkpt lat="45.4980543" lon="11.249876"><ele>110.0</ele><time>2026-04-25T08:26:05.105Z</time></trkpt><trkpt lat="45.4979549" lon="11.2500966"><ele>111.0</ele><time>2026-04-25T08:26:06.106Z</time></trkpt><trkpt lat="45.4978585" lon="11.2503201"><ele>109.0</ele><time>2026-04-25T08:26:07.106Z</time></trkpt><trkpt lat="45.4977644" lon="11.2505475"><ele>107.0</ele><time>2026-04-25T08:26:08.106Z</time></trkpt><trkpt lat="45.497671" lon="11.2507734"><ele>105.0</ele><time>2026-04-25T08:26:09.105Z</time></trkpt><trkpt lat="45.4975755" lon="11.251"><ele>104.66666666666666</ele><time>2026-04-25T08:26:10.105Z</time></trkpt><trkpt lat="45.4974748" lon="11.251225"><ele>104.33333333333333</ele><time>2026-04-25T08:26:11.106Z</time></trkpt><trkpt lat="45.4973699" lon="11.2514467"><ele>104.0</ele><time>2026-04-25T08:26:12.105Z</time></trkpt><trkpt lat="45.4972517" lon="11.2516571"><ele>105.0</ele><time>2026-04-25T08:26:13.105Z</time></trkpt><trkpt lat="45.4971198" lon="11.2518499"><ele>106.0</ele><time>2026-04-25T08:26:14.106Z</time></trkpt><trkpt lat="45.4969742" lon="11.2520251"><ele>107.0</ele><time>2026-04-25T08:26:15.106Z</time></trkpt><trkpt lat="45.4968163" lon="11.2521701"><ele>106.0</ele><time>2026-04-25T08:26:16.105Z</time></trkpt><trkpt lat="45.4966475" lon="11.2522877"><ele>105.0</ele><time>2026-04-25T08:26:17.105Z</time></trkpt><trkpt lat="45.4964725" lon="11.2523794"><ele>104.0</ele><time>2026-04-25T08:26:18.105Z</time></trkpt><trkpt lat="45.4962944" lon="11.2524687"><ele>101.66666666666666</ele><time>2026-04-25T08:26:19.105Z</time></trkpt><trkpt lat="45.4961173" lon="11.252563"><ele>99.33333333333334</ele><time>2026-04-25T08:26:20.105Z</time></trkpt><trkpt lat="45.49594" lon="11.252663"><ele>97.0</ele><time>2026-04-25T08:26:21.106Z</time></trkpt><trkpt lat="45.4957629" lon="11.252764"><ele>97.0</ele><time>2026-04-25T08:26:22.105Z</time></trkpt><trkpt lat="45.4955871" lon="11.2528628"><ele>97.0</ele><time>2026-04-25T08:26:23.105Z</time></trkpt><trkpt lat="45.4954138" lon="11.2529618"><ele>97.0</ele><time>2026-04-25T08:26:24.106Z</time></trkpt><trkpt lat="45.4952438" lon="11.253062"><ele>97.0</ele><time>2026-04-25T08:26:25.107Z</time></trkpt><trkpt lat="45.4950781" lon="11.2531719"><ele>97.0</ele><time>2026-04-25T08:26:26.105Z</time></trkpt><trkpt lat="45.494913" lon="11.2532862"><ele>97.0</ele><time>2026-04-25T08:26:27.105Z</time></trkpt><trkpt lat="45.4947476" lon="11.2533971"><ele>95.66666666666667</ele><time>2026-04-25T08:26:28.105Z</time></trkpt><trkpt lat="45.4945811" lon="11.2535022"><ele>94.33333333333334</ele><time>2026-04-25T08:26:29.106Z</time></trkpt><trkpt lat="45.4944123" lon="11.2536024"><ele>93.0</ele><time>2026-04-25T08:26:30.106Z</time></trkpt><trkpt lat="45.4942381" lon="11.253689"><ele>93.0</ele><time>2026-04-25T08:26:31.106Z</time></trkpt><trkpt lat="45.4940603" lon="11.2537628"><ele>93.0</ele><time>2026-04-25T08:26:32.105Z</time></trkpt><trkpt lat="45.4938791" lon="11.2538245"><ele>93.0</ele><time>2026-04-25T08:26:33.105Z</time></trkpt><trkpt lat="45.4936945" lon="11.2538672"><ele>93.0</ele><time>2026-04-25T08:26:34.105Z</time></trkpt><trkpt lat="45.4935112" lon="11.2538919"><ele>93.0</ele><time>2026-04-25T08:26:35.105Z</time></trkpt><trkpt lat="45.4933246" lon="11.2539075"><ele>93.0</ele><time>2026-04-25T08:26:36.105Z</time></trkpt><trkpt lat="45.4931389" lon="11.2539287"><ele>92.66666666666667</ele><time>2026-04-25T08:26:37.107Z</time></trkpt><trkpt lat="45.4929557" lon="11.2539643"><ele>92.33333333333334</ele><time>2026-04-25T08:26:38.106Z</time></trkpt><trkpt lat="45.492773" lon="11.2540238"><ele>92.0</ele><time>2026-04-25T08:26:39.106Z</time></trkpt><trkpt lat="45.4925934" lon="11.2541019"><ele>92.0</ele><time>2026-04-25T08:26:40.106Z</time></trkpt><trkpt lat="45.4924125" lon="11.2541987"><ele>92.0</ele><time>2026-04-25T08:26:41.105Z</time></trkpt><trkpt lat="45.4922342" lon="11.2543091"><ele>92.0</ele><time>2026-04-25T08:26:42.105Z</time></trkpt><trkpt lat="45.4920599" lon="11.2544292"><ele>92.0</ele><time>2026-04-25T08:26:43.105Z</time></trkpt><trkpt lat="45.4918845" lon="11.2545506"><ele>92.0</ele><time>2026-04-25T08:26:44.106Z</time></trkpt><trkpt lat="45.4917078" lon="11.2546679"><ele>92.0</ele><time>2026-04-25T08:26:45.106Z</time></trkpt><trkpt lat="45.4915309" lon="11.2547844"><ele>91.66666666666667</ele><time>2026-04-25T08:26:46.106Z</time></trkpt><trkpt lat="45.4913519" lon="11.2549001"><ele>91.33333333333333</ele><time>2026-04-25T08:26:47.105Z</time></trkpt><trkpt lat="45.4911772" lon="11.2550125"><ele>91.0</ele><time>2026-04-25T08:26:48.105Z</time></trkpt><trkpt lat="45.4910043" lon="11.2551203"><ele>91.0</ele><time>2026-04-25T08:26:49.106Z</time></trkpt><trkpt lat="45.4908347" lon="11.25522"><ele>91.0</ele><time>2026-04-25T08:26:50.106Z</time></trkpt><trkpt lat="45.4906661" lon="11.2553179"><ele>91.0</ele><time>2026-04-25T08:26:51.107Z</time></trkpt><trkpt lat="45.4904919" lon="11.2554032"><ele>90.33333333333333</ele><time>2026-04-25T08:26:52.106Z</time></trkpt><trkpt lat="45.4903167" lon="11.2554717"><ele>89.66666666666667</ele><time>2026-04-25T08:26:53.107Z</time></trkpt><trkpt lat="45.4901414" lon="11.2555304"><ele>89.0</ele><time>2026-04-25T08:26:54.106Z</time></trkpt><trkpt lat="45.4899621" lon="11.2555807"><ele>88.66666666666667</ele><time>2026-04-25T08:26:55.105Z</time></trkpt><trkpt lat="45.4897806" lon="11.2556314"><ele>88.33333333333333</ele><time>2026-04-25T08:26:56.106Z</time></trkpt><trkpt lat="45.4895985" lon="11.2556787"><ele>88.0</ele><time>2026-04-25T08:26:57.106Z</time></trkpt><trkpt lat="45.4894162" lon="11.2557244"><ele>87.66666666666666</ele><time>2026-04-25T08:26:58.106Z</time></trkpt><trkpt lat="45.4892361" lon="11.255767"><ele>87.33333333333333</ele><time>2026-04-25T08:26:59.105Z</time></trkpt><trkpt lat="45.4890568" lon="11.255813"><ele>87.0</ele><time>2026-04-25T08:27:00.106Z</time></trkpt><trkpt lat="45.4888853" lon="11.255867"><ele>86.66666666666667</ele><time>2026-04-25T08:27:01.105Z</time></trkpt><trkpt lat="45.4887179" lon="11.2559333"><ele>86.33333333333334</ele><time>2026-04-25T08:27:02.106Z</time></trkpt><trkpt lat="45.4885536" lon="11.2560058"><ele>86.0</ele><time>2026-04-25T08:27:03.106Z</time></trkpt><trkpt lat="45.4883918" lon="11.2560854"><ele>86.0</ele><time>2026-04-25T08:27:04.106Z</time></trkpt><trkpt lat="45.4882335" lon="11.2561597"><ele>86.0</ele><time>2026-04-25T08:27:05.105Z</time></trkpt><trkpt lat="45.4880785" lon="11.256232"><ele>86.0</ele><time>2026-04-25T08:27:06.106Z</time></trkpt><trkpt lat="45.4879325" lon="11.2562979"><ele>85.75</ele><time>2026-04-25T08:27:07.105Z</time></trkpt><trkpt lat="45.487793" lon="11.2563608"><ele>85.5</ele><time>2026-04-25T08:27:08.105Z</time></trkpt><trkpt lat="45.4876596" lon="11.2564177"><ele>85.25</ele><time>2026-04-25T08:27:09.105Z</time></trkpt><trkpt lat="45.4875258" lon="11.2564782"><ele>85.0</ele><time>2026-04-25T08:27:10.106Z</time></trkpt><trkpt lat="45.4873889" lon="11.2565356"><ele>85.0</ele><time>2026-04-25T08:27:11.105Z</time></trkpt><trkpt lat="45.4872502" lon="11.2565953"><ele>85.0</ele><time>2026-04-25T08:27:12.105Z</time></trkpt><trkpt lat="45.4871091" lon="11.2566551"><ele>85.0</ele><time>2026-04-25T08:27:13.105Z</time></trkpt><trkpt lat="45.4869651" lon="11.2567123"><ele>85.0</ele><time>2026-04-25T08:27:14.105Z</time></trkpt><trkpt lat="45.4868266" lon="11.2567652"><ele>84.5</ele><time>2026-04-25T08:27:15.105Z</time></trkpt><trkpt lat="45.486696" lon="11.2568178"><ele>84.0</ele><time>2026-04-25T08:27:16.106Z</time></trkpt><trkpt lat="45.4865706" lon="11.256866"><ele>83.5</ele><time>2026-04-25T08:27:17.105Z</time></trkpt><trkpt lat="45.4864565" lon="11.2569067"><ele>83.0</ele><time>2026-04-25T08:27:18.105Z</time></trkpt><trkpt lat="45.4863536" lon="11.2569433"><ele>83.0</ele><time>2026-04-25T08:27:19.106Z</time></trkpt><trkpt lat="45.4862647" lon="11.2569749"><ele>83.0</ele><time>2026-04-25T08:27:20.105Z</time></trkpt><trkpt lat="45.486197" lon="11.256999"><ele>83.0</ele><time>2026-04-25T08:27:21.105Z</time></trkpt><trkpt lat="45.4861039" lon="11.2570362"><ele>83.0</ele><time>2026-04-25T08:27:23.105Z</time></trkpt><trkpt lat="45.4860436" lon="11.2570626"><ele>83.0</ele><time>2026-04-25T08:27:27.105Z</time></trkpt><trkpt lat="45.4859783" lon="11.2570846"><ele>83.0</ele><time>2026-04-25T08:28:19.106Z</time></trkpt><trkpt lat="45.4858734" lon="11.2571267"><ele>83.0</ele><time>2026-04-25T08:28:21.105Z</time></trkpt><trkpt lat="45.4857974" lon="11.2570775"><ele>83.0</ele><time>2026-04-25T08:28:23.105Z</time></trkpt><trkpt lat="45.4857381" lon="11.2569174"><ele>83.0</ele><time>2026-04-25T08:28:25.106Z</time></trkpt><trkpt lat="45.4857109" lon="11.2568159"><ele>83.0</ele><time>2026-04-25T08:28:26.105Z</time></trkpt><trkpt lat="45.485681" lon="11.2567075"><ele>83.0</ele><time>2026-04-25T08:28:27.106Z</time></trkpt><trkpt lat="45.4856414" lon="11.2565905"><ele>83.0</ele><time>2026-04-25T08:28:28.092Z</time></trkpt><trkpt lat="45.4856098" lon="11.2564843"><ele>83.0</ele><time>2026-04-25T08:28:29.097Z</time></trkpt><trkpt lat="45.4855757" lon="11.2563666"><ele>83.0</ele><time>2026-04-25T08:28:30.093Z</time></trkpt><trkpt lat="45.4855364" lon="11.256236"><ele>83.0</ele><time>2026-04-25T08:28:31.092Z</time></trkpt><trkpt lat="45.4855007" lon="11.2561122"><ele>83.0</ele><time>2026-04-25T08:28:32.093Z</time></trkpt><trkpt lat="45.4854556" lon="11.2559641"><ele>82.4</ele><time>2026-04-25T08:28:33.092Z</time></trkpt><trkpt lat="45.4854137" lon="11.2558281"><ele>81.80000000000001</ele><time>2026-04-25T08:28:34.092Z</time></trkpt><trkpt lat="45.4853692" lon="11.2556829"><ele>81.2</ele><time>2026-04-25T08:28:35.092Z</time></trkpt><trkpt lat="45.4853246" lon="11.2555336"><ele>80.6</ele><time>2026-04-25T08:28:36.093Z</time></trkpt><trkpt lat="45.4852883" lon="11.25541"><ele>80.0</ele><time>2026-04-25T08:28:37.092Z</time></trkpt><trkpt lat="45.4852522" lon="11.2552868"><ele>80.0</ele><time>2026-04-25T08:28:38.092Z</time></trkpt><trkpt lat="45.485215" lon="11.2551562"><ele>80.0</ele><time>2026-04-25T08:28:39.092Z</time></trkpt><trkpt lat="45.4851815" lon="11.2550391"><ele>80.0</ele><time>2026-04-25T08:28:40.092Z</time></trkpt><trkpt lat="45.4851415" lon="11.2549042"><ele>80.0</ele><time>2026-04-25T08:28:41.092Z</time></trkpt><trkpt lat="45.4851064" lon="11.2547859"><ele>80.0</ele><time>2026-04-25T08:28:42.093Z</time></trkpt><trkpt lat="45.4850756" lon="11.254683"><ele>80.4</ele><time>2026-04-25T08:28:43.092Z</time></trkpt><trkpt lat="45.4850411" lon="11.2545723"><ele>80.8</ele><time>2026-04-25T08:28:44.092Z</time></trkpt><trkpt lat="45.4850054" lon="11.2544666"><ele>81.19999999999999</ele><time>2026-04-25T08:28:45.092Z</time></trkpt><trkpt lat="45.4849642" lon="11.2543461"><ele>81.6</ele><time>2026-04-25T08:28:46.092Z</time></trkpt><trkpt lat="45.4849175" lon="11.2542104"><ele>82.0</ele><time>2026-04-25T08:28:47.093Z</time></trkpt><trkpt lat="45.484876" lon="11.2540869"><ele>82.0</ele><time>2026-04-25T08:28:48.093Z</time></trkpt><trkpt lat="45.4848292" lon="11.2539466"><ele>82.0</ele><time>2026-04-25T08:28:49.092Z</time></trkpt><trkpt lat="45.4847903" lon="11.2538313"><ele>82.0</ele><time>2026-04-25T08:28:50.092Z</time></trkpt><trkpt lat="45.4847521" lon="11.2537165"><ele>82.0</ele><time>2026-04-25T08:28:51.092Z</time></trkpt><trkpt lat="45.484714" lon="11.253603"><ele>82.0</ele><time>2026-04-25T08:28:52.092Z</time></trkpt><trkpt lat="45.4846821" lon="11.253507"><ele>82.0</ele><time>2026-04-25T08:28:53.093Z</time></trkpt><trkpt lat="45.4846505" lon="11.2534119"><ele>82.0</ele><time>2026-04-25T08:28:54.092Z</time></trkpt><trkpt lat="45.4846179" lon="11.2533112"><ele>82.0</ele><time>2026-04-25T08:28:55.093Z</time></trkpt><trkpt lat="45.4845911" lon="11.253223"><ele>82.0</ele><time>2026-04-25T08:28:56.093Z</time></trkpt><trkpt lat="45.4845641" lon="11.2531279"><ele>82.0</ele><time>2026-04-25T08:28:57.092Z</time></trkpt><trkpt lat="45.4845392" lon="11.2529752"><ele>82.0</ele><time>2026-04-25T08:28:59.093Z</time></trkpt><trkpt lat="45.4845686" lon="11.2528526"><ele>82.6</ele><time>2026-04-25T08:29:01.093Z</time></trkpt><trkpt lat="45.4846693" lon="11.2527743"><ele>83.19999999999999</ele><time>2026-04-25T08:29:03.093Z</time></trkpt><trkpt lat="45.4848018" lon="11.2527499"><ele>83.8</ele><time>2026-04-25T08:29:05.092Z</time></trkpt><trkpt lat="45.4848668" lon="11.2527391"><ele>84.4</ele><time>2026-04-25T08:29:06.093Z</time></trkpt><trkpt lat="45.4849383" lon="11.2527181"><ele>85.0</ele><time>2026-04-25T08:29:07.092Z</time></trkpt><trkpt lat="45.4850113" lon="11.2526821"><ele>85.0</ele><time>2026-04-25T08:29:08.092Z</time></trkpt><trkpt lat="45.4850751" lon="11.2526413"><ele>85.0</ele><time>2026-04-25T08:29:09.093Z</time></trkpt><trkpt lat="45.485144" lon="11.2525893"><ele>85.0</ele><time>2026-04-25T08:29:10.092Z</time></trkpt><trkpt lat="45.485223" lon="11.2525353"><ele>85.0</ele><time>2026-04-25T08:29:11.092Z</time></trkpt><trkpt lat="45.4852896" lon="11.2524863"><ele>85.0</ele><time>2026-04-25T08:29:12.092Z</time></trkpt><trkpt lat="45.4853591" lon="11.25243"><ele>85.0</ele><time>2026-04-25T08:29:13.093Z</time></trkpt><trkpt lat="45.4854243" lon="11.2523785"><ele>85.14285714285715</ele><time>2026-04-25T08:29:14.093Z</time></trkpt><trkpt lat="45.4854853" lon="11.2523327"><ele>85.28571428571428</ele><time>2026-04-25T08:29:15.092Z</time></trkpt><trkpt lat="45.485557" lon="11.2522959"><ele>85.42857142857143</ele><time>2026-04-25T08:29:16.092Z</time></trkpt><trkpt lat="45.485623" lon="11.2522814"><ele>85.57142857142858</ele><time>2026-04-25T08:29:17.093Z</time></trkpt><trkpt lat="45.4857006" lon="11.2522732"><ele>85.71428571428572</ele><time>2026-04-25T08:29:18.092Z</time></trkpt><trkpt lat="45.4857806" lon="11.2522686"><ele>85.85714285714286</ele><time>2026-04-25T08:29:19.092Z</time></trkpt><trkpt lat="45.4858569" lon="11.2522621"><ele>86.0</ele><time>2026-04-25T08:29:20.092Z</time></trkpt><trkpt lat="45.4859465" lon="11.2522515"><ele>86.0</ele><time>2026-04-25T08:29:21.092Z</time></trkpt><trkpt lat="45.4860277" lon="11.2522363"><ele>86.0</ele><time>2026-04-25T08:29:22.092Z</time></trkpt><trkpt lat="45.486115" lon="11.2522126"><ele>86.0</ele><time>2026-04-25T08:29:23.093Z</time></trkpt><trkpt lat="45.4862111" lon="11.252178"><ele>86.0</ele><time>2026-04-25T08:29:24.093Z</time></trkpt><trkpt lat="45.4862958" lon="11.2521374"><ele>86.0</ele><time>2026-04-25T08:29:25.092Z</time></trkpt><trkpt lat="45.4863885" lon="11.2520853"><ele>85.6</ele><time>2026-04-25T08:29:26.092Z</time></trkpt><trkpt lat="45.4864894" lon="11.2520205"><ele>85.19999999999999</ele><time>2026-04-25T08:29:27.092Z</time></trkpt><trkpt lat="45.486578" lon="11.2519556"><ele>84.80000000000001</ele><time>2026-04-25T08:29:28.093Z</time></trkpt><trkpt lat="45.4866819" lon="11.2518699"><ele>84.4</ele><time>2026-04-25T08:29:29.092Z</time></trkpt><trkpt lat="45.4867812" lon="11.2517817"><ele>84.0</ele><time>2026-04-25T08:29:30.092Z</time></trkpt><trkpt lat="45.4868844" lon="11.2516896"><ele>84.0</ele><time>2026-04-25T08:29:31.093Z</time></trkpt><trkpt lat="45.4869901" lon="11.2515979"><ele>84.0</ele><time>2026-04-25T08:29:32.093Z</time></trkpt><trkpt lat="45.4870923" lon="11.2515128"><ele>84.0</ele><time>2026-04-25T08:29:33.092Z</time></trkpt><trkpt lat="45.4872155" lon="11.2514209"><ele>84.0</ele><time>2026-04-25T08:29:34.093Z</time></trkpt><trkpt lat="45.4873398" lon="11.2513483"><ele>84.75</ele><time>2026-04-25T08:29:35.092Z</time></trkpt><trkpt lat="45.4874712" lon="11.2512902"><ele>85.5</ele><time>2026-04-25T08:29:36.092Z</time></trkpt><trkpt lat="45.4876086" lon="11.251243"><ele>86.25</ele><time>2026-04-25T08:29:37.092Z</time></trkpt><trkpt lat="45.4877376" lon="11.2512053"><ele>87.0</ele><time>2026-04-25T08:29:38.092Z</time></trkpt><trkpt lat="45.4878843" lon="11.2511674"><ele>88.75</ele><time>2026-04-25T08:29:39.092Z</time></trkpt><trkpt lat="45.4880194" lon="11.2511418"><ele>90.5</ele><time>2026-04-25T08:29:40.092Z</time></trkpt><trkpt lat="45.488142" lon="11.2511287"><ele>92.25</ele><time>2026-04-25T08:29:41.092Z</time></trkpt><trkpt lat="45.4882771" lon="11.2511252"><ele>94.0</ele><time>2026-04-25T08:29:42.092Z</time></trkpt><trkpt lat="45.4884" lon="11.2511298"><ele>94.0</ele><time>2026-04-25T08:29:43.092Z</time></trkpt><trkpt lat="45.4885158" lon="11.2511443"><ele>94.0</ele><time>2026-04-25T08:29:44.092Z</time></trkpt><trkpt lat="45.4886471" lon="11.2511824"><ele>94.0</ele><time>2026-04-25T08:29:45.093Z</time></trkpt><trkpt lat="45.4887692" lon="11.2512438"><ele>94.0</ele><time>2026-04-25T08:29:46.093Z</time></trkpt><trkpt lat="45.4888889" lon="11.2513212"><ele>92.75</ele><time>2026-04-25T08:29:47.092Z</time></trkpt><trkpt lat="45.4890063" lon="11.2514003"><ele>91.5</ele><time>2026-04-25T08:29:48.093Z</time></trkpt><trkpt lat="45.4891142" lon="11.2514665"><ele>90.25</ele><time>2026-04-25T08:29:49.092Z</time></trkpt><trkpt lat="45.4892368" lon="11.2515223"><ele>89.0</ele><time>2026-04-25T08:29:50.093Z</time></trkpt><trkpt lat="45.4893587" lon="11.2515532"><ele>89.0</ele><time>2026-04-25T08:29:51.093Z</time></trkpt><trkpt lat="45.4894782" lon="11.2515705"><ele>89.0</ele><time>2026-04-25T08:29:52.092Z</time></trkpt><trkpt lat="45.4896187" lon="11.2515809"><ele>89.0</ele><time>2026-04-25T08:29:53.092Z</time></trkpt><trkpt lat="45.4897466" lon="11.2515826"><ele>89.0</ele><time>2026-04-25T08:29:54.093Z</time></trkpt><trkpt lat="45.4898962" lon="11.2515784"><ele>89.25</ele><time>2026-04-25T08:29:55.092Z</time></trkpt><trkpt lat="45.4900379" lon="11.251566"><ele>89.5</ele><time>2026-04-25T08:29:56.093Z</time></trkpt><trkpt lat="45.4901699" lon="11.2515406"><ele>89.75</ele><time>2026-04-25T08:29:57.092Z</time></trkpt><trkpt lat="45.490319" lon="11.2515002"><ele>90.0</ele><time>2026-04-25T08:29:58.092Z</time></trkpt><trkpt lat="45.4904561" lon="11.2514667"><ele>91.0</ele><time>2026-04-25T08:29:59.092Z</time></trkpt><trkpt lat="45.4905834" lon="11.2514518"><ele>92.0</ele><time>2026-04-25T08:30:00.093Z</time></trkpt><trkpt lat="45.4907" lon="11.2514532"><ele>93.0</ele><time>2026-04-25T08:30:01.092Z</time></trkpt><trkpt lat="45.4908077" lon="11.2514541"><ele>94.0</ele><time>2026-04-25T08:30:02.093Z</time></trkpt><trkpt lat="45.4909076" lon="11.2514445"><ele>94.0</ele><time>2026-04-25T08:30:03.092Z</time></trkpt><trkpt lat="45.4910019" lon="11.251415"><ele>94.0</ele><time>2026-04-25T08:30:04.093Z</time></trkpt><trkpt lat="45.4910789" lon="11.2513592"><ele>94.0</ele><time>2026-04-25T08:30:05.092Z</time></trkpt><trkpt lat="45.4911457" lon="11.251256"><ele>94.0</ele><time>2026-04-25T08:30:06.092Z</time></trkpt><trkpt lat="45.4911739" lon="11.2511345"><ele>94.0</ele><time>2026-04-25T08:30:07.093Z</time></trkpt><trkpt lat="45.4911775" lon="11.2510062"><ele>94.0</ele><time>2026-04-25T08:30:08.092Z</time></trkpt><trkpt lat="45.4911633" lon="11.250856"><ele>94.0</ele><time>2026-04-25T08:30:09.092Z</time></trkpt><trkpt lat="45.4911403" lon="11.2507265"><ele>94.0</ele><time>2026-04-25T08:30:10.092Z</time></trkpt><trkpt lat="45.4911116" lon="11.2505942"><ele>94.0</ele><time>2026-04-25T08:30:11.092Z</time></trkpt><trkpt lat="45.4910945" lon="11.2504921"><ele>94.0</ele><time>2026-04-25T08:30:12.092Z</time></trkpt><trkpt lat="45.4911323" lon="11.2503134"><ele>95.0</ele><time>2026-04-25T08:30:14.092Z</time></trkpt><trkpt lat="45.491189" lon="11.2502382"><ele>96.0</ele><time>2026-04-25T08:30:15.092Z</time></trkpt><trkpt lat="45.4912573" lon="11.2501709"><ele>97.0</ele><time>2026-04-25T08:30:16.092Z</time></trkpt><trkpt lat="45.4913455" lon="11.2500904"><ele>98.0</ele><time>2026-04-25T08:30:17.093Z</time></trkpt><trkpt lat="45.4914352" lon="11.2500104"><ele>99.0</ele><time>2026-04-25T08:30:18.093Z</time></trkpt><trkpt lat="45.4915303" lon="11.2499292"><ele>99.0</ele><time>2026-04-25T08:30:19.093Z</time></trkpt><trkpt lat="45.4916294" lon="11.2498501"><ele>99.0</ele><time>2026-04-25T08:30:20.092Z</time></trkpt><trkpt lat="45.4917247" lon="11.2497778"><ele>99.0</ele><time>2026-04-25T08:30:21.092Z</time></trkpt><trkpt lat="45.4918358" lon="11.2496934"><ele>99.0</ele><time>2026-04-25T08:30:22.093Z</time></trkpt><trkpt lat="45.4919429" lon="11.2496155"><ele>99.75</ele><time>2026-04-25T08:30:23.092Z</time></trkpt><trkpt lat="45.4920538" lon="11.249541"><ele>100.5</ele><time>2026-04-25T08:30:24.092Z</time></trkpt><trkpt lat="45.4921667" lon="11.2494689"><ele>101.25</ele><time>2026-04-25T08:30:25.092Z</time></trkpt><trkpt lat="45.4922751" lon="11.2493991"><ele>102.0</ele><time>2026-04-25T08:30:26.093Z</time></trkpt><trkpt lat="45.4923999" lon="11.2493183"><ele>102.0</ele><time>2026-04-25T08:30:27.093Z</time></trkpt><trkpt lat="45.4925197" lon="11.2492382"><ele>102.0</ele><time>2026-04-25T08:30:28.092Z</time></trkpt><trkpt lat="45.4926322" lon="11.249154"><ele>102.0</ele><time>2026-04-25T08:30:29.105Z</time></trkpt><trkpt lat="45.4927564" lon="11.2490746"><ele>102.0</ele><time>2026-04-25T08:30:30.105Z</time></trkpt><trkpt lat="45.4928801" lon="11.2489947"><ele>104.0</ele><time>2026-04-25T08:30:31.105Z</time></trkpt><trkpt lat="45.4930046" lon="11.2489113"><ele>106.0</ele><time>2026-04-25T08:30:32.105Z</time></trkpt><trkpt lat="45.4931316" lon="11.2488293"><ele>108.0</ele><time>2026-04-25T08:30:33.106Z</time></trkpt><trkpt lat="45.493259" lon="11.2487498"><ele>110.0</ele><time>2026-04-25T08:30:34.106Z</time></trkpt><trkpt lat="45.4933813" lon="11.2486761"><ele>110.0</ele><time>2026-04-25T08:30:35.105Z</time></trkpt><trkpt lat="45.4934953" lon="11.2486068"><ele>110.0</ele><time>2026-04-25T08:30:36.105Z</time></trkpt><trkpt lat="45.4936024" lon="11.2485352"><ele>110.0</ele><time>2026-04-25T08:30:37.105Z</time></trkpt><trkpt lat="45.4937022" lon="11.2484451"><ele>110.0</ele><time>2026-04-25T08:30:38.105Z</time></trkpt><trkpt lat="45.493799" lon="11.2483436"><ele>110.25</ele><time>2026-04-25T08:30:39.105Z</time></trkpt><trkpt lat="45.4938929" lon="11.2482328"><ele>110.5</ele><time>2026-04-25T08:30:40.106Z</time></trkpt><trkpt lat="45.4939826" lon="11.2481165"><ele>110.75</ele><time>2026-04-25T08:30:41.106Z</time></trkpt><trkpt lat="45.4940722" lon="11.2480015"><ele>111.0</ele><time>2026-04-25T08:30:42.106Z</time></trkpt><trkpt lat="45.4941685" lon="11.2479013"><ele>111.0</ele><time>2026-04-25T08:30:43.105Z</time></trkpt><trkpt lat="45.4942751" lon="11.2478217"><ele>111.0</ele><time>2026-04-25T08:30:44.106Z</time></trkpt><trkpt lat="45.4943848" lon="11.2477449"><ele>111.0</ele><time>2026-04-25T08:30:45.107Z</time></trkpt><trkpt lat="45.4944854" lon="11.2476651"><ele>111.0</ele><time>2026-04-25T08:30:46.106Z</time></trkpt><trkpt lat="45.4945732" lon="11.2475821"><ele>110.33333333333333</ele><time>2026-04-25T08:30:47.105Z</time></trkpt><trkpt lat="45.4946519" lon="11.2475059"><ele>109.66666666666666</ele><time>2026-04-25T08:30:48.105Z</time></trkpt><trkpt lat="45.4947203" lon="11.2474311"><ele>109.0</ele><time>2026-04-25T08:30:49.106Z</time></trkpt><trkpt lat="45.4947695" lon="11.2473383"><ele>108.33333333333333</ele><time>2026-04-25T08:30:50.106Z</time></trkpt><trkpt lat="45.4948075" lon="11.2472297"><ele>107.66666666666666</ele><time>2026-04-25T08:30:51.105Z</time></trkpt><trkpt lat="45.494826" lon="11.2471034"><ele>107.0</ele><time>2026-04-25T08:30:52.105Z</time></trkpt><trkpt lat="45.4948332" lon="11.2469713"><ele>106.99999999999999</ele><time>2026-04-25T08:30:53.105Z</time></trkpt><trkpt lat="45.4948412" lon="11.2468314"><ele>107.0</ele><time>2026-04-25T08:30:54.105Z</time></trkpt><trkpt lat="45.4948603" lon="11.2466977"><ele>107.0</ele><time>2026-04-25T08:30:55.105Z</time></trkpt><trkpt lat="45.4948814" lon="11.2465783"><ele>107.0</ele><time>2026-04-25T08:30:56.106Z</time></trkpt><trkpt lat="45.4949066" lon="11.2464673"><ele>106.99999999999999</ele><time>2026-04-25T08:30:57.105Z</time></trkpt><trkpt lat="45.4949313" lon="11.2463582"><ele>107.0</ele><time>2026-04-25T08:30:58.105Z</time></trkpt><trkpt lat="45.4949679" lon="11.2462559"><ele>108.39999999999999</ele><time>2026-04-25T08:30:59.106Z</time></trkpt><trkpt lat="45.4950305" lon="11.2461715"><ele>109.79999999999998</ele><time>2026-04-25T08:31:00.106Z</time></trkpt><trkpt lat="45.4951119" lon="11.2461139"><ele>111.2</ele><time>2026-04-25T08:31:01.106Z</time></trkpt><trkpt lat="45.4952052" lon="11.2460795"><ele>112.6</ele><time>2026-04-25T08:31:02.106Z</time></trkpt><trkpt lat="45.4953043" lon="11.246056"><ele>114.0</ele><time>2026-04-25T08:31:03.106Z</time></trkpt><trkpt lat="45.4954048" lon="11.2460398"><ele>112.80000000000001</ele><time>2026-04-25T08:31:04.106Z</time></trkpt><trkpt lat="45.4955028" lon="11.2460252"><ele>111.60000000000001</ele><time>2026-04-25T08:31:05.106Z</time></trkpt><trkpt lat="45.4955838" lon="11.245978"><ele>110.4</ele><time>2026-04-25T08:31:06.105Z</time></trkpt><trkpt lat="45.4956523" lon="11.245898"><ele>109.2</ele><time>2026-04-25T08:31:07.106Z</time></trkpt><trkpt lat="45.4957086" lon="11.2457976"><ele>108.0</ele><time>2026-04-25T08:31:08.106Z</time></trkpt><trkpt lat="45.4957682" lon="11.2456891"><ele>110.0</ele><time>2026-04-25T08:31:09.106Z</time></trkpt><trkpt lat="45.4958466" lon="11.2455921"><ele>112.00000000000001</ele><time>2026-04-25T08:31:10.105Z</time></trkpt><trkpt lat="45.495936" lon="11.2454984"><ele>114.00000000000001</ele><time>2026-04-25T08:31:11.106Z</time></trkpt><trkpt lat="45.4960335" lon="11.2454106"><ele>116.0</ele><time>2026-04-25T08:31:12.106Z</time></trkpt><trkpt lat="45.4961382" lon="11.2453324"><ele>118.0</ele><time>2026-04-25T08:31:13.105Z</time></trkpt><trkpt lat="45.4962453" lon="11.2452605"><ele>117.5</ele><time>2026-04-25T08:31:14.105Z</time></trkpt><trkpt lat="45.4963546" lon="11.2451881"><ele>117.0</ele><time>2026-04-25T08:31:15.106Z</time></trkpt><trkpt lat="45.4964632" lon="11.245117"><ele>116.5</ele><time>2026-04-25T08:31:16.105Z</time></trkpt><trkpt lat="45.4965705" lon="11.2450459"><ele>116.0</ele><time>2026-04-25T08:31:17.105Z</time></trkpt><trkpt lat="45.4966727" lon="11.2449702"><ele>116.0</ele><time>2026-04-25T08:31:18.105Z</time></trkpt><trkpt lat="45.4967703" lon="11.2448939"><ele>116.0</ele><time>2026-04-25T08:31:19.106Z</time></trkpt><trkpt lat="45.4968645" lon="11.2448159"><ele>116.0</ele><time>2026-04-25T08:31:20.106Z</time></trkpt><trkpt lat="45.4969531" lon="11.2447235"><ele>116.0</ele><time>2026-04-25T08:31:21.105Z</time></trkpt><trkpt lat="45.4970336" lon="11.2446062"><ele>116.0</ele><time>2026-04-25T08:31:22.106Z</time></trkpt><trkpt lat="45.4971008" lon="11.2444684"><ele>117.0</ele><time>2026-04-25T08:31:23.105Z</time></trkpt><trkpt lat="45.4971537" lon="11.2443186"><ele>118.0</ele><time>2026-04-25T08:31:24.106Z</time></trkpt><trkpt lat="45.4971977" lon="11.2441586"><ele>119.0</ele><time>2026-04-25T08:31:25.105Z</time></trkpt><trkpt lat="45.4972449" lon="11.2439974"><ele>120.0</ele><time>2026-04-25T08:31:26.106Z</time></trkpt><trkpt lat="45.4973002" lon="11.2438421"><ele>124.5</ele><time>2026-04-25T08:31:27.105Z</time></trkpt><trkpt lat="45.4973689" lon="11.2436952"><ele>129.0</ele><time>2026-04-25T08:31:28.106Z</time></trkpt><trkpt lat="45.4974501" lon="11.2435591"><ele>133.5</ele><time>2026-04-25T08:31:29.105Z</time></trkpt><trkpt lat="45.4975262" lon="11.24343"><ele>138.0</ele><time>2026-04-25T08:31:30.105Z</time></trkpt><trkpt lat="45.497584" lon="11.2433048"><ele>138.0</ele><time>2026-04-25T08:31:31.107Z</time></trkpt><trkpt lat="45.4976183" lon="11.2431811"><ele>138.0</ele><time>2026-04-25T08:31:32.105Z</time></trkpt><trkpt lat="45.4976387" lon="11.2430711"><ele>138.0</ele><time>2026-04-25T08:31:33.107Z</time></trkpt><trkpt lat="45.4976759" lon="11.2429905"><ele>138.0</ele><time>2026-04-25T08:31:34.106Z</time></trkpt><trkpt lat="45.4977811" lon="11.2429254"><ele>138.0</ele><time>2026-04-25T08:31:36.105Z</time></trkpt><trkpt lat="45.4978933" lon="11.2429264"><ele>140.66666666666666</ele><time>2026-04-25T08:31:38.105Z</time></trkpt><trkpt lat="45.4979694" lon="11.2428989"><ele>143.33333333333334</ele><time>2026-04-25T08:31:39.106Z</time></trkpt><trkpt lat="45.4980441" lon="11.242854"><ele>146.0</ele><time>2026-04-25T08:31:40.105Z</time></trkpt><trkpt lat="45.49812" lon="11.2427948"><ele>148.66666666666669</ele><time>2026-04-25T08:31:41.106Z</time></trkpt><trkpt lat="45.4981921" lon="11.2427231"><ele>151.33333333333334</ele><time>2026-04-25T08:31:42.105Z</time></trkpt><trkpt lat="45.4982568" lon="11.2426463"><ele>154.0</ele><time>2026-04-25T08:31:43.106Z</time></trkpt><trkpt lat="45.4983078" lon="11.2425513"><ele>154.0</ele><time>2026-04-25T08:31:44.105Z</time></trkpt><trkpt lat="45.4983442" lon="11.2424412"><ele>154.0</ele><time>2026-04-25T08:31:45.105Z</time></trkpt><trkpt lat="45.498374" lon="11.2423213"><ele>154.0</ele><time>2026-04-25T08:31:46.106Z</time></trkpt><trkpt lat="45.4983945" lon="11.2421957"><ele>154.0</ele><time>2026-04-25T08:31:47.105Z</time></trkpt><trkpt lat="45.4984089" lon="11.2420689"><ele>154.0</ele><time>2026-04-25T08:31:48.105Z</time></trkpt><trkpt lat="45.4984212" lon="11.2419397"><ele>154.0</ele><time>2026-04-25T08:31:49.106Z</time></trkpt><trkpt lat="45.4984386" lon="11.2418128"><ele>158.8</ele><time>2026-04-25T08:31:50.105Z</time></trkpt><trkpt lat="45.4984744" lon="11.2416974"><ele>163.60000000000002</ele><time>2026-04-25T08:31:51.107Z</time></trkpt><trkpt lat="45.4985232" lon="11.2415875"><ele>168.4</ele><time>2026-04-25T08:31:52.106Z</time></trkpt><trkpt lat="45.498582" lon="11.2414883"><ele>173.20000000000002</ele><time>2026-04-25T08:31:53.106Z</time></trkpt><trkpt lat="45.4986525" lon="11.2413939"><ele>178.0</ele><time>2026-04-25T08:31:54.105Z</time></trkpt><trkpt lat="45.498726" lon="11.2413048"><ele>176.0</ele><time>2026-04-25T08:31:55.105Z</time></trkpt><trkpt lat="45.4988086" lon="11.2412205"><ele>174.0</ele><time>2026-04-25T08:31:56.105Z</time></trkpt><trkpt lat="45.4988952" lon="11.241142"><ele>172.0</ele><time>2026-04-25T08:31:57.106Z</time></trkpt><trkpt lat="45.4989834" lon="11.2410683"><ele>170.0</ele><time>2026-04-25T08:31:58.107Z</time></trkpt><trkpt lat="45.499066" lon="11.2409999"><ele>168.0</ele><time>2026-04-25T08:31:59.105Z</time></trkpt><trkpt lat="45.4991492" lon="11.2409346"><ele>168.0</ele><time>2026-04-25T08:32:00.105Z</time></trkpt><trkpt lat="45.4992272" lon="11.2408717"><ele>168.0</ele><time>2026-04-25T08:32:01.105Z</time></trkpt><trkpt lat="45.4992981" lon="11.2408222"><ele>168.0</ele><time>2026-04-25T08:32:02.106Z</time></trkpt><trkpt lat="45.4993599" lon="11.2407783"><ele>168.0</ele><time>2026-04-25T08:32:03.105Z</time></trkpt><trkpt lat="45.4994467" lon="11.2406933"><ele>168.0</ele><time>2026-04-25T08:32:05.105Z</time></trkpt><trkpt lat="45.4994699" lon="11.2405231"><ele>169.0</ele><time>2026-04-25T08:32:07.105Z</time></trkpt><trkpt lat="45.4994567" lon="11.2404112"><ele>170.0</ele><time>2026-04-25T08:32:08.105Z</time></trkpt><trkpt lat="45.4994359" lon="11.2402848"><ele>171.0</ele><time>2026-04-25T08:32:09.106Z</time></trkpt><trkpt lat="45.4994148" lon="11.2401427"><ele>172.0</ele><time>2026-04-25T08:32:10.105Z</time></trkpt><trkpt lat="45.4993911" lon="11.2399875"><ele>173.0</ele><time>2026-04-25T08:32:11.106Z</time></trkpt><trkpt lat="45.4993695" lon="11.239822"><ele>173.75</ele><time>2026-04-25T08:32:12.105Z</time></trkpt><trkpt lat="45.4993447" lon="11.2396432"><ele>174.5</ele><time>2026-04-25T08:32:13.106Z</time></trkpt><trkpt lat="45.4993192" lon="11.2394639"><ele>175.25</ele><time>2026-04-25T08:32:14.106Z</time></trkpt><trkpt lat="45.4992919" lon="11.2392865"><ele>176.0</ele><time>2026-04-25T08:32:15.105Z</time></trkpt><trkpt lat="45.4992639" lon="11.2391094"><ele>177.5</ele><time>2026-04-25T08:32:16.106Z</time></trkpt><trkpt lat="45.4992442" lon="11.2389384"><ele>179.0</ele><time>2026-04-25T08:32:17.105Z</time></trkpt><trkpt lat="45.499247" lon="11.2387666"><ele>180.5</ele><time>2026-04-25T08:32:18.105Z</time></trkpt><trkpt lat="45.4992692" lon="11.2386023"><ele>182.0</ele><time>2026-04-25T08:32:19.105Z</time></trkpt><trkpt lat="45.4992972" lon="11.2384397"><ele>182.0</ele><time>2026-04-25T08:32:20.105Z</time></trkpt><trkpt lat="45.4993209" lon="11.2382746"><ele>182.0</ele><time>2026-04-25T08:32:21.106Z</time></trkpt><trkpt lat="45.4993368" lon="11.238107"><ele>182.0</ele><time>2026-04-25T08:32:22.106Z</time></trkpt><trkpt lat="45.4993482" lon="11.237942"><ele>182.0</ele><time>2026-04-25T08:32:23.106Z</time></trkpt><trkpt lat="45.4993596" lon="11.2377784"><ele>182.6</ele><time>2026-04-25T08:32:24.106Z</time></trkpt><trkpt lat="45.4993685" lon="11.237625"><ele>183.2</ele><time>2026-04-25T08:32:25.106Z</time></trkpt><trkpt lat="45.4993657" lon="11.2374727"><ele>183.8</ele><time>2026-04-25T08:32:26.105Z</time></trkpt><trkpt lat="45.4993497" lon="11.2373178"><ele>184.4</ele><time>2026-04-25T08:32:27.105Z</time></trkpt><trkpt lat="45.4993202" lon="11.2371603"><ele>185.0</ele><time>2026-04-25T08:32:28.106Z</time></trkpt><trkpt lat="45.4992859" lon="11.2369985"><ele>185.0</ele><time>2026-04-25T08:32:29.106Z</time></trkpt><trkpt lat="45.4992597" lon="11.2368406"><ele>185.0</ele><time>2026-04-25T08:32:30.105Z</time></trkpt><trkpt lat="45.4992461" lon="11.2366964"><ele>185.0</ele><time>2026-04-25T08:32:31.105Z</time></trkpt><trkpt lat="45.4992451" lon="11.2365471"><ele>185.0</ele><time>2026-04-25T08:32:32.107Z</time></trkpt><trkpt lat="45.4992512" lon="11.2363901"><ele>185.0</ele><time>2026-04-25T08:32:33.106Z</time></trkpt><trkpt lat="45.4992619" lon="11.2362324"><ele>184.4</ele><time>2026-04-25T08:32:34.105Z</time></trkpt><trkpt lat="45.4992813" lon="11.2360769"><ele>183.8</ele><time>2026-04-25T08:32:35.106Z</time></trkpt><trkpt lat="45.4993186" lon="11.2359256"><ele>183.2</ele><time>2026-04-25T08:32:36.106Z</time></trkpt><trkpt lat="45.4993633" lon="11.2357795"><ele>182.6</ele><time>2026-04-25T08:32:37.105Z</time></trkpt><trkpt lat="45.4994106" lon="11.2356375"><ele>182.0</ele><time>2026-04-25T08:32:38.105Z</time></trkpt><trkpt lat="45.4994499" lon="11.2354965"><ele>181.8</ele><time>2026-04-25T08:32:39.105Z</time></trkpt><trkpt lat="45.4994634" lon="11.2353544"><ele>181.6</ele><time>2026-04-25T08:32:40.105Z</time></trkpt><trkpt lat="45.4994681" lon="11.2352193"><ele>181.4</ele><time>2026-04-25T08:32:41.106Z</time></trkpt><trkpt lat="45.4994604" lon="11.2350889"><ele>181.20000000000002</ele><time>2026-04-25T08:32:42.105Z</time></trkpt><trkpt lat="45.4994307" lon="11.2349604"><ele>181.0</ele><time>2026-04-25T08:32:43.105Z</time></trkpt><trkpt lat="45.4993913" lon="11.2348322"><ele>182.16666666666669</ele><time>2026-04-25T08:32:44.105Z</time></trkpt><trkpt lat="45.4993574" lon="11.2347139"><ele>183.33333333333334</ele><time>2026-04-25T08:32:45.105Z</time></trkpt><trkpt lat="45.4993265" lon="11.2346131"><ele>184.5</ele><time>2026-04-25T08:32:46.106Z</time></trkpt><trkpt lat="45.4993164" lon="11.2345143"><ele>185.66666666666666</ele><time>2026-04-25T08:32:47.107Z</time></trkpt><trkpt lat="45.4993323" lon="11.23441"><ele>186.83333333333331</ele><time>2026-04-25T08:32:48.105Z</time></trkpt><trkpt lat="45.4993747" lon="11.2343152"><ele>188.0</ele><time>2026-04-25T08:32:49.105Z</time></trkpt><trkpt lat="45.4994333" lon="11.2342172"><ele>188.0</ele><time>2026-04-25T08:32:50.106Z</time></trkpt><trkpt lat="45.4995031" lon="11.2341186"><ele>188.0</ele><time>2026-04-25T08:32:51.105Z</time></trkpt><trkpt lat="45.4995824" lon="11.2340241"><ele>188.0</ele><time>2026-04-25T08:32:52.106Z</time></trkpt><trkpt lat="45.499659" lon="11.2339364"><ele>188.0</ele><time>2026-04-25T08:32:53.105Z</time></trkpt><trkpt lat="45.4997247" lon="11.2338303"><ele>188.0</ele><time>2026-04-25T08:32:54.106Z</time></trkpt><trkpt lat="45.4997796" lon="11.2337102"><ele>190.4</ele><time>2026-04-25T08:32:55.105Z</time></trkpt><trkpt lat="45.4998283" lon="11.2335764"><ele>192.8</ele><time>2026-04-25T08:32:56.106Z</time></trkpt><trkpt lat="45.4998716" lon="11.2334404"><ele>195.2</ele><time>2026-04-25T08:32:57.105Z</time></trkpt><trkpt lat="45.4999056" lon="11.2332984"><ele>197.6</ele><time>2026-04-25T08:32:58.106Z</time></trkpt><trkpt lat="45.4999281" lon="11.2331574"><ele>200.0</ele><time>2026-04-25T08:32:59.105Z</time></trkpt><trkpt lat="45.4999375" lon="11.2330191"><ele>201.14285714285717</ele><time>2026-04-25T08:33:00.106Z</time></trkpt><trkpt lat="45.4999353" lon="11.2329019"><ele>202.28571428571428</ele><time>2026-04-25T08:33:01.106Z</time></trkpt><trkpt lat="45.4999385" lon="11.2327999"><ele>203.42857142857144</ele><time>2026-04-25T08:33:02.105Z</time></trkpt><trkpt lat="45.4999635" lon="11.2327122"><ele>204.57142857142858</ele><time>2026-04-25T08:33:03.107Z</time></trkpt><trkpt lat="45.5000114" lon="11.2326431"><ele>205.71428571428572</ele><time>2026-04-25T08:33:04.106Z</time></trkpt><trkpt lat="45.5000725" lon="11.2326061"><ele>206.85714285714286</ele><time>2026-04-25T08:33:05.105Z</time></trkpt><trkpt lat="45.5001445" lon="11.2325995"><ele>208.0</ele><time>2026-04-25T08:33:06.106Z</time></trkpt><trkpt lat="45.5002236" lon="11.2326012"><ele>207.99999999999997</ele><time>2026-04-25T08:33:07.105Z</time></trkpt><trkpt lat="45.500302" lon="11.2325932"><ele>208.0</ele><time>2026-04-25T08:33:08.106Z</time></trkpt><trkpt lat="45.5003806" lon="11.2325729"><ele>208.0</ele><time>2026-04-25T08:33:09.105Z</time></trkpt><trkpt lat="45.5004551" lon="11.2325307"><ele>208.0</ele><time>2026-04-25T08:33:10.107Z</time></trkpt><trkpt lat="45.5005229" lon="11.232462"><ele>207.99999999999997</ele><time>2026-04-25T08:33:11.106Z</time></trkpt><trkpt lat="45.5005762" lon="11.2323742"><ele>208.0</ele><time>2026-04-25T08:33:12.106Z</time></trkpt><trkpt lat="45.500619" lon="11.232269"><ele>211.16666666666666</ele><time>2026-04-25T08:33:13.105Z</time></trkpt><trkpt lat="45.5006547" lon="11.2321656"><ele>214.33333333333331</ele><time>2026-04-25T08:33:14.105Z</time></trkpt><trkpt lat="45.5006891" lon="11.2320657"><ele>217.5</ele><time>2026-04-25T08:33:15.106Z</time></trkpt><trkpt lat="45.5007158" lon="11.2319788"><ele>220.66666666666669</ele><time>2026-04-25T08:33:16.105Z</time></trkpt><trkpt lat="45.5007427" lon="11.2318657"><ele>223.83333333333334</ele><time>2026-04-25T08:33:18.106Z</time></trkpt><trkpt lat="45.500755" lon="11.2317697"><ele>227.0</ele><time>2026-04-25T08:33:21.106Z</time></trkpt><trkpt lat="45.5008169" lon="11.2318249"><ele>227.0</ele><time>2026-04-25T08:33:39.106Z</time></trkpt><trkpt lat="45.5008182" lon="11.2319266"><ele>227.0</ele><time>2026-04-25T08:33:41.106Z</time></trkpt><trkpt lat="45.5008111" lon="11.2320653"><ele>227.0</ele><time>2026-04-25T08:33:43.106Z</time></trkpt><trkpt lat="45.5008034" lon="11.2322171"><ele>227.0</ele><time>2026-04-25T08:33:45.106Z</time></trkpt><trkpt lat="45.5008151" lon="11.2323691"><ele>227.0</ele><time>2026-04-25T08:33:47.106Z</time></trkpt><trkpt lat="45.5008509" lon="11.2324944"><ele>224.8</ele><time>2026-04-25T08:33:49.105Z</time></trkpt><trkpt lat="45.5009175" lon="11.2326116"><ele>222.6</ele><time>2026-04-25T08:33:51.106Z</time></trkpt><trkpt lat="45.5010251" lon="11.232696"><ele>220.40000000000003</ele><time>2026-04-25T08:33:53.106Z</time></trkpt><trkpt lat="45.5010893" lon="11.2327349"><ele>218.20000000000002</ele><time>2026-04-25T08:33:54.106Z</time></trkpt><trkpt lat="45.5011467" lon="11.23278"><ele>216.0</ele><time>2026-04-25T08:33:55.105Z</time></trkpt><trkpt lat="45.5012235" lon="11.2328776"><ele>218.16666666666666</ele><time>2026-04-25T08:33:57.105Z</time></trkpt><trkpt lat="45.5012795" lon="11.233005"><ele>220.33333333333331</ele><time>2026-04-25T08:33:59.105Z</time></trkpt><trkpt lat="45.5013125" lon="11.2330815"><ele>222.5</ele><time>2026-04-25T08:34:00.106Z</time></trkpt><trkpt lat="45.5013567" lon="11.2331548"><ele>224.66666666666666</ele><time>2026-04-25T08:34:01.105Z</time></trkpt><trkpt lat="45.5014126" lon="11.2332205"><ele>226.83333333333331</ele><time>2026-04-25T08:34:02.106Z</time></trkpt><trkpt lat="45.5014784" lon="11.2332732"><ele>229.0</ele><time>2026-04-25T08:34:03.106Z</time></trkpt><trkpt lat="45.5015549" lon="11.2333024"><ele>229.0</ele><time>2026-04-25T08:34:04.105Z</time></trkpt><trkpt lat="45.501632" lon="11.2333232"><ele>228.99999999999997</ele><time>2026-04-25T08:34:05.105Z</time></trkpt><trkpt lat="45.5017155" lon="11.2333358"><ele>228.99999999999997</ele><time>2026-04-25T08:34:06.105Z</time></trkpt><trkpt lat="45.5018076" lon="11.2333377"><ele>229.0</ele><time>2026-04-25T08:34:07.106Z</time></trkpt><trkpt lat="45.5019075" lon="11.23334"><ele>229.0</ele><time>2026-04-25T08:34:08.106Z</time></trkpt><trkpt lat="45.5020126" lon="11.2333402"><ele>230.79999999999998</ele><time>2026-04-25T08:34:09.105Z</time></trkpt><trkpt lat="45.5021188" lon="11.2333427"><ele>232.59999999999997</ele><time>2026-04-25T08:34:10.106Z</time></trkpt><trkpt lat="45.502228" lon="11.2333478"><ele>234.4</ele><time>2026-04-25T08:34:11.105Z</time></trkpt><trkpt lat="45.502337" lon="11.2333601"><ele>236.2</ele><time>2026-04-25T08:34:12.106Z</time></trkpt><trkpt lat="45.5024427" lon="11.2333763"><ele>238.0</ele><time>2026-04-25T08:34:13.106Z</time></trkpt><trkpt lat="45.5025478" lon="11.2334"><ele>238.0</ele><time>2026-04-25T08:34:14.106Z</time></trkpt><trkpt lat="45.5026521" lon="11.2334314"><ele>238.0</ele><time>2026-04-25T08:34:15.105Z</time></trkpt><trkpt lat="45.5027504" lon="11.233467"><ele>238.0</ele><time>2026-04-25T08:34:16.106Z</time></trkpt><trkpt lat="45.5028359" lon="11.2335104"><ele>238.0</ele><time>2026-04-25T08:34:17.105Z</time></trkpt><trkpt lat="45.5029174" lon="11.2335485"><ele>238.0</ele><time>2026-04-25T08:34:18.106Z</time></trkpt><trkpt lat="45.5030021" lon="11.2335767"><ele>241.0</ele><time>2026-04-25T08:34:19.105Z</time></trkpt><trkpt lat="45.5030951" lon="11.2335856"><ele>244.0</ele><time>2026-04-25T08:34:20.107Z</time></trkpt><trkpt lat="45.5031947" lon="11.2335921"><ele>247.0</ele><time>2026-04-25T08:34:21.105Z</time></trkpt><trkpt lat="45.5032993" lon="11.2336181"><ele>250.0</ele><time>2026-04-25T08:34:22.105Z</time></trkpt><trkpt lat="45.5034034" lon="11.2336779"><ele>253.0</ele><time>2026-04-25T08:34:23.106Z</time></trkpt><trkpt lat="45.5035062" lon="11.2337626"><ele>253.0</ele><time>2026-04-25T08:34:24.105Z</time></trkpt><trkpt lat="45.5036083" lon="11.2338517"><ele>253.0</ele><time>2026-04-25T08:34:25.105Z</time></trkpt><trkpt lat="45.5037151" lon="11.2339188"><ele>253.0</ele><time>2026-04-25T08:34:26.105Z</time></trkpt><trkpt lat="45.5038205" lon="11.2339685"><ele>253.0</ele><time>2026-04-25T08:34:27.106Z</time></trkpt><trkpt lat="45.5039293" lon="11.2340106"><ele>250.25</ele><time>2026-04-25T08:34:28.105Z</time></trkpt><trkpt lat="45.5040425" lon="11.2340408"><ele>247.5</ele><time>2026-04-25T08:34:29.105Z</time></trkpt><trkpt lat="45.504154" lon="11.2340852"><ele>244.75</ele><time>2026-04-25T08:34:30.107Z</time></trkpt><trkpt lat="45.5042578" lon="11.2341696"><ele>242.0</ele><time>2026-04-25T08:34:31.106Z</time></trkpt><trkpt lat="45.504358" lon="11.2342617"><ele>242.0</ele><time>2026-04-25T08:34:32.105Z</time></trkpt><trkpt lat="45.5044582" lon="11.2343359"><ele>242.0</ele><time>2026-04-25T08:34:33.105Z</time></trkpt><trkpt lat="45.5045477" lon="11.2344226"><ele>242.0</ele><time>2026-04-25T08:34:34.106Z</time></trkpt><trkpt lat="45.5046201" lon="11.234548"><ele>242.0</ele><time>2026-04-25T08:34:35.106Z</time></trkpt><trkpt lat="45.5046724" lon="11.2346958"><ele>243.6</ele><time>2026-04-25T08:34:36.106Z</time></trkpt><trkpt lat="45.5047186" lon="11.2348402"><ele>245.2</ele><time>2026-04-25T08:34:37.107Z</time></trkpt><trkpt lat="45.5047566" lon="11.2349716"><ele>246.8</ele><time>2026-04-25T08:34:38.107Z</time></trkpt><trkpt lat="45.5047916" lon="11.2350881"><ele>248.4</ele><time>2026-04-25T08:34:39.105Z</time></trkpt><trkpt lat="45.5048303" lon="11.2351844"><ele>250.0</ele><time>2026-04-25T08:34:40.106Z</time></trkpt><trkpt lat="45.5048827" lon="11.2352676"><ele>249.99999999999997</ele><time>2026-04-25T08:34:41.105Z</time></trkpt><trkpt lat="45.5049462" lon="11.2353411"><ele>250.0</ele><time>2026-04-25T08:34:42.105Z</time></trkpt><trkpt lat="45.5050221" lon="11.2354111"><ele>250.0</ele><time>2026-04-25T08:34:43.105Z</time></trkpt><trkpt lat="45.5051014" lon="11.2354761"><ele>250.0</ele><time>2026-04-25T08:34:44.106Z</time></trkpt><trkpt lat="45.5051766" lon="11.2355432"><ele>249.99999999999997</ele><time>2026-04-25T08:34:45.105Z</time></trkpt><trkpt lat="45.5052452" lon="11.2356082"><ele>250.0</ele><time>2026-04-25T08:34:46.105Z</time></trkpt><trkpt lat="45.5053165" lon="11.2356612"><ele>249.83333333333331</ele><time>2026-04-25T08:34:47.105Z</time></trkpt><trkpt lat="45.5053916" lon="11.2356836"><ele>249.66666666666666</ele><time>2026-04-25T08:34:48.106Z</time></trkpt><trkpt lat="45.5054679" lon="11.2356692"><ele>249.5</ele><time>2026-04-25T08:34:49.107Z</time></trkpt><trkpt lat="45.5055402" lon="11.2356155"><ele>249.33333333333331</ele><time>2026-04-25T08:34:50.105Z</time></trkpt><trkpt lat="45.5056096" lon="11.2355367"><ele>249.16666666666666</ele><time>2026-04-25T08:34:51.105Z</time></trkpt><trkpt lat="45.5056783" lon="11.2354477"><ele>249.0</ele><time>2026-04-25T08:34:52.106Z</time></trkpt><trkpt lat="45.5057391" lon="11.2353637"><ele>249.0</ele><time>2026-04-25T08:34:53.105Z</time></trkpt><trkpt lat="45.5058016" lon="11.235297"><ele>248.99999999999997</ele><time>2026-04-25T08:34:54.105Z</time></trkpt><trkpt lat="45.5058779" lon="11.2352653"><ele>249.0</ele><time>2026-04-25T08:34:55.105Z</time></trkpt><trkpt lat="45.5059493" lon="11.2352744"><ele>249.0</ele><time>2026-04-25T08:34:56.105Z</time></trkpt><trkpt lat="45.5060136" lon="11.2353141"><ele>248.99999999999997</ele><time>2026-04-25T08:34:57.106Z</time></trkpt><trkpt lat="45.5060748" lon="11.2353612"><ele>249.0</ele><time>2026-04-25T08:34:58.106Z</time></trkpt><trkpt lat="45.5061406" lon="11.2353824"><ele>249.0</ele><time>2026-04-25T08:34:59.105Z</time></trkpt><trkpt lat="45.506211" lon="11.2353662"><ele>243.2</ele><time>2026-04-25T08:35:00.105Z</time></trkpt><trkpt lat="45.5062786" lon="11.2353149"><ele>237.39999999999998</ele><time>2026-04-25T08:35:01.105Z</time></trkpt><trkpt lat="45.5063369" lon="11.235226"><ele>231.6</ele><time>2026-04-25T08:35:02.106Z</time></trkpt><trkpt lat="45.5063862" lon="11.2351165"><ele>225.8</ele><time>2026-04-25T08:35:03.106Z</time></trkpt><trkpt lat="45.5064335" lon="11.2349941"><ele>220.0</ele><time>2026-04-25T08:35:04.106Z</time></trkpt><trkpt lat="45.506478" lon="11.2348675"><ele>223.6</ele><time>2026-04-25T08:35:05.106Z</time></trkpt><trkpt lat="45.5065227" lon="11.2347361"><ele>227.2</ele><time>2026-04-25T08:35:06.105Z</time></trkpt><trkpt lat="45.5065662" lon="11.2346082"><ele>230.8</ele><time>2026-04-25T08:35:07.106Z</time></trkpt><trkpt lat="45.5066304" lon="11.2345042"><ele>234.4</ele><time>2026-04-25T08:35:08.105Z</time></trkpt><trkpt lat="45.5067083" lon="11.2344272"><ele>238.0</ele><time>2026-04-25T08:35:09.105Z</time></trkpt><trkpt lat="45.5067957" lon="11.2343643"><ele>238.0</ele><time>2026-04-25T08:35:10.105Z</time></trkpt><trkpt lat="45.5068716" lon="11.2342813"><ele>238.0</ele><time>2026-04-25T08:35:11.106Z</time></trkpt><trkpt lat="45.5069395" lon="11.234178"><ele>238.0</ele><time>2026-04-25T08:35:12.106Z</time></trkpt><trkpt lat="45.5069963" lon="11.2340613"><ele>238.0</ele><time>2026-04-25T08:35:13.105Z</time></trkpt><trkpt lat="45.5070334" lon="11.2339356"><ele>238.0</ele><time>2026-04-25T08:35:14.106Z</time></trkpt><trkpt lat="45.5070702" lon="11.233823"><ele>235.49999999999997</ele><time>2026-04-25T08:35:15.106Z</time></trkpt><trkpt lat="45.5071262" lon="11.2337306"><ele>233.0</ele><time>2026-04-25T08:35:16.105Z</time></trkpt><trkpt lat="45.5071959" lon="11.2336705"><ele>230.5</ele><time>2026-04-25T08:35:17.105Z</time></trkpt><trkpt lat="45.5072709" lon="11.2336412"><ele>228.0</ele><time>2026-04-25T08:35:18.106Z</time></trkpt><trkpt lat="45.5073492" lon="11.2336225"><ele>225.49999999999997</ele><time>2026-04-25T08:35:19.106Z</time></trkpt><trkpt lat="45.5074262" lon="11.2335929"><ele>223.0</ele><time>2026-04-25T08:35:20.106Z</time></trkpt><trkpt lat="45.507501" lon="11.2335507"><ele>222.99999999999997</ele><time>2026-04-25T08:35:21.106Z</time></trkpt><trkpt lat="45.5075749" lon="11.2334995"><ele>223.0</ele><time>2026-04-25T08:35:22.105Z</time></trkpt><trkpt lat="45.5076487" lon="11.2334397"><ele>223.0</ele><time>2026-04-25T08:35:23.105Z</time></trkpt><trkpt lat="45.5077218" lon="11.233377"><ele>223.0</ele><time>2026-04-25T08:35:24.105Z</time></trkpt><trkpt lat="45.5077943" lon="11.2333134"><ele>222.99999999999997</ele><time>2026-04-25T08:35:25.105Z</time></trkpt><trkpt lat="45.5078616" lon="11.2332536"><ele>223.0</ele><time>2026-04-25T08:35:26.104Z</time></trkpt><trkpt lat="45.5079265" lon="11.2331973"><ele>223.33333333333331</ele><time>2026-04-25T08:35:27.105Z</time></trkpt><trkpt lat="45.5079894" lon="11.2331453"><ele>223.66666666666666</ele><time>2026-04-25T08:35:28.104Z</time></trkpt><trkpt lat="45.5080586" lon="11.2331039"><ele>224.0</ele><time>2026-04-25T08:35:29.105Z</time></trkpt><trkpt lat="45.508139" lon="11.2330766"><ele>224.33333333333331</ele><time>2026-04-25T08:35:30.104Z</time></trkpt><trkpt lat="45.5082278" lon="11.2330663"><ele>224.66666666666666</ele><time>2026-04-25T08:35:31.104Z</time></trkpt><trkpt lat="45.5083172" lon="11.2330717"><ele>225.0</ele><time>2026-04-25T08:35:32.105Z</time></trkpt><trkpt lat="45.5084015" lon="11.2330797"><ele>225.0</ele><time>2026-04-25T08:35:33.104Z</time></trkpt><trkpt lat="45.5084847" lon="11.2330642"><ele>225.0</ele><time>2026-04-25T08:35:34.104Z</time></trkpt><trkpt lat="45.5085684" lon="11.2330182"><ele>225.0</ele><time>2026-04-25T08:35:35.104Z</time></trkpt><trkpt lat="45.5086498" lon="11.2329568"><ele>225.0</ele><time>2026-04-25T08:35:36.106Z</time></trkpt><trkpt lat="45.5087339" lon="11.2328894"><ele>225.0</ele><time>2026-04-25T08:35:37.105Z</time></trkpt><trkpt lat="45.5088255" lon="11.2328514"><ele>225.2</ele><time>2026-04-25T08:35:38.105Z</time></trkpt><trkpt lat="45.5089174" lon="11.2328323"><ele>225.4</ele><time>2026-04-25T08:35:39.105Z</time></trkpt><trkpt lat="45.5090074" lon="11.2328148"><ele>225.60000000000002</ele><time>2026-04-25T08:35:40.104Z</time></trkpt><trkpt lat="45.5090978" lon="11.2327874"><ele>225.8</ele><time>2026-04-25T08:35:41.106Z</time></trkpt><trkpt lat="45.5091899" lon="11.2327552"><ele>226.0</ele><time>2026-04-25T08:35:42.106Z</time></trkpt><trkpt lat="45.5092813" lon="11.232721"><ele>225.99999999999997</ele><time>2026-04-25T08:35:43.104Z</time></trkpt><trkpt lat="45.5093621" lon="11.2326912"><ele>226.0</ele><time>2026-04-25T08:35:44.105Z</time></trkpt><trkpt lat="45.5094346" lon="11.232669"><ele>226.0</ele><time>2026-04-25T08:35:45.106Z</time></trkpt><trkpt lat="45.5095054" lon="11.2326672"><ele>226.0</ele><time>2026-04-25T08:35:46.105Z</time></trkpt><trkpt lat="45.5095783" lon="11.2326869"><ele>225.99999999999997</ele><time>2026-04-25T08:35:47.104Z</time></trkpt><trkpt lat="45.509654" lon="11.2327278"><ele>226.0</ele><time>2026-04-25T08:35:48.104Z</time></trkpt><trkpt lat="45.5097356" lon="11.2327757"><ele>226.8</ele><time>2026-04-25T08:35:49.105Z</time></trkpt><trkpt lat="45.509825" lon="11.2328288"><ele>227.60000000000002</ele><time>2026-04-25T08:35:50.105Z</time></trkpt><trkpt lat="45.5099174" lon="11.23289"><ele>228.4</ele><time>2026-04-25T08:35:51.105Z</time></trkpt><trkpt lat="45.5100135" lon="11.2329611"><ele>229.2</ele><time>2026-04-25T08:35:52.105Z</time></trkpt><trkpt lat="45.5101139" lon="11.2330414"><ele>230.0</ele><time>2026-04-25T08:35:53.105Z</time></trkpt><trkpt lat="45.5102202" lon="11.2331245"><ele>229.25</ele><time>2026-04-25T08:35:54.104Z</time></trkpt><trkpt lat="45.5103289" lon="11.2332075"><ele>228.5</ele><time>2026-04-25T08:35:55.104Z</time></trkpt><trkpt lat="45.5104377" lon="11.2332897"><ele>227.75</ele><time>2026-04-25T08:35:56.105Z</time></trkpt><trkpt lat="45.5105393" lon="11.2333757"><ele>227.0</ele><time>2026-04-25T08:35:57.106Z</time></trkpt><trkpt lat="45.5106372" lon="11.2334634"><ele>227.0</ele><time>2026-04-25T08:35:58.105Z</time></trkpt><trkpt lat="45.5107307" lon="11.2335418"><ele>227.0</ele><time>2026-04-25T08:35:59.105Z</time></trkpt><trkpt lat="45.510822" lon="11.2336217"><ele>227.0</ele><time>2026-04-25T08:36:00.104Z</time></trkpt><trkpt lat="45.5109142" lon="11.2337012"><ele>227.0</ele><time>2026-04-25T08:36:01.104Z</time></trkpt><trkpt lat="45.5110118" lon="11.2337765"><ele>227.0</ele><time>2026-04-25T08:36:02.104Z</time></trkpt><trkpt lat="45.5111155" lon="11.2338359"><ele>227.0</ele><time>2026-04-25T08:36:03.105Z</time></trkpt><trkpt lat="45.5112197" lon="11.2338901"><ele>227.0</ele><time>2026-04-25T08:36:04.104Z</time></trkpt><trkpt lat="45.51133" lon="11.2339275"><ele>227.0</ele><time>2026-04-25T08:36:05.104Z</time></trkpt><trkpt lat="45.5114424" lon="11.2339438"><ele>227.0</ele><time>2026-04-25T08:36:06.104Z</time></trkpt><trkpt lat="45.5115523" lon="11.2339381"><ele>227.0</ele><time>2026-04-25T08:36:07.104Z</time></trkpt><trkpt lat="45.5116641" lon="11.2339132"><ele>227.75</ele><time>2026-04-25T08:36:08.105Z</time></trkpt><trkpt lat="45.5117779" lon="11.2338628"><ele>228.5</ele><time>2026-04-25T08:36:09.104Z</time></trkpt><trkpt lat="45.511896" lon="11.2337829"><ele>229.25</ele><time>2026-04-25T08:36:10.105Z</time></trkpt><trkpt lat="45.5120128" lon="11.2336859"><ele>230.0</ele><time>2026-04-25T08:36:11.104Z</time></trkpt><trkpt lat="45.5121269" lon="11.2335788"><ele>226.5</ele><time>2026-04-25T08:36:12.104Z</time></trkpt><trkpt lat="45.512235" lon="11.2334763"><ele>223.0</ele><time>2026-04-25T08:36:13.104Z</time></trkpt><trkpt lat="45.5123392" lon="11.2333787"><ele>219.5</ele><time>2026-04-25T08:36:14.105Z</time></trkpt><trkpt lat="45.512443" lon="11.2332844"><ele>216.0</ele><time>2026-04-25T08:36:15.104Z</time></trkpt><trkpt lat="45.5125372" lon="11.2331945"><ele>218.8</ele><time>2026-04-25T08:36:16.105Z</time></trkpt><trkpt lat="45.5126229" lon="11.2330995"><ele>221.60000000000002</ele><time>2026-04-25T08:36:17.105Z</time></trkpt><trkpt lat="45.5126943" lon="11.2329845"><ele>224.4</ele><time>2026-04-25T08:36:18.104Z</time></trkpt><trkpt lat="45.5127418" lon="11.2328527"><ele>227.2</ele><time>2026-04-25T08:36:19.105Z</time></trkpt><trkpt lat="45.5127741" lon="11.2327144"><ele>230.0</ele><time>2026-04-25T08:36:20.105Z</time></trkpt><trkpt lat="45.5128084" lon="11.2325983"><ele>230.00000000000003</ele><time>2026-04-25T08:36:21.104Z</time></trkpt><trkpt lat="45.5128571" lon="11.232534"><ele>230.0</ele><time>2026-04-25T08:36:22.104Z</time></trkpt><trkpt lat="45.5129196" lon="11.2325141"><ele>230.0</ele><time>2026-04-25T08:36:23.105Z</time></trkpt><trkpt lat="45.5130263" lon="11.232609"><ele>230.0</ele><time>2026-04-25T08:36:25.104Z</time></trkpt><trkpt lat="45.5130502" lon="11.2327058"><ele>230.00000000000003</ele><time>2026-04-25T08:36:26.104Z</time></trkpt><trkpt lat="45.5130501" lon="11.2328106"><ele>230.0</ele><time>2026-04-25T08:36:27.104Z</time></trkpt><trkpt lat="45.5130507" lon="11.2329088"><ele>229.66666666666669</ele><time>2026-04-25T08:36:28.105Z</time></trkpt><trkpt lat="45.513068" lon="11.2330083"><ele>229.33333333333334</ele><time>2026-04-25T08:36:29.105Z</time></trkpt><trkpt lat="45.5131021" lon="11.2331046"><ele>229.0</ele><time>2026-04-25T08:36:30.104Z</time></trkpt><trkpt lat="45.5131554" lon="11.2331886"><ele>228.66666666666669</ele><time>2026-04-25T08:36:31.104Z</time></trkpt><trkpt lat="45.5132218" lon="11.2332596"><ele>228.33333333333334</ele><time>2026-04-25T08:36:32.106Z</time></trkpt><trkpt lat="45.5132903" lon="11.2333209"><ele>228.0</ele><time>2026-04-25T08:36:33.104Z</time></trkpt><trkpt lat="45.5133604" lon="11.2333757"><ele>226.8</ele><time>2026-04-25T08:36:34.104Z</time></trkpt><trkpt lat="45.5134405" lon="11.2334279"><ele>225.60000000000002</ele><time>2026-04-25T08:36:35.104Z</time></trkpt><trkpt lat="45.5135272" lon="11.2334791"><ele>224.39999999999998</ele><time>2026-04-25T08:36:36.105Z</time></trkpt><trkpt lat="45.5136183" lon="11.233521"><ele>223.2</ele><time>2026-04-25T08:36:37.105Z</time></trkpt><trkpt lat="45.5137171" lon="11.2335541"><ele>222.0</ele><time>2026-04-25T08:36:38.105Z</time></trkpt><trkpt lat="45.5138123" lon="11.2335831"><ele>222.0</ele><time>2026-04-25T08:36:39.105Z</time></trkpt><trkpt lat="45.5139031" lon="11.2336239"><ele>222.0</ele><time>2026-04-25T08:36:40.104Z</time></trkpt><trkpt lat="45.5139928" lon="11.2336816"><ele>222.0</ele><time>2026-04-25T08:36:41.105Z</time></trkpt><trkpt lat="45.5140833" lon="11.2337533"><ele>222.0</ele><time>2026-04-25T08:36:42.104Z</time></trkpt><trkpt lat="45.5141741" lon="11.2338293"><ele>222.0</ele><time>2026-04-25T08:36:43.104Z</time></trkpt><trkpt lat="45.51426" lon="11.2339111"><ele>219.2</ele><time>2026-04-25T08:36:44.106Z</time></trkpt><trkpt lat="45.5143428" lon="11.2339786"><ele>216.39999999999998</ele><time>2026-04-25T08:36:45.105Z</time></trkpt><trkpt lat="45.5144311" lon="11.2340304"><ele>213.60000000000002</ele><time>2026-04-25T08:36:46.104Z</time></trkpt><trkpt lat="45.5145217" lon="11.234068"><ele>210.8</ele><time>2026-04-25T08:36:47.104Z</time></trkpt><trkpt lat="45.5146126" lon="11.2340951"><ele>208.0</ele><time>2026-04-25T08:36:48.105Z</time></trkpt><trkpt lat="45.5147047" lon="11.2341024"><ele>206.8</ele><time>2026-04-25T08:36:49.105Z</time></trkpt><trkpt lat="45.5147975" lon="11.2340947"><ele>205.60000000000002</ele><time>2026-04-25T08:36:50.104Z</time></trkpt><trkpt lat="45.5148947" lon="11.2340684"><ele>204.39999999999998</ele><time>2026-04-25T08:36:51.106Z</time></trkpt><trkpt lat="45.515003" lon="11.2340159"><ele>203.2</ele><time>2026-04-25T08:36:52.105Z</time></trkpt><trkpt lat="45.5151178" lon="11.2339542"><ele>202.0</ele><time>2026-04-25T08:36:53.104Z</time></trkpt><trkpt lat="45.5152369" lon="11.2338892"><ele>202.0</ele><time>2026-04-25T08:36:54.104Z</time></trkpt><trkpt lat="45.5153581" lon="11.2338298"><ele>202.0</ele><time>2026-04-25T08:36:55.105Z</time></trkpt><trkpt lat="45.515478" lon="11.2337874"><ele>202.0</ele><time>2026-04-25T08:36:56.104Z</time></trkpt><trkpt lat="45.5155966" lon="11.2337494"><ele>202.0</ele><time>2026-04-25T08:36:57.105Z</time></trkpt><trkpt lat="45.5157107" lon="11.233695"><ele>202.0</ele><time>2026-04-25T08:36:58.104Z</time></trkpt><trkpt lat="45.5158156" lon="11.2336125"><ele>202.0</ele><time>2026-04-25T08:36:59.105Z</time></trkpt><trkpt lat="45.5159187" lon="11.2335185"><ele>202.0</ele><time>2026-04-25T08:37:00.104Z</time></trkpt><trkpt lat="45.5160199" lon="11.2334161"><ele>202.0</ele><time>2026-04-25T08:37:01.105Z</time></trkpt><trkpt lat="45.5161228" lon="11.2333212"><ele>199.0</ele><time>2026-04-25T08:37:02.104Z</time></trkpt><trkpt lat="45.5162378" lon="11.2332585"><ele>196.0</ele><time>2026-04-25T08:37:03.104Z</time></trkpt><trkpt lat="45.5163596" lon="11.2332227"><ele>193.0</ele><time>2026-04-25T08:37:04.104Z</time></trkpt><trkpt lat="45.5164855" lon="11.233193"><ele>190.0</ele><time>2026-04-25T08:37:05.104Z</time></trkpt><trkpt lat="45.5166131" lon="11.2331781"><ele>190.0</ele><time>2026-04-25T08:37:06.104Z</time></trkpt><trkpt lat="45.5167351" lon="11.2331766"><ele>190.0</ele><time>2026-04-25T08:37:07.104Z</time></trkpt><trkpt lat="45.5168512" lon="11.233181"><ele>190.0</ele><time>2026-04-25T08:37:08.105Z</time></trkpt><trkpt lat="45.5169652" lon="11.2331818"><ele>190.0</ele><time>2026-04-25T08:37:09.105Z</time></trkpt><trkpt lat="45.5170789" lon="11.2331707"><ele>188.0</ele><time>2026-04-25T08:37:10.105Z</time></trkpt><trkpt lat="45.5171996" lon="11.2331506"><ele>186.0</ele><time>2026-04-25T08:37:11.104Z</time></trkpt><trkpt lat="45.5173218" lon="11.2331268"><ele>184.0</ele><time>2026-04-25T08:37:12.104Z</time></trkpt><trkpt lat="45.5174474" lon="11.2331038"><ele>182.0</ele><time>2026-04-25T08:37:13.104Z</time></trkpt><trkpt lat="45.5175684" lon="11.2330873"><ele>185.0</ele><time>2026-04-25T08:37:14.104Z</time></trkpt><trkpt lat="45.5176898" lon="11.233078"><ele>188.0</ele><time>2026-04-25T08:37:15.104Z</time></trkpt><trkpt lat="45.5178142" lon="11.2330752"><ele>191.0</ele><time>2026-04-25T08:37:16.105Z</time></trkpt><trkpt lat="45.517937" lon="11.2330765"><ele>194.0</ele><time>2026-04-25T08:37:17.105Z</time></trkpt><trkpt lat="45.518056" lon="11.2330768"><ele>194.0</ele><time>2026-04-25T08:37:18.104Z</time></trkpt><trkpt lat="45.5181779" lon="11.2330782"><ele>194.0</ele><time>2026-04-25T08:37:19.104Z</time></trkpt><trkpt lat="45.5183003" lon="11.2330782"><ele>194.0</ele><time>2026-04-25T08:37:20.104Z</time></trkpt><trkpt lat="45.5184212" lon="11.2330773"><ele>194.0</ele><time>2026-04-25T08:37:21.105Z</time></trkpt><trkpt lat="45.5185399" lon="11.2330803"><ele>194.0</ele><time>2026-04-25T08:37:22.105Z</time></trkpt><trkpt lat="45.5186485" lon="11.2330856"><ele>194.0</ele><time>2026-04-25T08:37:23.104Z</time></trkpt><trkpt lat="45.5187477" lon="11.2330973"><ele>194.0</ele><time>2026-04-25T08:37:24.105Z</time></trkpt><trkpt lat="45.5188379" lon="11.2331089"><ele>194.0</ele><time>2026-04-25T08:37:25.105Z</time></trkpt><trkpt lat="45.5189232" lon="11.2331181"><ele>194.0</ele><time>2026-04-25T08:37:26.106Z</time></trkpt><trkpt lat="45.5190028" lon="11.2331168"><ele>192.39999999999998</ele><time>2026-04-25T08:37:27.105Z</time></trkpt><trkpt lat="45.5190825" lon="11.2331271"><ele>190.8</ele><time>2026-04-25T08:37:28.105Z</time></trkpt><trkpt lat="45.5191632" lon="11.2331603"><ele>189.2</ele><time>2026-04-25T08:37:29.104Z</time></trkpt><trkpt lat="45.5192473" lon="11.2332092"><ele>187.60000000000002</ele><time>2026-04-25T08:37:30.104Z</time></trkpt><trkpt lat="45.519339" lon="11.233271"><ele>186.0</ele><time>2026-04-25T08:37:31.105Z</time></trkpt><trkpt lat="45.5194353" lon="11.2333245"><ele>184.0</ele><time>2026-04-25T08:37:32.106Z</time></trkpt><trkpt lat="45.519533" lon="11.2333667"><ele>182.0</ele><time>2026-04-25T08:37:33.104Z</time></trkpt><trkpt lat="45.5196255" lon="11.2334075"><ele>180.0</ele><time>2026-04-25T08:37:34.105Z</time></trkpt><trkpt lat="45.5197247" lon="11.2334444"><ele>178.0</ele><time>2026-04-25T08:37:35.104Z</time></trkpt><trkpt lat="45.5198264" lon="11.2334762"><ele>176.0</ele><time>2026-04-25T08:37:36.105Z</time></trkpt><trkpt lat="45.519928" lon="11.2335015"><ele>175.83333333333331</ele><time>2026-04-25T08:37:37.105Z</time></trkpt><trkpt lat="45.5200235" lon="11.2335245"><ele>175.66666666666666</ele><time>2026-04-25T08:37:38.104Z</time></trkpt><trkpt lat="45.5201052" lon="11.2335432"><ele>175.5</ele><time>2026-04-25T08:37:39.104Z</time></trkpt><trkpt lat="45.5201847" lon="11.2335604"><ele>175.33333333333334</ele><time>2026-04-25T08:37:40.105Z</time></trkpt><trkpt lat="45.5202593" lon="11.2335769"><ele>175.16666666666669</ele><time>2026-04-25T08:37:41.105Z</time></trkpt><trkpt lat="45.5203307" lon="11.2335955"><ele>175.0</ele><time>2026-04-25T08:37:42.104Z</time></trkpt><trkpt lat="45.5204021" lon="11.2336196"><ele>175.0</ele><time>2026-04-25T08:37:43.105Z</time></trkpt><trkpt lat="45.5204614" lon="11.2336529"><ele>175.0</ele><time>2026-04-25T08:37:44.104Z</time></trkpt><trkpt lat="45.5205488" lon="11.2337139"><ele>175.0</ele><time>2026-04-25T08:37:46.105Z</time></trkpt><trkpt lat="45.5206318" lon="11.2337129"><ele>175.0</ele><time>2026-04-25T08:37:48.104Z</time></trkpt><trkpt lat="45.5207395" lon="11.2336525"><ele>175.0</ele><time>2026-04-25T08:37:50.104Z</time></trkpt><trkpt lat="45.5208049" lon="11.2336175"><ele>175.0</ele><time>2026-04-25T08:37:51.104Z</time></trkpt><trkpt lat="45.520876" lon="11.2335813"><ele>175.0</ele><time>2026-04-25T08:37:52.105Z</time></trkpt><trkpt lat="45.5209499" lon="11.2335371"><ele>175.0</ele><time>2026-04-25T08:37:53.105Z</time></trkpt><trkpt lat="45.5210289" lon="11.2334884"><ele>175.0</ele><time>2026-04-25T08:37:54.104Z</time></trkpt><trkpt lat="45.5211094" lon="11.2334367"><ele>175.0</ele><time>2026-04-25T08:37:55.104Z</time></trkpt><trkpt lat="45.5211868" lon="11.233394"><ele>175.0</ele><time>2026-04-25T08:37:56.104Z</time></trkpt><trkpt lat="45.5212721" lon="11.2333552"><ele>175.0</ele><time>2026-04-25T08:37:57.106Z</time></trkpt><trkpt lat="45.5213628" lon="11.2333237"><ele>175.2</ele><time>2026-04-25T08:37:58.105Z</time></trkpt><trkpt lat="45.5214557" lon="11.2333013"><ele>175.4</ele><time>2026-04-25T08:37:59.105Z</time></trkpt><trkpt lat="45.5215525" lon="11.2332842"><ele>175.60000000000002</ele><time>2026-04-25T08:38:00.105Z</time></trkpt><trkpt lat="45.5216534" lon="11.2332682"><ele>175.8</ele><time>2026-04-25T08:38:01.104Z</time></trkpt><trkpt lat="45.5217552" lon="11.2332554"><ele>176.0</ele><time>2026-04-25T08:38:02.105Z</time></trkpt><trkpt lat="45.5218551" lon="11.233241"><ele>176.0</ele><time>2026-04-25T08:38:03.105Z</time></trkpt><trkpt lat="45.5219591" lon="11.2332245"><ele>176.0</ele><time>2026-04-25T08:38:04.106Z</time></trkpt><trkpt lat="45.5220609" lon="11.2332162"><ele>176.0</ele><time>2026-04-25T08:38:05.106Z</time></trkpt><trkpt lat="45.522158" lon="11.2332087"><ele>176.0</ele><time>2026-04-25T08:38:06.106Z</time></trkpt><trkpt lat="45.5222427" lon="11.2331981"><ele>176.0</ele><time>2026-04-25T08:38:07.105Z</time></trkpt><trkpt lat="45.5223181" lon="11.2331953"><ele>176.16666666666666</ele><time>2026-04-25T08:38:08.104Z</time></trkpt><trkpt lat="45.5223887" lon="11.2331979"><ele>176.33333333333331</ele><time>2026-04-25T08:38:09.105Z</time></trkpt><trkpt lat="45.5224966" lon="11.2332152"><ele>176.5</ele><time>2026-04-25T08:38:11.106Z</time></trkpt><trkpt lat="45.5225666" lon="11.233223"><ele>176.66666666666666</ele><time>2026-04-25T08:38:13.104Z</time></trkpt><trkpt lat="45.5225628" lon="11.2331299"><ele>176.83333333333334</ele><time>2026-04-25T08:38:18.105Z</time></trkpt><trkpt lat="45.5224907" lon="11.2331514"><ele>177.0</ele><time>2026-04-25T08:38:22.104Z</time></trkpt><trkpt lat="45.5224063" lon="11.2331559"><ele>177.0</ele><time>2026-04-25T08:38:48.105Z</time></trkpt><trkpt lat="45.522289" lon="11.2331645"><ele>177.0</ele><time>2026-04-25T08:38:50.105Z</time></trkpt><trkpt lat="45.5222246" lon="11.2331673"><ele>177.0</ele><time>2026-04-25T08:38:51.105Z</time></trkpt><trkpt lat="45.5221542" lon="11.2331728"><ele>177.0</ele><time>2026-04-25T08:38:52.104Z</time></trkpt><trkpt lat="45.522075" lon="11.2331792"><ele>177.0</ele><time>2026-04-25T08:38:53.104Z</time></trkpt><trkpt lat="45.5219887" lon="11.2331872"><ele>177.0</ele><time>2026-04-25T08:38:54.104Z</time></trkpt><trkpt lat="45.5218952" lon="11.2331984"><ele>176.8</ele><time>2026-04-25T08:38:55.104Z</time></trkpt><trkpt lat="45.5217921" lon="11.2332134"><ele>176.6</ele><time>2026-04-25T08:38:56.104Z</time></trkpt><trkpt lat="45.5216882" lon="11.2332332"><ele>176.4</ele><time>2026-04-25T08:38:57.104Z</time></trkpt><trkpt lat="45.5215828" lon="11.2332558"><ele>176.20000000000002</ele><time>2026-04-25T08:38:58.104Z</time></trkpt><trkpt lat="45.5214737" lon="11.2332804"><ele>176.0</ele><time>2026-04-25T08:38:59.104Z</time></trkpt><trkpt lat="45.5213582" lon="11.2333119"><ele>176.0</ele><time>2026-04-25T08:39:00.104Z</time></trkpt><trkpt lat="45.521245" lon="11.2333524"><ele>176.0</ele><time>2026-04-25T08:39:01.105Z</time></trkpt><trkpt lat="45.5211329" lon="11.233404"><ele>176.0</ele><time>2026-04-25T08:39:02.105Z</time></trkpt><trkpt lat="45.5210298" lon="11.2334589"><ele>176.0</ele><time>2026-04-25T08:39:03.105Z</time></trkpt><trkpt lat="45.5209382" lon="11.2335135"><ele>176.0</ele><time>2026-04-25T08:39:04.106Z</time></trkpt><trkpt lat="45.5208532" lon="11.2335606"><ele>175.83333333333331</ele><time>2026-04-25T08:39:05.105Z</time></trkpt><trkpt lat="45.5207775" lon="11.2335987"><ele>175.66666666666666</ele><time>2026-04-25T08:39:06.106Z</time></trkpt><trkpt lat="45.5207145" lon="11.2336307"><ele>175.5</ele><time>2026-04-25T08:39:07.105Z</time></trkpt><trkpt lat="45.5206333" lon="11.2336713"><ele>175.33333333333334</ele><time>2026-04-25T08:39:09.105Z</time></trkpt><trkpt lat="45.5205808" lon="11.2337558"><ele>175.16666666666669</ele><time>2026-04-25T08:39:12.104Z</time></trkpt><trkpt lat="45.5206081" lon="11.233874"><ele>175.0</ele><time>2026-04-25T08:39:14.105Z</time></trkpt><trkpt lat="45.520663" lon="11.2340113"><ele>174.6</ele><time>2026-04-25T08:39:16.105Z</time></trkpt><trkpt lat="45.5207201" lon="11.2341154"><ele>174.2</ele><time>2026-04-25T08:39:18.105Z</time></trkpt><trkpt lat="45.5207634" lon="11.2342499"><ele>173.8</ele><time>2026-04-25T08:39:20.105Z</time></trkpt><trkpt lat="45.5208587" lon="11.2343127"><ele>173.4</ele><time>2026-04-25T08:39:22.104Z</time></trkpt><trkpt lat="45.5209673" lon="11.2342246"><ele>173.0</ele><time>2026-04-25T08:39:24.104Z</time></trkpt><trkpt lat="45.5210281" lon="11.2341685"><ele>173.0</ele><time>2026-04-25T08:39:25.104Z</time></trkpt><trkpt lat="45.5211032" lon="11.234108"><ele>173.0</ele><time>2026-04-25T08:39:26.105Z</time></trkpt><trkpt lat="45.5211892" lon="11.2340511"><ele>173.0</ele><time>2026-04-25T08:39:27.104Z</time></trkpt><trkpt lat="45.5212856" lon="11.2339964"><ele>173.0</ele><time>2026-04-25T08:39:28.105Z</time></trkpt><trkpt lat="45.5213892" lon="11.2339432"><ele>173.0</ele><time>2026-04-25T08:39:29.105Z</time></trkpt><trkpt lat="45.5215017" lon="11.2338901"><ele>173.75</ele><time>2026-04-25T08:39:30.105Z</time></trkpt><trkpt lat="45.5216234" lon="11.233846"><ele>174.5</ele><time>2026-04-25T08:39:31.104Z</time></trkpt><trkpt lat="45.5217519" lon="11.2338141"><ele>175.25</ele><time>2026-04-25T08:39:32.105Z</time></trkpt><trkpt lat="45.5218868" lon="11.2337975"><ele>176.0</ele><time>2026-04-25T08:39:33.105Z</time></trkpt><trkpt lat="45.5220253" lon="11.2337938"><ele>176.25</ele><time>2026-04-25T08:39:34.104Z</time></trkpt><trkpt lat="45.5221669" lon="11.2337944"><ele>176.5</ele><time>2026-04-25T08:39:35.104Z</time></trkpt><trkpt lat="45.5223095" lon="11.2337985"><ele>176.75</ele><time>2026-04-25T08:39:36.105Z</time></trkpt><trkpt lat="45.5224563" lon="11.2338036"><ele>177.0</ele><time>2026-04-25T08:39:37.105Z</time></trkpt><trkpt lat="45.5226036" lon="11.2338042"><ele>177.0</ele><time>2026-04-25T08:39:38.105Z</time></trkpt><trkpt lat="45.5227536" lon="11.2338087"><ele>177.0</ele><time>2026-04-25T08:39:39.104Z</time></trkpt><trkpt lat="45.5229049" lon="11.2338139"><ele>177.0</ele><time>2026-04-25T08:39:40.105Z</time></trkpt><trkpt lat="45.523055" lon="11.2338171"><ele>178.0</ele><time>2026-04-25T08:39:41.104Z</time></trkpt><trkpt lat="45.5232077" lon="11.2338237"><ele>179.0</ele><time>2026-04-25T08:39:42.105Z</time></trkpt><trkpt lat="45.5233591" lon="11.2338297"><ele>180.0</ele><time>2026-04-25T08:39:43.105Z</time></trkpt><trkpt lat="45.5235107" lon="11.233835"><ele>180.0</ele><time>2026-04-25T08:39:44.104Z</time></trkpt><trkpt lat="45.5236611" lon="11.2338367"><ele>180.0</ele><time>2026-04-25T08:39:45.104Z</time></trkpt><trkpt lat="45.5238144" lon="11.2338389"><ele>180.0</ele><time>2026-04-25T08:39:46.105Z</time></trkpt><trkpt lat="45.5239667" lon="11.2338419"><ele>181.0</ele><time>2026-04-25T08:39:47.104Z</time></trkpt><trkpt lat="45.5241208" lon="11.2338458"><ele>182.0</ele><time>2026-04-25T08:39:48.104Z</time></trkpt><trkpt lat="45.5242776" lon="11.2338498"><ele>183.0</ele><time>2026-04-25T08:39:49.105Z</time></trkpt><trkpt lat="45.524436" lon="11.2338467"><ele>183.66666666666666</ele><time>2026-04-25T08:39:50.104Z</time></trkpt><trkpt lat="45.5245956" lon="11.2338404"><ele>184.33333333333331</ele><time>2026-04-25T08:39:51.105Z</time></trkpt><trkpt lat="45.5247539" lon="11.2338203"><ele>185.0</ele><time>2026-04-25T08:39:52.104Z</time></trkpt><trkpt lat="45.524915" lon="11.2337931"><ele>185.0</ele><time>2026-04-25T08:39:53.104Z</time></trkpt><trkpt lat="45.5250799" lon="11.2337702"><ele>185.0</ele><time>2026-04-25T08:39:54.105Z</time></trkpt><trkpt lat="45.5252474" lon="11.2337443"><ele>185.0</ele><time>2026-04-25T08:39:55.105Z</time></trkpt><trkpt lat="45.5254178" lon="11.2337207"><ele>185.66666666666666</ele><time>2026-04-25T08:39:56.105Z</time></trkpt><trkpt lat="45.5255901" lon="11.2336998"><ele>186.33333333333334</ele><time>2026-04-25T08:39:57.105Z</time></trkpt><trkpt lat="45.5257637" lon="11.2336746"><ele>187.0</ele><time>2026-04-25T08:39:58.104Z</time></trkpt><trkpt lat="45.5259363" lon="11.2336514"><ele>187.0</ele><time>2026-04-25T08:39:59.105Z</time></trkpt><trkpt lat="45.52611" lon="11.2336269"><ele>187.0</ele><time>2026-04-25T08:40:00.104Z</time></trkpt><trkpt lat="45.5262794" lon="11.2336023"><ele>187.0</ele><time>2026-04-25T08:40:01.104Z</time></trkpt><trkpt lat="45.5264373" lon="11.2335768"><ele>187.75</ele><time>2026-04-25T08:40:02.105Z</time></trkpt><trkpt lat="45.5265855" lon="11.2335583"><ele>188.5</ele><time>2026-04-25T08:40:03.104Z</time></trkpt><trkpt lat="45.5267305" lon="11.2335424"><ele>189.25</ele><time>2026-04-25T08:40:04.105Z</time></trkpt><trkpt lat="45.5268753" lon="11.233523"><ele>190.0</ele><time>2026-04-25T08:40:05.104Z</time></trkpt><trkpt lat="45.5270252" lon="11.2334967"><ele>191.0</ele><time>2026-04-25T08:40:06.105Z</time></trkpt><trkpt lat="45.5271795" lon="11.2334695"><ele>192.0</ele><time>2026-04-25T08:40:07.105Z</time></trkpt><trkpt lat="45.5273345" lon="11.2334545"><ele>193.0</ele><time>2026-04-25T08:40:08.104Z</time></trkpt><trkpt lat="45.5274794" lon="11.2334426"><ele>193.0</ele><time>2026-04-25T08:40:09.105Z</time></trkpt><trkpt lat="45.527611" lon="11.2334295"><ele>193.0</ele><time>2026-04-25T08:40:10.105Z</time></trkpt><trkpt lat="45.5277274" lon="11.2334178"><ele>193.0</ele><time>2026-04-25T08:40:11.104Z</time></trkpt><trkpt lat="45.527835" lon="11.2334093"><ele>193.0</ele><time>2026-04-25T08:40:12.104Z</time></trkpt><trkpt lat="45.5279269" lon="11.2334155"><ele>193.0</ele><time>2026-04-25T08:40:13.105Z</time></trkpt><trkpt lat="45.5280054" lon="11.2334339"><ele>193.33333333333331</ele><time>2026-04-25T08:40:14.104Z</time></trkpt><trkpt lat="45.528077" lon="11.2334685"><ele>193.66666666666666</ele><time>2026-04-25T08:40:15.105Z</time></trkpt><trkpt lat="45.5281428" lon="11.2335304"><ele>194.0</ele><time>2026-04-25T08:40:16.105Z</time></trkpt><trkpt lat="45.5282046" lon="11.2336101"><ele>194.33333333333331</ele><time>2026-04-25T08:40:17.104Z</time></trkpt><trkpt lat="45.528285" lon="11.2336662"><ele>194.66666666666666</ele><time>2026-04-25T08:40:18.104Z</time></trkpt><trkpt lat="45.52838" lon="11.2336813"><ele>195.0</ele><time>2026-04-25T08:40:19.105Z</time></trkpt><trkpt lat="45.528484" lon="11.2336503"><ele>195.0</ele><time>2026-04-25T08:40:20.105Z</time></trkpt><trkpt lat="45.5285964" lon="11.2335946"><ele>195.0</ele><time>2026-04-25T08:40:21.104Z</time></trkpt><trkpt lat="45.5287178" lon="11.2335295"><ele>195.0</ele><time>2026-04-25T08:40:22.104Z</time></trkpt><trkpt lat="45.5288477" lon="11.2334644"><ele>195.0</ele><time>2026-04-25T08:40:23.104Z</time></trkpt><trkpt lat="45.5289846" lon="11.2334006"><ele>196.0</ele><time>2026-04-25T08:40:24.104Z</time></trkpt><trkpt lat="45.5291274" lon="11.2333498"><ele>197.0</ele><time>2026-04-25T08:40:25.104Z</time></trkpt><trkpt lat="45.5292765" lon="11.2333222"><ele>198.0</ele><time>2026-04-25T08:40:26.105Z</time></trkpt><trkpt lat="45.5294279" lon="11.2333071"><ele>199.0</ele><time>2026-04-25T08:40:27.104Z</time></trkpt><trkpt lat="45.5295821" lon="11.233303"><ele>199.66666666666666</ele><time>2026-04-25T08:40:28.105Z</time></trkpt><trkpt lat="45.52974" lon="11.233301"><ele>200.33333333333331</ele><time>2026-04-25T08:40:29.105Z</time></trkpt><trkpt lat="45.5299023" lon="11.2332962"><ele>201.0</ele><time>2026-04-25T08:40:30.104Z</time></trkpt><trkpt lat="45.5300696" lon="11.2332917"><ele>201.0</ele><time>2026-04-25T08:40:31.104Z</time></trkpt><trkpt lat="45.5302402" lon="11.2332855"><ele>201.0</ele><time>2026-04-25T08:40:32.104Z</time></trkpt><trkpt lat="45.5304132" lon="11.2332779"><ele>201.0</ele><time>2026-04-25T08:40:33.104Z</time></trkpt><trkpt lat="45.5305909" lon="11.2332698"><ele>202.0</ele><time>2026-04-25T08:40:34.104Z</time></trkpt><trkpt lat="45.5307688" lon="11.2332612"><ele>203.0</ele><time>2026-04-25T08:40:35.104Z</time></trkpt><trkpt lat="45.5309481" lon="11.2332459"><ele>204.0</ele><time>2026-04-25T08:40:36.104Z</time></trkpt><trkpt lat="45.5311281" lon="11.2332271"><ele>205.33333333333331</ele><time>2026-04-25T08:40:37.104Z</time></trkpt><trkpt lat="45.5313084" lon="11.2332075"><ele>206.66666666666666</ele><time>2026-04-25T08:40:38.105Z</time></trkpt><trkpt lat="45.5314888" lon="11.2331847"><ele>208.0</ele><time>2026-04-25T08:40:39.105Z</time></trkpt><trkpt lat="45.5316704" lon="11.2331548"><ele>208.0</ele><time>2026-04-25T08:40:40.105Z</time></trkpt><trkpt lat="45.5318556" lon="11.2331241"><ele>208.0</ele><time>2026-04-25T08:40:41.105Z</time></trkpt><trkpt lat="45.5320436" lon="11.2330923"><ele>208.0</ele><time>2026-04-25T08:40:42.104Z</time></trkpt><trkpt lat="45.5322332" lon="11.2330585"><ele>208.0</ele><time>2026-04-25T08:40:43.104Z</time></trkpt><trkpt lat="45.5324225" lon="11.2330234"><ele>208.0</ele><time>2026-04-25T08:40:44.105Z</time></trkpt><trkpt lat="45.5326107" lon="11.2329894"><ele>208.0</ele><time>2026-04-25T08:40:45.104Z</time></trkpt><trkpt lat="45.5328027" lon="11.2329518"><ele>209.33333333333331</ele><time>2026-04-25T08:40:46.104Z</time></trkpt><trkpt lat="45.5329972" lon="11.2329256"><ele>210.66666666666669</ele><time>2026-04-25T08:40:47.105Z</time></trkpt><trkpt lat="45.5331954" lon="11.2329093"><ele>212.0</ele><time>2026-04-25T08:40:48.105Z</time></trkpt><trkpt lat="45.5333961" lon="11.2329035"><ele>212.0</ele><time>2026-04-25T08:40:49.105Z</time></trkpt><trkpt lat="45.533599" lon="11.232903"><ele>212.0</ele><time>2026-04-25T08:40:50.104Z</time></trkpt><trkpt lat="45.5338017" lon="11.23291"><ele>212.0</ele><time>2026-04-25T08:40:51.105Z</time></trkpt><trkpt lat="45.5340034" lon="11.2329166"><ele>213.0</ele><time>2026-04-25T08:40:52.105Z</time></trkpt><trkpt lat="45.5342056" lon="11.2329221"><ele>214.0</ele><time>2026-04-25T08:40:53.104Z</time></trkpt><trkpt lat="45.5344062" lon="11.2329301"><ele>215.0</ele><time>2026-04-25T08:40:54.104Z</time></trkpt><trkpt lat="45.5346058" lon="11.2329383"><ele>217.0</ele><time>2026-04-25T08:40:55.105Z</time></trkpt><trkpt lat="45.5348036" lon="11.2329434"><ele>219.0</ele><time>2026-04-25T08:40:56.104Z</time></trkpt><trkpt lat="45.5350003" lon="11.2329469"><ele>221.0</ele><time>2026-04-25T08:40:57.105Z</time></trkpt><trkpt lat="45.5351939" lon="11.232952"><ele>221.0</ele><time>2026-04-25T08:40:58.105Z</time></trkpt><trkpt lat="45.5353862" lon="11.2329616"><ele>221.0</ele><time>2026-04-25T08:40:59.104Z</time></trkpt><trkpt lat="45.5355744" lon="11.23297"><ele>221.0</ele><time>2026-04-25T08:41:00.104Z</time></trkpt><trkpt lat="45.5357625" lon="11.2329756"><ele>222.66666666666669</ele><time>2026-04-25T08:41:01.104Z</time></trkpt><trkpt lat="45.5359469" lon="11.2329797"><ele>224.33333333333331</ele><time>2026-04-25T08:41:02.104Z</time></trkpt><trkpt lat="45.536131" lon="11.2329861"><ele>226.0</ele><time>2026-04-25T08:41:03.104Z</time></trkpt><trkpt lat="45.5363149" lon="11.2329887"><ele>228.66666666666666</ele><time>2026-04-25T08:41:04.104Z</time></trkpt><trkpt lat="45.5365003" lon="11.2329915"><ele>231.33333333333331</ele><time>2026-04-25T08:41:05.104Z</time></trkpt><trkpt lat="45.5366874" lon="11.2329947"><ele>234.0</ele><time>2026-04-25T08:41:06.105Z</time></trkpt><trkpt lat="45.5368735" lon="11.2329965"><ele>237.0</ele><time>2026-04-25T08:41:07.105Z</time></trkpt><trkpt lat="45.5370571" lon="11.2329906"><ele>240.0</ele><time>2026-04-25T08:41:08.104Z</time></trkpt><trkpt lat="45.5372375" lon="11.2329787"><ele>243.0</ele><time>2026-04-25T08:41:09.104Z</time></trkpt><trkpt lat="45.537414" lon="11.2329536"><ele>243.0</ele><time>2026-04-25T08:41:10.105Z</time></trkpt><trkpt lat="45.5375878" lon="11.2329157"><ele>243.0</ele><time>2026-04-25T08:41:11.105Z</time></trkpt><trkpt lat="45.5377618" lon="11.2328669"><ele>243.0</ele><time>2026-04-25T08:41:12.104Z</time></trkpt><trkpt lat="45.5379353" lon="11.2328053"><ele>245.0</ele><time>2026-04-25T08:41:13.104Z</time></trkpt><trkpt lat="45.53811" lon="11.232732"><ele>247.0</ele><time>2026-04-25T08:41:14.104Z</time></trkpt><trkpt lat="45.5382855" lon="11.2326455"><ele>249.0</ele><time>2026-04-25T08:41:15.106Z</time></trkpt><trkpt lat="45.5384638" lon="11.2325475"><ele>249.0</ele><time>2026-04-25T08:41:16.106Z</time></trkpt><trkpt lat="45.5386416" lon="11.2324392"><ele>249.0</ele><time>2026-04-25T08:41:17.105Z</time></trkpt><trkpt lat="45.5388184" lon="11.2323272"><ele>249.0</ele><time>2026-04-25T08:41:18.104Z</time></trkpt><trkpt lat="45.5389896" lon="11.2322162"><ele>246.33333333333331</ele><time>2026-04-25T08:41:19.104Z</time></trkpt><trkpt lat="45.5391585" lon="11.232115"><ele>243.66666666666666</ele><time>2026-04-25T08:41:20.105Z</time></trkpt><trkpt lat="45.5393255" lon="11.232011"><ele>241.0</ele><time>2026-04-25T08:41:21.105Z</time></trkpt><trkpt lat="45.5394898" lon="11.2319087"><ele>241.33333333333331</ele><time>2026-04-25T08:41:22.104Z</time></trkpt><trkpt lat="45.5396506" lon="11.231806"><ele>241.66666666666669</ele><time>2026-04-25T08:41:23.104Z</time></trkpt><trkpt lat="45.5398092" lon="11.2317006"><ele>242.0</ele><time>2026-04-25T08:41:24.104Z</time></trkpt><trkpt lat="45.539966" lon="11.2315956"><ele>242.0</ele><time>2026-04-25T08:41:25.104Z</time></trkpt><trkpt lat="45.5401211" lon="11.2314898"><ele>242.0</ele><time>2026-04-25T08:41:26.104Z</time></trkpt><trkpt lat="45.5402821" lon="11.231386"><ele>242.0</ele><time>2026-04-25T08:41:27.105Z</time></trkpt><trkpt lat="45.5404484" lon="11.2312814"><ele>241.66666666666669</ele><time>2026-04-25T08:41:28.104Z</time></trkpt><trkpt lat="45.5406184" lon="11.2311744"><ele>241.33333333333331</ele><time>2026-04-25T08:41:29.105Z</time></trkpt><trkpt lat="45.5407914" lon="11.2310635"><ele>241.0</ele><time>2026-04-25T08:41:30.104Z</time></trkpt><trkpt lat="45.5409691" lon="11.2309504"><ele>241.0</ele><time>2026-04-25T08:41:31.105Z</time></trkpt><trkpt lat="45.5411498" lon="11.2308481"><ele>241.0</ele><time>2026-04-25T08:41:32.105Z</time></trkpt><trkpt lat="45.5413359" lon="11.2307503"><ele>241.0</ele><time>2026-04-25T08:41:33.104Z</time></trkpt><trkpt lat="45.5415237" lon="11.2306623"><ele>242.33333333333331</ele><time>2026-04-25T08:41:34.105Z</time></trkpt><trkpt lat="45.5417123" lon="11.2305851"><ele>243.66666666666669</ele><time>2026-04-25T08:41:35.105Z</time></trkpt><trkpt lat="45.5419019" lon="11.2305202"><ele>245.0</ele><time>2026-04-25T08:41:36.104Z</time></trkpt><trkpt lat="45.542091" lon="11.2304647"><ele>246.66666666666669</ele><time>2026-04-25T08:41:37.105Z</time></trkpt><trkpt lat="45.5422806" lon="11.2304194"><ele>248.33333333333331</ele><time>2026-04-25T08:41:38.105Z</time></trkpt><trkpt lat="45.5424712" lon="11.2303795"><ele>250.0</ele><time>2026-04-25T08:41:39.105Z</time></trkpt><trkpt lat="45.5426636" lon="11.2303372"><ele>250.0</ele><time>2026-04-25T08:41:40.104Z</time></trkpt><trkpt lat="45.5428596" lon="11.2302983"><ele>250.0</ele><time>2026-04-25T08:41:41.104Z</time></trkpt><trkpt lat="45.5430578" lon="11.2302604"><ele>250.0</ele><time>2026-04-25T08:41:42.105Z</time></trkpt><trkpt lat="45.5432557" lon="11.2302197"><ele>251.33333333333331</ele><time>2026-04-25T08:41:43.104Z</time></trkpt><trkpt lat="45.5434541" lon="11.2301803"><ele>252.66666666666669</ele><time>2026-04-25T08:41:44.104Z</time></trkpt><trkpt lat="45.5436494" lon="11.2301393"><ele>254.0</ele><time>2026-04-25T08:41:45.104Z</time></trkpt><trkpt lat="45.5438429" lon="11.2301004"><ele>257.0</ele><time>2026-04-25T08:41:46.104Z</time></trkpt><trkpt lat="45.5440321" lon="11.2300623"><ele>260.0</ele><time>2026-04-25T08:41:47.104Z</time></trkpt><trkpt lat="45.5442172" lon="11.230025"><ele>263.0</ele><time>2026-04-25T08:41:48.104Z</time></trkpt><trkpt lat="45.5443965" lon="11.229987"><ele>267.0</ele><time>2026-04-25T08:41:49.104Z</time></trkpt><trkpt lat="45.5445764" lon="11.2299486"><ele>271.0</ele><time>2026-04-25T08:41:50.104Z</time></trkpt><trkpt lat="45.5447551" lon="11.2299107"><ele>275.0</ele><time>2026-04-25T08:41:51.105Z</time></trkpt><trkpt lat="45.5449366" lon="11.2298725"><ele>275.0</ele><time>2026-04-25T08:41:52.105Z</time></trkpt><trkpt lat="45.5451185" lon="11.2298346"><ele>275.0</ele><time>2026-04-25T08:41:53.104Z</time></trkpt><trkpt lat="45.5453053" lon="11.2298002"><ele>275.0</ele><time>2026-04-25T08:41:54.105Z</time></trkpt><trkpt lat="45.545496" lon="11.2297682"><ele>272.0</ele><time>2026-04-25T08:41:55.105Z</time></trkpt><trkpt lat="45.5456906" lon="11.2297349"><ele>269.0</ele><time>2026-04-25T08:41:56.104Z</time></trkpt><trkpt lat="45.545882" lon="11.2296953"><ele>266.0</ele><time>2026-04-25T08:41:57.104Z</time></trkpt><trkpt lat="45.5460723" lon="11.2296534"><ele>267.33333333333337</ele><time>2026-04-25T08:41:58.104Z</time></trkpt><trkpt lat="45.546262" lon="11.2296092"><ele>268.6666666666667</ele><time>2026-04-25T08:41:59.105Z</time></trkpt><trkpt lat="45.5464499" lon="11.2295596"><ele>270.0</ele><time>2026-04-25T08:42:00.105Z</time></trkpt><trkpt lat="45.5466369" lon="11.2295082"><ele>270.0</ele><time>2026-04-25T08:42:01.104Z</time></trkpt><trkpt lat="45.5468227" lon="11.2294597"><ele>270.0</ele><time>2026-04-25T08:42:02.104Z</time></trkpt><trkpt lat="45.5470054" lon="11.2294095"><ele>270.0</ele><time>2026-04-25T08:42:03.105Z</time></trkpt><trkpt lat="45.5471857" lon="11.229358"><ele>272.3333333333333</ele><time>2026-04-25T08:42:04.105Z</time></trkpt><trkpt lat="45.5473586" lon="11.2293107"><ele>274.66666666666663</ele><time>2026-04-25T08:42:05.105Z</time></trkpt><trkpt lat="45.547528" lon="11.2292677"><ele>277.0</ele><time>2026-04-25T08:42:06.105Z</time></trkpt><trkpt lat="45.5476941" lon="11.2292255"><ele>277.0</ele><time>2026-04-25T08:42:07.105Z</time></trkpt><trkpt lat="45.54786" lon="11.229184"><ele>277.0</ele><time>2026-04-25T08:42:08.105Z</time></trkpt><trkpt lat="45.548025" lon="11.2291392"><ele>277.0</ele><time>2026-04-25T08:42:09.105Z</time></trkpt><trkpt lat="45.5481891" lon="11.2290944"><ele>276.3333333333333</ele><time>2026-04-25T08:42:10.105Z</time></trkpt><trkpt lat="45.5483562" lon="11.2290498"><ele>275.6666666666667</ele><time>2026-04-25T08:42:11.104Z</time></trkpt><trkpt lat="45.5485264" lon="11.2290019"><ele>275.0</ele><time>2026-04-25T08:42:12.104Z</time></trkpt><trkpt lat="45.548696" lon="11.2289547"><ele>275.6666666666667</ele><time>2026-04-25T08:42:13.104Z</time></trkpt><trkpt lat="45.5488688" lon="11.2289063"><ele>276.3333333333333</ele><time>2026-04-25T08:42:14.104Z</time></trkpt><trkpt lat="45.5490439" lon="11.2288545"><ele>277.0</ele><time>2026-04-25T08:42:15.105Z</time></trkpt><trkpt lat="45.5492202" lon="11.2287973"><ele>277.0</ele><time>2026-04-25T08:42:16.105Z</time></trkpt><trkpt lat="45.549397" lon="11.228724"><ele>277.0</ele><time>2026-04-25T08:42:17.104Z</time></trkpt><trkpt lat="45.549573" lon="11.2286346"><ele>277.0</ele><time>2026-04-25T08:42:18.105Z</time></trkpt><trkpt lat="45.5497513" lon="11.2285428"><ele>279.0</ele><time>2026-04-25T08:42:19.105Z</time></trkpt><trkpt lat="45.5499358" lon="11.2284609"><ele>281.0</ele><time>2026-04-25T08:42:20.105Z</time></trkpt><trkpt lat="45.5501237" lon="11.2283886"><ele>283.0</ele><time>2026-04-25T08:42:21.104Z</time></trkpt><trkpt lat="45.5503117" lon="11.228316"><ele>282.3333333333333</ele><time>2026-04-25T08:42:22.106Z</time></trkpt><trkpt lat="45.5505006" lon="11.2282452"><ele>281.6666666666667</ele><time>2026-04-25T08:42:23.104Z</time></trkpt><trkpt lat="45.5506917" lon="11.2281709"><ele>281.0</ele><time>2026-04-25T08:42:24.105Z</time></trkpt><trkpt lat="45.5508808" lon="11.2280917"><ele>281.0</ele><time>2026-04-25T08:42:25.105Z</time></trkpt><trkpt lat="45.5510712" lon="11.2280116"><ele>281.0</ele><time>2026-04-25T08:42:26.104Z</time></trkpt><trkpt lat="45.5512623" lon="11.2279298"><ele>281.0</ele><time>2026-04-25T08:42:27.105Z</time></trkpt><trkpt lat="45.5514506" lon="11.2278513"><ele>282.33333333333337</ele><time>2026-04-25T08:42:28.104Z</time></trkpt><trkpt lat="45.5516379" lon="11.2277833"><ele>283.6666666666667</ele><time>2026-04-25T08:42:29.105Z</time></trkpt><trkpt lat="45.5518261" lon="11.2277327"><ele>285.0</ele><time>2026-04-25T08:42:30.104Z</time></trkpt><trkpt lat="45.5520125" lon="11.2276969"><ele>287.3333333333333</ele><time>2026-04-25T08:42:31.106Z</time></trkpt><trkpt lat="45.5521983" lon="11.2276707"><ele>289.66666666666663</ele><time>2026-04-25T08:42:32.104Z</time></trkpt><trkpt lat="45.55238" lon="11.2276558"><ele>292.0</ele><time>2026-04-25T08:42:33.104Z</time></trkpt><trkpt lat="45.5525612" lon="11.2276502"><ele>292.0</ele><time>2026-04-25T08:42:34.104Z</time></trkpt><trkpt lat="45.5527401" lon="11.2276589"><ele>292.0</ele><time>2026-04-25T08:42:35.104Z</time></trkpt><trkpt lat="45.5529181" lon="11.2276747"><ele>292.0</ele><time>2026-04-25T08:42:36.105Z</time></trkpt><trkpt lat="45.5530919" lon="11.2276981"><ele>292.66666666666663</ele><time>2026-04-25T08:42:37.104Z</time></trkpt><trkpt lat="45.5532655" lon="11.2277184"><ele>293.3333333333333</ele><time>2026-04-25T08:42:38.105Z</time></trkpt><trkpt lat="45.5534439" lon="11.2277367"><ele>294.0</ele><time>2026-04-25T08:42:39.105Z</time></trkpt><trkpt lat="45.5536224" lon="11.2277516"><ele>296.0</ele><time>2026-04-25T08:42:40.105Z</time></trkpt><trkpt lat="45.5538022" lon="11.2277724"><ele>298.0</ele><time>2026-04-25T08:42:41.105Z</time></trkpt><trkpt lat="45.5539841" lon="11.2277938"><ele>300.0</ele><time>2026-04-25T08:42:42.106Z</time></trkpt><trkpt lat="45.5541674" lon="11.227817"><ele>300.0</ele><time>2026-04-25T08:42:43.105Z</time></trkpt><trkpt lat="45.5543534" lon="11.2278396"><ele>300.0</ele><time>2026-04-25T08:42:44.105Z</time></trkpt><trkpt lat="45.5545415" lon="11.2278672"><ele>300.0</ele><time>2026-04-25T08:42:45.105Z</time></trkpt><trkpt lat="45.5547315" lon="11.2278871"><ele>301.3333333333333</ele><time>2026-04-25T08:42:46.104Z</time></trkpt><trkpt lat="45.5549237" lon="11.2278964"><ele>302.66666666666663</ele><time>2026-04-25T08:42:47.104Z</time></trkpt><trkpt lat="45.5551192" lon="11.2278927"><ele>304.0</ele><time>2026-04-25T08:42:48.105Z</time></trkpt><trkpt lat="45.5553157" lon="11.2278796"><ele>306.0</ele><time>2026-04-25T08:42:49.105Z</time></trkpt><trkpt lat="45.5555087" lon="11.2278621"><ele>308.0</ele><time>2026-04-25T08:42:50.104Z</time></trkpt><trkpt lat="45.5557038" lon="11.2278364"><ele>310.0</ele><time>2026-04-25T08:42:51.105Z</time></trkpt><trkpt lat="45.555897" lon="11.2278002"><ele>310.0</ele><time>2026-04-25T08:42:52.104Z</time></trkpt><trkpt lat="45.5560878" lon="11.22776"><ele>310.0</ele><time>2026-04-25T08:42:53.105Z</time></trkpt><trkpt lat="45.556275" lon="11.2277176"><ele>310.0</ele><time>2026-04-25T08:42:54.105Z</time></trkpt><trkpt lat="45.5564597" lon="11.2276723"><ele>312.0</ele><time>2026-04-25T08:42:55.104Z</time></trkpt><trkpt lat="45.5566399" lon="11.2276217"><ele>314.0</ele><time>2026-04-25T08:42:56.104Z</time></trkpt><trkpt lat="45.5568118" lon="11.2275739"><ele>316.0</ele><time>2026-04-25T08:42:57.104Z</time></trkpt><trkpt lat="45.5569813" lon="11.2275546"><ele>317.3333333333333</ele><time>2026-04-25T08:42:58.105Z</time></trkpt><trkpt lat="45.5571558" lon="11.227562"><ele>318.6666666666667</ele><time>2026-04-25T08:42:59.105Z</time></trkpt><trkpt lat="45.5573321" lon="11.2275845"><ele>320.0</ele><time>2026-04-25T08:43:00.104Z</time></trkpt><trkpt lat="45.5575094" lon="11.2276037"><ele>320.0</ele><time>2026-04-25T08:43:01.105Z</time></trkpt><trkpt lat="45.5576827" lon="11.22762"><ele>320.0</ele><time>2026-04-25T08:43:02.105Z</time></trkpt><trkpt lat="45.5578554" lon="11.2276332"><ele>320.0</ele><time>2026-04-25T08:43:03.105Z</time></trkpt><trkpt lat="45.5580271" lon="11.2276375"><ele>322.0</ele><time>2026-04-25T08:43:04.104Z</time></trkpt><trkpt lat="45.5581991" lon="11.227636"><ele>324.0</ele><time>2026-04-25T08:43:05.104Z</time></trkpt><trkpt lat="45.5583731" lon="11.2276263"><ele>326.0</ele><time>2026-04-25T08:43:06.104Z</time></trkpt><trkpt lat="45.5585509" lon="11.2276035"><ele>328.6666666666667</ele><time>2026-04-25T08:43:07.105Z</time></trkpt><trkpt lat="45.5587322" lon="11.2275638"><ele>331.3333333333333</ele><time>2026-04-25T08:43:08.104Z</time></trkpt><trkpt lat="45.5589157" lon="11.2275122"><ele>334.0</ele><time>2026-04-25T08:43:09.105Z</time></trkpt><trkpt lat="45.5591013" lon="11.2274622"><ele>334.0</ele><time>2026-04-25T08:43:10.105Z</time></trkpt><trkpt lat="45.5592897" lon="11.2274144"><ele>334.0</ele><time>2026-04-25T08:43:11.104Z</time></trkpt><trkpt lat="45.5594805" lon="11.2273608"><ele>334.0</ele><time>2026-04-25T08:43:12.105Z</time></trkpt><trkpt lat="45.5596681" lon="11.2273033"><ele>338.0</ele><time>2026-04-25T08:43:13.104Z</time></trkpt><trkpt lat="45.5598493" lon="11.2272465"><ele>342.0</ele><time>2026-04-25T08:43:14.105Z</time></trkpt><trkpt lat="45.5600269" lon="11.2271916"><ele>346.0</ele><time>2026-04-25T08:43:15.104Z</time></trkpt><trkpt lat="45.5602054" lon="11.2271367"><ele>345.66666666666663</ele><time>2026-04-25T08:43:16.104Z</time></trkpt><trkpt lat="45.560387" lon="11.2270884"><ele>345.3333333333333</ele><time>2026-04-25T08:43:17.105Z</time></trkpt><trkpt lat="45.5605705" lon="11.2270645"><ele>345.0</ele><time>2026-04-25T08:43:18.104Z</time></trkpt><trkpt lat="45.5607555" lon="11.2270658"><ele>345.0</ele><time>2026-04-25T08:43:19.104Z</time></trkpt><trkpt lat="45.5609419" lon="11.2270832"><ele>345.0</ele><time>2026-04-25T08:43:20.105Z</time></trkpt><trkpt lat="45.5611258" lon="11.227118"><ele>345.0</ele><time>2026-04-25T08:43:21.104Z</time></trkpt><trkpt lat="45.5613098" lon="11.2271682"><ele>345.0</ele><time>2026-04-25T08:43:22.105Z</time></trkpt><trkpt lat="45.5614904" lon="11.2272316"><ele>345.0</ele><time>2026-04-25T08:43:23.104Z</time></trkpt><trkpt lat="45.561666" lon="11.2272972"><ele>345.0</ele><time>2026-04-25T08:43:24.105Z</time></trkpt><trkpt lat="45.5618376" lon="11.2273671"><ele>348.3333333333333</ele><time>2026-04-25T08:43:25.105Z</time></trkpt><trkpt lat="45.5620051" lon="11.2274357"><ele>351.66666666666663</ele><time>2026-04-25T08:43:26.105Z</time></trkpt><trkpt lat="45.5621711" lon="11.2275073"><ele>355.0</ele><time>2026-04-25T08:43:27.105Z</time></trkpt><trkpt lat="45.5623342" lon="11.2275725"><ele>355.0</ele><time>2026-04-25T08:43:28.105Z</time></trkpt><trkpt lat="45.5624955" lon="11.2276384"><ele>355.0</ele><time>2026-04-25T08:43:29.104Z</time></trkpt><trkpt lat="45.5626587" lon="11.2277077"><ele>355.0</ele><time>2026-04-25T08:43:30.105Z</time></trkpt><trkpt lat="45.5628225" lon="11.2277788"><ele>356.3333333333333</ele><time>2026-04-25T08:43:31.105Z</time></trkpt><trkpt lat="45.5629852" lon="11.2278502"><ele>357.6666666666667</ele><time>2026-04-25T08:43:32.105Z</time></trkpt><trkpt lat="45.5631505" lon="11.2279226"><ele>359.0</ele><time>2026-04-25T08:43:33.106Z</time></trkpt><trkpt lat="45.5633149" lon="11.2279992"><ele>359.0</ele><time>2026-04-25T08:43:34.104Z</time></trkpt><trkpt lat="45.5634811" lon="11.2280708"><ele>359.0</ele><time>2026-04-25T08:43:35.104Z</time></trkpt><trkpt lat="45.5636474" lon="11.2281317"><ele>359.0</ele><time>2026-04-25T08:43:36.104Z</time></trkpt><trkpt lat="45.5638192" lon="11.2281707"><ele>361.0</ele><time>2026-04-25T08:43:37.105Z</time></trkpt><trkpt lat="45.563987" lon="11.2281807"><ele>363.0</ele><time>2026-04-25T08:43:38.104Z</time></trkpt><trkpt lat="45.5641607" lon="11.2281616"><ele>365.0</ele><time>2026-04-25T08:43:39.105Z</time></trkpt><trkpt lat="45.5643327" lon="11.2281182"><ele>365.0</ele><time>2026-04-25T08:43:40.104Z</time></trkpt><trkpt lat="45.5644982" lon="11.2280462"><ele>365.0</ele><time>2026-04-25T08:43:41.105Z</time></trkpt><trkpt lat="45.5646565" lon="11.2279598"><ele>365.0</ele><time>2026-04-25T08:43:42.104Z</time></trkpt><trkpt lat="45.5648105" lon="11.2278657"><ele>368.0</ele><time>2026-04-25T08:43:43.105Z</time></trkpt><trkpt lat="45.5649654" lon="11.2277748"><ele>371.0</ele><time>2026-04-25T08:43:44.105Z</time></trkpt><trkpt lat="45.5651209" lon="11.2276897"><ele>374.0</ele><time>2026-04-25T08:43:45.106Z</time></trkpt><trkpt lat="45.5652817" lon="11.2276321"><ele>378.6666666666667</ele><time>2026-04-25T08:43:46.105Z</time></trkpt><trkpt lat="45.5654455" lon="11.2275957"><ele>383.33333333333337</ele><time>2026-04-25T08:43:47.105Z</time></trkpt><trkpt lat="45.5656125" lon="11.2275809"><ele>388.0</ele><time>2026-04-25T08:43:48.105Z</time></trkpt><trkpt lat="45.5657825" lon="11.2275807"><ele>388.0</ele><time>2026-04-25T08:43:49.104Z</time></trkpt><trkpt lat="45.5659536" lon="11.2275886"><ele>388.0</ele><time>2026-04-25T08:43:50.105Z</time></trkpt><trkpt lat="45.5661244" lon="11.2275942"><ele>388.0</ele><time>2026-04-25T08:43:51.104Z</time></trkpt><trkpt lat="45.5662863" lon="11.2275989"><ele>390.25</ele><time>2026-04-25T08:43:52.104Z</time></trkpt><trkpt lat="45.5664337" lon="11.2276023"><ele>392.5</ele><time>2026-04-25T08:43:53.105Z</time></trkpt><trkpt lat="45.5665713" lon="11.2276075"><ele>394.75</ele><time>2026-04-25T08:43:54.105Z</time></trkpt><trkpt lat="45.5667037" lon="11.2276086"><ele>397.0</ele><time>2026-04-25T08:43:55.105Z</time></trkpt><trkpt lat="45.5668318" lon="11.227612"><ele>397.0</ele><time>2026-04-25T08:43:56.105Z</time></trkpt><trkpt lat="45.566964" lon="11.2276206"><ele>397.0</ele><time>2026-04-25T08:43:57.105Z</time></trkpt><trkpt lat="45.567101" lon="11.227628"><ele>397.0</ele><time>2026-04-25T08:43:58.105Z</time></trkpt><trkpt lat="45.5672433" lon="11.2276307"><ele>397.0</ele><time>2026-04-25T08:43:59.104Z</time></trkpt><trkpt lat="45.5673881" lon="11.2276327"><ele>400.33333333333337</ele><time>2026-04-25T08:44:00.104Z</time></trkpt><trkpt lat="45.5675367" lon="11.2276365"><ele>403.66666666666663</ele><time>2026-04-25T08:44:01.105Z</time></trkpt><trkpt lat="45.5676903" lon="11.2276458"><ele>407.0</ele><time>2026-04-25T08:44:02.105Z</time></trkpt><trkpt lat="45.5678463" lon="11.2276694"><ele>408.66666666666663</ele><time>2026-04-25T08:44:03.104Z</time></trkpt><trkpt lat="45.568002" lon="11.227709"><ele>410.33333333333337</ele><time>2026-04-25T08:44:04.104Z</time></trkpt><trkpt lat="45.5681589" lon="11.2277582"><ele>412.0</ele><time>2026-04-25T08:44:05.105Z</time></trkpt><trkpt lat="45.5683181" lon="11.2278098"><ele>412.0</ele><time>2026-04-25T08:44:06.106Z</time></trkpt><trkpt lat="45.5684732" lon="11.2278592"><ele>412.0</ele><time>2026-04-25T08:44:07.104Z</time></trkpt><trkpt lat="45.56862" lon="11.2279084"><ele>412.0</ele><time>2026-04-25T08:44:08.105Z</time></trkpt><trkpt lat="45.5687613" lon="11.2279509"><ele>414.25</ele><time>2026-04-25T08:44:09.104Z</time></trkpt><trkpt lat="45.5688949" lon="11.227995"><ele>416.5</ele><time>2026-04-25T08:44:10.104Z</time></trkpt><trkpt lat="45.5690174" lon="11.228035"><ele>418.75</ele><time>2026-04-25T08:44:11.104Z</time></trkpt><trkpt lat="45.569128" lon="11.2280726"><ele>421.0</ele><time>2026-04-25T08:44:12.105Z</time></trkpt><trkpt lat="45.5692345" lon="11.228108"><ele>421.00000000000006</ele><time>2026-04-25T08:44:13.105Z</time></trkpt><trkpt lat="45.5693333" lon="11.2281396"><ele>421.0</ele><time>2026-04-25T08:44:14.104Z</time></trkpt><trkpt lat="45.5694189" lon="11.2281705"><ele>421.0</ele><time>2026-04-25T08:44:15.104Z</time></trkpt><trkpt lat="45.5695021" lon="11.2282092"><ele>421.0</ele><time>2026-04-25T08:44:16.105Z</time></trkpt><trkpt lat="45.5695675" lon="11.2282827"><ele>421.00000000000006</ele><time>2026-04-25T08:44:17.104Z</time></trkpt><trkpt lat="45.5696115" lon="11.2283839"><ele>421.0</ele><time>2026-04-25T08:44:18.106Z</time></trkpt><trkpt lat="45.5696234" lon="11.228504"><ele>422.50000000000006</ele><time>2026-04-25T08:44:19.104Z</time></trkpt><trkpt lat="45.5695998" lon="11.2286189"><ele>424.0</ele><time>2026-04-25T08:44:20.104Z</time></trkpt><trkpt lat="45.5695444" lon="11.2287095"><ele>425.5</ele><time>2026-04-25T08:44:21.105Z</time></trkpt><trkpt lat="45.5694695" lon="11.2287748"><ele>427.0</ele><time>2026-04-25T08:44:22.105Z</time></trkpt><trkpt lat="45.5693826" lon="11.2288055"><ele>428.50000000000006</ele><time>2026-04-25T08:44:23.104Z</time></trkpt><trkpt lat="45.56929" lon="11.2288226"><ele>430.0</ele><time>2026-04-25T08:44:24.105Z</time></trkpt><trkpt lat="45.5691958" lon="11.2288454"><ele>430.0</ele><time>2026-04-25T08:44:25.104Z</time></trkpt><trkpt lat="45.569103" lon="11.2288888"><ele>430.0</ele><time>2026-04-25T08:44:26.104Z</time></trkpt><trkpt lat="45.5690165" lon="11.2289536"><ele>430.0</ele><time>2026-04-25T08:44:27.105Z</time></trkpt><trkpt lat="45.5689461" lon="11.2290489"><ele>430.0</ele><time>2026-04-25T08:44:28.105Z</time></trkpt><trkpt lat="45.5689042" lon="11.2291757"><ele>430.0</ele><time>2026-04-25T08:44:29.106Z</time></trkpt><trkpt lat="45.5688969" lon="11.2293141"><ele>432.4</ele><time>2026-04-25T08:44:30.104Z</time></trkpt><trkpt lat="45.5689224" lon="11.2294466"><ele>434.8</ele><time>2026-04-25T08:44:31.104Z</time></trkpt><trkpt lat="45.568977" lon="11.2295572"><ele>437.20000000000005</ele><time>2026-04-25T08:44:32.104Z</time></trkpt><trkpt lat="45.5690554" lon="11.2296254"><ele>439.6</ele><time>2026-04-25T08:44:33.105Z</time></trkpt><trkpt lat="45.5691418" lon="11.2296487"><ele>442.0</ele><time>2026-04-25T08:44:34.105Z</time></trkpt><trkpt lat="45.5692333" lon="11.2296307"><ele>442.0</ele><time>2026-04-25T08:44:35.104Z</time></trkpt><trkpt lat="45.5693252" lon="11.2295844"><ele>442.00000000000006</ele><time>2026-04-25T08:44:36.104Z</time></trkpt><trkpt lat="45.5694231" lon="11.2295346"><ele>442.00000000000006</ele><time>2026-04-25T08:44:37.105Z</time></trkpt><trkpt lat="45.5695214" lon="11.2294793"><ele>442.0</ele><time>2026-04-25T08:44:38.104Z</time></trkpt><trkpt lat="45.5696224" lon="11.2294197"><ele>442.0</ele><time>2026-04-25T08:44:39.104Z</time></trkpt><trkpt lat="45.5697234" lon="11.2293577"><ele>443.20000000000005</ele><time>2026-04-25T08:44:40.104Z</time></trkpt><trkpt lat="45.5698262" lon="11.2292977"><ele>444.40000000000003</ele><time>2026-04-25T08:44:41.104Z</time></trkpt><trkpt lat="45.5699291" lon="11.2292386"><ele>445.59999999999997</ele><time>2026-04-25T08:44:42.104Z</time></trkpt><trkpt lat="45.5700323" lon="11.2291778"><ele>446.79999999999995</ele><time>2026-04-25T08:44:43.105Z</time></trkpt><trkpt lat="45.5701344" lon="11.2291207"><ele>448.0</ele><time>2026-04-25T08:44:44.105Z</time></trkpt><trkpt lat="45.570243" lon="11.2290651"><ele>448.0</ele><time>2026-04-25T08:44:45.105Z</time></trkpt><trkpt lat="45.5703525" lon="11.2290169"><ele>447.99999999999994</ele><time>2026-04-25T08:44:46.105Z</time></trkpt><trkpt lat="45.5704592" lon="11.2289803"><ele>447.99999999999994</ele><time>2026-04-25T08:44:47.104Z</time></trkpt><trkpt lat="45.5705627" lon="11.2289615"><ele>448.0</ele><time>2026-04-25T08:44:48.105Z</time></trkpt><trkpt lat="45.5706568" lon="11.2289665"><ele>448.0</ele><time>2026-04-25T08:44:49.104Z</time></trkpt><trkpt lat="45.5707327" lon="11.2290154"><ele>450.0</ele><time>2026-04-25T08:44:50.104Z</time></trkpt><trkpt lat="45.5707864" lon="11.2290993"><ele>451.99999999999994</ele><time>2026-04-25T08:44:51.105Z</time></trkpt><trkpt lat="45.5708138" lon="11.2292137"><ele>453.99999999999994</ele><time>2026-04-25T08:44:52.106Z</time></trkpt><trkpt lat="45.5708095" lon="11.2293466"><ele>456.0</ele><time>2026-04-25T08:44:53.104Z</time></trkpt><trkpt lat="45.5707804" lon="11.2294797"><ele>458.0</ele><time>2026-04-25T08:44:54.104Z</time></trkpt><trkpt lat="45.5707322" lon="11.2296149"><ele>458.0</ele><time>2026-04-25T08:44:55.106Z</time></trkpt><trkpt lat="45.5706747" lon="11.2297561"><ele>458.0</ele><time>2026-04-25T08:44:56.105Z</time></trkpt><trkpt lat="45.5706176" lon="11.2299043"><ele>458.0</ele><time>2026-04-25T08:44:57.105Z</time></trkpt><trkpt lat="45.5705617" lon="11.2300541"><ele>458.0</ele><time>2026-04-25T08:44:58.104Z</time></trkpt><trkpt lat="45.5705063" lon="11.2302037"><ele>460.0</ele><time>2026-04-25T08:44:59.104Z</time></trkpt><trkpt lat="45.5704617" lon="11.2303453"><ele>461.99999999999994</ele><time>2026-04-25T08:45:00.104Z</time></trkpt><trkpt lat="45.5704352" lon="11.230483"><ele>463.99999999999994</ele><time>2026-04-25T08:45:01.106Z</time></trkpt><trkpt lat="45.5704308" lon="11.2306265"><ele>466.0</ele><time>2026-04-25T08:45:02.104Z</time></trkpt><trkpt lat="45.570456" lon="11.2307715"><ele>468.0</ele><time>2026-04-25T08:45:03.105Z</time></trkpt><trkpt lat="45.5705111" lon="11.2309026"><ele>469.75</ele><time>2026-04-25T08:45:04.105Z</time></trkpt><trkpt lat="45.5705896" lon="11.2310105"><ele>471.5</ele><time>2026-04-25T08:45:05.106Z</time></trkpt><trkpt lat="45.570685" lon="11.2311006"><ele>473.25</ele><time>2026-04-25T08:45:06.105Z</time></trkpt><trkpt lat="45.5707874" lon="11.2311853"><ele>475.0</ele><time>2026-04-25T08:45:07.104Z</time></trkpt><trkpt lat="45.5708972" lon="11.2312691"><ele>475.0</ele><time>2026-04-25T08:45:08.105Z</time></trkpt><trkpt lat="45.571007" lon="11.2313551"><ele>475.0</ele><time>2026-04-25T08:45:09.104Z</time></trkpt><trkpt lat="45.5711214" lon="11.2314421"><ele>475.0</ele><time>2026-04-25T08:45:10.104Z</time></trkpt><trkpt lat="45.571236" lon="11.2315263"><ele>475.0</ele><time>2026-04-25T08:45:11.104Z</time></trkpt><trkpt lat="45.5713515" lon="11.2316127"><ele>476.5</ele><time>2026-04-25T08:45:12.104Z</time></trkpt><trkpt lat="45.5714715" lon="11.2317"><ele>478.0</ele><time>2026-04-25T08:45:13.105Z</time></trkpt><trkpt lat="45.5715942" lon="11.2317822"><ele>479.5</ele><time>2026-04-25T08:45:14.105Z</time></trkpt><trkpt lat="45.5717222" lon="11.2318691"><ele>481.0</ele><time>2026-04-25T08:45:15.105Z</time></trkpt><trkpt lat="45.5718529" lon="11.2319601"><ele>481.0</ele><time>2026-04-25T08:45:16.105Z</time></trkpt><trkpt lat="45.5719864" lon="11.2320572"><ele>481.0</ele><time>2026-04-25T08:45:17.105Z</time></trkpt><trkpt lat="45.5721177" lon="11.2321665"><ele>481.0</ele><time>2026-04-25T08:45:18.104Z</time></trkpt><trkpt lat="45.5722465" lon="11.2322864"><ele>484.33333333333337</ele><time>2026-04-25T08:45:19.106Z</time></trkpt><trkpt lat="45.5723705" lon="11.2324164"><ele>487.66666666666663</ele><time>2026-04-25T08:45:20.105Z</time></trkpt><trkpt lat="45.5724945" lon="11.2325467"><ele>491.0</ele><time>2026-04-25T08:45:21.104Z</time></trkpt><trkpt lat="45.5726159" lon="11.2326787"><ele>491.0</ele><time>2026-04-25T08:45:22.105Z</time></trkpt><trkpt lat="45.5727318" lon="11.2328015"><ele>491.0</ele><time>2026-04-25T08:45:23.104Z</time></trkpt><trkpt lat="45.5728383" lon="11.2329146"><ele>491.0</ele><time>2026-04-25T08:45:24.104Z</time></trkpt><trkpt lat="45.5729379" lon="11.2330225"><ele>491.0</ele><time>2026-04-25T08:45:25.104Z</time></trkpt><trkpt lat="45.5730423" lon="11.2331087"><ele>491.0</ele><time>2026-04-25T08:45:26.104Z</time></trkpt><trkpt lat="45.5731576" lon="11.2331502"><ele>491.0</ele><time>2026-04-25T08:45:27.105Z</time></trkpt><trkpt lat="45.5732771" lon="11.233162"><ele>491.0</ele><time>2026-04-25T08:45:28.105Z</time></trkpt><trkpt lat="45.5733986" lon="11.2331416"><ele>491.0</ele><time>2026-04-25T08:45:29.104Z</time></trkpt><trkpt lat="45.5735168" lon="11.2330945"><ele>491.0</ele><time>2026-04-25T08:45:30.104Z</time></trkpt><trkpt lat="45.5736178" lon="11.2330339"><ele>491.0</ele><time>2026-04-25T08:45:31.105Z</time></trkpt><trkpt lat="45.573708" lon="11.2329743"><ele>491.0</ele><time>2026-04-25T08:45:32.105Z</time></trkpt><trkpt lat="45.5737888" lon="11.2329178"><ele>491.0</ele><time>2026-04-25T08:45:33.104Z</time></trkpt><trkpt lat="45.5738856" lon="11.2328795"><ele>491.0</ele><time>2026-04-25T08:45:34.105Z</time></trkpt><trkpt lat="45.5739917" lon="11.2328555"><ele>493.25</ele><time>2026-04-25T08:45:35.104Z</time></trkpt><trkpt lat="45.5741059" lon="11.2328173"><ele>495.5</ele><time>2026-04-25T08:45:36.104Z</time></trkpt><trkpt lat="45.574222" lon="11.2327723"><ele>497.75</ele><time>2026-04-25T08:45:37.104Z</time></trkpt><trkpt lat="45.5743344" lon="11.2327329"><ele>500.0</ele><time>2026-04-25T08:45:38.105Z</time></trkpt><trkpt lat="45.5744282" lon="11.2326912"><ele>499.99999999999994</ele><time>2026-04-25T08:45:39.104Z</time></trkpt><trkpt lat="45.5745007" lon="11.2326349"><ele>500.0</ele><time>2026-04-25T08:45:40.104Z</time></trkpt><trkpt lat="45.5745516" lon="11.232563"><ele>500.0</ele><time>2026-04-25T08:45:41.104Z</time></trkpt><trkpt lat="45.5745954" lon="11.2324968"><ele>500.0</ele><time>2026-04-25T08:45:42.105Z</time></trkpt><trkpt lat="45.5746761" lon="11.2324222"><ele>499.99999999999994</ele><time>2026-04-25T08:45:44.104Z</time></trkpt><trkpt lat="45.5747821" lon="11.2324324"><ele>500.0</ele><time>2026-04-25T08:45:46.104Z</time></trkpt><trkpt lat="45.5749052" lon="11.2324833"><ele>501.8333333333333</ele><time>2026-04-25T08:45:48.105Z</time></trkpt><trkpt lat="45.5749596" lon="11.2325313"><ele>503.66666666666663</ele><time>2026-04-25T08:45:49.105Z</time></trkpt><trkpt lat="45.5749932" lon="11.2327016"><ele>505.5</ele><time>2026-04-25T08:45:51.105Z</time></trkpt><trkpt lat="45.5749651" lon="11.2327895"><ele>507.33333333333337</ele><time>2026-04-25T08:45:52.105Z</time></trkpt><trkpt lat="45.5749203" lon="11.2328614"><ele>509.1666666666667</ele><time>2026-04-25T08:45:53.105Z</time></trkpt><trkpt lat="45.5748699" lon="11.2329261"><ele>511.0</ele><time>2026-04-25T08:45:54.104Z</time></trkpt><trkpt lat="45.5748197" lon="11.2329935"><ele>511.00000000000006</ele><time>2026-04-25T08:45:55.104Z</time></trkpt><trkpt lat="45.5747651" lon="11.2330579"><ele>511.0</ele><time>2026-04-25T08:45:56.104Z</time></trkpt><trkpt lat="45.5747159" lon="11.2331178"><ele>511.0</ele><time>2026-04-25T08:45:57.105Z</time></trkpt><trkpt lat="45.5746318" lon="11.2332262"><ele>511.0</ele><time>2026-04-25T08:45:59.104Z</time></trkpt><trkpt lat="45.5745258" lon="11.2333161"><ele>511.00000000000006</ele><time>2026-04-25T08:46:01.104Z</time></trkpt><trkpt lat="45.574465" lon="11.2333581"><ele>511.0</ele><time>2026-04-25T08:46:02.104Z</time></trkpt><trkpt lat="45.5743956" lon="11.2334024"><ele>511.33333333333337</ele><time>2026-04-25T08:46:03.105Z</time></trkpt><trkpt lat="45.5743211" lon="11.2334481"><ele>511.6666666666667</ele><time>2026-04-25T08:46:04.104Z</time></trkpt><trkpt lat="45.5742422" lon="11.2335013"><ele>512.0</ele><time>2026-04-25T08:46:05.106Z</time></trkpt><trkpt lat="45.574163" lon="11.2335537"><ele>512.3333333333334</ele><time>2026-04-25T08:46:06.105Z</time></trkpt><trkpt lat="45.5740809" lon="11.2336066"><ele>512.6666666666666</ele><time>2026-04-25T08:46:07.106Z</time></trkpt><trkpt lat="45.5739928" lon="11.2336622"><ele>513.0</ele><time>2026-04-25T08:46:08.104Z</time></trkpt><trkpt lat="45.573904" lon="11.233717"><ele>513.0</ele><time>2026-04-25T08:46:09.104Z</time></trkpt><trkpt lat="45.5738136" lon="11.2337679"><ele>513.0</ele><time>2026-04-25T08:46:10.105Z</time></trkpt><trkpt lat="45.5737283" lon="11.2338155"><ele>513.0</ele><time>2026-04-25T08:46:11.104Z</time></trkpt><trkpt lat="45.5736544" lon="11.2338537"><ele>513.0</ele><time>2026-04-25T08:46:12.105Z</time></trkpt><trkpt lat="45.5735941" lon="11.2338939"><ele>513.0</ele><time>2026-04-25T08:46:13.104Z</time></trkpt><trkpt lat="45.5735192" lon="11.2340009"><ele>513.0</ele><time>2026-04-25T08:46:15.105Z</time></trkpt><trkpt lat="45.5734888" lon="11.2341194"><ele>513.0</ele><time>2026-04-25T08:46:17.104Z</time></trkpt><trkpt lat="45.5735329" lon="11.2341883"><ele>513.0</ele><time>2026-04-25T08:46:20.104Z</time></trkpt><trkpt lat="45.5735515" lon="11.2340793"><ele>513.0</ele><time>2026-04-25T08:47:20.105Z</time></trkpt><trkpt lat="45.5735746" lon="11.2339712"><ele>513.0</ele><time>2026-04-25T08:47:22.104Z</time></trkpt><trkpt lat="45.5736662" lon="11.2338915"><ele>513.0</ele><time>2026-04-25T08:47:24.104Z</time></trkpt><trkpt lat="45.5737808" lon="11.2338297"><ele>513.0</ele><time>2026-04-25T08:47:26.105Z</time></trkpt><trkpt lat="45.5738511" lon="11.2337883"><ele>513.0</ele><time>2026-04-25T08:47:27.105Z</time></trkpt><trkpt lat="45.5739289" lon="11.23374"><ele>513.0</ele><time>2026-04-25T08:47:28.104Z</time></trkpt><trkpt lat="45.5740144" lon="11.2336852"><ele>513.0</ele><time>2026-04-25T08:47:29.104Z</time></trkpt><trkpt lat="45.5741027" lon="11.2336291"><ele>513.0</ele><time>2026-04-25T08:47:30.105Z</time></trkpt><trkpt lat="45.5741927" lon="11.2335691"><ele>513.0</ele><time>2026-04-25T08:47:31.104Z</time></trkpt><trkpt lat="45.5742831" lon="11.2335119"><ele>513.0</ele><time>2026-04-25T08:47:32.104Z</time></trkpt><trkpt lat="45.5743726" lon="11.2334542"><ele>513.0</ele><time>2026-04-25T08:47:33.104Z</time></trkpt><trkpt lat="45.574462" lon="11.2333969"><ele>513.0</ele><time>2026-04-25T08:47:34.105Z</time></trkpt><trkpt lat="45.5745501" lon="11.233334"><ele>513.0</ele><time>2026-04-25T08:47:35.105Z</time></trkpt><trkpt lat="45.5746309" lon="11.2332652"><ele>512.6</ele><time>2026-04-25T08:47:36.105Z</time></trkpt><trkpt lat="45.5747057" lon="11.2331803"><ele>512.1999999999999</ele><time>2026-04-25T08:47:37.105Z</time></trkpt><trkpt lat="45.574781" lon="11.2330787"><ele>511.8</ele><time>2026-04-25T08:47:38.105Z</time></trkpt><trkpt lat="45.5748572" lon="11.2329804"><ele>511.4</ele><time>2026-04-25T08:47:39.104Z</time></trkpt><trkpt lat="45.5749262" lon="11.2328888"><ele>511.0</ele><time>2026-04-25T08:47:40.105Z</time></trkpt><trkpt lat="45.5749814" lon="11.2328004"><ele>511.00000000000006</ele><time>2026-04-25T08:47:41.105Z</time></trkpt><trkpt lat="45.5750108" lon="11.2327052"><ele>511.0</ele><time>2026-04-25T08:47:42.106Z</time></trkpt><trkpt lat="45.5750169" lon="11.2326087"><ele>511.0</ele><time>2026-04-25T08:47:43.106Z</time></trkpt><trkpt lat="45.5749942" lon="11.2325212"><ele>511.0</ele><time>2026-04-25T08:47:44.105Z</time></trkpt><trkpt lat="45.5749455" lon="11.2324627"><ele>511.00000000000006</ele><time>2026-04-25T08:47:45.104Z</time></trkpt><trkpt lat="45.5748838" lon="11.2324368"><ele>511.0</ele><time>2026-04-25T08:47:46.105Z</time></trkpt><trkpt lat="45.5747669" lon="11.2323864"><ele>511.20000000000005</ele><time>2026-04-25T08:47:48.105Z</time></trkpt><trkpt lat="45.5746979" lon="11.2322959"><ele>511.40000000000003</ele><time>2026-04-25T08:47:50.104Z</time></trkpt><trkpt lat="45.5746751" lon="11.2321466"><ele>511.6</ele><time>2026-04-25T08:47:52.105Z</time></trkpt><trkpt lat="45.5746833" lon="11.2320463"><ele>511.8</ele><time>2026-04-25T08:47:53.104Z</time></trkpt><trkpt lat="45.5747021" lon="11.2319253"><ele>512.0</ele><time>2026-04-25T08:47:54.105Z</time></trkpt><trkpt lat="45.574733" lon="11.2317799"><ele>512.0</ele><time>2026-04-25T08:47:55.105Z</time></trkpt><trkpt lat="45.5747665" lon="11.2316174"><ele>512.0</ele><time>2026-04-25T08:47:56.104Z</time></trkpt><trkpt lat="45.5747989" lon="11.2314414"><ele>512.0</ele><time>2026-04-25T08:47:57.104Z</time></trkpt><trkpt lat="45.5748342" lon="11.2312563"><ele>512.0</ele><time>2026-04-25T08:47:58.104Z</time></trkpt><trkpt lat="45.5748698" lon="11.2310715"><ele>512.25</ele><time>2026-04-25T08:47:59.105Z</time></trkpt><trkpt lat="45.5749063" lon="11.2308814"><ele>512.5</ele><time>2026-04-25T08:48:00.104Z</time></trkpt><trkpt lat="45.5749415" lon="11.2306867"><ele>512.75</ele><time>2026-04-25T08:48:01.104Z</time></trkpt><trkpt lat="45.5749732" lon="11.2304898"><ele>513.0</ele><time>2026-04-25T08:48:02.104Z</time></trkpt><trkpt lat="45.5750046" lon="11.2302931"><ele>512.4</ele><time>2026-04-25T08:48:03.106Z</time></trkpt><trkpt lat="45.5750318" lon="11.2301095"><ele>511.79999999999995</ele><time>2026-04-25T08:48:04.105Z</time></trkpt><trkpt lat="45.5750628" lon="11.2299496"><ele>511.2</ele><time>2026-04-25T08:48:05.104Z</time></trkpt><trkpt lat="45.5751016" lon="11.229812"><ele>510.6</ele><time>2026-04-25T08:48:06.104Z</time></trkpt><trkpt lat="45.5751576" lon="11.2297129"><ele>510.0</ele><time>2026-04-25T08:48:07.105Z</time></trkpt><trkpt lat="45.5752288" lon="11.2296537"><ele>509.6</ele><time>2026-04-25T08:48:08.104Z</time></trkpt><trkpt lat="45.5753146" lon="11.2296352"><ele>509.2</ele><time>2026-04-25T08:48:09.104Z</time></trkpt><trkpt lat="45.5754107" lon="11.2296407"><ele>508.79999999999995</ele><time>2026-04-25T08:48:10.104Z</time></trkpt><trkpt lat="45.5755138" lon="11.2296468"><ele>508.4</ele><time>2026-04-25T08:48:11.104Z</time></trkpt><trkpt lat="45.5756166" lon="11.2296346"><ele>508.0</ele><time>2026-04-25T08:48:12.106Z</time></trkpt><trkpt lat="45.5757175" lon="11.2296027"><ele>509.79999999999995</ele><time>2026-04-25T08:48:13.105Z</time></trkpt><trkpt lat="45.5758201" lon="11.2295524"><ele>511.59999999999997</ele><time>2026-04-25T08:48:14.104Z</time></trkpt><trkpt lat="45.5759241" lon="11.2295012"><ele>513.4000000000001</ele><time>2026-04-25T08:48:15.105Z</time></trkpt><trkpt lat="45.5760295" lon="11.2294463"><ele>515.2</ele><time>2026-04-25T08:48:16.105Z</time></trkpt><trkpt lat="45.5761322" lon="11.2293939"><ele>517.0</ele><time>2026-04-25T08:48:17.104Z</time></trkpt><trkpt lat="45.5762355" lon="11.2293504"><ele>518.2</ele><time>2026-04-25T08:48:18.104Z</time></trkpt><trkpt lat="45.5763393" lon="11.2293283"><ele>519.4000000000001</ele><time>2026-04-25T08:48:19.104Z</time></trkpt><trkpt lat="45.5764491" lon="11.2293271"><ele>520.5999999999999</ele><time>2026-04-25T08:48:20.104Z</time></trkpt><trkpt lat="45.5765613" lon="11.2293457"><ele>521.8</ele><time>2026-04-25T08:48:21.105Z</time></trkpt><trkpt lat="45.5766753" lon="11.2293722"><ele>523.0</ele><time>2026-04-25T08:48:22.104Z</time></trkpt><trkpt lat="45.576792" lon="11.2293972"><ele>523.0</ele><time>2026-04-25T08:48:23.104Z</time></trkpt><trkpt lat="45.5769115" lon="11.2294246"><ele>523.0</ele><time>2026-04-25T08:48:24.105Z</time></trkpt><trkpt lat="45.5770332" lon="11.2294571"><ele>523.0</ele><time>2026-04-25T08:48:25.105Z</time></trkpt><trkpt lat="45.5771566" lon="11.2294807"><ele>523.0</ele><time>2026-04-25T08:48:26.104Z</time></trkpt><trkpt lat="45.5772818" lon="11.2294932"><ele>524.5</ele><time>2026-04-25T08:48:27.105Z</time></trkpt><trkpt lat="45.5774089" lon="11.2294918"><ele>526.0</ele><time>2026-04-25T08:48:28.104Z</time></trkpt><trkpt lat="45.5775365" lon="11.2294829"><ele>527.5</ele><time>2026-04-25T08:48:29.105Z</time></trkpt><trkpt lat="45.5776654" lon="11.2294683"><ele>529.0</ele><time>2026-04-25T08:48:30.106Z</time></trkpt><trkpt lat="45.5777946" lon="11.2294473"><ele>532.5</ele><time>2026-04-25T08:48:31.105Z</time></trkpt><trkpt lat="45.5779251" lon="11.2294191"><ele>536.0</ele><time>2026-04-25T08:48:32.105Z</time></trkpt><trkpt lat="45.5780568" lon="11.2293856"><ele>539.5</ele><time>2026-04-25T08:48:33.104Z</time></trkpt><trkpt lat="45.5781882" lon="11.2293523"><ele>543.0</ele><time>2026-04-25T08:48:34.104Z</time></trkpt><trkpt lat="45.5783159" lon="11.2293182"><ele>543.0</ele><time>2026-04-25T08:48:35.105Z</time></trkpt><trkpt lat="45.5784319" lon="11.2292809"><ele>543.0</ele><time>2026-04-25T08:48:36.106Z</time></trkpt><trkpt lat="45.5785375" lon="11.2292294"><ele>543.0</ele><time>2026-04-25T08:48:37.105Z</time></trkpt><trkpt lat="45.5786268" lon="11.2291576"><ele>543.0</ele><time>2026-04-25T08:48:38.105Z</time></trkpt><trkpt lat="45.5786882" lon="11.2290578"><ele>543.0</ele><time>2026-04-25T08:48:39.104Z</time></trkpt><trkpt lat="45.5787139" lon="11.2289361"><ele>543.1999999999999</ele><time>2026-04-25T08:48:40.104Z</time></trkpt><trkpt lat="45.5787025" lon="11.2288027"><ele>543.4</ele><time>2026-04-25T08:48:41.105Z</time></trkpt><trkpt lat="45.5786581" lon="11.228662"><ele>543.5999999999999</ele><time>2026-04-25T08:48:42.104Z</time></trkpt><trkpt lat="45.5786064" lon="11.2285161"><ele>543.8</ele><time>2026-04-25T08:48:43.104Z</time></trkpt><trkpt lat="45.5785477" lon="11.2283689"><ele>544.0</ele><time>2026-04-25T08:48:44.104Z</time></trkpt><trkpt lat="45.5784857" lon="11.2282188"><ele>545.0</ele><time>2026-04-25T08:48:45.104Z</time></trkpt><trkpt lat="45.5784241" lon="11.2280698"><ele>546.0</ele><time>2026-04-25T08:48:46.106Z</time></trkpt><trkpt lat="45.5783679" lon="11.2279288"><ele>547.0</ele><time>2026-04-25T08:48:47.104Z</time></trkpt><trkpt lat="45.5783241" lon="11.2277985"><ele>548.0</ele><time>2026-04-25T08:48:48.104Z</time></trkpt><trkpt lat="45.5783016" lon="11.2276814"><ele>549.0</ele><time>2026-04-25T08:48:49.104Z</time></trkpt><trkpt lat="45.5782942" lon="11.2275675"><ele>549.0</ele><time>2026-04-25T08:48:50.105Z</time></trkpt><trkpt lat="45.5782991" lon="11.2274491"><ele>549.0</ele><time>2026-04-25T08:48:51.106Z</time></trkpt><trkpt lat="45.5783175" lon="11.2273406"><ele>549.0</ele><time>2026-04-25T08:48:52.105Z</time></trkpt><trkpt lat="45.5783468" lon="11.2272478"><ele>549.0</ele><time>2026-04-25T08:48:53.105Z</time></trkpt><trkpt lat="45.5783811" lon="11.2271711"><ele>549.0</ele><time>2026-04-25T08:48:54.104Z</time></trkpt><trkpt lat="45.5784078" lon="11.227058"><ele>549.0</ele><time>2026-04-25T08:48:56.104Z</time></trkpt><trkpt lat="45.5783319" lon="11.2269778"><ele>548.8333333333334</ele><time>2026-04-25T08:48:59.105Z</time></trkpt><trkpt lat="45.5782424" lon="11.2269506"><ele>548.6666666666666</ele><time>2026-04-25T08:49:01.104Z</time></trkpt><trkpt lat="45.5781259" lon="11.2269007"><ele>548.5</ele><time>2026-04-25T08:49:03.106Z</time></trkpt><trkpt lat="45.5780546" lon="11.2268732"><ele>548.3333333333333</ele><time>2026-04-25T08:49:04.104Z</time></trkpt><trkpt lat="45.5779775" lon="11.2268372"><ele>548.1666666666666</ele><time>2026-04-25T08:49:05.105Z</time></trkpt><trkpt lat="45.5779016" lon="11.2268215"><ele>548.0</ele><time>2026-04-25T08:49:06.104Z</time></trkpt><trkpt lat="45.5778294" lon="11.2268372"><ele>547.1666666666666</ele><time>2026-04-25T08:49:07.106Z</time></trkpt><trkpt lat="45.5777601" lon="11.2268829"><ele>546.3333333333333</ele><time>2026-04-25T08:49:08.106Z</time></trkpt><trkpt lat="45.5776918" lon="11.2269426"><ele>545.5</ele><time>2026-04-25T08:49:09.105Z</time></trkpt><trkpt lat="45.5776132" lon="11.2269866"><ele>544.6666666666666</ele><time>2026-04-25T08:49:10.105Z</time></trkpt><trkpt lat="45.5775261" lon="11.2270118"><ele>543.8333333333334</ele><time>2026-04-25T08:49:11.105Z</time></trkpt><trkpt lat="45.5774345" lon="11.2270304"><ele>543.0</ele><time>2026-04-25T08:49:12.104Z</time></trkpt><trkpt lat="45.5773456" lon="11.2270474"><ele>543.0</ele><time>2026-04-25T08:49:13.104Z</time></trkpt><trkpt lat="45.5772673" lon="11.2270515"><ele>543.0</ele><time>2026-04-25T08:49:14.105Z</time></trkpt><trkpt lat="45.5771898" lon="11.2270287"><ele>543.0</ele><time>2026-04-25T08:49:15.104Z</time></trkpt><trkpt lat="45.577111" lon="11.2269962"><ele>543.0</ele><time>2026-04-25T08:49:16.105Z</time></trkpt><trkpt lat="45.577028" lon="11.2269675"><ele>543.0</ele><time>2026-04-25T08:49:17.105Z</time></trkpt><trkpt lat="45.5769441" lon="11.2269383"><ele>543.0</ele><time>2026-04-25T08:49:18.104Z</time></trkpt><trkpt lat="45.5768608" lon="11.2268998"><ele>541.1999999999999</ele><time>2026-04-25T08:49:19.104Z</time></trkpt><trkpt lat="45.5767808" lon="11.2268501"><ele>539.4</ele><time>2026-04-25T08:49:20.105Z</time></trkpt><trkpt lat="45.5767015" lon="11.2267916"><ele>537.5999999999999</ele><time>2026-04-25T08:49:21.104Z</time></trkpt><trkpt lat="45.5766202" lon="11.2267197"><ele>535.8</ele><time>2026-04-25T08:49:22.105Z</time></trkpt><trkpt lat="45.5765409" lon="11.2266466"><ele>534.0</ele><time>2026-04-25T08:49:23.105Z</time></trkpt><trkpt lat="45.5764626" lon="11.2265813"><ele>534.0</ele><time>2026-04-25T08:49:24.104Z</time></trkpt><trkpt lat="45.5763824" lon="11.2265361"><ele>534.0</ele><time>2026-04-25T08:49:25.104Z</time></trkpt><trkpt lat="45.5763011" lon="11.226506"><ele>534.0</ele><time>2026-04-25T08:49:26.105Z</time></trkpt><trkpt lat="45.5762119" lon="11.2264894"><ele>534.0</ele><time>2026-04-25T08:49:27.105Z</time></trkpt><trkpt lat="45.5761167" lon="11.2264936"><ele>534.0</ele><time>2026-04-25T08:49:28.105Z</time></trkpt><trkpt lat="45.5760218" lon="11.2265062"><ele>532.2</ele><time>2026-04-25T08:49:29.106Z</time></trkpt><trkpt lat="45.5759232" lon="11.2265201"><ele>530.4</ele><time>2026-04-25T08:49:30.104Z</time></trkpt><trkpt lat="45.5758265" lon="11.2265306"><ele>528.6</ele><time>2026-04-25T08:49:31.104Z</time></trkpt><trkpt lat="45.5757313" lon="11.226541"><ele>526.8</ele><time>2026-04-25T08:49:32.104Z</time></trkpt><trkpt lat="45.5756456" lon="11.2265479"><ele>525.0</ele><time>2026-04-25T08:49:33.105Z</time></trkpt><trkpt lat="45.5755656" lon="11.2265551"><ele>525.0</ele><time>2026-04-25T08:49:34.104Z</time></trkpt><trkpt lat="45.5754882" lon="11.226564"><ele>525.0</ele><time>2026-04-25T08:49:35.104Z</time></trkpt><trkpt lat="45.5754071" lon="11.2265636"><ele>525.0</ele><time>2026-04-25T08:49:36.105Z</time></trkpt><trkpt lat="45.5753287" lon="11.2265579"><ele>525.0</ele><time>2026-04-25T08:49:37.105Z</time></trkpt><trkpt lat="45.5752474" lon="11.2265414"><ele>525.0</ele><time>2026-04-25T08:49:38.106Z</time></trkpt><trkpt lat="45.5751648" lon="11.2265138"><ele>525.0</ele><time>2026-04-25T08:49:39.104Z</time></trkpt><trkpt lat="45.5750852" lon="11.226481"><ele>523.5714285714286</ele><time>2026-04-25T08:49:40.104Z</time></trkpt><trkpt lat="45.5750094" lon="11.226451"><ele>522.1428571428571</ele><time>2026-04-25T08:49:41.104Z</time></trkpt><trkpt lat="45.5749378" lon="11.2264084"><ele>520.7142857142858</ele><time>2026-04-25T08:49:42.105Z</time></trkpt><trkpt lat="45.5748704" lon="11.226368"><ele>519.2857142857142</ele><time>2026-04-25T08:49:43.104Z</time></trkpt><trkpt lat="45.5747997" lon="11.2263388"><ele>517.8571428571429</ele><time>2026-04-25T08:49:44.104Z</time></trkpt><trkpt lat="45.5747258" lon="11.2263303"><ele>516.4285714285714</ele><time>2026-04-25T08:49:45.105Z</time></trkpt><trkpt lat="45.5746555" lon="11.2263216"><ele>515.0</ele><time>2026-04-25T08:49:46.104Z</time></trkpt><trkpt lat="45.5745487" lon="11.2263117"><ele>513.6666666666666</ele><time>2026-04-25T08:49:48.104Z</time></trkpt><trkpt lat="45.5744573" lon="11.2263145"><ele>512.3333333333333</ele><time>2026-04-25T08:49:50.105Z</time></trkpt><trkpt lat="45.5743692" lon="11.2263206"><ele>511.0</ele><time>2026-04-25T08:49:52.104Z</time></trkpt><trkpt lat="45.5742897" lon="11.2263031"><ele>509.66666666666663</ele><time>2026-04-25T08:49:54.104Z</time></trkpt><trkpt lat="45.5742268" lon="11.2262763"><ele>508.3333333333333</ele><time>2026-04-25T08:49:56.105Z</time></trkpt><trkpt lat="45.5741494" lon="11.2262543"><ele>507.0</ele><time>2026-04-25T08:49:59.104Z</time></trkpt><trkpt lat="45.574231" lon="11.2262602"><ele>507.0</ele><time>2026-04-25T08:54:58.105Z</time></trkpt><trkpt lat="45.5742867" lon="11.2263203"><ele>507.0</ele><time>2026-04-25T08:55:00.106Z</time></trkpt><trkpt lat="45.574351" lon="11.2263715"><ele>507.0</ele><time>2026-04-25T08:55:02.105Z</time></trkpt><trkpt lat="45.5744184" lon="11.2264258"><ele>507.0</ele><time>2026-04-25T08:55:04.104Z</time></trkpt><trkpt lat="45.5744912" lon="11.2264751"><ele>507.0</ele><time>2026-04-25T08:55:06.105Z</time></trkpt><trkpt lat="45.5746065" lon="11.2265756"><ele>507.0</ele><time>2026-04-25T08:55:08.104Z</time></trkpt><trkpt lat="45.5746685" lon="11.2266459"><ele>508.6666666666667</ele><time>2026-04-25T08:55:09.105Z</time></trkpt><trkpt lat="45.5747307" lon="11.2267153"><ele>510.33333333333337</ele><time>2026-04-25T08:55:10.104Z</time></trkpt><trkpt lat="45.5747945" lon="11.2267755"><ele>512.0</ele><time>2026-04-25T08:55:11.104Z</time></trkpt><trkpt lat="45.574859" lon="11.2268242"><ele>513.6666666666667</ele><time>2026-04-25T08:55:12.105Z</time></trkpt><trkpt lat="45.5749365" lon="11.2269398"><ele>515.3333333333334</ele><time>2026-04-25T08:55:14.105Z</time></trkpt><trkpt lat="45.5748846" lon="11.2270507"><ele>517.0</ele><time>2026-04-25T08:55:16.105Z</time></trkpt><trkpt lat="45.5747674" lon="11.2270187"><ele>517.0</ele><time>2026-04-25T08:55:18.105Z</time></trkpt><trkpt lat="45.5746896" lon="11.2269871"><ele>517.0</ele><time>2026-04-25T08:55:19.104Z</time></trkpt><trkpt lat="45.574601" lon="11.22695"><ele>517.0</ele><time>2026-04-25T08:55:20.104Z</time></trkpt><trkpt lat="45.5745082" lon="11.2269098"><ele>517.0</ele><time>2026-04-25T08:55:21.105Z</time></trkpt><trkpt lat="45.5744144" lon="11.2268698"><ele>517.0</ele><time>2026-04-25T08:55:22.105Z</time></trkpt><trkpt lat="45.5743189" lon="11.2268318"><ele>515.3333333333334</ele><time>2026-04-25T08:55:23.105Z</time></trkpt><trkpt lat="45.5742251" lon="11.2267915"><ele>513.6666666666667</ele><time>2026-04-25T08:55:24.104Z</time></trkpt><trkpt lat="45.5741403" lon="11.2267484"><ele>512.0</ele><time>2026-04-25T08:55:25.105Z</time></trkpt><trkpt lat="45.5740638" lon="11.2266951"><ele>510.33333333333337</ele><time>2026-04-25T08:55:26.104Z</time></trkpt><trkpt lat="45.573996" lon="11.2266344"><ele>508.6666666666667</ele><time>2026-04-25T08:55:27.104Z</time></trkpt><trkpt lat="45.573938" lon="11.2265595"><ele>507.0</ele><time>2026-04-25T08:55:28.104Z</time></trkpt><trkpt lat="45.5738894" lon="11.2264752"><ele>507.0</ele><time>2026-04-25T08:55:29.105Z</time></trkpt><trkpt lat="45.5738489" lon="11.2263822"><ele>507.0</ele><time>2026-04-25T08:55:30.104Z</time></trkpt><trkpt lat="45.5738127" lon="11.2262816"><ele>507.0</ele><time>2026-04-25T08:55:31.104Z</time></trkpt><trkpt lat="45.5737825" lon="11.2261747"><ele>507.0</ele><time>2026-04-25T08:55:32.104Z</time></trkpt><trkpt lat="45.5737544" lon="11.2260654"><ele>507.0</ele><time>2026-04-25T08:55:33.104Z</time></trkpt><trkpt lat="45.5737282" lon="11.2259627"><ele>507.0</ele><time>2026-04-25T08:55:34.104Z</time></trkpt><trkpt lat="45.573717" lon="11.2258624"><ele>507.0</ele><time>2026-04-25T08:55:35.104Z</time></trkpt><trkpt lat="45.5737188" lon="11.225764"><ele>507.0</ele><time>2026-04-25T08:55:36.105Z</time></trkpt><trkpt lat="45.5737222" lon="11.2256637"><ele>507.0</ele><time>2026-04-25T08:55:37.105Z</time></trkpt><trkpt lat="45.5737151" lon="11.2255719"><ele>507.0</ele><time>2026-04-25T08:55:38.104Z</time></trkpt><trkpt lat="45.5736328" lon="11.2254726"><ele>507.0</ele><time>2026-04-25T08:55:40.104Z</time></trkpt><trkpt lat="45.5735272" lon="11.2255156"><ele>507.0</ele><time>2026-04-25T08:55:42.105Z</time></trkpt><trkpt lat="45.5734863" lon="11.2255895"><ele>502.8333333333333</ele><time>2026-04-25T08:55:43.106Z</time></trkpt><trkpt lat="45.5734488" lon="11.2256796"><ele>498.66666666666663</ele><time>2026-04-25T08:55:44.105Z</time></trkpt><trkpt lat="45.5734106" lon="11.2257785"><ele>494.5</ele><time>2026-04-25T08:55:45.104Z</time></trkpt><trkpt lat="45.5733715" lon="11.225881"><ele>490.3333333333333</ele><time>2026-04-25T08:55:46.105Z</time></trkpt><trkpt lat="45.5733277" lon="11.2259847"><ele>486.16666666666663</ele><time>2026-04-25T08:55:47.105Z</time></trkpt><trkpt lat="45.5732771" lon="11.2260865"><ele>482.0</ele><time>2026-04-25T08:55:48.105Z</time></trkpt><trkpt lat="45.5732222" lon="11.2261826"><ele>481.99999999999994</ele><time>2026-04-25T08:55:49.105Z</time></trkpt><trkpt lat="45.5731662" lon="11.2262725"><ele>482.0</ele><time>2026-04-25T08:55:50.105Z</time></trkpt><trkpt lat="45.5731114" lon="11.2263602"><ele>482.0</ele><time>2026-04-25T08:55:51.104Z</time></trkpt><trkpt lat="45.5730582" lon="11.2264452"><ele>482.0</ele><time>2026-04-25T08:55:52.104Z</time></trkpt><trkpt lat="45.573012" lon="11.2265253"><ele>481.99999999999994</ele><time>2026-04-25T08:55:53.105Z</time></trkpt><trkpt lat="45.5729671" lon="11.2266803"><ele>482.0</ele><time>2026-04-25T08:55:55.104Z</time></trkpt><trkpt lat="45.5729879" lon="11.2268347"><ele>482.0</ele><time>2026-04-25T08:55:57.104Z</time></trkpt><trkpt lat="45.573062" lon="11.2269647"><ele>482.00000000000006</ele><time>2026-04-25T08:55:59.104Z</time></trkpt><trkpt lat="45.5731475" lon="11.2270691"><ele>482.00000000000006</ele><time>2026-04-25T08:56:01.104Z</time></trkpt><trkpt lat="45.5732046" lon="11.2271476"><ele>482.0</ele><time>2026-04-25T08:56:03.104Z</time></trkpt><trkpt lat="45.5732662" lon="11.2272246"><ele>482.0</ele><time>2026-04-25T08:56:06.105Z</time></trkpt><trkpt lat="45.5733353" lon="11.227339"><ele>481.99999999999994</ele><time>2026-04-25T08:56:09.104Z</time></trkpt><trkpt lat="45.5733962" lon="11.2274647"><ele>482.0</ele><time>2026-04-25T08:56:11.105Z</time></trkpt><trkpt lat="45.5734255" lon="11.2275674"><ele>482.0</ele><time>2026-04-25T08:56:13.104Z</time></trkpt><trkpt lat="45.5734017" lon="11.227655"><ele>482.0</ele><time>2026-04-25T08:56:15.104Z</time></trkpt><trkpt lat="45.5733413" lon="11.2277231"><ele>481.99999999999994</ele><time>2026-04-25T08:56:17.104Z</time></trkpt><trkpt lat="45.5732522" lon="11.2277248"><ele>482.0</ele><time>2026-04-25T08:56:19.104Z</time></trkpt><trkpt lat="45.5731409" lon="11.2276779"><ele>481.99999999999994</ele><time>2026-04-25T08:56:21.105Z</time></trkpt><trkpt lat="45.5730789" lon="11.2276519"><ele>482.0</ele><time>2026-04-25T08:56:22.105Z</time></trkpt><trkpt lat="45.57301" lon="11.227634"><ele>482.0</ele><time>2026-04-25T08:56:23.104Z</time></trkpt><trkpt lat="45.5729297" lon="11.2276377"><ele>482.0</ele><time>2026-04-25T08:56:24.105Z</time></trkpt><trkpt lat="45.5728479" lon="11.2276629"><ele>481.99999999999994</ele><time>2026-04-25T08:56:25.104Z</time></trkpt><trkpt lat="45.5727617" lon="11.2277069"><ele>482.0</ele><time>2026-04-25T08:56:26.105Z</time></trkpt><trkpt lat="45.5726756" lon="11.2277402"><ele>480.8333333333333</ele><time>2026-04-25T08:56:27.104Z</time></trkpt><trkpt lat="45.5725912" lon="11.2277795"><ele>479.66666666666663</ele><time>2026-04-25T08:56:28.105Z</time></trkpt><trkpt lat="45.5725094" lon="11.2278184"><ele>478.5</ele><time>2026-04-25T08:56:29.104Z</time></trkpt><trkpt lat="45.5724333" lon="11.2278437"><ele>477.33333333333337</ele><time>2026-04-25T08:56:30.105Z</time></trkpt><trkpt lat="45.5723639" lon="11.2278432"><ele>476.1666666666667</ele><time>2026-04-25T08:56:31.104Z</time></trkpt><trkpt lat="45.5722544" lon="11.2277795"><ele>475.0</ele><time>2026-04-25T08:56:33.105Z</time></trkpt><trkpt lat="45.572213" lon="11.2276973"><ele>475.0</ele><time>2026-04-25T08:56:34.104Z</time></trkpt><trkpt lat="45.5721769" lon="11.2275868"><ele>475.0</ele><time>2026-04-25T08:56:35.105Z</time></trkpt><trkpt lat="45.5721379" lon="11.2274597"><ele>475.0</ele><time>2026-04-25T08:56:36.104Z</time></trkpt><trkpt lat="45.5720868" lon="11.2273297"><ele>475.0</ele><time>2026-04-25T08:56:37.104Z</time></trkpt><trkpt lat="45.5720265" lon="11.227202"><ele>475.0</ele><time>2026-04-25T08:56:38.105Z</time></trkpt><trkpt lat="45.5719659" lon="11.2270639"><ele>470.6</ele><time>2026-04-25T08:56:39.104Z</time></trkpt><trkpt lat="45.5719145" lon="11.2269149"><ele>466.2</ele><time>2026-04-25T08:56:40.104Z</time></trkpt><trkpt lat="45.5718767" lon="11.2267589"><ele>461.79999999999995</ele><time>2026-04-25T08:56:41.105Z</time></trkpt><trkpt lat="45.5718349" lon="11.2266165"><ele>457.4</ele><time>2026-04-25T08:56:42.105Z</time></trkpt><trkpt lat="45.5717912" lon="11.2264892"><ele>453.0</ele><time>2026-04-25T08:56:43.104Z</time></trkpt><trkpt lat="45.5717612" lon="11.2263524"><ele>452.25</ele><time>2026-04-25T08:56:44.104Z</time></trkpt><trkpt lat="45.5717494" lon="11.2262026"><ele>451.5</ele><time>2026-04-25T08:56:45.104Z</time></trkpt><trkpt lat="45.5717578" lon="11.2260467"><ele>450.75</ele><time>2026-04-25T08:56:46.104Z</time></trkpt><trkpt lat="45.5717807" lon="11.2258854"><ele>450.0</ele><time>2026-04-25T08:56:47.104Z</time></trkpt><trkpt lat="45.5718017" lon="11.2257155"><ele>449.4</ele><time>2026-04-25T08:56:48.105Z</time></trkpt><trkpt lat="45.5718241" lon="11.2255537"><ele>448.8</ele><time>2026-04-25T08:56:49.104Z</time></trkpt><trkpt lat="45.5718497" lon="11.225414"><ele>448.20000000000005</ele><time>2026-04-25T08:56:50.104Z</time></trkpt><trkpt lat="45.5718677" lon="11.225288"><ele>447.6</ele><time>2026-04-25T08:56:51.104Z</time></trkpt><trkpt lat="45.5718737" lon="11.2251639"><ele>447.0</ele><time>2026-04-25T08:56:52.104Z</time></trkpt><trkpt lat="45.5718635" lon="11.2250468"><ele>447.0</ele><time>2026-04-25T08:56:53.105Z</time></trkpt><trkpt lat="45.5718283" lon="11.2249382"><ele>447.00000000000006</ele><time>2026-04-25T08:56:54.104Z</time></trkpt><trkpt lat="45.571772" lon="11.2248424"><ele>447.00000000000006</ele><time>2026-04-25T08:56:55.104Z</time></trkpt><trkpt lat="45.5716948" lon="11.2247612"><ele>447.0</ele><time>2026-04-25T08:56:56.105Z</time></trkpt><trkpt lat="45.5716064" lon="11.2246865"><ele>447.0</ele><time>2026-04-25T08:56:57.105Z</time></trkpt><trkpt lat="45.5715158" lon="11.2246051"><ele>446.20000000000005</ele><time>2026-04-25T08:56:58.104Z</time></trkpt><trkpt lat="45.5714233" lon="11.224517"><ele>445.40000000000003</ele><time>2026-04-25T08:56:59.104Z</time></trkpt><trkpt lat="45.5713305" lon="11.2244249"><ele>444.59999999999997</ele><time>2026-04-25T08:57:00.104Z</time></trkpt><trkpt lat="45.571238" lon="11.224335"><ele>443.79999999999995</ele><time>2026-04-25T08:57:01.104Z</time></trkpt><trkpt lat="45.5711495" lon="11.2242543"><ele>443.0</ele><time>2026-04-25T08:57:02.104Z</time></trkpt><trkpt lat="45.5710683" lon="11.2241764"><ele>440.99999999999994</ele><time>2026-04-25T08:57:03.105Z</time></trkpt><trkpt lat="45.5709977" lon="11.2241002"><ele>439.0</ele><time>2026-04-25T08:57:04.105Z</time></trkpt><trkpt lat="45.5709442" lon="11.2240182"><ele>437.0</ele><time>2026-04-25T08:57:05.104Z</time></trkpt><trkpt lat="45.5709134" lon="11.2239286"><ele>435.0</ele><time>2026-04-25T08:57:06.104Z</time></trkpt><trkpt lat="45.5709136" lon="11.2238302"><ele>432.99999999999994</ele><time>2026-04-25T08:57:07.104Z</time></trkpt><trkpt lat="45.5709497" lon="11.2237325"><ele>431.0</ele><time>2026-04-25T08:57:08.105Z</time></trkpt><trkpt lat="45.57101" lon="11.2236399"><ele>431.6</ele><time>2026-04-25T08:57:09.104Z</time></trkpt><trkpt lat="45.5710843" lon="11.2235471"><ele>432.20000000000005</ele><time>2026-04-25T08:57:10.105Z</time></trkpt><trkpt lat="45.5711698" lon="11.2234703"><ele>432.79999999999995</ele><time>2026-04-25T08:57:11.105Z</time></trkpt><trkpt lat="45.571257" lon="11.2234251"><ele>433.4</ele><time>2026-04-25T08:57:12.106Z</time></trkpt><trkpt lat="45.5713452" lon="11.2234052"><ele>434.0</ele><time>2026-04-25T08:57:13.104Z</time></trkpt><trkpt lat="45.5714279" lon="11.2233818"><ele>433.99999999999994</ele><time>2026-04-25T08:57:14.105Z</time></trkpt><trkpt lat="45.5714918" lon="11.2233178"><ele>434.0</ele><time>2026-04-25T08:57:15.105Z</time></trkpt><trkpt lat="45.5715329" lon="11.2232238"><ele>434.0</ele><time>2026-04-25T08:57:16.104Z</time></trkpt><trkpt lat="45.5715418" lon="11.2231125"><ele>434.0</ele><time>2026-04-25T08:57:17.105Z</time></trkpt><trkpt lat="45.5715173" lon="11.2230048"><ele>433.99999999999994</ele><time>2026-04-25T08:57:18.104Z</time></trkpt><trkpt lat="45.5715129" lon="11.222894"><ele>434.0</ele><time>2026-04-25T08:57:19.104Z</time></trkpt><trkpt lat="45.5715414" lon="11.222783"><ele>434.66666666666663</ele><time>2026-04-25T08:57:20.105Z</time></trkpt><trkpt lat="45.5716006" lon="11.2226968"><ele>435.3333333333333</ele><time>2026-04-25T08:57:21.105Z</time></trkpt><trkpt lat="45.5716723" lon="11.2226236"><ele>436.0</ele><time>2026-04-25T08:57:22.106Z</time></trkpt><trkpt lat="45.571748" lon="11.222545"><ele>436.66666666666663</ele><time>2026-04-25T08:57:23.104Z</time></trkpt><trkpt lat="45.5718114" lon="11.2224687"><ele>437.3333333333333</ele><time>2026-04-25T08:57:24.106Z</time></trkpt><trkpt lat="45.5718486" lon="11.222369"><ele>438.0</ele><time>2026-04-25T08:57:25.105Z</time></trkpt><trkpt lat="45.5718617" lon="11.2222627"><ele>438.0</ele><time>2026-04-25T08:57:26.105Z</time></trkpt><trkpt lat="45.5718504" lon="11.2221495"><ele>438.0</ele><time>2026-04-25T08:57:27.104Z</time></trkpt><trkpt lat="45.5718179" lon="11.2220518"><ele>438.0</ele><time>2026-04-25T08:57:28.105Z</time></trkpt><trkpt lat="45.5717641" lon="11.221972"><ele>438.0</ele><time>2026-04-25T08:57:29.104Z</time></trkpt><trkpt lat="45.5717039" lon="11.2218999"><ele>438.0</ele><time>2026-04-25T08:57:30.106Z</time></trkpt><trkpt lat="45.5716418" lon="11.2218227"><ele>438.0</ele><time>2026-04-25T08:57:31.105Z</time></trkpt><trkpt lat="45.57158" lon="11.221731"><ele>438.0</ele><time>2026-04-25T08:57:32.104Z</time></trkpt><trkpt lat="45.5715203" lon="11.221638"><ele>438.0</ele><time>2026-04-25T08:57:33.104Z</time></trkpt><trkpt lat="45.5714463" lon="11.2215716"><ele>438.0</ele><time>2026-04-25T08:57:34.104Z</time></trkpt><trkpt lat="45.5713609" lon="11.2215386"><ele>438.0</ele><time>2026-04-25T08:57:35.105Z</time></trkpt><trkpt lat="45.5712676" lon="11.2215403"><ele>438.0</ele><time>2026-04-25T08:57:36.105Z</time></trkpt><trkpt lat="45.5711789" lon="11.2215732"><ele>438.0</ele><time>2026-04-25T08:57:37.105Z</time></trkpt><trkpt lat="45.5711068" lon="11.2216525"><ele>437.6666666666667</ele><time>2026-04-25T08:57:38.105Z</time></trkpt><trkpt lat="45.5710584" lon="11.2217558"><ele>437.33333333333337</ele><time>2026-04-25T08:57:39.105Z</time></trkpt><trkpt lat="45.5710105" lon="11.2218438"><ele>437.0</ele><time>2026-04-25T08:57:40.104Z</time></trkpt><trkpt lat="45.5709495" lon="11.2218847"><ele>436.6666666666667</ele><time>2026-04-25T08:57:41.105Z</time></trkpt><trkpt lat="45.5708876" lon="11.221868"><ele>436.33333333333337</ele><time>2026-04-25T08:57:42.106Z</time></trkpt><trkpt lat="45.570818" lon="11.2217171"><ele>436.0</ele><time>2026-04-25T08:57:44.106Z</time></trkpt><trkpt lat="45.5708189" lon="11.2216073"><ele>436.00000000000006</ele><time>2026-04-25T08:57:45.105Z</time></trkpt><trkpt lat="45.5708157" lon="11.2214888"><ele>436.0</ele><time>2026-04-25T08:57:46.106Z</time></trkpt><trkpt lat="45.570792" lon="11.2213727"><ele>436.0</ele><time>2026-04-25T08:57:47.104Z</time></trkpt><trkpt lat="45.5707371" lon="11.2212997"><ele>436.0</ele><time>2026-04-25T08:57:48.106Z</time></trkpt><trkpt lat="45.5706645" lon="11.2212681"><ele>436.00000000000006</ele><time>2026-04-25T08:57:49.104Z</time></trkpt><trkpt lat="45.5705921" lon="11.2212971"><ele>436.0</ele><time>2026-04-25T08:57:50.106Z</time></trkpt><trkpt lat="45.5705202" lon="11.2213685"><ele>436.0</ele><time>2026-04-25T08:57:51.104Z</time></trkpt><trkpt lat="45.5704555" lon="11.2214615"><ele>436.0</ele><time>2026-04-25T08:57:52.106Z</time></trkpt><trkpt lat="45.5703908" lon="11.2215734"><ele>436.0</ele><time>2026-04-25T08:57:53.105Z</time></trkpt><trkpt lat="45.570331" lon="11.2217012"><ele>436.0</ele><time>2026-04-25T08:57:54.105Z</time></trkpt><trkpt lat="45.5702816" lon="11.2218421"><ele>436.0</ele><time>2026-04-25T08:57:55.106Z</time></trkpt><trkpt lat="45.5702258" lon="11.2219772"><ele>436.4</ele><time>2026-04-25T08:57:56.104Z</time></trkpt><trkpt lat="45.5701544" lon="11.2220997"><ele>436.8</ele><time>2026-04-25T08:57:57.105Z</time></trkpt><trkpt lat="45.5700674" lon="11.222196"><ele>437.19999999999993</ele><time>2026-04-25T08:57:58.104Z</time></trkpt><trkpt lat="45.5699743" lon="11.222268"><ele>437.59999999999997</ele><time>2026-04-25T08:57:59.105Z</time></trkpt><trkpt lat="45.5698728" lon="11.2223226"><ele>438.0</ele><time>2026-04-25T08:58:00.105Z</time></trkpt><trkpt lat="45.5697641" lon="11.2223626"><ele>438.0</ele><time>2026-04-25T08:58:01.104Z</time></trkpt><trkpt lat="45.5696575" lon="11.2224096"><ele>438.0</ele><time>2026-04-25T08:58:02.104Z</time></trkpt><trkpt lat="45.5695496" lon="11.2224632"><ele>438.0</ele><time>2026-04-25T08:58:03.105Z</time></trkpt><trkpt lat="45.5694371" lon="11.2224955"><ele>438.0</ele><time>2026-04-25T08:58:04.104Z</time></trkpt><trkpt lat="45.5693188" lon="11.2225029"><ele>442.25</ele><time>2026-04-25T08:58:05.104Z</time></trkpt><trkpt lat="45.5691966" lon="11.2224935"><ele>446.5</ele><time>2026-04-25T08:58:06.105Z</time></trkpt><trkpt lat="45.5690743" lon="11.2224689"><ele>450.75</ele><time>2026-04-25T08:58:07.105Z</time></trkpt><trkpt lat="45.568957" lon="11.2224182"><ele>455.0</ele><time>2026-04-25T08:58:08.106Z</time></trkpt><trkpt lat="45.5688468" lon="11.222351"><ele>452.0</ele><time>2026-04-25T08:58:09.104Z</time></trkpt><trkpt lat="45.5687564" lon="11.2222754"><ele>449.0</ele><time>2026-04-25T08:58:10.104Z</time></trkpt><trkpt lat="45.5686871" lon="11.2221941"><ele>446.0</ele><time>2026-04-25T08:58:11.105Z</time></trkpt><trkpt lat="45.5686444" lon="11.222092"><ele>443.0</ele><time>2026-04-25T08:58:12.104Z</time></trkpt><trkpt lat="45.5686264" lon="11.2219679"><ele>440.0</ele><time>2026-04-25T08:58:13.105Z</time></trkpt><trkpt lat="45.5686336" lon="11.2218365"><ele>440.0</ele><time>2026-04-25T08:58:14.105Z</time></trkpt><trkpt lat="45.5686596" lon="11.2217035"><ele>440.0</ele><time>2026-04-25T08:58:15.105Z</time></trkpt><trkpt lat="45.5687033" lon="11.2215739"><ele>440.0</ele><time>2026-04-25T08:58:16.105Z</time></trkpt><trkpt lat="45.5687659" lon="11.2214531"><ele>440.0</ele><time>2026-04-25T08:58:17.104Z</time></trkpt><trkpt lat="45.5688475" lon="11.2213358"><ele>440.0</ele><time>2026-04-25T08:58:18.105Z</time></trkpt><trkpt lat="45.5689327" lon="11.2212208"><ele>446.5</ele><time>2026-04-25T08:58:19.105Z</time></trkpt><trkpt lat="45.5690207" lon="11.2210967"><ele>453.0</ele><time>2026-04-25T08:58:20.106Z</time></trkpt><trkpt lat="45.5691067" lon="11.2209613"><ele>459.5</ele><time>2026-04-25T08:58:21.106Z</time></trkpt><trkpt lat="45.5691927" lon="11.2208124"><ele>466.0</ele><time>2026-04-25T08:58:22.104Z</time></trkpt><trkpt lat="45.5692726" lon="11.22065"><ele>463.0</ele><time>2026-04-25T08:58:23.104Z</time></trkpt><trkpt lat="45.5693407" lon="11.2204731"><ele>460.0</ele><time>2026-04-25T08:58:24.105Z</time></trkpt><trkpt lat="45.5693963" lon="11.2202859"><ele>457.0</ele><time>2026-04-25T08:58:25.104Z</time></trkpt><trkpt lat="45.5694449" lon="11.2200898"><ele>454.0</ele><time>2026-04-25T08:58:26.105Z</time></trkpt><trkpt lat="45.5694855" lon="11.2198892"><ele>455.5</ele><time>2026-04-25T08:58:27.104Z</time></trkpt><trkpt lat="45.5695146" lon="11.2196859"><ele>457.0</ele><time>2026-04-25T08:58:28.104Z</time></trkpt><trkpt lat="45.5695378" lon="11.2194892"><ele>458.5</ele><time>2026-04-25T08:58:29.105Z</time></trkpt><trkpt lat="45.5695733" lon="11.2192991"><ele>460.0</ele><time>2026-04-25T08:58:30.105Z</time></trkpt><trkpt lat="45.5696181" lon="11.2191197"><ele>465.5</ele><time>2026-04-25T08:58:31.104Z</time></trkpt><trkpt lat="45.5696711" lon="11.2189513"><ele>471.0</ele><time>2026-04-25T08:58:32.104Z</time></trkpt><trkpt lat="45.5697206" lon="11.2187802"><ele>476.5</ele><time>2026-04-25T08:58:33.105Z</time></trkpt><trkpt lat="45.5697562" lon="11.2185992"><ele>482.0</ele><time>2026-04-25T08:58:34.105Z</time></trkpt><trkpt lat="45.5697717" lon="11.2184113"><ele>482.0</ele><time>2026-04-25T08:58:35.105Z</time></trkpt><trkpt lat="45.5697628" lon="11.218222"><ele>482.0</ele><time>2026-04-25T08:58:36.105Z</time></trkpt><trkpt lat="45.5697287" lon="11.2180394"><ele>482.0</ele><time>2026-04-25T08:58:37.104Z</time></trkpt><trkpt lat="45.5696658" lon="11.2178606"><ele>482.0</ele><time>2026-04-25T08:58:38.104Z</time></trkpt><trkpt lat="45.5695864" lon="11.2176877"><ele>480.75</ele><time>2026-04-25T08:58:39.104Z</time></trkpt><trkpt lat="45.569502" lon="11.2175181"><ele>479.5</ele><time>2026-04-25T08:58:40.105Z</time></trkpt><trkpt lat="45.5694147" lon="11.2173474"><ele>478.25</ele><time>2026-04-25T08:58:41.104Z</time></trkpt><trkpt lat="45.5693367" lon="11.217173"><ele>477.0</ele><time>2026-04-25T08:58:42.104Z</time></trkpt><trkpt lat="45.5692838" lon="11.217002"><ele>477.0</ele><time>2026-04-25T08:58:43.104Z</time></trkpt><trkpt lat="45.5692105" lon="11.2168462"><ele>477.0</ele><time>2026-04-25T08:58:44.105Z</time></trkpt><trkpt lat="45.5691182" lon="11.2167084"><ele>477.0</ele><time>2026-04-25T08:58:45.105Z</time></trkpt><trkpt lat="45.5690116" lon="11.2165838"><ele>477.0</ele><time>2026-04-25T08:58:46.104Z</time></trkpt><trkpt lat="45.5688957" lon="11.2164748"><ele>477.5</ele><time>2026-04-25T08:58:47.105Z</time></trkpt><trkpt lat="45.5687824" lon="11.2163757"><ele>478.0</ele><time>2026-04-25T08:58:48.105Z</time></trkpt><trkpt lat="45.5686769" lon="11.2162834"><ele>478.5</ele><time>2026-04-25T08:58:49.104Z</time></trkpt><trkpt lat="45.5685698" lon="11.2162117"><ele>479.0</ele><time>2026-04-25T08:58:50.104Z</time></trkpt><trkpt lat="45.5684513" lon="11.2161718"><ele>479.0</ele><time>2026-04-25T08:58:51.104Z</time></trkpt><trkpt lat="45.5683261" lon="11.2161705"><ele>479.0</ele><time>2026-04-25T08:58:52.104Z</time></trkpt><trkpt lat="45.5681984" lon="11.2161994"><ele>479.0</ele><time>2026-04-25T08:58:53.104Z</time></trkpt><trkpt lat="45.5680695" lon="11.2162425"><ele>479.0</ele><time>2026-04-25T08:58:54.104Z</time></trkpt><trkpt lat="45.5679419" lon="11.2162831"><ele>477.4</ele><time>2026-04-25T08:58:55.103Z</time></trkpt><trkpt lat="45.5678178" lon="11.2163234"><ele>475.79999999999995</ele><time>2026-04-25T08:58:56.105Z</time></trkpt><trkpt lat="45.5677059" lon="11.2163529"><ele>474.20000000000005</ele><time>2026-04-25T08:58:57.104Z</time></trkpt><trkpt lat="45.567606" lon="11.2163741"><ele>472.6</ele><time>2026-04-25T08:58:58.104Z</time></trkpt><trkpt lat="45.5675229" lon="11.2163795"><ele>471.0</ele><time>2026-04-25T08:58:59.103Z</time></trkpt><trkpt lat="45.5674507" lon="11.2163541"><ele>471.0</ele><time>2026-04-25T08:59:00.103Z</time></trkpt><trkpt lat="45.5673852" lon="11.2162953"><ele>471.0</ele><time>2026-04-25T08:59:01.104Z</time></trkpt><trkpt lat="45.5673418" lon="11.2162084"><ele>471.0</ele><time>2026-04-25T08:59:02.103Z</time></trkpt><trkpt lat="45.5673177" lon="11.2161055"><ele>471.0</ele><time>2026-04-25T08:59:03.104Z</time></trkpt><trkpt lat="45.5673057" lon="11.2159944"><ele>471.0</ele><time>2026-04-25T08:59:04.104Z</time></trkpt><trkpt lat="45.5673081" lon="11.2158826"><ele>471.0</ele><time>2026-04-25T08:59:05.103Z</time></trkpt><trkpt lat="45.5673298" lon="11.2157723"><ele>471.0</ele><time>2026-04-25T08:59:06.104Z</time></trkpt><trkpt lat="45.567358" lon="11.2156644"><ele>471.0</ele><time>2026-04-25T08:59:07.103Z</time></trkpt><trkpt lat="45.5673933" lon="11.2155451"><ele>471.0</ele><time>2026-04-25T08:59:08.103Z</time></trkpt><trkpt lat="45.5674361" lon="11.215414"><ele>471.0</ele><time>2026-04-25T08:59:09.104Z</time></trkpt><trkpt lat="45.5674843" lon="11.2152783"><ele>471.0</ele><time>2026-04-25T08:59:10.104Z</time></trkpt><trkpt lat="45.5675373" lon="11.2151234"><ele>468.5</ele><time>2026-04-25T08:59:11.103Z</time></trkpt><trkpt lat="45.567593" lon="11.2149593"><ele>466.0</ele><time>2026-04-25T08:59:12.104Z</time></trkpt><trkpt lat="45.5676387" lon="11.2147804"><ele>463.5</ele><time>2026-04-25T08:59:13.104Z</time></trkpt><trkpt lat="45.5676678" lon="11.2145955"><ele>461.0</ele><time>2026-04-25T08:59:14.103Z</time></trkpt><trkpt lat="45.567693" lon="11.2144124"><ele>459.5</ele><time>2026-04-25T08:59:15.103Z</time></trkpt><trkpt lat="45.5677221" lon="11.2142353"><ele>458.0</ele><time>2026-04-25T08:59:16.103Z</time></trkpt><trkpt lat="45.5677545" lon="11.2140685"><ele>456.5</ele><time>2026-04-25T08:59:17.103Z</time></trkpt><trkpt lat="45.5677892" lon="11.213919"><ele>455.0</ele><time>2026-04-25T08:59:18.103Z</time></trkpt><trkpt lat="45.5678236" lon="11.213791"><ele>453.99999999999994</ele><time>2026-04-25T08:59:19.103Z</time></trkpt><trkpt lat="45.5678561" lon="11.2136854"><ele>453.0</ele><time>2026-04-25T08:59:20.104Z</time></trkpt><trkpt lat="45.5678769" lon="11.2135942"><ele>452.0</ele><time>2026-04-25T08:59:21.104Z</time></trkpt><trkpt lat="45.5678768" lon="11.2135028"><ele>451.0</ele><time>2026-04-25T08:59:22.103Z</time></trkpt><trkpt lat="45.5677976" lon="11.2133957"><ele>449.99999999999994</ele><time>2026-04-25T08:59:24.105Z</time></trkpt><trkpt lat="45.5677283" lon="11.2133799"><ele>449.0</ele><time>2026-04-25T08:59:25.104Z</time></trkpt><trkpt lat="45.5676503" lon="11.2133894"><ele>448.99999999999994</ele><time>2026-04-25T08:59:26.104Z</time></trkpt><trkpt lat="45.5675746" lon="11.2134296"><ele>449.0</ele><time>2026-04-25T08:59:27.104Z</time></trkpt><trkpt lat="45.5675066" lon="11.2135006"><ele>449.0</ele><time>2026-04-25T08:59:28.104Z</time></trkpt><trkpt lat="45.5674573" lon="11.2135946"><ele>449.0</ele><time>2026-04-25T08:59:29.104Z</time></trkpt><trkpt lat="45.567421" lon="11.2137104"><ele>448.99999999999994</ele><time>2026-04-25T08:59:30.105Z</time></trkpt><trkpt lat="45.5673986" lon="11.2138459"><ele>449.0</ele><time>2026-04-25T08:59:31.104Z</time></trkpt><trkpt lat="45.5673916" lon="11.2139877"><ele>449.99999999999994</ele><time>2026-04-25T08:59:32.103Z</time></trkpt><trkpt lat="45.5673914" lon="11.2141278"><ele>451.0</ele><time>2026-04-25T08:59:33.103Z</time></trkpt><trkpt lat="45.5673925" lon="11.2142506"><ele>452.0</ele><time>2026-04-25T08:59:34.104Z</time></trkpt><trkpt lat="45.5673957" lon="11.2143562"><ele>453.0</ele><time>2026-04-25T08:59:35.104Z</time></trkpt><trkpt lat="45.5673705" lon="11.2144969"><ele>453.99999999999994</ele><time>2026-04-25T08:59:37.104Z</time></trkpt><trkpt lat="45.5672948" lon="11.2145121"><ele>455.0</ele><time>2026-04-25T08:59:39.104Z</time></trkpt><trkpt lat="45.5672641" lon="11.2143913"><ele>454.99999999999994</ele><time>2026-04-25T08:59:41.104Z</time></trkpt><trkpt lat="45.5672787" lon="11.2143023"><ele>455.0</ele><time>2026-04-25T08:59:42.103Z</time></trkpt><trkpt lat="45.5672928" lon="11.2141963"><ele>455.0</ele><time>2026-04-25T08:59:43.103Z</time></trkpt><trkpt lat="45.5672997" lon="11.2140744"><ele>455.0</ele><time>2026-04-25T08:59:44.103Z</time></trkpt><trkpt lat="45.5673067" lon="11.2139471"><ele>454.99999999999994</ele><time>2026-04-25T08:59:45.104Z</time></trkpt><trkpt lat="45.5673143" lon="11.21383"><ele>455.0</ele><time>2026-04-25T08:59:46.102Z</time></trkpt><trkpt lat="45.5673246" lon="11.2137008"><ele>453.8</ele><time>2026-04-25T08:59:47.104Z</time></trkpt><trkpt lat="45.5673467" lon="11.2135676"><ele>452.6</ele><time>2026-04-25T08:59:48.104Z</time></trkpt><trkpt lat="45.5673846" lon="11.2134313"><ele>451.4</ele><time>2026-04-25T08:59:49.103Z</time></trkpt><trkpt lat="45.5674299" lon="11.2132894"><ele>450.2</ele><time>2026-04-25T08:59:50.104Z</time></trkpt><trkpt lat="45.5674773" lon="11.2131465"><ele>449.0</ele><time>2026-04-25T08:59:51.104Z</time></trkpt><trkpt lat="45.5675293" lon="11.2130045"><ele>447.4</ele><time>2026-04-25T08:59:52.103Z</time></trkpt><trkpt lat="45.5675793" lon="11.2128736"><ele>445.79999999999995</ele><time>2026-04-25T08:59:53.103Z</time></trkpt><trkpt lat="45.5676206" lon="11.2127524"><ele>444.20000000000005</ele><time>2026-04-25T08:59:54.103Z</time></trkpt><trkpt lat="45.567637" lon="11.212628"><ele>442.6</ele><time>2026-04-25T08:59:55.104Z</time></trkpt><trkpt lat="45.5676289" lon="11.2124979"><ele>441.0</ele><time>2026-04-25T08:59:56.104Z</time></trkpt><trkpt lat="45.567596" lon="11.2123673"><ele>440.3333333333333</ele><time>2026-04-25T08:59:57.103Z</time></trkpt><trkpt lat="45.5675601" lon="11.2122443"><ele>439.66666666666663</ele><time>2026-04-25T08:59:58.103Z</time></trkpt><trkpt lat="45.5675313" lon="11.2121284"><ele>439.0</ele><time>2026-04-25T08:59:59.104Z</time></trkpt><trkpt lat="45.5675227" lon="11.212013"><ele>438.3333333333333</ele><time>2026-04-25T09:00:00.103Z</time></trkpt><trkpt lat="45.5675285" lon="11.2118992"><ele>437.66666666666663</ele><time>2026-04-25T09:00:01.104Z</time></trkpt><trkpt lat="45.567551" lon="11.2117833"><ele>437.0</ele><time>2026-04-25T09:00:02.103Z</time></trkpt><trkpt lat="45.5675571" lon="11.2116575"><ele>436.99999999999994</ele><time>2026-04-25T09:00:03.104Z</time></trkpt><trkpt lat="45.567526" lon="11.211535"><ele>437.0</ele><time>2026-04-25T09:00:04.103Z</time></trkpt><trkpt lat="45.5674834" lon="11.2114186"><ele>437.0</ele><time>2026-04-25T09:00:05.103Z</time></trkpt><trkpt lat="45.5674363" lon="11.2113105"><ele>437.0</ele><time>2026-04-25T09:00:06.103Z</time></trkpt><trkpt lat="45.5673955" lon="11.2112166"><ele>436.99999999999994</ele><time>2026-04-25T09:00:07.104Z</time></trkpt><trkpt lat="45.5673691" lon="11.2111273"><ele>437.0</ele><time>2026-04-25T09:00:08.103Z</time></trkpt><trkpt lat="45.5673689" lon="11.2110309"><ele>436.16666666666663</ele><time>2026-04-25T09:00:09.103Z</time></trkpt><trkpt lat="45.5673848" lon="11.2109314"><ele>435.3333333333333</ele><time>2026-04-25T09:00:10.103Z</time></trkpt><trkpt lat="45.56742" lon="11.2108418"><ele>434.5</ele><time>2026-04-25T09:00:11.104Z</time></trkpt><trkpt lat="45.567471" lon="11.2107648"><ele>433.66666666666663</ele><time>2026-04-25T09:00:12.104Z</time></trkpt><trkpt lat="45.5675369" lon="11.2107055"><ele>432.8333333333333</ele><time>2026-04-25T09:00:13.105Z</time></trkpt><trkpt lat="45.5675998" lon="11.2106274"><ele>432.0</ele><time>2026-04-25T09:00:14.103Z</time></trkpt><trkpt lat="45.5676516" lon="11.2105138"><ele>429.5</ele><time>2026-04-25T09:00:15.104Z</time></trkpt><trkpt lat="45.5676933" lon="11.2103748"><ele>427.0</ele><time>2026-04-25T09:00:16.103Z</time></trkpt><trkpt lat="45.5677368" lon="11.2102313"><ele>424.5</ele><time>2026-04-25T09:00:17.103Z</time></trkpt><trkpt lat="45.5677854" lon="11.2100793"><ele>422.0</ele><time>2026-04-25T09:00:18.103Z</time></trkpt><trkpt lat="45.5678299" lon="11.2099162"><ele>422.75</ele><time>2026-04-25T09:00:19.103Z</time></trkpt><trkpt lat="45.5678578" lon="11.2097466"><ele>423.5</ele><time>2026-04-25T09:00:20.104Z</time></trkpt><trkpt lat="45.5678969" lon="11.2095843"><ele>424.25</ele><time>2026-04-25T09:00:21.103Z</time></trkpt><trkpt lat="45.5679503" lon="11.2094333"><ele>425.0</ele><time>2026-04-25T09:00:22.104Z</time></trkpt><trkpt lat="45.5680082" lon="11.2092828"><ele>427.25</ele><time>2026-04-25T09:00:23.104Z</time></trkpt><trkpt lat="45.5680665" lon="11.2091296"><ele>429.5</ele><time>2026-04-25T09:00:24.103Z</time></trkpt><trkpt lat="45.5681149" lon="11.2089718"><ele>431.75</ele><time>2026-04-25T09:00:25.104Z</time></trkpt><trkpt lat="45.5681478" lon="11.2088137"><ele>434.0</ele><time>2026-04-25T09:00:26.103Z</time></trkpt><trkpt lat="45.5681854" lon="11.2086631"><ele>433.99999999999994</ele><time>2026-04-25T09:00:27.105Z</time></trkpt><trkpt lat="45.5682385" lon="11.2085288"><ele>434.0</ele><time>2026-04-25T09:00:28.104Z</time></trkpt><trkpt lat="45.568297" lon="11.2084122"><ele>434.0</ele><time>2026-04-25T09:00:29.105Z</time></trkpt><trkpt lat="45.5683466" lon="11.2083049"><ele>434.0</ele><time>2026-04-25T09:00:30.103Z</time></trkpt><trkpt lat="45.5683862" lon="11.2082082"><ele>433.99999999999994</ele><time>2026-04-25T09:00:31.103Z</time></trkpt><trkpt lat="45.5684047" lon="11.208112"><ele>434.0</ele><time>2026-04-25T09:00:32.104Z</time></trkpt><trkpt lat="45.5683959" lon="11.2080169"><ele>433.3333333333333</ele><time>2026-04-25T09:00:33.103Z</time></trkpt><trkpt lat="45.5683986" lon="11.2078464"><ele>432.66666666666663</ele><time>2026-04-25T09:00:35.103Z</time></trkpt><trkpt lat="45.568442" lon="11.2077683"><ele>432.0</ele><time>2026-04-25T09:00:36.104Z</time></trkpt><trkpt lat="45.5685013" lon="11.2076978"><ele>431.33333333333337</ele><time>2026-04-25T09:00:37.104Z</time></trkpt><trkpt lat="45.5685634" lon="11.2076213"><ele>430.6666666666667</ele><time>2026-04-25T09:00:38.103Z</time></trkpt><trkpt lat="45.5686166" lon="11.2075354"><ele>430.0</ele><time>2026-04-25T09:00:39.103Z</time></trkpt><trkpt lat="45.5686468" lon="11.2074251"><ele>432.1666666666667</ele><time>2026-04-25T09:00:40.104Z</time></trkpt><trkpt lat="45.5686681" lon="11.2073034"><ele>434.33333333333337</ele><time>2026-04-25T09:00:41.104Z</time></trkpt><trkpt lat="45.5686963" lon="11.2071801"><ele>436.5</ele><time>2026-04-25T09:00:42.104Z</time></trkpt><trkpt lat="45.5687304" lon="11.2070781"><ele>438.66666666666663</ele><time>2026-04-25T09:00:43.104Z</time></trkpt><trkpt lat="45.5687654" lon="11.2069955"><ele>440.8333333333333</ele><time>2026-04-25T09:00:44.103Z</time></trkpt><trkpt lat="45.5688193" lon="11.2068704"><ele>443.0</ele><time>2026-04-25T09:00:46.103Z</time></trkpt><trkpt lat="45.5687956" lon="11.2067423"><ele>442.99999999999994</ele><time>2026-04-25T09:00:48.103Z</time></trkpt><trkpt lat="45.568707" lon="11.2067455"><ele>443.0</ele><time>2026-04-25T09:00:50.103Z</time></trkpt><trkpt lat="45.5686225" lon="11.2068751"><ele>443.0</ele><time>2026-04-25T09:00:52.103Z</time></trkpt><trkpt lat="45.5685764" lon="11.2069472"><ele>443.0</ele><time>2026-04-25T09:00:53.104Z</time></trkpt><trkpt lat="45.5685201" lon="11.2070169"><ele>442.99999999999994</ele><time>2026-04-25T09:00:54.104Z</time></trkpt><trkpt lat="45.5684463" lon="11.2070695"><ele>443.0</ele><time>2026-04-25T09:00:55.103Z</time></trkpt><trkpt lat="45.5683657" lon="11.2071085"><ele>443.0</ele><time>2026-04-25T09:00:56.104Z</time></trkpt><trkpt lat="45.5682775" lon="11.2071326"><ele>442.99999999999994</ele><time>2026-04-25T09:00:57.103Z</time></trkpt><trkpt lat="45.5681843" lon="11.2071359"><ele>442.99999999999994</ele><time>2026-04-25T09:00:58.103Z</time></trkpt><trkpt lat="45.5680894" lon="11.2071189"><ele>443.0</ele><time>2026-04-25T09:00:59.103Z</time></trkpt><trkpt lat="45.5679953" lon="11.2070877"><ele>443.0</ele><time>2026-04-25T09:01:00.104Z</time></trkpt><trkpt lat="45.5679023" lon="11.2070551"><ele>444.66666666666663</ele><time>2026-04-25T09:01:01.103Z</time></trkpt><trkpt lat="45.5678181" lon="11.2070225"><ele>446.3333333333333</ele><time>2026-04-25T09:01:02.104Z</time></trkpt><trkpt lat="45.5677409" lon="11.2070112"><ele>448.0</ele><time>2026-04-25T09:01:03.103Z</time></trkpt><trkpt lat="45.5676709" lon="11.2070281"><ele>449.66666666666663</ele><time>2026-04-25T09:01:04.103Z</time></trkpt><trkpt lat="45.5676152" lon="11.207086"><ele>451.3333333333333</ele><time>2026-04-25T09:01:05.104Z</time></trkpt><trkpt lat="45.5675776" lon="11.2071762"><ele>453.0</ele><time>2026-04-25T09:01:06.103Z</time></trkpt><trkpt lat="45.5675442" lon="11.2072837"><ele>451.1666666666667</ele><time>2026-04-25T09:01:07.103Z</time></trkpt><trkpt lat="45.5675018" lon="11.2074025"><ele>449.33333333333337</ele><time>2026-04-25T09:01:08.103Z</time></trkpt><trkpt lat="45.567441" lon="11.2075097"><ele>447.5</ele><time>2026-04-25T09:01:09.103Z</time></trkpt><trkpt lat="45.5673738" lon="11.2076032"><ele>445.6666666666667</ele><time>2026-04-25T09:01:10.103Z</time></trkpt><trkpt lat="45.5673076" lon="11.2076696"><ele>443.83333333333337</ele><time>2026-04-25T09:01:11.104Z</time></trkpt><trkpt lat="45.5672356" lon="11.2077124"><ele>442.0</ele><time>2026-04-25T09:01:12.103Z</time></trkpt><trkpt lat="45.5671584" lon="11.2077334"><ele>442.00000000000006</ele><time>2026-04-25T09:01:13.103Z</time></trkpt><trkpt lat="45.5670779" lon="11.2077301"><ele>442.0</ele><time>2026-04-25T09:01:14.105Z</time></trkpt><trkpt lat="45.5669933" lon="11.2076953"><ele>442.0</ele><time>2026-04-25T09:01:15.103Z</time></trkpt><trkpt lat="45.5669069" lon="11.2076505"><ele>442.0</ele><time>2026-04-25T09:01:16.104Z</time></trkpt><trkpt lat="45.5668224" lon="11.2076129"><ele>442.00000000000006</ele><time>2026-04-25T09:01:17.103Z</time></trkpt><trkpt lat="45.5667374" lon="11.2076135"><ele>442.0</ele><time>2026-04-25T09:01:18.103Z</time></trkpt><trkpt lat="45.5666613" lon="11.2076577"><ele>444.6666666666667</ele><time>2026-04-25T09:01:19.103Z</time></trkpt><trkpt lat="45.566599" lon="11.2077158"><ele>447.33333333333337</ele><time>2026-04-25T09:01:20.103Z</time></trkpt><trkpt lat="45.5665378" lon="11.2077582"><ele>450.0</ele><time>2026-04-25T09:01:21.104Z</time></trkpt><trkpt lat="45.5664731" lon="11.2077621"><ele>452.66666666666663</ele><time>2026-04-25T09:01:22.104Z</time></trkpt><trkpt lat="45.5664124" lon="11.207663"><ele>455.3333333333333</ele><time>2026-04-25T09:01:24.103Z</time></trkpt><trkpt lat="45.5664303" lon="11.2074791"><ele>458.0</ele><time>2026-04-25T09:01:26.104Z</time></trkpt><trkpt lat="45.5664517" lon="11.2073723"><ele>458.85714285714283</ele><time>2026-04-25T09:01:27.104Z</time></trkpt><trkpt lat="45.5664934" lon="11.2072809"><ele>459.7142857142858</ele><time>2026-04-25T09:01:28.103Z</time></trkpt><trkpt lat="45.5665471" lon="11.2072283"><ele>460.5714285714286</ele><time>2026-04-25T09:01:29.103Z</time></trkpt><trkpt lat="45.5666097" lon="11.207198"><ele>461.42857142857144</ele><time>2026-04-25T09:01:30.104Z</time></trkpt><trkpt lat="45.5666768" lon="11.2071879"><ele>462.28571428571433</ele><time>2026-04-25T09:01:31.104Z</time></trkpt><trkpt lat="45.5667433" lon="11.2072011"><ele>463.1428571428572</ele><time>2026-04-25T09:01:32.103Z</time></trkpt><trkpt lat="45.5668173" lon="11.2072128"><ele>464.00000000000006</ele><time>2026-04-25T09:01:33.103Z</time></trkpt><trkpt lat="45.5668887" lon="11.2072031"><ele>463.99999999999994</ele><time>2026-04-25T09:01:34.103Z</time></trkpt><trkpt lat="45.5669459" lon="11.2071534"><ele>464.0</ele><time>2026-04-25T09:01:35.103Z</time></trkpt><trkpt lat="45.5669747" lon="11.2070022"><ele>464.0</ele><time>2026-04-25T09:01:37.103Z</time></trkpt><trkpt lat="45.5669412" lon="11.2069196"><ele>464.0</ele><time>2026-04-25T09:01:38.104Z</time></trkpt><trkpt lat="45.566883" lon="11.2068465"><ele>463.99999999999994</ele><time>2026-04-25T09:01:39.104Z</time></trkpt><trkpt lat="45.5668043" lon="11.2067712"><ele>464.0</ele><time>2026-04-25T09:01:40.103Z</time></trkpt><trkpt lat="45.5667124" lon="11.2066924"><ele>464.0</ele><time>2026-04-25T09:01:41.104Z</time></trkpt><trkpt lat="45.5666142" lon="11.206608"><ele>464.0</ele><time>2026-04-25T09:01:42.103Z</time></trkpt><trkpt lat="45.5665198" lon="11.20652"><ele>464.0</ele><time>2026-04-25T09:01:43.103Z</time></trkpt><trkpt lat="45.5664297" lon="11.2064474"><ele>464.0</ele><time>2026-04-25T09:01:44.103Z</time></trkpt><trkpt lat="45.5663354" lon="11.2064155"><ele>464.0</ele><time>2026-04-25T09:01:45.103Z</time></trkpt><trkpt lat="45.5662366" lon="11.2064315"><ele>467.4</ele><time>2026-04-25T09:01:46.103Z</time></trkpt><trkpt lat="45.5661427" lon="11.206465"><ele>470.79999999999995</ele><time>2026-04-25T09:01:47.104Z</time></trkpt><trkpt lat="45.5660568" lon="11.2065224"><ele>474.20000000000005</ele><time>2026-04-25T09:01:48.104Z</time></trkpt><trkpt lat="45.5659943" lon="11.2066246"><ele>477.6</ele><time>2026-04-25T09:01:49.103Z</time></trkpt><trkpt lat="45.5659619" lon="11.2067499"><ele>481.0</ele><time>2026-04-25T09:01:50.105Z</time></trkpt><trkpt lat="45.5659596" lon="11.2068614"><ele>481.0</ele><time>2026-04-25T09:01:51.104Z</time></trkpt><trkpt lat="45.5659225" lon="11.2070159"><ele>481.0</ele><time>2026-04-25T09:01:53.103Z</time></trkpt><trkpt lat="45.5658355" lon="11.2070441"><ele>481.0</ele><time>2026-04-25T09:01:55.104Z</time></trkpt><trkpt lat="45.5657703" lon="11.2069349"><ele>481.0</ele><time>2026-04-25T09:01:57.103Z</time></trkpt><trkpt lat="45.5657396" lon="11.2068437"><ele>481.0</ele><time>2026-04-25T09:01:58.103Z</time></trkpt><trkpt lat="45.5656956" lon="11.2067539"><ele>481.00000000000006</ele><time>2026-04-25T09:01:59.104Z</time></trkpt><trkpt lat="45.5656375" lon="11.2066819"><ele>481.0</ele><time>2026-04-25T09:02:00.103Z</time></trkpt><trkpt lat="45.5655682" lon="11.2066276"><ele>481.0</ele><time>2026-04-25T09:02:01.103Z</time></trkpt><trkpt lat="45.565506" lon="11.2065714"><ele>481.0</ele><time>2026-04-25T09:02:02.103Z</time></trkpt><trkpt lat="45.5654612" lon="11.2064991"><ele>481.00000000000006</ele><time>2026-04-25T09:02:03.104Z</time></trkpt><trkpt lat="45.5654563" lon="11.2063267"><ele>481.0</ele><time>2026-04-25T09:02:05.103Z</time></trkpt><trkpt lat="45.5655024" lon="11.2062551"><ele>481.83333333333337</ele><time>2026-04-25T09:02:06.104Z</time></trkpt><trkpt lat="45.5655664" lon="11.2061961"><ele>482.6666666666667</ele><time>2026-04-25T09:02:07.104Z</time></trkpt><trkpt lat="45.5656367" lon="11.2061352"><ele>483.5</ele><time>2026-04-25T09:02:08.105Z</time></trkpt><trkpt lat="45.5657023" lon="11.2060771"><ele>484.33333333333337</ele><time>2026-04-25T09:02:09.103Z</time></trkpt><trkpt lat="45.5657696" lon="11.206012"><ele>485.1666666666667</ele><time>2026-04-25T09:02:10.105Z</time></trkpt><trkpt lat="45.5658342" lon="11.205956"><ele>486.0</ele><time>2026-04-25T09:02:11.104Z</time></trkpt><trkpt lat="45.5658913" lon="11.2059026"><ele>486.0</ele><time>2026-04-25T09:02:12.103Z</time></trkpt><trkpt lat="45.5659512" lon="11.2057843"><ele>486.0</ele><time>2026-04-25T09:02:14.104Z</time></trkpt><trkpt lat="45.5659064" lon="11.2056724"><ele>486.0</ele><time>2026-04-25T09:02:16.103Z</time></trkpt><trkpt lat="45.565787" lon="11.2056741"><ele>486.0</ele><time>2026-04-25T09:02:18.103Z</time></trkpt><trkpt lat="45.5657119" lon="11.2056924"><ele>486.0</ele><time>2026-04-25T09:02:19.103Z</time></trkpt><trkpt lat="45.5656286" lon="11.205707"><ele>486.0</ele><time>2026-04-25T09:02:20.104Z</time></trkpt><trkpt lat="45.5655395" lon="11.2057249"><ele>486.0</ele><time>2026-04-25T09:02:21.103Z</time></trkpt><trkpt lat="45.5654458" lon="11.2057466"><ele>486.0</ele><time>2026-04-25T09:02:22.104Z</time></trkpt><trkpt lat="45.565351" lon="11.2057703"><ele>486.0</ele><time>2026-04-25T09:02:23.104Z</time></trkpt><trkpt lat="45.5652467" lon="11.205797"><ele>486.0</ele><time>2026-04-25T09:02:24.104Z</time></trkpt><trkpt lat="45.565141" lon="11.2058168"><ele>488.1666666666667</ele><time>2026-04-25T09:02:25.105Z</time></trkpt><trkpt lat="45.5650366" lon="11.2058355"><ele>490.33333333333337</ele><time>2026-04-25T09:02:26.104Z</time></trkpt><trkpt lat="45.5649441" lon="11.2058555"><ele>492.5</ele><time>2026-04-25T09:02:27.103Z</time></trkpt><trkpt lat="45.5648571" lon="11.2058564"><ele>494.6666666666667</ele><time>2026-04-25T09:02:28.103Z</time></trkpt><trkpt lat="45.5647806" lon="11.2058335"><ele>496.83333333333337</ele><time>2026-04-25T09:02:29.104Z</time></trkpt><trkpt lat="45.5647108" lon="11.2057886"><ele>499.0</ele><time>2026-04-25T09:02:30.103Z</time></trkpt><trkpt lat="45.5646389" lon="11.2057207"><ele>500.79999999999995</ele><time>2026-04-25T09:02:31.103Z</time></trkpt><trkpt lat="45.5645674" lon="11.2056329"><ele>502.59999999999997</ele><time>2026-04-25T09:02:32.104Z</time></trkpt><trkpt lat="45.5644924" lon="11.2055325"><ele>504.4</ele><time>2026-04-25T09:02:33.103Z</time></trkpt><trkpt lat="45.5644147" lon="11.2054246"><ele>506.2</ele><time>2026-04-25T09:02:34.105Z</time></trkpt><trkpt lat="45.564336" lon="11.2053114"><ele>508.0</ele><time>2026-04-25T09:02:35.104Z</time></trkpt><trkpt lat="45.5642577" lon="11.2052013"><ele>508.0</ele><time>2026-04-25T09:02:36.105Z</time></trkpt><trkpt lat="45.5641805" lon="11.2050934"><ele>507.99999999999994</ele><time>2026-04-25T09:02:37.103Z</time></trkpt><trkpt lat="45.5641079" lon="11.2049817"><ele>507.99999999999994</ele><time>2026-04-25T09:02:38.103Z</time></trkpt><trkpt lat="45.5640372" lon="11.2048677"><ele>508.0</ele><time>2026-04-25T09:02:39.104Z</time></trkpt><trkpt lat="45.5639654" lon="11.2047602"><ele>508.0</ele><time>2026-04-25T09:02:40.104Z</time></trkpt><trkpt lat="45.5638849" lon="11.204662"><ele>511.0</ele><time>2026-04-25T09:02:41.104Z</time></trkpt><trkpt lat="45.5638049" lon="11.2045655"><ele>514.0</ele><time>2026-04-25T09:02:42.103Z</time></trkpt><trkpt lat="45.5637138" lon="11.2044852"><ele>517.0</ele><time>2026-04-25T09:02:43.103Z</time></trkpt><trkpt lat="45.5636141" lon="11.2044327"><ele>520.0</ele><time>2026-04-25T09:02:44.103Z</time></trkpt><trkpt lat="45.5635165" lon="11.2044088"><ele>523.0</ele><time>2026-04-25T09:02:45.104Z</time></trkpt><trkpt lat="45.5634255" lon="11.2043993"><ele>523.0</ele><time>2026-04-25T09:02:46.104Z</time></trkpt><trkpt lat="45.5633384" lon="11.2044214"><ele>523.0</ele><time>2026-04-25T09:02:47.103Z</time></trkpt><trkpt lat="45.5632617" lon="11.2044894"><ele>523.0</ele><time>2026-04-25T09:02:48.104Z</time></trkpt><trkpt lat="45.5631983" lon="11.2045883"><ele>523.0</ele><time>2026-04-25T09:02:49.105Z</time></trkpt><trkpt lat="45.563144" lon="11.2047"><ele>523.0</ele><time>2026-04-25T09:02:50.104Z</time></trkpt><trkpt lat="45.5631111" lon="11.2048335"><ele>520.6</ele><time>2026-04-25T09:02:51.105Z</time></trkpt><trkpt lat="45.5630982" lon="11.2049745"><ele>518.1999999999999</ele><time>2026-04-25T09:02:52.103Z</time></trkpt><trkpt lat="45.5631051" lon="11.2051098"><ele>515.8</ele><time>2026-04-25T09:02:53.104Z</time></trkpt><trkpt lat="45.5631267" lon="11.2052293"><ele>513.4</ele><time>2026-04-25T09:02:54.104Z</time></trkpt><trkpt lat="45.5631533" lon="11.2053456"><ele>511.0</ele><time>2026-04-25T09:02:55.104Z</time></trkpt><trkpt lat="45.5631641" lon="11.2054708"><ele>511.00000000000006</ele><time>2026-04-25T09:02:56.104Z</time></trkpt><trkpt lat="45.5631615" lon="11.2055964"><ele>511.0</ele><time>2026-04-25T09:02:57.103Z</time></trkpt><trkpt lat="45.5631425" lon="11.2057212"><ele>511.0</ele><time>2026-04-25T09:02:58.103Z</time></trkpt><trkpt lat="45.5631159" lon="11.2058454"><ele>511.0</ele><time>2026-04-25T09:02:59.103Z</time></trkpt><trkpt lat="45.5630884" lon="11.2059663"><ele>511.00000000000006</ele><time>2026-04-25T09:03:00.103Z</time></trkpt><trkpt lat="45.5630616" lon="11.2060871"><ele>511.0</ele><time>2026-04-25T09:03:01.103Z</time></trkpt><trkpt lat="45.563037" lon="11.2062031"><ele>510.00000000000006</ele><time>2026-04-25T09:03:02.105Z</time></trkpt><trkpt lat="45.5630015" lon="11.2063089"><ele>509.0</ele><time>2026-04-25T09:03:03.103Z</time></trkpt><trkpt lat="45.5629536" lon="11.2063979"><ele>508.0</ele><time>2026-04-25T09:03:04.104Z</time></trkpt><trkpt lat="45.5628939" lon="11.206478"><ele>507.0</ele><time>2026-04-25T09:03:05.103Z</time></trkpt><trkpt lat="45.5628197" lon="11.2065512"><ele>506.00000000000006</ele><time>2026-04-25T09:03:06.103Z</time></trkpt><trkpt lat="45.5627371" lon="11.2066083"><ele>505.0</ele><time>2026-04-25T09:03:07.104Z</time></trkpt><trkpt lat="45.5626561" lon="11.2066609"><ele>508.1666666666667</ele><time>2026-04-25T09:03:08.103Z</time></trkpt><trkpt lat="45.5625868" lon="11.2067345"><ele>511.33333333333337</ele><time>2026-04-25T09:03:09.103Z</time></trkpt><trkpt lat="45.5625433" lon="11.206842"><ele>514.5</ele><time>2026-04-25T09:03:10.104Z</time></trkpt><trkpt lat="45.5625245" lon="11.2069617"><ele>517.6666666666666</ele><time>2026-04-25T09:03:11.103Z</time></trkpt><trkpt lat="45.56252" lon="11.207082"><ele>520.8333333333333</ele><time>2026-04-25T09:03:12.103Z</time></trkpt><trkpt lat="45.5625249" lon="11.2071917"><ele>524.0</ele><time>2026-04-25T09:03:13.103Z</time></trkpt><trkpt lat="45.5625358" lon="11.2072893"><ele>524.0</ele><time>2026-04-25T09:03:14.103Z</time></trkpt><trkpt lat="45.5625421" lon="11.2074398"><ele>524.0</ele><time>2026-04-25T09:03:16.103Z</time></trkpt><trkpt lat="45.562493" lon="11.2075169"><ele>524.0</ele><time>2026-04-25T09:03:18.103Z</time></trkpt><trkpt lat="45.5624217" lon="11.2074421"><ele>524.0</ele><time>2026-04-25T09:03:21.105Z</time></trkpt><trkpt lat="45.5623894" lon="11.2073537"><ele>524.0</ele><time>2026-04-25T09:03:23.103Z</time></trkpt><trkpt lat="45.5623531" lon="11.2072195"><ele>524.0</ele><time>2026-04-25T09:03:26.104Z</time></trkpt><trkpt lat="45.5623045" lon="11.2071109"><ele>524.0</ele><time>2026-04-25T09:03:28.103Z</time></trkpt><trkpt lat="45.5622526" lon="11.2070062"><ele>524.0</ele><time>2026-04-25T09:03:30.103Z</time></trkpt><trkpt lat="45.5621883" lon="11.2068991"><ele>524.0</ele><time>2026-04-25T09:03:32.103Z</time></trkpt><trkpt lat="45.5621233" lon="11.206767"><ele>524.0</ele><time>2026-04-25T09:03:34.104Z</time></trkpt><trkpt lat="45.5620682" lon="11.2066239"><ele>524.0</ele><time>2026-04-25T09:03:36.105Z</time></trkpt><trkpt lat="45.5620401" lon="11.206543"><ele>526.0</ele><time>2026-04-25T09:03:37.104Z</time></trkpt><trkpt lat="45.5620122" lon="11.2064498"><ele>528.0</ele><time>2026-04-25T09:03:38.104Z</time></trkpt><trkpt lat="45.5619853" lon="11.2063558"><ele>530.0</ele><time>2026-04-25T09:03:39.104Z</time></trkpt><trkpt lat="45.5619675" lon="11.2062554"><ele>532.0</ele><time>2026-04-25T09:03:40.103Z</time></trkpt><trkpt lat="45.5619681" lon="11.2061449"><ele>534.0</ele><time>2026-04-25T09:03:41.103Z</time></trkpt><trkpt lat="45.5619775" lon="11.2060342"><ele>536.0</ele><time>2026-04-25T09:03:42.103Z</time></trkpt><trkpt lat="45.5619929" lon="11.2059191"><ele>536.0</ele><time>2026-04-25T09:03:43.103Z</time></trkpt><trkpt lat="45.5620106" lon="11.2058017"><ele>536.0</ele><time>2026-04-25T09:03:44.104Z</time></trkpt><trkpt lat="45.5620169" lon="11.205672"><ele>536.0</ele><time>2026-04-25T09:03:45.104Z</time></trkpt><trkpt lat="45.5620068" lon="11.2055357"><ele>536.0</ele><time>2026-04-25T09:03:46.103Z</time></trkpt><trkpt lat="45.5619768" lon="11.2053988"><ele>536.0</ele><time>2026-04-25T09:03:47.103Z</time></trkpt><trkpt lat="45.5619364" lon="11.2052647"><ele>538.2</ele><time>2026-04-25T09:03:48.104Z</time></trkpt><trkpt lat="45.5618925" lon="11.2051297"><ele>540.4000000000001</ele><time>2026-04-25T09:03:49.103Z</time></trkpt><trkpt lat="45.5618496" lon="11.2049922"><ele>542.6</ele><time>2026-04-25T09:03:50.104Z</time></trkpt><trkpt lat="45.5618013" lon="11.2048482"><ele>544.8000000000001</ele><time>2026-04-25T09:03:51.105Z</time></trkpt><trkpt lat="45.5617577" lon="11.2047038"><ele>547.0</ele><time>2026-04-25T09:03:52.104Z</time></trkpt><trkpt lat="45.5617196" lon="11.2045576"><ele>548.6</ele><time>2026-04-25T09:03:53.103Z</time></trkpt><trkpt lat="45.5616856" lon="11.2044066"><ele>550.2</ele><time>2026-04-25T09:03:54.103Z</time></trkpt><trkpt lat="45.5616472" lon="11.2042581"><ele>551.8</ele><time>2026-04-25T09:03:55.103Z</time></trkpt><trkpt lat="45.561591" lon="11.2041274"><ele>553.4</ele><time>2026-04-25T09:03:56.104Z</time></trkpt><trkpt lat="45.5615303" lon="11.2040127"><ele>555.0</ele><time>2026-04-25T09:03:57.104Z</time></trkpt><trkpt lat="45.5614705" lon="11.2039187"><ele>556.3333333333334</ele><time>2026-04-25T09:03:58.103Z</time></trkpt><trkpt lat="45.5614077" lon="11.2038389"><ele>557.6666666666666</ele><time>2026-04-25T09:03:59.104Z</time></trkpt><trkpt lat="45.5613331" lon="11.2037786"><ele>559.0</ele><time>2026-04-25T09:04:00.104Z</time></trkpt><trkpt lat="45.5612492" lon="11.2037511"><ele>560.3333333333333</ele><time>2026-04-25T09:04:01.104Z</time></trkpt><trkpt lat="45.561164" lon="11.2037514"><ele>561.6666666666666</ele><time>2026-04-25T09:04:02.104Z</time></trkpt><trkpt lat="45.561085" lon="11.2037791"><ele>563.0</ele><time>2026-04-25T09:04:03.104Z</time></trkpt><trkpt lat="45.5610203" lon="11.2038206"><ele>563.6</ele><time>2026-04-25T09:04:04.104Z</time></trkpt><trkpt lat="45.5609257" lon="11.20389"><ele>564.1999999999999</ele><time>2026-04-25T09:04:06.103Z</time></trkpt><trkpt lat="45.5608544" lon="11.2038407"><ele>564.8</ele><time>2026-04-25T09:04:08.103Z</time></trkpt><trkpt lat="45.5608811" lon="11.2037363"><ele>565.4</ele><time>2026-04-25T09:04:10.104Z</time></trkpt><trkpt lat="45.5609757" lon="11.2036791"><ele>566.0</ele><time>2026-04-25T09:04:12.103Z</time></trkpt><trkpt lat="45.5610774" lon="11.2035643"><ele>566.0</ele><time>2026-04-25T09:04:14.103Z</time></trkpt><trkpt lat="45.5611267" lon="11.2034844"><ele>566.0</ele><time>2026-04-25T09:04:15.104Z</time></trkpt><trkpt lat="45.5611799" lon="11.2033991"><ele>566.0</ele><time>2026-04-25T09:04:16.103Z</time></trkpt><trkpt lat="45.5612271" lon="11.2033032"><ele>566.0</ele><time>2026-04-25T09:04:17.104Z</time></trkpt><trkpt lat="45.561275" lon="11.2032077"><ele>566.0</ele><time>2026-04-25T09:04:18.103Z</time></trkpt><trkpt lat="45.5613284" lon="11.2031224"><ele>566.0</ele><time>2026-04-25T09:04:19.104Z</time></trkpt><trkpt lat="45.5613848" lon="11.2030449"><ele>566.8</ele><time>2026-04-25T09:04:20.103Z</time></trkpt><trkpt lat="45.5614412" lon="11.2029672"><ele>567.6</ele><time>2026-04-25T09:04:21.104Z</time></trkpt><trkpt lat="45.5614928" lon="11.2028858"><ele>568.4</ele><time>2026-04-25T09:04:22.103Z</time></trkpt><trkpt lat="45.5615255" lon="11.2027941"><ele>569.2</ele><time>2026-04-25T09:04:23.104Z</time></trkpt><trkpt lat="45.5615078" lon="11.202634"><ele>570.0</ele><time>2026-04-25T09:04:25.104Z</time></trkpt><trkpt lat="45.5614045" lon="11.2025809"><ele>570.0</ele><time>2026-04-25T09:04:27.103Z</time></trkpt><trkpt lat="45.5612907" lon="11.2026315"><ele>570.0</ele><time>2026-04-25T09:04:29.103Z</time></trkpt><trkpt lat="45.5612251" lon="11.2027289"><ele>570.0</ele><time>2026-04-25T09:04:31.104Z</time></trkpt><trkpt lat="45.5611756" lon="11.2028204"><ele>570.0</ele><time>2026-04-25T09:04:34.105Z</time></trkpt><trkpt lat="45.5611659" lon="11.2029184"><ele>570.0</ele><time>2026-04-25T09:04:56.103Z</time></trkpt><trkpt lat="45.5611978" lon="11.2028142"><ele>570.0</ele><time>2026-04-25T09:05:21.104Z</time></trkpt><trkpt lat="45.5612472" lon="11.2027517"><ele>570.0</ele><time>2026-04-25T09:05:24.103Z</time></trkpt><trkpt lat="45.5612646" lon="11.2026492"><ele>570.0</ele><time>2026-04-25T09:05:36.103Z</time></trkpt><trkpt lat="45.5612583" lon="11.2025298"><ele>570.0</ele><time>2026-04-25T09:05:39.104Z</time></trkpt><trkpt lat="45.5611839" lon="11.202449"><ele>570.0</ele><time>2026-04-25T09:05:41.103Z</time></trkpt><trkpt lat="45.561081" lon="11.2023909"><ele>570.0</ele><time>2026-04-25T09:05:43.103Z</time></trkpt><trkpt lat="45.5609727" lon="11.202343"><ele>574.8</ele><time>2026-04-25T09:05:45.103Z</time></trkpt><trkpt lat="45.5608937" lon="11.2023059"><ele>579.6</ele><time>2026-04-25T09:05:47.104Z</time></trkpt><trkpt lat="45.5608189" lon="11.2022655"><ele>584.4</ele><time>2026-04-25T09:05:50.104Z</time></trkpt><trkpt lat="45.5607535" lon="11.2021422"><ele>589.2</ele><time>2026-04-25T09:05:53.104Z</time></trkpt><trkpt lat="45.5606791" lon="11.202"><ele>594.0</ele><time>2026-04-25T09:05:55.104Z</time></trkpt><trkpt lat="45.560628" lon="11.2019329"><ele>594.0</ele><time>2026-04-25T09:05:56.103Z</time></trkpt><trkpt lat="45.560565" lon="11.2018681"><ele>594.0</ele><time>2026-04-25T09:05:57.103Z</time></trkpt><trkpt lat="45.560491" lon="11.2017972"><ele>594.0</ele><time>2026-04-25T09:05:58.103Z</time></trkpt><trkpt lat="45.5604145" lon="11.2017265"><ele>594.0</ele><time>2026-04-25T09:05:59.103Z</time></trkpt><trkpt lat="45.5603374" lon="11.2016496"><ele>594.0</ele><time>2026-04-25T09:06:00.103Z</time></trkpt><trkpt lat="45.5602601" lon="11.2015717"><ele>594.0</ele><time>2026-04-25T09:06:01.103Z</time></trkpt><trkpt lat="45.5601777" lon="11.2014907"><ele>595.6666666666666</ele><time>2026-04-25T09:06:02.104Z</time></trkpt><trkpt lat="45.5600979" lon="11.2014135"><ele>597.3333333333334</ele><time>2026-04-25T09:06:03.103Z</time></trkpt><trkpt lat="45.5600231" lon="11.2013465"><ele>599.0</ele><time>2026-04-25T09:06:04.104Z</time></trkpt><trkpt lat="45.5599561" lon="11.2012837"><ele>600.6666666666667</ele><time>2026-04-25T09:06:05.105Z</time></trkpt><trkpt lat="45.5599048" lon="11.2012295"><ele>602.3333333333334</ele><time>2026-04-25T09:06:06.104Z</time></trkpt><trkpt lat="45.5598654" lon="11.2011566"><ele>604.0</ele><time>2026-04-25T09:06:07.103Z</time></trkpt><trkpt lat="45.5598332" lon="11.2010592"><ele>604.0</ele><time>2026-04-25T09:06:08.104Z</time></trkpt><trkpt lat="45.5597933" lon="11.2009538"><ele>604.0</ele><time>2026-04-25T09:06:09.103Z</time></trkpt><trkpt lat="45.5597263" lon="11.2008715"><ele>604.0</ele><time>2026-04-25T09:06:10.103Z</time></trkpt><trkpt lat="45.5596586" lon="11.2007966"><ele>604.0</ele><time>2026-04-25T09:06:11.104Z</time></trkpt><trkpt lat="45.559596" lon="11.2007087"><ele>604.0</ele><time>2026-04-25T09:06:12.104Z</time></trkpt><trkpt lat="45.5595536" lon="11.2006193"><ele>604.0</ele><time>2026-04-25T09:06:13.104Z</time></trkpt><trkpt lat="45.5595339" lon="11.2005279"><ele>605.8333333333334</ele><time>2026-04-25T09:06:14.104Z</time></trkpt><trkpt lat="45.5595389" lon="11.2004356"><ele>607.6666666666667</ele><time>2026-04-25T09:06:15.104Z</time></trkpt><trkpt lat="45.5595612" lon="11.200342"><ele>609.5</ele><time>2026-04-25T09:06:16.104Z</time></trkpt><trkpt lat="45.5595928" lon="11.2002388"><ele>611.3333333333334</ele><time>2026-04-25T09:06:17.103Z</time></trkpt><trkpt lat="45.5596159" lon="11.2001219"><ele>613.1666666666666</ele><time>2026-04-25T09:06:18.103Z</time></trkpt><trkpt lat="45.5596347" lon="11.1999939"><ele>615.0</ele><time>2026-04-25T09:06:19.103Z</time></trkpt><trkpt lat="45.5596484" lon="11.1998578"><ele>616.4</ele><time>2026-04-25T09:06:20.103Z</time></trkpt><trkpt lat="45.5596522" lon="11.1997103"><ele>617.8</ele><time>2026-04-25T09:06:21.103Z</time></trkpt><trkpt lat="45.559641" lon="11.1995583"><ele>619.2</ele><time>2026-04-25T09:06:22.104Z</time></trkpt><trkpt lat="45.5596342" lon="11.1994067"><ele>620.6</ele><time>2026-04-25T09:06:23.103Z</time></trkpt><trkpt lat="45.5596348" lon="11.1992547"><ele>622.0</ele><time>2026-04-25T09:06:24.103Z</time></trkpt><trkpt lat="45.5596312" lon="11.1991097"><ele>622.8000000000001</ele><time>2026-04-25T09:06:25.103Z</time></trkpt><trkpt lat="45.5596418" lon="11.1989594"><ele>623.6</ele><time>2026-04-25T09:06:26.103Z</time></trkpt><trkpt lat="45.5596502" lon="11.1988167"><ele>624.4000000000001</ele><time>2026-04-25T09:06:27.103Z</time></trkpt><trkpt lat="45.5596697" lon="11.1986778"><ele>625.2</ele><time>2026-04-25T09:06:28.103Z</time></trkpt><trkpt lat="45.5597002" lon="11.1985439"><ele>626.0</ele><time>2026-04-25T09:06:29.103Z</time></trkpt><trkpt lat="45.5597371" lon="11.1984391"><ele>626.0</ele><time>2026-04-25T09:06:30.103Z</time></trkpt><trkpt lat="45.5597554" lon="11.1983264"><ele>626.0</ele><time>2026-04-25T09:06:31.104Z</time></trkpt><trkpt lat="45.5597427" lon="11.1982054"><ele>626.0</ele><time>2026-04-25T09:06:32.104Z</time></trkpt><trkpt lat="45.5596981" lon="11.198104"><ele>626.0</ele><time>2026-04-25T09:06:33.103Z</time></trkpt><trkpt lat="45.5596406" lon="11.1980127"><ele>626.0</ele><time>2026-04-25T09:06:34.103Z</time></trkpt><trkpt lat="45.5595884" lon="11.1979149"><ele>626.0</ele><time>2026-04-25T09:06:35.105Z</time></trkpt><trkpt lat="45.5595624" lon="11.1978047"><ele>624.8</ele><time>2026-04-25T09:06:36.104Z</time></trkpt><trkpt lat="45.5595602" lon="11.1976833"><ele>623.6</ele><time>2026-04-25T09:06:37.103Z</time></trkpt><trkpt lat="45.5595644" lon="11.1975569"><ele>622.4</ele><time>2026-04-25T09:06:38.103Z</time></trkpt><trkpt lat="45.5595584" lon="11.1974188"><ele>621.2</ele><time>2026-04-25T09:06:39.104Z</time></trkpt><trkpt lat="45.5595534" lon="11.1972833"><ele>620.0</ele><time>2026-04-25T09:06:40.103Z</time></trkpt><trkpt lat="45.5595568" lon="11.1971379"><ele>620.0</ele><time>2026-04-25T09:06:41.103Z</time></trkpt><trkpt lat="45.5595629" lon="11.1970073"><ele>620.0</ele><time>2026-04-25T09:06:42.104Z</time></trkpt><trkpt lat="45.5595753" lon="11.1969041"><ele>620.0</ele><time>2026-04-25T09:06:43.103Z</time></trkpt><trkpt lat="45.5596067" lon="11.1968248"><ele>620.0</ele><time>2026-04-25T09:06:44.103Z</time></trkpt><trkpt lat="45.5596534" lon="11.1967612"><ele>620.0</ele><time>2026-04-25T09:06:45.104Z</time></trkpt><trkpt lat="45.5597153" lon="11.1967371"><ele>620.0</ele><time>2026-04-25T09:06:46.104Z</time></trkpt><trkpt lat="45.5597896" lon="11.196751"><ele>620.0</ele><time>2026-04-25T09:06:47.104Z</time></trkpt><trkpt lat="45.5598771" lon="11.1967735"><ele>620.0</ele><time>2026-04-25T09:06:48.103Z</time></trkpt><trkpt lat="45.5599754" lon="11.1968012"><ele>620.0</ele><time>2026-04-25T09:06:49.104Z</time></trkpt><trkpt lat="45.5600861" lon="11.1968261"><ele>620.0</ele><time>2026-04-25T09:06:50.103Z</time></trkpt><trkpt lat="45.5602059" lon="11.1968466"><ele>620.0</ele><time>2026-04-25T09:06:51.104Z</time></trkpt><trkpt lat="45.5603247" lon="11.196871"><ele>620.5</ele><time>2026-04-25T09:06:52.105Z</time></trkpt><trkpt lat="45.5604442" lon="11.1969003"><ele>621.0</ele><time>2026-04-25T09:06:53.103Z</time></trkpt><trkpt lat="45.5605586" lon="11.1969584"><ele>621.5</ele><time>2026-04-25T09:06:54.103Z</time></trkpt><trkpt lat="45.5606669" lon="11.197016"><ele>622.0</ele><time>2026-04-25T09:06:55.103Z</time></trkpt><trkpt lat="45.5607636" lon="11.1970718"><ele>622.0</ele><time>2026-04-25T09:06:56.103Z</time></trkpt><trkpt lat="45.5608307" lon="11.1971335"><ele>622.0</ele><time>2026-04-25T09:06:57.103Z</time></trkpt><trkpt lat="45.5608871" lon="11.1971924"><ele>622.0</ele><time>2026-04-25T09:06:58.103Z</time></trkpt><trkpt lat="45.5609984" lon="11.1971771"><ele>622.0</ele><time>2026-04-25T09:07:00.104Z</time></trkpt><trkpt lat="45.5610497" lon="11.1971235"><ele>622.0</ele><time>2026-04-25T09:07:01.104Z</time></trkpt><trkpt lat="45.5611014" lon="11.1970707"><ele>622.0</ele><time>2026-04-25T09:07:02.103Z</time></trkpt><trkpt lat="45.5611592" lon="11.1970313"><ele>622.5</ele><time>2026-04-25T09:07:03.104Z</time></trkpt><trkpt lat="45.5612237" lon="11.1970042"><ele>623.0</ele><time>2026-04-25T09:07:04.104Z</time></trkpt><trkpt lat="45.5612976" lon="11.1969871"><ele>623.5</ele><time>2026-04-25T09:07:05.103Z</time></trkpt><trkpt lat="45.5613782" lon="11.1969826"><ele>624.0</ele><time>2026-04-25T09:07:06.104Z</time></trkpt><trkpt lat="45.5614643" lon="11.1969823"><ele>624.5</ele><time>2026-04-25T09:07:07.104Z</time></trkpt><trkpt lat="45.561557" lon="11.1969904"><ele>625.0</ele><time>2026-04-25T09:07:08.103Z</time></trkpt><trkpt lat="45.5616457" lon="11.1970083"><ele>625.0</ele><time>2026-04-25T09:07:09.103Z</time></trkpt><trkpt lat="45.5617441" lon="11.1970512"><ele>625.0</ele><time>2026-04-25T09:07:10.105Z</time></trkpt><trkpt lat="45.5618404" lon="11.1970917"><ele>625.0</ele><time>2026-04-25T09:07:11.104Z</time></trkpt><trkpt lat="45.5619404" lon="11.1971401"><ele>625.0</ele><time>2026-04-25T09:07:12.104Z</time></trkpt><trkpt lat="45.5620432" lon="11.1971732"><ele>625.0</ele><time>2026-04-25T09:07:13.103Z</time></trkpt><trkpt lat="45.5621471" lon="11.1971761"><ele>626.6</ele><time>2026-04-25T09:07:14.103Z</time></trkpt><trkpt lat="45.5622502" lon="11.1971644"><ele>628.2</ele><time>2026-04-25T09:07:15.104Z</time></trkpt><trkpt lat="45.5623498" lon="11.1971386"><ele>629.8</ele><time>2026-04-25T09:07:16.104Z</time></trkpt><trkpt lat="45.5624453" lon="11.1970971"><ele>631.4</ele><time>2026-04-25T09:07:17.103Z</time></trkpt><trkpt lat="45.5625327" lon="11.1970462"><ele>633.0</ele><time>2026-04-25T09:07:18.103Z</time></trkpt><trkpt lat="45.5626102" lon="11.1969961"><ele>633.0</ele><time>2026-04-25T09:07:19.103Z</time></trkpt><trkpt lat="45.562696" lon="11.1969658"><ele>633.0</ele><time>2026-04-25T09:07:20.104Z</time></trkpt><trkpt lat="45.5627903" lon="11.1969698"><ele>633.0</ele><time>2026-04-25T09:07:21.103Z</time></trkpt><trkpt lat="45.5628894" lon="11.1970079"><ele>633.0</ele><time>2026-04-25T09:07:22.104Z</time></trkpt><trkpt lat="45.5629872" lon="11.1970542"><ele>633.0</ele><time>2026-04-25T09:07:23.103Z</time></trkpt><trkpt lat="45.5630623" lon="11.1971213"><ele>636.0</ele><time>2026-04-25T09:07:24.104Z</time></trkpt><trkpt lat="45.5631219" lon="11.1972126"><ele>639.0</ele><time>2026-04-25T09:07:25.103Z</time></trkpt><trkpt lat="45.5631808" lon="11.197307"><ele>642.0</ele><time>2026-04-25T09:07:26.104Z</time></trkpt><trkpt lat="45.5632526" lon="11.1973769"><ele>645.0</ele><time>2026-04-25T09:07:27.103Z</time></trkpt><trkpt lat="45.563339" lon="11.1973909"><ele>648.0</ele><time>2026-04-25T09:07:28.104Z</time></trkpt><trkpt lat="45.5634198" lon="11.1973603"><ele>651.0</ele><time>2026-04-25T09:07:29.104Z</time></trkpt><trkpt lat="45.5634868" lon="11.1972843"><ele>651.0</ele><time>2026-04-25T09:07:30.104Z</time></trkpt><trkpt lat="45.5635212" lon="11.197176"><ele>651.0</ele><time>2026-04-25T09:07:31.105Z</time></trkpt><trkpt lat="45.5635238" lon="11.1970505"><ele>651.0</ele><time>2026-04-25T09:07:32.103Z</time></trkpt><trkpt lat="45.563531" lon="11.1969236"><ele>651.0</ele><time>2026-04-25T09:07:33.103Z</time></trkpt><trkpt lat="45.563567" lon="11.1968014"><ele>651.0</ele><time>2026-04-25T09:07:34.103Z</time></trkpt><trkpt lat="45.5636209" lon="11.1966924"><ele>651.0</ele><time>2026-04-25T09:07:35.105Z</time></trkpt><trkpt lat="45.5636844" lon="11.1965998"><ele>653.1666666666666</ele><time>2026-04-25T09:07:36.104Z</time></trkpt><trkpt lat="45.5637411" lon="11.1965179"><ele>655.3333333333334</ele><time>2026-04-25T09:07:37.104Z</time></trkpt><trkpt lat="45.5637614" lon="11.1964078"><ele>657.5</ele><time>2026-04-25T09:07:38.103Z</time></trkpt><trkpt lat="45.5637488" lon="11.1962996"><ele>659.6666666666667</ele><time>2026-04-25T09:07:39.104Z</time></trkpt><trkpt lat="45.5636958" lon="11.1962038"><ele>661.8333333333334</ele><time>2026-04-25T09:07:40.104Z</time></trkpt><trkpt lat="45.5636145" lon="11.1961199"><ele>664.0</ele><time>2026-04-25T09:07:41.103Z</time></trkpt><trkpt lat="45.563519" lon="11.196051"><ele>664.0</ele><time>2026-04-25T09:07:42.104Z</time></trkpt><trkpt lat="45.5634147" lon="11.1959921"><ele>664.0</ele><time>2026-04-25T09:07:43.103Z</time></trkpt><trkpt lat="45.5633141" lon="11.1959173"><ele>664.0</ele><time>2026-04-25T09:07:44.105Z</time></trkpt><trkpt lat="45.5632185" lon="11.1958195"><ele>664.0</ele><time>2026-04-25T09:07:45.103Z</time></trkpt><trkpt lat="45.5631406" lon="11.1957187"><ele>664.0</ele><time>2026-04-25T09:07:46.104Z</time></trkpt><trkpt lat="45.563099" lon="11.1956251"><ele>666.6</ele><time>2026-04-25T09:07:47.104Z</time></trkpt><trkpt lat="45.5630831" lon="11.195522"><ele>669.2</ele><time>2026-04-25T09:07:48.103Z</time></trkpt><trkpt lat="45.5630756" lon="11.1953937"><ele>671.8000000000001</ele><time>2026-04-25T09:07:49.103Z</time></trkpt><trkpt lat="45.5630781" lon="11.1952495"><ele>674.4000000000001</ele><time>2026-04-25T09:07:50.103Z</time></trkpt><trkpt lat="45.5630833" lon="11.1950971"><ele>677.0</ele><time>2026-04-25T09:07:51.104Z</time></trkpt><trkpt lat="45.5630892" lon="11.1949368"><ele>677.4000000000001</ele><time>2026-04-25T09:07:52.104Z</time></trkpt><trkpt lat="45.563091" lon="11.1947845"><ele>677.8000000000001</ele><time>2026-04-25T09:07:53.104Z</time></trkpt><trkpt lat="45.5630973" lon="11.1946465"><ele>678.2</ele><time>2026-04-25T09:07:54.103Z</time></trkpt><trkpt lat="45.5631219" lon="11.1945271"><ele>678.6</ele><time>2026-04-25T09:07:55.104Z</time></trkpt><trkpt lat="45.5631451" lon="11.1944154"><ele>679.0</ele><time>2026-04-25T09:07:56.103Z</time></trkpt><trkpt lat="45.5631101" lon="11.1942588"><ele>679.0</ele><time>2026-04-25T09:07:58.105Z</time></trkpt><trkpt lat="45.5629827" lon="11.1942136"><ele>679.0</ele><time>2026-04-25T09:08:00.104Z</time></trkpt><trkpt lat="45.5629015" lon="11.1942312"><ele>679.0</ele><time>2026-04-25T09:08:01.103Z</time></trkpt><trkpt lat="45.5628242" lon="11.1943142"><ele>679.0</ele><time>2026-04-25T09:08:02.104Z</time></trkpt><trkpt lat="45.5627484" lon="11.1943756"><ele>679.0</ele><time>2026-04-25T09:08:03.103Z</time></trkpt><trkpt lat="45.5626794" lon="11.1944656"><ele>679.6666666666667</ele><time>2026-04-25T09:08:04.103Z</time></trkpt><trkpt lat="45.5626078" lon="11.1945442"><ele>680.3333333333334</ele><time>2026-04-25T09:08:05.103Z</time></trkpt><trkpt lat="45.5625258" lon="11.1945854"><ele>681.0</ele><time>2026-04-25T09:08:06.103Z</time></trkpt><trkpt lat="45.5624438" lon="11.1946374"><ele>681.6666666666666</ele><time>2026-04-25T09:08:07.104Z</time></trkpt><trkpt lat="45.5623636" lon="11.1946665"><ele>682.3333333333333</ele><time>2026-04-25T09:08:08.103Z</time></trkpt><trkpt lat="45.5622808" lon="11.1946804"><ele>683.0</ele><time>2026-04-25T09:08:09.103Z</time></trkpt><trkpt lat="45.5621983" lon="11.1946757"><ele>683.0</ele><time>2026-04-25T09:08:10.103Z</time></trkpt><trkpt lat="45.5621173" lon="11.1946478"><ele>683.0</ele><time>2026-04-25T09:08:11.103Z</time></trkpt><trkpt lat="45.5620422" lon="11.1946042"><ele>683.0</ele><time>2026-04-25T09:08:12.103Z</time></trkpt><trkpt lat="45.5619671" lon="11.1945494"><ele>683.0</ele><time>2026-04-25T09:08:13.103Z</time></trkpt><trkpt lat="45.5618918" lon="11.1944989"><ele>683.0</ele><time>2026-04-25T09:08:14.103Z</time></trkpt><trkpt lat="45.5618147" lon="11.1944462"><ele>683.0</ele><time>2026-04-25T09:08:15.105Z</time></trkpt><trkpt lat="45.5617398" lon="11.1943983"><ele>681.8333333333333</ele><time>2026-04-25T09:08:16.104Z</time></trkpt><trkpt lat="45.5616612" lon="11.1943603"><ele>680.6666666666666</ele><time>2026-04-25T09:08:17.105Z</time></trkpt><trkpt lat="45.5615791" lon="11.1943397"><ele>679.5</ele><time>2026-04-25T09:08:18.103Z</time></trkpt><trkpt lat="45.5614961" lon="11.1943423"><ele>678.3333333333334</ele><time>2026-04-25T09:08:19.103Z</time></trkpt><trkpt lat="45.5614118" lon="11.1943677"><ele>677.1666666666667</ele><time>2026-04-25T09:08:20.104Z</time></trkpt><trkpt lat="45.5613273" lon="11.1943844"><ele>676.0</ele><time>2026-04-25T09:08:21.103Z</time></trkpt><trkpt lat="45.5612389" lon="11.1943907"><ele>674.6666666666667</ele><time>2026-04-25T09:08:22.105Z</time></trkpt><trkpt lat="45.5611529" lon="11.1943818"><ele>673.3333333333334</ele><time>2026-04-25T09:08:23.105Z</time></trkpt><trkpt lat="45.5610696" lon="11.1943745"><ele>672.0</ele><time>2026-04-25T09:08:24.104Z</time></trkpt><trkpt lat="45.5609884" lon="11.1943672"><ele>670.6666666666666</ele><time>2026-04-25T09:08:25.103Z</time></trkpt><trkpt lat="45.5609146" lon="11.1943527"><ele>669.3333333333333</ele><time>2026-04-25T09:08:26.104Z</time></trkpt><trkpt lat="45.5608545" lon="11.1943093"><ele>668.0</ele><time>2026-04-25T09:08:27.103Z</time></trkpt><trkpt lat="45.5608122" lon="11.1942373"><ele>668.0</ele><time>2026-04-25T09:08:28.105Z</time></trkpt><trkpt lat="45.560782" lon="11.1941411"><ele>668.0</ele><time>2026-04-25T09:08:29.104Z</time></trkpt><trkpt lat="45.5607562" lon="11.1940318"><ele>668.0</ele><time>2026-04-25T09:08:30.104Z</time></trkpt><trkpt lat="45.5607307" lon="11.1939121"><ele>668.0</ele><time>2026-04-25T09:08:31.103Z</time></trkpt><trkpt lat="45.5607055" lon="11.1937812"><ele>668.0</ele><time>2026-04-25T09:08:32.104Z</time></trkpt><trkpt lat="45.5606815" lon="11.1936494"><ele>668.0</ele><time>2026-04-25T09:08:33.103Z</time></trkpt><trkpt lat="45.5606665" lon="11.1935261"><ele>668.5</ele><time>2026-04-25T09:08:34.104Z</time></trkpt><trkpt lat="45.5606719" lon="11.1934185"><ele>669.0</ele><time>2026-04-25T09:08:35.104Z</time></trkpt><trkpt lat="45.5607403" lon="11.1932898"><ele>669.5</ele><time>2026-04-25T09:08:37.103Z</time></trkpt><trkpt lat="45.5608059" lon="11.1932663"><ele>670.0</ele><time>2026-04-25T09:08:38.103Z</time></trkpt><trkpt lat="45.5608803" lon="11.1932702"><ele>670.5</ele><time>2026-04-25T09:08:39.104Z</time></trkpt><trkpt lat="45.5609658" lon="11.1932857"><ele>671.0</ele><time>2026-04-25T09:08:40.103Z</time></trkpt><trkpt lat="45.5610589" lon="11.1932869"><ele>671.0</ele><time>2026-04-25T09:08:41.103Z</time></trkpt><trkpt lat="45.5611568" lon="11.1932622"><ele>671.0</ele><time>2026-04-25T09:08:42.104Z</time></trkpt><trkpt lat="45.5612603" lon="11.1932226"><ele>671.0</ele><time>2026-04-25T09:08:43.104Z</time></trkpt><trkpt lat="45.5613729" lon="11.1931697"><ele>671.0</ele><time>2026-04-25T09:08:44.103Z</time></trkpt><trkpt lat="45.5614813" lon="11.1931024"><ele>671.0</ele><time>2026-04-25T09:08:45.103Z</time></trkpt><trkpt lat="45.5615826" lon="11.1930287"><ele>670.8</ele><time>2026-04-25T09:08:46.103Z</time></trkpt><trkpt lat="45.5616767" lon="11.1929534"><ele>670.5999999999999</ele><time>2026-04-25T09:08:47.103Z</time></trkpt><trkpt lat="45.5617668" lon="11.1928812"><ele>670.4</ele><time>2026-04-25T09:08:48.104Z</time></trkpt><trkpt lat="45.5618531" lon="11.1928128"><ele>670.2</ele><time>2026-04-25T09:08:49.104Z</time></trkpt><trkpt lat="45.5619259" lon="11.192722"><ele>670.0</ele><time>2026-04-25T09:08:50.104Z</time></trkpt><trkpt lat="45.561973" lon="11.1926016"><ele>670.0</ele><time>2026-04-25T09:08:51.104Z</time></trkpt><trkpt lat="45.5619922" lon="11.1924615"><ele>670.0</ele><time>2026-04-25T09:08:52.103Z</time></trkpt><trkpt lat="45.5619919" lon="11.192325"><ele>670.0</ele><time>2026-04-25T09:08:53.103Z</time></trkpt><trkpt lat="45.5619927" lon="11.1922073"><ele>670.0</ele><time>2026-04-25T09:08:54.104Z</time></trkpt><trkpt lat="45.5620233" lon="11.1921126"><ele>670.0</ele><time>2026-04-25T09:08:55.103Z</time></trkpt><trkpt lat="45.5620731" lon="11.192042"><ele>670.0</ele><time>2026-04-25T09:08:56.104Z</time></trkpt><trkpt lat="45.5621323" lon="11.1919919"><ele>671.5</ele><time>2026-04-25T09:08:57.103Z</time></trkpt><trkpt lat="45.5622052" lon="11.1919689"><ele>673.0</ele><time>2026-04-25T09:08:58.103Z</time></trkpt><trkpt lat="45.5622846" lon="11.1919624"><ele>674.5</ele><time>2026-04-25T09:08:59.104Z</time></trkpt><trkpt lat="45.5623666" lon="11.1919684"><ele>676.0</ele><time>2026-04-25T09:09:00.103Z</time></trkpt><trkpt lat="45.5624511" lon="11.1919774"><ele>677.5</ele><time>2026-04-25T09:09:01.104Z</time></trkpt><trkpt lat="45.5625343" lon="11.1919919"><ele>679.0</ele><time>2026-04-25T09:09:02.104Z</time></trkpt><trkpt lat="45.5626121" lon="11.1920023"><ele>679.0</ele><time>2026-04-25T09:09:03.104Z</time></trkpt><trkpt lat="45.5626845" lon="11.1920026"><ele>679.0</ele><time>2026-04-25T09:09:04.104Z</time></trkpt><trkpt lat="45.5627539" lon="11.1919935"><ele>679.0</ele><time>2026-04-25T09:09:05.103Z</time></trkpt><trkpt lat="45.5628633" lon="11.1919305"><ele>679.0</ele><time>2026-04-25T09:09:07.104Z</time></trkpt><trkpt lat="45.5629272" lon="11.1918675"><ele>679.0</ele><time>2026-04-25T09:09:09.103Z</time></trkpt><trkpt lat="45.5629924" lon="11.1917677"><ele>679.0</ele><time>2026-04-25T09:09:12.104Z</time></trkpt><trkpt lat="45.5630473" lon="11.1916453"><ele>682.1666666666667</ele><time>2026-04-25T09:09:14.103Z</time></trkpt><trkpt lat="45.5630855" lon="11.1915611"><ele>685.3333333333334</ele><time>2026-04-25T09:09:15.103Z</time></trkpt><trkpt lat="45.5631264" lon="11.1914631"><ele>688.5</ele><time>2026-04-25T09:09:16.104Z</time></trkpt><trkpt lat="45.5631653" lon="11.1913584"><ele>691.6666666666666</ele><time>2026-04-25T09:09:17.103Z</time></trkpt><trkpt lat="45.563207" lon="11.1912515"><ele>694.8333333333333</ele><time>2026-04-25T09:09:18.105Z</time></trkpt><trkpt lat="45.5632567" lon="11.1911464"><ele>698.0</ele><time>2026-04-25T09:09:19.104Z</time></trkpt><trkpt lat="45.563318" lon="11.1910565"><ele>698.0</ele><time>2026-04-25T09:09:20.103Z</time></trkpt><trkpt lat="45.5633865" lon="11.190998"><ele>698.0</ele><time>2026-04-25T09:09:21.104Z</time></trkpt><trkpt lat="45.5634532" lon="11.1909582"><ele>698.0</ele><time>2026-04-25T09:09:22.104Z</time></trkpt><trkpt lat="45.5635114" lon="11.1909184"><ele>698.0</ele><time>2026-04-25T09:09:23.103Z</time></trkpt><trkpt lat="45.5635357" lon="11.1907826"><ele>698.0</ele><time>2026-04-25T09:09:25.103Z</time></trkpt><trkpt lat="45.5634663" lon="11.1906592"><ele>698.0</ele><time>2026-04-25T09:09:27.104Z</time></trkpt><trkpt lat="45.5633766" lon="11.1906709"><ele>697.0</ele><time>2026-04-25T09:09:28.104Z</time></trkpt><trkpt lat="45.563295" lon="11.190648"><ele>696.0</ele><time>2026-04-25T09:09:29.103Z</time></trkpt><trkpt lat="45.5631853" lon="11.1906201"><ele>695.0</ele><time>2026-04-25T09:09:30.103Z</time></trkpt><trkpt lat="45.5630741" lon="11.1905975"><ele>694.0</ele><time>2026-04-25T09:09:31.104Z</time></trkpt><trkpt lat="45.5629562" lon="11.1905662"><ele>693.0</ele><time>2026-04-25T09:09:32.103Z</time></trkpt><trkpt lat="45.5628472" lon="11.1905292"><ele>693.0</ele><time>2026-04-25T09:09:33.103Z</time></trkpt><trkpt lat="45.5627456" lon="11.190506"><ele>693.0</ele><time>2026-04-25T09:09:34.103Z</time></trkpt><trkpt lat="45.5626607" lon="11.1904794"><ele>693.0</ele><time>2026-04-25T09:09:35.103Z</time></trkpt><trkpt lat="45.5625947" lon="11.190434"><ele>693.0</ele><time>2026-04-25T09:09:36.103Z</time></trkpt><trkpt lat="45.5625325" lon="11.1902872"><ele>693.0</ele><time>2026-04-25T09:09:38.104Z</time></trkpt><trkpt lat="45.562533" lon="11.1901874"><ele>693.0</ele><time>2026-04-25T09:09:39.104Z</time></trkpt><trkpt lat="45.5625625" lon="11.1900693"><ele>693.0</ele><time>2026-04-25T09:09:40.104Z</time></trkpt><trkpt lat="45.5626104" lon="11.1899602"><ele>693.0</ele><time>2026-04-25T09:09:41.104Z</time></trkpt><trkpt lat="45.5626524" lon="11.1898667"><ele>693.0</ele><time>2026-04-25T09:09:42.104Z</time></trkpt><trkpt lat="45.5626692" lon="11.1897653"><ele>693.0</ele><time>2026-04-25T09:09:43.103Z</time></trkpt><trkpt lat="45.562645" lon="11.1896593"><ele>693.0</ele><time>2026-04-25T09:09:44.104Z</time></trkpt><trkpt lat="45.5625881" lon="11.1895836"><ele>695.6666666666666</ele><time>2026-04-25T09:09:45.103Z</time></trkpt><trkpt lat="45.5625107" lon="11.1895341"><ele>698.3333333333334</ele><time>2026-04-25T09:09:46.104Z</time></trkpt><trkpt lat="45.5624241" lon="11.1894885"><ele>701.0</ele><time>2026-04-25T09:09:47.104Z</time></trkpt><trkpt lat="45.562346" lon="11.1894271"><ele>703.6666666666667</ele><time>2026-04-25T09:09:48.104Z</time></trkpt><trkpt lat="45.5622849" lon="11.1893454"><ele>706.3333333333334</ele><time>2026-04-25T09:09:49.103Z</time></trkpt><trkpt lat="45.5622493" lon="11.1892396"><ele>709.0</ele><time>2026-04-25T09:09:50.103Z</time></trkpt><trkpt lat="45.562223" lon="11.1891169"><ele>712.1666666666667</ele><time>2026-04-25T09:09:51.105Z</time></trkpt><trkpt lat="45.5622114" lon="11.1889857"><ele>715.3333333333334</ele><time>2026-04-25T09:09:52.104Z</time></trkpt><trkpt lat="45.5621983" lon="11.1888575"><ele>718.5</ele><time>2026-04-25T09:09:53.104Z</time></trkpt><trkpt lat="45.562191" lon="11.1887487"><ele>721.6666666666666</ele><time>2026-04-25T09:09:54.105Z</time></trkpt><trkpt lat="45.5621772" lon="11.1886487"><ele>724.8333333333333</ele><time>2026-04-25T09:09:55.103Z</time></trkpt><trkpt lat="45.5621449" lon="11.1885649"><ele>728.0</ele><time>2026-04-25T09:09:56.104Z</time></trkpt><trkpt lat="45.5620338" lon="11.1884968"><ele>727.3333333333333</ele><time>2026-04-25T09:09:58.103Z</time></trkpt><trkpt lat="45.5619708" lon="11.1885437"><ele>726.6666666666666</ele><time>2026-04-25T09:09:59.104Z</time></trkpt><trkpt lat="45.5619063" lon="11.1886104"><ele>726.0</ele><time>2026-04-25T09:10:00.104Z</time></trkpt><trkpt lat="45.5618438" lon="11.1887026"><ele>725.3333333333334</ele><time>2026-04-25T09:10:01.103Z</time></trkpt><trkpt lat="45.5617833" lon="11.1888118"><ele>724.6666666666667</ele><time>2026-04-25T09:10:02.104Z</time></trkpt><trkpt lat="45.5617265" lon="11.1889466"><ele>724.0</ele><time>2026-04-25T09:10:03.105Z</time></trkpt><trkpt lat="45.5616675" lon="11.1890678"><ele>720.0</ele><time>2026-04-25T09:10:04.103Z</time></trkpt><trkpt lat="45.5616091" lon="11.1891858"><ele>716.0</ele><time>2026-04-25T09:10:05.104Z</time></trkpt><trkpt lat="45.5615489" lon="11.1892914"><ele>712.0</ele><time>2026-04-25T09:10:06.103Z</time></trkpt><trkpt lat="45.5614795" lon="11.189381"><ele>708.0</ele><time>2026-04-25T09:10:07.104Z</time></trkpt><trkpt lat="45.5613972" lon="11.1894505"><ele>704.0</ele><time>2026-04-25T09:10:08.105Z</time></trkpt><trkpt lat="45.5613019" lon="11.1894877"><ele>704.0</ele><time>2026-04-25T09:10:09.104Z</time></trkpt><trkpt lat="45.5612148" lon="11.1894994"><ele>704.0</ele><time>2026-04-25T09:10:10.104Z</time></trkpt><trkpt lat="45.5611439" lon="11.189481"><ele>704.0</ele><time>2026-04-25T09:10:11.103Z</time></trkpt><trkpt lat="45.5610898" lon="11.1894242"><ele>704.0</ele><time>2026-04-25T09:10:12.105Z</time></trkpt><trkpt lat="45.5610607" lon="11.1893295"><ele>704.0</ele><time>2026-04-25T09:10:13.103Z</time></trkpt><trkpt lat="45.5610413" lon="11.1892134"><ele>704.0</ele><time>2026-04-25T09:10:14.103Z</time></trkpt><trkpt lat="45.5610393" lon="11.1890757"><ele>703.2</ele><time>2026-04-25T09:10:15.103Z</time></trkpt><trkpt lat="45.5610556" lon="11.1889281"><ele>702.4000000000001</ele><time>2026-04-25T09:10:16.104Z</time></trkpt><trkpt lat="45.5610823" lon="11.1887804"><ele>701.6</ele><time>2026-04-25T09:10:17.103Z</time></trkpt><trkpt lat="45.5610984" lon="11.188622"><ele>700.8</ele><time>2026-04-25T09:10:18.104Z</time></trkpt><trkpt lat="45.5610908" lon="11.1884623"><ele>700.0</ele><time>2026-04-25T09:10:19.104Z</time></trkpt><trkpt lat="45.5610661" lon="11.188315"><ele>700.0</ele><time>2026-04-25T09:10:20.103Z</time></trkpt><trkpt lat="45.5610113" lon="11.1881882"><ele>700.0</ele><time>2026-04-25T09:10:21.103Z</time></trkpt><trkpt lat="45.560946" lon="11.1880779"><ele>700.0</ele><time>2026-04-25T09:10:22.104Z</time></trkpt><trkpt lat="45.5608869" lon="11.1879721"><ele>700.0</ele><time>2026-04-25T09:10:23.103Z</time></trkpt><trkpt lat="45.5608528" lon="11.1878609"><ele>700.0</ele><time>2026-04-25T09:10:24.103Z</time></trkpt><trkpt lat="45.5608439" lon="11.1877353"><ele>701.5</ele><time>2026-04-25T09:10:25.103Z</time></trkpt><trkpt lat="45.5608718" lon="11.1876239"><ele>703.0</ele><time>2026-04-25T09:10:26.104Z</time></trkpt><trkpt lat="45.5609287" lon="11.1875438"><ele>704.5</ele><time>2026-04-25T09:10:27.104Z</time></trkpt><trkpt lat="45.5609939" lon="11.1874766"><ele>706.0</ele><time>2026-04-25T09:10:28.104Z</time></trkpt><trkpt lat="45.5610351" lon="11.1873649"><ele>707.5</ele><time>2026-04-25T09:10:29.103Z</time></trkpt><trkpt lat="45.561046" lon="11.1872281"><ele>709.0</ele><time>2026-04-25T09:10:30.104Z</time></trkpt><trkpt lat="45.5610255" lon="11.1870835"><ele>708.75</ele><time>2026-04-25T09:10:31.104Z</time></trkpt><trkpt lat="45.5609953" lon="11.1869303"><ele>708.5</ele><time>2026-04-25T09:10:32.103Z</time></trkpt><trkpt lat="45.5609598" lon="11.1867715"><ele>708.25</ele><time>2026-04-25T09:10:33.104Z</time></trkpt><trkpt lat="45.5609286" lon="11.1866139"><ele>708.0</ele><time>2026-04-25T09:10:34.104Z</time></trkpt><trkpt lat="45.5609169" lon="11.1864554"><ele>708.0</ele><time>2026-04-25T09:10:35.103Z</time></trkpt><trkpt lat="45.5609278" lon="11.1862972"><ele>708.0</ele><time>2026-04-25T09:10:36.103Z</time></trkpt><trkpt lat="45.5609574" lon="11.1861441"><ele>708.0</ele><time>2026-04-25T09:10:37.105Z</time></trkpt><trkpt lat="45.5609993" lon="11.1859934"><ele>708.0</ele><time>2026-04-25T09:10:38.103Z</time></trkpt><trkpt lat="45.5610471" lon="11.185856"><ele>708.0</ele><time>2026-04-25T09:10:39.104Z</time></trkpt><trkpt lat="45.5611005" lon="11.1857337"><ele>707.5</ele><time>2026-04-25T09:10:40.103Z</time></trkpt><trkpt lat="45.5611629" lon="11.1856309"><ele>707.0</ele><time>2026-04-25T09:10:41.103Z</time></trkpt><trkpt lat="45.5612398" lon="11.1855539"><ele>706.5</ele><time>2026-04-25T09:10:42.104Z</time></trkpt><trkpt lat="45.5613177" lon="11.1854986"><ele>706.0</ele><time>2026-04-25T09:10:43.103Z</time></trkpt><trkpt lat="45.5613829" lon="11.1854269"><ele>705.5</ele><time>2026-04-25T09:10:44.103Z</time></trkpt><trkpt lat="45.5614216" lon="11.1853251"><ele>705.0</ele><time>2026-04-25T09:10:45.103Z</time></trkpt><trkpt lat="45.561425" lon="11.1852028"><ele>708.1666666666666</ele><time>2026-04-25T09:10:46.103Z</time></trkpt><trkpt lat="45.5614011" lon="11.1850763"><ele>711.3333333333334</ele><time>2026-04-25T09:10:47.104Z</time></trkpt><trkpt lat="45.5613839" lon="11.1849579"><ele>714.5</ele><time>2026-04-25T09:10:48.103Z</time></trkpt><trkpt lat="45.5614" lon="11.1848398"><ele>717.6666666666667</ele><time>2026-04-25T09:10:49.104Z</time></trkpt><trkpt lat="45.561429" lon="11.184718"><ele>720.8333333333334</ele><time>2026-04-25T09:10:50.103Z</time></trkpt><trkpt lat="45.5614681" lon="11.1845991"><ele>724.0</ele><time>2026-04-25T09:10:51.103Z</time></trkpt><trkpt lat="45.5615165" lon="11.1844966"><ele>724.0</ele><time>2026-04-25T09:10:52.103Z</time></trkpt><trkpt lat="45.5615792" lon="11.1844002"><ele>724.0</ele><time>2026-04-25T09:10:53.104Z</time></trkpt><trkpt lat="45.5616513" lon="11.1843154"><ele>724.0</ele><time>2026-04-25T09:10:54.103Z</time></trkpt><trkpt lat="45.5617317" lon="11.1842315"><ele>724.0</ele><time>2026-04-25T09:10:55.103Z</time></trkpt><trkpt lat="45.561823" lon="11.1841622"><ele>724.0</ele><time>2026-04-25T09:10:56.104Z</time></trkpt><trkpt lat="45.5619215" lon="11.184109"><ele>724.0</ele><time>2026-04-25T09:10:57.103Z</time></trkpt><trkpt lat="45.5620104" lon="11.1840685"><ele>724.0</ele><time>2026-04-25T09:10:58.103Z</time></trkpt><trkpt lat="45.5620822" lon="11.1840256"><ele>724.0</ele><time>2026-04-25T09:10:59.103Z</time></trkpt><trkpt lat="45.5621437" lon="11.1838855"><ele>724.0</ele><time>2026-04-25T09:11:01.104Z</time></trkpt><trkpt lat="45.5620647" lon="11.1837367"><ele>724.0</ele><time>2026-04-25T09:11:03.103Z</time></trkpt><trkpt lat="45.5620136" lon="11.1836544"><ele>726.8000000000001</ele><time>2026-04-25T09:11:04.104Z</time></trkpt><trkpt lat="45.5618988" lon="11.1836172"><ele>729.6</ele><time>2026-04-25T09:11:05.104Z</time></trkpt><trkpt lat="45.5618041" lon="11.1835607"><ele>732.4</ele><time>2026-04-25T09:11:06.103Z</time></trkpt><trkpt lat="45.5617068" lon="11.183508"><ele>735.2</ele><time>2026-04-25T09:11:07.104Z</time></trkpt><trkpt lat="45.5616007" lon="11.1834552"><ele>738.0</ele><time>2026-04-25T09:11:08.104Z</time></trkpt><trkpt lat="45.5614894" lon="11.1834071"><ele>738.0</ele><time>2026-04-25T09:11:09.104Z</time></trkpt><trkpt lat="45.5613744" lon="11.1833683"><ele>738.0</ele><time>2026-04-25T09:11:10.104Z</time></trkpt><trkpt lat="45.5612663" lon="11.1833378"><ele>738.0</ele><time>2026-04-25T09:11:11.104Z</time></trkpt><trkpt lat="45.5611704" lon="11.1833111"><ele>738.0</ele><time>2026-04-25T09:11:12.103Z</time></trkpt><trkpt lat="45.5610889" lon="11.1832898"><ele>738.0</ele><time>2026-04-25T09:11:13.103Z</time></trkpt><trkpt lat="45.5610192" lon="11.1832724"><ele>737.1666666666666</ele><time>2026-04-25T09:11:14.103Z</time></trkpt><trkpt lat="45.5609137" lon="11.1832474"><ele>736.3333333333334</ele><time>2026-04-25T09:11:16.103Z</time></trkpt><trkpt lat="45.5608385" lon="11.1832205"><ele>735.5</ele><time>2026-04-25T09:11:18.104Z</time></trkpt><trkpt lat="45.5607759" lon="11.1831959"><ele>734.6666666666667</ele><time>2026-04-25T09:11:21.104Z</time></trkpt><trkpt lat="45.5607139" lon="11.1831757"><ele>733.8333333333334</ele><time>2026-04-25T09:11:26.103Z</time></trkpt><trkpt lat="45.5606215" lon="11.1832025"><ele>733.0</ele><time>2026-04-25T09:11:28.103Z</time></trkpt><trkpt lat="45.5605373" lon="11.1832238"><ele>733.0</ele><time>2026-04-25T09:11:30.104Z</time></trkpt><trkpt lat="45.5604632" lon="11.1832428"><ele>733.0</ele><time>2026-04-25T09:11:32.103Z</time></trkpt><trkpt lat="45.5603929" lon="11.1832994"><ele>733.0</ele><time>2026-04-25T09:11:34.104Z</time></trkpt><trkpt lat="45.560324" lon="11.1833947"><ele>733.0</ele><time>2026-04-25T09:11:36.103Z</time></trkpt><trkpt lat="45.5602719" lon="11.1834988"><ele>733.0</ele><time>2026-04-25T09:11:38.103Z</time></trkpt><trkpt lat="45.5602163" lon="11.1835967"><ele>733.0</ele><time>2026-04-25T09:11:40.103Z</time></trkpt><trkpt lat="45.560154" lon="11.1837014"><ele>732.2</ele><time>2026-04-25T09:11:42.103Z</time></trkpt><trkpt lat="45.560083" lon="11.1838326"><ele>731.4</ele><time>2026-04-25T09:11:44.105Z</time></trkpt><trkpt lat="45.5600089" lon="11.1839722"><ele>730.6</ele><time>2026-04-25T09:11:46.103Z</time></trkpt><trkpt lat="45.5599246" lon="11.1840973"><ele>729.8000000000001</ele><time>2026-04-25T09:11:48.103Z</time></trkpt><trkpt lat="45.5598762" lon="11.1841553"><ele>729.0</ele><time>2026-04-25T09:11:49.104Z</time></trkpt><trkpt lat="45.5598242" lon="11.1842133"><ele>729.0</ele><time>2026-04-25T09:11:50.103Z</time></trkpt><trkpt lat="45.5597707" lon="11.1842708"><ele>729.0</ele><time>2026-04-25T09:11:51.104Z</time></trkpt><trkpt lat="45.5597146" lon="11.1843299"><ele>729.0</ele><time>2026-04-25T09:11:52.103Z</time></trkpt><trkpt lat="45.5596524" lon="11.184387"><ele>729.0</ele><time>2026-04-25T09:11:53.104Z</time></trkpt><trkpt lat="45.559589" lon="11.1844436"><ele>729.0</ele><time>2026-04-25T09:11:54.103Z</time></trkpt><trkpt lat="45.5595202" lon="11.1845038"><ele>729.0</ele><time>2026-04-25T09:11:55.104Z</time></trkpt><trkpt lat="45.5594471" lon="11.1845676"><ele>728.2</ele><time>2026-04-25T09:11:56.104Z</time></trkpt><trkpt lat="45.5593698" lon="11.1846341"><ele>727.4000000000001</ele><time>2026-04-25T09:11:57.103Z</time></trkpt><trkpt lat="45.5592883" lon="11.1847042"><ele>726.6</ele><time>2026-04-25T09:11:58.104Z</time></trkpt><trkpt lat="45.5592075" lon="11.1847836"><ele>725.8</ele><time>2026-04-25T09:11:59.103Z</time></trkpt><trkpt lat="45.5591296" lon="11.1848708"><ele>725.0</ele><time>2026-04-25T09:12:00.103Z</time></trkpt><trkpt lat="45.5590539" lon="11.1849607"><ele>725.0</ele><time>2026-04-25T09:12:01.104Z</time></trkpt><trkpt lat="45.5589832" lon="11.1850558"><ele>725.0</ele><time>2026-04-25T09:12:02.103Z</time></trkpt><trkpt lat="45.5589099" lon="11.1851542"><ele>725.0</ele><time>2026-04-25T09:12:03.103Z</time></trkpt><trkpt lat="45.5588379" lon="11.1852592"><ele>725.0</ele><time>2026-04-25T09:12:04.103Z</time></trkpt><trkpt lat="45.5587666" lon="11.1853726"><ele>725.0</ele><time>2026-04-25T09:12:05.104Z</time></trkpt><trkpt lat="45.5586919" lon="11.1854813"><ele>725.2</ele><time>2026-04-25T09:12:06.103Z</time></trkpt><trkpt lat="45.5586113" lon="11.1855752"><ele>725.4</ele><time>2026-04-25T09:12:07.103Z</time></trkpt><trkpt lat="45.5585173" lon="11.1856524"><ele>725.5999999999999</ele><time>2026-04-25T09:12:08.103Z</time></trkpt><trkpt lat="45.5584145" lon="11.1857209"><ele>725.8</ele><time>2026-04-25T09:12:09.103Z</time></trkpt><trkpt lat="45.5583108" lon="11.1857816"><ele>726.0</ele><time>2026-04-25T09:12:10.104Z</time></trkpt><trkpt lat="45.5582119" lon="11.1858438"><ele>726.0</ele><time>2026-04-25T09:12:11.104Z</time></trkpt><trkpt lat="45.5581242" lon="11.1859063"><ele>726.0</ele><time>2026-04-25T09:12:12.103Z</time></trkpt><trkpt lat="45.5580375" lon="11.1859893"><ele>726.0</ele><time>2026-04-25T09:12:13.103Z</time></trkpt><trkpt lat="45.5579873" lon="11.1860654"><ele>726.0</ele><time>2026-04-25T09:12:14.104Z</time></trkpt><trkpt lat="45.5579301" lon="11.1861618"><ele>726.0</ele><time>2026-04-25T09:12:15.104Z</time></trkpt><trkpt lat="45.5578952" lon="11.1862785"><ele>726.0</ele><time>2026-04-25T09:12:16.103Z</time></trkpt><trkpt lat="45.557884" lon="11.1864189"><ele>726.0</ele><time>2026-04-25T09:12:17.103Z</time></trkpt><trkpt lat="45.5578211" lon="11.186521"><ele>726.0</ele><time>2026-04-25T09:12:18.104Z</time></trkpt><trkpt lat="45.5577477" lon="11.1866025"><ele>726.0</ele><time>2026-04-25T09:12:19.103Z</time></trkpt><trkpt lat="45.55767" lon="11.1866734"><ele>726.0</ele><time>2026-04-25T09:12:20.104Z</time></trkpt><trkpt lat="45.5575862" lon="11.1867283"><ele>727.5</ele><time>2026-04-25T09:12:21.103Z</time></trkpt><trkpt lat="45.5575073" lon="11.186779"><ele>729.0</ele><time>2026-04-25T09:12:22.104Z</time></trkpt><trkpt lat="45.5574465" lon="11.1868332"><ele>730.5</ele><time>2026-04-25T09:12:23.105Z</time></trkpt><trkpt lat="45.5573983" lon="11.1869128"><ele>732.0</ele><time>2026-04-25T09:12:24.104Z</time></trkpt><trkpt lat="45.5573627" lon="11.1870126"><ele>733.5</ele><time>2026-04-25T09:12:25.103Z</time></trkpt><trkpt lat="45.55736" lon="11.187127"><ele>735.0</ele><time>2026-04-25T09:12:26.103Z</time></trkpt><trkpt lat="45.5573713" lon="11.1872504"><ele>732.4</ele><time>2026-04-25T09:12:27.103Z</time></trkpt><trkpt lat="45.5573823" lon="11.18739"><ele>729.8</ele><time>2026-04-25T09:12:28.103Z</time></trkpt><trkpt lat="45.557395" lon="11.1875325"><ele>727.2</ele><time>2026-04-25T09:12:29.103Z</time></trkpt><trkpt lat="45.5574234" lon="11.1876766"><ele>724.6</ele><time>2026-04-25T09:12:30.103Z</time></trkpt><trkpt lat="45.5574489" lon="11.1878069"><ele>722.0</ele><time>2026-04-25T09:12:31.104Z</time></trkpt><trkpt lat="45.55748" lon="11.1879262"><ele>722.0</ele><time>2026-04-25T09:12:32.104Z</time></trkpt><trkpt lat="45.5575246" lon="11.1880392"><ele>722.0</ele><time>2026-04-25T09:12:33.103Z</time></trkpt><trkpt lat="45.5575653" lon="11.1881481"><ele>722.0</ele><time>2026-04-25T09:12:34.105Z</time></trkpt><trkpt lat="45.5575999" lon="11.1882619"><ele>722.0</ele><time>2026-04-25T09:12:35.103Z</time></trkpt><trkpt lat="45.5576176" lon="11.1883769"><ele>722.0</ele><time>2026-04-25T09:12:36.104Z</time></trkpt><trkpt lat="45.557622" lon="11.1885024"><ele>722.0</ele><time>2026-04-25T09:12:37.105Z</time></trkpt><trkpt lat="45.5576179" lon="11.188638"><ele>722.2</ele><time>2026-04-25T09:12:38.105Z</time></trkpt><trkpt lat="45.5576072" lon="11.1887802"><ele>722.4000000000001</ele><time>2026-04-25T09:12:39.103Z</time></trkpt><trkpt lat="45.5576043" lon="11.1889266"><ele>722.5999999999999</ele><time>2026-04-25T09:12:40.103Z</time></trkpt><trkpt lat="45.5575976" lon="11.1890701"><ele>722.8</ele><time>2026-04-25T09:12:41.103Z</time></trkpt><trkpt lat="45.5575799" lon="11.1892166"><ele>723.0</ele><time>2026-04-25T09:12:42.105Z</time></trkpt><trkpt lat="45.5575635" lon="11.1893649"><ele>723.2</ele><time>2026-04-25T09:12:43.103Z</time></trkpt><trkpt lat="45.557547" lon="11.1895139"><ele>723.4</ele><time>2026-04-25T09:12:44.104Z</time></trkpt><trkpt lat="45.5575155" lon="11.1896617"><ele>723.6</ele><time>2026-04-25T09:12:45.103Z</time></trkpt><trkpt lat="45.5574807" lon="11.1897836"><ele>723.8000000000001</ele><time>2026-04-25T09:12:46.104Z</time></trkpt><trkpt lat="45.5574458" lon="11.1899041"><ele>724.0</ele><time>2026-04-25T09:12:47.104Z</time></trkpt><trkpt lat="45.5574105" lon="11.1900126"><ele>722.2</ele><time>2026-04-25T09:12:48.104Z</time></trkpt><trkpt lat="45.557366" lon="11.1901103"><ele>720.4000000000001</ele><time>2026-04-25T09:12:49.104Z</time></trkpt><trkpt lat="45.5573054" lon="11.1902041"><ele>718.6</ele><time>2026-04-25T09:12:50.105Z</time></trkpt><trkpt lat="45.5572286" lon="11.1902889"><ele>716.8</ele><time>2026-04-25T09:12:51.104Z</time></trkpt><trkpt lat="45.5571358" lon="11.1903624"><ele>715.0</ele><time>2026-04-25T09:12:52.103Z</time></trkpt><trkpt lat="45.5570322" lon="11.1904282"><ele>715.0</ele><time>2026-04-25T09:12:53.103Z</time></trkpt><trkpt lat="45.5569219" lon="11.1905074"><ele>715.0</ele><time>2026-04-25T09:12:54.105Z</time></trkpt><trkpt lat="45.5568074" lon="11.1906012"><ele>715.0</ele><time>2026-04-25T09:12:55.103Z</time></trkpt><trkpt lat="45.5566925" lon="11.1907043"><ele>715.0</ele><time>2026-04-25T09:12:56.105Z</time></trkpt><trkpt lat="45.556582" lon="11.1908209"><ele>715.0</ele><time>2026-04-25T09:12:57.103Z</time></trkpt><trkpt lat="45.556487" lon="11.1909577"><ele>715.0</ele><time>2026-04-25T09:12:58.103Z</time></trkpt><trkpt lat="45.5564117" lon="11.1911131"><ele>715.0</ele><time>2026-04-25T09:12:59.104Z</time></trkpt><trkpt lat="45.5563531" lon="11.191283"><ele>715.0</ele><time>2026-04-25T09:13:00.104Z</time></trkpt><trkpt lat="45.5563071" lon="11.1914635"><ele>717.75</ele><time>2026-04-25T09:13:01.103Z</time></trkpt><trkpt lat="45.5562697" lon="11.1916456"><ele>720.5</ele><time>2026-04-25T09:13:02.103Z</time></trkpt><trkpt lat="45.5562306" lon="11.1918211"><ele>723.25</ele><time>2026-04-25T09:13:03.104Z</time></trkpt><trkpt lat="45.5561835" lon="11.1919853"><ele>726.0</ele><time>2026-04-25T09:13:04.103Z</time></trkpt><trkpt lat="45.5561341" lon="11.1921403"><ele>726.0</ele><time>2026-04-25T09:13:05.103Z</time></trkpt><trkpt lat="45.5560866" lon="11.1922757"><ele>726.0</ele><time>2026-04-25T09:13:06.103Z</time></trkpt><trkpt lat="45.5560326" lon="11.1923833"><ele>726.0</ele><time>2026-04-25T09:13:07.104Z</time></trkpt><trkpt lat="45.5559701" lon="11.1924698"><ele>726.0</ele><time>2026-04-25T09:13:08.103Z</time></trkpt><trkpt lat="45.5558926" lon="11.1925458"><ele>726.0</ele><time>2026-04-25T09:13:09.103Z</time></trkpt><trkpt lat="45.5558054" lon="11.1926199"><ele>724.1999999999999</ele><time>2026-04-25T09:13:10.103Z</time></trkpt><trkpt lat="45.55572" lon="11.1927074"><ele>722.4</ele><time>2026-04-25T09:13:11.103Z</time></trkpt><trkpt lat="45.5556503" lon="11.192818"><ele>720.6</ele><time>2026-04-25T09:13:12.103Z</time></trkpt><trkpt lat="45.5555943" lon="11.1929454"><ele>718.8</ele><time>2026-04-25T09:13:13.104Z</time></trkpt><trkpt lat="45.5555529" lon="11.1930807"><ele>717.0</ele><time>2026-04-25T09:13:14.103Z</time></trkpt><trkpt lat="45.5555267" lon="11.1932328"><ele>712.75</ele><time>2026-04-25T09:13:15.105Z</time></trkpt><trkpt lat="45.5555147" lon="11.1933939"><ele>708.5</ele><time>2026-04-25T09:13:16.103Z</time></trkpt><trkpt lat="45.5555084" lon="11.1935626"><ele>704.25</ele><time>2026-04-25T09:13:17.103Z</time></trkpt><trkpt lat="45.5555055" lon="11.1937331"><ele>700.0</ele><time>2026-04-25T09:13:18.103Z</time></trkpt><trkpt lat="45.5555064" lon="11.1939072"><ele>698.8</ele><time>2026-04-25T09:13:19.103Z</time></trkpt><trkpt lat="45.5555081" lon="11.1940695"><ele>697.6</ele><time>2026-04-25T09:13:20.104Z</time></trkpt><trkpt lat="45.5555095" lon="11.1942177"><ele>696.4000000000001</ele><time>2026-04-25T09:13:21.104Z</time></trkpt><trkpt lat="45.5554967" lon="11.1943586"><ele>695.2</ele><time>2026-04-25T09:13:22.104Z</time></trkpt><trkpt lat="45.5554616" lon="11.1945047"><ele>694.0</ele><time>2026-04-25T09:13:23.103Z</time></trkpt><trkpt lat="45.5554158" lon="11.1946519"><ele>694.0</ele><time>2026-04-25T09:13:24.104Z</time></trkpt><trkpt lat="45.5553723" lon="11.1948013"><ele>694.0</ele><time>2026-04-25T09:13:25.103Z</time></trkpt><trkpt lat="45.5553422" lon="11.1949513"><ele>694.0</ele><time>2026-04-25T09:13:26.104Z</time></trkpt><trkpt lat="45.5553223" lon="11.195091"><ele>694.0</ele><time>2026-04-25T09:13:27.104Z</time></trkpt><trkpt lat="45.5552991" lon="11.1952184"><ele>694.0</ele><time>2026-04-25T09:13:28.103Z</time></trkpt><trkpt lat="45.5552707" lon="11.195315"><ele>697.4000000000001</ele><time>2026-04-25T09:13:29.105Z</time></trkpt><trkpt lat="45.5551869" lon="11.195423"><ele>700.8</ele><time>2026-04-25T09:13:31.103Z</time></trkpt><trkpt lat="45.555096" lon="11.1954413"><ele>704.2</ele><time>2026-04-25T09:13:33.103Z</time></trkpt><trkpt lat="45.5550079" lon="11.1954188"><ele>707.5999999999999</ele><time>2026-04-25T09:13:35.103Z</time></trkpt><trkpt lat="45.5549205" lon="11.195356"><ele>711.0</ele><time>2026-04-25T09:13:37.104Z</time></trkpt><trkpt lat="45.5548035" lon="11.1952868"><ele>711.0</ele><time>2026-04-25T09:13:39.103Z</time></trkpt><trkpt lat="45.554732" lon="11.1952477"><ele>711.0</ele><time>2026-04-25T09:13:40.104Z</time></trkpt><trkpt lat="45.5546504" lon="11.1952103"><ele>711.0</ele><time>2026-04-25T09:13:41.103Z</time></trkpt><trkpt lat="45.554563" lon="11.1951866"><ele>711.0</ele><time>2026-04-25T09:13:42.103Z</time></trkpt><trkpt lat="45.5544697" lon="11.1951746"><ele>711.0</ele><time>2026-04-25T09:13:43.104Z</time></trkpt><trkpt lat="45.5543801" lon="11.1951693"><ele>711.0</ele><time>2026-04-25T09:13:44.104Z</time></trkpt><trkpt lat="45.5542949" lon="11.195163"><ele>710.0</ele><time>2026-04-25T09:13:45.104Z</time></trkpt><trkpt lat="45.5542136" lon="11.1951441"><ele>709.0</ele><time>2026-04-25T09:13:46.104Z</time></trkpt><trkpt lat="45.5541357" lon="11.1951173"><ele>708.0</ele><time>2026-04-25T09:13:47.104Z</time></trkpt><trkpt lat="45.5540601" lon="11.1950823"><ele>707.0</ele><time>2026-04-25T09:13:48.103Z</time></trkpt><trkpt lat="45.5539802" lon="11.1950393"><ele>706.0</ele><time>2026-04-25T09:13:49.104Z</time></trkpt><trkpt lat="45.553909" lon="11.1949893"><ele>705.0</ele><time>2026-04-25T09:13:50.103Z</time></trkpt><trkpt lat="45.5538481" lon="11.1949409"><ele>705.6</ele><time>2026-04-25T09:13:51.103Z</time></trkpt><trkpt lat="45.5537744" lon="11.1948014"><ele>706.2</ele><time>2026-04-25T09:13:53.105Z</time></trkpt><trkpt lat="45.5537922" lon="11.1946204"><ele>706.8</ele><time>2026-04-25T09:13:55.103Z</time></trkpt><trkpt lat="45.5538397" lon="11.1945242"><ele>707.4</ele><time>2026-04-25T09:13:56.103Z</time></trkpt><trkpt lat="45.5539024" lon="11.1944269"><ele>708.0</ele><time>2026-04-25T09:13:57.104Z</time></trkpt><trkpt lat="45.5539583" lon="11.1943208"><ele>708.0</ele><time>2026-04-25T09:13:58.104Z</time></trkpt><trkpt lat="45.5540025" lon="11.1942093"><ele>708.0</ele><time>2026-04-25T09:13:59.103Z</time></trkpt><trkpt lat="45.5540226" lon="11.1940956"><ele>708.0</ele><time>2026-04-25T09:14:00.103Z</time></trkpt><trkpt lat="45.5540272" lon="11.1939787"><ele>708.0</ele><time>2026-04-25T09:14:01.103Z</time></trkpt><trkpt lat="45.5540147" lon="11.1938622"><ele>708.0</ele><time>2026-04-25T09:14:02.105Z</time></trkpt><trkpt lat="45.5539869" lon="11.1937473"><ele>708.0</ele><time>2026-04-25T09:14:03.103Z</time></trkpt><trkpt lat="45.553947" lon="11.1936286"><ele>707.1666666666666</ele><time>2026-04-25T09:14:04.103Z</time></trkpt><trkpt lat="45.5539046" lon="11.1935154"><ele>706.3333333333334</ele><time>2026-04-25T09:14:05.103Z</time></trkpt><trkpt lat="45.5538786" lon="11.1934003"><ele>705.5</ele><time>2026-04-25T09:14:06.105Z</time></trkpt><trkpt lat="45.5538759" lon="11.1932796"><ele>704.6666666666667</ele><time>2026-04-25T09:14:07.104Z</time></trkpt><trkpt lat="45.5538877" lon="11.1931465"><ele>703.8333333333334</ele><time>2026-04-25T09:14:08.103Z</time></trkpt><trkpt lat="45.5539042" lon="11.1930197"><ele>703.0</ele><time>2026-04-25T09:14:09.103Z</time></trkpt><trkpt lat="45.5539206" lon="11.1928945"><ele>701.5999999999999</ele><time>2026-04-25T09:14:10.104Z</time></trkpt><trkpt lat="45.5539421" lon="11.1927698"><ele>700.1999999999999</ele><time>2026-04-25T09:14:11.103Z</time></trkpt><trkpt lat="45.5539733" lon="11.1926514"><ele>698.8</ele><time>2026-04-25T09:14:12.103Z</time></trkpt><trkpt lat="45.5540203" lon="11.192532"><ele>697.4</ele><time>2026-04-25T09:14:13.103Z</time></trkpt><trkpt lat="45.5540754" lon="11.1924157"><ele>696.0</ele><time>2026-04-25T09:14:14.104Z</time></trkpt><trkpt lat="45.5541282" lon="11.1922982"><ele>694.5999999999999</ele><time>2026-04-25T09:14:15.103Z</time></trkpt><trkpt lat="45.5541641" lon="11.1921672"><ele>693.2</ele><time>2026-04-25T09:14:16.104Z</time></trkpt><trkpt lat="45.5541802" lon="11.1920275"><ele>691.8</ele><time>2026-04-25T09:14:17.103Z</time></trkpt><trkpt lat="45.5541769" lon="11.1918883"><ele>690.4000000000001</ele><time>2026-04-25T09:14:18.104Z</time></trkpt><trkpt lat="45.5541754" lon="11.1917468"><ele>689.0</ele><time>2026-04-25T09:14:19.104Z</time></trkpt><trkpt lat="45.5541753" lon="11.1915987"><ele>690.0</ele><time>2026-04-25T09:14:20.104Z</time></trkpt><trkpt lat="45.5541766" lon="11.1914403"><ele>691.0</ele><time>2026-04-25T09:14:21.103Z</time></trkpt><trkpt lat="45.554178" lon="11.1912673"><ele>692.0</ele><time>2026-04-25T09:14:22.103Z</time></trkpt><trkpt lat="45.5541742" lon="11.1910869"><ele>693.0</ele><time>2026-04-25T09:14:23.104Z</time></trkpt><trkpt lat="45.5541589" lon="11.1909034"><ele>693.0</ele><time>2026-04-25T09:14:24.104Z</time></trkpt><trkpt lat="45.5541232" lon="11.1907272"><ele>693.0</ele><time>2026-04-25T09:14:25.103Z</time></trkpt><trkpt lat="45.55406" lon="11.1905672"><ele>693.0</ele><time>2026-04-25T09:14:26.103Z</time></trkpt><trkpt lat="45.5539811" lon="11.1904239"><ele>693.0</ele><time>2026-04-25T09:14:27.104Z</time></trkpt><trkpt lat="45.5539167" lon="11.1902801"><ele>695.75</ele><time>2026-04-25T09:14:28.103Z</time></trkpt><trkpt lat="45.5538659" lon="11.190125"><ele>698.5</ele><time>2026-04-25T09:14:29.103Z</time></trkpt><trkpt lat="45.5538354" lon="11.1899628"><ele>701.25</ele><time>2026-04-25T09:14:30.104Z</time></trkpt><trkpt lat="45.5538222" lon="11.18979"><ele>704.0</ele><time>2026-04-25T09:14:31.103Z</time></trkpt><trkpt lat="45.5538134" lon="11.1896146"><ele>706.5</ele><time>2026-04-25T09:14:32.103Z</time></trkpt><trkpt lat="45.5538111" lon="11.1894343"><ele>709.0</ele><time>2026-04-25T09:14:33.104Z</time></trkpt><trkpt lat="45.5538258" lon="11.1892556"><ele>711.5</ele><time>2026-04-25T09:14:34.103Z</time></trkpt><trkpt lat="45.5538262" lon="11.189077"><ele>714.0</ele><time>2026-04-25T09:14:35.104Z</time></trkpt><trkpt lat="45.5537966" lon="11.1889048"><ele>709.5</ele><time>2026-04-25T09:14:36.103Z</time></trkpt><trkpt lat="45.553756" lon="11.1887354"><ele>705.0</ele><time>2026-04-25T09:14:37.103Z</time></trkpt><trkpt lat="45.5537074" lon="11.1885692"><ele>700.5</ele><time>2026-04-25T09:14:38.103Z</time></trkpt><trkpt lat="45.5536602" lon="11.1884062"><ele>696.0</ele><time>2026-04-25T09:14:39.103Z</time></trkpt><trkpt lat="45.5536098" lon="11.1882406"><ele>701.25</ele><time>2026-04-25T09:14:40.103Z</time></trkpt><trkpt lat="45.5535424" lon="11.1880886"><ele>706.5</ele><time>2026-04-25T09:14:41.103Z</time></trkpt><trkpt lat="45.553463" lon="11.1879455"><ele>711.75</ele><time>2026-04-25T09:14:42.103Z</time></trkpt><trkpt lat="45.5533857" lon="11.1877976"><ele>717.0</ele><time>2026-04-25T09:14:43.103Z</time></trkpt><trkpt lat="45.5533188" lon="11.1876496"><ele>717.0</ele><time>2026-04-25T09:14:44.104Z</time></trkpt><trkpt lat="45.5532645" lon="11.1875157"><ele>717.0</ele><time>2026-04-25T09:14:45.103Z</time></trkpt><trkpt lat="45.5532055" lon="11.1874039"><ele>717.0</ele><time>2026-04-25T09:14:46.103Z</time></trkpt><trkpt lat="45.5531285" lon="11.1873153"><ele>717.0</ele><time>2026-04-25T09:14:47.104Z</time></trkpt><trkpt lat="45.5530366" lon="11.1872656"><ele>717.0</ele><time>2026-04-25T09:14:48.103Z</time></trkpt><trkpt lat="45.5529313" lon="11.1872499"><ele>714.0</ele><time>2026-04-25T09:14:49.103Z</time></trkpt><trkpt lat="45.5528163" lon="11.1872589"><ele>711.0</ele><time>2026-04-25T09:14:50.104Z</time></trkpt><trkpt lat="45.5526903" lon="11.1872856"><ele>708.0</ele><time>2026-04-25T09:14:51.103Z</time></trkpt><trkpt lat="45.5525558" lon="11.1873218"><ele>705.0</ele><time>2026-04-25T09:14:52.104Z</time></trkpt><trkpt lat="45.5524186" lon="11.1873608"><ele>705.0</ele><time>2026-04-25T09:14:53.104Z</time></trkpt><trkpt lat="45.5522844" lon="11.1874022"><ele>705.0</ele><time>2026-04-25T09:14:54.104Z</time></trkpt><trkpt lat="45.5521554" lon="11.1874452"><ele>705.0</ele><time>2026-04-25T09:14:55.103Z</time></trkpt><trkpt lat="45.5520336" lon="11.1874876"><ele>705.0</ele><time>2026-04-25T09:14:56.104Z</time></trkpt><trkpt lat="45.5519217" lon="11.187528"><ele>704.6</ele><time>2026-04-25T09:14:57.103Z</time></trkpt><trkpt lat="45.551818" lon="11.1875547"><ele>704.2</ele><time>2026-04-25T09:14:58.103Z</time></trkpt><trkpt lat="45.5517221" lon="11.1875577"><ele>703.8</ele><time>2026-04-25T09:14:59.103Z</time></trkpt><trkpt lat="45.5516424" lon="11.1875514"><ele>703.4</ele><time>2026-04-25T09:15:00.104Z</time></trkpt><trkpt lat="45.5515746" lon="11.1875471"><ele>703.0</ele><time>2026-04-25T09:15:01.103Z</time></trkpt><trkpt lat="45.551482" lon="11.1874697"><ele>704.8</ele><time>2026-04-25T09:15:03.103Z</time></trkpt><trkpt lat="45.5514549" lon="11.1872724"><ele>706.5999999999999</ele><time>2026-04-25T09:15:05.103Z</time></trkpt><trkpt lat="45.5514482" lon="11.1871412"><ele>708.4000000000001</ele><time>2026-04-25T09:15:06.103Z</time></trkpt><trkpt lat="45.5514385" lon="11.1869959"><ele>710.2</ele><time>2026-04-25T09:15:07.104Z</time></trkpt><trkpt lat="45.5514164" lon="11.1868466"><ele>712.0</ele><time>2026-04-25T09:15:08.104Z</time></trkpt><trkpt lat="45.5513861" lon="11.1867008"><ele>712.0</ele><time>2026-04-25T09:15:09.103Z</time></trkpt><trkpt lat="45.5513474" lon="11.1865504"><ele>712.0</ele><time>2026-04-25T09:15:10.104Z</time></trkpt><trkpt lat="45.5513037" lon="11.1863997"><ele>712.0</ele><time>2026-04-25T09:15:11.105Z</time></trkpt><trkpt lat="45.5512602" lon="11.1862433"><ele>712.0</ele><time>2026-04-25T09:15:12.103Z</time></trkpt><trkpt lat="45.551217" lon="11.1860882"><ele>703.5</ele><time>2026-04-25T09:15:13.104Z</time></trkpt><trkpt lat="45.5511724" lon="11.1859335"><ele>695.0</ele><time>2026-04-25T09:15:14.103Z</time></trkpt><trkpt lat="45.5511264" lon="11.185772"><ele>686.5</ele><time>2026-04-25T09:15:15.104Z</time></trkpt><trkpt lat="45.5510836" lon="11.1856117"><ele>678.0</ele><time>2026-04-25T09:15:16.104Z</time></trkpt><trkpt lat="45.5510486" lon="11.1854544"><ele>676.2</ele><time>2026-04-25T09:15:17.104Z</time></trkpt><trkpt lat="45.5510221" lon="11.1853081"><ele>674.4</ele><time>2026-04-25T09:15:18.104Z</time></trkpt><trkpt lat="45.5510113" lon="11.1851632"><ele>672.6</ele><time>2026-04-25T09:15:19.103Z</time></trkpt><trkpt lat="45.5510172" lon="11.1850066"><ele>670.8000000000001</ele><time>2026-04-25T09:15:20.103Z</time></trkpt><trkpt lat="45.5510387" lon="11.1848667"><ele>669.0</ele><time>2026-04-25T09:15:21.103Z</time></trkpt><trkpt lat="45.5510753" lon="11.1847605"><ele>671.6</ele><time>2026-04-25T09:15:22.104Z</time></trkpt><trkpt lat="45.5511219" lon="11.1846585"><ele>674.2</ele><time>2026-04-25T09:15:23.104Z</time></trkpt><trkpt lat="45.551184" lon="11.1845643"><ele>676.8000000000001</ele><time>2026-04-25T09:15:24.103Z</time></trkpt><trkpt lat="45.5512552" lon="11.1844782"><ele>679.4000000000001</ele><time>2026-04-25T09:15:25.103Z</time></trkpt><trkpt lat="45.5513336" lon="11.1843957"><ele>682.0</ele><time>2026-04-25T09:15:26.103Z</time></trkpt><trkpt lat="45.5514145" lon="11.1843101"><ele>682.0</ele><time>2026-04-25T09:15:27.105Z</time></trkpt><trkpt lat="45.5514945" lon="11.1842187"><ele>682.0</ele><time>2026-04-25T09:15:28.103Z</time></trkpt><trkpt lat="45.5515654" lon="11.1841259"><ele>682.0</ele><time>2026-04-25T09:15:29.104Z</time></trkpt><trkpt lat="45.5516306" lon="11.1840378"><ele>682.0</ele><time>2026-04-25T09:15:30.103Z</time></trkpt><trkpt lat="45.5516861" lon="11.1839463"><ele>682.0</ele><time>2026-04-25T09:15:31.104Z</time></trkpt><trkpt lat="45.5517295" lon="11.1838463"><ele>678.5</ele><time>2026-04-25T09:15:32.103Z</time></trkpt><trkpt lat="45.5517684" lon="11.1837391"><ele>675.0</ele><time>2026-04-25T09:15:33.104Z</time></trkpt><trkpt lat="45.5518088" lon="11.1836276"><ele>671.5</ele><time>2026-04-25T09:15:34.104Z</time></trkpt><trkpt lat="45.551852" lon="11.1835121"><ele>668.0</ele><time>2026-04-25T09:15:35.103Z</time></trkpt><trkpt lat="45.5518943" lon="11.1834014"><ele>664.5</ele><time>2026-04-25T09:15:36.103Z</time></trkpt><trkpt lat="45.5519239" lon="11.1832983"><ele>661.0</ele><time>2026-04-25T09:15:37.103Z</time></trkpt><trkpt lat="45.5519327" lon="11.1831963"><ele>661.8333333333334</ele><time>2026-04-25T09:15:38.103Z</time></trkpt><trkpt lat="45.5519119" lon="11.1830999"><ele>662.6666666666667</ele><time>2026-04-25T09:15:39.103Z</time></trkpt><trkpt lat="45.5518649" lon="11.1830044"><ele>663.5</ele><time>2026-04-25T09:15:40.105Z</time></trkpt><trkpt lat="45.5518071" lon="11.1829051"><ele>664.3333333333334</ele><time>2026-04-25T09:15:41.103Z</time></trkpt><trkpt lat="45.5517462" lon="11.1827995"><ele>665.1666666666666</ele><time>2026-04-25T09:15:42.103Z</time></trkpt><trkpt lat="45.5516899" lon="11.1826848"><ele>666.0</ele><time>2026-04-25T09:15:43.104Z</time></trkpt><trkpt lat="45.5516476" lon="11.1825617"><ele>666.0</ele><time>2026-04-25T09:15:44.103Z</time></trkpt><trkpt lat="45.5516186" lon="11.1824253"><ele>666.0</ele><time>2026-04-25T09:15:45.104Z</time></trkpt><trkpt lat="45.5515918" lon="11.18228"><ele>666.0</ele><time>2026-04-25T09:15:46.103Z</time></trkpt><trkpt lat="45.551555" lon="11.1821317"><ele>666.0</ele><time>2026-04-25T09:15:47.103Z</time></trkpt><trkpt lat="45.5514898" lon="11.1820114"><ele>666.0</ele><time>2026-04-25T09:15:48.103Z</time></trkpt><trkpt lat="45.5514233" lon="11.1819038"><ele>668.1999999999999</ele><time>2026-04-25T09:15:49.103Z</time></trkpt><trkpt lat="45.5513544" lon="11.1818068"><ele>670.4</ele><time>2026-04-25T09:15:50.103Z</time></trkpt><trkpt lat="45.5512604" lon="11.1817589"><ele>672.6</ele><time>2026-04-25T09:15:51.104Z</time></trkpt><trkpt lat="45.5511593" lon="11.1817403"><ele>674.8</ele><time>2026-04-25T09:15:52.104Z</time></trkpt><trkpt lat="45.5510456" lon="11.1817389"><ele>677.0</ele><time>2026-04-25T09:15:53.103Z</time></trkpt><trkpt lat="45.5509276" lon="11.1817699"><ele>677.0</ele><time>2026-04-25T09:15:54.103Z</time></trkpt><trkpt lat="45.550814" lon="11.1818271"><ele>677.0</ele><time>2026-04-25T09:15:55.103Z</time></trkpt><trkpt lat="45.5506984" lon="11.1818919"><ele>677.0</ele><time>2026-04-25T09:15:56.105Z</time></trkpt><trkpt lat="45.5505783" lon="11.1819736"><ele>677.0</ele><time>2026-04-25T09:15:57.103Z</time></trkpt><trkpt lat="45.5504689" lon="11.1820617"><ele>678.25</ele><time>2026-04-25T09:15:58.103Z</time></trkpt><trkpt lat="45.5503615" lon="11.182157"><ele>679.5</ele><time>2026-04-25T09:15:59.104Z</time></trkpt><trkpt lat="45.5502491" lon="11.1822444"><ele>680.75</ele><time>2026-04-25T09:16:00.104Z</time></trkpt><trkpt lat="45.5501367" lon="11.1823057"><ele>682.0</ele><time>2026-04-25T09:16:01.103Z</time></trkpt><trkpt lat="45.5500233" lon="11.1823535"><ele>673.75</ele><time>2026-04-25T09:16:02.103Z</time></trkpt><trkpt lat="45.5499129" lon="11.1823728"><ele>665.5</ele><time>2026-04-25T09:16:03.104Z</time></trkpt><trkpt lat="45.5497974" lon="11.1823871"><ele>657.25</ele><time>2026-04-25T09:16:04.105Z</time></trkpt><trkpt lat="45.549679" lon="11.1824029"><ele>649.0</ele><time>2026-04-25T09:16:05.104Z</time></trkpt><trkpt lat="45.5495587" lon="11.1824334"><ele>652.5</ele><time>2026-04-25T09:16:06.104Z</time></trkpt><trkpt lat="45.5494423" lon="11.1824764"><ele>656.0</ele><time>2026-04-25T09:16:07.104Z</time></trkpt><trkpt lat="45.5493312" lon="11.1825336"><ele>659.5</ele><time>2026-04-25T09:16:08.104Z</time></trkpt><trkpt lat="45.5492305" lon="11.1826096"><ele>663.0</ele><time>2026-04-25T09:16:09.103Z</time></trkpt><trkpt lat="45.5491431" lon="11.1827046"><ele>663.0</ele><time>2026-04-25T09:16:10.103Z</time></trkpt><trkpt lat="45.5490665" lon="11.182814"><ele>663.0</ele><time>2026-04-25T09:16:11.104Z</time></trkpt><trkpt lat="45.5489868" lon="11.1829256"><ele>663.0</ele><time>2026-04-25T09:16:12.103Z</time></trkpt><trkpt lat="45.5488974" lon="11.183025"><ele>663.0</ele><time>2026-04-25T09:16:13.103Z</time></trkpt><trkpt lat="45.5487959" lon="11.1831134"><ele>660.5</ele><time>2026-04-25T09:16:14.104Z</time></trkpt><trkpt lat="45.5486954" lon="11.1832045"><ele>658.0</ele><time>2026-04-25T09:16:15.104Z</time></trkpt><trkpt lat="45.548597" lon="11.1833062"><ele>655.5</ele><time>2026-04-25T09:16:16.103Z</time></trkpt><trkpt lat="45.5485014" lon="11.1834089"><ele>653.0</ele><time>2026-04-25T09:16:17.103Z</time></trkpt><trkpt lat="45.5483937" lon="11.1835002"><ele>653.0</ele><time>2026-04-25T09:16:18.103Z</time></trkpt><trkpt lat="45.5482781" lon="11.1835631"><ele>653.0</ele><time>2026-04-25T09:16:19.103Z</time></trkpt><trkpt lat="45.5481644" lon="11.1836361"><ele>653.0</ele><time>2026-04-25T09:16:20.105Z</time></trkpt><trkpt lat="45.5480576" lon="11.1837241"><ele>653.0</ele><time>2026-04-25T09:16:21.104Z</time></trkpt><trkpt lat="45.5479641" lon="11.1838413"><ele>653.0</ele><time>2026-04-25T09:16:22.103Z</time></trkpt><trkpt lat="45.5478828" lon="11.1839801"><ele>653.0</ele><time>2026-04-25T09:16:23.104Z</time></trkpt><trkpt lat="45.5477987" lon="11.1841109"><ele>653.0</ele><time>2026-04-25T09:16:24.104Z</time></trkpt><trkpt lat="45.5477096" lon="11.1842234"><ele>653.0</ele><time>2026-04-25T09:16:25.104Z</time></trkpt><trkpt lat="45.5476143" lon="11.1843219"><ele>650.25</ele><time>2026-04-25T09:16:26.103Z</time></trkpt><trkpt lat="45.5475134" lon="11.1843927"><ele>647.5</ele><time>2026-04-25T09:16:27.103Z</time></trkpt><trkpt lat="45.5474029" lon="11.1844416"><ele>644.75</ele><time>2026-04-25T09:16:28.104Z</time></trkpt><trkpt lat="45.5472883" lon="11.1844783"><ele>642.0</ele><time>2026-04-25T09:16:29.104Z</time></trkpt><trkpt lat="45.5471683" lon="11.1845331"><ele>642.0</ele><time>2026-04-25T09:16:30.103Z</time></trkpt><trkpt lat="45.5470474" lon="11.1845919"><ele>642.0</ele><time>2026-04-25T09:16:31.103Z</time></trkpt><trkpt lat="45.5469303" lon="11.1846576"><ele>642.0</ele><time>2026-04-25T09:16:32.103Z</time></trkpt><trkpt lat="45.54681" lon="11.1847175"><ele>642.0</ele><time>2026-04-25T09:16:33.104Z</time></trkpt><trkpt lat="45.5466851" lon="11.1847416"><ele>644.0</ele><time>2026-04-25T09:16:34.104Z</time></trkpt><trkpt lat="45.5465551" lon="11.184741"><ele>646.0</ele><time>2026-04-25T09:16:35.104Z</time></trkpt><trkpt lat="45.5464209" lon="11.1847411"><ele>648.0</ele><time>2026-04-25T09:16:36.103Z</time></trkpt><trkpt lat="45.5462873" lon="11.1847682"><ele>650.0</ele><time>2026-04-25T09:16:37.103Z</time></trkpt><trkpt lat="45.5461548" lon="11.1848023"><ele>644.0</ele><time>2026-04-25T09:16:38.104Z</time></trkpt><trkpt lat="45.5460228" lon="11.1848697"><ele>638.0</ele><time>2026-04-25T09:16:39.103Z</time></trkpt><trkpt lat="45.5458886" lon="11.1849286"><ele>632.0</ele><time>2026-04-25T09:16:40.103Z</time></trkpt><trkpt lat="45.5457573" lon="11.1849741"><ele>626.0</ele><time>2026-04-25T09:16:41.103Z</time></trkpt><trkpt lat="45.5456271" lon="11.1850164"><ele>626.0</ele><time>2026-04-25T09:16:42.104Z</time></trkpt><trkpt lat="45.5455017" lon="11.1850509"><ele>626.0</ele><time>2026-04-25T09:16:43.104Z</time></trkpt><trkpt lat="45.5453872" lon="11.1850764"><ele>626.0</ele><time>2026-04-25T09:16:44.103Z</time></trkpt><trkpt lat="45.5452808" lon="11.1850858"><ele>626.0</ele><time>2026-04-25T09:16:45.104Z</time></trkpt><trkpt lat="45.5451843" lon="11.1850679"><ele>626.0</ele><time>2026-04-25T09:16:46.104Z</time></trkpt><trkpt lat="45.5450819" lon="11.1850278"><ele>626.0</ele><time>2026-04-25T09:16:47.104Z</time></trkpt><trkpt lat="45.5449768" lon="11.1849864"><ele>626.0</ele><time>2026-04-25T09:16:48.103Z</time></trkpt><trkpt lat="45.5448695" lon="11.1849402"><ele>626.0</ele><time>2026-04-25T09:16:49.103Z</time></trkpt><trkpt lat="45.5447646" lon="11.18489"><ele>626.0</ele><time>2026-04-25T09:16:50.103Z</time></trkpt><trkpt lat="45.5446589" lon="11.1848429"><ele>626.0</ele><time>2026-04-25T09:16:51.104Z</time></trkpt><trkpt lat="45.5445551" lon="11.1848036"><ele>627.4</ele><time>2026-04-25T09:16:52.103Z</time></trkpt><trkpt lat="45.5444538" lon="11.1847768"><ele>628.8</ele><time>2026-04-25T09:16:53.103Z</time></trkpt><trkpt lat="45.5443565" lon="11.184733"><ele>630.1999999999999</ele><time>2026-04-25T09:16:54.103Z</time></trkpt><trkpt lat="45.5442603" lon="11.1846697"><ele>631.6</ele><time>2026-04-25T09:16:55.104Z</time></trkpt><trkpt lat="45.5441616" lon="11.1845901"><ele>633.0</ele><time>2026-04-25T09:16:56.105Z</time></trkpt><trkpt lat="45.5440591" lon="11.1844946"><ele>633.0</ele><time>2026-04-25T09:16:57.105Z</time></trkpt><trkpt lat="45.5439519" lon="11.1843949"><ele>633.0</ele><time>2026-04-25T09:16:58.104Z</time></trkpt><trkpt lat="45.5438398" lon="11.1842996"><ele>633.0</ele><time>2026-04-25T09:16:59.105Z</time></trkpt><trkpt lat="45.5437182" lon="11.1842269"><ele>633.0</ele><time>2026-04-25T09:17:00.103Z</time></trkpt><trkpt lat="45.5435939" lon="11.1841679"><ele>628.25</ele><time>2026-04-25T09:17:01.104Z</time></trkpt><trkpt lat="45.5434631" lon="11.1841251"><ele>623.5</ele><time>2026-04-25T09:17:02.103Z</time></trkpt><trkpt lat="45.5433221" lon="11.1841035"><ele>618.75</ele><time>2026-04-25T09:17:03.104Z</time></trkpt><trkpt lat="45.5431795" lon="11.1840995"><ele>614.0</ele><time>2026-04-25T09:17:04.104Z</time></trkpt><trkpt lat="45.5430357" lon="11.1841001"><ele>614.0</ele><time>2026-04-25T09:17:05.103Z</time></trkpt><trkpt lat="45.5428979" lon="11.1840997"><ele>614.0</ele><time>2026-04-25T09:17:06.103Z</time></trkpt><trkpt lat="45.5427755" lon="11.1841021"><ele>614.0</ele><time>2026-04-25T09:17:07.104Z</time></trkpt><trkpt lat="45.5426617" lon="11.1841082"><ele>614.0</ele><time>2026-04-25T09:17:08.104Z</time></trkpt><trkpt lat="45.5425545" lon="11.1841192"><ele>612.5</ele><time>2026-04-25T09:17:09.103Z</time></trkpt><trkpt lat="45.5424435" lon="11.1841354"><ele>611.0</ele><time>2026-04-25T09:17:10.103Z</time></trkpt><trkpt lat="45.5423245" lon="11.1841476"><ele>609.5</ele><time>2026-04-25T09:17:11.104Z</time></trkpt><trkpt lat="45.5421981" lon="11.1841482"><ele>608.0</ele><time>2026-04-25T09:17:12.104Z</time></trkpt><trkpt lat="45.5420743" lon="11.1841376"><ele>606.5</ele><time>2026-04-25T09:17:13.103Z</time></trkpt><trkpt lat="45.5419483" lon="11.1841239"><ele>605.0</ele><time>2026-04-25T09:17:14.104Z</time></trkpt><trkpt lat="45.5418209" lon="11.1841096"><ele>603.5</ele><time>2026-04-25T09:17:15.104Z</time></trkpt><trkpt lat="45.5416908" lon="11.1840874"><ele>602.0</ele><time>2026-04-25T09:17:16.104Z</time></trkpt><trkpt lat="45.5415622" lon="11.1840472"><ele>606.5</ele><time>2026-04-25T09:17:17.103Z</time></trkpt><trkpt lat="45.5414312" lon="11.1839884"><ele>611.0</ele><time>2026-04-25T09:17:18.104Z</time></trkpt><trkpt lat="45.5413027" lon="11.1839133"><ele>615.5</ele><time>2026-04-25T09:17:19.103Z</time></trkpt><trkpt lat="45.5411727" lon="11.1838344"><ele>620.0</ele><time>2026-04-25T09:17:20.104Z</time></trkpt><trkpt lat="45.5410376" lon="11.1837701"><ele>620.0</ele><time>2026-04-25T09:17:21.103Z</time></trkpt><trkpt lat="45.540899" lon="11.1837125"><ele>620.0</ele><time>2026-04-25T09:17:22.104Z</time></trkpt><trkpt lat="45.5407628" lon="11.1836639"><ele>620.0</ele><time>2026-04-25T09:17:23.103Z</time></trkpt><trkpt lat="45.5406272" lon="11.1836256"><ele>620.0</ele><time>2026-04-25T09:17:24.105Z</time></trkpt><trkpt lat="45.5404933" lon="11.1835975"><ele>617.5</ele><time>2026-04-25T09:17:25.103Z</time></trkpt><trkpt lat="45.5403644" lon="11.1835705"><ele>615.0</ele><time>2026-04-25T09:17:26.103Z</time></trkpt><trkpt lat="45.5402426" lon="11.1835244"><ele>612.5</ele><time>2026-04-25T09:17:27.104Z</time></trkpt><trkpt lat="45.5401269" lon="11.183465"><ele>610.0</ele><time>2026-04-25T09:17:28.104Z</time></trkpt><trkpt lat="45.5400128" lon="11.1834093"><ele>610.0</ele><time>2026-04-25T09:17:29.103Z</time></trkpt><trkpt lat="45.5399016" lon="11.1833634"><ele>610.0</ele><time>2026-04-25T09:17:30.105Z</time></trkpt><trkpt lat="45.5397966" lon="11.1833221"><ele>610.0</ele><time>2026-04-25T09:17:31.103Z</time></trkpt><trkpt lat="45.5397019" lon="11.1832768"><ele>610.0</ele><time>2026-04-25T09:17:32.104Z</time></trkpt><trkpt lat="45.5396163" lon="11.1832197"><ele>610.0</ele><time>2026-04-25T09:17:33.104Z</time></trkpt><trkpt lat="45.5395331" lon="11.1831477"><ele>608.2</ele><time>2026-04-25T09:17:34.103Z</time></trkpt><trkpt lat="45.5394657" lon="11.1830568"><ele>606.4</ele><time>2026-04-25T09:17:35.104Z</time></trkpt><trkpt lat="45.5394079" lon="11.1829355"><ele>604.6</ele><time>2026-04-25T09:17:36.104Z</time></trkpt><trkpt lat="45.539354" lon="11.1827926"><ele>602.8</ele><time>2026-04-25T09:17:37.103Z</time></trkpt><trkpt lat="45.5393035" lon="11.1826341"><ele>601.0</ele><time>2026-04-25T09:17:38.103Z</time></trkpt><trkpt lat="45.539252" lon="11.1824751"><ele>603.0</ele><time>2026-04-25T09:17:39.103Z</time></trkpt><trkpt lat="45.5392047" lon="11.1823165"><ele>605.0</ele><time>2026-04-25T09:17:40.103Z</time></trkpt><trkpt lat="45.5391603" lon="11.1821661"><ele>607.0</ele><time>2026-04-25T09:17:41.104Z</time></trkpt><trkpt lat="45.539114" lon="11.1820267"><ele>609.0</ele><time>2026-04-25T09:17:42.103Z</time></trkpt><trkpt lat="45.5390643" lon="11.1819001"><ele>611.0</ele><time>2026-04-25T09:17:43.103Z</time></trkpt><trkpt lat="45.5390146" lon="11.1817804"><ele>611.0</ele><time>2026-04-25T09:17:44.103Z</time></trkpt><trkpt lat="45.5389574" lon="11.1816647"><ele>611.0</ele><time>2026-04-25T09:17:45.103Z</time></trkpt><trkpt lat="45.5388849" lon="11.1815551"><ele>611.0</ele><time>2026-04-25T09:17:46.104Z</time></trkpt><trkpt lat="45.5387988" lon="11.1814521"><ele>611.0</ele><time>2026-04-25T09:17:47.103Z</time></trkpt><trkpt lat="45.5387078" lon="11.1813621"><ele>611.0</ele><time>2026-04-25T09:17:48.103Z</time></trkpt><trkpt lat="45.5386119" lon="11.1812673"><ele>607.0</ele><time>2026-04-25T09:17:49.104Z</time></trkpt><trkpt lat="45.5385159" lon="11.1811769"><ele>603.0</ele><time>2026-04-25T09:17:50.105Z</time></trkpt><trkpt lat="45.5384239" lon="11.1810909"><ele>599.0</ele><time>2026-04-25T09:17:51.103Z</time></trkpt><trkpt lat="45.538334" lon="11.1810119"><ele>595.0</ele><time>2026-04-25T09:17:52.103Z</time></trkpt><trkpt lat="45.5382461" lon="11.18094"><ele>591.0</ele><time>2026-04-25T09:17:53.103Z</time></trkpt><trkpt lat="45.5381611" lon="11.1808748"><ele>591.0</ele><time>2026-04-25T09:17:54.103Z</time></trkpt><trkpt lat="45.5380799" lon="11.1808213"><ele>591.0</ele><time>2026-04-25T09:17:55.104Z</time></trkpt><trkpt lat="45.5380043" lon="11.1807777"><ele>591.0</ele><time>2026-04-25T09:17:56.103Z</time></trkpt><trkpt lat="45.5379231" lon="11.1807442"><ele>591.0</ele><time>2026-04-25T09:17:57.104Z</time></trkpt><trkpt lat="45.537842" lon="11.1807253"><ele>591.0</ele><time>2026-04-25T09:17:58.104Z</time></trkpt><trkpt lat="45.5377596" lon="11.180719"><ele>591.0</ele><time>2026-04-25T09:17:59.104Z</time></trkpt><trkpt lat="45.5376818" lon="11.1807224"><ele>589.1666666666666</ele><time>2026-04-25T09:18:00.103Z</time></trkpt><trkpt lat="45.537611" lon="11.1807309"><ele>587.3333333333334</ele><time>2026-04-25T09:18:01.104Z</time></trkpt><trkpt lat="45.5375411" lon="11.1807434"><ele>585.5</ele><time>2026-04-25T09:18:02.104Z</time></trkpt><trkpt lat="45.5374678" lon="11.1807647"><ele>583.6666666666667</ele><time>2026-04-25T09:18:03.103Z</time></trkpt><trkpt lat="45.537391" lon="11.1807803"><ele>581.8333333333334</ele><time>2026-04-25T09:18:04.104Z</time></trkpt><trkpt lat="45.537309" lon="11.1807884"><ele>580.0</ele><time>2026-04-25T09:18:05.104Z</time></trkpt><trkpt lat="45.537226" lon="11.1807988"><ele>580.0</ele><time>2026-04-25T09:18:06.104Z</time></trkpt><trkpt lat="45.5371405" lon="11.1808118"><ele>580.0</ele><time>2026-04-25T09:18:07.104Z</time></trkpt><trkpt lat="45.5370535" lon="11.1808291"><ele>580.0</ele><time>2026-04-25T09:18:08.104Z</time></trkpt><trkpt lat="45.5369642" lon="11.1808447"><ele>580.0</ele><time>2026-04-25T09:18:09.104Z</time></trkpt><trkpt lat="45.5368734" lon="11.1808496"><ele>580.0</ele><time>2026-04-25T09:18:10.103Z</time></trkpt><trkpt lat="45.5367829" lon="11.1808533"><ele>580.0</ele><time>2026-04-25T09:18:11.103Z</time></trkpt><trkpt lat="45.5366949" lon="11.1808526"><ele>578.8333333333334</ele><time>2026-04-25T09:18:12.103Z</time></trkpt><trkpt lat="45.5366096" lon="11.1808465"><ele>577.6666666666667</ele><time>2026-04-25T09:18:13.104Z</time></trkpt><trkpt lat="45.5365283" lon="11.1808312"><ele>576.5</ele><time>2026-04-25T09:18:14.103Z</time></trkpt><trkpt lat="45.5364463" lon="11.1808137"><ele>575.3333333333334</ele><time>2026-04-25T09:18:15.103Z</time></trkpt><trkpt lat="45.536364" lon="11.180797"><ele>574.1666666666666</ele><time>2026-04-25T09:18:16.104Z</time></trkpt><trkpt lat="45.5362808" lon="11.1807838"><ele>573.0</ele><time>2026-04-25T09:18:17.103Z</time></trkpt><trkpt lat="45.5361977" lon="11.1807786"><ele>572.6666666666666</ele><time>2026-04-25T09:18:18.104Z</time></trkpt><trkpt lat="45.5361153" lon="11.1807821"><ele>572.3333333333334</ele><time>2026-04-25T09:18:19.103Z</time></trkpt><trkpt lat="45.5360312" lon="11.1807986"><ele>572.0</ele><time>2026-04-25T09:18:20.104Z</time></trkpt><trkpt lat="45.5359472" lon="11.1808249"><ele>571.6666666666667</ele><time>2026-04-25T09:18:21.104Z</time></trkpt><trkpt lat="45.535856" lon="11.180857"><ele>571.3333333333334</ele><time>2026-04-25T09:18:22.104Z</time></trkpt><trkpt lat="45.5357597" lon="11.1808895"><ele>571.0</ele><time>2026-04-25T09:18:23.103Z</time></trkpt><trkpt lat="45.5356608" lon="11.1809238"><ele>571.0</ele><time>2026-04-25T09:18:24.105Z</time></trkpt><trkpt lat="45.5355603" lon="11.1809598"><ele>571.0</ele><time>2026-04-25T09:18:25.104Z</time></trkpt><trkpt lat="45.5354667" lon="11.181"><ele>571.0</ele><time>2026-04-25T09:18:26.103Z</time></trkpt><trkpt lat="45.5353785" lon="11.1810427"><ele>571.0</ele><time>2026-04-25T09:18:27.104Z</time></trkpt><trkpt lat="45.5352933" lon="11.1810853"><ele>571.0</ele><time>2026-04-25T09:18:28.104Z</time></trkpt><trkpt lat="45.5352089" lon="11.1811252"><ele>568.4</ele><time>2026-04-25T09:18:29.103Z</time></trkpt><trkpt lat="45.5351254" lon="11.181164"><ele>565.8</ele><time>2026-04-25T09:18:30.104Z</time></trkpt><trkpt lat="45.5350397" lon="11.1811955"><ele>563.1999999999999</ele><time>2026-04-25T09:18:31.103Z</time></trkpt><trkpt lat="45.5349481" lon="11.1812176"><ele>560.6</ele><time>2026-04-25T09:18:32.104Z</time></trkpt><trkpt lat="45.534854" lon="11.1812357"><ele>558.0</ele><time>2026-04-25T09:18:33.104Z</time></trkpt><trkpt lat="45.5347609" lon="11.1812427"><ele>558.0</ele><time>2026-04-25T09:18:34.103Z</time></trkpt><trkpt lat="45.5346668" lon="11.181237"><ele>558.0</ele><time>2026-04-25T09:18:35.104Z</time></trkpt><trkpt lat="45.5345688" lon="11.1812253"><ele>558.0</ele><time>2026-04-25T09:18:36.103Z</time></trkpt><trkpt lat="45.5344667" lon="11.1812118"><ele>558.0</ele><time>2026-04-25T09:18:37.104Z</time></trkpt><trkpt lat="45.5343616" lon="11.1811972"><ele>558.0</ele><time>2026-04-25T09:18:38.104Z</time></trkpt><trkpt lat="45.5342544" lon="11.1811867"><ele>557.6</ele><time>2026-04-25T09:18:39.103Z</time></trkpt><trkpt lat="45.5341551" lon="11.1811839"><ele>557.1999999999999</ele><time>2026-04-25T09:18:40.103Z</time></trkpt><trkpt lat="45.5340613" lon="11.1811887"><ele>556.8</ele><time>2026-04-25T09:18:41.104Z</time></trkpt><trkpt lat="45.5339712" lon="11.1812113"><ele>556.4</ele><time>2026-04-25T09:18:42.103Z</time></trkpt><trkpt lat="45.5338829" lon="11.1812503"><ele>556.0</ele><time>2026-04-25T09:18:43.104Z</time></trkpt><trkpt lat="45.5337889" lon="11.1813087"><ele>556.5</ele><time>2026-04-25T09:18:44.104Z</time></trkpt><trkpt lat="45.5336907" lon="11.1813799"><ele>557.0</ele><time>2026-04-25T09:18:45.104Z</time></trkpt><trkpt lat="45.5335875" lon="11.1814665"><ele>557.5</ele><time>2026-04-25T09:18:46.104Z</time></trkpt><trkpt lat="45.5334805" lon="11.181555"><ele>558.0</ele><time>2026-04-25T09:18:47.104Z</time></trkpt><trkpt lat="45.533371" lon="11.1816416"><ele>558.0</ele><time>2026-04-25T09:18:48.103Z</time></trkpt><trkpt lat="45.533259" lon="11.1817195"><ele>558.0</ele><time>2026-04-25T09:18:49.103Z</time></trkpt><trkpt lat="45.5331476" lon="11.1817949"><ele>558.0</ele><time>2026-04-25T09:18:50.104Z</time></trkpt><trkpt lat="45.5330406" lon="11.1818656"><ele>558.0</ele><time>2026-04-25T09:18:51.105Z</time></trkpt><trkpt lat="45.5329346" lon="11.1819254"><ele>553.0</ele><time>2026-04-25T09:18:52.104Z</time></trkpt><trkpt lat="45.5328303" lon="11.1819839"><ele>548.0</ele><time>2026-04-25T09:18:53.104Z</time></trkpt><trkpt lat="45.5327267" lon="11.1820481"><ele>543.0</ele><time>2026-04-25T09:18:54.103Z</time></trkpt><trkpt lat="45.5326279" lon="11.1821283"><ele>538.0</ele><time>2026-04-25T09:18:55.103Z</time></trkpt><trkpt lat="45.5325304" lon="11.182221"><ele>538.0</ele><time>2026-04-25T09:18:56.104Z</time></trkpt><trkpt lat="45.5324378" lon="11.1823103"><ele>538.0</ele><time>2026-04-25T09:18:57.103Z</time></trkpt><trkpt lat="45.5323473" lon="11.1823959"><ele>538.0</ele><time>2026-04-25T09:18:58.104Z</time></trkpt><trkpt lat="45.5322594" lon="11.1824749"><ele>538.0</ele><time>2026-04-25T09:18:59.104Z</time></trkpt><trkpt lat="45.532173" lon="11.1825445"><ele>538.0</ele><time>2026-04-25T09:19:00.105Z</time></trkpt><trkpt lat="45.5320838" lon="11.1826011"><ele>539.0</ele><time>2026-04-25T09:19:01.103Z</time></trkpt><trkpt lat="45.5319952" lon="11.1826467"><ele>540.0</ele><time>2026-04-25T09:19:02.104Z</time></trkpt><trkpt lat="45.5319133" lon="11.1826836"><ele>541.0</ele><time>2026-04-25T09:19:03.103Z</time></trkpt><trkpt lat="45.5318368" lon="11.1827053"><ele>542.0</ele><time>2026-04-25T09:19:04.103Z</time></trkpt><trkpt lat="45.5317652" lon="11.1827197"><ele>543.0</ele><time>2026-04-25T09:19:05.103Z</time></trkpt><trkpt lat="45.5316893" lon="11.1827253"><ele>544.0</ele><time>2026-04-25T09:19:06.104Z</time></trkpt><trkpt lat="45.5316082" lon="11.1827259"><ele>544.0</ele><time>2026-04-25T09:19:07.103Z</time></trkpt><trkpt lat="45.5315202" lon="11.1827251"><ele>544.0</ele><time>2026-04-25T09:19:08.104Z</time></trkpt><trkpt lat="45.5314265" lon="11.1827215"><ele>544.0</ele><time>2026-04-25T09:19:09.103Z</time></trkpt><trkpt lat="45.5313309" lon="11.182702"><ele>544.0</ele><time>2026-04-25T09:19:10.104Z</time></trkpt><trkpt lat="45.5312375" lon="11.1826613"><ele>544.0</ele><time>2026-04-25T09:19:11.105Z</time></trkpt><trkpt lat="45.5311442" lon="11.1826016"><ele>544.2</ele><time>2026-04-25T09:19:12.103Z</time></trkpt><trkpt lat="45.5310512" lon="11.1825288"><ele>544.4</ele><time>2026-04-25T09:19:13.103Z</time></trkpt><trkpt lat="45.5309547" lon="11.18245"><ele>544.6</ele><time>2026-04-25T09:19:14.103Z</time></trkpt><trkpt lat="45.5308574" lon="11.1823647"><ele>544.8</ele><time>2026-04-25T09:19:15.103Z</time></trkpt><trkpt lat="45.5307623" lon="11.1822773"><ele>545.0</ele><time>2026-04-25T09:19:16.104Z</time></trkpt><trkpt lat="45.5306653" lon="11.1821866"><ele>544.8</ele><time>2026-04-25T09:19:17.103Z</time></trkpt><trkpt lat="45.5305711" lon="11.1820954"><ele>544.6</ele><time>2026-04-25T09:19:18.103Z</time></trkpt><trkpt lat="45.5304809" lon="11.1820016"><ele>544.4</ele><time>2026-04-25T09:19:19.104Z</time></trkpt><trkpt lat="45.5303943" lon="11.1819052"><ele>544.2</ele><time>2026-04-25T09:19:20.103Z</time></trkpt><trkpt lat="45.5303074" lon="11.1818122"><ele>544.0</ele><time>2026-04-25T09:19:21.104Z</time></trkpt><trkpt lat="45.5302236" lon="11.1817138"><ele>544.0</ele><time>2026-04-25T09:19:22.104Z</time></trkpt><trkpt lat="45.5301369" lon="11.1816157"><ele>544.0</ele><time>2026-04-25T09:19:23.103Z</time></trkpt><trkpt lat="45.5300532" lon="11.1815173"><ele>544.0</ele><time>2026-04-25T09:19:24.104Z</time></trkpt><trkpt lat="45.5299684" lon="11.1814125"><ele>544.0</ele><time>2026-04-25T09:19:25.103Z</time></trkpt><trkpt lat="45.5298897" lon="11.1813066"><ele>544.0</ele><time>2026-04-25T09:19:26.104Z</time></trkpt><trkpt lat="45.5298076" lon="11.1812044"><ele>542.4</ele><time>2026-04-25T09:19:27.103Z</time></trkpt><trkpt lat="45.5297239" lon="11.1811097"><ele>540.8</ele><time>2026-04-25T09:19:28.104Z</time></trkpt><trkpt lat="45.5296368" lon="11.1810244"><ele>539.2</ele><time>2026-04-25T09:19:29.104Z</time></trkpt><trkpt lat="45.5295437" lon="11.180958"><ele>537.6</ele><time>2026-04-25T09:19:30.103Z</time></trkpt><trkpt lat="45.5294368" lon="11.1809142"><ele>536.0</ele><time>2026-04-25T09:19:31.104Z</time></trkpt><trkpt lat="45.5293253" lon="11.1808836"><ele>536.0</ele><time>2026-04-25T09:19:32.103Z</time></trkpt><trkpt lat="45.5292169" lon="11.1808573"><ele>536.0</ele><time>2026-04-25T09:19:33.103Z</time></trkpt><trkpt lat="45.5291121" lon="11.1808251"><ele>536.0</ele><time>2026-04-25T09:19:34.105Z</time></trkpt><trkpt lat="45.529017" lon="11.1807702"><ele>536.0</ele><time>2026-04-25T09:19:35.103Z</time></trkpt><trkpt lat="45.5289339" lon="11.1806892"><ele>536.0</ele><time>2026-04-25T09:19:36.104Z</time></trkpt><trkpt lat="45.5288608" lon="11.1805897"><ele>534.2</ele><time>2026-04-25T09:19:37.104Z</time></trkpt><trkpt lat="45.5287999" lon="11.1804794"><ele>532.4000000000001</ele><time>2026-04-25T09:19:38.104Z</time></trkpt><trkpt lat="45.5287475" lon="11.1803645"><ele>530.6</ele><time>2026-04-25T09:19:39.105Z</time></trkpt><trkpt lat="45.5286946" lon="11.1802537"><ele>528.8000000000001</ele><time>2026-04-25T09:19:40.104Z</time></trkpt><trkpt lat="45.5286389" lon="11.1801455"><ele>527.0</ele><time>2026-04-25T09:19:41.105Z</time></trkpt><trkpt lat="45.5285803" lon="11.1800428"><ele>527.0</ele><time>2026-04-25T09:19:42.103Z</time></trkpt><trkpt lat="45.5285131" lon="11.1799497"><ele>527.0</ele><time>2026-04-25T09:19:43.105Z</time></trkpt><trkpt lat="45.5284292" lon="11.179873"><ele>527.0</ele><time>2026-04-25T09:19:44.104Z</time></trkpt><trkpt lat="45.5283305" lon="11.1798302"><ele>527.0</ele><time>2026-04-25T09:19:45.104Z</time></trkpt><trkpt lat="45.528221" lon="11.1798172"><ele>527.0</ele><time>2026-04-25T09:19:46.103Z</time></trkpt><trkpt lat="45.5281053" lon="11.179813"><ele>523.75</ele><time>2026-04-25T09:19:47.103Z</time></trkpt><trkpt lat="45.5279857" lon="11.1798125"><ele>520.5</ele><time>2026-04-25T09:19:48.103Z</time></trkpt><trkpt lat="45.5278693" lon="11.1798134"><ele>517.25</ele><time>2026-04-25T09:19:49.103Z</time></trkpt><trkpt lat="45.5277531" lon="11.1798166"><ele>514.0</ele><time>2026-04-25T09:19:50.103Z</time></trkpt><trkpt lat="45.5276376" lon="11.1798219"><ele>514.0</ele><time>2026-04-25T09:19:51.104Z</time></trkpt><trkpt lat="45.5275326" lon="11.1797878"><ele>514.0</ele><time>2026-04-25T09:19:52.103Z</time></trkpt><trkpt lat="45.5274387" lon="11.1797073"><ele>514.0</ele><time>2026-04-25T09:19:53.103Z</time></trkpt><trkpt lat="45.5273597" lon="11.1795888"><ele>514.0</ele><time>2026-04-25T09:19:54.103Z</time></trkpt><trkpt lat="45.5273036" lon="11.179449"><ele>514.0</ele><time>2026-04-25T09:19:55.103Z</time></trkpt><trkpt lat="45.5272766" lon="11.1792884"><ele>514.0</ele><time>2026-04-25T09:19:56.104Z</time></trkpt><trkpt lat="45.5272647" lon="11.1791166"><ele>514.0</ele><time>2026-04-25T09:19:57.104Z</time></trkpt><trkpt lat="45.5272521" lon="11.1789407"><ele>514.0</ele><time>2026-04-25T09:19:58.103Z</time></trkpt><trkpt lat="45.5272379" lon="11.1787596"><ele>514.0</ele><time>2026-04-25T09:19:59.103Z</time></trkpt><trkpt lat="45.5272205" lon="11.1785795"><ele>511.0</ele><time>2026-04-25T09:20:00.104Z</time></trkpt><trkpt lat="45.5271974" lon="11.1784087"><ele>508.0</ele><time>2026-04-25T09:20:01.103Z</time></trkpt><trkpt lat="45.5271681" lon="11.1782415"><ele>505.0</ele><time>2026-04-25T09:20:02.103Z</time></trkpt><trkpt lat="45.5271395" lon="11.1780754"><ele>502.0</ele><time>2026-04-25T09:20:03.104Z</time></trkpt><trkpt lat="45.5271167" lon="11.1779077"><ele>499.75</ele><time>2026-04-25T09:20:04.103Z</time></trkpt><trkpt lat="45.5271029" lon="11.1777339"><ele>497.5</ele><time>2026-04-25T09:20:05.103Z</time></trkpt><trkpt lat="45.5270942" lon="11.1775578"><ele>495.25</ele><time>2026-04-25T09:20:06.104Z</time></trkpt><trkpt lat="45.5270899" lon="11.1773772"><ele>493.0</ele><time>2026-04-25T09:20:07.104Z</time></trkpt><trkpt lat="45.5270847" lon="11.1771992"><ele>492.0</ele><time>2026-04-25T09:20:08.104Z</time></trkpt><trkpt lat="45.5270854" lon="11.1770216"><ele>491.0</ele><time>2026-04-25T09:20:09.103Z</time></trkpt><trkpt lat="45.5270841" lon="11.1768446"><ele>490.0</ele><time>2026-04-25T09:20:10.103Z</time></trkpt><trkpt lat="45.5270754" lon="11.1766699"><ele>489.0</ele><time>2026-04-25T09:20:11.104Z</time></trkpt><trkpt lat="45.5270531" lon="11.1765007"><ele>493.25</ele><time>2026-04-25T09:20:12.104Z</time></trkpt><trkpt lat="45.5270085" lon="11.1763386"><ele>497.5</ele><time>2026-04-25T09:20:13.104Z</time></trkpt><trkpt lat="45.5269456" lon="11.1761869"><ele>501.75</ele><time>2026-04-25T09:20:14.105Z</time></trkpt><trkpt lat="45.5268694" lon="11.1760435"><ele>506.0</ele><time>2026-04-25T09:20:15.103Z</time></trkpt><trkpt lat="45.5267833" lon="11.1759103"><ele>506.0</ele><time>2026-04-25T09:20:16.103Z</time></trkpt><trkpt lat="45.5266958" lon="11.17579"><ele>506.0</ele><time>2026-04-25T09:20:17.103Z</time></trkpt><trkpt lat="45.5266223" lon="11.1756641"><ele>506.0</ele><time>2026-04-25T09:20:18.104Z</time></trkpt><trkpt lat="45.5265741" lon="11.1755119"><ele>506.0</ele><time>2026-04-25T09:20:19.104Z</time></trkpt><trkpt lat="45.5265408" lon="11.1753446"><ele>503.25</ele><time>2026-04-25T09:20:20.103Z</time></trkpt><trkpt lat="45.5265278" lon="11.175161"><ele>500.5</ele><time>2026-04-25T09:20:21.103Z</time></trkpt><trkpt lat="45.5265343" lon="11.1749766"><ele>497.75</ele><time>2026-04-25T09:20:22.104Z</time></trkpt><trkpt lat="45.5265419" lon="11.1748096"><ele>495.0</ele><time>2026-04-25T09:20:23.103Z</time></trkpt><trkpt lat="45.526544" lon="11.1746681"><ele>493.5</ele><time>2026-04-25T09:20:24.103Z</time></trkpt><trkpt lat="45.5265409" lon="11.1745545"><ele>492.0</ele><time>2026-04-25T09:20:25.103Z</time></trkpt><trkpt lat="45.5265397" lon="11.1744079"><ele>490.5</ele><time>2026-04-25T09:20:27.104Z</time></trkpt><trkpt lat="45.5265455" lon="11.1742842"><ele>489.0</ele><time>2026-04-25T09:20:30.103Z</time></trkpt><trkpt lat="45.5264888" lon="11.1742038"><ele>487.5</ele><time>2026-04-25T09:21:00.104Z</time></trkpt><trkpt lat="45.5264271" lon="11.1741298"><ele>486.0</ele><time>2026-04-25T09:21:02.104Z</time></trkpt><trkpt lat="45.5263234" lon="11.1740099"><ele>485.20000000000005</ele><time>2026-04-25T09:21:04.104Z</time></trkpt><trkpt lat="45.5262573" lon="11.1739511"><ele>484.40000000000003</ele><time>2026-04-25T09:21:05.104Z</time></trkpt><trkpt lat="45.5261867" lon="11.1738877"><ele>483.6</ele><time>2026-04-25T09:21:06.103Z</time></trkpt><trkpt lat="45.5261105" lon="11.1738143"><ele>482.8</ele><time>2026-04-25T09:21:07.104Z</time></trkpt><trkpt lat="45.5260316" lon="11.1737335"><ele>482.0</ele><time>2026-04-25T09:21:08.103Z</time></trkpt><trkpt lat="45.5259517" lon="11.1736483"><ele>482.0</ele><time>2026-04-25T09:21:09.103Z</time></trkpt><trkpt lat="45.5258741" lon="11.1735597"><ele>482.00000000000006</ele><time>2026-04-25T09:21:10.104Z</time></trkpt><trkpt lat="45.5258061" lon="11.173462"><ele>482.00000000000006</ele><time>2026-04-25T09:21:11.104Z</time></trkpt><trkpt lat="45.5257458" lon="11.1733474"><ele>482.0</ele><time>2026-04-25T09:21:12.103Z</time></trkpt><trkpt lat="45.52569" lon="11.1732148"><ele>482.0</ele><time>2026-04-25T09:21:13.103Z</time></trkpt><trkpt lat="45.5256399" lon="11.1730591"><ele>477.5</ele><time>2026-04-25T09:21:14.104Z</time></trkpt><trkpt lat="45.5255938" lon="11.1728924"><ele>473.0</ele><time>2026-04-25T09:21:15.103Z</time></trkpt><trkpt lat="45.5255515" lon="11.1727176"><ele>468.5</ele><time>2026-04-25T09:21:16.103Z</time></trkpt><trkpt lat="45.5255104" lon="11.1725348"><ele>464.0</ele><time>2026-04-25T09:21:17.103Z</time></trkpt><trkpt lat="45.5254671" lon="11.1723596"><ele>461.75</ele><time>2026-04-25T09:21:18.104Z</time></trkpt><trkpt lat="45.5254272" lon="11.1721863"><ele>459.5</ele><time>2026-04-25T09:21:19.103Z</time></trkpt><trkpt lat="45.5253911" lon="11.172011"><ele>457.25</ele><time>2026-04-25T09:21:20.104Z</time></trkpt><trkpt lat="45.5253647" lon="11.1718384"><ele>455.0</ele><time>2026-04-25T09:21:21.104Z</time></trkpt><trkpt lat="45.5253413" lon="11.1716664"><ele>455.2</ele><time>2026-04-25T09:21:22.104Z</time></trkpt><trkpt lat="45.5253206" lon="11.1715047"><ele>455.4</ele><time>2026-04-25T09:21:23.104Z</time></trkpt><trkpt lat="45.5253125" lon="11.1713582"><ele>455.6</ele><time>2026-04-25T09:21:24.103Z</time></trkpt><trkpt lat="45.5253278" lon="11.1712202"><ele>455.8</ele><time>2026-04-25T09:21:25.103Z</time></trkpt><trkpt lat="45.5253697" lon="11.1710947"><ele>456.0</ele><time>2026-04-25T09:21:26.104Z</time></trkpt><trkpt lat="45.5254266" lon="11.1709771"><ele>455.75</ele><time>2026-04-25T09:21:27.104Z</time></trkpt><trkpt lat="45.5254908" lon="11.1708571"><ele>455.5</ele><time>2026-04-25T09:21:28.103Z</time></trkpt><trkpt lat="45.5255607" lon="11.1707284"><ele>455.25</ele><time>2026-04-25T09:21:29.104Z</time></trkpt><trkpt lat="45.525632" lon="11.1705956"><ele>455.0</ele><time>2026-04-25T09:21:30.104Z</time></trkpt><trkpt lat="45.5257041" lon="11.1704694"><ele>455.0</ele><time>2026-04-25T09:21:31.104Z</time></trkpt><trkpt lat="45.5257742" lon="11.1703481"><ele>455.0</ele><time>2026-04-25T09:21:32.103Z</time></trkpt><trkpt lat="45.5258427" lon="11.1702186"><ele>455.0</ele><time>2026-04-25T09:21:33.105Z</time></trkpt><trkpt lat="45.5259081" lon="11.1700771"><ele>455.0</ele><time>2026-04-25T09:21:34.104Z</time></trkpt><trkpt lat="45.5259649" lon="11.169919"><ele>454.75</ele><time>2026-04-25T09:21:35.103Z</time></trkpt><trkpt lat="45.5260184" lon="11.1697479"><ele>454.5</ele><time>2026-04-25T09:21:36.104Z</time></trkpt><trkpt lat="45.5260721" lon="11.1695655"><ele>454.25</ele><time>2026-04-25T09:21:37.103Z</time></trkpt><trkpt lat="45.52613" lon="11.1693768"><ele>454.0</ele><time>2026-04-25T09:21:38.104Z</time></trkpt><trkpt lat="45.5261911" lon="11.1691835"><ele>449.33333333333337</ele><time>2026-04-25T09:21:39.103Z</time></trkpt><trkpt lat="45.5262535" lon="11.16898"><ele>444.66666666666663</ele><time>2026-04-25T09:21:40.103Z</time></trkpt><trkpt lat="45.5263177" lon="11.1687751"><ele>440.0</ele><time>2026-04-25T09:21:41.103Z</time></trkpt><trkpt lat="45.5263799" lon="11.1685727"><ele>440.0</ele><time>2026-04-25T09:21:42.103Z</time></trkpt><trkpt lat="45.5264389" lon="11.1683752"><ele>440.0</ele><time>2026-04-25T09:21:43.104Z</time></trkpt><trkpt lat="45.5264925" lon="11.1681882"><ele>440.0</ele><time>2026-04-25T09:21:44.103Z</time></trkpt><trkpt lat="45.5265302" lon="11.1680058"><ele>440.0</ele><time>2026-04-25T09:21:45.103Z</time></trkpt><trkpt lat="45.5265459" lon="11.167814"><ele>438.5</ele><time>2026-04-25T09:21:46.103Z</time></trkpt><trkpt lat="45.5265388" lon="11.1676135"><ele>437.0</ele><time>2026-04-25T09:21:47.103Z</time></trkpt><trkpt lat="45.5265269" lon="11.167416"><ele>435.5</ele><time>2026-04-25T09:21:48.103Z</time></trkpt><trkpt lat="45.5265123" lon="11.1672142"><ele>434.0</ele><time>2026-04-25T09:21:49.104Z</time></trkpt><trkpt lat="45.5264964" lon="11.1670161"><ele>430.25</ele><time>2026-04-25T09:21:50.103Z</time></trkpt><trkpt lat="45.5264826" lon="11.1668278"><ele>426.5</ele><time>2026-04-25T09:21:51.103Z</time></trkpt><trkpt lat="45.526472" lon="11.1666651"><ele>422.75</ele><time>2026-04-25T09:21:52.104Z</time></trkpt><trkpt lat="45.5264449" lon="11.1665235"><ele>419.0</ele><time>2026-04-25T09:21:53.104Z</time></trkpt><trkpt lat="45.5263802" lon="11.1664108"><ele>418.2</ele><time>2026-04-25T09:21:54.103Z</time></trkpt><trkpt lat="45.5262891" lon="11.166308"><ele>417.4</ele><time>2026-04-25T09:21:55.104Z</time></trkpt><trkpt lat="45.5261925" lon="11.1662193"><ele>416.6</ele><time>2026-04-25T09:21:56.103Z</time></trkpt><trkpt lat="45.5260893" lon="11.1661517"><ele>415.8</ele><time>2026-04-25T09:21:57.103Z</time></trkpt><trkpt lat="45.5259879" lon="11.1661148"><ele>415.0</ele><time>2026-04-25T09:21:58.103Z</time></trkpt><trkpt lat="45.5258862" lon="11.166114"><ele>415.0</ele><time>2026-04-25T09:21:59.104Z</time></trkpt><trkpt lat="45.5257818" lon="11.1661467"><ele>415.0</ele><time>2026-04-25T09:22:00.103Z</time></trkpt><trkpt lat="45.5256752" lon="11.1662232"><ele>415.0</ele><time>2026-04-25T09:22:01.103Z</time></trkpt><trkpt lat="45.5255701" lon="11.1663288"><ele>415.0</ele><time>2026-04-25T09:22:02.104Z</time></trkpt><trkpt lat="45.525457" lon="11.1664423"><ele>413.25</ele><time>2026-04-25T09:22:03.104Z</time></trkpt><trkpt lat="45.5253471" lon="11.1665733"><ele>411.5</ele><time>2026-04-25T09:22:04.104Z</time></trkpt><trkpt lat="45.5252412" lon="11.1667148"><ele>409.75</ele><time>2026-04-25T09:22:05.103Z</time></trkpt><trkpt lat="45.5251447" lon="11.1668728"><ele>408.0</ele><time>2026-04-25T09:22:06.104Z</time></trkpt><trkpt lat="45.5250577" lon="11.1670393"><ele>408.0</ele><time>2026-04-25T09:22:07.103Z</time></trkpt><trkpt lat="45.5249661" lon="11.1671968"><ele>408.0</ele><time>2026-04-25T09:22:08.103Z</time></trkpt><trkpt lat="45.5248682" lon="11.1673429"><ele>408.0</ele><time>2026-04-25T09:22:09.104Z</time></trkpt><trkpt lat="45.5247764" lon="11.1674889"><ele>408.0</ele><time>2026-04-25T09:22:10.103Z</time></trkpt><trkpt lat="45.5247005" lon="11.1676358"><ele>406.0</ele><time>2026-04-25T09:22:11.103Z</time></trkpt><trkpt lat="45.5246469" lon="11.1678014"><ele>404.0</ele><time>2026-04-25T09:22:12.104Z</time></trkpt><trkpt lat="45.5246127" lon="11.1679745"><ele>402.0</ele><time>2026-04-25T09:22:13.104Z</time></trkpt><trkpt lat="45.5245736" lon="11.1681505"><ele>400.0</ele><time>2026-04-25T09:22:14.103Z</time></trkpt><trkpt lat="45.5245196" lon="11.1683256"><ele>400.0</ele><time>2026-04-25T09:22:15.104Z</time></trkpt><trkpt lat="45.5244485" lon="11.1684841"><ele>400.0</ele><time>2026-04-25T09:22:16.103Z</time></trkpt><trkpt lat="45.5243705" lon="11.1686237"><ele>400.0</ele><time>2026-04-25T09:22:17.104Z</time></trkpt><trkpt lat="45.5242965" lon="11.16874"><ele>400.0</ele><time>2026-04-25T09:22:18.103Z</time></trkpt><trkpt lat="45.5242362" lon="11.1688273"><ele>400.00000000000006</ele><time>2026-04-25T09:22:19.105Z</time></trkpt><trkpt lat="45.5241747" lon="11.1688759"><ele>400.0</ele><time>2026-04-25T09:22:20.103Z</time></trkpt><trkpt lat="45.5240755" lon="11.1688247"><ele>400.0</ele><time>2026-04-25T09:22:22.104Z</time></trkpt><trkpt lat="45.52405" lon="11.1687356"><ele>400.0</ele><time>2026-04-25T09:22:23.104Z</time></trkpt><trkpt lat="45.524049" lon="11.1686107"><ele>400.00000000000006</ele><time>2026-04-25T09:22:24.103Z</time></trkpt><trkpt lat="45.5240578" lon="11.1684604"><ele>400.0</ele><time>2026-04-25T09:22:25.104Z</time></trkpt><trkpt lat="45.52408" lon="11.1682837"><ele>397.75</ele><time>2026-04-25T09:22:26.103Z</time></trkpt><trkpt lat="45.5241054" lon="11.1681033"><ele>395.5</ele><time>2026-04-25T09:22:27.103Z</time></trkpt><trkpt lat="45.5241319" lon="11.1679235"><ele>393.25</ele><time>2026-04-25T09:22:28.103Z</time></trkpt><trkpt lat="45.5241577" lon="11.1677457"><ele>391.0</ele><time>2026-04-25T09:22:29.103Z</time></trkpt><trkpt lat="45.5241909" lon="11.1675691"><ele>391.0</ele><time>2026-04-25T09:22:30.104Z</time></trkpt><trkpt lat="45.5242269" lon="11.1673992"><ele>391.0</ele><time>2026-04-25T09:22:31.104Z</time></trkpt><trkpt lat="45.5242623" lon="11.167225"><ele>391.0</ele><time>2026-04-25T09:22:32.104Z</time></trkpt><trkpt lat="45.5242889" lon="11.167047"><ele>391.0</ele><time>2026-04-25T09:22:33.104Z</time></trkpt><trkpt lat="45.5243023" lon="11.1668659"><ele>388.5</ele><time>2026-04-25T09:22:34.103Z</time></trkpt><trkpt lat="45.5243061" lon="11.166681"><ele>386.0</ele><time>2026-04-25T09:22:35.103Z</time></trkpt><trkpt lat="45.5243134" lon="11.166495"><ele>383.5</ele><time>2026-04-25T09:22:36.104Z</time></trkpt><trkpt lat="45.5243194" lon="11.1663051"><ele>381.0</ele><time>2026-04-25T09:22:37.105Z</time></trkpt><trkpt lat="45.5243214" lon="11.1661175"><ele>378.25</ele><time>2026-04-25T09:22:38.103Z</time></trkpt><trkpt lat="45.5243276" lon="11.1659301"><ele>375.5</ele><time>2026-04-25T09:22:39.103Z</time></trkpt><trkpt lat="45.5243486" lon="11.1657489"><ele>372.75</ele><time>2026-04-25T09:22:40.103Z</time></trkpt><trkpt lat="45.5243827" lon="11.1655681"><ele>370.0</ele><time>2026-04-25T09:22:41.103Z</time></trkpt><trkpt lat="45.5244235" lon="11.1653891"><ele>367.25</ele><time>2026-04-25T09:22:42.104Z</time></trkpt><trkpt lat="45.5244645" lon="11.1652157"><ele>364.5</ele><time>2026-04-25T09:22:43.103Z</time></trkpt><trkpt lat="45.5245048" lon="11.1650424"><ele>361.75</ele><time>2026-04-25T09:22:44.104Z</time></trkpt><trkpt lat="45.5245422" lon="11.1648673"><ele>359.0</ele><time>2026-04-25T09:22:45.104Z</time></trkpt><trkpt lat="45.524576" lon="11.1646903"><ele>358.25</ele><time>2026-04-25T09:22:46.103Z</time></trkpt><trkpt lat="45.5246085" lon="11.1645147"><ele>357.5</ele><time>2026-04-25T09:22:47.104Z</time></trkpt><trkpt lat="45.5246505" lon="11.1643482"><ele>356.75</ele><time>2026-04-25T09:22:48.104Z</time></trkpt><trkpt lat="45.5247062" lon="11.1641941"><ele>356.0</ele><time>2026-04-25T09:22:49.103Z</time></trkpt><trkpt lat="45.5247451" lon="11.164037"><ele>352.75</ele><time>2026-04-25T09:22:50.105Z</time></trkpt><trkpt lat="45.5247558" lon="11.1638681"><ele>349.5</ele><time>2026-04-25T09:22:51.103Z</time></trkpt><trkpt lat="45.5247409" lon="11.1637047"><ele>346.25</ele><time>2026-04-25T09:22:52.104Z</time></trkpt><trkpt lat="45.524696" lon="11.1635488"><ele>343.0</ele><time>2026-04-25T09:22:53.104Z</time></trkpt><trkpt lat="45.5246327" lon="11.1633924"><ele>342.5</ele><time>2026-04-25T09:22:54.103Z</time></trkpt><trkpt lat="45.5245621" lon="11.1632476"><ele>342.0</ele><time>2026-04-25T09:22:55.103Z</time></trkpt><trkpt lat="45.5244869" lon="11.1631094"><ele>341.5</ele><time>2026-04-25T09:22:56.105Z</time></trkpt><trkpt lat="45.5244083" lon="11.1629814"><ele>341.0</ele><time>2026-04-25T09:22:57.103Z</time></trkpt><trkpt lat="45.5243292" lon="11.1628661"><ele>341.0</ele><time>2026-04-25T09:22:58.103Z</time></trkpt><trkpt lat="45.5242563" lon="11.1627713"><ele>341.0</ele><time>2026-04-25T09:22:59.103Z</time></trkpt><trkpt lat="45.5241996" lon="11.1626899"><ele>341.0</ele><time>2026-04-25T09:23:00.104Z</time></trkpt><trkpt lat="45.524145" lon="11.162587"><ele>341.0</ele><time>2026-04-25T09:23:02.103Z</time></trkpt><trkpt lat="45.524064" lon="11.1625113"><ele>341.0</ele><time>2026-04-25T09:23:05.103Z</time></trkpt><trkpt lat="45.5239469" lon="11.1625323"><ele>341.0</ele><time>2026-04-25T09:23:07.103Z</time></trkpt><trkpt lat="45.5238677" lon="11.1625619"><ele>341.0</ele><time>2026-04-25T09:23:08.103Z</time></trkpt><trkpt lat="45.5237737" lon="11.1625992"><ele>341.0</ele><time>2026-04-25T09:23:09.103Z</time></trkpt><trkpt lat="45.5236701" lon="11.1626386"><ele>341.0</ele><time>2026-04-25T09:23:10.103Z</time></trkpt><trkpt lat="45.523561" lon="11.1626765"><ele>341.0</ele><time>2026-04-25T09:23:11.103Z</time></trkpt><trkpt lat="45.5234447" lon="11.1627171"><ele>340.0</ele><time>2026-04-25T09:23:12.103Z</time></trkpt><trkpt lat="45.5233268" lon="11.1627593"><ele>339.0</ele><time>2026-04-25T09:23:13.104Z</time></trkpt><trkpt lat="45.523211" lon="11.1628005"><ele>338.0</ele><time>2026-04-25T09:23:14.104Z</time></trkpt><trkpt lat="45.5231015" lon="11.1628352"><ele>337.0</ele><time>2026-04-25T09:23:15.103Z</time></trkpt><trkpt lat="45.522997" lon="11.1628602"><ele>337.0</ele><time>2026-04-25T09:23:16.104Z</time></trkpt><trkpt lat="45.5228976" lon="11.1628818"><ele>337.0</ele><time>2026-04-25T09:23:17.103Z</time></trkpt><trkpt lat="45.5228002" lon="11.1628949"><ele>337.0</ele><time>2026-04-25T09:23:18.104Z</time></trkpt><trkpt lat="45.5227009" lon="11.1628893"><ele>337.0</ele><time>2026-04-25T09:23:19.104Z</time></trkpt><trkpt lat="45.5225993" lon="11.1628695"><ele>337.0</ele><time>2026-04-25T09:23:20.104Z</time></trkpt><trkpt lat="45.5225023" lon="11.1628415"><ele>337.0</ele><time>2026-04-25T09:23:21.104Z</time></trkpt><trkpt lat="45.5224098" lon="11.1628014"><ele>337.0</ele><time>2026-04-25T09:23:22.103Z</time></trkpt><trkpt lat="45.5223257" lon="11.1627535"><ele>337.0</ele><time>2026-04-25T09:23:23.104Z</time></trkpt><trkpt lat="45.5222581" lon="11.162684"><ele>337.0</ele><time>2026-04-25T09:23:24.103Z</time></trkpt><trkpt lat="45.522203" lon="11.1625959"><ele>337.0</ele><time>2026-04-25T09:23:25.103Z</time></trkpt><trkpt lat="45.52215" lon="11.1624945"><ele>337.0</ele><time>2026-04-25T09:23:26.103Z</time></trkpt><trkpt lat="45.5220922" lon="11.1623851"><ele>336.20000000000005</ele><time>2026-04-25T09:23:27.104Z</time></trkpt><trkpt lat="45.5220366" lon="11.1622635"><ele>335.4</ele><time>2026-04-25T09:23:28.104Z</time></trkpt><trkpt lat="45.5219877" lon="11.1621235"><ele>334.6</ele><time>2026-04-25T09:23:29.103Z</time></trkpt><trkpt lat="45.5219478" lon="11.1619718"><ele>333.79999999999995</ele><time>2026-04-25T09:23:30.104Z</time></trkpt><trkpt lat="45.5219177" lon="11.1618151"><ele>333.0</ele><time>2026-04-25T09:23:31.103Z</time></trkpt><trkpt lat="45.5218892" lon="11.1616527"><ele>333.0</ele><time>2026-04-25T09:23:32.104Z</time></trkpt><trkpt lat="45.5218593" lon="11.16148"><ele>333.0</ele><time>2026-04-25T09:23:33.103Z</time></trkpt><trkpt lat="45.5218286" lon="11.1613022"><ele>333.0</ele><time>2026-04-25T09:23:34.103Z</time></trkpt><trkpt lat="45.5217947" lon="11.1611143"><ele>333.0</ele><time>2026-04-25T09:23:35.104Z</time></trkpt><trkpt lat="45.5217604" lon="11.160922"><ele>333.0</ele><time>2026-04-25T09:23:36.103Z</time></trkpt><trkpt lat="45.5217258" lon="11.160726"><ele>333.0</ele><time>2026-04-25T09:23:37.104Z</time></trkpt><trkpt lat="45.5216936" lon="11.1605255"><ele>333.0</ele><time>2026-04-25T09:23:38.104Z</time></trkpt><trkpt lat="45.5216571" lon="11.1603243"><ele>333.0</ele><time>2026-04-25T09:23:39.104Z</time></trkpt><trkpt lat="45.5216217" lon="11.1601199"><ele>333.25</ele><time>2026-04-25T09:23:40.105Z</time></trkpt><trkpt lat="45.5215854" lon="11.1599246"><ele>333.5</ele><time>2026-04-25T09:23:41.105Z</time></trkpt><trkpt lat="45.5215467" lon="11.159743"><ele>333.75</ele><time>2026-04-25T09:23:42.103Z</time></trkpt><trkpt lat="45.521502" lon="11.1595807"><ele>334.0</ele><time>2026-04-25T09:23:43.103Z</time></trkpt><trkpt lat="45.5214498" lon="11.1594348"><ele>333.6</ele><time>2026-04-25T09:23:44.103Z</time></trkpt><trkpt lat="45.5213907" lon="11.159303"><ele>333.2</ele><time>2026-04-25T09:23:45.103Z</time></trkpt><trkpt lat="45.5213217" lon="11.1591815"><ele>332.8</ele><time>2026-04-25T09:23:46.104Z</time></trkpt><trkpt lat="45.5212467" lon="11.1590762"><ele>332.40000000000003</ele><time>2026-04-25T09:23:47.104Z</time></trkpt><trkpt lat="45.5211573" lon="11.1589842"><ele>332.0</ele><time>2026-04-25T09:23:48.103Z</time></trkpt><trkpt lat="45.5210477" lon="11.1589057"><ele>331.25</ele><time>2026-04-25T09:23:49.103Z</time></trkpt><trkpt lat="45.5209279" lon="11.1588491"><ele>330.5</ele><time>2026-04-25T09:23:50.104Z</time></trkpt><trkpt lat="45.5207959" lon="11.1588253"><ele>329.75</ele><time>2026-04-25T09:23:51.103Z</time></trkpt><trkpt lat="45.5206553" lon="11.1588332"><ele>329.0</ele><time>2026-04-25T09:23:52.103Z</time></trkpt><trkpt lat="45.5205033" lon="11.1588554"><ele>328.33333333333337</ele><time>2026-04-25T09:23:53.104Z</time></trkpt><trkpt lat="45.5203417" lon="11.1588906"><ele>327.6666666666667</ele><time>2026-04-25T09:23:54.103Z</time></trkpt><trkpt lat="45.5201697" lon="11.1589409"><ele>327.0</ele><time>2026-04-25T09:23:55.103Z</time></trkpt><trkpt lat="45.5199895" lon="11.1590006"><ele>327.3333333333333</ele><time>2026-04-25T09:23:56.105Z</time></trkpt><trkpt lat="45.5198039" lon="11.1590734"><ele>327.66666666666663</ele><time>2026-04-25T09:23:57.105Z</time></trkpt><trkpt lat="45.519619" lon="11.1591567"><ele>328.0</ele><time>2026-04-25T09:23:58.104Z</time></trkpt><trkpt lat="45.5194323" lon="11.1592469"><ele>327.0</ele><time>2026-04-25T09:23:59.104Z</time></trkpt><trkpt lat="45.5192462" lon="11.1593397"><ele>326.0</ele><time>2026-04-25T09:24:00.103Z</time></trkpt><trkpt lat="45.5190589" lon="11.1594339"><ele>325.0</ele><time>2026-04-25T09:24:01.104Z</time></trkpt><trkpt lat="45.5188688" lon="11.1595313"><ele>323.3333333333333</ele><time>2026-04-25T09:24:02.103Z</time></trkpt><trkpt lat="45.5186806" lon="11.1596277"><ele>321.6666666666667</ele><time>2026-04-25T09:24:03.104Z</time></trkpt><trkpt lat="45.5184893" lon="11.1597292"><ele>320.0</ele><time>2026-04-25T09:24:04.104Z</time></trkpt><trkpt lat="45.5182948" lon="11.1598281"><ele>319.6666666666667</ele><time>2026-04-25T09:24:05.104Z</time></trkpt><trkpt lat="45.518098" lon="11.1599255"><ele>319.3333333333333</ele><time>2026-04-25T09:24:06.104Z</time></trkpt><trkpt lat="45.5178977" lon="11.1600209"><ele>319.0</ele><time>2026-04-25T09:24:07.105Z</time></trkpt><trkpt lat="45.5176983" lon="11.1601194"><ele>319.0</ele><time>2026-04-25T09:24:08.103Z</time></trkpt><trkpt lat="45.517499" lon="11.1602211"><ele>319.0</ele><time>2026-04-25T09:24:09.103Z</time></trkpt><trkpt lat="45.5173002" lon="11.1603169"><ele>319.0</ele><time>2026-04-25T09:24:10.104Z</time></trkpt><trkpt lat="45.5170976" lon="11.1604121"><ele>318.0</ele><time>2026-04-25T09:24:11.104Z</time></trkpt><trkpt lat="45.5168908" lon="11.1604984"><ele>317.0</ele><time>2026-04-25T09:24:12.103Z</time></trkpt><trkpt lat="45.5166765" lon="11.160566"><ele>316.0</ele><time>2026-04-25T09:24:13.105Z</time></trkpt><trkpt lat="45.5164574" lon="11.160623"><ele>315.0</ele><time>2026-04-25T09:24:14.104Z</time></trkpt><trkpt lat="45.5162332" lon="11.1606715"><ele>314.0</ele><time>2026-04-25T09:24:15.103Z</time></trkpt><trkpt lat="45.5160042" lon="11.1607159"><ele>314.0</ele><time>2026-04-25T09:24:16.103Z</time></trkpt><trkpt lat="45.5157742" lon="11.160759"><ele>314.0</ele><time>2026-04-25T09:24:17.104Z</time></trkpt><trkpt lat="45.5155412" lon="11.1608035"><ele>314.0</ele><time>2026-04-25T09:24:18.103Z</time></trkpt><trkpt lat="45.5153053" lon="11.1608467"><ele>314.0</ele><time>2026-04-25T09:24:19.103Z</time></trkpt><trkpt lat="45.5150662" lon="11.1608933"><ele>314.0</ele><time>2026-04-25T09:24:20.103Z</time></trkpt><trkpt lat="45.5148285" lon="11.1609396"><ele>314.0</ele><time>2026-04-25T09:24:21.103Z</time></trkpt><trkpt lat="45.5145896" lon="11.1609892"><ele>312.5</ele><time>2026-04-25T09:24:22.103Z</time></trkpt><trkpt lat="45.5143528" lon="11.161035"><ele>311.0</ele><time>2026-04-25T09:24:23.103Z</time></trkpt><trkpt lat="45.5141193" lon="11.1610809"><ele>311.0</ele><time>2026-04-25T09:24:24.104Z</time></trkpt><trkpt lat="45.513886" lon="11.1611315"><ele>311.0</ele><time>2026-04-25T09:24:25.103Z</time></trkpt><trkpt lat="45.5136536" lon="11.1611913"><ele>309.0</ele><time>2026-04-25T09:24:26.104Z</time></trkpt><trkpt lat="45.5134254" lon="11.161257"><ele>307.0</ele><time>2026-04-25T09:24:27.104Z</time></trkpt><trkpt lat="45.5131986" lon="11.1613211"><ele>307.0</ele><time>2026-04-25T09:24:28.103Z</time></trkpt><trkpt lat="45.5129753" lon="11.1613886"><ele>307.0</ele><time>2026-04-25T09:24:29.103Z</time></trkpt><trkpt lat="45.5127534" lon="11.1614573"><ele>307.0</ele><time>2026-04-25T09:24:30.103Z</time></trkpt><trkpt lat="45.5125319" lon="11.161526"><ele>307.0</ele><time>2026-04-25T09:24:31.104Z</time></trkpt><trkpt lat="45.5123151" lon="11.1615995"><ele>307.0</ele><time>2026-04-25T09:24:32.103Z</time></trkpt><trkpt lat="45.5121041" lon="11.1616687"><ele>306.0</ele><time>2026-04-25T09:24:33.104Z</time></trkpt><trkpt lat="45.5118968" lon="11.1617354"><ele>305.0</ele><time>2026-04-25T09:24:34.104Z</time></trkpt><trkpt lat="45.5116947" lon="11.1618029"><ele>304.0</ele><time>2026-04-25T09:24:35.104Z</time></trkpt><trkpt lat="45.5114977" lon="11.1618674"><ele>304.0</ele><time>2026-04-25T09:24:36.104Z</time></trkpt><trkpt lat="45.5113022" lon="11.1619291"><ele>304.0</ele><time>2026-04-25T09:24:37.104Z</time></trkpt><trkpt lat="45.5111076" lon="11.1619906"><ele>304.0</ele><time>2026-04-25T09:24:38.104Z</time></trkpt><trkpt lat="45.5109101" lon="11.1620522"><ele>302.66666666666663</ele><time>2026-04-25T09:24:39.104Z</time></trkpt><trkpt lat="45.5107133" lon="11.1621134"><ele>301.3333333333333</ele><time>2026-04-25T09:24:40.104Z</time></trkpt><trkpt lat="45.5105182" lon="11.162175"><ele>300.0</ele><time>2026-04-25T09:24:41.104Z</time></trkpt><trkpt lat="45.5103217" lon="11.1622342"><ele>299.6666666666667</ele><time>2026-04-25T09:24:42.104Z</time></trkpt><trkpt lat="45.5101328" lon="11.1622938"><ele>299.33333333333337</ele><time>2026-04-25T09:24:43.103Z</time></trkpt><trkpt lat="45.5099466" lon="11.1623483"><ele>299.0</ele><time>2026-04-25T09:24:44.104Z</time></trkpt><trkpt lat="45.5097589" lon="11.1624039"><ele>298.33333333333337</ele><time>2026-04-25T09:24:45.104Z</time></trkpt><trkpt lat="45.5095705" lon="11.1624565"><ele>297.6666666666667</ele><time>2026-04-25T09:24:46.103Z</time></trkpt><trkpt lat="45.5093809" lon="11.16251"><ele>297.0</ele><time>2026-04-25T09:24:47.103Z</time></trkpt><trkpt lat="45.5091942" lon="11.1625662"><ele>297.0</ele><time>2026-04-25T09:24:48.103Z</time></trkpt><trkpt lat="45.5090128" lon="11.1626205"><ele>297.0</ele><time>2026-04-25T09:24:49.103Z</time></trkpt><trkpt lat="45.5088363" lon="11.1626736"><ele>297.0</ele><time>2026-04-25T09:24:50.103Z</time></trkpt><trkpt lat="45.5086677" lon="11.1627273"><ele>295.6666666666667</ele><time>2026-04-25T09:24:51.103Z</time></trkpt><trkpt lat="45.5085055" lon="11.1627815"><ele>294.33333333333337</ele><time>2026-04-25T09:24:52.104Z</time></trkpt><trkpt lat="45.5083558" lon="11.1628289"><ele>293.0</ele><time>2026-04-25T09:24:53.103Z</time></trkpt><trkpt lat="45.5082235" lon="11.162865"><ele>293.0</ele><time>2026-04-25T09:24:54.103Z</time></trkpt><trkpt lat="45.5081086" lon="11.1628833"><ele>293.0</ele><time>2026-04-25T09:24:55.104Z</time></trkpt><trkpt lat="45.5080051" lon="11.1628744"><ele>293.0</ele><time>2026-04-25T09:24:56.103Z</time></trkpt><trkpt lat="45.507915" lon="11.1628561"><ele>293.0</ele><time>2026-04-25T09:24:57.104Z</time></trkpt><trkpt lat="45.5078201" lon="11.1628613"><ele>293.0</ele><time>2026-04-25T09:24:58.103Z</time></trkpt><trkpt lat="45.5077219" lon="11.1628819"><ele>292.6666666666667</ele><time>2026-04-25T09:24:59.103Z</time></trkpt><trkpt lat="45.5076228" lon="11.1628993"><ele>292.33333333333337</ele><time>2026-04-25T09:25:00.104Z</time></trkpt><trkpt lat="45.5075344" lon="11.1629069"><ele>292.0</ele><time>2026-04-25T09:25:01.103Z</time></trkpt><trkpt lat="45.5074547" lon="11.1628904"><ele>291.6666666666667</ele><time>2026-04-25T09:25:02.103Z</time></trkpt><trkpt lat="45.5073828" lon="11.1628422"><ele>291.3333333333333</ele><time>2026-04-25T09:25:03.103Z</time></trkpt><trkpt lat="45.5073266" lon="11.1627652"><ele>291.0</ele><time>2026-04-25T09:25:04.104Z</time></trkpt><trkpt lat="45.507287" lon="11.1626602"><ele>291.0</ele><time>2026-04-25T09:25:05.104Z</time></trkpt><trkpt lat="45.5072657" lon="11.1625304"><ele>291.0</ele><time>2026-04-25T09:25:06.105Z</time></trkpt><trkpt lat="45.5072582" lon="11.1623867"><ele>291.0</ele><time>2026-04-25T09:25:07.104Z</time></trkpt><trkpt lat="45.5072571" lon="11.1622323"><ele>291.0</ele><time>2026-04-25T09:25:08.104Z</time></trkpt><trkpt lat="45.5072537" lon="11.1620707"><ele>291.0</ele><time>2026-04-25T09:25:09.103Z</time></trkpt><trkpt lat="45.5072461" lon="11.1619117"><ele>290.8333333333333</ele><time>2026-04-25T09:25:10.104Z</time></trkpt><trkpt lat="45.5072391" lon="11.1617687"><ele>290.6666666666667</ele><time>2026-04-25T09:25:11.103Z</time></trkpt><trkpt lat="45.5072324" lon="11.1616376"><ele>290.5</ele><time>2026-04-25T09:25:12.103Z</time></trkpt><trkpt lat="45.5072266" lon="11.1615144"><ele>290.33333333333337</ele><time>2026-04-25T09:25:13.103Z</time></trkpt><trkpt lat="45.5072221" lon="11.1614054"><ele>290.1666666666667</ele><time>2026-04-25T09:25:14.103Z</time></trkpt><trkpt lat="45.5072015" lon="11.1613025"><ele>290.0</ele><time>2026-04-25T09:25:15.104Z</time></trkpt><trkpt lat="45.5071479" lon="11.1612164"><ele>289.6</ele><time>2026-04-25T09:25:16.103Z</time></trkpt><trkpt lat="45.5070702" lon="11.1611708"><ele>289.2</ele><time>2026-04-25T09:25:17.103Z</time></trkpt><trkpt lat="45.5069802" lon="11.1611396"><ele>288.8</ele><time>2026-04-25T09:25:18.103Z</time></trkpt><trkpt lat="45.5068892" lon="11.1611005"><ele>288.4</ele><time>2026-04-25T09:25:19.104Z</time></trkpt><trkpt lat="45.5067994" lon="11.1610289"><ele>288.0</ele><time>2026-04-25T09:25:20.104Z</time></trkpt><trkpt lat="45.5067188" lon="11.1609237"><ele>288.0</ele><time>2026-04-25T09:25:21.105Z</time></trkpt><trkpt lat="45.5066443" lon="11.1607957"><ele>288.0</ele><time>2026-04-25T09:25:22.103Z</time></trkpt><trkpt lat="45.5065701" lon="11.1606546"><ele>288.0</ele><time>2026-04-25T09:25:23.103Z</time></trkpt><trkpt lat="45.5064943" lon="11.160509"><ele>288.0</ele><time>2026-04-25T09:25:24.103Z</time></trkpt><trkpt lat="45.5064231" lon="11.1603455"><ele>288.0</ele><time>2026-04-25T09:25:25.104Z</time></trkpt><trkpt lat="45.5063634" lon="11.1601678"><ele>288.0</ele><time>2026-04-25T09:25:26.103Z</time></trkpt><trkpt lat="45.5063106" lon="11.1599807"><ele>288.0</ele><time>2026-04-25T09:25:27.104Z</time></trkpt><trkpt lat="45.5062591" lon="11.1597918"><ele>288.0</ele><time>2026-04-25T09:25:28.103Z</time></trkpt><trkpt lat="45.5062097" lon="11.1596008"><ele>288.5</ele><time>2026-04-25T09:25:29.103Z</time></trkpt><trkpt lat="45.5061539" lon="11.1594191"><ele>289.0</ele><time>2026-04-25T09:25:30.103Z</time></trkpt><trkpt lat="45.5060917" lon="11.1592544"><ele>289.5</ele><time>2026-04-25T09:25:31.105Z</time></trkpt><trkpt lat="45.5060211" lon="11.1591051"><ele>290.0</ele><time>2026-04-25T09:25:32.103Z</time></trkpt><trkpt lat="45.5059548" lon="11.1589525"><ele>290.0</ele><time>2026-04-25T09:25:33.103Z</time></trkpt><trkpt lat="45.5058986" lon="11.1587872"><ele>290.0</ele><time>2026-04-25T09:25:34.103Z</time></trkpt><trkpt lat="45.5058558" lon="11.1586119"><ele>290.0</ele><time>2026-04-25T09:25:35.103Z</time></trkpt><trkpt lat="45.5058184" lon="11.1584355"><ele>290.0</ele><time>2026-04-25T09:25:36.104Z</time></trkpt><trkpt lat="45.5057929" lon="11.1582637"><ele>290.6</ele><time>2026-04-25T09:25:37.104Z</time></trkpt><trkpt lat="45.5057682" lon="11.1581045"><ele>291.2</ele><time>2026-04-25T09:25:38.103Z</time></trkpt><trkpt lat="45.5057343" lon="11.1579596"><ele>291.8</ele><time>2026-04-25T09:25:39.104Z</time></trkpt><trkpt lat="45.5056854" lon="11.1578278"><ele>292.4</ele><time>2026-04-25T09:25:40.104Z</time></trkpt><trkpt lat="45.5056264" lon="11.1576964"><ele>293.0</ele><time>2026-04-25T09:25:41.103Z</time></trkpt><trkpt lat="45.5055643" lon="11.15757"><ele>293.0</ele><time>2026-04-25T09:25:42.103Z</time></trkpt><trkpt lat="45.5054903" lon="11.1574625"><ele>293.0</ele><time>2026-04-25T09:25:43.104Z</time></trkpt><trkpt lat="45.5053983" lon="11.157386"><ele>293.0</ele><time>2026-04-25T09:25:44.104Z</time></trkpt><trkpt lat="45.5052938" lon="11.1573373"><ele>293.0</ele><time>2026-04-25T09:25:45.104Z</time></trkpt><trkpt lat="45.5051828" lon="11.15731"><ele>293.0</ele><time>2026-04-25T09:25:46.104Z</time></trkpt><trkpt lat="45.5050693" lon="11.157283"><ele>292.5</ele><time>2026-04-25T09:25:47.103Z</time></trkpt><trkpt lat="45.5049516" lon="11.1572476"><ele>292.0</ele><time>2026-04-25T09:25:48.103Z</time></trkpt><trkpt lat="45.5048356" lon="11.1572005"><ele>291.5</ele><time>2026-04-25T09:25:49.103Z</time></trkpt><trkpt lat="45.5047184" lon="11.157146"><ele>291.0</ele><time>2026-04-25T09:25:50.103Z</time></trkpt><trkpt lat="45.5046029" lon="11.1570856"><ele>290.8</ele><time>2026-04-25T09:25:51.104Z</time></trkpt><trkpt lat="45.5044976" lon="11.1570263"><ele>290.6</ele><time>2026-04-25T09:25:52.104Z</time></trkpt><trkpt lat="45.5044034" lon="11.1569501"><ele>290.4</ele><time>2026-04-25T09:25:53.104Z</time></trkpt><trkpt lat="45.5043236" lon="11.1568565"><ele>290.2</ele><time>2026-04-25T09:25:54.103Z</time></trkpt><trkpt lat="45.504255" lon="11.1567439"><ele>290.0</ele><time>2026-04-25T09:25:55.103Z</time></trkpt><trkpt lat="45.5042019" lon="11.1566148"><ele>291.0</ele><time>2026-04-25T09:25:56.103Z</time></trkpt><trkpt lat="45.5041634" lon="11.1564688"><ele>292.0</ele><time>2026-04-25T09:25:57.103Z</time></trkpt><trkpt lat="45.5041377" lon="11.1563103"><ele>293.0</ele><time>2026-04-25T09:25:58.103Z</time></trkpt><trkpt lat="45.5041154" lon="11.1561561"><ele>294.0</ele><time>2026-04-25T09:25:59.103Z</time></trkpt><trkpt lat="45.5040907" lon="11.1560158"><ele>295.0</ele><time>2026-04-25T09:26:00.103Z</time></trkpt><trkpt lat="45.504062" lon="11.1558824"><ele>295.0</ele><time>2026-04-25T09:26:01.103Z</time></trkpt><trkpt lat="45.504028" lon="11.1557565"><ele>295.0</ele><time>2026-04-25T09:26:02.103Z</time></trkpt><trkpt lat="45.5039909" lon="11.1556377"><ele>295.0</ele><time>2026-04-25T09:26:03.105Z</time></trkpt><trkpt lat="45.5039419" lon="11.1555269"><ele>295.0</ele><time>2026-04-25T09:26:04.103Z</time></trkpt><trkpt lat="45.5038776" lon="11.1554308"><ele>295.0</ele><time>2026-04-25T09:26:05.104Z</time></trkpt><trkpt lat="45.5038014" lon="11.1553493"><ele>296.4</ele><time>2026-04-25T09:26:06.103Z</time></trkpt><trkpt lat="45.5037182" lon="11.1552771"><ele>297.8</ele><time>2026-04-25T09:26:07.103Z</time></trkpt><trkpt lat="45.5036305" lon="11.1552073"><ele>299.2</ele><time>2026-04-25T09:26:08.105Z</time></trkpt><trkpt lat="45.5035437" lon="11.1551354"><ele>300.6</ele><time>2026-04-25T09:26:09.104Z</time></trkpt><trkpt lat="45.5034582" lon="11.1550557"><ele>302.0</ele><time>2026-04-25T09:26:10.103Z</time></trkpt><trkpt lat="45.503375" lon="11.154966"><ele>305.4</ele><time>2026-04-25T09:26:11.103Z</time></trkpt><trkpt lat="45.5032995" lon="11.1548566"><ele>308.79999999999995</ele><time>2026-04-25T09:26:12.103Z</time></trkpt><trkpt lat="45.5032304" lon="11.1547361"><ele>312.2</ele><time>2026-04-25T09:26:13.103Z</time></trkpt><trkpt lat="45.5031684" lon="11.1546003"><ele>315.59999999999997</ele><time>2026-04-25T09:26:14.103Z</time></trkpt><trkpt lat="45.5031047" lon="11.154468"><ele>319.0</ele><time>2026-04-25T09:26:15.103Z</time></trkpt><trkpt lat="45.5030455" lon="11.1543445"><ele>319.0</ele><time>2026-04-25T09:26:16.104Z</time></trkpt><trkpt lat="45.5029948" lon="11.1542334"><ele>319.0</ele><time>2026-04-25T09:26:17.104Z</time></trkpt><trkpt lat="45.5029422" lon="11.1541479"><ele>319.0</ele><time>2026-04-25T09:26:18.104Z</time></trkpt><trkpt lat="45.5028826" lon="11.1540815"><ele>319.0</ele><time>2026-04-25T09:26:19.103Z</time></trkpt><trkpt lat="45.5028106" lon="11.1540385"><ele>319.0</ele><time>2026-04-25T09:26:20.103Z</time></trkpt><trkpt lat="45.5027309" lon="11.1540243"><ele>319.0</ele><time>2026-04-25T09:26:21.104Z</time></trkpt><trkpt lat="45.5026467" lon="11.1540287"><ele>315.75</ele><time>2026-04-25T09:26:22.103Z</time></trkpt><trkpt lat="45.5025472" lon="11.154053"><ele>312.5</ele><time>2026-04-25T09:26:23.104Z</time></trkpt><trkpt lat="45.5024197" lon="11.1541012"><ele>309.25</ele><time>2026-04-25T09:26:24.104Z</time></trkpt><trkpt lat="45.502286" lon="11.1541567"><ele>306.0</ele><time>2026-04-25T09:26:25.103Z</time></trkpt><trkpt lat="45.5021635" lon="11.1542081"><ele>308.6</ele><time>2026-04-25T09:26:26.103Z</time></trkpt><trkpt lat="45.5020478" lon="11.1542562"><ele>311.20000000000005</ele><time>2026-04-25T09:26:27.103Z</time></trkpt><trkpt lat="45.5019345" lon="11.1543009"><ele>313.79999999999995</ele><time>2026-04-25T09:26:28.103Z</time></trkpt><trkpt lat="45.5018356" lon="11.1543519"><ele>316.4</ele><time>2026-04-25T09:26:29.103Z</time></trkpt><trkpt lat="45.5017457" lon="11.1544087"><ele>319.0</ele><time>2026-04-25T09:26:30.105Z</time></trkpt><trkpt lat="45.5016582" lon="11.1544822"><ele>319.0</ele><time>2026-04-25T09:26:31.103Z</time></trkpt><trkpt lat="45.5015757" lon="11.1545614"><ele>319.0</ele><time>2026-04-25T09:26:32.103Z</time></trkpt><trkpt lat="45.5015022" lon="11.1546325"><ele>319.0</ele><time>2026-04-25T09:26:33.104Z</time></trkpt><trkpt lat="45.5014453" lon="11.154697"><ele>319.0</ele><time>2026-04-25T09:26:34.103Z</time></trkpt><trkpt lat="45.5013723" lon="11.1547788"><ele>319.0</ele><time>2026-04-25T09:26:36.103Z</time></trkpt><trkpt lat="45.50131" lon="11.1548093"><ele>319.0</ele><time>2026-04-25T09:26:38.103Z</time></trkpt><trkpt lat="45.5012368" lon="11.1547752"><ele>320.0</ele><time>2026-04-25T09:26:40.103Z</time></trkpt><trkpt lat="45.5011979" lon="11.1546287"><ele>321.0</ele><time>2026-04-25T09:26:42.104Z</time></trkpt><trkpt lat="45.5011872" lon="11.154505"><ele>322.0</ele><time>2026-04-25T09:26:43.104Z</time></trkpt><trkpt lat="45.5011787" lon="11.1543503"><ele>323.0</ele><time>2026-04-25T09:26:44.104Z</time></trkpt><trkpt lat="45.5011687" lon="11.1541737"><ele>324.0</ele><time>2026-04-25T09:26:45.104Z</time></trkpt><trkpt lat="45.5011456" lon="11.1539886"><ele>324.0</ele><time>2026-04-25T09:26:46.103Z</time></trkpt><trkpt lat="45.5011104" lon="11.1538062"><ele>324.0</ele><time>2026-04-25T09:26:47.104Z</time></trkpt><trkpt lat="45.5010763" lon="11.153624"><ele>324.0</ele><time>2026-04-25T09:26:48.104Z</time></trkpt><trkpt lat="45.501051" lon="11.1534502"><ele>324.0</ele><time>2026-04-25T09:26:49.103Z</time></trkpt><trkpt lat="45.5010175" lon="11.1532918"><ele>325.79999999999995</ele><time>2026-04-25T09:26:50.103Z</time></trkpt><trkpt lat="45.5009638" lon="11.1531391"><ele>327.59999999999997</ele><time>2026-04-25T09:26:51.103Z</time></trkpt><trkpt lat="45.5008958" lon="11.1530003"><ele>329.4</ele><time>2026-04-25T09:26:52.103Z</time></trkpt><trkpt lat="45.5008296" lon="11.1528784"><ele>331.2</ele><time>2026-04-25T09:26:53.105Z</time></trkpt><trkpt lat="45.5007726" lon="11.152767"><ele>333.0</ele><time>2026-04-25T09:26:54.103Z</time></trkpt><trkpt lat="45.5007239" lon="11.1526533"><ele>333.0</ele><time>2026-04-25T09:26:55.103Z</time></trkpt><trkpt lat="45.5006978" lon="11.1525349"><ele>333.0</ele><time>2026-04-25T09:26:56.103Z</time></trkpt><trkpt lat="45.5006896" lon="11.1524106"><ele>333.0</ele><time>2026-04-25T09:26:57.103Z</time></trkpt><trkpt lat="45.5006949" lon="11.1522858"><ele>333.0</ele><time>2026-04-25T09:26:58.103Z</time></trkpt><trkpt lat="45.500712" lon="11.1521648"><ele>333.0</ele><time>2026-04-25T09:26:59.103Z</time></trkpt><trkpt lat="45.5007348" lon="11.1520414"><ele>333.0</ele><time>2026-04-25T09:27:00.103Z</time></trkpt><trkpt lat="45.5007567" lon="11.1519196"><ele>334.0</ele><time>2026-04-25T09:27:01.104Z</time></trkpt><trkpt lat="45.5007849" lon="11.1518001"><ele>335.0</ele><time>2026-04-25T09:27:02.103Z</time></trkpt><trkpt lat="45.5008186" lon="11.151687"><ele>336.0</ele><time>2026-04-25T09:27:03.104Z</time></trkpt><trkpt lat="45.5008565" lon="11.1515801"><ele>337.0</ele><time>2026-04-25T09:27:04.103Z</time></trkpt><trkpt lat="45.5008979" lon="11.1514759"><ele>338.0</ele><time>2026-04-25T09:27:05.104Z</time></trkpt><trkpt lat="45.5009374" lon="11.1513737"><ele>339.0</ele><time>2026-04-25T09:27:06.104Z</time></trkpt><trkpt lat="45.5009724" lon="11.151265"><ele>341.6666666666667</ele><time>2026-04-25T09:27:07.104Z</time></trkpt><trkpt lat="45.5009977" lon="11.1511492"><ele>344.3333333333333</ele><time>2026-04-25T09:27:08.104Z</time></trkpt><trkpt lat="45.5010087" lon="11.1510353"><ele>347.0</ele><time>2026-04-25T09:27:09.105Z</time></trkpt><trkpt lat="45.5009935" lon="11.1509441"><ele>349.66666666666663</ele><time>2026-04-25T09:27:10.103Z</time></trkpt><trkpt lat="45.5009147" lon="11.1508954"><ele>352.3333333333333</ele><time>2026-04-25T09:27:12.103Z</time></trkpt><trkpt lat="45.5008231" lon="11.1509309"><ele>355.0</ele><time>2026-04-25T09:27:14.103Z</time></trkpt><trkpt lat="45.500766" lon="11.1509688"><ele>355.0</ele><time>2026-04-25T09:27:15.103Z</time></trkpt><trkpt lat="45.5007068" lon="11.1509995"><ele>355.0</ele><time>2026-04-25T09:27:16.104Z</time></trkpt><trkpt lat="45.5005915" lon="11.1510316"><ele>355.0</ele><time>2026-04-25T09:27:18.104Z</time></trkpt><trkpt lat="45.5004877" lon="11.1510292"><ele>355.0</ele><time>2026-04-25T09:27:20.103Z</time></trkpt><trkpt lat="45.5003808" lon="11.1510098"><ele>355.0</ele><time>2026-04-25T09:27:22.103Z</time></trkpt><trkpt lat="45.5002618" lon="11.1509697"><ele>354.16666666666663</ele><time>2026-04-25T09:27:24.103Z</time></trkpt><trkpt lat="45.5001985" lon="11.1509394"><ele>353.3333333333333</ele><time>2026-04-25T09:27:25.104Z</time></trkpt><trkpt lat="45.5001344" lon="11.1509061"><ele>352.5</ele><time>2026-04-25T09:27:26.103Z</time></trkpt><trkpt lat="45.500076" lon="11.1508701"><ele>351.6666666666667</ele><time>2026-04-25T09:27:27.104Z</time></trkpt><trkpt lat="45.4999775" lon="11.1507914"><ele>350.83333333333337</ele><time>2026-04-25T09:27:29.104Z</time></trkpt><trkpt lat="45.4998825" lon="11.1506924"><ele>350.0</ele><time>2026-04-25T09:27:31.103Z</time></trkpt><trkpt lat="45.4997862" lon="11.1505727"><ele>348.5</ele><time>2026-04-25T09:27:33.103Z</time></trkpt><trkpt lat="45.4997412" lon="11.1505"><ele>347.0</ele><time>2026-04-25T09:27:34.104Z</time></trkpt><trkpt lat="45.4996943" lon="11.1504264"><ele>345.5</ele><time>2026-04-25T09:27:35.103Z</time></trkpt><trkpt lat="45.4996497" lon="11.1503446"><ele>344.0</ele><time>2026-04-25T09:27:36.104Z</time></trkpt><trkpt lat="45.4996075" lon="11.1502489"><ele>342.5</ele><time>2026-04-25T09:27:37.105Z</time></trkpt><trkpt lat="45.4995741" lon="11.1501433"><ele>341.0</ele><time>2026-04-25T09:27:38.103Z</time></trkpt><trkpt lat="45.4995514" lon="11.1500299"><ele>341.0</ele><time>2026-04-25T09:27:39.104Z</time></trkpt><trkpt lat="45.4995386" lon="11.149914"><ele>341.0</ele><time>2026-04-25T09:27:40.105Z</time></trkpt><trkpt lat="45.4995368" lon="11.1497983"><ele>341.0</ele><time>2026-04-25T09:27:41.103Z</time></trkpt><trkpt lat="45.4995423" lon="11.1496915"><ele>341.0</ele><time>2026-04-25T09:27:42.104Z</time></trkpt><trkpt lat="45.4995568" lon="11.1495938"><ele>341.0</ele><time>2026-04-25T09:27:43.104Z</time></trkpt><trkpt lat="45.4995815" lon="11.1494994"><ele>341.0</ele><time>2026-04-25T09:27:44.103Z</time></trkpt><trkpt lat="45.4996149" lon="11.149412"><ele>341.0</ele><time>2026-04-25T09:27:45.103Z</time></trkpt><trkpt lat="45.4996547" lon="11.1493322"><ele>345.5</ele><time>2026-04-25T09:27:46.103Z</time></trkpt><trkpt lat="45.4996955" lon="11.1492556"><ele>350.0</ele><time>2026-04-25T09:27:47.103Z</time></trkpt><trkpt lat="45.4997356" lon="11.1491716"><ele>354.5</ele><time>2026-04-25T09:27:48.104Z</time></trkpt><trkpt lat="45.4997776" lon="11.1490747"><ele>359.0</ele><time>2026-04-25T09:27:49.103Z</time></trkpt><trkpt lat="45.4998237" lon="11.148968"><ele>363.5</ele><time>2026-04-25T09:27:50.104Z</time></trkpt><trkpt lat="45.4998612" lon="11.1488515"><ele>368.0</ele><time>2026-04-25T09:27:51.103Z</time></trkpt><trkpt lat="45.4998936" lon="11.1487351"><ele>369.0</ele><time>2026-04-25T09:27:52.104Z</time></trkpt><trkpt lat="45.4999152" lon="11.1486141"><ele>370.0</ele><time>2026-04-25T09:27:53.103Z</time></trkpt><trkpt lat="45.4999203" lon="11.1484929"><ele>371.0</ele><time>2026-04-25T09:27:54.103Z</time></trkpt><trkpt lat="45.4998964" lon="11.148377"><ele>372.0</ele><time>2026-04-25T09:27:55.104Z</time></trkpt><trkpt lat="45.4998481" lon="11.1482915"><ele>373.0</ele><time>2026-04-25T09:27:56.104Z</time></trkpt><trkpt lat="45.4997829" lon="11.1482518"><ele>374.0</ele><time>2026-04-25T09:27:57.104Z</time></trkpt><trkpt lat="45.4996813" lon="11.1483343"><ele>374.0</ele><time>2026-04-25T09:27:59.103Z</time></trkpt><trkpt lat="45.4996633" lon="11.1484369"><ele>374.0</ele><time>2026-04-25T09:28:00.104Z</time></trkpt><trkpt lat="45.499634" lon="11.1485447"><ele>374.0</ele><time>2026-04-25T09:28:01.103Z</time></trkpt><trkpt lat="45.4995755" lon="11.1486284"><ele>374.0</ele><time>2026-04-25T09:28:02.103Z</time></trkpt><trkpt lat="45.4994966" lon="11.1486821"><ele>374.0</ele><time>2026-04-25T09:28:03.104Z</time></trkpt><trkpt lat="45.4994073" lon="11.1486969"><ele>374.0</ele><time>2026-04-25T09:28:04.103Z</time></trkpt><trkpt lat="45.4993175" lon="11.1486874"><ele>373.1666666666667</ele><time>2026-04-25T09:28:05.103Z</time></trkpt><trkpt lat="45.4992329" lon="11.1486598"><ele>372.33333333333337</ele><time>2026-04-25T09:28:06.104Z</time></trkpt><trkpt lat="45.499156" lon="11.1486065"><ele>371.5</ele><time>2026-04-25T09:28:07.104Z</time></trkpt><trkpt lat="45.4990917" lon="11.1485235"><ele>370.6666666666667</ele><time>2026-04-25T09:28:08.104Z</time></trkpt><trkpt lat="45.4990488" lon="11.1484171"><ele>369.8333333333333</ele><time>2026-04-25T09:28:09.105Z</time></trkpt><trkpt lat="45.4990149" lon="11.1482993"><ele>369.0</ele><time>2026-04-25T09:28:10.104Z</time></trkpt><trkpt lat="45.4989824" lon="11.1481773"><ele>369.4</ele><time>2026-04-25T09:28:11.103Z</time></trkpt><trkpt lat="45.4989424" lon="11.1480577"><ele>369.79999999999995</ele><time>2026-04-25T09:28:12.104Z</time></trkpt><trkpt lat="45.4988878" lon="11.1479524"><ele>370.20000000000005</ele><time>2026-04-25T09:28:13.103Z</time></trkpt><trkpt lat="45.4988282" lon="11.1478488"><ele>370.6</ele><time>2026-04-25T09:28:14.103Z</time></trkpt><trkpt lat="45.4987773" lon="11.1477347"><ele>371.0</ele><time>2026-04-25T09:28:15.103Z</time></trkpt><trkpt lat="45.4987342" lon="11.1476048"><ele>371.0</ele><time>2026-04-25T09:28:16.103Z</time></trkpt><trkpt lat="45.4986987" lon="11.147447"><ele>371.0</ele><time>2026-04-25T09:28:17.103Z</time></trkpt><trkpt lat="45.4986619" lon="11.1472471"><ele>371.0</ele><time>2026-04-25T09:28:18.104Z</time></trkpt><trkpt lat="45.4986123" lon="11.1470379"><ele>371.0</ele><time>2026-04-25T09:28:19.103Z</time></trkpt><trkpt lat="45.4985421" lon="11.1468251"><ele>374.5</ele><time>2026-04-25T09:28:20.103Z</time></trkpt><trkpt lat="45.4984671" lon="11.1466461"><ele>378.0</ele><time>2026-04-25T09:28:21.104Z</time></trkpt><trkpt lat="45.4983657" lon="11.1465089"><ele>381.5</ele><time>2026-04-25T09:28:22.104Z</time></trkpt><trkpt lat="45.4982384" lon="11.146406"><ele>385.0</ele><time>2026-04-25T09:28:23.104Z</time></trkpt><trkpt lat="45.4980931" lon="11.1463337"><ele>390.33333333333337</ele><time>2026-04-25T09:28:24.103Z</time></trkpt><trkpt lat="45.4979465" lon="11.1462752"><ele>395.66666666666663</ele><time>2026-04-25T09:28:25.103Z</time></trkpt><trkpt lat="45.4977981" lon="11.1462215"><ele>401.0</ele><time>2026-04-25T09:28:26.104Z</time></trkpt><trkpt lat="45.4976483" lon="11.1461787"><ele>401.0</ele><time>2026-04-25T09:28:27.104Z</time></trkpt><trkpt lat="45.4974961" lon="11.1461457"><ele>401.0</ele><time>2026-04-25T09:28:28.105Z</time></trkpt><trkpt lat="45.4973431" lon="11.1461071"><ele>401.0</ele><time>2026-04-25T09:28:29.104Z</time></trkpt><trkpt lat="45.4971917" lon="11.1460619"><ele>400.25</ele><time>2026-04-25T09:28:30.104Z</time></trkpt><trkpt lat="45.497042" lon="11.1460105"><ele>399.5</ele><time>2026-04-25T09:28:31.104Z</time></trkpt><trkpt lat="45.4969041" lon="11.1459607"><ele>398.75</ele><time>2026-04-25T09:28:32.104Z</time></trkpt><trkpt lat="45.4967792" lon="11.1459262"><ele>398.0</ele><time>2026-04-25T09:28:33.103Z</time></trkpt><trkpt lat="45.4966557" lon="11.145942"><ele>398.0</ele><time>2026-04-25T09:28:34.104Z</time></trkpt><trkpt lat="45.4965263" lon="11.1460081"><ele>398.0</ele><time>2026-04-25T09:28:35.103Z</time></trkpt><trkpt lat="45.496394" lon="11.1460848"><ele>398.0</ele><time>2026-04-25T09:28:36.105Z</time></trkpt><trkpt lat="45.4962628" lon="11.14614"><ele>398.0</ele><time>2026-04-25T09:28:37.105Z</time></trkpt><trkpt lat="45.4961379" lon="11.1461771"><ele>398.0</ele><time>2026-04-25T09:28:38.104Z</time></trkpt><trkpt lat="45.496006" lon="11.1462065"><ele>398.0</ele><time>2026-04-25T09:28:39.104Z</time></trkpt><trkpt lat="45.4958779" lon="11.1462075"><ele>398.0</ele><time>2026-04-25T09:28:40.103Z</time></trkpt><trkpt lat="45.4957438" lon="11.1461834"><ele>398.0</ele><time>2026-04-25T09:28:41.103Z</time></trkpt><trkpt lat="45.4956098" lon="11.1461464"><ele>398.0</ele><time>2026-04-25T09:28:42.105Z</time></trkpt><trkpt lat="45.4954807" lon="11.1461087"><ele>398.0</ele><time>2026-04-25T09:28:43.104Z</time></trkpt><trkpt lat="45.4953557" lon="11.1460812"><ele>398.0</ele><time>2026-04-25T09:28:44.103Z</time></trkpt><trkpt lat="45.4952397" lon="11.1460462"><ele>398.0</ele><time>2026-04-25T09:28:45.103Z</time></trkpt><trkpt lat="45.4951344" lon="11.1460044"><ele>397.79999999999995</ele><time>2026-04-25T09:28:46.103Z</time></trkpt><trkpt lat="45.4950372" lon="11.145951"><ele>397.6</ele><time>2026-04-25T09:28:47.103Z</time></trkpt><trkpt lat="45.4949507" lon="11.1458896"><ele>397.4</ele><time>2026-04-25T09:28:48.104Z</time></trkpt><trkpt lat="45.494874" lon="11.145825"><ele>397.20000000000005</ele><time>2026-04-25T09:28:49.104Z</time></trkpt><trkpt lat="45.4948137" lon="11.1457812"><ele>397.0</ele><time>2026-04-25T09:28:50.104Z</time></trkpt><trkpt lat="45.4947405" lon="11.1456965"><ele>397.00000000000006</ele><time>2026-04-25T09:28:52.104Z</time></trkpt><trkpt lat="45.4947028" lon="11.1456019"><ele>397.0</ele><time>2026-04-25T09:28:55.103Z</time></trkpt><trkpt lat="45.4946095" lon="11.1455156"><ele>397.0</ele><time>2026-04-25T09:29:27.104Z</time></trkpt><trkpt lat="45.4945448" lon="11.1455038"><ele>397.0</ele><time>2026-04-25T09:29:28.104Z</time></trkpt><trkpt lat="45.4944725" lon="11.1454929"><ele>397.00000000000006</ele><time>2026-04-25T09:29:29.103Z</time></trkpt><trkpt lat="45.4943951" lon="11.1454847"><ele>397.0</ele><time>2026-04-25T09:29:30.103Z</time></trkpt><trkpt lat="45.4943168" lon="11.1454749"><ele>394.6666666666667</ele><time>2026-04-25T09:29:31.103Z</time></trkpt><trkpt lat="45.494233" lon="11.1454477"><ele>392.33333333333337</ele><time>2026-04-25T09:29:32.104Z</time></trkpt><trkpt lat="45.4941552" lon="11.1453945"><ele>390.0</ele><time>2026-04-25T09:29:33.104Z</time></trkpt><trkpt lat="45.4940927" lon="11.1453163"><ele>387.6666666666667</ele><time>2026-04-25T09:29:34.103Z</time></trkpt><trkpt lat="45.4940493" lon="11.1452247"><ele>385.33333333333337</ele><time>2026-04-25T09:29:35.105Z</time></trkpt><trkpt lat="45.4940264" lon="11.1451184"><ele>383.0</ele><time>2026-04-25T09:29:36.103Z</time></trkpt><trkpt lat="45.4940304" lon="11.1450035"><ele>383.0</ele><time>2026-04-25T09:29:37.103Z</time></trkpt><trkpt lat="45.494054" lon="11.1448935"><ele>383.0</ele><time>2026-04-25T09:29:38.103Z</time></trkpt><trkpt lat="45.4940995" lon="11.1447813"><ele>383.0</ele><time>2026-04-25T09:29:39.104Z</time></trkpt><trkpt lat="45.4941611" lon="11.1446661"><ele>383.0</ele><time>2026-04-25T09:29:40.103Z</time></trkpt><trkpt lat="45.4942318" lon="11.1445404"><ele>383.0</ele><time>2026-04-25T09:29:41.104Z</time></trkpt><trkpt lat="45.4943045" lon="11.144406"><ele>381.75</ele><time>2026-04-25T09:29:42.103Z</time></trkpt><trkpt lat="45.4943768" lon="11.1442695"><ele>380.5</ele><time>2026-04-25T09:29:43.104Z</time></trkpt><trkpt lat="45.4944517" lon="11.1441251"><ele>379.25</ele><time>2026-04-25T09:29:44.104Z</time></trkpt><trkpt lat="45.4945262" lon="11.1439683"><ele>378.0</ele><time>2026-04-25T09:29:45.104Z</time></trkpt><trkpt lat="45.4945945" lon="11.1438026"><ele>378.0</ele><time>2026-04-25T09:29:46.103Z</time></trkpt><trkpt lat="45.4946567" lon="11.143618"><ele>378.0</ele><time>2026-04-25T09:29:47.104Z</time></trkpt><trkpt lat="45.4947099" lon="11.1434231"><ele>378.0</ele><time>2026-04-25T09:29:48.105Z</time></trkpt><trkpt lat="45.4947641" lon="11.1432229"><ele>378.0</ele><time>2026-04-25T09:29:49.103Z</time></trkpt><trkpt lat="45.4948195" lon="11.1430252"><ele>375.0</ele><time>2026-04-25T09:29:50.103Z</time></trkpt><trkpt lat="45.4948753" lon="11.1428279"><ele>372.0</ele><time>2026-04-25T09:29:51.104Z</time></trkpt><trkpt lat="45.4949276" lon="11.1426346"><ele>369.0</ele><time>2026-04-25T09:29:52.103Z</time></trkpt><trkpt lat="45.494981" lon="11.1424439"><ele>366.0</ele><time>2026-04-25T09:29:53.104Z</time></trkpt><trkpt lat="45.4950391" lon="11.142249"><ele>361.0</ele><time>2026-04-25T09:29:54.103Z</time></trkpt><trkpt lat="45.4951097" lon="11.1420522"><ele>356.0</ele><time>2026-04-25T09:29:55.105Z</time></trkpt><trkpt lat="45.4951884" lon="11.1418571"><ele>351.0</ele><time>2026-04-25T09:29:56.103Z</time></trkpt><trkpt lat="45.4952714" lon="11.1416609"><ele>354.0</ele><time>2026-04-25T09:29:57.103Z</time></trkpt><trkpt lat="45.4953517" lon="11.1414605"><ele>357.0</ele><time>2026-04-25T09:29:58.104Z</time></trkpt><trkpt lat="45.4954257" lon="11.1412596"><ele>360.0</ele><time>2026-04-25T09:29:59.104Z</time></trkpt><trkpt lat="45.4954819" lon="11.1410517"><ele>360.0</ele><time>2026-04-25T09:30:00.103Z</time></trkpt><trkpt lat="45.4955251" lon="11.1408319"><ele>360.0</ele><time>2026-04-25T09:30:01.103Z</time></trkpt><trkpt lat="45.4955584" lon="11.1406102"><ele>360.0</ele><time>2026-04-25T09:30:02.103Z</time></trkpt><trkpt lat="45.4955866" lon="11.1403887"><ele>357.0</ele><time>2026-04-25T09:30:03.104Z</time></trkpt><trkpt lat="45.4956145" lon="11.1401742"><ele>354.0</ele><time>2026-04-25T09:30:04.104Z</time></trkpt><trkpt lat="45.4956423" lon="11.1399743"><ele>351.0</ele><time>2026-04-25T09:30:05.103Z</time></trkpt><trkpt lat="45.4956674" lon="11.1397908"><ele>348.0</ele><time>2026-04-25T09:30:06.103Z</time></trkpt><trkpt lat="45.4956787" lon="11.1396286"><ele>346.0</ele><time>2026-04-25T09:30:07.104Z</time></trkpt><trkpt lat="45.4956523" lon="11.139475"><ele>344.0</ele><time>2026-04-25T09:30:08.103Z</time></trkpt><trkpt lat="45.4955884" lon="11.1393528"><ele>342.0</ele><time>2026-04-25T09:30:09.104Z</time></trkpt><trkpt lat="45.4954964" lon="11.1392747"><ele>340.0</ele><time>2026-04-25T09:30:10.104Z</time></trkpt><trkpt lat="45.4953869" lon="11.1392454"><ele>338.0</ele><time>2026-04-25T09:30:11.104Z</time></trkpt><trkpt lat="45.4952666" lon="11.1392681"><ele>335.5</ele><time>2026-04-25T09:30:12.104Z</time></trkpt><trkpt lat="45.4951438" lon="11.1393356"><ele>333.0</ele><time>2026-04-25T09:30:13.104Z</time></trkpt><trkpt lat="45.4950158" lon="11.1394277"><ele>330.5</ele><time>2026-04-25T09:30:14.104Z</time></trkpt><trkpt lat="45.4948893" lon="11.139522"><ele>328.0</ele><time>2026-04-25T09:30:15.105Z</time></trkpt><trkpt lat="45.4947636" lon="11.1396142"><ele>328.0</ele><time>2026-04-25T09:30:16.105Z</time></trkpt><trkpt lat="45.4946504" lon="11.1397024"><ele>328.0</ele><time>2026-04-25T09:30:17.103Z</time></trkpt><trkpt lat="45.4945548" lon="11.1397757"><ele>328.0</ele><time>2026-04-25T09:30:18.104Z</time></trkpt><trkpt lat="45.4944733" lon="11.1398298"><ele>328.0</ele><time>2026-04-25T09:30:19.103Z</time></trkpt><trkpt lat="45.4943961" lon="11.139845"><ele>328.0</ele><time>2026-04-25T09:30:20.103Z</time></trkpt><trkpt lat="45.4943278" lon="11.1398139"><ele>325.8333333333333</ele><time>2026-04-25T09:30:21.104Z</time></trkpt><trkpt lat="45.4942876" lon="11.1397421"><ele>323.66666666666663</ele><time>2026-04-25T09:30:22.103Z</time></trkpt><trkpt lat="45.4942832" lon="11.1396453"><ele>321.5</ele><time>2026-04-25T09:30:23.104Z</time></trkpt><trkpt lat="45.4943183" lon="11.1395318"><ele>319.3333333333333</ele><time>2026-04-25T09:30:24.104Z</time></trkpt><trkpt lat="45.4943821" lon="11.1394104"><ele>317.1666666666667</ele><time>2026-04-25T09:30:25.103Z</time></trkpt><trkpt lat="45.4944569" lon="11.1392831"><ele>315.0</ele><time>2026-04-25T09:30:26.104Z</time></trkpt><trkpt lat="45.4945275" lon="11.1391319"><ele>315.25</ele><time>2026-04-25T09:30:27.103Z</time></trkpt><trkpt lat="45.4945943" lon="11.1389707"><ele>315.5</ele><time>2026-04-25T09:30:28.104Z</time></trkpt><trkpt lat="45.4946541" lon="11.1387957"><ele>315.75</ele><time>2026-04-25T09:30:29.103Z</time></trkpt><trkpt lat="45.4947116" lon="11.1386076"><ele>316.0</ele><time>2026-04-25T09:30:30.103Z</time></trkpt><trkpt lat="45.4947667" lon="11.1384148"><ele>313.75</ele><time>2026-04-25T09:30:31.105Z</time></trkpt><trkpt lat="45.4948138" lon="11.1382177"><ele>311.5</ele><time>2026-04-25T09:30:32.104Z</time></trkpt><trkpt lat="45.4948366" lon="11.1380153"><ele>309.25</ele><time>2026-04-25T09:30:33.104Z</time></trkpt><trkpt lat="45.4948304" lon="11.1378135"><ele>307.0</ele><time>2026-04-25T09:30:34.105Z</time></trkpt><trkpt lat="45.4948131" lon="11.1376204"><ele>307.0</ele><time>2026-04-25T09:30:35.104Z</time></trkpt><trkpt lat="45.4947955" lon="11.137449"><ele>307.0</ele><time>2026-04-25T09:30:36.103Z</time></trkpt><trkpt lat="45.494774" lon="11.1373016"><ele>307.0</ele><time>2026-04-25T09:30:37.104Z</time></trkpt><trkpt lat="45.4947454" lon="11.1371624"><ele>307.0</ele><time>2026-04-25T09:30:38.104Z</time></trkpt><trkpt lat="45.4947094" lon="11.1370309"><ele>307.0</ele><time>2026-04-25T09:30:39.103Z</time></trkpt><trkpt lat="45.4946609" lon="11.1369169"><ele>304.0</ele><time>2026-04-25T09:30:40.103Z</time></trkpt><trkpt lat="45.4945922" lon="11.1368322"><ele>301.0</ele><time>2026-04-25T09:30:41.103Z</time></trkpt><trkpt lat="45.4945095" lon="11.1367897"><ele>298.0</ele><time>2026-04-25T09:30:42.104Z</time></trkpt><trkpt lat="45.4944252" lon="11.1367934"><ele>295.0</ele><time>2026-04-25T09:30:43.104Z</time></trkpt><trkpt lat="45.494351" lon="11.13685"><ele>292.0</ele><time>2026-04-25T09:30:44.103Z</time></trkpt><trkpt lat="45.4943069" lon="11.1369466"><ele>289.0</ele><time>2026-04-25T09:30:45.103Z</time></trkpt><trkpt lat="45.4942839" lon="11.1370676"><ele>289.0</ele><time>2026-04-25T09:30:46.103Z</time></trkpt><trkpt lat="45.4942783" lon="11.1372101"><ele>289.0</ele><time>2026-04-25T09:30:47.104Z</time></trkpt><trkpt lat="45.4942791" lon="11.137372"><ele>289.0</ele><time>2026-04-25T09:30:48.103Z</time></trkpt><trkpt lat="45.4942826" lon="11.137546"><ele>289.0</ele><time>2026-04-25T09:30:49.103Z</time></trkpt><trkpt lat="45.4942896" lon="11.1377238"><ele>290.0</ele><time>2026-04-25T09:30:50.103Z</time></trkpt><trkpt lat="45.494278" lon="11.1378861"><ele>291.0</ele><time>2026-04-25T09:30:51.103Z</time></trkpt><trkpt lat="45.494228" lon="11.1380254"><ele>292.0</ele><time>2026-04-25T09:30:52.104Z</time></trkpt><trkpt lat="45.4941522" lon="11.1381262"><ele>293.0</ele><time>2026-04-25T09:30:53.104Z</time></trkpt><trkpt lat="45.4940503" lon="11.1381762"><ele>294.0</ele><time>2026-04-25T09:30:54.104Z</time></trkpt><trkpt lat="45.4939283" lon="11.1381868"><ele>294.0</ele><time>2026-04-25T09:30:55.103Z</time></trkpt><trkpt lat="45.4937924" lon="11.1381834"><ele>294.0</ele><time>2026-04-25T09:30:56.105Z</time></trkpt><trkpt lat="45.4936439" lon="11.1381851"><ele>294.0</ele><time>2026-04-25T09:30:57.104Z</time></trkpt><trkpt lat="45.4934879" lon="11.1381835"><ele>294.0</ele><time>2026-04-25T09:30:58.104Z</time></trkpt><trkpt lat="45.4933359" lon="11.1381748"><ele>290.75</ele><time>2026-04-25T09:30:59.104Z</time></trkpt><trkpt lat="45.4931914" lon="11.1381541"><ele>287.5</ele><time>2026-04-25T09:31:00.104Z</time></trkpt><trkpt lat="45.4930473" lon="11.1381242"><ele>284.25</ele><time>2026-04-25T09:31:01.103Z</time></trkpt><trkpt lat="45.4929046" lon="11.1380872"><ele>281.0</ele><time>2026-04-25T09:31:02.103Z</time></trkpt><trkpt lat="45.4927664" lon="11.1380458"><ele>280.75</ele><time>2026-04-25T09:31:03.104Z</time></trkpt><trkpt lat="45.4926367" lon="11.1380147"><ele>280.5</ele><time>2026-04-25T09:31:04.103Z</time></trkpt><trkpt lat="45.4925175" lon="11.1379895"><ele>280.25</ele><time>2026-04-25T09:31:05.104Z</time></trkpt><trkpt lat="45.49241" lon="11.1379639"><ele>280.0</ele><time>2026-04-25T09:31:06.103Z</time></trkpt><trkpt lat="45.4923171" lon="11.1379249"><ele>280.0</ele><time>2026-04-25T09:31:07.103Z</time></trkpt><trkpt lat="45.4922408" lon="11.1378589"><ele>280.0</ele><time>2026-04-25T09:31:08.103Z</time></trkpt><trkpt lat="45.4921966" lon="11.1377598"><ele>280.0</ele><time>2026-04-25T09:31:09.103Z</time></trkpt><trkpt lat="45.492193" lon="11.1376459"><ele>280.0</ele><time>2026-04-25T09:31:10.104Z</time></trkpt><trkpt lat="45.4922301" lon="11.1375426"><ele>280.0</ele><time>2026-04-25T09:31:11.103Z</time></trkpt><trkpt lat="45.4923016" lon="11.1374728"><ele>280.0</ele><time>2026-04-25T09:31:12.103Z</time></trkpt><trkpt lat="45.4923922" lon="11.1374511"><ele>280.0</ele><time>2026-04-25T09:31:13.103Z</time></trkpt><trkpt lat="45.4924929" lon="11.1374753"><ele>280.0</ele><time>2026-04-25T09:31:14.104Z</time></trkpt><trkpt lat="45.4926059" lon="11.1375166"><ele>280.0</ele><time>2026-04-25T09:31:15.103Z</time></trkpt><trkpt lat="45.4927337" lon="11.1375553"><ele>280.0</ele><time>2026-04-25T09:31:16.104Z</time></trkpt><trkpt lat="45.4928693" lon="11.1375943"><ele>280.25</ele><time>2026-04-25T09:31:17.104Z</time></trkpt><trkpt lat="45.4930028" lon="11.1376328"><ele>280.5</ele><time>2026-04-25T09:31:18.103Z</time></trkpt><trkpt lat="45.4931222" lon="11.1376664"><ele>280.75</ele><time>2026-04-25T09:31:19.103Z</time></trkpt><trkpt lat="45.4932282" lon="11.1376849"><ele>281.0</ele><time>2026-04-25T09:31:20.103Z</time></trkpt><trkpt lat="45.4933218" lon="11.1376606"><ele>281.0</ele><time>2026-04-25T09:31:21.104Z</time></trkpt><trkpt lat="45.4933871" lon="11.1375691"><ele>281.0</ele><time>2026-04-25T09:31:22.104Z</time></trkpt><trkpt lat="45.4934248" lon="11.137443"><ele>281.0</ele><time>2026-04-25T09:31:23.104Z</time></trkpt><trkpt lat="45.4934209" lon="11.1372959"><ele>281.0</ele><time>2026-04-25T09:31:24.104Z</time></trkpt><trkpt lat="45.4933948" lon="11.137126"><ele>281.0</ele><time>2026-04-25T09:31:25.103Z</time></trkpt><trkpt lat="45.4933607" lon="11.1369446"><ele>278.75</ele><time>2026-04-25T09:31:26.103Z</time></trkpt><trkpt lat="45.4933248" lon="11.1367548"><ele>276.5</ele><time>2026-04-25T09:31:27.103Z</time></trkpt><trkpt lat="45.4932891" lon="11.1365641"><ele>274.25</ele><time>2026-04-25T09:31:28.104Z</time></trkpt><trkpt lat="45.4932462" lon="11.1363722"><ele>272.0</ele><time>2026-04-25T09:31:29.104Z</time></trkpt><trkpt lat="45.4931932" lon="11.1361833"><ele>271.5</ele><time>2026-04-25T09:31:30.104Z</time></trkpt><trkpt lat="45.4931305" lon="11.1359965"><ele>271.0</ele><time>2026-04-25T09:31:31.104Z</time></trkpt><trkpt lat="45.4930636" lon="11.1358099"><ele>270.5</ele><time>2026-04-25T09:31:32.104Z</time></trkpt><trkpt lat="45.49299" lon="11.135625"><ele>270.0</ele><time>2026-04-25T09:31:33.103Z</time></trkpt><trkpt lat="45.4929138" lon="11.135443"><ele>266.0</ele><time>2026-04-25T09:31:34.103Z</time></trkpt><trkpt lat="45.4928281" lon="11.1352807"><ele>262.0</ele><time>2026-04-25T09:31:35.103Z</time></trkpt><trkpt lat="45.4927244" lon="11.1351449"><ele>258.0</ele><time>2026-04-25T09:31:36.104Z</time></trkpt><trkpt lat="45.4926154" lon="11.1350305"><ele>254.0</ele><time>2026-04-25T09:31:37.104Z</time></trkpt><trkpt lat="45.492517" lon="11.1349181"><ele>254.39999999999998</ele><time>2026-04-25T09:31:38.103Z</time></trkpt><trkpt lat="45.4924331" lon="11.1347975"><ele>254.79999999999998</ele><time>2026-04-25T09:31:39.104Z</time></trkpt><trkpt lat="45.4923556" lon="11.1346712"><ele>255.20000000000002</ele><time>2026-04-25T09:31:40.103Z</time></trkpt><trkpt lat="45.4922789" lon="11.134563"><ele>255.60000000000002</ele><time>2026-04-25T09:31:41.104Z</time></trkpt><trkpt lat="45.4922113" lon="11.1344732"><ele>256.0</ele><time>2026-04-25T09:31:42.104Z</time></trkpt><trkpt lat="45.4921553" lon="11.1343762"><ele>255.99999999999997</ele><time>2026-04-25T09:31:43.103Z</time></trkpt><trkpt lat="45.49212" lon="11.1342591"><ele>256.0</ele><time>2026-04-25T09:31:44.103Z</time></trkpt><trkpt lat="45.4921159" lon="11.134134"><ele>256.0</ele><time>2026-04-25T09:31:45.104Z</time></trkpt><trkpt lat="45.4921397" lon="11.1340115"><ele>256.0</ele><time>2026-04-25T09:31:46.103Z</time></trkpt><trkpt lat="45.492193" lon="11.1339119"><ele>255.99999999999997</ele><time>2026-04-25T09:31:47.103Z</time></trkpt><trkpt lat="45.4922646" lon="11.1338504"><ele>256.0</ele><time>2026-04-25T09:31:48.105Z</time></trkpt><trkpt lat="45.4923512" lon="11.133819"><ele>253.20000000000002</ele><time>2026-04-25T09:31:49.105Z</time></trkpt><trkpt lat="45.4924484" lon="11.1337946"><ele>250.40000000000003</ele><time>2026-04-25T09:31:50.104Z</time></trkpt><trkpt lat="45.4925504" lon="11.1337667"><ele>247.6</ele><time>2026-04-25T09:31:51.103Z</time></trkpt><trkpt lat="45.4926566" lon="11.1337276"><ele>244.8</ele><time>2026-04-25T09:31:52.104Z</time></trkpt><trkpt lat="45.4927612" lon="11.1336699"><ele>242.0</ele><time>2026-04-25T09:31:53.103Z</time></trkpt><trkpt lat="45.492861" lon="11.1335919"><ele>242.5</ele><time>2026-04-25T09:31:54.103Z</time></trkpt><trkpt lat="45.4929548" lon="11.1334883"><ele>243.0</ele><time>2026-04-25T09:31:55.104Z</time></trkpt><trkpt lat="45.4930438" lon="11.1333695"><ele>243.5</ele><time>2026-04-25T09:31:56.103Z</time></trkpt><trkpt lat="45.4931299" lon="11.1332372"><ele>244.0</ele><time>2026-04-25T09:31:57.103Z</time></trkpt><trkpt lat="45.4932106" lon="11.1330923"><ele>244.0</ele><time>2026-04-25T09:31:58.103Z</time></trkpt><trkpt lat="45.4932783" lon="11.1329324"><ele>244.0</ele><time>2026-04-25T09:31:59.103Z</time></trkpt><trkpt lat="45.4933311" lon="11.1327634"><ele>244.0</ele><time>2026-04-25T09:32:00.103Z</time></trkpt><trkpt lat="45.4933724" lon="11.1325979"><ele>244.0</ele><time>2026-04-25T09:32:01.103Z</time></trkpt><trkpt lat="45.4934064" lon="11.1324369"><ele>241.2</ele><time>2026-04-25T09:32:02.103Z</time></trkpt><trkpt lat="45.4934265" lon="11.1322809"><ele>238.39999999999998</ele><time>2026-04-25T09:32:03.105Z</time></trkpt><trkpt lat="45.4934197" lon="11.1321261"><ele>235.6</ele><time>2026-04-25T09:32:04.104Z</time></trkpt><trkpt lat="45.493389" lon="11.1319814"><ele>232.8</ele><time>2026-04-25T09:32:05.103Z</time></trkpt><trkpt lat="45.4933342" lon="11.1318539"><ele>230.0</ele><time>2026-04-25T09:32:06.103Z</time></trkpt><trkpt lat="45.4932561" lon="11.1317564"><ele>230.0</ele><time>2026-04-25T09:32:07.104Z</time></trkpt><trkpt lat="45.4931646" lon="11.1316996"><ele>230.0</ele><time>2026-04-25T09:32:08.105Z</time></trkpt><trkpt lat="45.4930641" lon="11.1316904"><ele>230.0</ele><time>2026-04-25T09:32:09.105Z</time></trkpt><trkpt lat="45.4929653" lon="11.1317297"><ele>230.0</ele><time>2026-04-25T09:32:10.104Z</time></trkpt><trkpt lat="45.4928761" lon="11.1318189"><ele>230.0</ele><time>2026-04-25T09:32:11.103Z</time></trkpt><trkpt lat="45.4927947" lon="11.131943"><ele>230.25</ele><time>2026-04-25T09:32:12.104Z</time></trkpt><trkpt lat="45.4927184" lon="11.1320954"><ele>230.5</ele><time>2026-04-25T09:32:13.104Z</time></trkpt><trkpt lat="45.4926448" lon="11.1322691"><ele>230.75</ele><time>2026-04-25T09:32:14.104Z</time></trkpt><trkpt lat="45.4925569" lon="11.1324419"><ele>231.0</ele><time>2026-04-25T09:32:15.104Z</time></trkpt><trkpt lat="45.4924542" lon="11.1325973"><ele>231.0</ele><time>2026-04-25T09:32:16.103Z</time></trkpt><trkpt lat="45.4923414" lon="11.1327451"><ele>231.0</ele><time>2026-04-25T09:32:17.103Z</time></trkpt><trkpt lat="45.4922209" lon="11.1328767"><ele>231.0</ele><time>2026-04-25T09:32:18.105Z</time></trkpt><trkpt lat="45.4920902" lon="11.132979"><ele>228.5</ele><time>2026-04-25T09:32:19.104Z</time></trkpt><trkpt lat="45.4919569" lon="11.133069"><ele>226.0</ele><time>2026-04-25T09:32:20.103Z</time></trkpt><trkpt lat="45.4918265" lon="11.1331598"><ele>223.5</ele><time>2026-04-25T09:32:21.103Z</time></trkpt><trkpt lat="45.4916977" lon="11.1332488"><ele>221.0</ele><time>2026-04-25T09:32:22.103Z</time></trkpt><trkpt lat="45.491575" lon="11.133349"><ele>221.0</ele><time>2026-04-25T09:32:23.104Z</time></trkpt><trkpt lat="45.491462" lon="11.1334807"><ele>221.0</ele><time>2026-04-25T09:32:24.103Z</time></trkpt><trkpt lat="45.4913605" lon="11.1336435"><ele>221.0</ele><time>2026-04-25T09:32:25.104Z</time></trkpt><trkpt lat="45.4912643" lon="11.133834"><ele>217.75</ele><time>2026-04-25T09:32:26.103Z</time></trkpt><trkpt lat="45.4911771" lon="11.1340365"><ele>214.5</ele><time>2026-04-25T09:32:27.104Z</time></trkpt><trkpt lat="45.4911083" lon="11.1342319"><ele>211.25</ele><time>2026-04-25T09:32:28.104Z</time></trkpt><trkpt lat="45.491063" lon="11.1344045"><ele>208.0</ele><time>2026-04-25T09:32:29.104Z</time></trkpt><trkpt lat="45.4910504" lon="11.1345523"><ele>207.99999999999997</ele><time>2026-04-25T09:32:30.104Z</time></trkpt><trkpt lat="45.4910751" lon="11.1346803"><ele>208.0</ele><time>2026-04-25T09:32:31.103Z</time></trkpt><trkpt lat="45.4911233" lon="11.1347758"><ele>208.0</ele><time>2026-04-25T09:32:32.103Z</time></trkpt><trkpt lat="45.4911741" lon="11.1348468"><ele>208.0</ele><time>2026-04-25T09:32:33.104Z</time></trkpt><trkpt lat="45.491214" lon="11.1349567"><ele>207.99999999999997</ele><time>2026-04-25T09:32:35.103Z</time></trkpt><trkpt lat="45.4911442" lon="11.135036"><ele>208.0</ele><time>2026-04-25T09:32:37.104Z</time></trkpt><trkpt lat="45.4910779" lon="11.1350191"><ele>208.0</ele><time>2026-04-25T09:32:38.103Z</time></trkpt><trkpt lat="45.491006" lon="11.1349603"><ele>208.0</ele><time>2026-04-25T09:32:39.104Z</time></trkpt><trkpt lat="45.4909327" lon="11.1348821"><ele>208.0</ele><time>2026-04-25T09:32:40.103Z</time></trkpt><trkpt lat="45.4908707" lon="11.1347774"><ele>208.0</ele><time>2026-04-25T09:32:41.103Z</time></trkpt><trkpt lat="45.4908327" lon="11.1346415"><ele>208.0</ele><time>2026-04-25T09:32:42.103Z</time></trkpt><trkpt lat="45.4908171" lon="11.1344844"><ele>208.0</ele><time>2026-04-25T09:32:43.103Z</time></trkpt><trkpt lat="45.490821" lon="11.1343069"><ele>208.0</ele><time>2026-04-25T09:32:44.104Z</time></trkpt><trkpt lat="45.4908337" lon="11.1341306"><ele>208.0</ele><time>2026-04-25T09:32:45.103Z</time></trkpt><trkpt lat="45.4908477" lon="11.133948"><ele>208.0</ele><time>2026-04-25T09:32:46.104Z</time></trkpt><trkpt lat="45.4908659" lon="11.1337605"><ele>206.75</ele><time>2026-04-25T09:32:47.103Z</time></trkpt><trkpt lat="45.49089" lon="11.1335707"><ele>205.5</ele><time>2026-04-25T09:32:48.104Z</time></trkpt><trkpt lat="45.4909182" lon="11.1333735"><ele>204.25</ele><time>2026-04-25T09:32:49.104Z</time></trkpt><trkpt lat="45.4909464" lon="11.1331746"><ele>203.0</ele><time>2026-04-25T09:32:50.104Z</time></trkpt><trkpt lat="45.490976" lon="11.13298"><ele>202.5</ele><time>2026-04-25T09:32:51.103Z</time></trkpt><trkpt lat="45.491016" lon="11.1327897"><ele>202.0</ele><time>2026-04-25T09:32:52.103Z</time></trkpt><trkpt lat="45.4910687" lon="11.1326073"><ele>201.5</ele><time>2026-04-25T09:32:53.104Z</time></trkpt><trkpt lat="45.4911279" lon="11.132428"><ele>201.0</ele><time>2026-04-25T09:32:54.103Z</time></trkpt><trkpt lat="45.4911879" lon="11.1322471"><ele>200.5</ele><time>2026-04-25T09:32:55.103Z</time></trkpt><trkpt lat="45.491249" lon="11.1320613"><ele>200.0</ele><time>2026-04-25T09:32:56.103Z</time></trkpt><trkpt lat="45.4913182" lon="11.1318752"><ele>199.5</ele><time>2026-04-25T09:32:57.105Z</time></trkpt><trkpt lat="45.4913992" lon="11.1316891"><ele>199.0</ele><time>2026-04-25T09:32:58.104Z</time></trkpt><trkpt lat="45.4914986" lon="11.1315048"><ele>188.33333333333331</ele><time>2026-04-25T09:32:59.103Z</time></trkpt><trkpt lat="45.491603" lon="11.1313163"><ele>177.66666666666666</ele><time>2026-04-25T09:33:00.103Z</time></trkpt><trkpt lat="45.4917061" lon="11.1311253"><ele>167.0</ele><time>2026-04-25T09:33:01.103Z</time></trkpt><trkpt lat="45.4918105" lon="11.1309367"><ele>167.0</ele><time>2026-04-25T09:33:02.104Z</time></trkpt><trkpt lat="45.4919152" lon="11.1307516"><ele>167.0</ele><time>2026-04-25T09:33:03.104Z</time></trkpt><trkpt lat="45.4920113" lon="11.1305783"><ele>167.0</ele><time>2026-04-25T09:33:04.104Z</time></trkpt><trkpt lat="45.492097" lon="11.1304195"><ele>166.0</ele><time>2026-04-25T09:33:05.104Z</time></trkpt><trkpt lat="45.4921872" lon="11.1302711"><ele>165.0</ele><time>2026-04-25T09:33:06.104Z</time></trkpt><trkpt lat="45.4923009" lon="11.1301446"><ele>164.0</ele><time>2026-04-25T09:33:07.104Z</time></trkpt><trkpt lat="45.4924266" lon="11.1300357"><ele>163.0</ele><time>2026-04-25T09:33:08.104Z</time></trkpt><trkpt lat="45.4925669" lon="11.1299479"><ele>156.0</ele><time>2026-04-25T09:33:09.104Z</time></trkpt><trkpt lat="45.4927184" lon="11.1298781"><ele>149.0</ele><time>2026-04-25T09:33:10.103Z</time></trkpt><trkpt lat="45.4928788" lon="11.1298235"><ele>142.0</ele><time>2026-04-25T09:33:11.103Z</time></trkpt><trkpt lat="45.4930439" lon="11.1297812"><ele>142.0</ele><time>2026-04-25T09:33:12.103Z</time></trkpt><trkpt lat="45.4932033" lon="11.1297461"><ele>142.0</ele><time>2026-04-25T09:33:13.104Z</time></trkpt><trkpt lat="45.4933448" lon="11.1297148"><ele>142.0</ele><time>2026-04-25T09:33:14.103Z</time></trkpt><trkpt lat="45.4934725" lon="11.1296872"><ele>142.0</ele><time>2026-04-25T09:33:15.104Z</time></trkpt><trkpt lat="45.4935827" lon="11.1296517"><ele>142.0</ele><time>2026-04-25T09:33:16.103Z</time></trkpt><trkpt lat="45.4936799" lon="11.1295839"><ele>142.0</ele><time>2026-04-25T09:33:17.103Z</time></trkpt><trkpt lat="45.4937524" lon="11.1294678"><ele>142.0</ele><time>2026-04-25T09:33:18.104Z</time></trkpt><trkpt lat="45.4937966" lon="11.1293105"><ele>142.0</ele><time>2026-04-25T09:33:19.104Z</time></trkpt><trkpt lat="45.4938146" lon="11.1291676"><ele>142.0</ele><time>2026-04-25T09:33:20.103Z</time></trkpt><trkpt lat="45.4938287" lon="11.1290528"><ele>141.4</ele><time>2026-04-25T09:33:21.103Z</time></trkpt><trkpt lat="45.4938363" lon="11.1289585"><ele>140.79999999999998</ele><time>2026-04-25T09:33:22.105Z</time></trkpt><trkpt lat="45.4938451" lon="11.1288156"><ele>140.2</ele><time>2026-04-25T09:33:24.104Z</time></trkpt><trkpt lat="45.4938538" lon="11.1287162"><ele>139.6</ele><time>2026-04-25T09:33:26.104Z</time></trkpt><trkpt lat="45.4938569" lon="11.1285993"><ele>139.0</ele><time>2026-04-25T09:33:39.103Z</time></trkpt><trkpt lat="45.4938804" lon="11.1284132"><ele>139.0</ele><time>2026-04-25T09:33:41.103Z</time></trkpt><trkpt lat="45.4938913" lon="11.1282961"><ele>139.0</ele><time>2026-04-25T09:33:42.104Z</time></trkpt><trkpt lat="45.4939034" lon="11.1281643"><ele>139.0</ele><time>2026-04-25T09:33:43.104Z</time></trkpt><trkpt lat="45.4939164" lon="11.1280172"><ele>139.0</ele><time>2026-04-25T09:33:44.104Z</time></trkpt><trkpt lat="45.4939271" lon="11.1278664"><ele>139.0</ele><time>2026-04-25T09:33:45.103Z</time></trkpt><trkpt lat="45.4939351" lon="11.1277068"><ele>139.4</ele><time>2026-04-25T09:33:46.103Z</time></trkpt><trkpt lat="45.4939288" lon="11.1275489"><ele>139.8</ele><time>2026-04-25T09:33:47.104Z</time></trkpt><trkpt lat="45.493901" lon="11.1273969"><ele>140.2</ele><time>2026-04-25T09:33:48.104Z</time></trkpt><trkpt lat="45.4938517" lon="11.1272504"><ele>140.6</ele><time>2026-04-25T09:33:49.103Z</time></trkpt><trkpt lat="45.4937897" lon="11.1271202"><ele>141.0</ele><time>2026-04-25T09:33:50.104Z</time></trkpt><trkpt lat="45.4937156" lon="11.1269989"><ele>142.25</ele><time>2026-04-25T09:33:51.105Z</time></trkpt><trkpt lat="45.493636" lon="11.1268864"><ele>143.5</ele><time>2026-04-25T09:33:52.105Z</time></trkpt><trkpt lat="45.4935551" lon="11.1267713"><ele>144.75</ele><time>2026-04-25T09:33:53.104Z</time></trkpt><trkpt lat="45.4934678" lon="11.1266463"><ele>146.0</ele><time>2026-04-25T09:33:54.103Z</time></trkpt><trkpt lat="45.4933748" lon="11.1265092"><ele>146.75</ele><time>2026-04-25T09:33:55.103Z</time></trkpt><trkpt lat="45.4932799" lon="11.1263627"><ele>147.5</ele><time>2026-04-25T09:33:56.104Z</time></trkpt><trkpt lat="45.4931822" lon="11.1262156"><ele>148.25</ele><time>2026-04-25T09:33:57.104Z</time></trkpt><trkpt lat="45.493089" lon="11.1260773"><ele>149.0</ele><time>2026-04-25T09:33:58.104Z</time></trkpt><trkpt lat="45.4930027" lon="11.1259495"><ele>148.0</ele><time>2026-04-25T09:33:59.103Z</time></trkpt><trkpt lat="45.4929072" lon="11.1258482"><ele>147.0</ele><time>2026-04-25T09:34:00.104Z</time></trkpt><trkpt lat="45.492798" lon="11.1257818"><ele>146.0</ele><time>2026-04-25T09:34:01.104Z</time></trkpt><trkpt lat="45.4926714" lon="11.1257502"><ele>145.0</ele><time>2026-04-25T09:34:02.105Z</time></trkpt><trkpt lat="45.4925331" lon="11.1257525"><ele>145.0</ele><time>2026-04-25T09:34:03.104Z</time></trkpt><trkpt lat="45.4923905" lon="11.1257687"><ele>145.0</ele><time>2026-04-25T09:34:04.104Z</time></trkpt><trkpt lat="45.4922461" lon="11.1257798"><ele>145.0</ele><time>2026-04-25T09:34:05.104Z</time></trkpt><trkpt lat="45.4921034" lon="11.1257901"><ele>145.0</ele><time>2026-04-25T09:34:06.104Z</time></trkpt><trkpt lat="45.4919716" lon="11.125802"><ele>145.2</ele><time>2026-04-25T09:34:07.103Z</time></trkpt><trkpt lat="45.491849" lon="11.1258121"><ele>145.4</ele><time>2026-04-25T09:34:08.103Z</time></trkpt><trkpt lat="45.4917403" lon="11.1258194"><ele>145.6</ele><time>2026-04-25T09:34:09.104Z</time></trkpt><trkpt lat="45.4916445" lon="11.1258228"><ele>145.8</ele><time>2026-04-25T09:34:10.104Z</time></trkpt><trkpt lat="45.4915656" lon="11.1258097"><ele>146.0</ele><time>2026-04-25T09:34:11.104Z</time></trkpt><trkpt lat="45.4914601" lon="11.1257581"><ele>147.0</ele><time>2026-04-25T09:34:13.105Z</time></trkpt><trkpt lat="45.4913792" lon="11.1256381"><ele>148.0</ele><time>2026-04-25T09:34:15.103Z</time></trkpt><trkpt lat="45.4913378" lon="11.1255505"><ele>149.0</ele><time>2026-04-25T09:34:16.104Z</time></trkpt><trkpt lat="45.491289" lon="11.1254547"><ele>150.0</ele><time>2026-04-25T09:34:17.104Z</time></trkpt><trkpt lat="45.4912375" lon="11.1253549"><ele>151.0</ele><time>2026-04-25T09:34:18.105Z</time></trkpt><trkpt lat="45.491182" lon="11.1252516"><ele>152.0</ele><time>2026-04-25T09:34:19.103Z</time></trkpt><trkpt lat="45.4911203" lon="11.1251503"><ele>153.0</ele><time>2026-04-25T09:34:20.103Z</time></trkpt><trkpt lat="45.4910612" lon="11.12504"><ele>154.0</ele><time>2026-04-25T09:34:21.103Z</time></trkpt><trkpt lat="45.4910064" lon="11.1249255"><ele>155.0</ele><time>2026-04-25T09:34:22.104Z</time></trkpt><trkpt lat="45.490955" lon="11.1248105"><ele>156.0</ele><time>2026-04-25T09:34:23.104Z</time></trkpt><trkpt lat="45.4909139" lon="11.1247018"><ele>157.8</ele><time>2026-04-25T09:34:24.103Z</time></trkpt><trkpt lat="45.4908823" lon="11.124584"><ele>159.6</ele><time>2026-04-25T09:34:25.103Z</time></trkpt><trkpt lat="45.4908705" lon="11.1244579"><ele>161.4</ele><time>2026-04-25T09:34:26.103Z</time></trkpt><trkpt lat="45.4908802" lon="11.1243246"><ele>163.2</ele><time>2026-04-25T09:34:27.103Z</time></trkpt><trkpt lat="45.4909021" lon="11.1241781"><ele>165.0</ele><time>2026-04-25T09:34:28.104Z</time></trkpt><trkpt lat="45.4909424" lon="11.1240048"><ele>166.66666666666666</ele><time>2026-04-25T09:34:29.104Z</time></trkpt><trkpt lat="45.490997" lon="11.1238052"><ele>168.33333333333331</ele><time>2026-04-25T09:34:30.104Z</time></trkpt><trkpt lat="45.491051" lon="11.1235902"><ele>170.0</ele><time>2026-04-25T09:34:31.104Z</time></trkpt><trkpt lat="45.4911001" lon="11.1233714"><ele>171.0</ele><time>2026-04-25T09:34:32.105Z</time></trkpt><trkpt lat="45.4911487" lon="11.1231608"><ele>172.0</ele><time>2026-04-25T09:34:33.104Z</time></trkpt><trkpt lat="45.4911892" lon="11.1229686"><ele>173.0</ele><time>2026-04-25T09:34:34.104Z</time></trkpt><trkpt lat="45.4912228" lon="11.1227846"><ele>174.0</ele><time>2026-04-25T09:34:35.105Z</time></trkpt><trkpt lat="45.4912609" lon="11.1226172"><ele>175.0</ele><time>2026-04-25T09:34:36.104Z</time></trkpt><trkpt lat="45.4913136" lon="11.1224581"><ele>176.0</ele><time>2026-04-25T09:34:37.104Z</time></trkpt><trkpt lat="45.4913801" lon="11.122299"><ele>177.0</ele><time>2026-04-25T09:34:38.103Z</time></trkpt><trkpt lat="45.4914591" lon="11.1221447"><ele>178.0</ele><time>2026-04-25T09:34:39.103Z</time></trkpt><trkpt lat="45.4915461" lon="11.1219955"><ele>179.25</ele><time>2026-04-25T09:34:40.103Z</time></trkpt><trkpt lat="45.4916372" lon="11.1218555"><ele>180.5</ele><time>2026-04-25T09:34:41.104Z</time></trkpt><trkpt lat="45.4917345" lon="11.1217214"><ele>181.75</ele><time>2026-04-25T09:34:42.103Z</time></trkpt><trkpt lat="45.4918298" lon="11.1215933"><ele>183.0</ele><time>2026-04-25T09:34:43.103Z</time></trkpt><trkpt lat="45.4919201" lon="11.1214638"><ele>184.60000000000002</ele><time>2026-04-25T09:34:44.103Z</time></trkpt><trkpt lat="45.4919999" lon="11.1213347"><ele>186.20000000000002</ele><time>2026-04-25T09:34:45.103Z</time></trkpt><trkpt lat="45.4920672" lon="11.1212155"><ele>187.8</ele><time>2026-04-25T09:34:46.104Z</time></trkpt><trkpt lat="45.4921218" lon="11.121117"><ele>189.4</ele><time>2026-04-25T09:34:47.103Z</time></trkpt><trkpt lat="45.4921663" lon="11.121038"><ele>191.0</ele><time>2026-04-25T09:34:48.103Z</time></trkpt><trkpt lat="45.4922739" lon="11.1209763"><ele>193.0</ele><time>2026-04-25T09:34:50.103Z</time></trkpt><trkpt lat="45.4923423" lon="11.1211166"><ele>195.0</ele><time>2026-04-25T09:34:52.103Z</time></trkpt><trkpt lat="45.4923308" lon="11.1212236"><ele>197.0</ele><time>2026-04-25T09:34:53.103Z</time></trkpt><trkpt lat="45.4922938" lon="11.1213394"><ele>199.0</ele><time>2026-04-25T09:34:54.103Z</time></trkpt><trkpt lat="45.4922389" lon="11.1214666"><ele>201.0</ele><time>2026-04-25T09:34:55.103Z</time></trkpt><trkpt lat="45.4921982" lon="11.1216176"><ele>202.5</ele><time>2026-04-25T09:34:56.104Z</time></trkpt><trkpt lat="45.4921661" lon="11.1217788"><ele>204.0</ele><time>2026-04-25T09:34:57.103Z</time></trkpt><trkpt lat="45.4921486" lon="11.1219528"><ele>205.5</ele><time>2026-04-25T09:34:58.104Z</time></trkpt><trkpt lat="45.4921472" lon="11.122122"><ele>207.0</ele><time>2026-04-25T09:34:59.103Z</time></trkpt><trkpt lat="45.4921677" lon="11.1222815"><ele>206.8</ele><time>2026-04-25T09:35:00.103Z</time></trkpt><trkpt lat="45.492204" lon="11.1224305"><ele>206.6</ele><time>2026-04-25T09:35:01.103Z</time></trkpt><trkpt lat="45.4922506" lon="11.1225699"><ele>206.4</ele><time>2026-04-25T09:35:02.103Z</time></trkpt><trkpt lat="45.4923104" lon="11.1226999"><ele>206.20000000000002</ele><time>2026-04-25T09:35:03.104Z</time></trkpt><trkpt lat="45.4923857" lon="11.1228227"><ele>206.0</ele><time>2026-04-25T09:35:04.103Z</time></trkpt><trkpt lat="45.4924787" lon="11.1229308"><ele>206.0</ele><time>2026-04-25T09:35:05.103Z</time></trkpt><trkpt lat="45.4925844" lon="11.1230246"><ele>206.0</ele><time>2026-04-25T09:35:06.104Z</time></trkpt><trkpt lat="45.4927049" lon="11.1231083"><ele>206.0</ele><time>2026-04-25T09:35:07.104Z</time></trkpt><trkpt lat="45.4928419" lon="11.1231774"><ele>206.0</ele><time>2026-04-25T09:35:08.103Z</time></trkpt><trkpt lat="45.4929844" lon="11.1232337"><ele>206.0</ele><time>2026-04-25T09:35:09.103Z</time></trkpt><trkpt lat="45.4931308" lon="11.1232803"><ele>206.0</ele><time>2026-04-25T09:35:10.104Z</time></trkpt><trkpt lat="45.4932798" lon="11.1233097"><ele>206.0</ele><time>2026-04-25T09:35:11.104Z</time></trkpt><trkpt lat="45.4934292" lon="11.1233145"><ele>206.0</ele><time>2026-04-25T09:35:12.103Z</time></trkpt><trkpt lat="45.4935769" lon="11.1232961"><ele>206.0</ele><time>2026-04-25T09:35:13.103Z</time></trkpt><trkpt lat="45.4937208" lon="11.1232453"><ele>206.0</ele><time>2026-04-25T09:35:14.103Z</time></trkpt><trkpt lat="45.4938638" lon="11.1231676"><ele>213.0</ele><time>2026-04-25T09:35:15.103Z</time></trkpt><trkpt lat="45.4939999" lon="11.1230688"><ele>220.0</ele><time>2026-04-25T09:35:16.104Z</time></trkpt><trkpt lat="45.4941283" lon="11.1229469"><ele>227.0</ele><time>2026-04-25T09:35:17.103Z</time></trkpt><trkpt lat="45.494244" lon="11.1227982"><ele>227.0</ele><time>2026-04-25T09:35:18.104Z</time></trkpt><trkpt lat="45.494352" lon="11.1226289"><ele>227.0</ele><time>2026-04-25T09:35:19.103Z</time></trkpt><trkpt lat="45.4944562" lon="11.1224468"><ele>227.0</ele><time>2026-04-25T09:35:20.103Z</time></trkpt><trkpt lat="45.4945604" lon="11.1222643"><ele>227.0</ele><time>2026-04-25T09:35:21.103Z</time></trkpt><trkpt lat="45.4946647" lon="11.1220824"><ele>227.0</ele><time>2026-04-25T09:35:22.103Z</time></trkpt><trkpt lat="45.4947737" lon="11.1219049"><ele>227.0</ele><time>2026-04-25T09:35:23.103Z</time></trkpt><trkpt lat="45.4948869" lon="11.1217386"><ele>227.0</ele><time>2026-04-25T09:35:24.103Z</time></trkpt><trkpt lat="45.4950113" lon="11.1215873"><ele>227.0</ele><time>2026-04-25T09:35:25.104Z</time></trkpt><trkpt lat="45.4951423" lon="11.1214595"><ele>227.0</ele><time>2026-04-25T09:35:26.103Z</time></trkpt><trkpt lat="45.4952729" lon="11.1213681"><ele>229.8</ele><time>2026-04-25T09:35:27.104Z</time></trkpt><trkpt lat="45.4953838" lon="11.1213098"><ele>232.6</ele><time>2026-04-25T09:35:28.103Z</time></trkpt><trkpt lat="45.4954754" lon="11.1212882"><ele>235.40000000000003</ele><time>2026-04-25T09:35:29.103Z</time></trkpt><trkpt lat="45.4955511" lon="11.1213158"><ele>238.20000000000002</ele><time>2026-04-25T09:35:30.105Z</time></trkpt><trkpt lat="45.495605" lon="11.1213984"><ele>241.0</ele><time>2026-04-25T09:35:31.104Z</time></trkpt><trkpt lat="45.4956322" lon="11.1215183"><ele>240.20000000000002</ele><time>2026-04-25T09:35:32.104Z</time></trkpt><trkpt lat="45.495639" lon="11.1216582"><ele>239.40000000000003</ele><time>2026-04-25T09:35:33.103Z</time></trkpt><trkpt lat="45.4956463" lon="11.1218175"><ele>238.6</ele><time>2026-04-25T09:35:34.103Z</time></trkpt><trkpt lat="45.4956659" lon="11.1219799"><ele>237.8</ele><time>2026-04-25T09:35:35.103Z</time></trkpt><trkpt lat="45.4956839" lon="11.1221464"><ele>237.0</ele><time>2026-04-25T09:35:36.103Z</time></trkpt><trkpt lat="45.4957034" lon="11.1223141"><ele>236.75</ele><time>2026-04-25T09:35:37.103Z</time></trkpt><trkpt lat="45.4957346" lon="11.1224838"><ele>236.5</ele><time>2026-04-25T09:35:38.103Z</time></trkpt><trkpt lat="45.4957811" lon="11.1226524"><ele>236.25</ele><time>2026-04-25T09:35:39.103Z</time></trkpt><trkpt lat="45.4958295" lon="11.1228223"><ele>236.0</ele><time>2026-04-25T09:35:40.104Z</time></trkpt><trkpt lat="45.4958743" lon="11.1229938"><ele>236.0</ele><time>2026-04-25T09:35:41.104Z</time></trkpt><trkpt lat="45.4959261" lon="11.1231596"><ele>236.0</ele><time>2026-04-25T09:35:42.103Z</time></trkpt><trkpt lat="45.495974" lon="11.1233126"><ele>236.0</ele><time>2026-04-25T09:35:43.103Z</time></trkpt><trkpt lat="45.4960192" lon="11.1234634"><ele>236.0</ele><time>2026-04-25T09:35:44.104Z</time></trkpt><trkpt lat="45.4960589" lon="11.1236118"><ele>236.8</ele><time>2026-04-25T09:35:45.103Z</time></trkpt><trkpt lat="45.4961015" lon="11.123747"><ele>237.60000000000002</ele><time>2026-04-25T09:35:46.104Z</time></trkpt><trkpt lat="45.4961531" lon="11.123867"><ele>238.4</ele><time>2026-04-25T09:35:47.104Z</time></trkpt><trkpt lat="45.496215" lon="11.1239697"><ele>239.2</ele><time>2026-04-25T09:35:48.104Z</time></trkpt><trkpt lat="45.4962908" lon="11.1240566"><ele>240.0</ele><time>2026-04-25T09:35:49.103Z</time></trkpt><trkpt lat="45.4963835" lon="11.1241262"><ele>240.0</ele><time>2026-04-25T09:35:50.104Z</time></trkpt><trkpt lat="45.496488" lon="11.124183"><ele>240.0</ele><time>2026-04-25T09:35:51.104Z</time></trkpt><trkpt lat="45.4965992" lon="11.1242301"><ele>240.0</ele><time>2026-04-25T09:35:52.104Z</time></trkpt><trkpt lat="45.496716" lon="11.1242725"><ele>240.0</ele><time>2026-04-25T09:35:53.104Z</time></trkpt><trkpt lat="45.4968386" lon="11.1242987"><ele>240.0</ele><time>2026-04-25T09:35:54.103Z</time></trkpt><trkpt lat="45.4969626" lon="11.1243167"><ele>240.0</ele><time>2026-04-25T09:35:55.103Z</time></trkpt><trkpt lat="45.497082" lon="11.1243338"><ele>240.0</ele><time>2026-04-25T09:35:56.103Z</time></trkpt><trkpt lat="45.4971923" lon="11.1243629"><ele>240.0</ele><time>2026-04-25T09:35:57.105Z</time></trkpt><trkpt lat="45.4972919" lon="11.1244061"><ele>242.0</ele><time>2026-04-25T09:35:58.103Z</time></trkpt><trkpt lat="45.4973784" lon="11.1244494"><ele>244.0</ele><time>2026-04-25T09:35:59.103Z</time></trkpt><trkpt lat="45.4974539" lon="11.1244682"><ele>246.0</ele><time>2026-04-25T09:36:00.103Z</time></trkpt><trkpt lat="45.4975162" lon="11.1244475"><ele>248.0</ele><time>2026-04-25T09:36:01.104Z</time></trkpt><trkpt lat="45.497549" lon="11.1243064"><ele>250.0</ele><time>2026-04-25T09:36:03.103Z</time></trkpt><trkpt lat="45.4974429" lon="11.1242033"><ele>250.0</ele><time>2026-04-25T09:36:05.103Z</time></trkpt><trkpt lat="45.4973592" lon="11.1241596"><ele>250.0</ele><time>2026-04-25T09:36:06.104Z</time></trkpt><trkpt lat="45.497256" lon="11.1240924"><ele>250.0</ele><time>2026-04-25T09:36:07.103Z</time></trkpt><trkpt lat="45.4971387" lon="11.1240107"><ele>250.0</ele><time>2026-04-25T09:36:08.103Z</time></trkpt><trkpt lat="45.497008" lon="11.1239163"><ele>251.0</ele><time>2026-04-25T09:36:09.103Z</time></trkpt><trkpt lat="45.496879" lon="11.1238116"><ele>252.0</ele><time>2026-04-25T09:36:10.103Z</time></trkpt><trkpt lat="45.4967686" lon="11.1236888"><ele>253.0</ele><time>2026-04-25T09:36:11.103Z</time></trkpt><trkpt lat="45.4966776" lon="11.1235421"><ele>254.0</ele><time>2026-04-25T09:36:12.104Z</time></trkpt><trkpt lat="45.4966135" lon="11.1233763"><ele>256.25</ele><time>2026-04-25T09:36:13.103Z</time></trkpt><trkpt lat="45.4965707" lon="11.1232003"><ele>258.5</ele><time>2026-04-25T09:36:14.103Z</time></trkpt><trkpt lat="45.4965459" lon="11.123018"><ele>260.75</ele><time>2026-04-25T09:36:15.104Z</time></trkpt><trkpt lat="45.4965336" lon="11.1228293"><ele>263.0</ele><time>2026-04-25T09:36:16.103Z</time></trkpt><trkpt lat="45.4965272" lon="11.1226326"><ele>263.0</ele><time>2026-04-25T09:36:17.104Z</time></trkpt><trkpt lat="45.4965234" lon="11.1224415"><ele>263.0</ele><time>2026-04-25T09:36:18.104Z</time></trkpt><trkpt lat="45.4965323" lon="11.1222665"><ele>263.0</ele><time>2026-04-25T09:36:19.104Z</time></trkpt><trkpt lat="45.4965723" lon="11.1221009"><ele>263.0</ele><time>2026-04-25T09:36:20.104Z</time></trkpt><trkpt lat="45.4966472" lon="11.1219502"><ele>262.5</ele><time>2026-04-25T09:36:21.103Z</time></trkpt><trkpt lat="45.4967354" lon="11.1218101"><ele>262.0</ele><time>2026-04-25T09:36:22.104Z</time></trkpt><trkpt lat="45.4968229" lon="11.1216638"><ele>261.5</ele><time>2026-04-25T09:36:23.103Z</time></trkpt><trkpt lat="45.4968968" lon="11.1215137"><ele>261.0</ele><time>2026-04-25T09:36:24.104Z</time></trkpt><trkpt lat="45.4969455" lon="11.1213688"><ele>261.0</ele><time>2026-04-25T09:36:25.103Z</time></trkpt><trkpt lat="45.4969821" lon="11.121264"><ele>261.0</ele><time>2026-04-25T09:36:26.103Z</time></trkpt><trkpt lat="45.4970833" lon="11.1212377"><ele>261.0</ele><time>2026-04-25T09:36:28.103Z</time></trkpt><trkpt lat="45.4971381" lon="11.1213964"><ele>261.0</ele><time>2026-04-25T09:36:30.104Z</time></trkpt><trkpt lat="45.4971145" lon="11.1215098"><ele>261.0</ele><time>2026-04-25T09:36:31.103Z</time></trkpt><trkpt lat="45.4970639" lon="11.1216307"><ele>261.0</ele><time>2026-04-25T09:36:32.104Z</time></trkpt><trkpt lat="45.4970149" lon="11.1217695"><ele>261.0</ele><time>2026-04-25T09:36:33.103Z</time></trkpt><trkpt lat="45.4969644" lon="11.1219229"><ele>261.0</ele><time>2026-04-25T09:36:34.103Z</time></trkpt><trkpt lat="45.4969138" lon="11.1220777"><ele>261.0</ele><time>2026-04-25T09:36:35.104Z</time></trkpt><trkpt lat="45.4968849" lon="11.1222252"><ele>261.0</ele><time>2026-04-25T09:36:36.103Z</time></trkpt><trkpt lat="45.4968825" lon="11.1223754"><ele>261.0</ele><time>2026-04-25T09:36:37.103Z</time></trkpt><trkpt lat="45.496908" lon="11.1225072"><ele>261.0</ele><time>2026-04-25T09:36:38.104Z</time></trkpt><trkpt lat="45.4969658" lon="11.1226117"><ele>261.0</ele><time>2026-04-25T09:36:39.104Z</time></trkpt><trkpt lat="45.4970544" lon="11.122691"><ele>261.0</ele><time>2026-04-25T09:36:40.103Z</time></trkpt><trkpt lat="45.4971609" lon="11.1227478"><ele>263.8</ele><time>2026-04-25T09:36:41.103Z</time></trkpt><trkpt lat="45.4972695" lon="11.1227939"><ele>266.6</ele><time>2026-04-25T09:36:42.103Z</time></trkpt><trkpt lat="45.4973792" lon="11.12282"><ele>269.4</ele><time>2026-04-25T09:36:43.104Z</time></trkpt><trkpt lat="45.497486" lon="11.1228331"><ele>272.2</ele><time>2026-04-25T09:36:44.104Z</time></trkpt><trkpt lat="45.4975694" lon="11.1228227"><ele>275.0</ele><time>2026-04-25T09:36:45.103Z</time></trkpt><trkpt lat="45.4976358" lon="11.1227836"><ele>275.0</ele><time>2026-04-25T09:36:46.103Z</time></trkpt><trkpt lat="45.4976853" lon="11.1227037"><ele>275.0</ele><time>2026-04-25T09:36:47.104Z</time></trkpt><trkpt lat="45.4977054" lon="11.1225997"><ele>275.0</ele><time>2026-04-25T09:36:48.103Z</time></trkpt><trkpt lat="45.4976803" lon="11.1225024"><ele>275.0</ele><time>2026-04-25T09:36:49.103Z</time></trkpt><trkpt lat="45.4976194" lon="11.1224351"><ele>275.0</ele><time>2026-04-25T09:36:50.103Z</time></trkpt><trkpt lat="45.4975425" lon="11.1223944"><ele>275.0</ele><time>2026-04-25T09:36:51.104Z</time></trkpt><trkpt lat="45.497472" lon="11.1223337"><ele>276.1666666666667</ele><time>2026-04-25T09:36:52.103Z</time></trkpt><trkpt lat="45.4974305" lon="11.1222516"><ele>277.33333333333337</ele><time>2026-04-25T09:36:53.103Z</time></trkpt><trkpt lat="45.4974461" lon="11.122089"><ele>278.5</ele><time>2026-04-25T09:36:55.103Z</time></trkpt><trkpt lat="45.4975001" lon="11.1220318"><ele>279.6666666666667</ele><time>2026-04-25T09:36:56.103Z</time></trkpt><trkpt lat="45.4975731" lon="11.1220077"><ele>280.8333333333333</ele><time>2026-04-25T09:36:57.103Z</time></trkpt><trkpt lat="45.4976561" lon="11.1219942"><ele>282.0</ele><time>2026-04-25T09:36:58.103Z</time></trkpt><trkpt lat="45.4977459" lon="11.1219775"><ele>282.0</ele><time>2026-04-25T09:36:59.104Z</time></trkpt><trkpt lat="45.4978409" lon="11.1219437"><ele>282.0</ele><time>2026-04-25T09:37:00.104Z</time></trkpt><trkpt lat="45.4979477" lon="11.1218883"><ele>282.0</ele><time>2026-04-25T09:37:01.105Z</time></trkpt><trkpt lat="45.4980634" lon="11.1218121"><ele>282.0</ele><time>2026-04-25T09:37:02.104Z</time></trkpt><trkpt lat="45.498186" lon="11.1217254"><ele>284.0</ele><time>2026-04-25T09:37:03.104Z</time></trkpt><trkpt lat="45.4983163" lon="11.1216363"><ele>286.0</ele><time>2026-04-25T09:37:04.105Z</time></trkpt><trkpt lat="45.4984436" lon="11.1215461"><ele>288.0</ele><time>2026-04-25T09:37:05.105Z</time></trkpt><trkpt lat="45.4985586" lon="11.1214569"><ele>290.0</ele><time>2026-04-25T09:37:06.104Z</time></trkpt><trkpt lat="45.4986613" lon="11.1213801"><ele>290.6</ele><time>2026-04-25T09:37:07.104Z</time></trkpt><trkpt lat="45.4987528" lon="11.1212936"><ele>291.2</ele><time>2026-04-25T09:37:08.103Z</time></trkpt><trkpt lat="45.4988306" lon="11.1211806"><ele>291.8</ele><time>2026-04-25T09:37:09.103Z</time></trkpt><trkpt lat="45.4988884" lon="11.1210522"><ele>292.4</ele><time>2026-04-25T09:37:10.104Z</time></trkpt><trkpt lat="45.4989062" lon="11.1209047"><ele>293.0</ele><time>2026-04-25T09:37:11.103Z</time></trkpt><trkpt lat="45.4988896" lon="11.1207534"><ele>295.8</ele><time>2026-04-25T09:37:12.103Z</time></trkpt><trkpt lat="45.4988457" lon="11.1206154"><ele>298.6</ele><time>2026-04-25T09:37:13.104Z</time></trkpt><trkpt lat="45.4987743" lon="11.1205131"><ele>301.4</ele><time>2026-04-25T09:37:14.103Z</time></trkpt><trkpt lat="45.4986776" lon="11.1204573"><ele>304.2</ele><time>2026-04-25T09:37:15.104Z</time></trkpt><trkpt lat="45.4985677" lon="11.1204443"><ele>307.0</ele><time>2026-04-25T09:37:16.104Z</time></trkpt><trkpt lat="45.4984628" lon="11.1204234"><ele>307.8</ele><time>2026-04-25T09:37:17.104Z</time></trkpt><trkpt lat="45.498367" lon="11.1203527"><ele>308.6</ele><time>2026-04-25T09:37:18.104Z</time></trkpt><trkpt lat="45.4982896" lon="11.1202376"><ele>309.40000000000003</ele><time>2026-04-25T09:37:19.104Z</time></trkpt><trkpt lat="45.4982448" lon="11.1200986"><ele>310.2</ele><time>2026-04-25T09:37:20.104Z</time></trkpt><trkpt lat="45.4982415" lon="11.1199654"><ele>311.0</ele><time>2026-04-25T09:37:21.104Z</time></trkpt><trkpt lat="45.498265" lon="11.1198301"><ele>312.40000000000003</ele><time>2026-04-25T09:37:22.104Z</time></trkpt><trkpt lat="45.4983088" lon="11.1196966"><ele>313.8</ele><time>2026-04-25T09:37:23.104Z</time></trkpt><trkpt lat="45.4983691" lon="11.11957"><ele>315.20000000000005</ele><time>2026-04-25T09:37:24.103Z</time></trkpt><trkpt lat="45.4984269" lon="11.1194472"><ele>316.6</ele><time>2026-04-25T09:37:25.103Z</time></trkpt><trkpt lat="45.4984823" lon="11.1193276"><ele>318.0</ele><time>2026-04-25T09:37:26.103Z</time></trkpt><trkpt lat="45.4985332" lon="11.1192183"><ele>318.0</ele><time>2026-04-25T09:37:27.103Z</time></trkpt><trkpt lat="45.4985793" lon="11.1191201"><ele>318.0</ele><time>2026-04-25T09:37:28.104Z</time></trkpt><trkpt lat="45.4986213" lon="11.1190312"><ele>318.0</ele><time>2026-04-25T09:37:29.104Z</time></trkpt><trkpt lat="45.4986632" lon="11.1189423"><ele>318.0</ele><time>2026-04-25T09:37:30.103Z</time></trkpt><trkpt lat="45.4987031" lon="11.1188557"><ele>318.0</ele><time>2026-04-25T09:37:31.104Z</time></trkpt><trkpt lat="45.4987437" lon="11.1187802"><ele>318.0</ele><time>2026-04-25T09:37:32.103Z</time></trkpt><trkpt lat="45.4987924" lon="11.118723"><ele>318.0</ele><time>2026-04-25T09:37:33.103Z</time></trkpt><trkpt lat="45.4989159" lon="11.1186948"><ele>319.3333333333333</ele><time>2026-04-25T09:37:35.105Z</time></trkpt><trkpt lat="45.4989822" lon="11.1187106"><ele>320.6666666666667</ele><time>2026-04-25T09:37:36.103Z</time></trkpt><trkpt lat="45.4990492" lon="11.1187306"><ele>322.0</ele><time>2026-04-25T09:37:37.104Z</time></trkpt><trkpt lat="45.4991131" lon="11.1187455"><ele>323.33333333333337</ele><time>2026-04-25T09:37:38.103Z</time></trkpt><trkpt lat="45.4992063" lon="11.1187205"><ele>324.6666666666667</ele><time>2026-04-25T09:37:40.104Z</time></trkpt><trkpt lat="45.4992268" lon="11.1185807"><ele>326.0</ele><time>2026-04-25T09:37:42.104Z</time></trkpt><trkpt lat="45.4991982" lon="11.1184002"><ele>326.0</ele><time>2026-04-25T09:37:44.104Z</time></trkpt><trkpt lat="45.4991842" lon="11.118299"><ele>326.0</ele><time>2026-04-25T09:37:45.103Z</time></trkpt><trkpt lat="45.4991699" lon="11.1181752"><ele>326.0</ele><time>2026-04-25T09:37:46.104Z</time></trkpt><trkpt lat="45.4991519" lon="11.1180433"><ele>326.0</ele><time>2026-04-25T09:37:47.103Z</time></trkpt><trkpt lat="45.4991486" lon="11.117912"><ele>326.0</ele><time>2026-04-25T09:37:48.105Z</time></trkpt><trkpt lat="45.4991616" lon="11.1177814"><ele>326.0</ele><time>2026-04-25T09:37:49.103Z</time></trkpt><trkpt lat="45.4991788" lon="11.1176474"><ele>327.75</ele><time>2026-04-25T09:37:50.104Z</time></trkpt><trkpt lat="45.4991829" lon="11.1174974"><ele>329.5</ele><time>2026-04-25T09:37:51.103Z</time></trkpt><trkpt lat="45.4991842" lon="11.1173367"><ele>331.25</ele><time>2026-04-25T09:37:52.104Z</time></trkpt><trkpt lat="45.4991809" lon="11.1171706"><ele>333.0</ele><time>2026-04-25T09:37:53.105Z</time></trkpt><trkpt lat="45.4991699" lon="11.1170009"><ele>335.25</ele><time>2026-04-25T09:37:54.105Z</time></trkpt><trkpt lat="45.4991555" lon="11.1168291"><ele>337.5</ele><time>2026-04-25T09:37:55.103Z</time></trkpt><trkpt lat="45.4991293" lon="11.1166549"><ele>339.75</ele><time>2026-04-25T09:37:56.103Z</time></trkpt><trkpt lat="45.4990932" lon="11.1164861"><ele>342.0</ele><time>2026-04-25T09:37:57.104Z</time></trkpt><trkpt lat="45.4990584" lon="11.1163178"><ele>345.0</ele><time>2026-04-25T09:37:58.104Z</time></trkpt><trkpt lat="45.4990242" lon="11.1161531"><ele>348.0</ele><time>2026-04-25T09:37:59.104Z</time></trkpt><trkpt lat="45.4989947" lon="11.1159903"><ele>351.0</ele><time>2026-04-25T09:38:00.104Z</time></trkpt><trkpt lat="45.4989776" lon="11.1158266"><ele>354.0</ele><time>2026-04-25T09:38:01.103Z</time></trkpt><trkpt lat="45.4989704" lon="11.11566"><ele>355.0</ele><time>2026-04-25T09:38:02.103Z</time></trkpt><trkpt lat="45.4989636" lon="11.1154879"><ele>356.0</ele><time>2026-04-25T09:38:03.103Z</time></trkpt><trkpt lat="45.4989508" lon="11.1153139"><ele>357.0</ele><time>2026-04-25T09:38:04.104Z</time></trkpt><trkpt lat="45.4989348" lon="11.1151639"><ele>358.0</ele><time>2026-04-25T09:38:05.103Z</time></trkpt><trkpt lat="45.4989199" lon="11.1150378"><ele>359.0</ele><time>2026-04-25T09:38:06.104Z</time></trkpt><trkpt lat="45.49892" lon="11.1149326"><ele>359.0</ele><time>2026-04-25T09:38:07.104Z</time></trkpt><trkpt lat="45.4989578" lon="11.1148594"><ele>359.0</ele><time>2026-04-25T09:38:08.103Z</time></trkpt><trkpt lat="45.499069" lon="11.1148652"><ele>359.0</ele><time>2026-04-25T09:38:10.103Z</time></trkpt><trkpt lat="45.4991095" lon="11.1149383"><ele>359.0</ele><time>2026-04-25T09:38:11.103Z</time></trkpt><trkpt lat="45.4991352" lon="11.1150409"><ele>359.0</ele><time>2026-04-25T09:38:12.104Z</time></trkpt><trkpt lat="45.4991511" lon="11.1151582"><ele>359.0</ele><time>2026-04-25T09:38:13.103Z</time></trkpt><trkpt lat="45.4991654" lon="11.1152723"><ele>359.0</ele><time>2026-04-25T09:38:14.103Z</time></trkpt><trkpt lat="45.4991926" lon="11.1153633"><ele>359.0</ele><time>2026-04-25T09:38:15.103Z</time></trkpt><trkpt lat="45.4992433" lon="11.1154359"><ele>359.0</ele><time>2026-04-25T09:38:16.104Z</time></trkpt><trkpt lat="45.4993069" lon="11.1154646"><ele>359.0</ele><time>2026-04-25T09:38:17.104Z</time></trkpt><trkpt lat="45.4993696" lon="11.1154404"><ele>359.0</ele><time>2026-04-25T09:38:18.105Z</time></trkpt><trkpt lat="45.4994155" lon="11.1153677"><ele>359.0</ele><time>2026-04-25T09:38:19.104Z</time></trkpt><trkpt lat="45.4994643" lon="11.1153042"><ele>359.0</ele><time>2026-04-25T09:38:20.103Z</time></trkpt><trkpt lat="45.4994345" lon="11.1151392"><ele>359.0</ele><time>2026-04-25T09:38:21.104Z</time></trkpt><trkpt lat="45.4994348" lon="11.1150138"><ele>359.0</ele><time>2026-04-25T09:38:22.105Z</time></trkpt><trkpt lat="45.4994297" lon="11.1148765"><ele>359.0</ele><time>2026-04-25T09:38:23.103Z</time></trkpt><trkpt lat="45.4994248" lon="11.1147395"><ele>359.0</ele><time>2026-04-25T09:38:24.103Z</time></trkpt><trkpt lat="45.4994382" lon="11.1145997"><ele>359.0</ele><time>2026-04-25T09:38:25.103Z</time></trkpt><trkpt lat="45.4994775" lon="11.1144519"><ele>361.0</ele><time>2026-04-25T09:38:26.103Z</time></trkpt><trkpt lat="45.4995367" lon="11.1143019"><ele>363.0</ele><time>2026-04-25T09:38:27.103Z</time></trkpt><trkpt lat="45.499615" lon="11.1141435"><ele>365.0</ele><time>2026-04-25T09:38:28.104Z</time></trkpt><trkpt lat="45.499695" lon="11.1139856"><ele>367.0</ele><time>2026-04-25T09:38:29.103Z</time></trkpt><trkpt lat="45.4997738" lon="11.1138305"><ele>370.25</ele><time>2026-04-25T09:38:30.103Z</time></trkpt><trkpt lat="45.4998502" lon="11.113687"><ele>373.5</ele><time>2026-04-25T09:38:31.103Z</time></trkpt><trkpt lat="45.4999173" lon="11.1135547"><ele>376.75</ele><time>2026-04-25T09:38:32.104Z</time></trkpt><trkpt lat="45.4999555" lon="11.1134191"><ele>380.0</ele><time>2026-04-25T09:38:33.105Z</time></trkpt><trkpt lat="45.4999598" lon="11.1132664"><ele>381.75</ele><time>2026-04-25T09:38:34.104Z</time></trkpt><trkpt lat="45.4999292" lon="11.1131203"><ele>383.5</ele><time>2026-04-25T09:38:35.104Z</time></trkpt><trkpt lat="45.4998801" lon="11.1129782"><ele>385.25</ele><time>2026-04-25T09:38:36.104Z</time></trkpt><trkpt lat="45.4998244" lon="11.1128332"><ele>387.0</ele><time>2026-04-25T09:38:37.104Z</time></trkpt><trkpt lat="45.4997627" lon="11.1126818"><ele>387.0</ele><time>2026-04-25T09:38:38.103Z</time></trkpt><trkpt lat="45.4996951" lon="11.1125233"><ele>387.0</ele><time>2026-04-25T09:38:39.103Z</time></trkpt><trkpt lat="45.499623" lon="11.1123625"><ele>387.0</ele><time>2026-04-25T09:38:40.104Z</time></trkpt><trkpt lat="45.4995548" lon="11.112209"><ele>387.0</ele><time>2026-04-25T09:38:41.103Z</time></trkpt><trkpt lat="45.4994853" lon="11.1120607"><ele>388.25</ele><time>2026-04-25T09:38:42.103Z</time></trkpt><trkpt lat="45.4994092" lon="11.1119435"><ele>389.5</ele><time>2026-04-25T09:38:43.103Z</time></trkpt><trkpt lat="45.49931" lon="11.1118513"><ele>390.75</ele><time>2026-04-25T09:38:44.103Z</time></trkpt><trkpt lat="45.4991992" lon="11.111782"><ele>392.0</ele><time>2026-04-25T09:38:45.103Z</time></trkpt><trkpt lat="45.4990907" lon="11.1117114"><ele>392.0</ele><time>2026-04-25T09:38:46.103Z</time></trkpt><trkpt lat="45.4989792" lon="11.11164"><ele>392.0</ele><time>2026-04-25T09:38:47.103Z</time></trkpt><trkpt lat="45.498868" lon="11.1115734"><ele>392.0</ele><time>2026-04-25T09:38:48.104Z</time></trkpt><trkpt lat="45.4987562" lon="11.1115046"><ele>392.0</ele><time>2026-04-25T09:38:49.105Z</time></trkpt><trkpt lat="45.4986432" lon="11.1114236"><ele>396.0</ele><time>2026-04-25T09:38:50.105Z</time></trkpt><trkpt lat="45.4985212" lon="11.1113331"><ele>400.0</ele><time>2026-04-25T09:38:51.104Z</time></trkpt><trkpt lat="45.4983999" lon="11.1112296"><ele>404.0</ele><time>2026-04-25T09:38:52.104Z</time></trkpt><trkpt lat="45.4982779" lon="11.111123"><ele>408.0</ele><time>2026-04-25T09:38:53.103Z</time></trkpt><trkpt lat="45.49816" lon="11.1110197"><ele>408.0</ele><time>2026-04-25T09:38:54.104Z</time></trkpt><trkpt lat="45.4980546" lon="11.1109072"><ele>408.0</ele><time>2026-04-25T09:38:55.103Z</time></trkpt><trkpt lat="45.4979647" lon="11.1107805"><ele>408.0</ele><time>2026-04-25T09:38:56.103Z</time></trkpt><trkpt lat="45.4978805" lon="11.110648"><ele>408.0</ele><time>2026-04-25T09:38:57.103Z</time></trkpt><trkpt lat="45.4977973" lon="11.1105165"><ele>408.25</ele><time>2026-04-25T09:38:58.105Z</time></trkpt><trkpt lat="45.4977247" lon="11.1103781"><ele>408.5</ele><time>2026-04-25T09:38:59.103Z</time></trkpt><trkpt lat="45.4976623" lon="11.1102267"><ele>408.75</ele><time>2026-04-25T09:39:00.104Z</time></trkpt><trkpt lat="45.497609" lon="11.1100616"><ele>409.0</ele><time>2026-04-25T09:39:01.103Z</time></trkpt><trkpt lat="45.4975681" lon="11.1098907"><ele>411.5</ele><time>2026-04-25T09:39:02.103Z</time></trkpt><trkpt lat="45.4975361" lon="11.1097191"><ele>414.0</ele><time>2026-04-25T09:39:03.104Z</time></trkpt><trkpt lat="45.4975122" lon="11.1095449"><ele>416.5</ele><time>2026-04-25T09:39:04.104Z</time></trkpt><trkpt lat="45.4974941" lon="11.109374"><ele>419.0</ele><time>2026-04-25T09:39:05.105Z</time></trkpt><trkpt lat="45.4974831" lon="11.1092052"><ele>419.4</ele><time>2026-04-25T09:39:06.104Z</time></trkpt><trkpt lat="45.4974865" lon="11.1090367"><ele>419.79999999999995</ele><time>2026-04-25T09:39:07.103Z</time></trkpt><trkpt lat="45.4975134" lon="11.1088773"><ele>420.20000000000005</ele><time>2026-04-25T09:39:08.103Z</time></trkpt><trkpt lat="45.4975524" lon="11.1087519"><ele>420.6</ele><time>2026-04-25T09:39:09.104Z</time></trkpt><trkpt lat="45.4975914" lon="11.1086496"><ele>421.0</ele><time>2026-04-25T09:39:10.103Z</time></trkpt><trkpt lat="45.4976246" lon="11.1085591"><ele>421.00000000000006</ele><time>2026-04-25T09:39:11.103Z</time></trkpt><trkpt lat="45.4976612" lon="11.1084618"><ele>421.0</ele><time>2026-04-25T09:39:12.103Z</time></trkpt><trkpt lat="45.4977025" lon="11.1083558"><ele>421.0</ele><time>2026-04-25T09:39:13.103Z</time></trkpt><trkpt lat="45.4977427" lon="11.1082374"><ele>421.0</ele><time>2026-04-25T09:39:14.104Z</time></trkpt><trkpt lat="45.4977793" lon="11.1081113"><ele>421.00000000000006</ele><time>2026-04-25T09:39:15.103Z</time></trkpt><trkpt lat="45.4978052" lon="11.1079839"><ele>421.0</ele><time>2026-04-25T09:39:16.103Z</time></trkpt><trkpt lat="45.4978235" lon="11.1078524"><ele>421.6</ele><time>2026-04-25T09:39:17.104Z</time></trkpt><trkpt lat="45.4978234" lon="11.1077169"><ele>422.20000000000005</ele><time>2026-04-25T09:39:18.103Z</time></trkpt><trkpt lat="45.497809" lon="11.1075808"><ele>422.79999999999995</ele><time>2026-04-25T09:39:19.103Z</time></trkpt><trkpt lat="45.4977701" lon="11.1074521"><ele>423.4</ele><time>2026-04-25T09:39:20.103Z</time></trkpt><trkpt lat="45.4977163" lon="11.1073323"><ele>424.0</ele><time>2026-04-25T09:39:21.104Z</time></trkpt><trkpt lat="45.4976524" lon="11.1072245"><ele>426.79999999999995</ele><time>2026-04-25T09:39:22.104Z</time></trkpt><trkpt lat="45.4975792" lon="11.1071246"><ele>429.59999999999997</ele><time>2026-04-25T09:39:23.104Z</time></trkpt><trkpt lat="45.4974993" lon="11.1070396"><ele>432.4</ele><time>2026-04-25T09:39:24.104Z</time></trkpt><trkpt lat="45.4974205" lon="11.1069791"><ele>435.2</ele><time>2026-04-25T09:39:25.104Z</time></trkpt><trkpt lat="45.4973376" lon="11.1069216"><ele>438.0</ele><time>2026-04-25T09:39:26.104Z</time></trkpt><trkpt lat="45.4972505" lon="11.1068565"><ele>438.0</ele><time>2026-04-25T09:39:27.103Z</time></trkpt><trkpt lat="45.4971698" lon="11.1067734"><ele>437.99999999999994</ele><time>2026-04-25T09:39:28.103Z</time></trkpt><trkpt lat="45.4971039" lon="11.1066736"><ele>437.99999999999994</ele><time>2026-04-25T09:39:29.104Z</time></trkpt><trkpt lat="45.4970611" lon="11.1065588"><ele>438.0</ele><time>2026-04-25T09:39:30.103Z</time></trkpt><trkpt lat="45.4970387" lon="11.1064227"><ele>438.0</ele><time>2026-04-25T09:39:31.103Z</time></trkpt><trkpt lat="45.4970317" lon="11.1062732"><ele>437.59999999999997</ele><time>2026-04-25T09:39:32.104Z</time></trkpt><trkpt lat="45.4970264" lon="11.1061177"><ele>437.19999999999993</ele><time>2026-04-25T09:39:33.104Z</time></trkpt><trkpt lat="45.4970071" lon="11.1059705"><ele>436.8</ele><time>2026-04-25T09:39:34.104Z</time></trkpt><trkpt lat="45.496984" lon="11.1058382"><ele>436.4</ele><time>2026-04-25T09:39:35.103Z</time></trkpt><trkpt lat="45.4969553" lon="11.1057283"><ele>436.0</ele><time>2026-04-25T09:39:36.104Z</time></trkpt><trkpt lat="45.496917" lon="11.1056377"><ele>436.0</ele><time>2026-04-25T09:39:37.103Z</time></trkpt><trkpt lat="45.496814" lon="11.1055772"><ele>436.0</ele><time>2026-04-25T09:39:39.103Z</time></trkpt><trkpt lat="45.4967253" lon="11.1056977"><ele>436.0</ele><time>2026-04-25T09:39:41.103Z</time></trkpt><trkpt lat="45.4966804" lon="11.1057825"><ele>436.0</ele><time>2026-04-25T09:39:42.103Z</time></trkpt><trkpt lat="45.4966309" lon="11.1058592"><ele>436.0</ele><time>2026-04-25T09:39:43.103Z</time></trkpt><trkpt lat="45.4965707" lon="11.105926"><ele>436.0</ele><time>2026-04-25T09:39:44.103Z</time></trkpt><trkpt lat="45.4965029" lon="11.1059813"><ele>436.0</ele><time>2026-04-25T09:39:45.103Z</time></trkpt><trkpt lat="45.4964259" lon="11.106027"><ele>436.0</ele><time>2026-04-25T09:39:46.103Z</time></trkpt><trkpt lat="45.4963344" lon="11.1060637"><ele>436.0</ele><time>2026-04-25T09:39:47.105Z</time></trkpt><trkpt lat="45.4962328" lon="11.1060897"><ele>436.0</ele><time>2026-04-25T09:39:48.103Z</time></trkpt><trkpt lat="45.4961236" lon="11.1061089"><ele>436.5</ele><time>2026-04-25T09:39:49.104Z</time></trkpt><trkpt lat="45.4960084" lon="11.1061239"><ele>437.0</ele><time>2026-04-25T09:39:50.103Z</time></trkpt><trkpt lat="45.4958878" lon="11.1061345"><ele>437.5</ele><time>2026-04-25T09:39:51.103Z</time></trkpt><trkpt lat="45.4957623" lon="11.1061401"><ele>438.0</ele><time>2026-04-25T09:39:52.104Z</time></trkpt><trkpt lat="45.4956372" lon="11.1061381"><ele>438.0</ele><time>2026-04-25T09:39:53.103Z</time></trkpt><trkpt lat="45.4955124" lon="11.1061383"><ele>438.0</ele><time>2026-04-25T09:39:54.103Z</time></trkpt><trkpt lat="45.495386" lon="11.1061442"><ele>438.0</ele><time>2026-04-25T09:39:55.103Z</time></trkpt><trkpt lat="45.495252" lon="11.1061502"><ele>438.0</ele><time>2026-04-25T09:39:56.104Z</time></trkpt><trkpt lat="45.4951107" lon="11.1061592"><ele>437.66666666666663</ele><time>2026-04-25T09:39:57.105Z</time></trkpt><trkpt lat="45.494956" lon="11.1061686"><ele>437.3333333333333</ele><time>2026-04-25T09:39:58.103Z</time></trkpt><trkpt lat="45.4947898" lon="11.1061816"><ele>437.0</ele><time>2026-04-25T09:39:59.104Z</time></trkpt><trkpt lat="45.4946214" lon="11.1061979"><ele>439.0</ele><time>2026-04-25T09:40:00.103Z</time></trkpt><trkpt lat="45.4944555" lon="11.1062153"><ele>441.0</ele><time>2026-04-25T09:40:01.103Z</time></trkpt><trkpt lat="45.4942937" lon="11.1062352"><ele>443.0</ele><time>2026-04-25T09:40:02.103Z</time></trkpt><trkpt lat="45.4941427" lon="11.106255"><ele>443.0</ele><time>2026-04-25T09:40:03.103Z</time></trkpt><trkpt lat="45.4940061" lon="11.1062746"><ele>443.0</ele><time>2026-04-25T09:40:04.103Z</time></trkpt><trkpt lat="45.4938827" lon="11.1062922"><ele>443.0</ele><time>2026-04-25T09:40:05.103Z</time></trkpt><trkpt lat="45.4937694" lon="11.106308"><ele>443.0</ele><time>2026-04-25T09:40:06.103Z</time></trkpt><trkpt lat="45.493662" lon="11.1063258"><ele>444.2</ele><time>2026-04-25T09:40:07.104Z</time></trkpt><trkpt lat="45.4935536" lon="11.10635"><ele>445.4</ele><time>2026-04-25T09:40:08.103Z</time></trkpt><trkpt lat="45.4934448" lon="11.1063658"><ele>446.59999999999997</ele><time>2026-04-25T09:40:09.103Z</time></trkpt><trkpt lat="45.4933354" lon="11.1063693"><ele>447.79999999999995</ele><time>2026-04-25T09:40:10.103Z</time></trkpt><trkpt lat="45.493233" lon="11.1063682"><ele>449.0</ele><time>2026-04-25T09:40:11.104Z</time></trkpt><trkpt lat="45.493143" lon="11.1063653"><ele>449.0</ele><time>2026-04-25T09:40:12.104Z</time></trkpt><trkpt lat="45.4930645" lon="11.1063622"><ele>449.0</ele><time>2026-04-25T09:40:13.104Z</time></trkpt><trkpt lat="45.4929463" lon="11.1063511"><ele>449.0</ele><time>2026-04-25T09:40:15.105Z</time></trkpt><trkpt lat="45.492854" lon="11.1063348"><ele>449.0</ele><time>2026-04-25T09:40:17.104Z</time></trkpt><trkpt lat="45.4927592" lon="11.1063171"><ele>449.0</ele><time>2026-04-25T09:40:19.103Z</time></trkpt><trkpt lat="45.4926646" lon="11.106262"><ele>447.6</ele><time>2026-04-25T09:40:21.103Z</time></trkpt><trkpt lat="45.4925722" lon="11.1061804"><ele>446.2</ele><time>2026-04-25T09:40:23.104Z</time></trkpt><trkpt lat="45.4924931" lon="11.1060929"><ele>444.80000000000007</ele><time>2026-04-25T09:40:25.103Z</time></trkpt><trkpt lat="45.4924159" lon="11.1059996"><ele>443.40000000000003</ele><time>2026-04-25T09:40:27.104Z</time></trkpt><trkpt lat="45.4923841" lon="11.1058817"><ele>442.0</ele><time>2026-04-25T09:40:29.103Z</time></trkpt><trkpt lat="45.4923877" lon="11.1057343"><ele>441.6666666666667</ele><time>2026-04-25T09:40:31.103Z</time></trkpt><trkpt lat="45.4924112" lon="11.1055629"><ele>441.33333333333337</ele><time>2026-04-25T09:40:33.104Z</time></trkpt><trkpt lat="45.4924288" lon="11.1054693"><ele>441.0</ele><time>2026-04-25T09:40:34.104Z</time></trkpt><trkpt lat="45.4924455" lon="11.1053737"><ele>440.66666666666663</ele><time>2026-04-25T09:40:35.103Z</time></trkpt><trkpt lat="45.4924651" lon="11.1052766"><ele>440.3333333333333</ele><time>2026-04-25T09:40:36.104Z</time></trkpt><trkpt lat="45.4924905" lon="11.1051802"><ele>440.0</ele><time>2026-04-25T09:40:37.103Z</time></trkpt><trkpt lat="45.4925197" lon="11.1050932"><ele>440.0</ele><time>2026-04-25T09:40:38.104Z</time></trkpt><trkpt lat="45.4925542" lon="11.1050028"><ele>440.0</ele><time>2026-04-25T09:40:39.103Z</time></trkpt><trkpt lat="45.4926014" lon="11.1049123"><ele>440.0</ele><time>2026-04-25T09:40:40.104Z</time></trkpt><trkpt lat="45.4926661" lon="11.1048157"><ele>440.0</ele><time>2026-04-25T09:40:41.103Z</time></trkpt><trkpt lat="45.492744" lon="11.1047143"><ele>440.0</ele><time>2026-04-25T09:40:42.103Z</time></trkpt><trkpt lat="45.4928265" lon="11.1046025"><ele>441.0</ele><time>2026-04-25T09:40:43.104Z</time></trkpt><trkpt lat="45.4929171" lon="11.104486"><ele>442.0</ele><time>2026-04-25T09:40:44.103Z</time></trkpt><trkpt lat="45.4930115" lon="11.104368"><ele>443.0</ele><time>2026-04-25T09:40:45.104Z</time></trkpt><trkpt lat="45.4931039" lon="11.1042563"><ele>444.0</ele><time>2026-04-25T09:40:46.104Z</time></trkpt><trkpt lat="45.4931904" lon="11.1041538"><ele>441.6</ele><time>2026-04-25T09:40:47.104Z</time></trkpt><trkpt lat="45.4932757" lon="11.1040564"><ele>439.2</ele><time>2026-04-25T09:40:48.104Z</time></trkpt><trkpt lat="45.4933594" lon="11.1039561"><ele>436.80000000000007</ele><time>2026-04-25T09:40:49.103Z</time></trkpt><trkpt lat="45.4934393" lon="11.1038508"><ele>434.40000000000003</ele><time>2026-04-25T09:40:50.103Z</time></trkpt><trkpt lat="45.4935203" lon="11.1037361"><ele>432.0</ele><time>2026-04-25T09:40:51.104Z</time></trkpt><trkpt lat="45.4935981" lon="11.1036148"><ele>432.0</ele><time>2026-04-25T09:40:52.104Z</time></trkpt><trkpt lat="45.4936717" lon="11.1034826"><ele>432.0</ele><time>2026-04-25T09:40:53.103Z</time></trkpt><trkpt lat="45.4937338" lon="11.103335"><ele>432.0</ele><time>2026-04-25T09:40:54.103Z</time></trkpt><trkpt lat="45.4937724" lon="11.1031692"><ele>432.0</ele><time>2026-04-25T09:40:55.103Z</time></trkpt><trkpt lat="45.4937971" lon="11.1029898"><ele>435.75</ele><time>2026-04-25T09:40:56.103Z</time></trkpt><trkpt lat="45.4938087" lon="11.1028021"><ele>439.5</ele><time>2026-04-25T09:40:57.103Z</time></trkpt><trkpt lat="45.493806" lon="11.1026164"><ele>443.25</ele><time>2026-04-25T09:40:58.104Z</time></trkpt><trkpt lat="45.4937973" lon="11.1024337"><ele>447.0</ele><time>2026-04-25T09:40:59.104Z</time></trkpt><trkpt lat="45.493781" lon="11.10226"><ele>447.0</ele><time>2026-04-25T09:41:00.104Z</time></trkpt><trkpt lat="45.4937644" lon="11.1020945"><ele>447.0</ele><time>2026-04-25T09:41:01.104Z</time></trkpt><trkpt lat="45.493746" lon="11.1019379"><ele>447.0</ele><time>2026-04-25T09:41:02.104Z</time></trkpt><trkpt lat="45.4937128" lon="11.1017795"><ele>447.0</ele><time>2026-04-25T09:41:03.104Z</time></trkpt><trkpt lat="45.4936611" lon="11.1016356"><ele>443.40000000000003</ele><time>2026-04-25T09:41:04.104Z</time></trkpt><trkpt lat="45.4935892" lon="11.1015147"><ele>439.80000000000007</ele><time>2026-04-25T09:41:05.104Z</time></trkpt><trkpt lat="45.493507" lon="11.1014176"><ele>436.2</ele><time>2026-04-25T09:41:06.104Z</time></trkpt><trkpt lat="45.4934242" lon="11.1013404"><ele>432.6</ele><time>2026-04-25T09:41:07.103Z</time></trkpt><trkpt lat="45.4933504" lon="11.1012614"><ele>429.0</ele><time>2026-04-25T09:41:08.103Z</time></trkpt><trkpt lat="45.4932946" lon="11.1011521"><ele>429.0</ele><time>2026-04-25T09:41:09.104Z</time></trkpt><trkpt lat="45.4932513" lon="11.1010234"><ele>429.0</ele><time>2026-04-25T09:41:10.103Z</time></trkpt><trkpt lat="45.4932232" lon="11.1008857"><ele>429.0</ele><time>2026-04-25T09:41:11.103Z</time></trkpt><trkpt lat="45.4932075" lon="11.1007367"><ele>429.0</ele><time>2026-04-25T09:41:12.104Z</time></trkpt><trkpt lat="45.493209" lon="11.1005806"><ele>429.0</ele><time>2026-04-25T09:41:13.103Z</time></trkpt><trkpt lat="45.4932233" lon="11.1004129"><ele>428.0</ele><time>2026-04-25T09:41:14.103Z</time></trkpt><trkpt lat="45.4932501" lon="11.1002359"><ele>427.0</ele><time>2026-04-25T09:41:15.103Z</time></trkpt><trkpt lat="45.4932842" lon="11.1000486"><ele>426.0</ele><time>2026-04-25T09:41:16.103Z</time></trkpt><trkpt lat="45.4933164" lon="11.0998541"><ele>425.0</ele><time>2026-04-25T09:41:17.103Z</time></trkpt><trkpt lat="45.4933467" lon="11.0996608"><ele>423.5</ele><time>2026-04-25T09:41:18.103Z</time></trkpt><trkpt lat="45.4933687" lon="11.0994725"><ele>422.0</ele><time>2026-04-25T09:41:19.103Z</time></trkpt><trkpt lat="45.4933862" lon="11.099291"><ele>420.5</ele><time>2026-04-25T09:41:20.104Z</time></trkpt><trkpt lat="45.4934006" lon="11.0991169"><ele>419.0</ele><time>2026-04-25T09:41:21.103Z</time></trkpt><trkpt lat="45.493412" lon="11.0989466"><ele>417.0</ele><time>2026-04-25T09:41:22.103Z</time></trkpt><trkpt lat="45.4934244" lon="11.0987849"><ele>415.0</ele><time>2026-04-25T09:41:23.104Z</time></trkpt><trkpt lat="45.4934398" lon="11.0986241"><ele>413.0</ele><time>2026-04-25T09:41:24.104Z</time></trkpt><trkpt lat="45.4934587" lon="11.0984673"><ele>411.0</ele><time>2026-04-25T09:41:25.104Z</time></trkpt><trkpt lat="45.493496" lon="11.0983161"><ele>410.75</ele><time>2026-04-25T09:41:26.104Z</time></trkpt><trkpt lat="45.4935533" lon="11.0981752"><ele>410.5</ele><time>2026-04-25T09:41:27.103Z</time></trkpt><trkpt lat="45.4936304" lon="11.0980593"><ele>410.25</ele><time>2026-04-25T09:41:28.103Z</time></trkpt><trkpt lat="45.4937269" lon="11.0979839"><ele>410.0</ele><time>2026-04-25T09:41:29.104Z</time></trkpt><trkpt lat="45.4938385" lon="11.0979417"><ele>410.0</ele><time>2026-04-25T09:41:30.104Z</time></trkpt><trkpt lat="45.4939598" lon="11.0979196"><ele>410.0</ele><time>2026-04-25T09:41:31.103Z</time></trkpt><trkpt lat="45.4940851" lon="11.0979121"><ele>410.0</ele><time>2026-04-25T09:41:32.103Z</time></trkpt><trkpt lat="45.4942161" lon="11.0979036"><ele>410.0</ele><time>2026-04-25T09:41:33.104Z</time></trkpt><trkpt lat="45.494343" lon="11.0978921"><ele>410.0</ele><time>2026-04-25T09:41:34.104Z</time></trkpt><trkpt lat="45.494469" lon="11.0978826"><ele>410.0</ele><time>2026-04-25T09:41:35.104Z</time></trkpt><trkpt lat="45.4945904" lon="11.097874"><ele>410.0</ele><time>2026-04-25T09:41:36.104Z</time></trkpt><trkpt lat="45.4946936" lon="11.0978629"><ele>410.0</ele><time>2026-04-25T09:41:37.103Z</time></trkpt><trkpt lat="45.4947768" lon="11.0978306"><ele>410.0</ele><time>2026-04-25T09:41:38.104Z</time></trkpt><trkpt lat="45.4948325" lon="11.097756"><ele>414.0</ele><time>2026-04-25T09:41:39.104Z</time></trkpt><trkpt lat="45.494862" lon="11.0976405"><ele>418.0</ele><time>2026-04-25T09:41:40.103Z</time></trkpt><trkpt lat="45.4948588" lon="11.0975204"><ele>422.0</ele><time>2026-04-25T09:41:41.105Z</time></trkpt><trkpt lat="45.4948215" lon="11.0973876"><ele>426.0</ele><time>2026-04-25T09:41:42.104Z</time></trkpt><trkpt lat="45.4947652" lon="11.0972454"><ele>430.0</ele><time>2026-04-25T09:41:43.104Z</time></trkpt><trkpt lat="45.4946941" lon="11.0971007"><ele>431.0</ele><time>2026-04-25T09:41:44.104Z</time></trkpt><trkpt lat="45.4946072" lon="11.0969572"><ele>432.0</ele><time>2026-04-25T09:41:45.104Z</time></trkpt><trkpt lat="45.4945105" lon="11.0968271"><ele>433.0</ele><time>2026-04-25T09:41:46.103Z</time></trkpt><trkpt lat="45.4944074" lon="11.0967109"><ele>434.0</ele><time>2026-04-25T09:41:47.104Z</time></trkpt><trkpt lat="45.494309" lon="11.0965891"><ele>427.5</ele><time>2026-04-25T09:41:48.103Z</time></trkpt><trkpt lat="45.4942206" lon="11.0964482"><ele>421.0</ele><time>2026-04-25T09:41:49.103Z</time></trkpt><trkpt lat="45.4941515" lon="11.0962851"><ele>414.5</ele><time>2026-04-25T09:41:50.103Z</time></trkpt><trkpt lat="45.4941093" lon="11.0961168"><ele>408.0</ele><time>2026-04-25T09:41:51.103Z</time></trkpt><trkpt lat="45.4941011" lon="11.09595"><ele>408.0</ele><time>2026-04-25T09:41:52.105Z</time></trkpt><trkpt lat="45.4941289" lon="11.0957908"><ele>408.0</ele><time>2026-04-25T09:41:53.103Z</time></trkpt><trkpt lat="45.4941835" lon="11.095625"><ele>408.0</ele><time>2026-04-25T09:41:54.104Z</time></trkpt><trkpt lat="45.4942474" lon="11.0954465"><ele>408.0</ele><time>2026-04-25T09:41:55.104Z</time></trkpt><trkpt lat="45.4943171" lon="11.0952577"><ele>407.25</ele><time>2026-04-25T09:41:56.104Z</time></trkpt><trkpt lat="45.4943851" lon="11.0950652"><ele>406.5</ele><time>2026-04-25T09:41:57.103Z</time></trkpt><trkpt lat="45.4944449" lon="11.0948836"><ele>405.75</ele><time>2026-04-25T09:41:58.105Z</time></trkpt><trkpt lat="45.4945122" lon="11.0947206"><ele>405.0</ele><time>2026-04-25T09:41:59.104Z</time></trkpt><trkpt lat="45.4946085" lon="11.0945873"><ele>405.0</ele><time>2026-04-25T09:42:00.103Z</time></trkpt><trkpt lat="45.4947245" lon="11.0944733"><ele>405.0</ele><time>2026-04-25T09:42:01.104Z</time></trkpt><trkpt lat="45.4948435" lon="11.0943632"><ele>405.0</ele><time>2026-04-25T09:42:02.104Z</time></trkpt><trkpt lat="45.494949" lon="11.0942531"><ele>405.0</ele><time>2026-04-25T09:42:03.103Z</time></trkpt><trkpt lat="45.495035" lon="11.0941551"><ele>405.8</ele><time>2026-04-25T09:42:04.104Z</time></trkpt><trkpt lat="45.495096" lon="11.0940396"><ele>406.6</ele><time>2026-04-25T09:42:05.103Z</time></trkpt><trkpt lat="45.4951258" lon="11.0939138"><ele>407.4</ele><time>2026-04-25T09:42:06.103Z</time></trkpt><trkpt lat="45.4951237" lon="11.093785"><ele>408.2</ele><time>2026-04-25T09:42:07.104Z</time></trkpt><trkpt lat="45.4950819" lon="11.0936652"><ele>409.0</ele><time>2026-04-25T09:42:08.103Z</time></trkpt><trkpt lat="45.4950099" lon="11.0935623"><ele>409.0</ele><time>2026-04-25T09:42:09.104Z</time></trkpt><trkpt lat="45.494905" lon="11.0934826"><ele>409.0</ele><time>2026-04-25T09:42:10.104Z</time></trkpt><trkpt lat="45.4947819" lon="11.0934098"><ele>409.0</ele><time>2026-04-25T09:42:11.104Z</time></trkpt><trkpt lat="45.4946444" lon="11.0933342"><ele>409.0</ele><time>2026-04-25T09:42:12.103Z</time></trkpt><trkpt lat="45.4944922" lon="11.0932764"><ele>406.0</ele><time>2026-04-25T09:42:13.104Z</time></trkpt><trkpt lat="45.4943311" lon="11.093249"><ele>403.0</ele><time>2026-04-25T09:42:14.104Z</time></trkpt><trkpt lat="45.4941673" lon="11.0932441"><ele>400.0</ele><time>2026-04-25T09:42:15.103Z</time></trkpt><trkpt lat="45.4940042" lon="11.0932561"><ele>400.0</ele><time>2026-04-25T09:42:16.104Z</time></trkpt><trkpt lat="45.4938421" lon="11.0932587"><ele>400.0</ele><time>2026-04-25T09:42:17.104Z</time></trkpt><trkpt lat="45.4936926" lon="11.0932649"><ele>400.0</ele><time>2026-04-25T09:42:18.104Z</time></trkpt><trkpt lat="45.4935476" lon="11.0932882"><ele>401.0</ele><time>2026-04-25T09:42:19.105Z</time></trkpt><trkpt lat="45.493398" lon="11.0932896"><ele>402.0</ele><time>2026-04-25T09:42:20.104Z</time></trkpt><trkpt lat="45.4932455" lon="11.0932838"><ele>403.0</ele><time>2026-04-25T09:42:21.103Z</time></trkpt><trkpt lat="45.4930909" lon="11.0932658"><ele>410.6666666666667</ele><time>2026-04-25T09:42:22.104Z</time></trkpt><trkpt lat="45.492935" lon="11.0932377"><ele>418.33333333333337</ele><time>2026-04-25T09:42:23.103Z</time></trkpt><trkpt lat="45.4927772" lon="11.0932072"><ele>426.0</ele><time>2026-04-25T09:42:24.104Z</time></trkpt><trkpt lat="45.4926181" lon="11.0931701"><ele>426.0</ele><time>2026-04-25T09:42:25.104Z</time></trkpt><trkpt lat="45.4924543" lon="11.093141"><ele>426.0</ele><time>2026-04-25T09:42:26.104Z</time></trkpt><trkpt lat="45.4922908" lon="11.0931237"><ele>426.0</ele><time>2026-04-25T09:42:27.104Z</time></trkpt><trkpt lat="45.4921124" lon="11.0931214"><ele>421.33333333333337</ele><time>2026-04-25T09:42:28.103Z</time></trkpt><trkpt lat="45.4919256" lon="11.0931214"><ele>416.6666666666667</ele><time>2026-04-25T09:42:29.105Z</time></trkpt><trkpt lat="45.4917442" lon="11.0931228"><ele>412.0</ele><time>2026-04-25T09:42:30.104Z</time></trkpt><trkpt lat="45.4915811" lon="11.0931232"><ele>412.0</ele><time>2026-04-25T09:42:31.104Z</time></trkpt><trkpt lat="45.4914307" lon="11.0931178"><ele>412.0</ele><time>2026-04-25T09:42:32.103Z</time></trkpt><trkpt lat="45.4912941" lon="11.0930878"><ele>412.0</ele><time>2026-04-25T09:42:33.104Z</time></trkpt><trkpt lat="45.4911729" lon="11.093013"><ele>412.0</ele><time>2026-04-25T09:42:34.103Z</time></trkpt><trkpt lat="45.4910623" lon="11.0929074"><ele>409.25</ele><time>2026-04-25T09:42:35.104Z</time></trkpt><trkpt lat="45.4909693" lon="11.0927708"><ele>406.5</ele><time>2026-04-25T09:42:36.103Z</time></trkpt><trkpt lat="45.4908834" lon="11.0926139"><ele>403.75</ele><time>2026-04-25T09:42:37.104Z</time></trkpt><trkpt lat="45.4908" lon="11.092448"><ele>401.0</ele><time>2026-04-25T09:42:38.103Z</time></trkpt><trkpt lat="45.4907072" lon="11.092282"><ele>401.0</ele><time>2026-04-25T09:42:39.104Z</time></trkpt><trkpt lat="45.4906043" lon="11.0921266"><ele>401.0</ele><time>2026-04-25T09:42:40.104Z</time></trkpt><trkpt lat="45.4904962" lon="11.0919774"><ele>401.0</ele><time>2026-04-25T09:42:41.104Z</time></trkpt><trkpt lat="45.4903876" lon="11.0918321"><ele>401.0</ele><time>2026-04-25T09:42:42.103Z</time></trkpt><trkpt lat="45.49028" lon="11.0916933"><ele>397.25</ele><time>2026-04-25T09:42:43.103Z</time></trkpt><trkpt lat="45.4901743" lon="11.0915629"><ele>393.5</ele><time>2026-04-25T09:42:44.103Z</time></trkpt><trkpt lat="45.4900719" lon="11.0914393"><ele>389.75</ele><time>2026-04-25T09:42:45.104Z</time></trkpt><trkpt lat="45.4899704" lon="11.0913182"><ele>386.0</ele><time>2026-04-25T09:42:46.104Z</time></trkpt><trkpt lat="45.48987" lon="11.0911964"><ele>386.0</ele><time>2026-04-25T09:42:47.103Z</time></trkpt><trkpt lat="45.4897724" lon="11.0910752"><ele>386.0</ele><time>2026-04-25T09:42:48.103Z</time></trkpt><trkpt lat="45.4896771" lon="11.0909603"><ele>386.0</ele><time>2026-04-25T09:42:49.104Z</time></trkpt><trkpt lat="45.4895843" lon="11.0908498"><ele>386.0</ele><time>2026-04-25T09:42:50.104Z</time></trkpt><trkpt lat="45.4894943" lon="11.0907447"><ele>384.4</ele><time>2026-04-25T09:42:51.104Z</time></trkpt><trkpt lat="45.4894108" lon="11.0906444"><ele>382.8</ele><time>2026-04-25T09:42:52.104Z</time></trkpt><trkpt lat="45.4893318" lon="11.0905463"><ele>381.2</ele><time>2026-04-25T09:42:53.104Z</time></trkpt><trkpt lat="45.4892546" lon="11.0904535"><ele>379.59999999999997</ele><time>2026-04-25T09:42:54.104Z</time></trkpt><trkpt lat="45.48918" lon="11.0903699"><ele>378.0</ele><time>2026-04-25T09:42:55.105Z</time></trkpt><trkpt lat="45.4891023" lon="11.0902967"><ele>378.0</ele><time>2026-04-25T09:42:56.103Z</time></trkpt><trkpt lat="45.4890194" lon="11.0902358"><ele>378.0</ele><time>2026-04-25T09:42:57.104Z</time></trkpt><trkpt lat="45.4889337" lon="11.0901813"><ele>378.0</ele><time>2026-04-25T09:42:58.104Z</time></trkpt><trkpt lat="45.4888436" lon="11.0901333"><ele>378.0</ele><time>2026-04-25T09:42:59.104Z</time></trkpt><trkpt lat="45.4887503" lon="11.0900862"><ele>378.0</ele><time>2026-04-25T09:43:00.105Z</time></trkpt><trkpt lat="45.488652" lon="11.0900337"><ele>377.75</ele><time>2026-04-25T09:43:01.104Z</time></trkpt><trkpt lat="45.4885479" lon="11.0899792"><ele>377.5</ele><time>2026-04-25T09:43:02.104Z</time></trkpt><trkpt lat="45.4884421" lon="11.0899276"><ele>377.25</ele><time>2026-04-25T09:43:03.104Z</time></trkpt><trkpt lat="45.48833" lon="11.0898746"><ele>377.0</ele><time>2026-04-25T09:43:04.105Z</time></trkpt><trkpt lat="45.4882087" lon="11.0898239"><ele>375.5</ele><time>2026-04-25T09:43:05.103Z</time></trkpt><trkpt lat="45.4880848" lon="11.089776"><ele>374.0</ele><time>2026-04-25T09:43:06.103Z</time></trkpt><trkpt lat="45.4879587" lon="11.0897251"><ele>372.5</ele><time>2026-04-25T09:43:07.103Z</time></trkpt><trkpt lat="45.4878262" lon="11.0896734"><ele>371.0</ele><time>2026-04-25T09:43:08.103Z</time></trkpt><trkpt lat="45.4876909" lon="11.089621"><ele>371.0</ele><time>2026-04-25T09:43:09.103Z</time></trkpt><trkpt lat="45.4875463" lon="11.0895639"><ele>371.0</ele><time>2026-04-25T09:43:10.103Z</time></trkpt><trkpt lat="45.4873995" lon="11.0895124"><ele>371.0</ele><time>2026-04-25T09:43:11.105Z</time></trkpt><trkpt lat="45.4872523" lon="11.0894688"><ele>371.0</ele><time>2026-04-25T09:43:12.104Z</time></trkpt><trkpt lat="45.4871149" lon="11.0894316"><ele>371.0</ele><time>2026-04-25T09:43:13.104Z</time></trkpt><trkpt lat="45.4869833" lon="11.0893976"><ele>371.0</ele><time>2026-04-25T09:43:14.103Z</time></trkpt><trkpt lat="45.4868557" lon="11.0893657"><ele>371.0</ele><time>2026-04-25T09:43:15.104Z</time></trkpt><trkpt lat="45.4867367" lon="11.0893413"><ele>371.0</ele><time>2026-04-25T09:43:16.103Z</time></trkpt><trkpt lat="45.486623" lon="11.0893233"><ele>371.0</ele><time>2026-04-25T09:43:17.103Z</time></trkpt><trkpt lat="45.4865163" lon="11.0893108"><ele>371.0</ele><time>2026-04-25T09:43:18.103Z</time></trkpt><trkpt lat="45.4864119" lon="11.0892993"><ele>371.0</ele><time>2026-04-25T09:43:19.104Z</time></trkpt><trkpt lat="45.4863127" lon="11.0892913"><ele>371.0</ele><time>2026-04-25T09:43:20.103Z</time></trkpt><trkpt lat="45.4862169" lon="11.0892905"><ele>370.20000000000005</ele><time>2026-04-25T09:43:21.103Z</time></trkpt><trkpt lat="45.4861205" lon="11.0892888"><ele>369.40000000000003</ele><time>2026-04-25T09:43:22.104Z</time></trkpt><trkpt lat="45.4860275" lon="11.0892846"><ele>368.6</ele><time>2026-04-25T09:43:23.103Z</time></trkpt><trkpt lat="45.4859335" lon="11.0892805"><ele>367.8</ele><time>2026-04-25T09:43:24.104Z</time></trkpt><trkpt lat="45.4858454" lon="11.089283"><ele>367.0</ele><time>2026-04-25T09:43:25.104Z</time></trkpt><trkpt lat="45.4857563" lon="11.0892858"><ele>367.0</ele><time>2026-04-25T09:43:26.104Z</time></trkpt><trkpt lat="45.485669" lon="11.0892864"><ele>367.0</ele><time>2026-04-25T09:43:27.104Z</time></trkpt><trkpt lat="45.4855846" lon="11.0892877"><ele>367.0</ele><time>2026-04-25T09:43:28.104Z</time></trkpt><trkpt lat="45.485502" lon="11.0892874"><ele>367.0</ele><time>2026-04-25T09:43:29.103Z</time></trkpt><trkpt lat="45.4854189" lon="11.0892862"><ele>367.0</ele><time>2026-04-25T09:43:30.105Z</time></trkpt><trkpt lat="45.4853346" lon="11.0892872"><ele>367.0</ele><time>2026-04-25T09:43:31.103Z</time></trkpt><trkpt lat="45.4852469" lon="11.0892968"><ele>366.16666666666663</ele><time>2026-04-25T09:43:32.104Z</time></trkpt><trkpt lat="45.4851595" lon="11.0893181"><ele>365.3333333333333</ele><time>2026-04-25T09:43:33.103Z</time></trkpt><trkpt lat="45.485075" lon="11.0893473"><ele>364.5</ele><time>2026-04-25T09:43:34.103Z</time></trkpt><trkpt lat="45.4849911" lon="11.0893769"><ele>363.6666666666667</ele><time>2026-04-25T09:43:35.103Z</time></trkpt><trkpt lat="45.484912" lon="11.0894007"><ele>362.83333333333337</ele><time>2026-04-25T09:43:36.104Z</time></trkpt><trkpt lat="45.484841" lon="11.0894203"><ele>362.0</ele><time>2026-04-25T09:43:37.103Z</time></trkpt><trkpt lat="45.4847302" lon="11.0894457"><ele>362.0</ele><time>2026-04-25T09:43:39.104Z</time></trkpt><trkpt lat="45.4846466" lon="11.0894729"><ele>362.0</ele><time>2026-04-25T09:43:41.104Z</time></trkpt><trkpt lat="45.4845954" lon="11.0895465"><ele>362.0</ele><time>2026-04-25T09:43:44.104Z</time></trkpt><trkpt lat="45.4846306" lon="11.0896292"><ele>362.0</ele><time>2026-04-25T09:44:28.104Z</time></trkpt><trkpt lat="45.4847044" lon="11.089562"><ele>362.0</ele><time>2026-04-25T09:44:31.104Z</time></trkpt><trkpt lat="45.484772" lon="11.089485"><ele>362.0</ele><time>2026-04-25T09:44:33.105Z</time></trkpt><trkpt lat="45.4848739" lon="11.0894299"><ele>362.0</ele><time>2026-04-25T09:44:35.104Z</time></trkpt><trkpt lat="45.4849872" lon="11.0893874"><ele>362.0</ele><time>2026-04-25T09:44:37.103Z</time></trkpt><trkpt lat="45.4850833" lon="11.0893544"><ele>362.0</ele><time>2026-04-25T09:44:39.104Z</time></trkpt><trkpt lat="45.4851838" lon="11.0893304"><ele>362.0</ele><time>2026-04-25T09:44:41.103Z</time></trkpt><trkpt lat="45.4852978" lon="11.0893229"><ele>362.0</ele><time>2026-04-25T09:44:43.104Z</time></trkpt><trkpt lat="45.4853973" lon="11.0893156"><ele>362.0</ele><time>2026-04-25T09:44:45.104Z</time></trkpt><trkpt lat="45.4854531" lon="11.0892559"><ele>362.0</ele><time>2026-04-25T09:44:47.103Z</time></trkpt><trkpt lat="45.4853934" lon="11.0891574"><ele>362.0</ele><time>2026-04-25T09:44:50.103Z</time></trkpt><trkpt lat="45.4853015" lon="11.0890907"><ele>362.0</ele><time>2026-04-25T09:44:52.104Z</time></trkpt><trkpt lat="45.4852422" lon="11.0890505"><ele>362.0</ele><time>2026-04-25T09:44:53.103Z</time></trkpt><trkpt lat="45.4851786" lon="11.0890144"><ele>362.0</ele><time>2026-04-25T09:44:54.104Z</time></trkpt><trkpt lat="45.4851129" lon="11.0889784"><ele>360.6</ele><time>2026-04-25T09:44:55.104Z</time></trkpt><trkpt lat="45.4850483" lon="11.0889473"><ele>359.20000000000005</ele><time>2026-04-25T09:44:56.103Z</time></trkpt><trkpt lat="45.4849872" lon="11.0889185"><ele>357.8</ele><time>2026-04-25T09:44:57.104Z</time></trkpt><trkpt lat="45.4848861" lon="11.0888604"><ele>356.4</ele><time>2026-04-25T09:44:59.104Z</time></trkpt><trkpt lat="45.4848517" lon="11.088734"><ele>355.0</ele><time>2026-04-25T09:45:01.104Z</time></trkpt><trkpt lat="45.4849187" lon="11.088573"><ele>355.0</ele><time>2026-04-25T09:45:03.104Z</time></trkpt><trkpt lat="45.4849747" lon="11.0884862"><ele>355.0</ele><time>2026-04-25T09:45:04.104Z</time></trkpt><trkpt lat="45.485023" lon="11.0883761"><ele>355.0</ele><time>2026-04-25T09:45:05.103Z</time></trkpt><trkpt lat="45.4850661" lon="11.0882551"><ele>355.0</ele><time>2026-04-25T09:45:06.103Z</time></trkpt><trkpt lat="45.4851106" lon="11.0881292"><ele>355.0</ele><time>2026-04-25T09:45:07.103Z</time></trkpt><trkpt lat="45.4851546" lon="11.0880035"><ele>354.2</ele><time>2026-04-25T09:45:08.104Z</time></trkpt><trkpt lat="45.4852054" lon="11.0878881"><ele>353.4</ele><time>2026-04-25T09:45:09.104Z</time></trkpt><trkpt lat="45.4852706" lon="11.0877849"><ele>352.6</ele><time>2026-04-25T09:45:10.103Z</time></trkpt><trkpt lat="45.4853466" lon="11.0876888"><ele>351.8</ele><time>2026-04-25T09:45:11.103Z</time></trkpt><trkpt lat="45.4854252" lon="11.0875952"><ele>351.0</ele><time>2026-04-25T09:45:12.104Z</time></trkpt><trkpt lat="45.4855045" lon="11.0875077"><ele>347.6</ele><time>2026-04-25T09:45:13.104Z</time></trkpt><trkpt lat="45.4855829" lon="11.0874207"><ele>344.20000000000005</ele><time>2026-04-25T09:45:14.103Z</time></trkpt><trkpt lat="45.4856541" lon="11.0873314"><ele>340.79999999999995</ele><time>2026-04-25T09:45:15.105Z</time></trkpt><trkpt lat="45.4857209" lon="11.0872427"><ele>337.4</ele><time>2026-04-25T09:45:16.103Z</time></trkpt><trkpt lat="45.4857927" lon="11.0871513"><ele>334.0</ele><time>2026-04-25T09:45:17.103Z</time></trkpt><trkpt lat="45.4858686" lon="11.0870645"><ele>334.0</ele><time>2026-04-25T09:45:18.104Z</time></trkpt><trkpt lat="45.4859532" lon="11.0869783"><ele>334.0</ele><time>2026-04-25T09:45:19.104Z</time></trkpt><trkpt lat="45.4860416" lon="11.0869008"><ele>334.0</ele><time>2026-04-25T09:45:20.103Z</time></trkpt><trkpt lat="45.4861236" lon="11.0868334"><ele>334.0</ele><time>2026-04-25T09:45:21.105Z</time></trkpt><trkpt lat="45.486199" lon="11.0867707"><ele>334.0</ele><time>2026-04-25T09:45:22.103Z</time></trkpt><trkpt lat="45.48626" lon="11.0867002"><ele>334.3333333333333</ele><time>2026-04-25T09:45:23.104Z</time></trkpt><trkpt lat="45.4863124" lon="11.0866169"><ele>334.66666666666663</ele><time>2026-04-25T09:45:24.103Z</time></trkpt><trkpt lat="45.4863567" lon="11.0865191"><ele>335.0</ele><time>2026-04-25T09:45:25.104Z</time></trkpt><trkpt lat="45.4863894" lon="11.0864023"><ele>335.3333333333333</ele><time>2026-04-25T09:45:26.104Z</time></trkpt><trkpt lat="45.4864112" lon="11.0862744"><ele>335.6666666666667</ele><time>2026-04-25T09:45:27.103Z</time></trkpt><trkpt lat="45.4864276" lon="11.0861471"><ele>336.0</ele><time>2026-04-25T09:45:28.103Z</time></trkpt><trkpt lat="45.4864408" lon="11.0860232"><ele>333.6666666666667</ele><time>2026-04-25T09:45:29.103Z</time></trkpt><trkpt lat="45.4864531" lon="11.0859033"><ele>331.3333333333333</ele><time>2026-04-25T09:45:30.104Z</time></trkpt><trkpt lat="45.4864682" lon="11.0857845"><ele>329.0</ele><time>2026-04-25T09:45:31.104Z</time></trkpt><trkpt lat="45.4864843" lon="11.085658"><ele>326.66666666666663</ele><time>2026-04-25T09:45:32.103Z</time></trkpt><trkpt lat="45.4865013" lon="11.0855285"><ele>324.3333333333333</ele><time>2026-04-25T09:45:33.104Z</time></trkpt><trkpt lat="45.486531" lon="11.0854036"><ele>322.0</ele><time>2026-04-25T09:45:34.103Z</time></trkpt><trkpt lat="45.4865724" lon="11.0852909"><ele>320.0</ele><time>2026-04-25T09:45:35.104Z</time></trkpt><trkpt lat="45.4866134" lon="11.0851957"><ele>318.0</ele><time>2026-04-25T09:45:36.103Z</time></trkpt><trkpt lat="45.4866439" lon="11.0850971"><ele>316.0</ele><time>2026-04-25T09:45:37.103Z</time></trkpt><trkpt lat="45.4866632" lon="11.0849854"><ele>314.0</ele><time>2026-04-25T09:45:38.104Z</time></trkpt><trkpt lat="45.486669" lon="11.0848703"><ele>312.0</ele><time>2026-04-25T09:45:39.103Z</time></trkpt><trkpt lat="45.4866634" lon="11.084748"><ele>310.0</ele><time>2026-04-25T09:45:40.103Z</time></trkpt><trkpt lat="45.4866474" lon="11.0846205"><ele>308.2</ele><time>2026-04-25T09:45:41.104Z</time></trkpt><trkpt lat="45.4866284" lon="11.084491"><ele>306.4</ele><time>2026-04-25T09:45:42.105Z</time></trkpt><trkpt lat="45.4866095" lon="11.0843615"><ele>304.6</ele><time>2026-04-25T09:45:43.104Z</time></trkpt><trkpt lat="45.4865935" lon="11.0842366"><ele>302.8</ele><time>2026-04-25T09:45:44.103Z</time></trkpt><trkpt lat="45.4865881" lon="11.0841105"><ele>301.0</ele><time>2026-04-25T09:45:45.103Z</time></trkpt><trkpt lat="45.4865962" lon="11.0839804"><ele>299.0</ele><time>2026-04-25T09:45:46.103Z</time></trkpt><trkpt lat="45.4866156" lon="11.0838532"><ele>297.0</ele><time>2026-04-25T09:45:47.103Z</time></trkpt><trkpt lat="45.4866335" lon="11.0837281"><ele>295.0</ele><time>2026-04-25T09:45:48.103Z</time></trkpt><trkpt lat="45.4866479" lon="11.0836019"><ele>293.0</ele><time>2026-04-25T09:45:49.103Z</time></trkpt><trkpt lat="45.4866613" lon="11.0834679"><ele>291.0</ele><time>2026-04-25T09:45:50.103Z</time></trkpt><trkpt lat="45.4866769" lon="11.0833316"><ele>289.2</ele><time>2026-04-25T09:45:51.104Z</time></trkpt><trkpt lat="45.486688" lon="11.0831943"><ele>287.40000000000003</ele><time>2026-04-25T09:45:52.104Z</time></trkpt><trkpt lat="45.4867025" lon="11.0830543"><ele>285.6</ele><time>2026-04-25T09:45:53.103Z</time></trkpt><trkpt lat="45.4867135" lon="11.082915"><ele>283.8</ele><time>2026-04-25T09:45:54.104Z</time></trkpt><trkpt lat="45.4867217" lon="11.0827733"><ele>282.0</ele><time>2026-04-25T09:45:55.104Z</time></trkpt><trkpt lat="45.4867214" lon="11.0826327"><ele>282.0</ele><time>2026-04-25T09:45:56.103Z</time></trkpt><trkpt lat="45.4867075" lon="11.0824959"><ele>282.0</ele><time>2026-04-25T09:45:57.103Z</time></trkpt><trkpt lat="45.4866845" lon="11.082365"><ele>282.0</ele><time>2026-04-25T09:45:58.105Z</time></trkpt><trkpt lat="45.486655" lon="11.0822444"><ele>282.0</ele><time>2026-04-25T09:45:59.103Z</time></trkpt><trkpt lat="45.4866312" lon="11.0821312"><ele>282.0</ele><time>2026-04-25T09:46:00.103Z</time></trkpt><trkpt lat="45.4866152" lon="11.082024"><ele>282.0</ele><time>2026-04-25T09:46:01.103Z</time></trkpt><trkpt lat="45.486603" lon="11.0819253"><ele>280.8</ele><time>2026-04-25T09:46:02.103Z</time></trkpt><trkpt lat="45.4866051" lon="11.0818333"><ele>279.6</ele><time>2026-04-25T09:46:03.103Z</time></trkpt><trkpt lat="45.4866571" lon="11.0816846"><ele>278.40000000000003</ele><time>2026-04-25T09:46:05.103Z</time></trkpt><trkpt lat="45.4867685" lon="11.0815968"><ele>277.2</ele><time>2026-04-25T09:46:07.104Z</time></trkpt><trkpt lat="45.4868406" lon="11.0815625"><ele>276.0</ele><time>2026-04-25T09:46:08.105Z</time></trkpt><trkpt lat="45.4869108" lon="11.0815308"><ele>275.7142857142857</ele><time>2026-04-25T09:46:09.103Z</time></trkpt><trkpt lat="45.4869761" lon="11.0815078"><ele>275.42857142857144</ele><time>2026-04-25T09:46:10.103Z</time></trkpt><trkpt lat="45.4870406" lon="11.0815064"><ele>275.14285714285717</ele><time>2026-04-25T09:46:11.104Z</time></trkpt><trkpt lat="45.4871001" lon="11.0815381"><ele>274.8571428571429</ele><time>2026-04-25T09:46:12.103Z</time></trkpt><trkpt lat="45.4871485" lon="11.0816022"><ele>274.57142857142856</ele><time>2026-04-25T09:46:13.104Z</time></trkpt><trkpt lat="45.4871822" lon="11.0816865"><ele>274.28571428571433</ele><time>2026-04-25T09:46:14.104Z</time></trkpt><trkpt lat="45.4872062" lon="11.0817795"><ele>274.0</ele><time>2026-04-25T09:46:15.104Z</time></trkpt><trkpt lat="45.4872327" lon="11.0818761"><ele>272.66666666666663</ele><time>2026-04-25T09:46:16.104Z</time></trkpt><trkpt lat="45.4872663" lon="11.0819793"><ele>271.3333333333333</ele><time>2026-04-25T09:46:17.103Z</time></trkpt><trkpt lat="45.4872957" lon="11.082084"><ele>270.0</ele><time>2026-04-25T09:46:18.105Z</time></trkpt><trkpt lat="45.4873227" lon="11.0821877"><ele>268.6666666666667</ele><time>2026-04-25T09:46:19.103Z</time></trkpt><trkpt lat="45.4873501" lon="11.0822933"><ele>267.33333333333337</ele><time>2026-04-25T09:46:20.103Z</time></trkpt><trkpt lat="45.4873776" lon="11.0823964"><ele>266.0</ele><time>2026-04-25T09:46:21.104Z</time></trkpt><trkpt lat="45.4874023" lon="11.0825018"><ele>266.0</ele><time>2026-04-25T09:46:22.104Z</time></trkpt><trkpt lat="45.4874243" lon="11.082615"><ele>266.0</ele><time>2026-04-25T09:46:23.103Z</time></trkpt><trkpt lat="45.4874424" lon="11.0827328"><ele>266.0</ele><time>2026-04-25T09:46:24.104Z</time></trkpt><trkpt lat="45.4874578" lon="11.0828534"><ele>266.0</ele><time>2026-04-25T09:46:25.104Z</time></trkpt><trkpt lat="45.4874686" lon="11.082976"><ele>266.0</ele><time>2026-04-25T09:46:26.103Z</time></trkpt><trkpt lat="45.4874824" lon="11.0830983"><ele>266.0</ele><time>2026-04-25T09:46:27.103Z</time></trkpt><trkpt lat="45.4875048" lon="11.0832241"><ele>267.2</ele><time>2026-04-25T09:46:28.104Z</time></trkpt><trkpt lat="45.4875338" lon="11.0833496"><ele>268.40000000000003</ele><time>2026-04-25T09:46:29.103Z</time></trkpt><trkpt lat="45.487569" lon="11.083469"><ele>269.6</ele><time>2026-04-25T09:46:30.103Z</time></trkpt><trkpt lat="45.487608" lon="11.0835896"><ele>270.8</ele><time>2026-04-25T09:46:31.103Z</time></trkpt><trkpt lat="45.4876498" lon="11.0837035"><ele>272.0</ele><time>2026-04-25T09:46:32.103Z</time></trkpt><trkpt lat="45.4877025" lon="11.0838143"><ele>272.0</ele><time>2026-04-25T09:46:33.103Z</time></trkpt><trkpt lat="45.4877557" lon="11.0839222"><ele>272.0</ele><time>2026-04-25T09:46:34.103Z</time></trkpt><trkpt lat="45.48781" lon="11.0840285"><ele>272.0</ele><time>2026-04-25T09:46:35.104Z</time></trkpt><trkpt lat="45.4878637" lon="11.0841358"><ele>272.0</ele><time>2026-04-25T09:46:36.103Z</time></trkpt><trkpt lat="45.4879151" lon="11.0842362"><ele>272.0</ele><time>2026-04-25T09:46:37.104Z</time></trkpt><trkpt lat="45.4879609" lon="11.0843208"><ele>272.0</ele><time>2026-04-25T09:46:38.104Z</time></trkpt><trkpt lat="45.4880162" lon="11.0843678"><ele>270.71428571428567</ele><time>2026-04-25T09:46:39.103Z</time></trkpt><trkpt lat="45.4880816" lon="11.0843781"><ele>269.42857142857144</ele><time>2026-04-25T09:46:40.103Z</time></trkpt><trkpt lat="45.4881475" lon="11.084359"><ele>268.1428571428571</ele><time>2026-04-25T09:46:41.104Z</time></trkpt><trkpt lat="45.4882114" lon="11.0843268"><ele>266.85714285714283</ele><time>2026-04-25T09:46:42.105Z</time></trkpt><trkpt lat="45.4882875" lon="11.0842906"><ele>265.57142857142856</ele><time>2026-04-25T09:46:43.104Z</time></trkpt><trkpt lat="45.4883664" lon="11.0842686"><ele>264.2857142857143</ele><time>2026-04-25T09:46:44.103Z</time></trkpt><trkpt lat="45.4884474" lon="11.0842516"><ele>263.0</ele><time>2026-04-25T09:46:45.103Z</time></trkpt><trkpt lat="45.4885269" lon="11.0842365"><ele>263.0</ele><time>2026-04-25T09:46:46.103Z</time></trkpt><trkpt lat="45.4886005" lon="11.0842303"><ele>263.0</ele><time>2026-04-25T09:46:47.103Z</time></trkpt><trkpt lat="45.4887061" lon="11.08427"><ele>263.0</ele><time>2026-04-25T09:46:49.104Z</time></trkpt><trkpt lat="45.4887753" lon="11.0843755"><ele>263.0</ele><time>2026-04-25T09:46:51.103Z</time></trkpt><trkpt lat="45.4888273" lon="11.0845137"><ele>263.0</ele><time>2026-04-25T09:46:53.103Z</time></trkpt><trkpt lat="45.4888983" lon="11.0846381"><ele>263.4</ele><time>2026-04-25T09:46:55.103Z</time></trkpt><trkpt lat="45.4890017" lon="11.0847227"><ele>263.8</ele><time>2026-04-25T09:46:57.103Z</time></trkpt><trkpt lat="45.4891095" lon="11.0847276"><ele>264.2</ele><time>2026-04-25T09:46:59.104Z</time></trkpt><trkpt lat="45.4891735" lon="11.0846281"><ele>264.6</ele><time>2026-04-25T09:47:01.104Z</time></trkpt><trkpt lat="45.4891913" lon="11.0844796"><ele>265.0</ele><time>2026-04-25T09:47:03.103Z</time></trkpt><trkpt lat="45.4892094" lon="11.0842961"><ele>265.0</ele><time>2026-04-25T09:47:05.103Z</time></trkpt><trkpt lat="45.489217" lon="11.0841982"><ele>265.0</ele><time>2026-04-25T09:47:06.103Z</time></trkpt><trkpt lat="45.4892202" lon="11.0841024"><ele>265.0</ele><time>2026-04-25T09:47:07.104Z</time></trkpt><trkpt lat="45.4892217" lon="11.0840107"><ele>265.0</ele><time>2026-04-25T09:47:08.104Z</time></trkpt><trkpt lat="45.4892387" lon="11.0838433"><ele>265.0</ele><time>2026-04-25T09:47:10.103Z</time></trkpt><trkpt lat="45.4893018" lon="11.0837238"><ele>265.0</ele><time>2026-04-25T09:47:12.103Z</time></trkpt><trkpt lat="45.4893932" lon="11.083686"><ele>263.8333333333333</ele><time>2026-04-25T09:47:14.103Z</time></trkpt><trkpt lat="45.4894721" lon="11.0836625"><ele>262.66666666666663</ele><time>2026-04-25T09:47:16.105Z</time></trkpt><trkpt lat="45.4895304" lon="11.0835997"><ele>261.5</ele><time>2026-04-25T09:47:18.104Z</time></trkpt><trkpt lat="45.4895475" lon="11.0834764"><ele>260.3333333333333</ele><time>2026-04-25T09:47:20.104Z</time></trkpt><trkpt lat="45.4895559" lon="11.0833323"><ele>259.1666666666667</ele><time>2026-04-25T09:47:22.104Z</time></trkpt><trkpt lat="45.4895619" lon="11.0832248"><ele>258.0</ele><time>2026-04-25T09:47:24.104Z</time></trkpt><trkpt lat="45.4896487" lon="11.0831666"><ele>256.6</ele><time>2026-04-25T09:47:28.103Z</time></trkpt><trkpt lat="45.4897387" lon="11.0831559"><ele>255.20000000000002</ele><time>2026-04-25T09:47:30.103Z</time></trkpt><trkpt lat="45.4898366" lon="11.0831307"><ele>253.8</ele><time>2026-04-25T09:47:32.104Z</time></trkpt><trkpt lat="45.4899315" lon="11.083103"><ele>252.4</ele><time>2026-04-25T09:47:34.105Z</time></trkpt><trkpt lat="45.4900202" lon="11.0830817"><ele>251.0</ele><time>2026-04-25T09:47:36.104Z</time></trkpt><trkpt lat="45.4901097" lon="11.0830937"><ele>251.0</ele><time>2026-04-25T09:47:38.104Z</time></trkpt><trkpt lat="45.4901903" lon="11.083135"><ele>251.00000000000003</ele><time>2026-04-25T09:47:40.103Z</time></trkpt><trkpt lat="45.4902579" lon="11.0831826"><ele>251.00000000000003</ele><time>2026-04-25T09:47:42.103Z</time></trkpt><trkpt lat="45.4903316" lon="11.0832463"><ele>251.0</ele><time>2026-04-25T09:47:44.104Z</time></trkpt><trkpt lat="45.4904393" lon="11.0832769"><ele>251.0</ele><time>2026-04-25T09:47:46.103Z</time></trkpt><trkpt lat="45.4905688" lon="11.0832591"><ele>252.71428571428567</ele><time>2026-04-25T09:47:48.103Z</time></trkpt><trkpt lat="45.4906392" lon="11.0832462"><ele>254.42857142857142</ele><time>2026-04-25T09:47:49.104Z</time></trkpt><trkpt lat="45.4907076" lon="11.0832241"><ele>256.1428571428571</ele><time>2026-04-25T09:47:50.103Z</time></trkpt><trkpt lat="45.4907792" lon="11.083197"><ele>257.85714285714283</ele><time>2026-04-25T09:47:51.104Z</time></trkpt><trkpt lat="45.4908506" lon="11.0831635"><ele>259.57142857142856</ele><time>2026-04-25T09:47:52.103Z</time></trkpt><trkpt lat="45.4909163" lon="11.0831175"><ele>261.2857142857143</ele><time>2026-04-25T09:47:53.103Z</time></trkpt><trkpt lat="45.4909751" lon="11.0830639"><ele>263.0</ele><time>2026-04-25T09:47:54.104Z</time></trkpt><trkpt lat="45.4910283" lon="11.083002"><ele>263.0</ele><time>2026-04-25T09:47:55.103Z</time></trkpt><trkpt lat="45.491074" lon="11.082934"><ele>263.0</ele><time>2026-04-25T09:47:56.103Z</time></trkpt><trkpt lat="45.4911103" lon="11.082856"><ele>263.0</ele><time>2026-04-25T09:47:57.105Z</time></trkpt><trkpt lat="45.4911331" lon="11.0826795"><ele>263.0</ele><time>2026-04-25T09:47:59.104Z</time></trkpt><trkpt lat="45.4911239" lon="11.0825849"><ele>263.0</ele><time>2026-04-25T09:48:00.103Z</time></trkpt><trkpt lat="45.4910867" lon="11.0824363"><ele>263.0</ele><time>2026-04-25T09:48:02.103Z</time></trkpt><trkpt lat="45.4910451" lon="11.0823046"><ele>264.1666666666667</ele><time>2026-04-25T09:48:04.103Z</time></trkpt><trkpt lat="45.4909859" lon="11.0821698"><ele>265.33333333333337</ele><time>2026-04-25T09:48:06.104Z</time></trkpt><trkpt lat="45.4909424" lon="11.0820641"><ele>266.5</ele><time>2026-04-25T09:48:08.105Z</time></trkpt><trkpt lat="45.4909152" lon="11.0819792"><ele>267.6666666666667</ele><time>2026-04-25T09:48:10.103Z</time></trkpt><trkpt lat="45.4908806" lon="11.0818862"><ele>268.8333333333333</ele><time>2026-04-25T09:48:12.103Z</time></trkpt><trkpt lat="45.4908292" lon="11.0817717"><ele>270.0</ele><time>2026-04-25T09:48:14.103Z</time></trkpt><trkpt lat="45.4907497" lon="11.0816489"><ele>270.85714285714283</ele><time>2026-04-25T09:48:16.104Z</time></trkpt><trkpt lat="45.4907073" lon="11.0815816"><ele>271.71428571428567</ele><time>2026-04-25T09:48:17.103Z</time></trkpt><trkpt lat="45.4906612" lon="11.0815146"><ele>272.57142857142856</ele><time>2026-04-25T09:48:18.104Z</time></trkpt><trkpt lat="45.4906139" lon="11.0814514"><ele>273.42857142857144</ele><time>2026-04-25T09:48:19.105Z</time></trkpt><trkpt lat="45.4905638" lon="11.0813875"><ele>274.28571428571433</ele><time>2026-04-25T09:48:20.104Z</time></trkpt><trkpt lat="45.4905144" lon="11.0813192"><ele>275.14285714285717</ele><time>2026-04-25T09:48:21.103Z</time></trkpt><trkpt lat="45.4904618" lon="11.0812442"><ele>276.0</ele><time>2026-04-25T09:48:22.103Z</time></trkpt><trkpt lat="45.4904093" lon="11.0811706"><ele>272.5</ele><time>2026-04-25T09:48:23.103Z</time></trkpt><trkpt lat="45.4903594" lon="11.081108"><ele>269.0</ele><time>2026-04-25T09:48:24.105Z</time></trkpt><trkpt lat="45.490312" lon="11.0810457"><ele>265.5</ele><time>2026-04-25T09:48:25.103Z</time></trkpt><trkpt lat="45.4902718" lon="11.0809744"><ele>262.0</ele><time>2026-04-25T09:48:26.103Z</time></trkpt><trkpt lat="45.4902139" lon="11.0808244"><ele>258.5</ele><time>2026-04-25T09:48:28.104Z</time></trkpt><trkpt lat="45.4901824" lon="11.0806579"><ele>255.0</ele><time>2026-04-25T09:48:30.104Z</time></trkpt><trkpt lat="45.4901823" lon="11.0805522"><ele>254.16666666666666</ele><time>2026-04-25T09:48:31.104Z</time></trkpt><trkpt lat="45.4901889" lon="11.080436"><ele>253.33333333333331</ele><time>2026-04-25T09:48:32.103Z</time></trkpt><trkpt lat="45.4902041" lon="11.0803187"><ele>252.5</ele><time>2026-04-25T09:48:33.103Z</time></trkpt><trkpt lat="45.4902149" lon="11.0801971"><ele>251.66666666666666</ele><time>2026-04-25T09:48:34.103Z</time></trkpt><trkpt lat="45.4902275" lon="11.0800734"><ele>250.83333333333331</ele><time>2026-04-25T09:48:35.104Z</time></trkpt><trkpt lat="45.4902387" lon="11.07995"><ele>250.0</ele><time>2026-04-25T09:48:36.104Z</time></trkpt><trkpt lat="45.4902526" lon="11.0798282"><ele>248.83333333333331</ele><time>2026-04-25T09:48:37.104Z</time></trkpt><trkpt lat="45.4902629" lon="11.0797215"><ele>247.66666666666666</ele><time>2026-04-25T09:48:38.103Z</time></trkpt><trkpt lat="45.4902713" lon="11.0796302"><ele>246.5</ele><time>2026-04-25T09:48:39.105Z</time></trkpt><trkpt lat="45.4902842" lon="11.0794918"><ele>245.33333333333331</ele><time>2026-04-25T09:48:41.104Z</time></trkpt><trkpt lat="45.4903028" lon="11.0793838"><ele>244.16666666666666</ele><time>2026-04-25T09:48:43.103Z</time></trkpt><trkpt lat="45.490317" lon="11.0792926"><ele>243.0</ele><time>2026-04-25T09:48:46.103Z</time></trkpt><trkpt lat="45.4903128" lon="11.0791763"><ele>244.8</ele><time>2026-04-25T09:48:49.104Z</time></trkpt><trkpt lat="45.4903081" lon="11.0790246"><ele>246.60000000000002</ele><time>2026-04-25T09:48:51.104Z</time></trkpt><trkpt lat="45.4904165" lon="11.0789025"><ele>248.39999999999998</ele><time>2026-04-25T09:48:53.104Z</time></trkpt><trkpt lat="45.4904961" lon="11.078836"><ele>250.2</ele><time>2026-04-25T09:48:54.104Z</time></trkpt><trkpt lat="45.4905775" lon="11.0787646"><ele>252.0</ele><time>2026-04-25T09:48:55.103Z</time></trkpt><trkpt lat="45.4906493" lon="11.0786937"><ele>252.0</ele><time>2026-04-25T09:48:56.103Z</time></trkpt><trkpt lat="45.4907109" lon="11.0786155"><ele>252.0</ele><time>2026-04-25T09:48:57.104Z</time></trkpt><trkpt lat="45.49075" lon="11.0785153"><ele>252.0</ele><time>2026-04-25T09:48:58.103Z</time></trkpt><trkpt lat="45.4907574" lon="11.0783981"><ele>252.0</ele><time>2026-04-25T09:48:59.104Z</time></trkpt><trkpt lat="45.4907294" lon="11.0782815"><ele>252.0</ele><time>2026-04-25T09:49:00.104Z</time></trkpt><trkpt lat="45.4906752" lon="11.0781502"><ele>252.0</ele><time>2026-04-25T09:49:01.103Z</time></trkpt><trkpt lat="45.4906121" lon="11.0780047"><ele>252.25</ele><time>2026-04-25T09:49:02.103Z</time></trkpt><trkpt lat="45.4905502" lon="11.077859"><ele>252.5</ele><time>2026-04-25T09:49:03.104Z</time></trkpt><trkpt lat="45.490484" lon="11.0777111"><ele>252.75</ele><time>2026-04-25T09:49:04.104Z</time></trkpt><trkpt lat="45.4904123" lon="11.0775552"><ele>253.0</ele><time>2026-04-25T09:49:05.103Z</time></trkpt><trkpt lat="45.4903412" lon="11.0773942"><ele>247.25</ele><time>2026-04-25T09:49:06.104Z</time></trkpt><trkpt lat="45.4902712" lon="11.0772297"><ele>241.5</ele><time>2026-04-25T09:49:07.103Z</time></trkpt><trkpt lat="45.4902001" lon="11.0770659"><ele>235.75</ele><time>2026-04-25T09:49:08.104Z</time></trkpt><trkpt lat="45.4901255" lon="11.0769013"><ele>230.0</ele><time>2026-04-25T09:49:09.103Z</time></trkpt><trkpt lat="45.490055" lon="11.0767308"><ele>229.25</ele><time>2026-04-25T09:49:10.104Z</time></trkpt><trkpt lat="45.4899977" lon="11.076545"><ele>228.5</ele><time>2026-04-25T09:49:11.104Z</time></trkpt><trkpt lat="45.4899521" lon="11.076356"><ele>227.75</ele><time>2026-04-25T09:49:12.103Z</time></trkpt><trkpt lat="45.4899073" lon="11.0761768"><ele>227.0</ele><time>2026-04-25T09:49:13.104Z</time></trkpt><trkpt lat="45.4898731" lon="11.0760286"><ele>227.00000000000003</ele><time>2026-04-25T09:49:14.104Z</time></trkpt><trkpt lat="45.4898482" lon="11.0759003"><ele>227.0</ele><time>2026-04-25T09:49:15.105Z</time></trkpt><trkpt lat="45.4898367" lon="11.0757789"><ele>227.0</ele><time>2026-04-25T09:49:16.104Z</time></trkpt><trkpt lat="45.4898447" lon="11.0756667"><ele>227.0</ele><time>2026-04-25T09:49:17.103Z</time></trkpt><trkpt lat="45.4898837" lon="11.0755679"><ele>227.00000000000003</ele><time>2026-04-25T09:49:18.104Z</time></trkpt><trkpt lat="45.4899478" lon="11.0755108"><ele>227.0</ele><time>2026-04-25T09:49:19.103Z</time></trkpt><trkpt lat="45.4900339" lon="11.0754814"><ele>224.25</ele><time>2026-04-25T09:49:20.103Z</time></trkpt><trkpt lat="45.4901388" lon="11.0754688"><ele>221.5</ele><time>2026-04-25T09:49:21.103Z</time></trkpt><trkpt lat="45.4902584" lon="11.0754538"><ele>218.75</ele><time>2026-04-25T09:49:22.103Z</time></trkpt><trkpt lat="45.490374" lon="11.0754362"><ele>216.0</ele><time>2026-04-25T09:49:23.103Z</time></trkpt><trkpt lat="45.4904827" lon="11.0754205"><ele>216.0</ele><time>2026-04-25T09:49:24.103Z</time></trkpt><trkpt lat="45.4905835" lon="11.0754103"><ele>216.0</ele><time>2026-04-25T09:49:25.104Z</time></trkpt><trkpt lat="45.4906726" lon="11.0753971"><ele>216.0</ele><time>2026-04-25T09:49:26.104Z</time></trkpt><trkpt lat="45.4907493" lon="11.0753751"><ele>216.0</ele><time>2026-04-25T09:49:27.103Z</time></trkpt><trkpt lat="45.4908059" lon="11.0753287"><ele>216.0</ele><time>2026-04-25T09:49:28.103Z</time></trkpt><trkpt lat="45.4908259" lon="11.0751739"><ele>216.0</ele><time>2026-04-25T09:49:30.103Z</time></trkpt><trkpt lat="45.4907247" lon="11.075084"><ele>216.0</ele><time>2026-04-25T09:49:32.103Z</time></trkpt><trkpt lat="45.4906463" lon="11.0750961"><ele>216.00000000000003</ele><time>2026-04-25T09:49:33.104Z</time></trkpt><trkpt lat="45.4905586" lon="11.0751286"><ele>216.00000000000003</ele><time>2026-04-25T09:49:34.103Z</time></trkpt><trkpt lat="45.4904589" lon="11.0751621"><ele>216.0</ele><time>2026-04-25T09:49:35.104Z</time></trkpt><trkpt lat="45.490363" lon="11.0751818"><ele>216.0</ele><time>2026-04-25T09:49:36.104Z</time></trkpt><trkpt lat="45.4902577" lon="11.0751691"><ele>215.5</ele><time>2026-04-25T09:49:37.103Z</time></trkpt><trkpt lat="45.490148" lon="11.0751249"><ele>215.0</ele><time>2026-04-25T09:49:38.104Z</time></trkpt><trkpt lat="45.4900271" lon="11.0750438"><ele>214.5</ele><time>2026-04-25T09:49:39.103Z</time></trkpt><trkpt lat="45.4898983" lon="11.0749404"><ele>214.0</ele><time>2026-04-25T09:49:40.103Z</time></trkpt><trkpt lat="45.4897589" lon="11.0748352"><ele>208.0</ele><time>2026-04-25T09:49:41.104Z</time></trkpt><trkpt lat="45.4896091" lon="11.074725"><ele>202.0</ele><time>2026-04-25T09:49:42.104Z</time></trkpt><trkpt lat="45.4894559" lon="11.0746094"><ele>196.0</ele><time>2026-04-25T09:49:43.103Z</time></trkpt><trkpt lat="45.4893033" lon="11.0744891"><ele>195.0</ele><time>2026-04-25T09:49:44.103Z</time></trkpt><trkpt lat="45.4891528" lon="11.074375"><ele>194.0</ele><time>2026-04-25T09:49:45.103Z</time></trkpt><trkpt lat="45.4890033" lon="11.0742646"><ele>193.0</ele><time>2026-04-25T09:49:46.103Z</time></trkpt><trkpt lat="45.488857" lon="11.0741564"><ele>190.66666666666666</ele><time>2026-04-25T09:49:47.103Z</time></trkpt><trkpt lat="45.4887215" lon="11.0740545"><ele>188.33333333333331</ele><time>2026-04-25T09:49:48.103Z</time></trkpt><trkpt lat="45.4885879" lon="11.0739456"><ele>186.0</ele><time>2026-04-25T09:49:49.103Z</time></trkpt><trkpt lat="45.4884659" lon="11.0738141"><ele>186.0</ele><time>2026-04-25T09:49:50.104Z</time></trkpt><trkpt lat="45.4883512" lon="11.0736633"><ele>186.0</ele><time>2026-04-25T09:49:51.105Z</time></trkpt><trkpt lat="45.4882438" lon="11.0735053"><ele>186.0</ele><time>2026-04-25T09:49:52.103Z</time></trkpt><trkpt lat="45.4881368" lon="11.0733437"><ele>183.0</ele><time>2026-04-25T09:49:53.103Z</time></trkpt><trkpt lat="45.4880324" lon="11.0731841"><ele>180.0</ele><time>2026-04-25T09:49:54.104Z</time></trkpt><trkpt lat="45.4879306" lon="11.0730243"><ele>177.0</ele><time>2026-04-25T09:49:55.104Z</time></trkpt><trkpt lat="45.4878256" lon="11.0728642"><ele>177.0</ele><time>2026-04-25T09:49:56.104Z</time></trkpt><trkpt lat="45.4877104" lon="11.0727211"><ele>177.0</ele><time>2026-04-25T09:49:57.103Z</time></trkpt><trkpt lat="45.4875802" lon="11.0725952"><ele>177.0</ele><time>2026-04-25T09:49:58.103Z</time></trkpt><trkpt lat="45.4874447" lon="11.0724798"><ele>173.66666666666666</ele><time>2026-04-25T09:49:59.104Z</time></trkpt><trkpt lat="45.4873033" lon="11.0723664"><ele>170.33333333333331</ele><time>2026-04-25T09:50:00.103Z</time></trkpt><trkpt lat="45.4871639" lon="11.0722579"><ele>167.0</ele><time>2026-04-25T09:50:01.103Z</time></trkpt><trkpt lat="45.4870257" lon="11.0721479"><ele>167.0</ele><time>2026-04-25T09:50:02.103Z</time></trkpt><trkpt lat="45.486894" lon="11.0720233"><ele>167.0</ele><time>2026-04-25T09:50:03.104Z</time></trkpt><trkpt lat="45.4867655" lon="11.071887"><ele>167.0</ele><time>2026-04-25T09:50:04.103Z</time></trkpt><trkpt lat="45.486641" lon="11.0717416"><ele>162.33333333333331</ele><time>2026-04-25T09:50:05.103Z</time></trkpt><trkpt lat="45.486515" lon="11.0715928"><ele>157.66666666666666</ele><time>2026-04-25T09:50:06.104Z</time></trkpt><trkpt lat="45.4863897" lon="11.0714485"><ele>153.0</ele><time>2026-04-25T09:50:07.103Z</time></trkpt><trkpt lat="45.4862655" lon="11.0713089"><ele>155.33333333333334</ele><time>2026-04-25T09:50:08.105Z</time></trkpt><trkpt lat="45.4861433" lon="11.0711714"><ele>157.66666666666669</ele><time>2026-04-25T09:50:09.104Z</time></trkpt><trkpt lat="45.4860248" lon="11.0710331"><ele>160.0</ele><time>2026-04-25T09:50:10.103Z</time></trkpt><trkpt lat="45.4859054" lon="11.0708937"><ele>158.0</ele><time>2026-04-25T09:50:11.103Z</time></trkpt><trkpt lat="45.4857839" lon="11.070751"><ele>156.0</ele><time>2026-04-25T09:50:12.103Z</time></trkpt><trkpt lat="45.4856623" lon="11.0706059"><ele>154.0</ele><time>2026-04-25T09:50:13.103Z</time></trkpt><trkpt lat="45.4855428" lon="11.07046"><ele>154.0</ele><time>2026-04-25T09:50:14.105Z</time></trkpt><trkpt lat="45.4854208" lon="11.0703124"><ele>154.0</ele><time>2026-04-25T09:50:15.104Z</time></trkpt><trkpt lat="45.4852972" lon="11.0701613"><ele>154.0</ele><time>2026-04-25T09:50:16.103Z</time></trkpt><trkpt lat="45.4851709" lon="11.0700147"><ele>155.0</ele><time>2026-04-25T09:50:17.104Z</time></trkpt><trkpt lat="45.485045" lon="11.0698744"><ele>156.0</ele><time>2026-04-25T09:50:18.103Z</time></trkpt><trkpt lat="45.4849179" lon="11.0697405"><ele>157.0</ele><time>2026-04-25T09:50:19.104Z</time></trkpt><trkpt lat="45.4847856" lon="11.0696155"><ele>157.0</ele><time>2026-04-25T09:50:20.104Z</time></trkpt><trkpt lat="45.4846394" lon="11.0695051"><ele>157.0</ele><time>2026-04-25T09:50:21.103Z</time></trkpt><trkpt lat="45.4844915" lon="11.0693946"><ele>157.0</ele><time>2026-04-25T09:50:22.103Z</time></trkpt><trkpt lat="45.4843444" lon="11.0692909"><ele>156.66666666666669</ele><time>2026-04-25T09:50:23.104Z</time></trkpt><trkpt lat="45.4841979" lon="11.0691893"><ele>156.33333333333334</ele><time>2026-04-25T09:50:24.103Z</time></trkpt><trkpt lat="45.4840579" lon="11.0690825"><ele>156.0</ele><time>2026-04-25T09:50:25.105Z</time></trkpt><trkpt lat="45.4839237" lon="11.0689619"><ele>156.0</ele><time>2026-04-25T09:50:26.104Z</time></trkpt><trkpt lat="45.4837953" lon="11.0688358"><ele>156.0</ele><time>2026-04-25T09:50:27.103Z</time></trkpt><trkpt lat="45.4836664" lon="11.068711"><ele>156.0</ele><time>2026-04-25T09:50:28.103Z</time></trkpt><trkpt lat="45.483542" lon="11.0685922"><ele>153.0</ele><time>2026-04-25T09:50:29.103Z</time></trkpt><trkpt lat="45.4834195" lon="11.0684798"><ele>150.0</ele><time>2026-04-25T09:50:30.103Z</time></trkpt><trkpt lat="45.4833032" lon="11.0683591"><ele>147.0</ele><time>2026-04-25T09:50:31.103Z</time></trkpt><trkpt lat="45.4831977" lon="11.0682078"><ele>144.0</ele><time>2026-04-25T09:50:32.104Z</time></trkpt><trkpt lat="45.4831081" lon="11.0680389"><ele>144.0</ele><time>2026-04-25T09:50:33.104Z</time></trkpt><trkpt lat="45.4830304" lon="11.0678608"><ele>144.0</ele><time>2026-04-25T09:50:34.104Z</time></trkpt><trkpt lat="45.4829597" lon="11.0676828"><ele>144.0</ele><time>2026-04-25T09:50:35.103Z</time></trkpt><trkpt lat="45.4828963" lon="11.0675272"><ele>144.0</ele><time>2026-04-25T09:50:36.105Z</time></trkpt><trkpt lat="45.4828425" lon="11.0674029"><ele>140.83333333333334</ele><time>2026-04-25T09:50:37.104Z</time></trkpt><trkpt lat="45.4827912" lon="11.0673199"><ele>137.66666666666666</ele><time>2026-04-25T09:50:38.103Z</time></trkpt><trkpt lat="45.4827304" lon="11.0672792"><ele>134.5</ele><time>2026-04-25T09:50:39.104Z</time></trkpt><trkpt lat="45.4826314" lon="11.067366"><ele>131.33333333333331</ele><time>2026-04-25T09:50:41.103Z</time></trkpt><trkpt lat="45.4826257" lon="11.0674681"><ele>128.16666666666666</ele><time>2026-04-25T09:50:42.104Z</time></trkpt><trkpt lat="45.4826412" lon="11.0675885"><ele>125.0</ele><time>2026-04-25T09:50:43.104Z</time></trkpt><trkpt lat="45.4826731" lon="11.0677286"><ele>125.0</ele><time>2026-04-25T09:50:44.103Z</time></trkpt><trkpt lat="45.4827173" lon="11.067889"><ele>125.0</ele><time>2026-04-25T09:50:45.103Z</time></trkpt><trkpt lat="45.4827723" lon="11.0680663"><ele>125.0</ele><time>2026-04-25T09:50:46.103Z</time></trkpt><trkpt lat="45.4828351" lon="11.0682508"><ele>125.0</ele><time>2026-04-25T09:50:47.105Z</time></trkpt><trkpt lat="45.482898" lon="11.0684324"><ele>129.25</ele><time>2026-04-25T09:50:48.103Z</time></trkpt><trkpt lat="45.4829627" lon="11.0686084"><ele>133.5</ele><time>2026-04-25T09:50:49.104Z</time></trkpt><trkpt lat="45.4830269" lon="11.0687765"><ele>137.75</ele><time>2026-04-25T09:50:50.103Z</time></trkpt><trkpt lat="45.4830828" lon="11.0689438"><ele>142.0</ele><time>2026-04-25T09:50:51.103Z</time></trkpt><trkpt lat="45.4831319" lon="11.0691043"><ele>139.79999999999998</ele><time>2026-04-25T09:50:52.104Z</time></trkpt><trkpt lat="45.483182" lon="11.0692472"><ele>137.6</ele><time>2026-04-25T09:50:53.105Z</time></trkpt><trkpt lat="45.4832482" lon="11.0693614"><ele>135.39999999999998</ele><time>2026-04-25T09:50:54.103Z</time></trkpt><trkpt lat="45.4833225" lon="11.0694473"><ele>133.2</ele><time>2026-04-25T09:50:55.104Z</time></trkpt><trkpt lat="45.4833917" lon="11.06952"><ele>131.0</ele><time>2026-04-25T09:50:56.103Z</time></trkpt><trkpt lat="45.4834431" lon="11.0695926"><ele>131.0</ele><time>2026-04-25T09:50:57.104Z</time></trkpt><trkpt lat="45.4834479" lon="11.0697353"><ele>131.0</ele><time>2026-04-25T09:50:59.103Z</time></trkpt><trkpt lat="45.4833367" lon="11.0697391"><ele>131.0</ele><time>2026-04-25T09:51:01.103Z</time></trkpt><trkpt lat="45.4832675" lon="11.0696645"><ele>131.0</ele><time>2026-04-25T09:51:02.103Z</time></trkpt><trkpt lat="45.4831733" lon="11.069564"><ele>131.0</ele><time>2026-04-25T09:51:03.104Z</time></trkpt><trkpt lat="45.4830696" lon="11.0694683"><ele>131.0</ele><time>2026-04-25T09:51:04.103Z</time></trkpt><trkpt lat="45.4829612" lon="11.0693553"><ele>131.0</ele><time>2026-04-25T09:51:05.103Z</time></trkpt><trkpt lat="45.4828572" lon="11.0692379"><ele>131.0</ele><time>2026-04-25T09:51:06.104Z</time></trkpt><trkpt lat="45.4827508" lon="11.0691204"><ele>131.0</ele><time>2026-04-25T09:51:07.103Z</time></trkpt><trkpt lat="45.4826432" lon="11.0689947"><ele>128.25</ele><time>2026-04-25T09:51:08.104Z</time></trkpt><trkpt lat="45.4825428" lon="11.068863"><ele>125.5</ele><time>2026-04-25T09:51:09.103Z</time></trkpt><trkpt lat="45.4824472" lon="11.0687382"><ele>122.75</ele><time>2026-04-25T09:51:10.103Z</time></trkpt><trkpt lat="45.4823516" lon="11.0686182"><ele>120.0</ele><time>2026-04-25T09:51:11.104Z</time></trkpt><trkpt lat="45.4822591" lon="11.0685016"><ele>120.0</ele><time>2026-04-25T09:51:12.104Z</time></trkpt><trkpt lat="45.482172" lon="11.068383"><ele>120.0</ele><time>2026-04-25T09:51:13.103Z</time></trkpt><trkpt lat="45.4820883" lon="11.0682644"><ele>120.0</ele><time>2026-04-25T09:51:14.103Z</time></trkpt><trkpt lat="45.4820086" lon="11.0681466"><ele>120.0</ele><time>2026-04-25T09:51:15.104Z</time></trkpt><trkpt lat="45.4819348" lon="11.0680424"><ele>117.0</ele><time>2026-04-25T09:51:16.104Z</time></trkpt><trkpt lat="45.4818668" lon="11.0679519"><ele>114.0</ele><time>2026-04-25T09:51:17.103Z</time></trkpt><trkpt lat="45.4818113" lon="11.0678553"><ele>111.0</ele><time>2026-04-25T09:51:18.103Z</time></trkpt><trkpt lat="45.481771" lon="11.0677403"><ele>108.0</ele><time>2026-04-25T09:51:19.103Z</time></trkpt><trkpt lat="45.4817461" lon="11.067615"><ele>105.0</ele><time>2026-04-25T09:51:20.103Z</time></trkpt><trkpt lat="45.4817344" lon="11.0674801"><ele>104.2</ele><time>2026-04-25T09:51:21.103Z</time></trkpt><trkpt lat="45.4817299" lon="11.0673447"><ele>103.4</ele><time>2026-04-25T09:51:22.104Z</time></trkpt><trkpt lat="45.481733" lon="11.0672144"><ele>102.6</ele><time>2026-04-25T09:51:23.103Z</time></trkpt><trkpt lat="45.4817388" lon="11.0670883"><ele>101.8</ele><time>2026-04-25T09:51:24.104Z</time></trkpt><trkpt lat="45.4817517" lon="11.0669581"><ele>101.0</ele><time>2026-04-25T09:51:25.104Z</time></trkpt><trkpt lat="45.4817643" lon="11.0668256"><ele>101.0</ele><time>2026-04-25T09:51:26.104Z</time></trkpt><trkpt lat="45.4817764" lon="11.0666936"><ele>101.0</ele><time>2026-04-25T09:51:27.104Z</time></trkpt><trkpt lat="45.4817889" lon="11.0665619"><ele>101.0</ele><time>2026-04-25T09:51:28.103Z</time></trkpt><trkpt lat="45.4818006" lon="11.0664324"><ele>101.0</ele><time>2026-04-25T09:51:29.104Z</time></trkpt><trkpt lat="45.4818242" lon="11.0663075"><ele>101.0</ele><time>2026-04-25T09:51:30.104Z</time></trkpt><trkpt lat="45.4818657" lon="11.0661969"><ele>100.33333333333333</ele><time>2026-04-25T09:51:31.104Z</time></trkpt><trkpt lat="45.4819195" lon="11.0660982"><ele>99.66666666666666</ele><time>2026-04-25T09:51:32.104Z</time></trkpt><trkpt lat="45.4819776" lon="11.0660024"><ele>99.0</ele><time>2026-04-25T09:51:33.105Z</time></trkpt><trkpt lat="45.4820352" lon="11.0659062"><ele>98.33333333333334</ele><time>2026-04-25T09:51:34.103Z</time></trkpt><trkpt lat="45.4820854" lon="11.0658008"><ele>97.66666666666667</ele><time>2026-04-25T09:51:35.103Z</time></trkpt><trkpt lat="45.4821257" lon="11.0656819"><ele>97.0</ele><time>2026-04-25T09:51:36.103Z</time></trkpt><trkpt lat="45.4821497" lon="11.0655531"><ele>97.0</ele><time>2026-04-25T09:51:37.105Z</time></trkpt><trkpt lat="45.4821588" lon="11.065412"><ele>97.0</ele><time>2026-04-25T09:51:38.105Z</time></trkpt><trkpt lat="45.4821594" lon="11.065265"><ele>97.0</ele><time>2026-04-25T09:51:39.103Z</time></trkpt><trkpt lat="45.4821554" lon="11.0651271"><ele>97.0</ele><time>2026-04-25T09:51:40.104Z</time></trkpt><trkpt lat="45.4821535" lon="11.0649969"><ele>97.0</ele><time>2026-04-25T09:51:41.104Z</time></trkpt><trkpt lat="45.4821508" lon="11.0648691"><ele>97.00000000000001</ele><time>2026-04-25T09:51:42.104Z</time></trkpt><trkpt lat="45.4821487" lon="11.0647434"><ele>97.0</ele><time>2026-04-25T09:51:43.104Z</time></trkpt><trkpt lat="45.4821486" lon="11.0646152"><ele>97.0</ele><time>2026-04-25T09:51:44.104Z</time></trkpt><trkpt lat="45.4821482" lon="11.0644863"><ele>97.0</ele><time>2026-04-25T09:51:45.104Z</time></trkpt><trkpt lat="45.48215" lon="11.0643567"><ele>97.00000000000001</ele><time>2026-04-25T09:51:46.104Z</time></trkpt><trkpt lat="45.4821534" lon="11.0642328"><ele>97.0</ele><time>2026-04-25T09:51:47.104Z</time></trkpt><trkpt lat="45.4821576" lon="11.064118"><ele>96.50000000000001</ele><time>2026-04-25T09:51:48.103Z</time></trkpt><trkpt lat="45.4821639" lon="11.0640102"><ele>96.0</ele><time>2026-04-25T09:51:49.103Z</time></trkpt><trkpt lat="45.4821655" lon="11.0639036"><ele>95.5</ele><time>2026-04-25T09:51:50.103Z</time></trkpt><trkpt lat="45.4821681" lon="11.0637987"><ele>95.0</ele><time>2026-04-25T09:51:51.103Z</time></trkpt><trkpt lat="45.4821834" lon="11.0637067"><ele>94.5</ele><time>2026-04-25T09:51:52.104Z</time></trkpt><trkpt lat="45.4822284" lon="11.0635478"><ele>94.0</ele><time>2026-04-25T09:51:54.103Z</time></trkpt><trkpt lat="45.4822422" lon="11.0634414"><ele>94.0</ele><time>2026-04-25T09:51:55.104Z</time></trkpt><trkpt lat="45.4822497" lon="11.0633225"><ele>94.0</ele><time>2026-04-25T09:51:56.103Z</time></trkpt><trkpt lat="45.4822542" lon="11.0631898"><ele>94.0</ele><time>2026-04-25T09:51:57.103Z</time></trkpt><trkpt lat="45.4822592" lon="11.0630484"><ele>94.0</ele><time>2026-04-25T09:51:58.103Z</time></trkpt><trkpt lat="45.4822645" lon="11.0629053"><ele>94.0</ele><time>2026-04-25T09:51:59.103Z</time></trkpt><trkpt lat="45.4822676" lon="11.0627603"><ele>94.0</ele><time>2026-04-25T09:52:00.103Z</time></trkpt><trkpt lat="45.4822714" lon="11.0626205"><ele>94.0</ele><time>2026-04-25T09:52:01.105Z</time></trkpt><trkpt lat="45.4822755" lon="11.0624849"><ele>94.0</ele><time>2026-04-25T09:52:02.103Z</time></trkpt><trkpt lat="45.4822785" lon="11.0623508"><ele>94.0</ele><time>2026-04-25T09:52:03.103Z</time></trkpt><trkpt lat="45.4822772" lon="11.0622177"><ele>94.0</ele><time>2026-04-25T09:52:04.104Z</time></trkpt><trkpt lat="45.4822697" lon="11.0620816"><ele>93.80000000000001</ele><time>2026-04-25T09:52:05.105Z</time></trkpt><trkpt lat="45.4822539" lon="11.0619399"><ele>93.60000000000001</ele><time>2026-04-25T09:52:06.104Z</time></trkpt><trkpt lat="45.4822323" lon="11.0617976"><ele>93.4</ele><time>2026-04-25T09:52:07.104Z</time></trkpt><trkpt lat="45.4822059" lon="11.0616514"><ele>93.2</ele><time>2026-04-25T09:52:08.104Z</time></trkpt><trkpt lat="45.4821801" lon="11.0615085"><ele>93.0</ele><time>2026-04-25T09:52:09.104Z</time></trkpt><trkpt lat="45.4821551" lon="11.0613676"><ele>92.83333333333333</ele><time>2026-04-25T09:52:10.103Z</time></trkpt><trkpt lat="45.4821303" lon="11.061236"><ele>92.66666666666667</ele><time>2026-04-25T09:52:11.103Z</time></trkpt><trkpt lat="45.4821072" lon="11.0611163"><ele>92.5</ele><time>2026-04-25T09:52:12.104Z</time></trkpt><trkpt lat="45.4820857" lon="11.0610106"><ele>92.33333333333334</ele><time>2026-04-25T09:52:13.104Z</time></trkpt><trkpt lat="45.4820655" lon="11.0609146"><ele>92.16666666666667</ele><time>2026-04-25T09:52:14.104Z</time></trkpt><trkpt lat="45.4820464" lon="11.0607489"><ele>92.0</ele><time>2026-04-25T09:52:16.104Z</time></trkpt><trkpt lat="45.4820642" lon="11.0605751"><ele>92.0</ele><time>2026-04-25T09:52:18.104Z</time></trkpt><trkpt lat="45.4820844" lon="11.0604893"><ele>92.0</ele><time>2026-04-25T09:52:19.104Z</time></trkpt><trkpt lat="45.482111" lon="11.0604053"><ele>92.0</ele><time>2026-04-25T09:52:20.103Z</time></trkpt><trkpt lat="45.4821422" lon="11.0603194"><ele>92.0</ele><time>2026-04-25T09:52:21.103Z</time></trkpt><trkpt lat="45.4821772" lon="11.0602405"><ele>92.0</ele><time>2026-04-25T09:52:22.104Z</time></trkpt><trkpt lat="45.4822238" lon="11.0601674"><ele>92.0</ele><time>2026-04-25T09:52:23.103Z</time></trkpt><trkpt lat="45.4822878" lon="11.0601173"><ele>92.0</ele><time>2026-04-25T09:52:24.104Z</time></trkpt><trkpt lat="45.4823678" lon="11.0600914"><ele>92.83333333333334</ele><time>2026-04-25T09:52:25.103Z</time></trkpt><trkpt lat="45.4824583" lon="11.0600877"><ele>93.66666666666667</ele><time>2026-04-25T09:52:26.104Z</time></trkpt><trkpt lat="45.4825492" lon="11.0600869"><ele>94.5</ele><time>2026-04-25T09:52:27.104Z</time></trkpt><trkpt lat="45.4826353" lon="11.0600864"><ele>95.33333333333334</ele><time>2026-04-25T09:52:28.103Z</time></trkpt><trkpt lat="45.4827155" lon="11.0600834"><ele>96.16666666666667</ele><time>2026-04-25T09:52:29.103Z</time></trkpt><trkpt lat="45.4827895" lon="11.0600765"><ele>97.0</ele><time>2026-04-25T09:52:30.103Z</time></trkpt><trkpt lat="45.4828585" lon="11.0600605"><ele>97.0</ele><time>2026-04-25T09:52:31.104Z</time></trkpt><trkpt lat="45.4829195" lon="11.0600378"><ele>97.0</ele><time>2026-04-25T09:52:32.103Z</time></trkpt><trkpt lat="45.4830456" lon="11.0599713"><ele>97.0</ele><time>2026-04-25T09:52:34.104Z</time></trkpt><trkpt lat="45.4831234" lon="11.059936"><ele>97.0</ele><time>2026-04-25T09:52:35.104Z</time></trkpt><trkpt lat="45.4832089" lon="11.0599028"><ele>97.0</ele><time>2026-04-25T09:52:36.103Z</time></trkpt><trkpt lat="45.483306" lon="11.0598561"><ele>100.0</ele><time>2026-04-25T09:52:37.104Z</time></trkpt><trkpt lat="45.4834043" lon="11.0598026"><ele>103.0</ele><time>2026-04-25T09:52:38.104Z</time></trkpt><trkpt lat="45.4835047" lon="11.0597491"><ele>105.99999999999999</ele><time>2026-04-25T09:52:39.103Z</time></trkpt><trkpt lat="45.4836066" lon="11.0596964"><ele>109.0</ele><time>2026-04-25T09:52:40.105Z</time></trkpt><trkpt lat="45.4837071" lon="11.0596468"><ele>112.0</ele><time>2026-04-25T09:52:41.104Z</time></trkpt><trkpt lat="45.483809" lon="11.0596053"><ele>112.0</ele><time>2026-04-25T09:52:42.103Z</time></trkpt><trkpt lat="45.4839129" lon="11.0595762"><ele>111.99999999999999</ele><time>2026-04-25T09:52:43.104Z</time></trkpt><trkpt lat="45.484021" lon="11.0595581"><ele>111.99999999999999</ele><time>2026-04-25T09:52:44.103Z</time></trkpt><trkpt lat="45.4841298" lon="11.059545"><ele>112.0</ele><time>2026-04-25T09:52:45.103Z</time></trkpt><trkpt lat="45.4842392" lon="11.0595295"><ele>112.0</ele><time>2026-04-25T09:52:46.103Z</time></trkpt><trkpt lat="45.4843483" lon="11.0595143"><ele>112.0</ele><time>2026-04-25T09:52:47.103Z</time></trkpt><trkpt lat="45.4844588" lon="11.0594979"><ele>111.99999999999999</ele><time>2026-04-25T09:52:48.103Z</time></trkpt><trkpt lat="45.4845668" lon="11.059479"><ele>111.99999999999999</ele><time>2026-04-25T09:52:49.104Z</time></trkpt><trkpt lat="45.4846727" lon="11.0594574"><ele>112.0</ele><time>2026-04-25T09:52:50.103Z</time></trkpt><trkpt lat="45.4847785" lon="11.0594333"><ele>112.0</ele><time>2026-04-25T09:52:51.105Z</time></trkpt><trkpt lat="45.4848817" lon="11.0594075"><ele>112.39999999999999</ele><time>2026-04-25T09:52:52.103Z</time></trkpt><trkpt lat="45.4849806" lon="11.0593909"><ele>112.79999999999998</ele><time>2026-04-25T09:52:53.104Z</time></trkpt><trkpt lat="45.4850711" lon="11.0593969"><ele>113.2</ele><time>2026-04-25T09:52:54.103Z</time></trkpt><trkpt lat="45.4851603" lon="11.0594412"><ele>113.6</ele><time>2026-04-25T09:52:55.103Z</time></trkpt><trkpt lat="45.4852454" lon="11.0595188"><ele>114.0</ele><time>2026-04-25T09:52:56.104Z</time></trkpt><trkpt lat="45.4853251" lon="11.0596183"><ele>114.0</ele><time>2026-04-25T09:52:57.103Z</time></trkpt><trkpt lat="45.4854067" lon="11.0597161"><ele>114.0</ele><time>2026-04-25T09:52:58.103Z</time></trkpt><trkpt lat="45.4854864" lon="11.0598113"><ele>114.0</ele><time>2026-04-25T09:52:59.104Z</time></trkpt><trkpt lat="45.4855636" lon="11.0599044"><ele>114.0</ele><time>2026-04-25T09:53:00.103Z</time></trkpt><trkpt lat="45.4856365" lon="11.0599922"><ele>114.0</ele><time>2026-04-25T09:53:01.103Z</time></trkpt><trkpt lat="45.4857082" lon="11.0600761"><ele>112.16666666666667</ele><time>2026-04-25T09:53:02.104Z</time></trkpt><trkpt lat="45.485775" lon="11.0601559"><ele>110.33333333333334</ele><time>2026-04-25T09:53:03.103Z</time></trkpt><trkpt lat="45.4858379" lon="11.0602314"><ele>108.5</ele><time>2026-04-25T09:53:04.104Z</time></trkpt><trkpt lat="45.4858941" lon="11.0603058"><ele>106.66666666666667</ele><time>2026-04-25T09:53:05.103Z</time></trkpt><trkpt lat="45.4859366" lon="11.060383"><ele>104.83333333333334</ele><time>2026-04-25T09:53:06.104Z</time></trkpt><trkpt lat="45.4859632" lon="11.0604776"><ele>103.0</ele><time>2026-04-25T09:53:07.104Z</time></trkpt><trkpt lat="45.485967" lon="11.0605899"><ele>103.00000000000001</ele><time>2026-04-25T09:53:08.103Z</time></trkpt><trkpt lat="45.4859541" lon="11.0607127"><ele>103.0</ele><time>2026-04-25T09:53:09.104Z</time></trkpt><trkpt lat="45.4859382" lon="11.0608441"><ele>103.0</ele><time>2026-04-25T09:53:10.104Z</time></trkpt><trkpt lat="45.4859293" lon="11.060966"><ele>103.0</ele><time>2026-04-25T09:53:11.104Z</time></trkpt><trkpt lat="45.4859254" lon="11.0610798"><ele>103.00000000000001</ele><time>2026-04-25T09:53:12.104Z</time></trkpt><trkpt lat="45.4859275" lon="11.061186"><ele>103.0</ele><time>2026-04-25T09:53:13.103Z</time></trkpt><trkpt lat="45.4859432" lon="11.061283"><ele>103.00000000000001</ele><time>2026-04-25T09:53:14.104Z</time></trkpt><trkpt lat="45.485998" lon="11.0614166"><ele>103.0</ele><time>2026-04-25T09:53:16.103Z</time></trkpt><trkpt lat="45.4860569" lon="11.0614538"><ele>103.0</ele><time>2026-04-25T09:53:17.104Z</time></trkpt><trkpt lat="45.4861272" lon="11.0614594"><ele>103.0</ele><time>2026-04-25T09:53:18.104Z</time></trkpt><trkpt lat="45.4862065" lon="11.0614469"><ele>103.00000000000001</ele><time>2026-04-25T09:53:19.104Z</time></trkpt><trkpt lat="45.4862904" lon="11.0614417"><ele>103.0</ele><time>2026-04-25T09:53:20.104Z</time></trkpt><trkpt lat="45.4863754" lon="11.061455"><ele>103.0</ele><time>2026-04-25T09:53:21.104Z</time></trkpt><trkpt lat="45.486465" lon="11.0614869"><ele>103.0</ele><time>2026-04-25T09:53:22.105Z</time></trkpt><trkpt lat="45.486561" lon="11.0615334"><ele>103.0</ele><time>2026-04-25T09:53:23.103Z</time></trkpt><trkpt lat="45.4866581" lon="11.0615926"><ele>103.0</ele><time>2026-04-25T09:53:24.103Z</time></trkpt><trkpt lat="45.4867553" lon="11.0616533"><ele>103.0</ele><time>2026-04-25T09:53:25.103Z</time></trkpt><trkpt lat="45.4868536" lon="11.061714"><ele>103.4</ele><time>2026-04-25T09:53:26.104Z</time></trkpt><trkpt lat="45.4869557" lon="11.0617748"><ele>103.80000000000001</ele><time>2026-04-25T09:53:27.104Z</time></trkpt><trkpt lat="45.4870551" lon="11.0618297"><ele>104.2</ele><time>2026-04-25T09:53:28.104Z</time></trkpt><trkpt lat="45.4871548" lon="11.0618741"><ele>104.6</ele><time>2026-04-25T09:53:29.103Z</time></trkpt><trkpt lat="45.4872553" lon="11.0619029"><ele>105.0</ele><time>2026-04-25T09:53:30.103Z</time></trkpt><trkpt lat="45.4873556" lon="11.0619253"><ele>105.0</ele><time>2026-04-25T09:53:31.104Z</time></trkpt><trkpt lat="45.4874529" lon="11.0619457"><ele>105.0</ele><time>2026-04-25T09:53:32.103Z</time></trkpt><trkpt lat="45.487546" lon="11.0619617"><ele>105.0</ele><time>2026-04-25T09:53:33.105Z</time></trkpt><trkpt lat="45.4876342" lon="11.0619707"><ele>105.0</ele><time>2026-04-25T09:53:34.103Z</time></trkpt><trkpt lat="45.4877164" lon="11.0619746"><ele>105.0</ele><time>2026-04-25T09:53:35.104Z</time></trkpt><trkpt lat="45.4877931" lon="11.0619785"><ele>105.0</ele><time>2026-04-25T09:53:36.104Z</time></trkpt><trkpt lat="45.4878662" lon="11.0619814"><ele>104.85714285714286</ele><time>2026-04-25T09:53:37.103Z</time></trkpt><trkpt lat="45.48794" lon="11.0619803"><ele>104.71428571428572</ele><time>2026-04-25T09:53:38.105Z</time></trkpt><trkpt lat="45.4880127" lon="11.0619779"><ele>104.57142857142857</ele><time>2026-04-25T09:53:39.103Z</time></trkpt><trkpt lat="45.4880855" lon="11.061975"><ele>104.42857142857143</ele><time>2026-04-25T09:53:40.104Z</time></trkpt><trkpt lat="45.4881523" lon="11.0619739"><ele>104.28571428571429</ele><time>2026-04-25T09:53:41.104Z</time></trkpt><trkpt lat="45.4882213" lon="11.0619683"><ele>104.14285714285714</ele><time>2026-04-25T09:53:42.103Z</time></trkpt><trkpt lat="45.4882934" lon="11.0619609"><ele>104.0</ele><time>2026-04-25T09:53:43.104Z</time></trkpt><trkpt lat="45.4883704" lon="11.0619516"><ele>103.99999999999999</ele><time>2026-04-25T09:53:44.103Z</time></trkpt><trkpt lat="45.4884465" lon="11.0619409"><ele>104.0</ele><time>2026-04-25T09:53:45.103Z</time></trkpt><trkpt lat="45.4885266" lon="11.0619336"><ele>104.0</ele><time>2026-04-25T09:53:46.103Z</time></trkpt><trkpt lat="45.4886107" lon="11.0619226"><ele>104.0</ele><time>2026-04-25T09:53:47.104Z</time></trkpt><trkpt lat="45.4886986" lon="11.0619122"><ele>103.99999999999999</ele><time>2026-04-25T09:53:48.104Z</time></trkpt><trkpt lat="45.4887808" lon="11.0619031"><ele>104.0</ele><time>2026-04-25T09:53:49.104Z</time></trkpt><trkpt lat="45.4888632" lon="11.0618939"><ele>104.49999999999999</ele><time>2026-04-25T09:53:50.104Z</time></trkpt><trkpt lat="45.4889482" lon="11.0618848"><ele>105.0</ele><time>2026-04-25T09:53:51.104Z</time></trkpt><trkpt lat="45.4890339" lon="11.0618754"><ele>105.5</ele><time>2026-04-25T09:53:52.103Z</time></trkpt><trkpt lat="45.4891202" lon="11.0618677"><ele>106.0</ele><time>2026-04-25T09:53:53.104Z</time></trkpt><trkpt lat="45.4892042" lon="11.0618632"><ele>106.49999999999999</ele><time>2026-04-25T09:53:54.104Z</time></trkpt><trkpt lat="45.4892878" lon="11.0618609"><ele>107.0</ele><time>2026-04-25T09:53:55.104Z</time></trkpt><trkpt lat="45.48937" lon="11.0618582"><ele>106.99999999999999</ele><time>2026-04-25T09:53:56.104Z</time></trkpt><trkpt lat="45.4894551" lon="11.0618546"><ele>107.0</ele><time>2026-04-25T09:53:57.103Z</time></trkpt><trkpt lat="45.4895424" lon="11.0618479"><ele>107.0</ele><time>2026-04-25T09:53:58.103Z</time></trkpt><trkpt lat="45.48963" lon="11.0618327"><ele>107.0</ele><time>2026-04-25T09:53:59.104Z</time></trkpt><trkpt lat="45.4897198" lon="11.0618128"><ele>106.99999999999999</ele><time>2026-04-25T09:54:00.103Z</time></trkpt><trkpt lat="45.4898102" lon="11.0617854"><ele>107.0</ele><time>2026-04-25T09:54:01.103Z</time></trkpt><trkpt lat="45.4899006" lon="11.0617553"><ele>107.39999999999999</ele><time>2026-04-25T09:54:02.105Z</time></trkpt><trkpt lat="45.489993" lon="11.0617229"><ele>107.79999999999998</ele><time>2026-04-25T09:54:03.103Z</time></trkpt><trkpt lat="45.4900824" lon="11.0616896"><ele>108.2</ele><time>2026-04-25T09:54:04.104Z</time></trkpt><trkpt lat="45.4901719" lon="11.0616592"><ele>108.6</ele><time>2026-04-25T09:54:05.103Z</time></trkpt><trkpt lat="45.4902633" lon="11.0616273"><ele>109.0</ele><time>2026-04-25T09:54:06.104Z</time></trkpt><trkpt lat="45.4903508" lon="11.0615957"><ele>109.50000000000001</ele><time>2026-04-25T09:54:07.103Z</time></trkpt><trkpt lat="45.4904386" lon="11.0615635"><ele>110.0</ele><time>2026-04-25T09:54:08.104Z</time></trkpt><trkpt lat="45.4905263" lon="11.0615315"><ele>110.5</ele><time>2026-04-25T09:54:09.103Z</time></trkpt><trkpt lat="45.4906114" lon="11.061499"><ele>111.0</ele><time>2026-04-25T09:54:10.103Z</time></trkpt><trkpt lat="45.4906976" lon="11.0614647"><ele>111.50000000000001</ele><time>2026-04-25T09:54:11.103Z</time></trkpt><trkpt lat="45.4907823" lon="11.0614296"><ele>112.0</ele><time>2026-04-25T09:54:12.105Z</time></trkpt><trkpt lat="45.490866" lon="11.0613898"><ele>112.00000000000001</ele><time>2026-04-25T09:54:13.103Z</time></trkpt><trkpt lat="45.4909433" lon="11.0613505"><ele>112.0</ele><time>2026-04-25T09:54:14.103Z</time></trkpt><trkpt lat="45.4910177" lon="11.0613091"><ele>112.0</ele><time>2026-04-25T09:54:15.104Z</time></trkpt><trkpt lat="45.491093" lon="11.0612613"><ele>112.0</ele><time>2026-04-25T09:54:16.103Z</time></trkpt><trkpt lat="45.4911705" lon="11.0612159"><ele>112.00000000000001</ele><time>2026-04-25T09:54:17.103Z</time></trkpt><trkpt lat="45.4912501" lon="11.0611772"><ele>112.0</ele><time>2026-04-25T09:54:18.104Z</time></trkpt><trkpt lat="45.4913264" lon="11.0611409"><ele>112.16666666666667</ele><time>2026-04-25T09:54:19.104Z</time></trkpt><trkpt lat="45.4913956" lon="11.0611121"><ele>112.33333333333334</ele><time>2026-04-25T09:54:20.104Z</time></trkpt><trkpt lat="45.4914582" lon="11.0610855"><ele>112.5</ele><time>2026-04-25T09:54:21.103Z</time></trkpt><trkpt lat="45.4915198" lon="11.0610622"><ele>112.66666666666666</ele><time>2026-04-25T09:54:22.104Z</time></trkpt><trkpt lat="45.4916385" lon="11.0610144"><ele>112.83333333333333</ele><time>2026-04-25T09:54:24.104Z</time></trkpt><trkpt lat="45.4917025" lon="11.0609839"><ele>113.0</ele><time>2026-04-25T09:54:25.105Z</time></trkpt><trkpt lat="45.4917692" lon="11.0609481"><ele>112.99999999999999</ele><time>2026-04-25T09:54:26.103Z</time></trkpt><trkpt lat="45.4918386" lon="11.0609106"><ele>113.0</ele><time>2026-04-25T09:54:27.103Z</time></trkpt><trkpt lat="45.4919079" lon="11.060868"><ele>113.0</ele><time>2026-04-25T09:54:28.104Z</time></trkpt><trkpt lat="45.4919771" lon="11.060822"><ele>113.0</ele><time>2026-04-25T09:54:29.105Z</time></trkpt><trkpt lat="45.4920457" lon="11.0607769"><ele>112.99999999999999</ele><time>2026-04-25T09:54:30.104Z</time></trkpt><trkpt lat="45.4921141" lon="11.0607314"><ele>113.0</ele><time>2026-04-25T09:54:31.104Z</time></trkpt><trkpt lat="45.4921829" lon="11.0606894"><ele>113.49999999999999</ele><time>2026-04-25T09:54:32.103Z</time></trkpt><trkpt lat="45.4922533" lon="11.0606484"><ele>114.0</ele><time>2026-04-25T09:54:33.103Z</time></trkpt><trkpt lat="45.4923178" lon="11.0606121"><ele>114.5</ele><time>2026-04-25T09:54:34.104Z</time></trkpt><trkpt lat="45.4923774" lon="11.0605737"><ele>115.0</ele><time>2026-04-25T09:54:35.103Z</time></trkpt><trkpt lat="45.4924907" lon="11.0605058"><ele>115.49999999999999</ele><time>2026-04-25T09:54:37.103Z</time></trkpt><trkpt lat="45.492589" lon="11.0604403"><ele>116.0</ele><time>2026-04-25T09:54:39.103Z</time></trkpt><trkpt lat="45.492674" lon="11.0603825"><ele>116.00000000000001</ele><time>2026-04-25T09:54:41.103Z</time></trkpt><trkpt lat="45.4927385" lon="11.0603324"><ele>116.0</ele><time>2026-04-25T09:54:43.103Z</time></trkpt><trkpt lat="45.4927947" lon="11.0602696"><ele>116.00000000000001</ele><time>2026-04-25T09:54:45.103Z</time></trkpt><trkpt lat="45.4928464" lon="11.0601957"><ele>116.00000000000001</ele><time>2026-04-25T09:54:48.103Z</time></trkpt><trkpt lat="45.4928896" lon="11.0601221"><ele>116.0</ele><time>2026-04-25T09:54:52.103Z</time></trkpt><trkpt lat="45.4929367" lon="11.0600331"><ele>116.00000000000001</ele><time>2026-04-25T09:54:57.105Z</time></trkpt><trkpt lat="45.4929639" lon="11.0599399"><ele>116.00000000000001</ele><time>2026-04-25T09:55:33.104Z</time></trkpt><trkpt lat="45.4929855" lon="11.059853"><ele>116.00000000000001</ele><time>2026-04-25T09:55:37.105Z</time></trkpt><trkpt lat="45.4930289" lon="11.059771"><ele>116.0</ele><time>2026-04-25T09:55:41.103Z</time></trkpt><trkpt lat="45.4930912" lon="11.0596966"><ele>116.00000000000001</ele><time>2026-04-25T09:55:45.103Z</time></trkpt><trkpt lat="45.4931407" lon="11.0596302"><ele>116.00000000000001</ele><time>2026-04-25T09:55:50.103Z</time></trkpt><trkpt lat="45.4931955" lon="11.0595755"><ele>116.0</ele><time>2026-04-25T09:55:59.103Z</time></trkpt><trkpt lat="45.4932515" lon="11.0595327"><ele>116.00000000000001</ele><time>2026-04-25T09:56:02.103Z</time></trkpt><trkpt lat="45.493323" lon="11.0594718"><ele>116.00000000000001</ele><time>2026-04-25T09:56:06.105Z</time></trkpt><trkpt lat="45.4933799" lon="11.0594273"><ele>116.0</ele><time>2026-04-25T09:56:09.103Z</time></trkpt><trkpt lat="45.4934588" lon="11.0593953"><ele>116.0</ele><time>2026-04-25T09:56:12.105Z</time></trkpt><trkpt lat="45.4935315" lon="11.0593619"><ele>116.0</ele><time>2026-04-25T09:56:14.103Z</time></trkpt><trkpt lat="45.4936328" lon="11.0593349"><ele>116.0</ele><time>2026-04-25T09:56:16.103Z</time></trkpt><trkpt lat="45.4937461" lon="11.0593284"><ele>116.0</ele><time>2026-04-25T09:56:18.103Z</time></trkpt><trkpt lat="45.4938596" lon="11.0593209"><ele>116.6</ele><time>2026-04-25T09:56:20.103Z</time></trkpt><trkpt lat="45.4939689" lon="11.0593237"><ele>117.19999999999999</ele><time>2026-04-25T09:56:22.103Z</time></trkpt><trkpt lat="45.4940661" lon="11.0593454"><ele>117.80000000000001</ele><time>2026-04-25T09:56:24.103Z</time></trkpt><trkpt lat="45.4941626" lon="11.0593637"><ele>118.4</ele><time>2026-04-25T09:56:26.104Z</time></trkpt><trkpt lat="45.4942462" lon="11.0593809"><ele>119.0</ele><time>2026-04-25T09:56:28.104Z</time></trkpt><trkpt lat="45.4943264" lon="11.0594066"><ele>119.0</ele><time>2026-04-25T09:56:31.103Z</time></trkpt><trkpt lat="45.4943989" lon="11.0594199"><ele>119.0</ele><time>2026-04-25T09:56:34.104Z</time></trkpt><trkpt lat="45.4944689" lon="11.0594027"><ele>119.0</ele><time>2026-04-25T09:56:36.104Z</time></trkpt><trkpt lat="45.4945548" lon="11.0593372"><ele>119.0</ele><time>2026-04-25T09:56:38.103Z</time></trkpt><trkpt lat="45.4946742" lon="11.0593152"><ele>119.0</ele><time>2026-04-25T09:56:40.103Z</time></trkpt><trkpt lat="45.4947809" lon="11.0593076"><ele>119.4</ele><time>2026-04-25T09:56:42.104Z</time></trkpt><trkpt lat="45.4948737" lon="11.0593013"><ele>119.80000000000001</ele><time>2026-04-25T09:56:44.104Z</time></trkpt><trkpt lat="45.4949804" lon="11.05929"><ele>120.19999999999999</ele><time>2026-04-25T09:56:46.104Z</time></trkpt><trkpt lat="45.4951115" lon="11.0592772"><ele>120.6</ele><time>2026-04-25T09:56:48.103Z</time></trkpt><trkpt lat="45.4951846" lon="11.0592736"><ele>121.0</ele><time>2026-04-25T09:56:49.104Z</time></trkpt><trkpt lat="45.4952595" lon="11.0592731"><ele>121.00000000000001</ele><time>2026-04-25T09:56:50.103Z</time></trkpt><trkpt lat="45.4953348" lon="11.0592725"><ele>121.0</ele><time>2026-04-25T09:56:51.104Z</time></trkpt><trkpt lat="45.4954067" lon="11.0592685"><ele>121.0</ele><time>2026-04-25T09:56:52.103Z</time></trkpt><trkpt lat="45.4954762" lon="11.0592654"><ele>121.0</ele><time>2026-04-25T09:56:53.103Z</time></trkpt><trkpt lat="45.4955432" lon="11.0592636"><ele>121.00000000000001</ele><time>2026-04-25T09:56:54.103Z</time></trkpt><trkpt lat="45.4956209" lon="11.0592521"><ele>121.0</ele><time>2026-04-25T09:56:55.103Z</time></trkpt><trkpt lat="45.4957085" lon="11.0592346"><ele>121.19999999999999</ele><time>2026-04-25T09:56:56.103Z</time></trkpt><trkpt lat="45.4958026" lon="11.0592085"><ele>121.39999999999999</ele><time>2026-04-25T09:56:57.104Z</time></trkpt><trkpt lat="45.4959023" lon="11.059172"><ele>121.6</ele><time>2026-04-25T09:56:58.103Z</time></trkpt><trkpt lat="45.4960002" lon="11.0591326"><ele>121.8</ele><time>2026-04-25T09:56:59.104Z</time></trkpt><trkpt lat="45.4960951" lon="11.0590944"><ele>122.0</ele><time>2026-04-25T09:57:00.104Z</time></trkpt><trkpt lat="45.4961878" lon="11.0590547"><ele>123.6</ele><time>2026-04-25T09:57:01.104Z</time></trkpt><trkpt lat="45.4962788" lon="11.0590196"><ele>125.19999999999999</ele><time>2026-04-25T09:57:02.103Z</time></trkpt><trkpt lat="45.4963773" lon="11.0590069"><ele>126.8</ele><time>2026-04-25T09:57:03.104Z</time></trkpt><trkpt lat="45.4964805" lon="11.0590067"><ele>128.4</ele><time>2026-04-25T09:57:04.104Z</time></trkpt><trkpt lat="45.4965891" lon="11.0590258"><ele>130.0</ele><time>2026-04-25T09:57:05.103Z</time></trkpt><trkpt lat="45.4966944" lon="11.0590775"><ele>129.25</ele><time>2026-04-25T09:57:06.104Z</time></trkpt><trkpt lat="45.4967934" lon="11.0591538"><ele>128.5</ele><time>2026-04-25T09:57:07.104Z</time></trkpt><trkpt lat="45.4969001" lon="11.059218"><ele>127.75</ele><time>2026-04-25T09:57:08.103Z</time></trkpt><trkpt lat="45.497017" lon="11.059243"><ele>127.0</ele><time>2026-04-25T09:57:09.104Z</time></trkpt><trkpt lat="45.4971401" lon="11.0592444"><ele>127.0</ele><time>2026-04-25T09:57:10.104Z</time></trkpt><trkpt lat="45.4972691" lon="11.0592444"><ele>127.0</ele><time>2026-04-25T09:57:11.104Z</time></trkpt><trkpt lat="45.4974042" lon="11.0592562"><ele>127.0</ele><time>2026-04-25T09:57:12.104Z</time></trkpt><trkpt lat="45.4975405" lon="11.059268"><ele>127.0</ele><time>2026-04-25T09:57:13.103Z</time></trkpt><trkpt lat="45.4976739" lon="11.0592806"><ele>127.0</ele><time>2026-04-25T09:57:14.104Z</time></trkpt><trkpt lat="45.4978076" lon="11.0592944"><ele>127.0</ele><time>2026-04-25T09:57:15.103Z</time></trkpt><trkpt lat="45.4979432" lon="11.059307"><ele>127.0</ele><time>2026-04-25T09:57:16.104Z</time></trkpt><trkpt lat="45.4980777" lon="11.0593226"><ele>127.0</ele><time>2026-04-25T09:57:17.104Z</time></trkpt><trkpt lat="45.4982097" lon="11.0593435"><ele>128.0</ele><time>2026-04-25T09:57:18.105Z</time></trkpt><trkpt lat="45.4983391" lon="11.0593611"><ele>129.0</ele><time>2026-04-25T09:57:19.103Z</time></trkpt><trkpt lat="45.4984639" lon="11.0593749"><ele>130.0</ele><time>2026-04-25T09:57:20.104Z</time></trkpt><trkpt lat="45.4985898" lon="11.0593918"><ele>131.0</ele><time>2026-04-25T09:57:21.105Z</time></trkpt><trkpt lat="45.4987187" lon="11.0594035"><ele>131.75</ele><time>2026-04-25T09:57:22.104Z</time></trkpt><trkpt lat="45.4988521" lon="11.0594119"><ele>132.5</ele><time>2026-04-25T09:57:23.103Z</time></trkpt><trkpt lat="45.4989914" lon="11.0594194"><ele>133.25</ele><time>2026-04-25T09:57:24.105Z</time></trkpt><trkpt lat="45.4991336" lon="11.0594333"><ele>134.0</ele><time>2026-04-25T09:57:25.103Z</time></trkpt><trkpt lat="45.4992788" lon="11.05946"><ele>134.0</ele><time>2026-04-25T09:57:26.103Z</time></trkpt><trkpt lat="45.4994266" lon="11.0594868"><ele>134.0</ele><time>2026-04-25T09:57:27.103Z</time></trkpt><trkpt lat="45.4995747" lon="11.0595112"><ele>134.0</ele><time>2026-04-25T09:57:28.103Z</time></trkpt><trkpt lat="45.4997206" lon="11.0595296"><ele>134.0</ele><time>2026-04-25T09:57:29.104Z</time></trkpt><trkpt lat="45.4998662" lon="11.0595438"><ele>133.75</ele><time>2026-04-25T09:57:30.103Z</time></trkpt><trkpt lat="45.5000109" lon="11.0595612"><ele>133.5</ele><time>2026-04-25T09:57:31.103Z</time></trkpt><trkpt lat="45.5001562" lon="11.0595813"><ele>133.25</ele><time>2026-04-25T09:57:32.103Z</time></trkpt><trkpt lat="45.5002995" lon="11.0596008"><ele>133.0</ele><time>2026-04-25T09:57:33.103Z</time></trkpt><trkpt lat="45.5004389" lon="11.0596199"><ele>134.25</ele><time>2026-04-25T09:57:34.103Z</time></trkpt><trkpt lat="45.5005671" lon="11.0596429"><ele>135.5</ele><time>2026-04-25T09:57:35.103Z</time></trkpt><trkpt lat="45.5006831" lon="11.0596618"><ele>136.75</ele><time>2026-04-25T09:57:36.102Z</time></trkpt><trkpt lat="45.500799" lon="11.0596783"><ele>138.0</ele><time>2026-04-25T09:57:37.102Z</time></trkpt><trkpt lat="45.5009167" lon="11.0597031"><ele>138.0</ele><time>2026-04-25T09:57:38.103Z</time></trkpt><trkpt lat="45.5010419" lon="11.0597396"><ele>138.0</ele><time>2026-04-25T09:57:39.102Z</time></trkpt><trkpt lat="45.5011709" lon="11.0597865"><ele>138.0</ele><time>2026-04-25T09:57:40.103Z</time></trkpt><trkpt lat="45.5013051" lon="11.0598386"><ele>138.0</ele><time>2026-04-25T09:57:41.103Z</time></trkpt><trkpt lat="45.5014422" lon="11.059895"><ele>138.25</ele><time>2026-04-25T09:57:42.103Z</time></trkpt><trkpt lat="45.501578" lon="11.0599568"><ele>138.5</ele><time>2026-04-25T09:57:43.103Z</time></trkpt><trkpt lat="45.5017164" lon="11.0600157"><ele>138.75</ele><time>2026-04-25T09:57:44.103Z</time></trkpt><trkpt lat="45.5018557" lon="11.0600771"><ele>139.0</ele><time>2026-04-25T09:57:45.103Z</time></trkpt><trkpt lat="45.5019941" lon="11.060137"><ele>140.25</ele><time>2026-04-25T09:57:46.102Z</time></trkpt><trkpt lat="45.5021337" lon="11.0601955"><ele>141.5</ele><time>2026-04-25T09:57:47.104Z</time></trkpt><trkpt lat="45.5022704" lon="11.0602608"><ele>142.75</ele><time>2026-04-25T09:57:48.103Z</time></trkpt><trkpt lat="45.5024018" lon="11.0603313"><ele>144.0</ele><time>2026-04-25T09:57:49.102Z</time></trkpt><trkpt lat="45.5025207" lon="11.0603978"><ele>144.0</ele><time>2026-04-25T09:57:50.103Z</time></trkpt><trkpt lat="45.502621" lon="11.0604618"><ele>144.0</ele><time>2026-04-25T09:57:51.103Z</time></trkpt><trkpt lat="45.5027059" lon="11.0605315"><ele>144.0</ele><time>2026-04-25T09:57:52.103Z</time></trkpt><trkpt lat="45.5027705" lon="11.0606147"><ele>144.0</ele><time>2026-04-25T09:57:53.103Z</time></trkpt><trkpt lat="45.5028135" lon="11.0607236"><ele>144.0</ele><time>2026-04-25T09:57:54.103Z</time></trkpt><trkpt lat="45.5028407" lon="11.0608457"><ele>144.16666666666666</ele><time>2026-04-25T09:57:55.102Z</time></trkpt><trkpt lat="45.5028537" lon="11.0609763"><ele>144.33333333333334</ele><time>2026-04-25T09:57:56.103Z</time></trkpt><trkpt lat="45.5028555" lon="11.0611045"><ele>144.5</ele><time>2026-04-25T09:57:57.103Z</time></trkpt><trkpt lat="45.5028595" lon="11.0612291"><ele>144.66666666666669</ele><time>2026-04-25T09:57:58.103Z</time></trkpt><trkpt lat="45.5028731" lon="11.0613408"><ele>144.83333333333334</ele><time>2026-04-25T09:57:59.103Z</time></trkpt><trkpt lat="45.5029056" lon="11.0614355"><ele>145.0</ele><time>2026-04-25T09:58:00.102Z</time></trkpt><trkpt lat="45.5029625" lon="11.0615056"><ele>145.0</ele><time>2026-04-25T09:58:01.102Z</time></trkpt><trkpt lat="45.5030387" lon="11.0615567"><ele>145.0</ele><time>2026-04-25T09:58:02.102Z</time></trkpt><trkpt lat="45.5031265" lon="11.061602"><ele>145.0</ele><time>2026-04-25T09:58:03.102Z</time></trkpt><trkpt lat="45.5032149" lon="11.0616402"><ele>145.0</ele><time>2026-04-25T09:58:04.103Z</time></trkpt><trkpt lat="45.503304" lon="11.0616771"><ele>145.0</ele><time>2026-04-25T09:58:05.104Z</time></trkpt><trkpt lat="45.5033928" lon="11.0617134"><ele>145.0</ele><time>2026-04-25T09:58:06.102Z</time></trkpt><trkpt lat="45.5034829" lon="11.0617507"><ele>145.0</ele><time>2026-04-25T09:58:07.102Z</time></trkpt><trkpt lat="45.5035731" lon="11.061788"><ele>145.0</ele><time>2026-04-25T09:58:08.104Z</time></trkpt><trkpt lat="45.5036602" lon="11.0618262"><ele>145.0</ele><time>2026-04-25T09:58:09.103Z</time></trkpt><trkpt lat="45.5037497" lon="11.0618651"><ele>145.0</ele><time>2026-04-25T09:58:10.102Z</time></trkpt><trkpt lat="45.5038386" lon="11.0619023"><ele>145.0</ele><time>2026-04-25T09:58:11.103Z</time></trkpt><trkpt lat="45.5039344" lon="11.0619415"><ele>145.0</ele><time>2026-04-25T09:58:12.103Z</time></trkpt><trkpt lat="45.5040324" lon="11.0619786"><ele>145.0</ele><time>2026-04-25T09:58:13.103Z</time></trkpt><trkpt lat="45.5041324" lon="11.0620157"><ele>145.0</ele><time>2026-04-25T09:58:14.102Z</time></trkpt><trkpt lat="45.5042324" lon="11.0620563"><ele>145.0</ele><time>2026-04-25T09:58:15.103Z</time></trkpt><trkpt lat="45.5043353" lon="11.0621047"><ele>145.0</ele><time>2026-04-25T09:58:16.102Z</time></trkpt><trkpt lat="45.5044433" lon="11.062153"><ele>145.0</ele><time>2026-04-25T09:58:17.102Z</time></trkpt><trkpt lat="45.5045524" lon="11.0621957"><ele>145.0</ele><time>2026-04-25T09:58:18.102Z</time></trkpt><trkpt lat="45.5046658" lon="11.0622429"><ele>145.0</ele><time>2026-04-25T09:58:19.102Z</time></trkpt><trkpt lat="45.5047809" lon="11.0622945"><ele>145.0</ele><time>2026-04-25T09:58:20.103Z</time></trkpt><trkpt lat="45.504897" lon="11.0623522"><ele>145.0</ele><time>2026-04-25T09:58:21.103Z</time></trkpt><trkpt lat="45.5050179" lon="11.0624119"><ele>145.0</ele><time>2026-04-25T09:58:22.103Z</time></trkpt><trkpt lat="45.5051418" lon="11.0624731"><ele>145.0</ele><time>2026-04-25T09:58:23.102Z</time></trkpt><trkpt lat="45.5052698" lon="11.0625338"><ele>145.0</ele><time>2026-04-25T09:58:24.102Z</time></trkpt><trkpt lat="45.505402" lon="11.0625993"><ele>145.0</ele><time>2026-04-25T09:58:25.103Z</time></trkpt><trkpt lat="45.5055377" lon="11.0626732"><ele>145.0</ele><time>2026-04-25T09:58:26.102Z</time></trkpt><trkpt lat="45.5056717" lon="11.0627501"><ele>145.0</ele><time>2026-04-25T09:58:27.103Z</time></trkpt><trkpt lat="45.5058055" lon="11.0628345"><ele>147.0</ele><time>2026-04-25T09:58:28.103Z</time></trkpt><trkpt lat="45.5059344" lon="11.0629173"><ele>149.0</ele><time>2026-04-25T09:58:29.103Z</time></trkpt><trkpt lat="45.5060589" lon="11.0629933"><ele>151.0</ele><time>2026-04-25T09:58:30.103Z</time></trkpt><trkpt lat="45.5061842" lon="11.0630665"><ele>153.0</ele><time>2026-04-25T09:58:31.102Z</time></trkpt><trkpt lat="45.5063051" lon="11.0631348"><ele>153.25</ele><time>2026-04-25T09:58:32.104Z</time></trkpt><trkpt lat="45.5064278" lon="11.0632057"><ele>153.5</ele><time>2026-04-25T09:58:33.103Z</time></trkpt><trkpt lat="45.506549" lon="11.0632769"><ele>153.75</ele><time>2026-04-25T09:58:34.103Z</time></trkpt><trkpt lat="45.5066727" lon="11.0633466"><ele>154.0</ele><time>2026-04-25T09:58:35.103Z</time></trkpt><trkpt lat="45.5067981" lon="11.0634116"><ele>154.0</ele><time>2026-04-25T09:58:36.103Z</time></trkpt><trkpt lat="45.5069257" lon="11.0634783"><ele>154.0</ele><time>2026-04-25T09:58:37.103Z</time></trkpt><trkpt lat="45.5070562" lon="11.0635421"><ele>154.0</ele><time>2026-04-25T09:58:38.102Z</time></trkpt><trkpt lat="45.5071906" lon="11.0635954"><ele>154.0</ele><time>2026-04-25T09:58:39.102Z</time></trkpt><trkpt lat="45.5073252" lon="11.0636423"><ele>157.75</ele><time>2026-04-25T09:58:40.103Z</time></trkpt><trkpt lat="45.5074606" lon="11.0637148"><ele>161.5</ele><time>2026-04-25T09:58:41.103Z</time></trkpt><trkpt lat="45.5075929" lon="11.0638107"><ele>165.25</ele><time>2026-04-25T09:58:42.102Z</time></trkpt><trkpt lat="45.5077218" lon="11.0639041"><ele>169.0</ele><time>2026-04-25T09:58:43.103Z</time></trkpt><trkpt lat="45.5078481" lon="11.0639954"><ele>168.5</ele><time>2026-04-25T09:58:44.103Z</time></trkpt><trkpt lat="45.5079684" lon="11.0640849"><ele>168.0</ele><time>2026-04-25T09:58:45.102Z</time></trkpt><trkpt lat="45.5080864" lon="11.0641634"><ele>167.5</ele><time>2026-04-25T09:58:46.102Z</time></trkpt><trkpt lat="45.5081957" lon="11.0642304"><ele>167.0</ele><time>2026-04-25T09:58:47.102Z</time></trkpt><trkpt lat="45.5083056" lon="11.0642939"><ele>167.0</ele><time>2026-04-25T09:58:48.103Z</time></trkpt><trkpt lat="45.508414" lon="11.0643499"><ele>167.0</ele><time>2026-04-25T09:58:49.103Z</time></trkpt><trkpt lat="45.5085263" lon="11.0643989"><ele>167.0</ele><time>2026-04-25T09:58:50.103Z</time></trkpt><trkpt lat="45.5086406" lon="11.0644442"><ele>167.0</ele><time>2026-04-25T09:58:51.103Z</time></trkpt><trkpt lat="45.5087647" lon="11.0644716"><ele>170.5</ele><time>2026-04-25T09:58:52.103Z</time></trkpt><trkpt lat="45.5088857" lon="11.0644979"><ele>174.0</ele><time>2026-04-25T09:58:53.102Z</time></trkpt><trkpt lat="45.509003" lon="11.0645276"><ele>177.5</ele><time>2026-04-25T09:58:54.102Z</time></trkpt><trkpt lat="45.5091338" lon="11.064539"><ele>181.0</ele><time>2026-04-25T09:58:55.103Z</time></trkpt><trkpt lat="45.5092597" lon="11.0645611"><ele>181.0</ele><time>2026-04-25T09:58:56.103Z</time></trkpt><trkpt lat="45.5093843" lon="11.0645989"><ele>181.0</ele><time>2026-04-25T09:58:57.103Z</time></trkpt><trkpt lat="45.509514" lon="11.0646443"><ele>181.0</ele><time>2026-04-25T09:58:58.102Z</time></trkpt><trkpt lat="45.5096389" lon="11.0646931"><ele>181.0</ele><time>2026-04-25T09:58:59.102Z</time></trkpt><trkpt lat="45.5097603" lon="11.0647503"><ele>179.0</ele><time>2026-04-25T09:59:00.102Z</time></trkpt><trkpt lat="45.5098801" lon="11.0648141"><ele>177.0</ele><time>2026-04-25T09:59:01.104Z</time></trkpt><trkpt lat="45.5099973" lon="11.0648821"><ele>175.0</ele><time>2026-04-25T09:59:02.102Z</time></trkpt><trkpt lat="45.5101045" lon="11.0649543"><ele>173.0</ele><time>2026-04-25T09:59:03.102Z</time></trkpt><trkpt lat="45.5102025" lon="11.0650233"><ele>173.0</ele><time>2026-04-25T09:59:04.102Z</time></trkpt><trkpt lat="45.5102926" lon="11.0650886"><ele>173.0</ele><time>2026-04-25T09:59:05.103Z</time></trkpt><trkpt lat="45.5103832" lon="11.0651501"><ele>173.0</ele><time>2026-04-25T09:59:06.103Z</time></trkpt><trkpt lat="45.5104841" lon="11.065205"><ele>173.0</ele><time>2026-04-25T09:59:07.103Z</time></trkpt><trkpt lat="45.5105954" lon="11.0652441"><ele>173.0</ele><time>2026-04-25T09:59:08.102Z</time></trkpt><trkpt lat="45.5107107" lon="11.0652641"><ele>174.5</ele><time>2026-04-25T09:59:09.103Z</time></trkpt><trkpt lat="45.5108329" lon="11.0652723"><ele>176.0</ele><time>2026-04-25T09:59:10.103Z</time></trkpt><trkpt lat="45.5109587" lon="11.0652775"><ele>177.5</ele><time>2026-04-25T09:59:11.103Z</time></trkpt><trkpt lat="45.5110915" lon="11.0652829"><ele>179.0</ele><time>2026-04-25T09:59:12.102Z</time></trkpt><trkpt lat="45.5112271" lon="11.0652878"><ele>181.5</ele><time>2026-04-25T09:59:13.102Z</time></trkpt><trkpt lat="45.5113663" lon="11.0652944"><ele>184.0</ele><time>2026-04-25T09:59:14.104Z</time></trkpt><trkpt lat="45.511505" lon="11.0653069"><ele>186.5</ele><time>2026-04-25T09:59:15.102Z</time></trkpt><trkpt lat="45.5116431" lon="11.0653203"><ele>189.0</ele><time>2026-04-25T09:59:16.103Z</time></trkpt><trkpt lat="45.5117718" lon="11.0653298"><ele>189.0</ele><time>2026-04-25T09:59:17.103Z</time></trkpt><trkpt lat="45.5118885" lon="11.0653458"><ele>189.0</ele><time>2026-04-25T09:59:18.103Z</time></trkpt><trkpt lat="45.5119932" lon="11.0653975"><ele>189.0</ele><time>2026-04-25T09:59:19.102Z</time></trkpt><trkpt lat="45.5120798" lon="11.0654837"><ele>189.0</ele><time>2026-04-25T09:59:20.102Z</time></trkpt><trkpt lat="45.5121447" lon="11.0656067"><ele>189.0</ele><time>2026-04-25T09:59:21.102Z</time></trkpt><trkpt lat="45.5121959" lon="11.0657524"><ele>186.0</ele><time>2026-04-25T09:59:22.103Z</time></trkpt><trkpt lat="45.5122432" lon="11.0659125"><ele>183.0</ele><time>2026-04-25T09:59:23.103Z</time></trkpt><trkpt lat="45.5122942" lon="11.0660709"><ele>180.0</ele><time>2026-04-25T09:59:24.103Z</time></trkpt><trkpt lat="45.51236" lon="11.0662159"><ele>177.0</ele><time>2026-04-25T09:59:25.102Z</time></trkpt><trkpt lat="45.5124409" lon="11.0663498"><ele>177.0</ele><time>2026-04-25T09:59:26.102Z</time></trkpt><trkpt lat="45.512532" lon="11.066471"><ele>177.0</ele><time>2026-04-25T09:59:27.103Z</time></trkpt><trkpt lat="45.5126325" lon="11.0665828"><ele>177.0</ele><time>2026-04-25T09:59:28.102Z</time></trkpt><trkpt lat="45.5127355" lon="11.0666943"><ele>177.0</ele><time>2026-04-25T09:59:29.103Z</time></trkpt><trkpt lat="45.5128385" lon="11.0668031"><ele>176.25</ele><time>2026-04-25T09:59:30.102Z</time></trkpt><trkpt lat="45.5129472" lon="11.0668982"><ele>175.5</ele><time>2026-04-25T09:59:31.103Z</time></trkpt><trkpt lat="45.5130642" lon="11.0669774"><ele>174.75</ele><time>2026-04-25T09:59:32.104Z</time></trkpt><trkpt lat="45.5131909" lon="11.0670393"><ele>174.0</ele><time>2026-04-25T09:59:33.102Z</time></trkpt><trkpt lat="45.5133219" lon="11.06709"><ele>174.0</ele><time>2026-04-25T09:59:34.102Z</time></trkpt><trkpt lat="45.513454" lon="11.0671251"><ele>174.0</ele><time>2026-04-25T09:59:35.103Z</time></trkpt><trkpt lat="45.513587" lon="11.0671292"><ele>174.0</ele><time>2026-04-25T09:59:36.103Z</time></trkpt><trkpt lat="45.5137182" lon="11.0671097"><ele>174.0</ele><time>2026-04-25T09:59:37.103Z</time></trkpt><trkpt lat="45.5138483" lon="11.0670817"><ele>175.0</ele><time>2026-04-25T09:59:38.103Z</time></trkpt><trkpt lat="45.5139772" lon="11.0670498"><ele>176.0</ele><time>2026-04-25T09:59:39.103Z</time></trkpt><trkpt lat="45.5141042" lon="11.0670165"><ele>177.0</ele><time>2026-04-25T09:59:40.102Z</time></trkpt><trkpt lat="45.5142322" lon="11.0669923"><ele>178.0</ele><time>2026-04-25T09:59:41.102Z</time></trkpt><trkpt lat="45.5143621" lon="11.0669804"><ele>178.0</ele><time>2026-04-25T09:59:42.103Z</time></trkpt><trkpt lat="45.514488" lon="11.0669493"><ele>178.0</ele><time>2026-04-25T09:59:43.102Z</time></trkpt><trkpt lat="45.5146143" lon="11.0669156"><ele>178.0</ele><time>2026-04-25T09:59:44.102Z</time></trkpt><trkpt lat="45.5147364" lon="11.0668764"><ele>178.0</ele><time>2026-04-25T09:59:45.103Z</time></trkpt><trkpt lat="45.5148601" lon="11.0668398"><ele>180.25</ele><time>2026-04-25T09:59:46.102Z</time></trkpt><trkpt lat="45.5149909" lon="11.0668076"><ele>182.5</ele><time>2026-04-25T09:59:47.102Z</time></trkpt><trkpt lat="45.5151208" lon="11.0668006"><ele>184.75</ele><time>2026-04-25T09:59:48.102Z</time></trkpt><trkpt lat="45.5152589" lon="11.0668053"><ele>187.0</ele><time>2026-04-25T09:59:49.103Z</time></trkpt><trkpt lat="45.5153986" lon="11.0668131"><ele>188.5</ele><time>2026-04-25T09:59:50.104Z</time></trkpt><trkpt lat="45.5155428" lon="11.066822"><ele>190.0</ele><time>2026-04-25T09:59:51.103Z</time></trkpt><trkpt lat="45.5156916" lon="11.0668286"><ele>191.5</ele><time>2026-04-25T09:59:52.102Z</time></trkpt><trkpt lat="45.5158385" lon="11.0668373"><ele>193.0</ele><time>2026-04-25T09:59:53.103Z</time></trkpt><trkpt lat="45.5159806" lon="11.066862"><ele>193.0</ele><time>2026-04-25T09:59:54.103Z</time></trkpt><trkpt lat="45.5161202" lon="11.0668933"><ele>193.0</ele><time>2026-04-25T09:59:55.102Z</time></trkpt><trkpt lat="45.5162595" lon="11.0669273"><ele>193.0</ele><time>2026-04-25T09:59:56.103Z</time></trkpt><trkpt lat="45.5163963" lon="11.0669669"><ele>193.0</ele><time>2026-04-25T09:59:57.102Z</time></trkpt><trkpt lat="45.5165305" lon="11.0670005"><ele>195.25</ele><time>2026-04-25T09:59:58.103Z</time></trkpt><trkpt lat="45.5166631" lon="11.0670423"><ele>197.5</ele><time>2026-04-25T09:59:59.102Z</time></trkpt><trkpt lat="45.5167781" lon="11.0670839"><ele>199.75</ele><time>2026-04-25T10:00:00.103Z</time></trkpt><trkpt lat="45.5168566" lon="11.0671643"><ele>202.0</ele><time>2026-04-25T10:00:01.102Z</time></trkpt><trkpt lat="45.5169509" lon="11.0672198"><ele>202.0</ele><time>2026-04-25T10:00:02.102Z</time></trkpt><trkpt lat="45.5170476" lon="11.0672833"><ele>202.0</ele><time>2026-04-25T10:00:03.102Z</time></trkpt><trkpt lat="45.5171484" lon="11.0673562"><ele>202.0</ele><time>2026-04-25T10:00:04.103Z</time></trkpt><trkpt lat="45.5172542" lon="11.0674324"><ele>202.0</ele><time>2026-04-25T10:00:05.103Z</time></trkpt><trkpt lat="45.5173682" lon="11.0675015"><ele>201.25</ele><time>2026-04-25T10:00:06.103Z</time></trkpt><trkpt lat="45.517485" lon="11.0675669"><ele>200.5</ele><time>2026-04-25T10:00:07.103Z</time></trkpt><trkpt lat="45.5176058" lon="11.0676248"><ele>199.75</ele><time>2026-04-25T10:00:08.102Z</time></trkpt><trkpt lat="45.5177319" lon="11.0676738"><ele>199.0</ele><time>2026-04-25T10:00:09.102Z</time></trkpt><trkpt lat="45.5178624" lon="11.0677096"><ele>202.5</ele><time>2026-04-25T10:00:10.103Z</time></trkpt><trkpt lat="45.5179955" lon="11.0677351"><ele>206.0</ele><time>2026-04-25T10:00:11.104Z</time></trkpt><trkpt lat="45.5181285" lon="11.0677659"><ele>209.5</ele><time>2026-04-25T10:00:12.102Z</time></trkpt><trkpt lat="45.5182626" lon="11.067808"><ele>213.0</ele><time>2026-04-25T10:00:13.102Z</time></trkpt><trkpt lat="45.5183915" lon="11.0678607"><ele>213.0</ele><time>2026-04-25T10:00:14.102Z</time></trkpt><trkpt lat="45.5185201" lon="11.0679194"><ele>213.0</ele><time>2026-04-25T10:00:15.102Z</time></trkpt><trkpt lat="45.5186432" lon="11.0679921"><ele>213.0</ele><time>2026-04-25T10:00:16.103Z</time></trkpt><trkpt lat="45.5187653" lon="11.0680796"><ele>213.0</ele><time>2026-04-25T10:00:17.104Z</time></trkpt><trkpt lat="45.5188816" lon="11.0681792"><ele>211.5</ele><time>2026-04-25T10:00:18.102Z</time></trkpt><trkpt lat="45.5189974" lon="11.0682803"><ele>210.0</ele><time>2026-04-25T10:00:19.102Z</time></trkpt><trkpt lat="45.519113" lon="11.0683793"><ele>208.5</ele><time>2026-04-25T10:00:20.102Z</time></trkpt><trkpt lat="45.5192225" lon="11.0684703"><ele>207.0</ele><time>2026-04-25T10:00:21.102Z</time></trkpt><trkpt lat="45.5193259" lon="11.0685531"><ele>207.0</ele><time>2026-04-25T10:00:22.102Z</time></trkpt><trkpt lat="45.5194337" lon="11.068625"><ele>207.0</ele><time>2026-04-25T10:00:23.103Z</time></trkpt><trkpt lat="45.5195416" lon="11.0686927"><ele>207.0</ele><time>2026-04-25T10:00:24.102Z</time></trkpt><trkpt lat="45.5196597" lon="11.0687519"><ele>207.0</ele><time>2026-04-25T10:00:25.103Z</time></trkpt><trkpt lat="45.5197797" lon="11.0688112"><ele>211.25</ele><time>2026-04-25T10:00:26.103Z</time></trkpt><trkpt lat="45.5198884" lon="11.06888"><ele>215.5</ele><time>2026-04-25T10:00:27.103Z</time></trkpt><trkpt lat="45.520008" lon="11.068933"><ele>219.75</ele><time>2026-04-25T10:00:28.103Z</time></trkpt><trkpt lat="45.5201286" lon="11.0689946"><ele>224.0</ele><time>2026-04-25T10:00:29.102Z</time></trkpt><trkpt lat="45.5202417" lon="11.0690465"><ele>222.5</ele><time>2026-04-25T10:00:30.103Z</time></trkpt><trkpt lat="45.5203381" lon="11.0691145"><ele>221.0</ele><time>2026-04-25T10:00:31.103Z</time></trkpt><trkpt lat="45.5204339" lon="11.0691946"><ele>219.5</ele><time>2026-04-25T10:00:32.103Z</time></trkpt><trkpt lat="45.5205258" lon="11.0693022"><ele>218.0</ele><time>2026-04-25T10:00:33.103Z</time></trkpt><trkpt lat="45.5206081" lon="11.0694158"><ele>218.0</ele><time>2026-04-25T10:00:34.103Z</time></trkpt><trkpt lat="45.5207008" lon="11.0695038"><ele>218.0</ele><time>2026-04-25T10:00:35.103Z</time></trkpt><trkpt lat="45.5208123" lon="11.0695686"><ele>218.0</ele><time>2026-04-25T10:00:36.103Z</time></trkpt><trkpt lat="45.5209316" lon="11.0696175"><ele>218.0</ele><time>2026-04-25T10:00:37.103Z</time></trkpt><trkpt lat="45.5210515" lon="11.0696725"><ele>218.0</ele><time>2026-04-25T10:00:38.102Z</time></trkpt><trkpt lat="45.5211752" lon="11.0697283"><ele>218.0</ele><time>2026-04-25T10:00:39.103Z</time></trkpt><trkpt lat="45.5212909" lon="11.0697872"><ele>218.0</ele><time>2026-04-25T10:00:40.102Z</time></trkpt><trkpt lat="45.5214042" lon="11.0698445"><ele>218.0</ele><time>2026-04-25T10:00:41.103Z</time></trkpt><trkpt lat="45.521522" lon="11.069894"><ele>215.5</ele><time>2026-04-25T10:00:42.103Z</time></trkpt><trkpt lat="45.5216468" lon="11.0699306"><ele>213.0</ele><time>2026-04-25T10:00:43.102Z</time></trkpt><trkpt lat="45.5217721" lon="11.069953"><ele>210.5</ele><time>2026-04-25T10:00:44.103Z</time></trkpt><trkpt lat="45.5218962" lon="11.069956"><ele>208.0</ele><time>2026-04-25T10:00:45.102Z</time></trkpt><trkpt lat="45.5220133" lon="11.0699611"><ele>208.0</ele><time>2026-04-25T10:00:46.103Z</time></trkpt><trkpt lat="45.5221169" lon="11.0699879"><ele>208.0</ele><time>2026-04-25T10:00:47.103Z</time></trkpt><trkpt lat="45.522216" lon="11.0699982"><ele>208.0</ele><time>2026-04-25T10:00:48.102Z</time></trkpt><trkpt lat="45.5223213" lon="11.0699769"><ele>208.0</ele><time>2026-04-25T10:00:49.103Z</time></trkpt><trkpt lat="45.5224265" lon="11.0699367"><ele>208.0</ele><time>2026-04-25T10:00:50.102Z</time></trkpt><trkpt lat="45.5225364" lon="11.0698877"><ele>209.4</ele><time>2026-04-25T10:00:51.103Z</time></trkpt><trkpt lat="45.5226353" lon="11.0697908"><ele>210.8</ele><time>2026-04-25T10:00:52.103Z</time></trkpt><trkpt lat="45.5227371" lon="11.0696952"><ele>212.2</ele><time>2026-04-25T10:00:53.102Z</time></trkpt><trkpt lat="45.5228144" lon="11.0696013"><ele>213.6</ele><time>2026-04-25T10:00:54.103Z</time></trkpt><trkpt lat="45.5228926" lon="11.0695155"><ele>215.0</ele><time>2026-04-25T10:00:55.104Z</time></trkpt><trkpt lat="45.5229808" lon="11.0694501"><ele>215.0</ele><time>2026-04-25T10:00:56.104Z</time></trkpt><trkpt lat="45.5230764" lon="11.0694098"><ele>215.0</ele><time>2026-04-25T10:00:57.103Z</time></trkpt><trkpt lat="45.5231755" lon="11.0693939"><ele>215.0</ele><time>2026-04-25T10:00:58.102Z</time></trkpt><trkpt lat="45.523282" lon="11.0693876"><ele>215.0</ele><time>2026-04-25T10:00:59.102Z</time></trkpt><trkpt lat="45.5233805" lon="11.069442"><ele>215.0</ele><time>2026-04-25T10:01:00.102Z</time></trkpt><trkpt lat="45.5234793" lon="11.0694953"><ele>215.0</ele><time>2026-04-25T10:01:01.103Z</time></trkpt><trkpt lat="45.5235759" lon="11.0695682"><ele>215.0</ele><time>2026-04-25T10:01:02.102Z</time></trkpt><trkpt lat="45.523671" lon="11.0696494"><ele>215.0</ele><time>2026-04-25T10:01:03.103Z</time></trkpt><trkpt lat="45.5237576" lon="11.0697348"><ele>215.0</ele><time>2026-04-25T10:01:04.102Z</time></trkpt><trkpt lat="45.5238472" lon="11.0698056"><ele>215.0</ele><time>2026-04-25T10:01:05.102Z</time></trkpt><trkpt lat="45.523938" lon="11.069841"><ele>216.0</ele><time>2026-04-25T10:01:06.103Z</time></trkpt><trkpt lat="45.5240286" lon="11.0698435"><ele>217.0</ele><time>2026-04-25T10:01:07.102Z</time></trkpt><trkpt lat="45.5241202" lon="11.0698115"><ele>218.0</ele><time>2026-04-25T10:01:08.102Z</time></trkpt><trkpt lat="45.5242048" lon="11.0697557"><ele>219.0</ele><time>2026-04-25T10:01:09.102Z</time></trkpt><trkpt lat="45.5242889" lon="11.0696703"><ele>220.0</ele><time>2026-04-25T10:01:10.102Z</time></trkpt><trkpt lat="45.5243787" lon="11.0695923"><ele>220.0</ele><time>2026-04-25T10:01:11.102Z</time></trkpt><trkpt lat="45.5244774" lon="11.0695297"><ele>220.0</ele><time>2026-04-25T10:01:12.102Z</time></trkpt><trkpt lat="45.524576" lon="11.0694788"><ele>220.0</ele><time>2026-04-25T10:01:13.102Z</time></trkpt><trkpt lat="45.5246781" lon="11.0694285"><ele>220.0</ele><time>2026-04-25T10:01:14.103Z</time></trkpt><trkpt lat="45.5247854" lon="11.0693996"><ele>220.0</ele><time>2026-04-25T10:01:15.104Z</time></trkpt><trkpt lat="45.5248943" lon="11.0693916"><ele>221.0</ele><time>2026-04-25T10:01:16.103Z</time></trkpt><trkpt lat="45.5250049" lon="11.069414"><ele>222.0</ele><time>2026-04-25T10:01:17.103Z</time></trkpt><trkpt lat="45.5251178" lon="11.0694459"><ele>223.0</ele><time>2026-04-25T10:01:18.104Z</time></trkpt><trkpt lat="45.5252332" lon="11.06949"><ele>224.0</ele><time>2026-04-25T10:01:19.102Z</time></trkpt><trkpt lat="45.5253518" lon="11.0695257"><ele>225.5</ele><time>2026-04-25T10:01:20.103Z</time></trkpt><trkpt lat="45.5254707" lon="11.0695375"><ele>227.0</ele><time>2026-04-25T10:01:21.103Z</time></trkpt><trkpt lat="45.5255875" lon="11.0695301"><ele>228.5</ele><time>2026-04-25T10:01:22.103Z</time></trkpt><trkpt lat="45.5257049" lon="11.0695138"><ele>230.0</ele><time>2026-04-25T10:01:23.102Z</time></trkpt><trkpt lat="45.5258241" lon="11.0694931"><ele>230.0</ele><time>2026-04-25T10:01:24.103Z</time></trkpt><trkpt lat="45.5259419" lon="11.0694692"><ele>230.0</ele><time>2026-04-25T10:01:25.102Z</time></trkpt><trkpt lat="45.5260536" lon="11.0694549"><ele>230.0</ele><time>2026-04-25T10:01:26.103Z</time></trkpt><trkpt lat="45.5261641" lon="11.0694571"><ele>230.0</ele><time>2026-04-25T10:01:27.102Z</time></trkpt><trkpt lat="45.5262753" lon="11.0694908"><ele>232.25</ele><time>2026-04-25T10:01:28.103Z</time></trkpt><trkpt lat="45.5263887" lon="11.0695479"><ele>234.5</ele><time>2026-04-25T10:01:29.102Z</time></trkpt><trkpt lat="45.5265045" lon="11.0696134"><ele>236.75</ele><time>2026-04-25T10:01:30.102Z</time></trkpt><trkpt lat="45.5266208" lon="11.069679"><ele>239.0</ele><time>2026-04-25T10:01:31.102Z</time></trkpt><trkpt lat="45.5267345" lon="11.0697392"><ele>239.0</ele><time>2026-04-25T10:01:32.103Z</time></trkpt><trkpt lat="45.5268494" lon="11.0697973"><ele>239.0</ele><time>2026-04-25T10:01:33.102Z</time></trkpt><trkpt lat="45.5269682" lon="11.0698554"><ele>239.0</ele><time>2026-04-25T10:01:34.103Z</time></trkpt><trkpt lat="45.5270901" lon="11.0698973"><ele>239.0</ele><time>2026-04-25T10:01:35.102Z</time></trkpt><trkpt lat="45.5272073" lon="11.0699399"><ele>238.5</ele><time>2026-04-25T10:01:36.104Z</time></trkpt><trkpt lat="45.5273214" lon="11.0699668"><ele>238.0</ele><time>2026-04-25T10:01:37.102Z</time></trkpt><trkpt lat="45.5274364" lon="11.0699751"><ele>237.5</ele><time>2026-04-25T10:01:38.104Z</time></trkpt><trkpt lat="45.5275536" lon="11.0699641"><ele>237.0</ele><time>2026-04-25T10:01:39.103Z</time></trkpt><trkpt lat="45.5276747" lon="11.0699386"><ele>239.25</ele><time>2026-04-25T10:01:40.103Z</time></trkpt><trkpt lat="45.5277876" lon="11.0699006"><ele>241.5</ele><time>2026-04-25T10:01:41.103Z</time></trkpt><trkpt lat="45.5279122" lon="11.0698552"><ele>243.75</ele><time>2026-04-25T10:01:42.103Z</time></trkpt><trkpt lat="45.5280267" lon="11.06981"><ele>246.0</ele><time>2026-04-25T10:01:43.103Z</time></trkpt><trkpt lat="45.5281438" lon="11.0697676"><ele>246.0</ele><time>2026-04-25T10:01:44.102Z</time></trkpt><trkpt lat="45.5282453" lon="11.0697236"><ele>246.00000000000003</ele><time>2026-04-25T10:01:45.102Z</time></trkpt><trkpt lat="45.5283579" lon="11.0696866"><ele>246.00000000000003</ele><time>2026-04-25T10:01:46.103Z</time></trkpt><trkpt lat="45.528466" lon="11.0696495"><ele>246.0</ele><time>2026-04-25T10:01:47.103Z</time></trkpt><trkpt lat="45.5285752" lon="11.0696427"><ele>246.0</ele><time>2026-04-25T10:01:48.102Z</time></trkpt><trkpt lat="45.5287165" lon="11.0696528"><ele>246.5</ele><time>2026-04-25T10:01:49.103Z</time></trkpt><trkpt lat="45.5288377" lon="11.0696543"><ele>247.0</ele><time>2026-04-25T10:01:50.103Z</time></trkpt><trkpt lat="45.5289667" lon="11.0696645"><ele>247.5</ele><time>2026-04-25T10:01:51.103Z</time></trkpt><trkpt lat="45.5290946" lon="11.0696802"><ele>248.0</ele><time>2026-04-25T10:01:52.102Z</time></trkpt><trkpt lat="45.5292226" lon="11.0697081"><ele>248.0</ele><time>2026-04-25T10:01:53.103Z</time></trkpt><trkpt lat="45.5293504" lon="11.0697403"><ele>248.0</ele><time>2026-04-25T10:01:54.103Z</time></trkpt><trkpt lat="45.5294745" lon="11.0697755"><ele>248.0</ele><time>2026-04-25T10:01:55.102Z</time></trkpt><trkpt lat="45.5295986" lon="11.0698074"><ele>248.0</ele><time>2026-04-25T10:01:56.102Z</time></trkpt><trkpt lat="45.5297217" lon="11.0698368"><ele>251.0</ele><time>2026-04-25T10:01:57.102Z</time></trkpt><trkpt lat="45.5298412" lon="11.0698574"><ele>254.0</ele><time>2026-04-25T10:01:58.103Z</time></trkpt><trkpt lat="45.5299544" lon="11.0698653"><ele>257.0</ele><time>2026-04-25T10:01:59.102Z</time></trkpt><trkpt lat="45.5300696" lon="11.0698601"><ele>260.0</ele><time>2026-04-25T10:02:00.103Z</time></trkpt><trkpt lat="45.5301791" lon="11.0698633"><ele>260.0</ele><time>2026-04-25T10:02:01.102Z</time></trkpt><trkpt lat="45.5302794" lon="11.0698843"><ele>260.0</ele><time>2026-04-25T10:02:02.102Z</time></trkpt><trkpt lat="45.5303716" lon="11.0699223"><ele>260.0</ele><time>2026-04-25T10:02:03.102Z</time></trkpt><trkpt lat="45.5304692" lon="11.0700201"><ele>260.0</ele><time>2026-04-25T10:02:04.102Z</time></trkpt><trkpt lat="45.5305613" lon="11.0701177"><ele>260.0</ele><time>2026-04-25T10:02:05.103Z</time></trkpt><trkpt lat="45.5306808" lon="11.070202"><ele>257.25</ele><time>2026-04-25T10:02:06.103Z</time></trkpt><trkpt lat="45.5307971" lon="11.0702688"><ele>254.5</ele><time>2026-04-25T10:02:07.102Z</time></trkpt><trkpt lat="45.5309205" lon="11.0703327"><ele>251.75</ele><time>2026-04-25T10:02:08.102Z</time></trkpt><trkpt lat="45.5310513" lon="11.0703593"><ele>249.0</ele><time>2026-04-25T10:02:09.103Z</time></trkpt><trkpt lat="45.5311862" lon="11.0703857"><ele>249.2</ele><time>2026-04-25T10:02:10.103Z</time></trkpt><trkpt lat="45.5313104" lon="11.0704072"><ele>249.39999999999998</ele><time>2026-04-25T10:02:11.102Z</time></trkpt><trkpt lat="45.5314257" lon="11.0704228"><ele>249.6</ele><time>2026-04-25T10:02:12.103Z</time></trkpt><trkpt lat="45.5315288" lon="11.070417"><ele>249.8</ele><time>2026-04-25T10:02:13.102Z</time></trkpt><trkpt lat="45.5316188" lon="11.0703913"><ele>250.0</ele><time>2026-04-25T10:02:14.102Z</time></trkpt><trkpt lat="45.5317046" lon="11.0703291"><ele>250.0</ele><time>2026-04-25T10:02:15.103Z</time></trkpt><trkpt lat="45.5317812" lon="11.0702288"><ele>250.0</ele><time>2026-04-25T10:02:16.103Z</time></trkpt><trkpt lat="45.5318534" lon="11.0701049"><ele>250.0</ele><time>2026-04-25T10:02:17.103Z</time></trkpt><trkpt lat="45.5319275" lon="11.0699714"><ele>250.0</ele><time>2026-04-25T10:02:18.103Z</time></trkpt><trkpt lat="45.5320092" lon="11.0698372"><ele>250.75</ele><time>2026-04-25T10:02:19.103Z</time></trkpt><trkpt lat="45.532094" lon="11.069698"><ele>251.5</ele><time>2026-04-25T10:02:20.102Z</time></trkpt><trkpt lat="45.5321809" lon="11.0695694"><ele>252.25</ele><time>2026-04-25T10:02:21.103Z</time></trkpt><trkpt lat="45.5322737" lon="11.0694633"><ele>253.0</ele><time>2026-04-25T10:02:22.102Z</time></trkpt><trkpt lat="45.5323791" lon="11.0693791"><ele>253.0</ele><time>2026-04-25T10:02:23.102Z</time></trkpt><trkpt lat="45.5324898" lon="11.0693271"><ele>253.0</ele><time>2026-04-25T10:02:24.103Z</time></trkpt><trkpt lat="45.53261" lon="11.0693086"><ele>253.0</ele><time>2026-04-25T10:02:25.102Z</time></trkpt><trkpt lat="45.5327355" lon="11.0693139"><ele>253.0</ele><time>2026-04-25T10:02:26.102Z</time></trkpt><trkpt lat="45.5328654" lon="11.0693374"><ele>255.25</ele><time>2026-04-25T10:02:27.103Z</time></trkpt><trkpt lat="45.5329927" lon="11.0693695"><ele>257.5</ele><time>2026-04-25T10:02:28.103Z</time></trkpt><trkpt lat="45.5331146" lon="11.0694019"><ele>259.75</ele><time>2026-04-25T10:02:29.102Z</time></trkpt><trkpt lat="45.5332262" lon="11.0694002"><ele>262.0</ele><time>2026-04-25T10:02:30.104Z</time></trkpt><trkpt lat="45.5333344" lon="11.0693568"><ele>262.0</ele><time>2026-04-25T10:02:31.103Z</time></trkpt><trkpt lat="45.5334414" lon="11.0692851"><ele>262.0</ele><time>2026-04-25T10:02:32.103Z</time></trkpt><trkpt lat="45.5335369" lon="11.0691892"><ele>262.0</ele><time>2026-04-25T10:02:33.102Z</time></trkpt><trkpt lat="45.5336134" lon="11.0690737"><ele>262.0</ele><time>2026-04-25T10:02:34.102Z</time></trkpt><trkpt lat="45.5336823" lon="11.0689691"><ele>262.0</ele><time>2026-04-25T10:02:35.103Z</time></trkpt><trkpt lat="45.5337465" lon="11.0688727"><ele>264.2</ele><time>2026-04-25T10:02:36.102Z</time></trkpt><trkpt lat="45.5338228" lon="11.0687878"><ele>266.4</ele><time>2026-04-25T10:02:37.102Z</time></trkpt><trkpt lat="45.5339052" lon="11.0687172"><ele>268.6</ele><time>2026-04-25T10:02:38.102Z</time></trkpt><trkpt lat="45.5339903" lon="11.0686633"><ele>270.8</ele><time>2026-04-25T10:02:39.102Z</time></trkpt><trkpt lat="45.5340732" lon="11.0686232"><ele>273.0</ele><time>2026-04-25T10:02:40.102Z</time></trkpt><trkpt lat="45.5341498" lon="11.0686103"><ele>273.0</ele><time>2026-04-25T10:02:41.104Z</time></trkpt><trkpt lat="45.5342219" lon="11.0686223"><ele>273.0</ele><time>2026-04-25T10:02:42.103Z</time></trkpt><trkpt lat="45.5342946" lon="11.0686755"><ele>273.0</ele><time>2026-04-25T10:02:43.103Z</time></trkpt><trkpt lat="45.5343624" lon="11.0687286"><ele>273.0</ele><time>2026-04-25T10:02:44.104Z</time></trkpt><trkpt lat="45.5344429" lon="11.068844"><ele>273.0</ele><time>2026-04-25T10:02:45.102Z</time></trkpt><trkpt lat="45.5345157" lon="11.0689361"><ele>273.0</ele><time>2026-04-25T10:02:46.103Z</time></trkpt><trkpt lat="45.5345908" lon="11.0690683"><ele>272.0</ele><time>2026-04-25T10:02:47.103Z</time></trkpt><trkpt lat="45.5346692" lon="11.0691828"><ele>271.0</ele><time>2026-04-25T10:02:48.102Z</time></trkpt><trkpt lat="45.5347515" lon="11.0693033"><ele>270.0</ele><time>2026-04-25T10:02:49.102Z</time></trkpt><trkpt lat="45.5348265" lon="11.0693997"><ele>269.0</ele><time>2026-04-25T10:02:50.103Z</time></trkpt><trkpt lat="45.5348996" lon="11.0694888"><ele>268.0</ele><time>2026-04-25T10:02:51.103Z</time></trkpt><trkpt lat="45.5349773" lon="11.0695804"><ele>268.0</ele><time>2026-04-25T10:02:52.103Z</time></trkpt><trkpt lat="45.5350666" lon="11.0696561"><ele>268.0</ele><time>2026-04-25T10:02:53.102Z</time></trkpt><trkpt lat="45.5351595" lon="11.0697133"><ele>268.0</ele><time>2026-04-25T10:02:54.103Z</time></trkpt><trkpt lat="45.535257" lon="11.0697501"><ele>268.0</ele><time>2026-04-25T10:02:55.102Z</time></trkpt><trkpt lat="45.5353575" lon="11.0697685"><ele>268.0</ele><time>2026-04-25T10:02:56.102Z</time></trkpt><trkpt lat="45.5354494" lon="11.0697785"><ele>271.66666666666663</ele><time>2026-04-25T10:02:57.102Z</time></trkpt><trkpt lat="45.53554" lon="11.0697774"><ele>275.3333333333333</ele><time>2026-04-25T10:02:58.102Z</time></trkpt><trkpt lat="45.5356232" lon="11.0697722"><ele>279.0</ele><time>2026-04-25T10:02:59.102Z</time></trkpt><trkpt lat="45.5356988" lon="11.0697756"><ele>282.6666666666667</ele><time>2026-04-25T10:03:00.103Z</time></trkpt><trkpt lat="45.5357725" lon="11.0697869"><ele>286.33333333333337</ele><time>2026-04-25T10:03:01.103Z</time></trkpt><trkpt lat="45.5358482" lon="11.0698054"><ele>290.0</ele><time>2026-04-25T10:03:02.103Z</time></trkpt><trkpt lat="45.535918" lon="11.0698279"><ele>290.0</ele><time>2026-04-25T10:03:03.102Z</time></trkpt><trkpt lat="45.5359876" lon="11.0698567"><ele>290.0</ele><time>2026-04-25T10:03:04.102Z</time></trkpt><trkpt lat="45.5360588" lon="11.0698922"><ele>290.0</ele><time>2026-04-25T10:03:05.103Z</time></trkpt><trkpt lat="45.5361324" lon="11.0699389"><ele>290.0</ele><time>2026-04-25T10:03:06.103Z</time></trkpt><trkpt lat="45.5361974" lon="11.0699995"><ele>290.0</ele><time>2026-04-25T10:03:07.103Z</time></trkpt><trkpt lat="45.5362572" lon="11.0700781"><ele>290.0</ele><time>2026-04-25T10:03:08.102Z</time></trkpt><trkpt lat="45.536309" lon="11.0701785"><ele>288.0</ele><time>2026-04-25T10:03:09.103Z</time></trkpt><trkpt lat="45.5363559" lon="11.0702933"><ele>286.0</ele><time>2026-04-25T10:03:10.102Z</time></trkpt><trkpt lat="45.5363912" lon="11.0704202"><ele>284.0</ele><time>2026-04-25T10:03:11.102Z</time></trkpt><trkpt lat="45.5364198" lon="11.0705517"><ele>282.0</ele><time>2026-04-25T10:03:12.103Z</time></trkpt><trkpt lat="45.5364466" lon="11.0706788"><ele>280.0</ele><time>2026-04-25T10:03:13.103Z</time></trkpt><trkpt lat="45.5365068" lon="11.0707897"><ele>280.0</ele><time>2026-04-25T10:03:14.102Z</time></trkpt><trkpt lat="45.5365781" lon="11.0708838"><ele>280.0</ele><time>2026-04-25T10:03:15.102Z</time></trkpt><trkpt lat="45.5366635" lon="11.0709603"><ele>280.0</ele><time>2026-04-25T10:03:16.104Z</time></trkpt><trkpt lat="45.5367628" lon="11.0710038"><ele>280.0</ele><time>2026-04-25T10:03:17.102Z</time></trkpt><trkpt lat="45.5368675" lon="11.0710248"><ele>280.0</ele><time>2026-04-25T10:03:18.102Z</time></trkpt><trkpt lat="45.5369804" lon="11.0710333"><ele>282.4</ele><time>2026-04-25T10:03:19.102Z</time></trkpt><trkpt lat="45.5370904" lon="11.0710316"><ele>284.8</ele><time>2026-04-25T10:03:20.104Z</time></trkpt><trkpt lat="45.5371985" lon="11.0710308"><ele>287.2</ele><time>2026-04-25T10:03:21.102Z</time></trkpt><trkpt lat="45.5372999" lon="11.0710467"><ele>289.6</ele><time>2026-04-25T10:03:22.102Z</time></trkpt><trkpt lat="45.5373978" lon="11.0710914"><ele>292.0</ele><time>2026-04-25T10:03:23.102Z</time></trkpt><trkpt lat="45.5374875" lon="11.0711559"><ele>292.0</ele><time>2026-04-25T10:03:24.102Z</time></trkpt><trkpt lat="45.5375765" lon="11.0712314"><ele>292.0</ele><time>2026-04-25T10:03:25.102Z</time></trkpt><trkpt lat="45.5376649" lon="11.0713182"><ele>292.0</ele><time>2026-04-25T10:03:26.104Z</time></trkpt><trkpt lat="45.5377493" lon="11.0714162"><ele>292.0</ele><time>2026-04-25T10:03:27.103Z</time></trkpt><trkpt lat="45.5378355" lon="11.0715208"><ele>292.0</ele><time>2026-04-25T10:03:28.103Z</time></trkpt><trkpt lat="45.5379222" lon="11.0716298"><ele>292.2</ele><time>2026-04-25T10:03:29.103Z</time></trkpt><trkpt lat="45.538013" lon="11.0717315"><ele>292.4</ele><time>2026-04-25T10:03:30.102Z</time></trkpt><trkpt lat="45.5381151" lon="11.0718145"><ele>292.6</ele><time>2026-04-25T10:03:31.102Z</time></trkpt><trkpt lat="45.538221" lon="11.071871"><ele>292.8</ele><time>2026-04-25T10:03:32.102Z</time></trkpt><trkpt lat="45.5383194" lon="11.0718982"><ele>293.0</ele><time>2026-04-25T10:03:33.102Z</time></trkpt><trkpt lat="45.5384228" lon="11.0718909"><ele>293.0</ele><time>2026-04-25T10:03:34.102Z</time></trkpt><trkpt lat="45.5385231" lon="11.0718599"><ele>293.0</ele><time>2026-04-25T10:03:35.103Z</time></trkpt><trkpt lat="45.5386297" lon="11.0718085"><ele>293.0</ele><time>2026-04-25T10:03:36.103Z</time></trkpt><trkpt lat="45.5387357" lon="11.0717592"><ele>293.0</ele><time>2026-04-25T10:03:37.102Z</time></trkpt><trkpt lat="45.5388448" lon="11.071723"><ele>293.0</ele><time>2026-04-25T10:03:38.102Z</time></trkpt><trkpt lat="45.5389558" lon="11.0717026"><ele>293.8</ele><time>2026-04-25T10:03:39.103Z</time></trkpt><trkpt lat="45.5390678" lon="11.071717"><ele>294.6</ele><time>2026-04-25T10:03:40.103Z</time></trkpt><trkpt lat="45.5391816" lon="11.0717471"><ele>295.4</ele><time>2026-04-25T10:03:41.104Z</time></trkpt><trkpt lat="45.5392833" lon="11.071787"><ele>296.2</ele><time>2026-04-25T10:03:42.102Z</time></trkpt><trkpt lat="45.5393795" lon="11.0718479"><ele>297.0</ele><time>2026-04-25T10:03:43.103Z</time></trkpt><trkpt lat="45.5394658" lon="11.0719273"><ele>297.0</ele><time>2026-04-25T10:03:44.102Z</time></trkpt><trkpt lat="45.5395503" lon="11.0720257"><ele>297.0</ele><time>2026-04-25T10:03:45.103Z</time></trkpt><trkpt lat="45.5396409" lon="11.0721314"><ele>297.0</ele><time>2026-04-25T10:03:46.103Z</time></trkpt><trkpt lat="45.539733" lon="11.0722419"><ele>297.0</ele><time>2026-04-25T10:03:47.103Z</time></trkpt><trkpt lat="45.5398257" lon="11.0723542"><ele>297.5</ele><time>2026-04-25T10:03:48.102Z</time></trkpt><trkpt lat="45.5399213" lon="11.0724668"><ele>298.0</ele><time>2026-04-25T10:03:49.102Z</time></trkpt><trkpt lat="45.5400112" lon="11.0725791"><ele>298.5</ele><time>2026-04-25T10:03:50.103Z</time></trkpt><trkpt lat="45.5401013" lon="11.0726764"><ele>299.0</ele><time>2026-04-25T10:03:51.103Z</time></trkpt><trkpt lat="45.5402012" lon="11.0727483"><ele>299.0</ele><time>2026-04-25T10:03:52.102Z</time></trkpt><trkpt lat="45.5403008" lon="11.0727783"><ele>299.0</ele><time>2026-04-25T10:03:53.103Z</time></trkpt><trkpt lat="45.5404094" lon="11.0727541"><ele>299.0</ele><time>2026-04-25T10:03:54.102Z</time></trkpt><trkpt lat="45.5405117" lon="11.0726896"><ele>299.0</ele><time>2026-04-25T10:03:55.102Z</time></trkpt><trkpt lat="45.5406069" lon="11.0726082"><ele>299.0</ele><time>2026-04-25T10:03:56.102Z</time></trkpt><trkpt lat="45.5406954" lon="11.0725318"><ele>301.2</ele><time>2026-04-25T10:03:57.103Z</time></trkpt><trkpt lat="45.5407915" lon="11.0724799"><ele>303.4</ele><time>2026-04-25T10:03:58.104Z</time></trkpt><trkpt lat="45.5408903" lon="11.0724553"><ele>305.6</ele><time>2026-04-25T10:03:59.103Z</time></trkpt><trkpt lat="45.5409947" lon="11.0724612"><ele>307.8</ele><time>2026-04-25T10:04:00.102Z</time></trkpt><trkpt lat="45.5411011" lon="11.0724896"><ele>310.0</ele><time>2026-04-25T10:04:01.102Z</time></trkpt><trkpt lat="45.5412126" lon="11.0725317"><ele>311.25</ele><time>2026-04-25T10:04:02.103Z</time></trkpt><trkpt lat="45.5413251" lon="11.0725805"><ele>312.5</ele><time>2026-04-25T10:04:03.103Z</time></trkpt><trkpt lat="45.5414374" lon="11.0726381"><ele>313.75</ele><time>2026-04-25T10:04:04.102Z</time></trkpt><trkpt lat="45.5415422" lon="11.0726839"><ele>315.0</ele><time>2026-04-25T10:04:05.102Z</time></trkpt><trkpt lat="45.5416504" lon="11.0726876"><ele>315.0</ele><time>2026-04-25T10:04:06.103Z</time></trkpt><trkpt lat="45.5417625" lon="11.0727001"><ele>315.0</ele><time>2026-04-25T10:04:07.102Z</time></trkpt><trkpt lat="45.5418742" lon="11.072682"><ele>315.0</ele><time>2026-04-25T10:04:08.102Z</time></trkpt><trkpt lat="45.5419785" lon="11.0726389"><ele>315.0</ele><time>2026-04-25T10:04:09.102Z</time></trkpt><trkpt lat="45.5420738" lon="11.0726002"><ele>315.0</ele><time>2026-04-25T10:04:10.103Z</time></trkpt><trkpt lat="45.542174" lon="11.0725955"><ele>315.75</ele><time>2026-04-25T10:04:11.102Z</time></trkpt><trkpt lat="45.5422768" lon="11.0726164"><ele>316.5</ele><time>2026-04-25T10:04:12.104Z</time></trkpt><trkpt lat="45.542387" lon="11.0726474"><ele>317.25</ele><time>2026-04-25T10:04:13.102Z</time></trkpt><trkpt lat="45.5425034" lon="11.0727045"><ele>318.0</ele><time>2026-04-25T10:04:14.103Z</time></trkpt><trkpt lat="45.5426235" lon="11.0727713"><ele>318.0</ele><time>2026-04-25T10:04:15.103Z</time></trkpt><trkpt lat="45.5427461" lon="11.0727984"><ele>318.0</ele><time>2026-04-25T10:04:16.103Z</time></trkpt><trkpt lat="45.5428707" lon="11.0728344"><ele>318.0</ele><time>2026-04-25T10:04:17.103Z</time></trkpt><trkpt lat="45.5429908" lon="11.0728657"><ele>318.0</ele><time>2026-04-25T10:04:18.102Z</time></trkpt><trkpt lat="45.5431113" lon="11.0728865"><ele>320.25</ele><time>2026-04-25T10:04:19.103Z</time></trkpt><trkpt lat="45.5432365" lon="11.0728951"><ele>322.5</ele><time>2026-04-25T10:04:20.102Z</time></trkpt><trkpt lat="45.5433612" lon="11.0728827"><ele>324.75</ele><time>2026-04-25T10:04:21.103Z</time></trkpt><trkpt lat="45.543485" lon="11.0728471"><ele>327.0</ele><time>2026-04-25T10:04:22.102Z</time></trkpt><trkpt lat="45.5436039" lon="11.0727842"><ele>327.0</ele><time>2026-04-25T10:04:23.102Z</time></trkpt><trkpt lat="45.5437111" lon="11.0726937"><ele>327.0</ele><time>2026-04-25T10:04:24.104Z</time></trkpt><trkpt lat="45.5437968" lon="11.0725946"><ele>327.0</ele><time>2026-04-25T10:04:25.103Z</time></trkpt><trkpt lat="45.5438719" lon="11.0724846"><ele>327.0</ele><time>2026-04-25T10:04:26.102Z</time></trkpt><trkpt lat="45.5439387" lon="11.0723599"><ele>328.8</ele><time>2026-04-25T10:04:27.102Z</time></trkpt><trkpt lat="45.5440079" lon="11.0722373"><ele>330.6</ele><time>2026-04-25T10:04:28.102Z</time></trkpt><trkpt lat="45.544083" lon="11.0721278"><ele>332.40000000000003</ele><time>2026-04-25T10:04:29.103Z</time></trkpt><trkpt lat="45.5441675" lon="11.0720275"><ele>334.20000000000005</ele><time>2026-04-25T10:04:30.103Z</time></trkpt><trkpt lat="45.5442663" lon="11.0719462"><ele>336.0</ele><time>2026-04-25T10:04:31.103Z</time></trkpt><trkpt lat="45.5443768" lon="11.0718915"><ele>336.0</ele><time>2026-04-25T10:04:32.103Z</time></trkpt><trkpt lat="45.5444947" lon="11.0718592"><ele>336.0</ele><time>2026-04-25T10:04:33.102Z</time></trkpt><trkpt lat="45.5446171" lon="11.0718488"><ele>336.0</ele><time>2026-04-25T10:04:34.103Z</time></trkpt><trkpt lat="45.5447442" lon="11.0718603"><ele>336.0</ele><time>2026-04-25T10:04:35.103Z</time></trkpt><trkpt lat="45.5448714" lon="11.0718818"><ele>338.0</ele><time>2026-04-25T10:04:36.102Z</time></trkpt><trkpt lat="45.5449977" lon="11.0719086"><ele>340.0</ele><time>2026-04-25T10:04:37.103Z</time></trkpt><trkpt lat="45.5451134" lon="11.0719484"><ele>342.0</ele><time>2026-04-25T10:04:38.102Z</time></trkpt><trkpt lat="45.5452285" lon="11.0720013"><ele>344.0</ele><time>2026-04-25T10:04:39.103Z</time></trkpt><trkpt lat="45.5453385" lon="11.072056"><ele>347.25</ele><time>2026-04-25T10:04:40.102Z</time></trkpt><trkpt lat="45.5454462" lon="11.0721248"><ele>350.5</ele><time>2026-04-25T10:04:41.102Z</time></trkpt><trkpt lat="45.5455507" lon="11.0722036"><ele>353.75</ele><time>2026-04-25T10:04:42.103Z</time></trkpt><trkpt lat="45.5456525" lon="11.0722984"><ele>357.0</ele><time>2026-04-25T10:04:43.102Z</time></trkpt><trkpt lat="45.5457372" lon="11.0724071"><ele>353.75</ele><time>2026-04-25T10:04:44.103Z</time></trkpt><trkpt lat="45.5458345" lon="11.0724982"><ele>350.5</ele><time>2026-04-25T10:04:45.102Z</time></trkpt><trkpt lat="45.5459437" lon="11.0725638"><ele>347.25</ele><time>2026-04-25T10:04:46.104Z</time></trkpt><trkpt lat="45.5460662" lon="11.0726046"><ele>344.0</ele><time>2026-04-25T10:04:47.102Z</time></trkpt><trkpt lat="45.5461976" lon="11.0726406"><ele>345.25</ele><time>2026-04-25T10:04:48.103Z</time></trkpt><trkpt lat="45.5463195" lon="11.0726256"><ele>346.5</ele><time>2026-04-25T10:04:49.102Z</time></trkpt><trkpt lat="45.5464406" lon="11.0726262"><ele>347.75</ele><time>2026-04-25T10:04:50.103Z</time></trkpt><trkpt lat="45.5465522" lon="11.0726241"><ele>349.0</ele><time>2026-04-25T10:04:51.103Z</time></trkpt><trkpt lat="45.5466646" lon="11.0726122"><ele>349.0</ele><time>2026-04-25T10:04:52.102Z</time></trkpt><trkpt lat="45.5467727" lon="11.072603"><ele>349.0</ele><time>2026-04-25T10:04:53.103Z</time></trkpt><trkpt lat="45.5468834" lon="11.0725871"><ele>349.0</ele><time>2026-04-25T10:04:54.102Z</time></trkpt><trkpt lat="45.5469986" lon="11.0725611"><ele>349.0</ele><time>2026-04-25T10:04:55.102Z</time></trkpt><trkpt lat="45.5471134" lon="11.0725232"><ele>350.2</ele><time>2026-04-25T10:04:56.102Z</time></trkpt><trkpt lat="45.5472213" lon="11.0724796"><ele>351.4</ele><time>2026-04-25T10:04:57.102Z</time></trkpt><trkpt lat="45.5473156" lon="11.0724294"><ele>352.6</ele><time>2026-04-25T10:04:58.102Z</time></trkpt><trkpt lat="45.5474073" lon="11.0723679"><ele>353.8</ele><time>2026-04-25T10:04:59.103Z</time></trkpt><trkpt lat="45.5474941" lon="11.0722872"><ele>355.0</ele><time>2026-04-25T10:05:00.103Z</time></trkpt><trkpt lat="45.5475664" lon="11.0721962"><ele>355.0</ele><time>2026-04-25T10:05:01.102Z</time></trkpt><trkpt lat="45.5476222" lon="11.0720844"><ele>355.0</ele><time>2026-04-25T10:05:02.103Z</time></trkpt><trkpt lat="45.5476629" lon="11.0719693"><ele>355.0</ele><time>2026-04-25T10:05:03.102Z</time></trkpt><trkpt lat="45.5476766" lon="11.0718233"><ele>355.0</ele><time>2026-04-25T10:05:04.102Z</time></trkpt><trkpt lat="45.5476792" lon="11.0716802"><ele>355.0</ele><time>2026-04-25T10:05:05.103Z</time></trkpt><trkpt lat="45.5477019" lon="11.0715623"><ele>357.0</ele><time>2026-04-25T10:05:06.102Z</time></trkpt><trkpt lat="45.5477411" lon="11.0714696"><ele>359.0</ele><time>2026-04-25T10:05:07.102Z</time></trkpt><trkpt lat="45.5478039" lon="11.0714096"><ele>361.0</ele><time>2026-04-25T10:05:08.103Z</time></trkpt><trkpt lat="45.5478819" lon="11.0713829"><ele>363.0</ele><time>2026-04-25T10:05:09.103Z</time></trkpt><trkpt lat="45.5479733" lon="11.0713717"><ele>365.0</ele><time>2026-04-25T10:05:10.103Z</time></trkpt><trkpt lat="45.548077" lon="11.0713739"><ele>367.0</ele><time>2026-04-25T10:05:11.102Z</time></trkpt><trkpt lat="45.5481831" lon="11.0713847"><ele>367.0</ele><time>2026-04-25T10:05:12.102Z</time></trkpt><trkpt lat="45.54829" lon="11.0713952"><ele>367.0</ele><time>2026-04-25T10:05:13.102Z</time></trkpt><trkpt lat="45.548406" lon="11.0713873"><ele>367.0</ele><time>2026-04-25T10:05:14.102Z</time></trkpt><trkpt lat="45.5485078" lon="11.0713338"><ele>367.0</ele><time>2026-04-25T10:05:15.103Z</time></trkpt><trkpt lat="45.5486147" lon="11.0712973"><ele>367.0</ele><time>2026-04-25T10:05:16.102Z</time></trkpt><trkpt lat="45.5487215" lon="11.071255"><ele>367.40000000000003</ele><time>2026-04-25T10:05:17.102Z</time></trkpt><trkpt lat="45.5488282" lon="11.0711943"><ele>367.8</ele><time>2026-04-25T10:05:18.103Z</time></trkpt><trkpt lat="45.5489317" lon="11.0711389"><ele>368.2</ele><time>2026-04-25T10:05:19.103Z</time></trkpt><trkpt lat="45.5490343" lon="11.0710755"><ele>368.6</ele><time>2026-04-25T10:05:20.102Z</time></trkpt><trkpt lat="45.5491333" lon="11.0710113"><ele>369.0</ele><time>2026-04-25T10:05:21.102Z</time></trkpt><trkpt lat="45.5492255" lon="11.0709665"><ele>369.0</ele><time>2026-04-25T10:05:22.102Z</time></trkpt><trkpt lat="45.549317" lon="11.070945"><ele>369.0</ele><time>2026-04-25T10:05:23.102Z</time></trkpt><trkpt lat="45.5494091" lon="11.070952"><ele>369.0</ele><time>2026-04-25T10:05:24.102Z</time></trkpt><trkpt lat="45.5495087" lon="11.0709788"><ele>369.0</ele><time>2026-04-25T10:05:25.103Z</time></trkpt><trkpt lat="45.5495964" lon="11.0710249"><ele>369.0</ele><time>2026-04-25T10:05:26.103Z</time></trkpt><trkpt lat="45.5496985" lon="11.0710531"><ele>369.4</ele><time>2026-04-25T10:05:27.102Z</time></trkpt><trkpt lat="45.5498019" lon="11.0710388"><ele>369.79999999999995</ele><time>2026-04-25T10:05:28.102Z</time></trkpt><trkpt lat="45.5499048" lon="11.0709889"><ele>370.20000000000005</ele><time>2026-04-25T10:05:29.103Z</time></trkpt><trkpt lat="45.55001" lon="11.0709416"><ele>370.6</ele><time>2026-04-25T10:05:30.103Z</time></trkpt><trkpt lat="45.5501162" lon="11.0708875"><ele>371.0</ele><time>2026-04-25T10:05:31.103Z</time></trkpt><trkpt lat="45.550218" lon="11.0708189"><ele>374.75</ele><time>2026-04-25T10:05:32.103Z</time></trkpt><trkpt lat="45.5503249" lon="11.0707605"><ele>378.5</ele><time>2026-04-25T10:05:33.102Z</time></trkpt><trkpt lat="45.5504357" lon="11.0707048"><ele>382.25</ele><time>2026-04-25T10:05:34.103Z</time></trkpt><trkpt lat="45.5505431" lon="11.0706502"><ele>386.0</ele><time>2026-04-25T10:05:35.103Z</time></trkpt><trkpt lat="45.55065" lon="11.0705889"><ele>386.0</ele><time>2026-04-25T10:05:36.102Z</time></trkpt><trkpt lat="45.5507458" lon="11.0704983"><ele>386.0</ele><time>2026-04-25T10:05:37.103Z</time></trkpt><trkpt lat="45.5508273" lon="11.0703776"><ele>386.0</ele><time>2026-04-25T10:05:38.104Z</time></trkpt><trkpt lat="45.5509024" lon="11.0702609"><ele>386.0</ele><time>2026-04-25T10:05:39.103Z</time></trkpt><trkpt lat="45.5509857" lon="11.0701523"><ele>386.0</ele><time>2026-04-25T10:05:40.102Z</time></trkpt><trkpt lat="45.55108" lon="11.0700586"><ele>386.0</ele><time>2026-04-25T10:05:41.104Z</time></trkpt><trkpt lat="45.5511839" lon="11.0699927"><ele>386.0</ele><time>2026-04-25T10:05:42.104Z</time></trkpt><trkpt lat="45.5512899" lon="11.0699475"><ele>386.0</ele><time>2026-04-25T10:05:43.103Z</time></trkpt><trkpt lat="45.5514012" lon="11.0699321"><ele>389.5</ele><time>2026-04-25T10:05:44.102Z</time></trkpt><trkpt lat="45.5515133" lon="11.0699329"><ele>393.0</ele><time>2026-04-25T10:05:45.102Z</time></trkpt><trkpt lat="45.5516278" lon="11.0699347"><ele>396.5</ele><time>2026-04-25T10:05:46.103Z</time></trkpt><trkpt lat="45.5517404" lon="11.0699033"><ele>400.0</ele><time>2026-04-25T10:05:47.104Z</time></trkpt><trkpt lat="45.5518483" lon="11.0698422"><ele>400.0</ele><time>2026-04-25T10:05:48.102Z</time></trkpt><trkpt lat="45.5519627" lon="11.0697795"><ele>400.0</ele><time>2026-04-25T10:05:49.103Z</time></trkpt><trkpt lat="45.5520322" lon="11.069653"><ele>400.0</ele><time>2026-04-25T10:05:50.102Z</time></trkpt><trkpt lat="45.5521155" lon="11.0695664"><ele>400.0</ele><time>2026-04-25T10:05:51.103Z</time></trkpt><trkpt lat="45.5521893" lon="11.069479"><ele>400.0</ele><time>2026-04-25T10:05:52.102Z</time></trkpt><trkpt lat="45.5522546" lon="11.0694221"><ele>398.50000000000006</ele><time>2026-04-25T10:05:53.103Z</time></trkpt><trkpt lat="45.5523221" lon="11.0693745"><ele>397.0</ele><time>2026-04-25T10:05:54.102Z</time></trkpt><trkpt lat="45.5524038" lon="11.0693564"><ele>395.5</ele><time>2026-04-25T10:05:55.103Z</time></trkpt><trkpt lat="45.5524921" lon="11.0693365"><ele>394.0</ele><time>2026-04-25T10:05:56.102Z</time></trkpt><trkpt lat="45.5525905" lon="11.069331"><ele>392.50000000000006</ele><time>2026-04-25T10:05:57.102Z</time></trkpt><trkpt lat="45.5526937" lon="11.0693356"><ele>391.0</ele><time>2026-04-25T10:05:58.103Z</time></trkpt><trkpt lat="45.552795" lon="11.0693544"><ele>393.20000000000005</ele><time>2026-04-25T10:05:59.103Z</time></trkpt><trkpt lat="45.552901" lon="11.0693755"><ele>395.40000000000003</ele><time>2026-04-25T10:06:00.104Z</time></trkpt><trkpt lat="45.5530022" lon="11.0694056"><ele>397.6</ele><time>2026-04-25T10:06:01.102Z</time></trkpt><trkpt lat="45.5531092" lon="11.0694483"><ele>399.8</ele><time>2026-04-25T10:06:02.104Z</time></trkpt><trkpt lat="45.5532185" lon="11.0695357"><ele>402.0</ele><time>2026-04-25T10:06:03.103Z</time></trkpt><trkpt lat="45.5533267" lon="11.0696215"><ele>402.0</ele><time>2026-04-25T10:06:04.102Z</time></trkpt><trkpt lat="45.5534288" lon="11.0696944"><ele>402.0</ele><time>2026-04-25T10:06:05.103Z</time></trkpt><trkpt lat="45.5535223" lon="11.0697423"><ele>402.0</ele><time>2026-04-25T10:06:06.102Z</time></trkpt><trkpt lat="45.553636" lon="11.0697743"><ele>402.0</ele><time>2026-04-25T10:06:07.104Z</time></trkpt><trkpt lat="45.5537355" lon="11.0698161"><ele>402.0</ele><time>2026-04-25T10:06:08.102Z</time></trkpt><trkpt lat="45.5538428" lon="11.0698202"><ele>402.8</ele><time>2026-04-25T10:06:09.103Z</time></trkpt><trkpt lat="45.5539554" lon="11.0698114"><ele>403.6</ele><time>2026-04-25T10:06:10.102Z</time></trkpt><trkpt lat="45.5540657" lon="11.0697765"><ele>404.40000000000003</ele><time>2026-04-25T10:06:11.102Z</time></trkpt><trkpt lat="45.5541726" lon="11.0697685"><ele>405.20000000000005</ele><time>2026-04-25T10:06:12.102Z</time></trkpt><trkpt lat="45.5542485" lon="11.0696667"><ele>406.0</ele><time>2026-04-25T10:06:13.103Z</time></trkpt><trkpt lat="45.5543203" lon="11.0695722"><ele>406.00000000000006</ele><time>2026-04-25T10:06:14.103Z</time></trkpt><trkpt lat="45.5543994" lon="11.0695178"><ele>406.0</ele><time>2026-04-25T10:06:15.103Z</time></trkpt><trkpt lat="45.5544615" lon="11.0694509"><ele>406.0</ele><time>2026-04-25T10:06:16.103Z</time></trkpt><trkpt lat="45.5545266" lon="11.0694032"><ele>406.0</ele><time>2026-04-25T10:06:17.102Z</time></trkpt><trkpt lat="45.5546004" lon="11.0693716"><ele>406.00000000000006</ele><time>2026-04-25T10:06:18.103Z</time></trkpt><trkpt lat="45.5546814" lon="11.0693541"><ele>406.0</ele><time>2026-04-25T10:06:19.103Z</time></trkpt><trkpt lat="45.5547736" lon="11.0693557"><ele>406.4</ele><time>2026-04-25T10:06:20.102Z</time></trkpt><trkpt lat="45.5548789" lon="11.0693891"><ele>406.8</ele><time>2026-04-25T10:06:21.103Z</time></trkpt><trkpt lat="45.5549801" lon="11.0693982"><ele>407.2</ele><time>2026-04-25T10:06:22.103Z</time></trkpt><trkpt lat="45.5550772" lon="11.0694122"><ele>407.59999999999997</ele><time>2026-04-25T10:06:23.103Z</time></trkpt><trkpt lat="45.5551698" lon="11.0694346"><ele>408.0</ele><time>2026-04-25T10:06:24.102Z</time></trkpt><trkpt lat="45.5552652" lon="11.0694681"><ele>408.0</ele><time>2026-04-25T10:06:25.104Z</time></trkpt><trkpt lat="45.5553626" lon="11.0695137"><ele>408.0</ele><time>2026-04-25T10:06:26.102Z</time></trkpt><trkpt lat="45.5554574" lon="11.0695653"><ele>408.0</ele><time>2026-04-25T10:06:27.102Z</time></trkpt><trkpt lat="45.5555462" lon="11.0696182"><ele>408.0</ele><time>2026-04-25T10:06:28.103Z</time></trkpt><trkpt lat="45.5556439" lon="11.069674"><ele>408.0</ele><time>2026-04-25T10:06:29.103Z</time></trkpt><trkpt lat="45.5557366" lon="11.0697262"><ele>409.75</ele><time>2026-04-25T10:06:30.103Z</time></trkpt><trkpt lat="45.555848" lon="11.0697503"><ele>411.5</ele><time>2026-04-25T10:06:31.102Z</time></trkpt><trkpt lat="45.5559657" lon="11.0697706"><ele>413.25</ele><time>2026-04-25T10:06:32.104Z</time></trkpt><trkpt lat="45.5560838" lon="11.069778"><ele>415.0</ele><time>2026-04-25T10:06:33.102Z</time></trkpt><trkpt lat="45.5562023" lon="11.0697749"><ele>417.0</ele><time>2026-04-25T10:06:34.102Z</time></trkpt><trkpt lat="45.5563311" lon="11.0697804"><ele>419.0</ele><time>2026-04-25T10:06:35.102Z</time></trkpt><trkpt lat="45.5564447" lon="11.0697731"><ele>421.0</ele><time>2026-04-25T10:06:36.103Z</time></trkpt><trkpt lat="45.5565562" lon="11.0697745"><ele>423.0</ele><time>2026-04-25T10:06:37.102Z</time></trkpt><trkpt lat="45.5566706" lon="11.0697988"><ele>423.0</ele><time>2026-04-25T10:06:38.102Z</time></trkpt><trkpt lat="45.5567836" lon="11.0698178"><ele>423.0</ele><time>2026-04-25T10:06:39.102Z</time></trkpt><trkpt lat="45.5568956" lon="11.0698521"><ele>423.0</ele><time>2026-04-25T10:06:40.103Z</time></trkpt><trkpt lat="45.5570113" lon="11.0698957"><ele>423.0</ele><time>2026-04-25T10:06:41.102Z</time></trkpt><trkpt lat="45.5571196" lon="11.0699145"><ele>424.75</ele><time>2026-04-25T10:06:42.103Z</time></trkpt><trkpt lat="45.5572425" lon="11.0699361"><ele>426.5</ele><time>2026-04-25T10:06:43.103Z</time></trkpt><trkpt lat="45.5573651" lon="11.0699293"><ele>428.25</ele><time>2026-04-25T10:06:44.102Z</time></trkpt><trkpt lat="45.5574927" lon="11.0699297"><ele>430.0</ele><time>2026-04-25T10:06:45.103Z</time></trkpt><trkpt lat="45.5576185" lon="11.0699226"><ele>430.0</ele><time>2026-04-25T10:06:46.102Z</time></trkpt><trkpt lat="45.5577384" lon="11.0699068"><ele>430.0</ele><time>2026-04-25T10:06:47.103Z</time></trkpt><trkpt lat="45.5578609" lon="11.0698663"><ele>430.0</ele><time>2026-04-25T10:06:48.102Z</time></trkpt><trkpt lat="45.5579761" lon="11.0698125"><ele>430.0</ele><time>2026-04-25T10:06:49.102Z</time></trkpt><trkpt lat="45.5580822" lon="11.0697486"><ele>430.0</ele><time>2026-04-25T10:06:50.102Z</time></trkpt><trkpt lat="45.5581909" lon="11.0697045"><ele>430.0</ele><time>2026-04-25T10:06:51.102Z</time></trkpt><trkpt lat="45.558303" lon="11.0696646"><ele>430.0</ele><time>2026-04-25T10:06:52.102Z</time></trkpt><trkpt lat="45.5584228" lon="11.0696552"><ele>430.0</ele><time>2026-04-25T10:06:53.103Z</time></trkpt><trkpt lat="45.5585457" lon="11.0696596"><ele>430.0</ele><time>2026-04-25T10:06:54.102Z</time></trkpt><trkpt lat="45.5586662" lon="11.0696762"><ele>430.0</ele><time>2026-04-25T10:06:55.103Z</time></trkpt><trkpt lat="45.5587921" lon="11.06972"><ele>430.0</ele><time>2026-04-25T10:06:56.103Z</time></trkpt><trkpt lat="45.5589184" lon="11.0697467"><ele>430.0</ele><time>2026-04-25T10:06:57.103Z</time></trkpt><trkpt lat="45.5590418" lon="11.0697637"><ele>429.25</ele><time>2026-04-25T10:06:58.102Z</time></trkpt><trkpt lat="45.5591612" lon="11.0697589"><ele>428.5</ele><time>2026-04-25T10:06:59.103Z</time></trkpt><trkpt lat="45.5592751" lon="11.069724"><ele>427.75</ele><time>2026-04-25T10:07:00.103Z</time></trkpt><trkpt lat="45.559386" lon="11.0696729"><ele>427.0</ele><time>2026-04-25T10:07:01.102Z</time></trkpt><trkpt lat="45.5594819" lon="11.0695988"><ele>427.0</ele><time>2026-04-25T10:07:02.103Z</time></trkpt><trkpt lat="45.5595652" lon="11.0695046"><ele>427.00000000000006</ele><time>2026-04-25T10:07:03.103Z</time></trkpt><trkpt lat="45.5596456" lon="11.069404"><ele>427.00000000000006</ele><time>2026-04-25T10:07:04.103Z</time></trkpt><trkpt lat="45.559725" lon="11.0692941"><ele>427.0</ele><time>2026-04-25T10:07:05.102Z</time></trkpt><trkpt lat="45.5598232" lon="11.0692072"><ele>427.0</ele><time>2026-04-25T10:07:06.103Z</time></trkpt><trkpt lat="45.5599272" lon="11.0691318"><ele>429.0</ele><time>2026-04-25T10:07:07.103Z</time></trkpt><trkpt lat="45.5600354" lon="11.0690663"><ele>431.00000000000006</ele><time>2026-04-25T10:07:08.102Z</time></trkpt><trkpt lat="45.5601317" lon="11.0690119"><ele>433.00000000000006</ele><time>2026-04-25T10:07:09.102Z</time></trkpt><trkpt lat="45.5602237" lon="11.0689662"><ele>435.0</ele><time>2026-04-25T10:07:10.102Z</time></trkpt><trkpt lat="45.5603209" lon="11.0689467"><ele>437.0</ele><time>2026-04-25T10:07:11.103Z</time></trkpt><trkpt lat="45.5604227" lon="11.0689602"><ele>437.0</ele><time>2026-04-25T10:07:12.103Z</time></trkpt><trkpt lat="45.560529" lon="11.0689833"><ele>437.0</ele><time>2026-04-25T10:07:13.102Z</time></trkpt><trkpt lat="45.5606378" lon="11.0690264"><ele>437.0</ele><time>2026-04-25T10:07:14.103Z</time></trkpt><trkpt lat="45.5607529" lon="11.0690766"><ele>437.0</ele><time>2026-04-25T10:07:15.104Z</time></trkpt><trkpt lat="45.5608713" lon="11.0691122"><ele>437.0</ele><time>2026-04-25T10:07:16.102Z</time></trkpt><trkpt lat="45.5609974" lon="11.0690936"><ele>437.0</ele><time>2026-04-25T10:07:17.102Z</time></trkpt><trkpt lat="45.5611127" lon="11.0690508"><ele>437.0</ele><time>2026-04-25T10:07:18.104Z</time></trkpt><trkpt lat="45.5612215" lon="11.0689828"><ele>437.0</ele><time>2026-04-25T10:07:19.102Z</time></trkpt><trkpt lat="45.5613283" lon="11.0688959"><ele>434.5</ele><time>2026-04-25T10:07:20.102Z</time></trkpt><trkpt lat="45.5614286" lon="11.0687885"><ele>432.0</ele><time>2026-04-25T10:07:21.104Z</time></trkpt><trkpt lat="45.5615337" lon="11.0686717"><ele>429.5</ele><time>2026-04-25T10:07:22.103Z</time></trkpt><trkpt lat="45.5616471" lon="11.068569"><ele>427.0</ele><time>2026-04-25T10:07:23.103Z</time></trkpt><trkpt lat="45.5617607" lon="11.0684649"><ele>427.0</ele><time>2026-04-25T10:07:24.102Z</time></trkpt><trkpt lat="45.5618648" lon="11.0683542"><ele>427.0</ele><time>2026-04-25T10:07:25.102Z</time></trkpt><trkpt lat="45.561957" lon="11.0682314"><ele>427.0</ele><time>2026-04-25T10:07:26.102Z</time></trkpt><trkpt lat="45.5620231" lon="11.0680866"><ele>427.0</ele><time>2026-04-25T10:07:27.102Z</time></trkpt><trkpt lat="45.5620664" lon="11.0679291"><ele>426.6666666666667</ele><time>2026-04-25T10:07:28.103Z</time></trkpt><trkpt lat="45.5620913" lon="11.0677768"><ele>426.33333333333337</ele><time>2026-04-25T10:07:29.103Z</time></trkpt><trkpt lat="45.5621163" lon="11.0676534"><ele>426.0</ele><time>2026-04-25T10:07:30.102Z</time></trkpt><trkpt lat="45.5621549" lon="11.0675558"><ele>425.66666666666663</ele><time>2026-04-25T10:07:31.102Z</time></trkpt><trkpt lat="45.5622063" lon="11.067466"><ele>425.3333333333333</ele><time>2026-04-25T10:07:32.102Z</time></trkpt><trkpt lat="45.562284" lon="11.0674178"><ele>425.0</ele><time>2026-04-25T10:07:33.102Z</time></trkpt><trkpt lat="45.5623727" lon="11.0673919"><ele>430.5</ele><time>2026-04-25T10:07:34.102Z</time></trkpt><trkpt lat="45.5624752" lon="11.0673714"><ele>436.0</ele><time>2026-04-25T10:07:35.104Z</time></trkpt><trkpt lat="45.5625904" lon="11.067365"><ele>441.5</ele><time>2026-04-25T10:07:36.102Z</time></trkpt><trkpt lat="45.5627136" lon="11.0673646"><ele>447.0</ele><time>2026-04-25T10:07:37.102Z</time></trkpt><trkpt lat="45.5628362" lon="11.0673697"><ele>449.25</ele><time>2026-04-25T10:07:38.103Z</time></trkpt><trkpt lat="45.5629587" lon="11.0673716"><ele>451.5</ele><time>2026-04-25T10:07:39.102Z</time></trkpt><trkpt lat="45.5630829" lon="11.067371"><ele>453.75</ele><time>2026-04-25T10:07:40.102Z</time></trkpt><trkpt lat="45.5632111" lon="11.0673661"><ele>456.0</ele><time>2026-04-25T10:07:41.103Z</time></trkpt><trkpt lat="45.5633404" lon="11.0673407"><ele>456.0</ele><time>2026-04-25T10:07:42.102Z</time></trkpt><trkpt lat="45.5634678" lon="11.0672908"><ele>456.0</ele><time>2026-04-25T10:07:43.091Z</time></trkpt><trkpt lat="45.5635963" lon="11.0672554"><ele>456.0</ele><time>2026-04-25T10:07:44.085Z</time></trkpt><trkpt lat="45.5637284" lon="11.0672374"><ele>456.0</ele><time>2026-04-25T10:07:45.103Z</time></trkpt><trkpt lat="45.5638614" lon="11.0672346"><ele>456.75</ele><time>2026-04-25T10:07:46.102Z</time></trkpt><trkpt lat="45.5639947" lon="11.0672343"><ele>457.5</ele><time>2026-04-25T10:07:47.102Z</time></trkpt><trkpt lat="45.564127" lon="11.0672201"><ele>458.25</ele><time>2026-04-25T10:07:48.103Z</time></trkpt><trkpt lat="45.5642494" lon="11.0671527"><ele>459.0</ele><time>2026-04-25T10:07:49.103Z</time></trkpt><trkpt lat="45.5643657" lon="11.0670854"><ele>459.0</ele><time>2026-04-25T10:07:50.102Z</time></trkpt><trkpt lat="45.5644793" lon="11.0670292"><ele>459.0</ele><time>2026-04-25T10:07:51.103Z</time></trkpt><trkpt lat="45.5645981" lon="11.0669846"><ele>459.0</ele><time>2026-04-25T10:07:52.102Z</time></trkpt><trkpt lat="45.5647216" lon="11.0669492"><ele>459.0</ele><time>2026-04-25T10:07:53.102Z</time></trkpt><trkpt lat="45.564845" lon="11.0669396"><ele>456.5</ele><time>2026-04-25T10:07:54.102Z</time></trkpt><trkpt lat="45.5649661" lon="11.0669281"><ele>454.0</ele><time>2026-04-25T10:07:55.103Z</time></trkpt><trkpt lat="45.5650847" lon="11.0668958"><ele>451.5</ele><time>2026-04-25T10:07:56.102Z</time></trkpt><trkpt lat="45.5651972" lon="11.0668324"><ele>449.0</ele><time>2026-04-25T10:07:57.102Z</time></trkpt><trkpt lat="45.5653003" lon="11.066747"><ele>451.25</ele><time>2026-04-25T10:07:58.103Z</time></trkpt><trkpt lat="45.5653884" lon="11.0666409"><ele>453.5</ele><time>2026-04-25T10:07:59.102Z</time></trkpt><trkpt lat="45.5654628" lon="11.0665115"><ele>455.75</ele><time>2026-04-25T10:08:00.102Z</time></trkpt><trkpt lat="45.5655201" lon="11.0663635"><ele>458.0</ele><time>2026-04-25T10:08:01.102Z</time></trkpt><trkpt lat="45.5655571" lon="11.0661912"><ele>458.0</ele><time>2026-04-25T10:08:02.102Z</time></trkpt><trkpt lat="45.5655732" lon="11.0660113"><ele>458.0</ele><time>2026-04-25T10:08:03.102Z</time></trkpt><trkpt lat="45.5655777" lon="11.065829"><ele>458.0</ele><time>2026-04-25T10:08:04.103Z</time></trkpt><trkpt lat="45.5655866" lon="11.0656526"><ele>458.0</ele><time>2026-04-25T10:08:05.103Z</time></trkpt><trkpt lat="45.5656184" lon="11.0654855"><ele>458.0</ele><time>2026-04-25T10:08:06.103Z</time></trkpt><trkpt lat="45.565671" lon="11.0653232"><ele>458.0</ele><time>2026-04-25T10:08:07.102Z</time></trkpt><trkpt lat="45.5657406" lon="11.065172"><ele>458.0</ele><time>2026-04-25T10:08:08.102Z</time></trkpt><trkpt lat="45.565824" lon="11.0650272"><ele>458.0</ele><time>2026-04-25T10:08:09.102Z</time></trkpt><trkpt lat="45.5659183" lon="11.0648885"><ele>459.25</ele><time>2026-04-25T10:08:10.104Z</time></trkpt><trkpt lat="45.5660202" lon="11.0647537"><ele>460.5</ele><time>2026-04-25T10:08:11.103Z</time></trkpt><trkpt lat="45.5661308" lon="11.0646322"><ele>461.75</ele><time>2026-04-25T10:08:12.102Z</time></trkpt><trkpt lat="45.5662492" lon="11.064512"><ele>463.0</ele><time>2026-04-25T10:08:13.103Z</time></trkpt><trkpt lat="45.56637" lon="11.0643878"><ele>463.0</ele><time>2026-04-25T10:08:14.102Z</time></trkpt><trkpt lat="45.5664925" lon="11.0642674"><ele>463.0</ele><time>2026-04-25T10:08:15.102Z</time></trkpt><trkpt lat="45.5666114" lon="11.0641502"><ele>463.0</ele><time>2026-04-25T10:08:16.102Z</time></trkpt><trkpt lat="45.5667325" lon="11.0640432"><ele>463.0</ele><time>2026-04-25T10:08:17.103Z</time></trkpt><trkpt lat="45.566843" lon="11.0639439"><ele>463.5</ele><time>2026-04-25T10:08:18.102Z</time></trkpt><trkpt lat="45.5669413" lon="11.0638462"><ele>464.0</ele><time>2026-04-25T10:08:19.103Z</time></trkpt><trkpt lat="45.5670262" lon="11.0637466"><ele>464.5</ele><time>2026-04-25T10:08:20.102Z</time></trkpt><trkpt lat="45.567115" lon="11.0636653"><ele>465.0</ele><time>2026-04-25T10:08:21.102Z</time></trkpt><trkpt lat="45.567221" lon="11.0636033"><ele>465.0</ele><time>2026-04-25T10:08:22.102Z</time></trkpt><trkpt lat="45.5673337" lon="11.0635575"><ele>465.0</ele><time>2026-04-25T10:08:23.103Z</time></trkpt><trkpt lat="45.5674519" lon="11.0635133"><ele>465.0</ele><time>2026-04-25T10:08:24.102Z</time></trkpt><trkpt lat="45.5675663" lon="11.0634619"><ele>465.0</ele><time>2026-04-25T10:08:25.103Z</time></trkpt><trkpt lat="45.5676632" lon="11.0633923"><ele>465.0</ele><time>2026-04-25T10:08:26.102Z</time></trkpt><trkpt lat="45.567739" lon="11.0632928"><ele>465.0</ele><time>2026-04-25T10:08:27.103Z</time></trkpt><trkpt lat="45.5678012" lon="11.0631732"><ele>465.0</ele><time>2026-04-25T10:08:28.102Z</time></trkpt><trkpt lat="45.5678514" lon="11.0630349"><ele>465.0</ele><time>2026-04-25T10:08:29.103Z</time></trkpt><trkpt lat="45.5678938" lon="11.0628758"><ele>465.0</ele><time>2026-04-25T10:08:30.102Z</time></trkpt><trkpt lat="45.5679444" lon="11.0627186"><ele>466.25</ele><time>2026-04-25T10:08:31.103Z</time></trkpt><trkpt lat="45.5680023" lon="11.0625558"><ele>467.5</ele><time>2026-04-25T10:08:32.103Z</time></trkpt><trkpt lat="45.568064" lon="11.0623919"><ele>468.75</ele><time>2026-04-25T10:08:33.102Z</time></trkpt><trkpt lat="45.5681229" lon="11.062225"><ele>470.0</ele><time>2026-04-25T10:08:34.102Z</time></trkpt><trkpt lat="45.5681853" lon="11.0620653"><ele>470.0</ele><time>2026-04-25T10:08:35.102Z</time></trkpt><trkpt lat="45.5682487" lon="11.0619184"><ele>470.0</ele><time>2026-04-25T10:08:36.102Z</time></trkpt><trkpt lat="45.5683164" lon="11.0617821"><ele>470.0</ele><time>2026-04-25T10:08:37.103Z</time></trkpt><trkpt lat="45.5683965" lon="11.0616697"><ele>470.0</ele><time>2026-04-25T10:08:38.103Z</time></trkpt><trkpt lat="45.5684898" lon="11.0615731"><ele>471.5</ele><time>2026-04-25T10:08:39.102Z</time></trkpt><trkpt lat="45.5685978" lon="11.0614936"><ele>473.0</ele><time>2026-04-25T10:08:40.103Z</time></trkpt><trkpt lat="45.5687161" lon="11.0614135"><ele>474.5</ele><time>2026-04-25T10:08:41.104Z</time></trkpt><trkpt lat="45.5688377" lon="11.061334"><ele>476.0</ele><time>2026-04-25T10:08:42.102Z</time></trkpt><trkpt lat="45.5689589" lon="11.0612527"><ele>476.0</ele><time>2026-04-25T10:08:43.102Z</time></trkpt><trkpt lat="45.5690826" lon="11.0611756"><ele>476.0</ele><time>2026-04-25T10:08:44.103Z</time></trkpt><trkpt lat="45.5692067" lon="11.0610918"><ele>476.0</ele><time>2026-04-25T10:08:45.103Z</time></trkpt><trkpt lat="45.5693367" lon="11.0610105"><ele>476.0</ele><time>2026-04-25T10:08:46.102Z</time></trkpt><trkpt lat="45.5694704" lon="11.0609295"><ele>479.25</ele><time>2026-04-25T10:08:47.102Z</time></trkpt><trkpt lat="45.5696088" lon="11.0608526"><ele>482.5</ele><time>2026-04-25T10:08:48.102Z</time></trkpt><trkpt lat="45.5697454" lon="11.0607759"><ele>485.75</ele><time>2026-04-25T10:08:49.102Z</time></trkpt><trkpt lat="45.5698782" lon="11.0606885"><ele>489.0</ele><time>2026-04-25T10:08:50.102Z</time></trkpt><trkpt lat="45.5700067" lon="11.0605893"><ele>489.25</ele><time>2026-04-25T10:08:51.104Z</time></trkpt><trkpt lat="45.5701299" lon="11.0604849"><ele>489.5</ele><time>2026-04-25T10:08:52.102Z</time></trkpt><trkpt lat="45.5702402" lon="11.0603891"><ele>489.75</ele><time>2026-04-25T10:08:53.103Z</time></trkpt><trkpt lat="45.5703503" lon="11.0603033"><ele>490.0</ele><time>2026-04-25T10:08:54.102Z</time></trkpt><trkpt lat="45.5704722" lon="11.060233"><ele>492.0</ele><time>2026-04-25T10:08:55.102Z</time></trkpt><trkpt lat="45.5706004" lon="11.0601799"><ele>494.0</ele><time>2026-04-25T10:08:56.102Z</time></trkpt><trkpt lat="45.57073" lon="11.0601369"><ele>496.0</ele><time>2026-04-25T10:08:57.102Z</time></trkpt><trkpt lat="45.5708602" lon="11.0600948"><ele>498.0</ele><time>2026-04-25T10:08:58.102Z</time></trkpt><trkpt lat="45.5709915" lon="11.0600524"><ele>498.0</ele><time>2026-04-25T10:08:59.103Z</time></trkpt><trkpt lat="45.571127" lon="11.0600144"><ele>498.0</ele><time>2026-04-25T10:09:00.103Z</time></trkpt><trkpt lat="45.571264" lon="11.0599767"><ele>498.0</ele><time>2026-04-25T10:09:01.102Z</time></trkpt><trkpt lat="45.5714029" lon="11.0599447"><ele>498.0</ele><time>2026-04-25T10:09:02.103Z</time></trkpt><trkpt lat="45.5715295" lon="11.0599073"><ele>497.5</ele><time>2026-04-25T10:09:03.102Z</time></trkpt><trkpt lat="45.5716377" lon="11.0598494"><ele>497.0</ele><time>2026-04-25T10:09:04.103Z</time></trkpt><trkpt lat="45.571734" lon="11.0597714"><ele>496.5</ele><time>2026-04-25T10:09:05.103Z</time></trkpt><trkpt lat="45.5718113" lon="11.0596585"><ele>496.0</ele><time>2026-04-25T10:09:06.104Z</time></trkpt><trkpt lat="45.5718757" lon="11.0595163"><ele>496.0</ele><time>2026-04-25T10:09:07.103Z</time></trkpt><trkpt lat="45.5719265" lon="11.0593503"><ele>496.0</ele><time>2026-04-25T10:09:08.103Z</time></trkpt><trkpt lat="45.5719717" lon="11.0591753"><ele>496.0</ele><time>2026-04-25T10:09:09.102Z</time></trkpt><trkpt lat="45.5720161" lon="11.0589937"><ele>496.0</ele><time>2026-04-25T10:09:10.103Z</time></trkpt><trkpt lat="45.5720638" lon="11.0588184"><ele>496.6</ele><time>2026-04-25T10:09:11.103Z</time></trkpt><trkpt lat="45.5721107" lon="11.0586536"><ele>497.20000000000005</ele><time>2026-04-25T10:09:12.103Z</time></trkpt><trkpt lat="45.5721686" lon="11.0585178"><ele>497.79999999999995</ele><time>2026-04-25T10:09:13.103Z</time></trkpt><trkpt lat="45.5722409" lon="11.0584115"><ele>498.4</ele><time>2026-04-25T10:09:14.102Z</time></trkpt><trkpt lat="45.5723252" lon="11.0583424"><ele>499.0</ele><time>2026-04-25T10:09:15.103Z</time></trkpt><trkpt lat="45.5724225" lon="11.0583073"><ele>499.0</ele><time>2026-04-25T10:09:16.103Z</time></trkpt><trkpt lat="45.5725258" lon="11.0583106"><ele>499.0</ele><time>2026-04-25T10:09:17.102Z</time></trkpt><trkpt lat="45.5726328" lon="11.0583447"><ele>499.0</ele><time>2026-04-25T10:09:18.102Z</time></trkpt><trkpt lat="45.5727352" lon="11.058391"><ele>499.0</ele><time>2026-04-25T10:09:19.102Z</time></trkpt><trkpt lat="45.572852" lon="11.0584525"><ele>499.0</ele><time>2026-04-25T10:09:20.104Z</time></trkpt><trkpt lat="45.5729707" lon="11.0585108"><ele>503.0</ele><time>2026-04-25T10:09:21.103Z</time></trkpt><trkpt lat="45.5730917" lon="11.0585806"><ele>507.0</ele><time>2026-04-25T10:09:22.091Z</time></trkpt><trkpt lat="45.5732155" lon="11.0586558"><ele>511.0</ele><time>2026-04-25T10:09:23.085Z</time></trkpt><trkpt lat="45.5733365" lon="11.0587253"><ele>515.0</ele><time>2026-04-25T10:09:24.085Z</time></trkpt><trkpt lat="45.5734758" lon="11.0587941"><ele>515.0</ele><time>2026-04-25T10:09:25.086Z</time></trkpt><trkpt lat="45.5736153" lon="11.0588297"><ele>515.0</ele><time>2026-04-25T10:09:26.102Z</time></trkpt><trkpt lat="45.5737563" lon="11.0588593"><ele>515.0</ele><time>2026-04-25T10:09:27.102Z</time></trkpt><trkpt lat="45.5738881" lon="11.0588669"><ele>515.0</ele><time>2026-04-25T10:09:28.083Z</time></trkpt><trkpt lat="45.5740169" lon="11.0588544"><ele>517.0</ele><time>2026-04-25T10:09:29.103Z</time></trkpt><trkpt lat="45.5741486" lon="11.0588251"><ele>519.0</ele><time>2026-04-25T10:09:30.095Z</time></trkpt><trkpt lat="45.574284" lon="11.0587915"><ele>521.0</ele><time>2026-04-25T10:09:31.087Z</time></trkpt><trkpt lat="45.5744176" lon="11.0587784"><ele>523.0</ele><time>2026-04-25T10:09:32.087Z</time></trkpt><trkpt lat="45.5745584" lon="11.0587674"><ele>523.0</ele><time>2026-04-25T10:09:33.086Z</time></trkpt><trkpt lat="45.5747038" lon="11.0587782"><ele>523.0</ele><time>2026-04-25T10:09:34.089Z</time></trkpt><trkpt lat="45.5748217" lon="11.0587256"><ele>523.0</ele><time>2026-04-25T10:09:35.09Z</time></trkpt><trkpt lat="45.5749554" lon="11.0586909"><ele>523.0</ele><time>2026-04-25T10:09:36.09Z</time></trkpt><trkpt lat="45.5750828" lon="11.0586399"><ele>523.0</ele><time>2026-04-25T10:09:37.09Z</time></trkpt><trkpt lat="45.5751995" lon="11.0585539"><ele>523.0</ele><time>2026-04-25T10:09:38.09Z</time></trkpt><trkpt lat="45.5753034" lon="11.0584479"><ele>523.0</ele><time>2026-04-25T10:09:39.091Z</time></trkpt><trkpt lat="45.5753935" lon="11.0583028"><ele>523.0</ele><time>2026-04-25T10:09:40.09Z</time></trkpt><trkpt lat="45.5754775" lon="11.0581524"><ele>520.5</ele><time>2026-04-25T10:09:41.09Z</time></trkpt><trkpt lat="45.5755572" lon="11.0579928"><ele>518.0</ele><time>2026-04-25T10:09:42.09Z</time></trkpt><trkpt lat="45.5756347" lon="11.0578592"><ele>515.5</ele><time>2026-04-25T10:09:43.102Z</time></trkpt><trkpt lat="45.5757191" lon="11.0577549"><ele>513.0</ele><time>2026-04-25T10:09:44.102Z</time></trkpt><trkpt lat="45.5758203" lon="11.0576654"><ele>513.0</ele><time>2026-04-25T10:09:45.102Z</time></trkpt><trkpt lat="45.5759346" lon="11.0575821"><ele>513.0</ele><time>2026-04-25T10:09:46.102Z</time></trkpt><trkpt lat="45.5760573" lon="11.0574931"><ele>513.0</ele><time>2026-04-25T10:09:47.103Z</time></trkpt><trkpt lat="45.5761782" lon="11.0573836"><ele>513.0</ele><time>2026-04-25T10:09:48.102Z</time></trkpt><trkpt lat="45.5762999" lon="11.0572613"><ele>515.0</ele><time>2026-04-25T10:09:49.103Z</time></trkpt><trkpt lat="45.5764229" lon="11.0571357"><ele>517.0</ele><time>2026-04-25T10:09:50.102Z</time></trkpt><trkpt lat="45.5765418" lon="11.0570059"><ele>519.0</ele><time>2026-04-25T10:09:51.104Z</time></trkpt><trkpt lat="45.5766528" lon="11.05688"><ele>521.0</ele><time>2026-04-25T10:09:52.103Z</time></trkpt><trkpt lat="45.5767614" lon="11.056767"><ele>521.0</ele><time>2026-04-25T10:09:53.103Z</time></trkpt><trkpt lat="45.5768729" lon="11.056661"><ele>521.0</ele><time>2026-04-25T10:09:54.104Z</time></trkpt><trkpt lat="45.5769853" lon="11.056559"><ele>521.0</ele><time>2026-04-25T10:09:55.104Z</time></trkpt><trkpt lat="45.5771005" lon="11.0564665"><ele>521.0</ele><time>2026-04-25T10:09:56.103Z</time></trkpt><trkpt lat="45.577213" lon="11.0563831"><ele>525.2</ele><time>2026-04-25T10:09:57.102Z</time></trkpt><trkpt lat="45.5773261" lon="11.0563144"><ele>529.4000000000001</ele><time>2026-04-25T10:09:58.103Z</time></trkpt><trkpt lat="45.5774337" lon="11.0562744"><ele>533.6</ele><time>2026-04-25T10:09:59.102Z</time></trkpt><trkpt lat="45.5775338" lon="11.0562713"><ele>537.8000000000001</ele><time>2026-04-25T10:10:00.102Z</time></trkpt><trkpt lat="45.5776396" lon="11.0562957"><ele>542.0</ele><time>2026-04-25T10:10:01.102Z</time></trkpt><trkpt lat="45.5777504" lon="11.0563356"><ele>544.25</ele><time>2026-04-25T10:10:02.103Z</time></trkpt><trkpt lat="45.5778674" lon="11.0563767"><ele>546.5</ele><time>2026-04-25T10:10:03.103Z</time></trkpt><trkpt lat="45.5779823" lon="11.0563988"><ele>548.75</ele><time>2026-04-25T10:10:04.102Z</time></trkpt><trkpt lat="45.5781061" lon="11.0564151"><ele>551.0</ele><time>2026-04-25T10:10:05.102Z</time></trkpt><trkpt lat="45.5782306" lon="11.0564136"><ele>551.0</ele><time>2026-04-25T10:10:06.102Z</time></trkpt><trkpt lat="45.5783526" lon="11.0563776"><ele>551.0</ele><time>2026-04-25T10:10:07.102Z</time></trkpt><trkpt lat="45.578479" lon="11.0563366"><ele>551.0</ele><time>2026-04-25T10:10:08.103Z</time></trkpt><trkpt lat="45.5785979" lon="11.0562595"><ele>551.0</ele><time>2026-04-25T10:10:09.102Z</time></trkpt><trkpt lat="45.5787103" lon="11.0561707"><ele>550.25</ele><time>2026-04-25T10:10:10.102Z</time></trkpt><trkpt lat="45.5788141" lon="11.0560695"><ele>549.5</ele><time>2026-04-25T10:10:11.102Z</time></trkpt><trkpt lat="45.5789179" lon="11.0559706"><ele>548.75</ele><time>2026-04-25T10:10:12.103Z</time></trkpt><trkpt lat="45.5790316" lon="11.0558902"><ele>548.0</ele><time>2026-04-25T10:10:13.103Z</time></trkpt><trkpt lat="45.5791514" lon="11.055819"><ele>549.25</ele><time>2026-04-25T10:10:14.102Z</time></trkpt><trkpt lat="45.5792753" lon="11.0557451"><ele>550.5</ele><time>2026-04-25T10:10:15.104Z</time></trkpt><trkpt lat="45.5794079" lon="11.0556709"><ele>551.75</ele><time>2026-04-25T10:10:16.102Z</time></trkpt><trkpt lat="45.5795459" lon="11.0555898"><ele>553.0</ele><time>2026-04-25T10:10:17.103Z</time></trkpt><trkpt lat="45.5796855" lon="11.055512"><ele>553.0</ele><time>2026-04-25T10:10:18.102Z</time></trkpt><trkpt lat="45.5798316" lon="11.0554387"><ele>553.0</ele><time>2026-04-25T10:10:19.102Z</time></trkpt><trkpt lat="45.5799775" lon="11.0553634"><ele>553.0</ele><time>2026-04-25T10:10:20.103Z</time></trkpt><trkpt lat="45.580118" lon="11.0552724"><ele>553.0</ele><time>2026-04-25T10:10:21.102Z</time></trkpt><trkpt lat="45.5802603" lon="11.0551776"><ele>553.0</ele><time>2026-04-25T10:10:22.102Z</time></trkpt><trkpt lat="45.5804062" lon="11.0550768"><ele>553.0</ele><time>2026-04-25T10:10:23.103Z</time></trkpt><trkpt lat="45.580548" lon="11.0549556"><ele>554.0</ele><time>2026-04-25T10:10:24.103Z</time></trkpt><trkpt lat="45.5806825" lon="11.0548173"><ele>555.0</ele><time>2026-04-25T10:10:25.102Z</time></trkpt><trkpt lat="45.5808123" lon="11.0546686"><ele>556.0</ele><time>2026-04-25T10:10:26.102Z</time></trkpt><trkpt lat="45.5809375" lon="11.0545109"><ele>556.0</ele><time>2026-04-25T10:10:27.102Z</time></trkpt><trkpt lat="45.5810528" lon="11.0543561"><ele>556.0</ele><time>2026-04-25T10:10:28.103Z</time></trkpt><trkpt lat="45.5811507" lon="11.0542037"><ele>556.0</ele><time>2026-04-25T10:10:29.103Z</time></trkpt><trkpt lat="45.5812347" lon="11.0540644"><ele>556.0</ele><time>2026-04-25T10:10:30.102Z</time></trkpt><trkpt lat="45.5813079" lon="11.0539407"><ele>557.6</ele><time>2026-04-25T10:10:31.102Z</time></trkpt><trkpt lat="45.5813835" lon="11.0538399"><ele>559.2</ele><time>2026-04-25T10:10:32.103Z</time></trkpt><trkpt lat="45.5814669" lon="11.0537764"><ele>560.8</ele><time>2026-04-25T10:10:33.103Z</time></trkpt><trkpt lat="45.5815606" lon="11.0537392"><ele>562.4</ele><time>2026-04-25T10:10:34.103Z</time></trkpt><trkpt lat="45.5816643" lon="11.053712"><ele>564.0</ele><time>2026-04-25T10:10:35.102Z</time></trkpt><trkpt lat="45.5817625" lon="11.0536861"><ele>564.0</ele><time>2026-04-25T10:10:36.103Z</time></trkpt><trkpt lat="45.5818491" lon="11.0536393"><ele>564.0</ele><time>2026-04-25T10:10:37.102Z</time></trkpt><trkpt lat="45.5819273" lon="11.0535683"><ele>564.0</ele><time>2026-04-25T10:10:38.103Z</time></trkpt><trkpt lat="45.5819748" lon="11.0534509"><ele>564.0</ele><time>2026-04-25T10:10:39.102Z</time></trkpt><trkpt lat="45.5820225" lon="11.0533268"><ele>564.0</ele><time>2026-04-25T10:10:40.103Z</time></trkpt><trkpt lat="45.5820612" lon="11.0531931"><ele>565.8</ele><time>2026-04-25T10:10:41.103Z</time></trkpt><trkpt lat="45.5820895" lon="11.0530619"><ele>567.5999999999999</ele><time>2026-04-25T10:10:42.102Z</time></trkpt><trkpt lat="45.5821216" lon="11.0529402"><ele>569.4</ele><time>2026-04-25T10:10:43.103Z</time></trkpt><trkpt lat="45.5821679" lon="11.0528307"><ele>571.1999999999999</ele><time>2026-04-25T10:10:44.102Z</time></trkpt><trkpt lat="45.582234" lon="11.0527432"><ele>573.0</ele><time>2026-04-25T10:10:45.103Z</time></trkpt><trkpt lat="45.5823177" lon="11.052682"><ele>573.0</ele><time>2026-04-25T10:10:46.102Z</time></trkpt><trkpt lat="45.5824136" lon="11.0526477"><ele>573.0</ele><time>2026-04-25T10:10:47.102Z</time></trkpt><trkpt lat="45.5825161" lon="11.0526292"><ele>573.0</ele><time>2026-04-25T10:10:48.103Z</time></trkpt><trkpt lat="45.5826217" lon="11.0526144"><ele>573.0</ele><time>2026-04-25T10:10:49.104Z</time></trkpt><trkpt lat="45.5827271" lon="11.0525967"><ele>573.0</ele><time>2026-04-25T10:10:50.103Z</time></trkpt><trkpt lat="45.5828395" lon="11.0525979"><ele>574.0</ele><time>2026-04-25T10:10:51.103Z</time></trkpt><trkpt lat="45.5829487" lon="11.0525935"><ele>575.0</ele><time>2026-04-25T10:10:52.102Z</time></trkpt><trkpt lat="45.5830648" lon="11.0525833"><ele>576.0</ele><time>2026-04-25T10:10:53.103Z</time></trkpt><trkpt lat="45.5831777" lon="11.0525523"><ele>577.0</ele><time>2026-04-25T10:10:54.102Z</time></trkpt><trkpt lat="45.5832876" lon="11.0525056"><ele>580.5</ele><time>2026-04-25T10:10:55.103Z</time></trkpt><trkpt lat="45.5833856" lon="11.0524272"><ele>584.0</ele><time>2026-04-25T10:10:56.103Z</time></trkpt><trkpt lat="45.5834876" lon="11.0523607"><ele>587.5</ele><time>2026-04-25T10:10:57.103Z</time></trkpt><trkpt lat="45.5835981" lon="11.052303"><ele>591.0</ele><time>2026-04-25T10:10:58.102Z</time></trkpt><trkpt lat="45.5837135" lon="11.0522611"><ele>591.0</ele><time>2026-04-25T10:10:59.103Z</time></trkpt><trkpt lat="45.5838349" lon="11.0522413"><ele>591.0</ele><time>2026-04-25T10:11:00.102Z</time></trkpt><trkpt lat="45.5839445" lon="11.0521853"><ele>591.0</ele><time>2026-04-25T10:11:01.102Z</time></trkpt><trkpt lat="45.5840544" lon="11.0521253"><ele>591.0</ele><time>2026-04-25T10:11:02.102Z</time></trkpt><trkpt lat="45.5841588" lon="11.052045"><ele>591.0</ele><time>2026-04-25T10:11:03.102Z</time></trkpt><trkpt lat="45.5842634" lon="11.0519735"><ele>591.0</ele><time>2026-04-25T10:11:04.103Z</time></trkpt><trkpt lat="45.5843716" lon="11.0519216"><ele>591.0</ele><time>2026-04-25T10:11:05.103Z</time></trkpt><trkpt lat="45.5844779" lon="11.0518886"><ele>591.0</ele><time>2026-04-25T10:11:06.103Z</time></trkpt><trkpt lat="45.584587" lon="11.0518777"><ele>591.0</ele><time>2026-04-25T10:11:07.103Z</time></trkpt><trkpt lat="45.5846936" lon="11.0518874"><ele>592.4</ele><time>2026-04-25T10:11:08.102Z</time></trkpt><trkpt lat="45.5848002" lon="11.0519173"><ele>593.8</ele><time>2026-04-25T10:11:09.103Z</time></trkpt><trkpt lat="45.5849048" lon="11.0519718"><ele>595.1999999999999</ele><time>2026-04-25T10:11:10.102Z</time></trkpt><trkpt lat="45.5850108" lon="11.0520314"><ele>596.6</ele><time>2026-04-25T10:11:11.103Z</time></trkpt><trkpt lat="45.5851064" lon="11.0521038"><ele>598.0</ele><time>2026-04-25T10:11:12.103Z</time></trkpt><trkpt lat="45.5852071" lon="11.0522202"><ele>598.0</ele><time>2026-04-25T10:11:13.102Z</time></trkpt><trkpt lat="45.5852988" lon="11.0523179"><ele>598.0</ele><time>2026-04-25T10:11:14.102Z</time></trkpt><trkpt lat="45.5853902" lon="11.0524215"><ele>598.0</ele><time>2026-04-25T10:11:15.103Z</time></trkpt><trkpt lat="45.5854814" lon="11.0525325"><ele>598.0</ele><time>2026-04-25T10:11:16.102Z</time></trkpt><trkpt lat="45.5855766" lon="11.0526351"><ele>595.8</ele><time>2026-04-25T10:11:17.103Z</time></trkpt><trkpt lat="45.5856751" lon="11.0527273"><ele>593.5999999999999</ele><time>2026-04-25T10:11:18.103Z</time></trkpt><trkpt lat="45.5857731" lon="11.052804"><ele>591.4000000000001</ele><time>2026-04-25T10:11:19.103Z</time></trkpt><trkpt lat="45.5858768" lon="11.0528645"><ele>589.2</ele><time>2026-04-25T10:11:20.102Z</time></trkpt><trkpt lat="45.5859779" lon="11.052901"><ele>587.0</ele><time>2026-04-25T10:11:21.103Z</time></trkpt><trkpt lat="45.5860733" lon="11.0529095"><ele>587.0</ele><time>2026-04-25T10:11:22.103Z</time></trkpt><trkpt lat="45.5861652" lon="11.0528716"><ele>587.0</ele><time>2026-04-25T10:11:23.103Z</time></trkpt><trkpt lat="45.5862406" lon="11.0527875"><ele>587.0</ele><time>2026-04-25T10:11:24.102Z</time></trkpt><trkpt lat="45.586304" lon="11.0526729"><ele>587.0</ele><time>2026-04-25T10:11:25.103Z</time></trkpt><trkpt lat="45.5863447" lon="11.0525244"><ele>587.0</ele><time>2026-04-25T10:11:26.103Z</time></trkpt><trkpt lat="45.586366" lon="11.0523615"><ele>587.2</ele><time>2026-04-25T10:11:27.103Z</time></trkpt><trkpt lat="45.5863659" lon="11.0521931"><ele>587.4000000000001</ele><time>2026-04-25T10:11:28.103Z</time></trkpt><trkpt lat="45.5863714" lon="11.0520257"><ele>587.5999999999999</ele><time>2026-04-25T10:11:29.103Z</time></trkpt><trkpt lat="45.5863964" lon="11.0518857"><ele>587.8</ele><time>2026-04-25T10:11:30.102Z</time></trkpt><trkpt lat="45.58645" lon="11.0517587"><ele>588.0</ele><time>2026-04-25T10:11:31.102Z</time></trkpt><trkpt lat="45.5865239" lon="11.0516773"><ele>588.0</ele><time>2026-04-25T10:11:32.103Z</time></trkpt><trkpt lat="45.5866148" lon="11.0516354"><ele>588.0</ele><time>2026-04-25T10:11:33.102Z</time></trkpt><trkpt lat="45.5867153" lon="11.0516237"><ele>588.0</ele><time>2026-04-25T10:11:34.103Z</time></trkpt><trkpt lat="45.5868236" lon="11.0516212"><ele>588.0</ele><time>2026-04-25T10:11:35.103Z</time></trkpt><trkpt lat="45.5869351" lon="11.0515951"><ele>588.0</ele><time>2026-04-25T10:11:36.102Z</time></trkpt><trkpt lat="45.5870499" lon="11.0515507"><ele>592.0</ele><time>2026-04-25T10:11:37.102Z</time></trkpt><trkpt lat="45.5871628" lon="11.0514893"><ele>596.0</ele><time>2026-04-25T10:11:38.103Z</time></trkpt><trkpt lat="45.5872737" lon="11.0514127"><ele>600.0</ele><time>2026-04-25T10:11:39.102Z</time></trkpt><trkpt lat="45.5873851" lon="11.0513293"><ele>604.0</ele><time>2026-04-25T10:11:40.102Z</time></trkpt><trkpt lat="45.5874973" lon="11.0512446"><ele>604.0</ele><time>2026-04-25T10:11:41.103Z</time></trkpt><trkpt lat="45.5876114" lon="11.0511614"><ele>604.0</ele><time>2026-04-25T10:11:42.103Z</time></trkpt><trkpt lat="45.5877287" lon="11.0510822"><ele>604.0</ele><time>2026-04-25T10:11:43.102Z</time></trkpt><trkpt lat="45.5878461" lon="11.0510013"><ele>604.0</ele><time>2026-04-25T10:11:44.102Z</time></trkpt><trkpt lat="45.5879626" lon="11.0509172"><ele>604.25</ele><time>2026-04-25T10:11:45.102Z</time></trkpt><trkpt lat="45.5880788" lon="11.0508319"><ele>604.5</ele><time>2026-04-25T10:11:46.102Z</time></trkpt><trkpt lat="45.5881946" lon="11.0507529"><ele>604.75</ele><time>2026-04-25T10:11:47.103Z</time></trkpt><trkpt lat="45.5883075" lon="11.0506853"><ele>605.0</ele><time>2026-04-25T10:11:48.104Z</time></trkpt><trkpt lat="45.5884121" lon="11.0506183"><ele>606.4</ele><time>2026-04-25T10:11:49.102Z</time></trkpt><trkpt lat="45.5885087" lon="11.0505499"><ele>607.8</ele><time>2026-04-25T10:11:50.103Z</time></trkpt><trkpt lat="45.5886007" lon="11.0504716"><ele>609.2</ele><time>2026-04-25T10:11:51.102Z</time></trkpt><trkpt lat="45.5886619" lon="11.0503737"><ele>610.6</ele><time>2026-04-25T10:11:52.102Z</time></trkpt><trkpt lat="45.5887181" lon="11.0502576"><ele>612.0</ele><time>2026-04-25T10:11:53.103Z</time></trkpt><trkpt lat="45.5887605" lon="11.0501246"><ele>612.4</ele><time>2026-04-25T10:11:54.102Z</time></trkpt><trkpt lat="45.588796" lon="11.0499807"><ele>612.8000000000001</ele><time>2026-04-25T10:11:55.102Z</time></trkpt><trkpt lat="45.5888406" lon="11.0498454"><ele>613.2</ele><time>2026-04-25T10:11:56.102Z</time></trkpt><trkpt lat="45.5889048" lon="11.0497305"><ele>613.6</ele><time>2026-04-25T10:11:57.102Z</time></trkpt><trkpt lat="45.5889845" lon="11.0496389"><ele>614.0</ele><time>2026-04-25T10:11:58.102Z</time></trkpt><trkpt lat="45.589083" lon="11.0495704"><ele>612.8</ele><time>2026-04-25T10:11:59.102Z</time></trkpt><trkpt lat="45.5891855" lon="11.0495083"><ele>611.5999999999999</ele><time>2026-04-25T10:12:00.103Z</time></trkpt><trkpt lat="45.5892914" lon="11.0494484"><ele>610.4</ele><time>2026-04-25T10:12:01.103Z</time></trkpt><trkpt lat="45.5893843" lon="11.0493723"><ele>609.1999999999999</ele><time>2026-04-25T10:12:02.102Z</time></trkpt><trkpt lat="45.5894621" lon="11.0492749"><ele>608.0</ele><time>2026-04-25T10:12:03.103Z</time></trkpt><trkpt lat="45.5895339" lon="11.0491592"><ele>608.8</ele><time>2026-04-25T10:12:04.102Z</time></trkpt><trkpt lat="45.5895976" lon="11.0490267"><ele>609.5999999999999</ele><time>2026-04-25T10:12:05.102Z</time></trkpt><trkpt lat="45.589658" lon="11.0488898"><ele>610.4000000000001</ele><time>2026-04-25T10:12:06.103Z</time></trkpt><trkpt lat="45.5897165" lon="11.0487613"><ele>611.2</ele><time>2026-04-25T10:12:07.103Z</time></trkpt><trkpt lat="45.5897814" lon="11.0486517"><ele>612.0</ele><time>2026-04-25T10:12:08.102Z</time></trkpt><trkpt lat="45.5898555" lon="11.0485735"><ele>612.0</ele><time>2026-04-25T10:12:09.102Z</time></trkpt><trkpt lat="45.5899424" lon="11.0485305"><ele>612.0</ele><time>2026-04-25T10:12:10.102Z</time></trkpt><trkpt lat="45.5900385" lon="11.0485127"><ele>612.0</ele><time>2026-04-25T10:12:11.103Z</time></trkpt><trkpt lat="45.5901406" lon="11.0484905"><ele>612.0</ele><time>2026-04-25T10:12:12.104Z</time></trkpt><trkpt lat="45.5902497" lon="11.0484599"><ele>612.0</ele><time>2026-04-25T10:12:13.104Z</time></trkpt><trkpt lat="45.5903596" lon="11.0484142"><ele>612.75</ele><time>2026-04-25T10:12:14.103Z</time></trkpt><trkpt lat="45.5904694" lon="11.0483534"><ele>613.5</ele><time>2026-04-25T10:12:15.103Z</time></trkpt><trkpt lat="45.5905769" lon="11.0482755"><ele>614.25</ele><time>2026-04-25T10:12:16.103Z</time></trkpt><trkpt lat="45.5906835" lon="11.0481926"><ele>615.0</ele><time>2026-04-25T10:12:17.103Z</time></trkpt><trkpt lat="45.5907872" lon="11.0481055"><ele>615.0</ele><time>2026-04-25T10:12:18.102Z</time></trkpt><trkpt lat="45.5908813" lon="11.0480262"><ele>615.0</ele><time>2026-04-25T10:12:19.102Z</time></trkpt><trkpt lat="45.5909641" lon="11.0479487"><ele>615.0</ele><time>2026-04-25T10:12:20.103Z</time></trkpt><trkpt lat="45.5910359" lon="11.0478764"><ele>615.0</ele><time>2026-04-25T10:12:21.103Z</time></trkpt><trkpt lat="45.5910858" lon="11.0478044"><ele>615.0</ele><time>2026-04-25T10:12:22.103Z</time></trkpt><trkpt lat="45.5911105" lon="11.0476492"><ele>615.0</ele><time>2026-04-25T10:12:24.102Z</time></trkpt><trkpt lat="45.5910855" lon="11.0475028"><ele>615.0</ele><time>2026-04-25T10:12:26.102Z</time></trkpt><trkpt lat="45.5910587" lon="11.0474188"><ele>615.0</ele><time>2026-04-25T10:12:28.102Z</time></trkpt><trkpt lat="45.5909949" lon="11.0473806"><ele>615.0</ele><time>2026-04-25T10:12:51.103Z</time></trkpt><trkpt lat="45.5908695" lon="11.0474344"><ele>615.0</ele><time>2026-04-25T10:12:53.103Z</time></trkpt><trkpt lat="45.5908" lon="11.0474859"><ele>615.0</ele><time>2026-04-25T10:12:54.103Z</time></trkpt><trkpt lat="45.5907254" lon="11.0475431"><ele>615.0</ele><time>2026-04-25T10:12:55.102Z</time></trkpt><trkpt lat="45.5906488" lon="11.0476056"><ele>615.0</ele><time>2026-04-25T10:12:56.103Z</time></trkpt><trkpt lat="45.5905659" lon="11.0476766"><ele>615.0</ele><time>2026-04-25T10:12:57.103Z</time></trkpt><trkpt lat="45.5904687" lon="11.0477413"><ele>615.0</ele><time>2026-04-25T10:12:58.103Z</time></trkpt><trkpt lat="45.5903532" lon="11.0477851"><ele>615.0</ele><time>2026-04-25T10:12:59.102Z</time></trkpt><trkpt lat="45.5902309" lon="11.0478104"><ele>622.25</ele><time>2026-04-25T10:13:00.103Z</time></trkpt><trkpt lat="45.5901004" lon="11.0478275"><ele>629.5</ele><time>2026-04-25T10:13:01.103Z</time></trkpt><trkpt lat="45.5899644" lon="11.0478422"><ele>636.75</ele><time>2026-04-25T10:13:02.102Z</time></trkpt><trkpt lat="45.589822" lon="11.0478541"><ele>644.0</ele><time>2026-04-25T10:13:03.103Z</time></trkpt><trkpt lat="45.5896787" lon="11.0479016"><ele>644.0</ele><time>2026-04-25T10:13:04.103Z</time></trkpt><trkpt lat="45.5895434" lon="11.04799"><ele>644.0</ele><time>2026-04-25T10:13:05.103Z</time></trkpt><trkpt lat="45.5894141" lon="11.0480925"><ele>644.0</ele><time>2026-04-25T10:13:06.103Z</time></trkpt><trkpt lat="45.5892872" lon="11.0482076"><ele>644.0</ele><time>2026-04-25T10:13:07.102Z</time></trkpt><trkpt lat="45.5891853" lon="11.0483383"><ele>642.0</ele><time>2026-04-25T10:13:08.103Z</time></trkpt><trkpt lat="45.5890991" lon="11.0484705"><ele>640.0</ele><time>2026-04-25T10:13:09.103Z</time></trkpt><trkpt lat="45.5890175" lon="11.0485766"><ele>638.0</ele><time>2026-04-25T10:13:10.103Z</time></trkpt><trkpt lat="45.5889199" lon="11.0486638"><ele>636.0</ele><time>2026-04-25T10:13:11.103Z</time></trkpt><trkpt lat="45.588806" lon="11.048734"><ele>636.0</ele><time>2026-04-25T10:13:12.104Z</time></trkpt><trkpt lat="45.5886867" lon="11.048809"><ele>636.0</ele><time>2026-04-25T10:13:13.102Z</time></trkpt><trkpt lat="45.588572" lon="11.0488986"><ele>636.0</ele><time>2026-04-25T10:13:14.102Z</time></trkpt><trkpt lat="45.5884632" lon="11.049031"><ele>636.0</ele><time>2026-04-25T10:13:15.103Z</time></trkpt><trkpt lat="45.5883624" lon="11.0491721"><ele>638.0</ele><time>2026-04-25T10:13:16.102Z</time></trkpt><trkpt lat="45.5882657" lon="11.0493128"><ele>640.0</ele><time>2026-04-25T10:13:17.103Z</time></trkpt><trkpt lat="45.5881646" lon="11.0494511"><ele>642.0</ele><time>2026-04-25T10:13:18.102Z</time></trkpt><trkpt lat="45.5880477" lon="11.0495718"><ele>644.0</ele><time>2026-04-25T10:13:19.102Z</time></trkpt><trkpt lat="45.5879087" lon="11.0496592"><ele>651.3333333333333</ele><time>2026-04-25T10:13:20.103Z</time></trkpt><trkpt lat="45.5877645" lon="11.0497305"><ele>658.6666666666666</ele><time>2026-04-25T10:13:21.103Z</time></trkpt><trkpt lat="45.5876133" lon="11.0497924"><ele>666.0</ele><time>2026-04-25T10:13:22.103Z</time></trkpt><trkpt lat="45.5874631" lon="11.0498334"><ele>666.0</ele><time>2026-04-25T10:13:23.102Z</time></trkpt><trkpt lat="45.5873122" lon="11.0498268"><ele>666.0</ele><time>2026-04-25T10:13:24.103Z</time></trkpt><trkpt lat="45.5871598" lon="11.0497848"><ele>666.0</ele><time>2026-04-25T10:13:25.102Z</time></trkpt><trkpt lat="45.5869945" lon="11.0497335"><ele>670.6666666666666</ele><time>2026-04-25T10:13:26.102Z</time></trkpt><trkpt lat="45.5868278" lon="11.0496818"><ele>675.3333333333333</ele><time>2026-04-25T10:13:27.102Z</time></trkpt><trkpt lat="45.5866592" lon="11.0496424"><ele>680.0</ele><time>2026-04-25T10:13:28.102Z</time></trkpt><trkpt lat="45.5864888" lon="11.0496208"><ele>680.0</ele><time>2026-04-25T10:13:29.103Z</time></trkpt><trkpt lat="45.5863195" lon="11.0496188"><ele>680.0</ele><time>2026-04-25T10:13:30.103Z</time></trkpt><trkpt lat="45.5861475" lon="11.0496437"><ele>680.0</ele><time>2026-04-25T10:13:31.102Z</time></trkpt><trkpt lat="45.5859836" lon="11.0496969"><ele>683.3333333333333</ele><time>2026-04-25T10:13:32.102Z</time></trkpt><trkpt lat="45.5858277" lon="11.0497748"><ele>686.6666666666666</ele><time>2026-04-25T10:13:33.103Z</time></trkpt><trkpt lat="45.5856913" lon="11.0498618"><ele>690.0</ele><time>2026-04-25T10:13:34.103Z</time></trkpt><trkpt lat="45.5855666" lon="11.0499507"><ele>687.25</ele><time>2026-04-25T10:13:35.104Z</time></trkpt><trkpt lat="45.5854452" lon="11.0500119"><ele>684.5</ele><time>2026-04-25T10:13:36.104Z</time></trkpt><trkpt lat="45.5853162" lon="11.0500187"><ele>681.75</ele><time>2026-04-25T10:13:37.103Z</time></trkpt><trkpt lat="45.5851937" lon="11.0499707"><ele>679.0</ele><time>2026-04-25T10:13:38.104Z</time></trkpt><trkpt lat="45.5851063" lon="11.0498798"><ele>679.0</ele><time>2026-04-25T10:13:39.102Z</time></trkpt><trkpt lat="45.5850248" lon="11.0497587"><ele>679.0</ele><time>2026-04-25T10:13:40.103Z</time></trkpt><trkpt lat="45.5849453" lon="11.0496193"><ele>679.0</ele><time>2026-04-25T10:13:41.102Z</time></trkpt><trkpt lat="45.5848722" lon="11.0494695"><ele>679.0</ele><time>2026-04-25T10:13:42.103Z</time></trkpt><trkpt lat="45.5848173" lon="11.0492945"><ele>685.3333333333334</ele><time>2026-04-25T10:13:43.104Z</time></trkpt><trkpt lat="45.5847725" lon="11.0490982"><ele>691.6666666666666</ele><time>2026-04-25T10:13:44.102Z</time></trkpt><trkpt lat="45.5847298" lon="11.0488896"><ele>698.0</ele><time>2026-04-25T10:13:45.103Z</time></trkpt><trkpt lat="45.5846876" lon="11.0486772"><ele>698.0</ele><time>2026-04-25T10:13:46.103Z</time></trkpt><trkpt lat="45.5846449" lon="11.0484638"><ele>698.0</ele><time>2026-04-25T10:13:47.103Z</time></trkpt><trkpt lat="45.584605" lon="11.0482462"><ele>698.0</ele><time>2026-04-25T10:13:48.103Z</time></trkpt><trkpt lat="45.5845664" lon="11.0480245"><ele>701.0</ele><time>2026-04-25T10:13:49.103Z</time></trkpt><trkpt lat="45.5845272" lon="11.0478028"><ele>704.0</ele><time>2026-04-25T10:13:50.103Z</time></trkpt><trkpt lat="45.5844864" lon="11.0475777"><ele>707.0</ele><time>2026-04-25T10:13:51.102Z</time></trkpt><trkpt lat="45.5844423" lon="11.0473522"><ele>699.6666666666666</ele><time>2026-04-25T10:13:52.103Z</time></trkpt><trkpt lat="45.5844029" lon="11.0471281"><ele>692.3333333333334</ele><time>2026-04-25T10:13:53.102Z</time></trkpt><trkpt lat="45.5843918" lon="11.0468965"><ele>685.0</ele><time>2026-04-25T10:13:54.103Z</time></trkpt><trkpt lat="45.5844126" lon="11.0466646"><ele>687.6666666666667</ele><time>2026-04-25T10:13:55.104Z</time></trkpt><trkpt lat="45.5844358" lon="11.0464327"><ele>690.3333333333334</ele><time>2026-04-25T10:13:56.104Z</time></trkpt><trkpt lat="45.5844306" lon="11.0462064"><ele>693.0</ele><time>2026-04-25T10:13:57.102Z</time></trkpt><trkpt lat="45.5843907" lon="11.0459934"><ele>693.0</ele><time>2026-04-25T10:13:58.102Z</time></trkpt><trkpt lat="45.5843159" lon="11.0458086"><ele>693.0</ele><time>2026-04-25T10:13:59.102Z</time></trkpt><trkpt lat="45.5842047" lon="11.0456675"><ele>693.0</ele><time>2026-04-25T10:14:00.103Z</time></trkpt><trkpt lat="45.5840731" lon="11.0455667"><ele>693.0</ele><time>2026-04-25T10:14:01.103Z</time></trkpt><trkpt lat="45.5839376" lon="11.0454604"><ele>697.0</ele><time>2026-04-25T10:14:02.103Z</time></trkpt><trkpt lat="45.5838126" lon="11.0453295"><ele>701.0</ele><time>2026-04-25T10:14:03.103Z</time></trkpt><trkpt lat="45.5837013" lon="11.0451892"><ele>705.0</ele><time>2026-04-25T10:14:04.102Z</time></trkpt><trkpt lat="45.583612" lon="11.0450165"><ele>706.6666666666666</ele><time>2026-04-25T10:14:05.102Z</time></trkpt><trkpt lat="45.5835341" lon="11.0448204"><ele>708.3333333333333</ele><time>2026-04-25T10:14:06.102Z</time></trkpt><trkpt lat="45.5834643" lon="11.0446093"><ele>710.0</ele><time>2026-04-25T10:14:07.103Z</time></trkpt><trkpt lat="45.5833916" lon="11.0443935"><ele>710.0</ele><time>2026-04-25T10:14:08.104Z</time></trkpt><trkpt lat="45.5832986" lon="11.0441924"><ele>710.0</ele><time>2026-04-25T10:14:09.103Z</time></trkpt><trkpt lat="45.583183" lon="11.0440119"><ele>710.0</ele><time>2026-04-25T10:14:10.104Z</time></trkpt><trkpt lat="45.5830481" lon="11.0438627"><ele>712.3333333333333</ele><time>2026-04-25T10:14:11.103Z</time></trkpt><trkpt lat="45.5828938" lon="11.0437499"><ele>714.6666666666666</ele><time>2026-04-25T10:14:12.103Z</time></trkpt><trkpt lat="45.5827243" lon="11.0436684"><ele>717.0</ele><time>2026-04-25T10:14:13.102Z</time></trkpt><trkpt lat="45.5825478" lon="11.0435929"><ele>718.0</ele><time>2026-04-25T10:14:14.102Z</time></trkpt><trkpt lat="45.5823661" lon="11.0435154"><ele>719.0</ele><time>2026-04-25T10:14:15.103Z</time></trkpt><trkpt lat="45.5821821" lon="11.0434381"><ele>720.0</ele><time>2026-04-25T10:14:16.102Z</time></trkpt><trkpt lat="45.5819959" lon="11.0433639"><ele>725.6666666666666</ele><time>2026-04-25T10:14:17.102Z</time></trkpt><trkpt lat="45.5818134" lon="11.0432944"><ele>731.3333333333333</ele><time>2026-04-25T10:14:18.102Z</time></trkpt><trkpt lat="45.5816375" lon="11.0432283"><ele>737.0</ele><time>2026-04-25T10:14:19.102Z</time></trkpt><trkpt lat="45.5814686" lon="11.0431626"><ele>737.0</ele><time>2026-04-25T10:14:20.102Z</time></trkpt><trkpt lat="45.581308" lon="11.0430974"><ele>737.0</ele><time>2026-04-25T10:14:21.104Z</time></trkpt><trkpt lat="45.5811536" lon="11.0430287"><ele>737.0</ele><time>2026-04-25T10:14:22.103Z</time></trkpt><trkpt lat="45.5810014" lon="11.0429692"><ele>736.3333333333333</ele><time>2026-04-25T10:14:23.102Z</time></trkpt><trkpt lat="45.5808483" lon="11.0429405"><ele>735.6666666666666</ele><time>2026-04-25T10:14:24.103Z</time></trkpt><trkpt lat="45.5806978" lon="11.0429431"><ele>735.0</ele><time>2026-04-25T10:14:25.103Z</time></trkpt><trkpt lat="45.5805508" lon="11.0429581"><ele>735.0</ele><time>2026-04-25T10:14:26.102Z</time></trkpt><trkpt lat="45.5804098" lon="11.0429772"><ele>735.0</ele><time>2026-04-25T10:14:27.102Z</time></trkpt><trkpt lat="45.5802792" lon="11.04299"><ele>735.0</ele><time>2026-04-25T10:14:28.102Z</time></trkpt><trkpt lat="45.5801593" lon="11.043002"><ele>735.0</ele><time>2026-04-25T10:14:29.102Z</time></trkpt><trkpt lat="45.5800412" lon="11.0430105"><ele>735.6</ele><time>2026-04-25T10:14:30.102Z</time></trkpt><trkpt lat="45.5799311" lon="11.0429963"><ele>736.2</ele><time>2026-04-25T10:14:31.103Z</time></trkpt><trkpt lat="45.5798383" lon="11.0429526"><ele>736.8</ele><time>2026-04-25T10:14:32.103Z</time></trkpt><trkpt lat="45.5797618" lon="11.0428895"><ele>737.4</ele><time>2026-04-25T10:14:33.103Z</time></trkpt><trkpt lat="45.5797101" lon="11.0428122"><ele>738.0</ele><time>2026-04-25T10:14:34.102Z</time></trkpt><trkpt lat="45.5796814" lon="11.0426738"><ele>738.0</ele><time>2026-04-25T10:14:36.103Z</time></trkpt><trkpt lat="45.5797003" lon="11.0425573"><ele>738.0</ele><time>2026-04-25T10:14:38.103Z</time></trkpt><trkpt lat="45.5797408" lon="11.0424353"><ele>738.0</ele><time>2026-04-25T10:14:40.102Z</time></trkpt><trkpt lat="45.5797885" lon="11.0423743"><ele>738.0</ele><time>2026-04-25T10:14:41.103Z</time></trkpt><trkpt lat="45.5798525" lon="11.0423161"><ele>738.0</ele><time>2026-04-25T10:14:42.102Z</time></trkpt><trkpt lat="45.5799241" lon="11.0422494"><ele>738.0</ele><time>2026-04-25T10:14:43.103Z</time></trkpt><trkpt lat="45.5800073" lon="11.0421698"><ele>738.75</ele><time>2026-04-25T10:14:44.103Z</time></trkpt><trkpt lat="45.5801012" lon="11.0420853"><ele>739.5</ele><time>2026-04-25T10:14:45.102Z</time></trkpt><trkpt lat="45.5802031" lon="11.041993"><ele>740.25</ele><time>2026-04-25T10:14:46.102Z</time></trkpt><trkpt lat="45.5803134" lon="11.0418911"><ele>741.0</ele><time>2026-04-25T10:14:47.103Z</time></trkpt><trkpt lat="45.580433" lon="11.0417817"><ele>741.25</ele><time>2026-04-25T10:14:48.103Z</time></trkpt><trkpt lat="45.5805546" lon="11.0416741"><ele>741.5</ele><time>2026-04-25T10:14:49.103Z</time></trkpt><trkpt lat="45.5806739" lon="11.0415633"><ele>741.75</ele><time>2026-04-25T10:14:50.103Z</time></trkpt><trkpt lat="45.5807906" lon="11.0414541"><ele>742.0</ele><time>2026-04-25T10:14:51.104Z</time></trkpt><trkpt lat="45.5809088" lon="11.0413466"><ele>742.0</ele><time>2026-04-25T10:14:52.103Z</time></trkpt><trkpt lat="45.5810226" lon="11.0412414"><ele>742.0</ele><time>2026-04-25T10:14:53.102Z</time></trkpt><trkpt lat="45.5811352" lon="11.0411342"><ele>742.0</ele><time>2026-04-25T10:14:54.102Z</time></trkpt><trkpt lat="45.5812495" lon="11.0410245"><ele>742.0</ele><time>2026-04-25T10:14:55.103Z</time></trkpt><trkpt lat="45.581364" lon="11.0409157"><ele>743.25</ele><time>2026-04-25T10:14:56.103Z</time></trkpt><trkpt lat="45.5814787" lon="11.0408075"><ele>744.5</ele><time>2026-04-25T10:14:57.103Z</time></trkpt><trkpt lat="45.5815925" lon="11.0407017"><ele>745.75</ele><time>2026-04-25T10:14:58.102Z</time></trkpt><trkpt lat="45.581704" lon="11.0405977"><ele>747.0</ele><time>2026-04-25T10:14:59.103Z</time></trkpt><trkpt lat="45.5818147" lon="11.0404924"><ele>747.25</ele><time>2026-04-25T10:15:00.102Z</time></trkpt><trkpt lat="45.581928" lon="11.0403888"><ele>747.5</ele><time>2026-04-25T10:15:01.104Z</time></trkpt><trkpt lat="45.5820449" lon="11.0402838"><ele>747.75</ele><time>2026-04-25T10:15:02.102Z</time></trkpt><trkpt lat="45.5821657" lon="11.0401759"><ele>748.0</ele><time>2026-04-25T10:15:03.103Z</time></trkpt><trkpt lat="45.5822881" lon="11.0400618"><ele>750.3333333333334</ele><time>2026-04-25T10:15:04.104Z</time></trkpt><trkpt lat="45.5824151" lon="11.0399465"><ele>752.6666666666666</ele><time>2026-04-25T10:15:05.102Z</time></trkpt><trkpt lat="45.5825475" lon="11.0398286"><ele>755.0</ele><time>2026-04-25T10:15:06.103Z</time></trkpt><trkpt lat="45.5826845" lon="11.0397033"><ele>755.0</ele><time>2026-04-25T10:15:07.102Z</time></trkpt><trkpt lat="45.5828233" lon="11.0395762"><ele>755.0</ele><time>2026-04-25T10:15:08.102Z</time></trkpt><trkpt lat="45.5829672" lon="11.0394497"><ele>755.0</ele><time>2026-04-25T10:15:09.102Z</time></trkpt><trkpt lat="45.5831159" lon="11.0393307"><ele>754.6666666666666</ele><time>2026-04-25T10:15:10.102Z</time></trkpt><trkpt lat="45.583269" lon="11.0392223"><ele>754.3333333333334</ele><time>2026-04-25T10:15:11.102Z</time></trkpt><trkpt lat="45.583427" lon="11.039127"><ele>754.0</ele><time>2026-04-25T10:15:12.103Z</time></trkpt><trkpt lat="45.5835841" lon="11.0390426"><ele>753.0</ele><time>2026-04-25T10:15:13.103Z</time></trkpt><trkpt lat="45.583742" lon="11.0389687"><ele>752.0</ele><time>2026-04-25T10:15:14.103Z</time></trkpt><trkpt lat="45.5839021" lon="11.0389025"><ele>751.0</ele><time>2026-04-25T10:15:15.103Z</time></trkpt><trkpt lat="45.5840646" lon="11.0388459"><ele>751.0</ele><time>2026-04-25T10:15:16.102Z</time></trkpt><trkpt lat="45.5842262" lon="11.0387981"><ele>751.0</ele><time>2026-04-25T10:15:17.102Z</time></trkpt><trkpt lat="45.584392" lon="11.0387554"><ele>751.0</ele><time>2026-04-25T10:15:18.102Z</time></trkpt><trkpt lat="45.5845585" lon="11.0387129"><ele>753.6666666666667</ele><time>2026-04-25T10:15:19.102Z</time></trkpt><trkpt lat="45.5847275" lon="11.0386775"><ele>756.3333333333334</ele><time>2026-04-25T10:15:20.104Z</time></trkpt><trkpt lat="45.5848973" lon="11.0386396"><ele>759.0</ele><time>2026-04-25T10:15:21.102Z</time></trkpt><trkpt lat="45.5850633" lon="11.0385765"><ele>759.0</ele><time>2026-04-25T10:15:22.102Z</time></trkpt><trkpt lat="45.5852219" lon="11.0384825"><ele>759.0</ele><time>2026-04-25T10:15:23.103Z</time></trkpt><trkpt lat="45.5853651" lon="11.0383468"><ele>759.0</ele><time>2026-04-25T10:15:24.104Z</time></trkpt><trkpt lat="45.5854898" lon="11.0381766"><ele>763.3333333333333</ele><time>2026-04-25T10:15:25.103Z</time></trkpt><trkpt lat="45.5855945" lon="11.0379769"><ele>767.6666666666666</ele><time>2026-04-25T10:15:26.103Z</time></trkpt><trkpt lat="45.5856685" lon="11.0377476"><ele>772.0</ele><time>2026-04-25T10:15:27.103Z</time></trkpt><trkpt lat="45.5857102" lon="11.0375017"><ele>773.3333333333333</ele><time>2026-04-25T10:15:28.102Z</time></trkpt><trkpt lat="45.5857178" lon="11.0372457"><ele>774.6666666666667</ele><time>2026-04-25T10:15:29.102Z</time></trkpt><trkpt lat="45.5856905" lon="11.0369896"><ele>776.0</ele><time>2026-04-25T10:15:30.103Z</time></trkpt><trkpt lat="45.5856384" lon="11.0367396"><ele>776.6666666666667</ele><time>2026-04-25T10:15:31.103Z</time></trkpt><trkpt lat="45.5855718" lon="11.0365088"><ele>777.3333333333333</ele><time>2026-04-25T10:15:32.102Z</time></trkpt><trkpt lat="45.5855148" lon="11.03629"><ele>778.0</ele><time>2026-04-25T10:15:33.102Z</time></trkpt><trkpt lat="45.585479" lon="11.0360677"><ele>778.0</ele><time>2026-04-25T10:15:34.103Z</time></trkpt><trkpt lat="45.5854645" lon="11.035846"><ele>778.0</ele><time>2026-04-25T10:15:35.103Z</time></trkpt><trkpt lat="45.5854767" lon="11.0356257"><ele>778.0</ele><time>2026-04-25T10:15:36.103Z</time></trkpt><trkpt lat="45.5855142" lon="11.035413"><ele>776.75</ele><time>2026-04-25T10:15:37.102Z</time></trkpt><trkpt lat="45.5855685" lon="11.0352093"><ele>775.5</ele><time>2026-04-25T10:15:38.103Z</time></trkpt><trkpt lat="45.5856376" lon="11.0350258"><ele>774.25</ele><time>2026-04-25T10:15:39.102Z</time></trkpt><trkpt lat="45.5857168" lon="11.0348623"><ele>773.0</ele><time>2026-04-25T10:15:40.103Z</time></trkpt><trkpt lat="45.5858072" lon="11.0347261"><ele>771.5</ele><time>2026-04-25T10:15:41.103Z</time></trkpt><trkpt lat="45.5859011" lon="11.0346145"><ele>770.0</ele><time>2026-04-25T10:15:42.103Z</time></trkpt><trkpt lat="45.5859972" lon="11.0345257"><ele>768.5</ele><time>2026-04-25T10:15:43.102Z</time></trkpt><trkpt lat="45.586098" lon="11.0344537"><ele>767.0</ele><time>2026-04-25T10:15:44.102Z</time></trkpt><trkpt lat="45.5862072" lon="11.0343938"><ele>767.0</ele><time>2026-04-25T10:15:45.102Z</time></trkpt><trkpt lat="45.5863215" lon="11.0343491"><ele>767.0</ele><time>2026-04-25T10:15:46.104Z</time></trkpt><trkpt lat="45.5864383" lon="11.0343283"><ele>767.0</ele><time>2026-04-25T10:15:47.103Z</time></trkpt><trkpt lat="45.5865595" lon="11.0343297"><ele>767.0</ele><time>2026-04-25T10:15:48.102Z</time></trkpt><trkpt lat="45.5866836" lon="11.0343545"><ele>767.0</ele><time>2026-04-25T10:15:49.103Z</time></trkpt><trkpt lat="45.5868093" lon="11.0344046"><ele>767.0</ele><time>2026-04-25T10:15:50.102Z</time></trkpt><trkpt lat="45.5869364" lon="11.0344761"><ele>767.0</ele><time>2026-04-25T10:15:51.104Z</time></trkpt><trkpt lat="45.587061" lon="11.0345667"><ele>767.0</ele><time>2026-04-25T10:15:52.103Z</time></trkpt><trkpt lat="45.5871892" lon="11.0346611"><ele>766.5</ele><time>2026-04-25T10:15:53.103Z</time></trkpt><trkpt lat="45.5873255" lon="11.0347313"><ele>766.0</ele><time>2026-04-25T10:15:54.102Z</time></trkpt><trkpt lat="45.587471" lon="11.0347756"><ele>765.5</ele><time>2026-04-25T10:15:55.102Z</time></trkpt><trkpt lat="45.5876259" lon="11.0347856"><ele>765.0</ele><time>2026-04-25T10:15:56.103Z</time></trkpt><trkpt lat="45.5877806" lon="11.0347504"><ele>768.0</ele><time>2026-04-25T10:15:57.103Z</time></trkpt><trkpt lat="45.5879263" lon="11.0346725"><ele>771.0</ele><time>2026-04-25T10:15:58.103Z</time></trkpt><trkpt lat="45.5880556" lon="11.0345698"><ele>774.0</ele><time>2026-04-25T10:15:59.102Z</time></trkpt><trkpt lat="45.588171" lon="11.0344649"><ele>777.0</ele><time>2026-04-25T10:16:00.102Z</time></trkpt><trkpt lat="45.5882887" lon="11.0343817"><ele>777.0</ele><time>2026-04-25T10:16:01.103Z</time></trkpt><trkpt lat="45.5884146" lon="11.0343247"><ele>777.0</ele><time>2026-04-25T10:16:02.103Z</time></trkpt><trkpt lat="45.5885457" lon="11.0342962"><ele>777.0</ele><time>2026-04-25T10:16:03.104Z</time></trkpt><trkpt lat="45.5886794" lon="11.0342973"><ele>777.0</ele><time>2026-04-25T10:16:04.103Z</time></trkpt><trkpt lat="45.5888107" lon="11.0343384"><ele>776.5</ele><time>2026-04-25T10:16:05.102Z</time></trkpt><trkpt lat="45.5889347" lon="11.0344127"><ele>776.0</ele><time>2026-04-25T10:16:06.103Z</time></trkpt><trkpt lat="45.5890568" lon="11.0345206"><ele>775.5</ele><time>2026-04-25T10:16:07.102Z</time></trkpt><trkpt lat="45.5891771" lon="11.0346427"><ele>775.0</ele><time>2026-04-25T10:16:08.103Z</time></trkpt><trkpt lat="45.5893022" lon="11.0347741"><ele>775.0</ele><time>2026-04-25T10:16:09.103Z</time></trkpt><trkpt lat="45.589427" lon="11.0349139"><ele>775.0</ele><time>2026-04-25T10:16:10.102Z</time></trkpt><trkpt lat="45.5895555" lon="11.0350487"><ele>775.0</ele><time>2026-04-25T10:16:11.102Z</time></trkpt><trkpt lat="45.5896971" lon="11.035138"><ele>776.0</ele><time>2026-04-25T10:16:12.102Z</time></trkpt><trkpt lat="45.5898435" lon="11.0351826"><ele>777.0</ele><time>2026-04-25T10:16:13.103Z</time></trkpt><trkpt lat="45.5899902" lon="11.0351754"><ele>778.0</ele><time>2026-04-25T10:16:14.104Z</time></trkpt><trkpt lat="45.5901346" lon="11.0351109"><ele>779.0</ele><time>2026-04-25T10:16:15.103Z</time></trkpt><trkpt lat="45.5902623" lon="11.0349954"><ele>779.3333333333334</ele><time>2026-04-25T10:16:16.103Z</time></trkpt><trkpt lat="45.5903677" lon="11.0348354"><ele>779.6666666666667</ele><time>2026-04-25T10:16:17.102Z</time></trkpt><trkpt lat="45.5904614" lon="11.034667"><ele>780.0</ele><time>2026-04-25T10:16:18.102Z</time></trkpt><trkpt lat="45.5905699" lon="11.0345285"><ele>780.0</ele><time>2026-04-25T10:16:19.103Z</time></trkpt><trkpt lat="45.5906983" lon="11.0344148"><ele>780.0</ele><time>2026-04-25T10:16:20.102Z</time></trkpt><trkpt lat="45.5908476" lon="11.0343421"><ele>780.0</ele><time>2026-04-25T10:16:21.102Z</time></trkpt><trkpt lat="45.5910084" lon="11.034308"><ele>781.3333333333333</ele><time>2026-04-25T10:16:22.104Z</time></trkpt><trkpt lat="45.5911766" lon="11.0342953"><ele>782.6666666666666</ele><time>2026-04-25T10:16:23.102Z</time></trkpt><trkpt lat="45.5913486" lon="11.0342833"><ele>784.0</ele><time>2026-04-25T10:16:24.102Z</time></trkpt><trkpt lat="45.5915256" lon="11.0342722"><ele>784.0</ele><time>2026-04-25T10:16:25.103Z</time></trkpt><trkpt lat="45.5917053" lon="11.0342616"><ele>784.0</ele><time>2026-04-25T10:16:26.103Z</time></trkpt><trkpt lat="45.5918865" lon="11.0342503"><ele>784.0</ele><time>2026-04-25T10:16:27.104Z</time></trkpt><trkpt lat="45.5920693" lon="11.0342432"><ele>783.3333333333333</ele><time>2026-04-25T10:16:28.103Z</time></trkpt><trkpt lat="45.5922516" lon="11.0342338"><ele>782.6666666666667</ele><time>2026-04-25T10:16:29.102Z</time></trkpt><trkpt lat="45.5924305" lon="11.0342254"><ele>782.0</ele><time>2026-04-25T10:16:30.103Z</time></trkpt><trkpt lat="45.5925983" lon="11.034222"><ele>782.0</ele><time>2026-04-25T10:16:31.103Z</time></trkpt><trkpt lat="45.59276" lon="11.0342154"><ele>782.0</ele><time>2026-04-25T10:16:32.103Z</time></trkpt><trkpt lat="45.5929213" lon="11.0342002"><ele>782.0</ele><time>2026-04-25T10:16:33.103Z</time></trkpt><trkpt lat="45.5930829" lon="11.0341956"><ele>782.0</ele><time>2026-04-25T10:16:34.103Z</time></trkpt><trkpt lat="45.5932461" lon="11.0342306"><ele>782.0</ele><time>2026-04-25T10:16:35.102Z</time></trkpt><trkpt lat="45.5934093" lon="11.0342787"><ele>782.0</ele><time>2026-04-25T10:16:36.103Z</time></trkpt><trkpt lat="45.5935736" lon="11.0343399"><ele>780.3333333333334</ele><time>2026-04-25T10:16:37.103Z</time></trkpt><trkpt lat="45.5937398" lon="11.034408"><ele>778.6666666666667</ele><time>2026-04-25T10:16:38.102Z</time></trkpt><trkpt lat="45.5939061" lon="11.0344781"><ele>777.0</ele><time>2026-04-25T10:16:39.103Z</time></trkpt><trkpt lat="45.5940717" lon="11.0345544"><ele>777.0</ele><time>2026-04-25T10:16:40.102Z</time></trkpt><trkpt lat="45.5942353" lon="11.0346351"><ele>777.0</ele><time>2026-04-25T10:16:41.102Z</time></trkpt><trkpt lat="45.5943957" lon="11.0347293"><ele>777.0</ele><time>2026-04-25T10:16:42.103Z</time></trkpt><trkpt lat="45.5945526" lon="11.0348292"><ele>777.0</ele><time>2026-04-25T10:16:43.102Z</time></trkpt><trkpt lat="45.5947039" lon="11.0349405"><ele>777.0</ele><time>2026-04-25T10:16:44.103Z</time></trkpt><trkpt lat="45.5948504" lon="11.0350624"><ele>777.0</ele><time>2026-04-25T10:16:45.103Z</time></trkpt><trkpt lat="45.5949948" lon="11.0351862"><ele>781.0</ele><time>2026-04-25T10:16:46.103Z</time></trkpt><trkpt lat="45.5951375" lon="11.0353115"><ele>785.0</ele><time>2026-04-25T10:16:47.102Z</time></trkpt><trkpt lat="45.5952785" lon="11.0354436"><ele>789.0</ele><time>2026-04-25T10:16:48.103Z</time></trkpt><trkpt lat="45.5954224" lon="11.0355757"><ele>791.6666666666667</ele><time>2026-04-25T10:16:49.103Z</time></trkpt><trkpt lat="45.5955748" lon="11.0357067"><ele>794.3333333333334</ele><time>2026-04-25T10:16:50.102Z</time></trkpt><trkpt lat="45.595728" lon="11.0358364"><ele>797.0</ele><time>2026-04-25T10:16:51.102Z</time></trkpt><trkpt lat="45.5958821" lon="11.0359624"><ele>798.3333333333334</ele><time>2026-04-25T10:16:52.102Z</time></trkpt><trkpt lat="45.5960375" lon="11.0360887"><ele>799.6666666666667</ele><time>2026-04-25T10:16:53.103Z</time></trkpt><trkpt lat="45.5961975" lon="11.0362014"><ele>801.0</ele><time>2026-04-25T10:16:54.102Z</time></trkpt><trkpt lat="45.5963622" lon="11.0362997"><ele>805.6666666666667</ele><time>2026-04-25T10:16:55.103Z</time></trkpt><trkpt lat="45.5965295" lon="11.0363842"><ele>810.3333333333334</ele><time>2026-04-25T10:16:56.103Z</time></trkpt><trkpt lat="45.5966999" lon="11.0364569"><ele>815.0</ele><time>2026-04-25T10:16:57.104Z</time></trkpt><trkpt lat="45.5968785" lon="11.0365144"><ele>819.0</ele><time>2026-04-25T10:16:58.102Z</time></trkpt><trkpt lat="45.5970601" lon="11.0365605"><ele>823.0</ele><time>2026-04-25T10:16:59.102Z</time></trkpt><trkpt lat="45.5972416" lon="11.0365993"><ele>827.0</ele><time>2026-04-25T10:17:00.103Z</time></trkpt><trkpt lat="45.5974247" lon="11.0366229"><ele>827.0</ele><time>2026-04-25T10:17:01.103Z</time></trkpt><trkpt lat="45.5976098" lon="11.0366346"><ele>827.0</ele><time>2026-04-25T10:17:02.102Z</time></trkpt><trkpt lat="45.5977928" lon="11.0366321"><ele>827.0</ele><time>2026-04-25T10:17:03.102Z</time></trkpt><trkpt lat="45.5979758" lon="11.0366197"><ele>828.3333333333334</ele><time>2026-04-25T10:17:04.103Z</time></trkpt><trkpt lat="45.5981616" lon="11.0365943"><ele>829.6666666666667</ele><time>2026-04-25T10:17:05.103Z</time></trkpt><trkpt lat="45.5983474" lon="11.036568"><ele>831.0</ele><time>2026-04-25T10:17:06.104Z</time></trkpt><trkpt lat="45.5985369" lon="11.0365448"><ele>834.0</ele><time>2026-04-25T10:17:07.102Z</time></trkpt><trkpt lat="45.5987298" lon="11.0365249"><ele>837.0</ele><time>2026-04-25T10:17:08.103Z</time></trkpt><trkpt lat="45.598921" lon="11.0365039"><ele>840.0</ele><time>2026-04-25T10:17:09.104Z</time></trkpt><trkpt lat="45.5991094" lon="11.0364786"><ele>840.0</ele><time>2026-04-25T10:17:10.102Z</time></trkpt><trkpt lat="45.5992941" lon="11.0364514"><ele>840.0</ele><time>2026-04-25T10:17:11.102Z</time></trkpt><trkpt lat="45.5994697" lon="11.0364277"><ele>840.0</ele><time>2026-04-25T10:17:12.103Z</time></trkpt><trkpt lat="45.5996419" lon="11.036403"><ele>839.3333333333333</ele><time>2026-04-25T10:17:13.102Z</time></trkpt><trkpt lat="45.5998153" lon="11.0363651"><ele>838.6666666666666</ele><time>2026-04-25T10:17:14.103Z</time></trkpt><trkpt lat="45.5999857" lon="11.0363006"><ele>838.0</ele><time>2026-04-25T10:17:15.102Z</time></trkpt><trkpt lat="45.6001486" lon="11.0362062"><ele>838.0</ele><time>2026-04-25T10:17:16.104Z</time></trkpt><trkpt lat="45.6003014" lon="11.0360911"><ele>838.0</ele><time>2026-04-25T10:17:17.103Z</time></trkpt><trkpt lat="45.6004413" lon="11.0359409"><ele>838.0</ele><time>2026-04-25T10:17:18.103Z</time></trkpt><trkpt lat="45.6005714" lon="11.035768"><ele>836.6666666666666</ele><time>2026-04-25T10:17:19.103Z</time></trkpt><trkpt lat="45.6006915" lon="11.0355742"><ele>835.3333333333333</ele><time>2026-04-25T10:17:20.103Z</time></trkpt><trkpt lat="45.6007967" lon="11.0353635"><ele>834.0</ele><time>2026-04-25T10:17:21.102Z</time></trkpt><trkpt lat="45.6008777" lon="11.0351386"><ele>836.6666666666667</ele><time>2026-04-25T10:17:22.102Z</time></trkpt><trkpt lat="45.6009405" lon="11.0349026"><ele>839.3333333333334</ele><time>2026-04-25T10:17:23.103Z</time></trkpt><trkpt lat="45.6009807" lon="11.0346613"><ele>842.0</ele><time>2026-04-25T10:17:24.104Z</time></trkpt><trkpt lat="45.6009992" lon="11.0344125"><ele>842.0</ele><time>2026-04-25T10:17:25.103Z</time></trkpt><trkpt lat="45.6009947" lon="11.0341582"><ele>842.0</ele><time>2026-04-25T10:17:26.102Z</time></trkpt><trkpt lat="45.6009712" lon="11.0339"><ele>842.0</ele><time>2026-04-25T10:17:27.103Z</time></trkpt><trkpt lat="45.6009426" lon="11.0336424"><ele>842.3333333333334</ele><time>2026-04-25T10:17:28.102Z</time></trkpt><trkpt lat="45.600915" lon="11.0333801"><ele>842.6666666666667</ele><time>2026-04-25T10:17:29.103Z</time></trkpt><trkpt lat="45.6008974" lon="11.0331149"><ele>843.0</ele><time>2026-04-25T10:17:30.102Z</time></trkpt><trkpt lat="45.6008784" lon="11.0328514"><ele>843.0</ele><time>2026-04-25T10:17:31.104Z</time></trkpt><trkpt lat="45.6008506" lon="11.0325939"><ele>843.0</ele><time>2026-04-25T10:17:32.102Z</time></trkpt><trkpt lat="45.6008129" lon="11.0323439"><ele>843.0</ele><time>2026-04-25T10:17:33.103Z</time></trkpt><trkpt lat="45.6007728" lon="11.0320993"><ele>843.3333333333333</ele><time>2026-04-25T10:17:34.102Z</time></trkpt><trkpt lat="45.6007282" lon="11.0318624"><ele>843.6666666666666</ele><time>2026-04-25T10:17:35.102Z</time></trkpt><trkpt lat="45.6006996" lon="11.0316289"><ele>844.0</ele><time>2026-04-25T10:17:36.102Z</time></trkpt><trkpt lat="45.6007037" lon="11.0313968"><ele>845.6666666666666</ele><time>2026-04-25T10:17:37.103Z</time></trkpt><trkpt lat="45.6007209" lon="11.0311647"><ele>847.3333333333333</ele><time>2026-04-25T10:17:38.102Z</time></trkpt><trkpt lat="45.6007553" lon="11.0309319"><ele>849.0</ele><time>2026-04-25T10:17:39.103Z</time></trkpt><trkpt lat="45.6008122" lon="11.0307063"><ele>849.3333333333333</ele><time>2026-04-25T10:17:40.104Z</time></trkpt><trkpt lat="45.6008916" lon="11.030494"><ele>849.6666666666666</ele><time>2026-04-25T10:17:41.102Z</time></trkpt><trkpt lat="45.600992" lon="11.0302959"><ele>850.0</ele><time>2026-04-25T10:17:42.102Z</time></trkpt><trkpt lat="45.6011085" lon="11.0301141"><ele>850.3333333333333</ele><time>2026-04-25T10:17:43.102Z</time></trkpt><trkpt lat="45.6012406" lon="11.0299522"><ele>850.6666666666667</ele><time>2026-04-25T10:17:44.102Z</time></trkpt><trkpt lat="45.6013871" lon="11.0298164"><ele>851.0</ele><time>2026-04-25T10:17:45.103Z</time></trkpt><trkpt lat="45.6015437" lon="11.0296984"><ele>851.0</ele><time>2026-04-25T10:17:46.102Z</time></trkpt><trkpt lat="45.6017018" lon="11.0295872"><ele>851.0</ele><time>2026-04-25T10:17:47.102Z</time></trkpt><trkpt lat="45.6018609" lon="11.029478"><ele>851.0</ele><time>2026-04-25T10:17:48.102Z</time></trkpt><trkpt lat="45.6020227" lon="11.0293729"><ele>854.3333333333334</ele><time>2026-04-25T10:17:49.103Z</time></trkpt><trkpt lat="45.6021838" lon="11.0292665"><ele>857.6666666666667</ele><time>2026-04-25T10:17:50.102Z</time></trkpt><trkpt lat="45.6023423" lon="11.0291555"><ele>861.0</ele><time>2026-04-25T10:17:51.102Z</time></trkpt><trkpt lat="45.6025023" lon="11.0290406"><ele>862.6666666666667</ele><time>2026-04-25T10:17:52.103Z</time></trkpt><trkpt lat="45.6026654" lon="11.0289283"><ele>864.3333333333334</ele><time>2026-04-25T10:17:53.102Z</time></trkpt><trkpt lat="45.6028296" lon="11.028818"><ele>866.0</ele><time>2026-04-25T10:17:54.103Z</time></trkpt><trkpt lat="45.6029908" lon="11.0287104"><ele>868.0</ele><time>2026-04-25T10:17:55.103Z</time></trkpt><trkpt lat="45.6031495" lon="11.0286079"><ele>870.0</ele><time>2026-04-25T10:17:56.103Z</time></trkpt><trkpt lat="45.6033071" lon="11.0285152"><ele>872.0</ele><time>2026-04-25T10:17:57.104Z</time></trkpt><trkpt lat="45.6034646" lon="11.0284297"><ele>872.0</ele><time>2026-04-25T10:17:58.102Z</time></trkpt><trkpt lat="45.6036185" lon="11.0283545"><ele>872.0</ele><time>2026-04-25T10:17:59.104Z</time></trkpt><trkpt lat="45.6037759" lon="11.0282883"><ele>872.0</ele><time>2026-04-25T10:18:00.103Z</time></trkpt><trkpt lat="45.6039358" lon="11.0282272"><ele>879.6666666666667</ele><time>2026-04-25T10:18:01.103Z</time></trkpt><trkpt lat="45.6040971" lon="11.0281744"><ele>887.3333333333333</ele><time>2026-04-25T10:18:02.103Z</time></trkpt><trkpt lat="45.604261" lon="11.028135"><ele>895.0</ele><time>2026-04-25T10:18:03.103Z</time></trkpt><trkpt lat="45.6044272" lon="11.0280944"><ele>897.6666666666666</ele><time>2026-04-25T10:18:04.103Z</time></trkpt><trkpt lat="45.6045914" lon="11.0280514"><ele>900.3333333333333</ele><time>2026-04-25T10:18:05.102Z</time></trkpt><trkpt lat="45.6047524" lon="11.0280184"><ele>903.0</ele><time>2026-04-25T10:18:06.102Z</time></trkpt><trkpt lat="45.6049163" lon="11.0280094"><ele>903.0</ele><time>2026-04-25T10:18:07.103Z</time></trkpt><trkpt lat="45.6050843" lon="11.0280284"><ele>903.0</ele><time>2026-04-25T10:18:08.103Z</time></trkpt><trkpt lat="45.6052542" lon="11.0280784"><ele>903.0</ele><time>2026-04-25T10:18:09.102Z</time></trkpt><trkpt lat="45.6054273" lon="11.0281485"><ele>900.3333333333333</ele><time>2026-04-25T10:18:10.103Z</time></trkpt><trkpt lat="45.6056021" lon="11.0282195"><ele>897.6666666666666</ele><time>2026-04-25T10:18:11.103Z</time></trkpt><trkpt lat="45.605783" lon="11.0282872"><ele>895.0</ele><time>2026-04-25T10:18:12.103Z</time></trkpt><trkpt lat="45.6059595" lon="11.0283449"><ele>895.0</ele><time>2026-04-25T10:18:13.104Z</time></trkpt><trkpt lat="45.60614" lon="11.0284063"><ele>895.0</ele><time>2026-04-25T10:18:14.104Z</time></trkpt><trkpt lat="45.6063205" lon="11.0284707"><ele>895.0</ele><time>2026-04-25T10:18:15.102Z</time></trkpt><trkpt lat="45.6064987" lon="11.028545"><ele>902.0</ele><time>2026-04-25T10:18:16.102Z</time></trkpt><trkpt lat="45.6066799" lon="11.0286193"><ele>909.0</ele><time>2026-04-25T10:18:17.102Z</time></trkpt><trkpt lat="45.6068661" lon="11.0286946"><ele>916.0</ele><time>2026-04-25T10:18:18.103Z</time></trkpt><trkpt lat="45.6070522" lon="11.0287723"><ele>921.6666666666666</ele><time>2026-04-25T10:18:19.102Z</time></trkpt><trkpt lat="45.6072388" lon="11.028858"><ele>927.3333333333333</ele><time>2026-04-25T10:18:20.102Z</time></trkpt><trkpt lat="45.6074194" lon="11.0289511"><ele>933.0</ele><time>2026-04-25T10:18:21.102Z</time></trkpt><trkpt lat="45.6075953" lon="11.0290606"><ele>933.3333333333333</ele><time>2026-04-25T10:18:22.102Z</time></trkpt><trkpt lat="45.6077647" lon="11.0291892"><ele>933.6666666666666</ele><time>2026-04-25T10:18:23.102Z</time></trkpt><trkpt lat="45.6079329" lon="11.0293237"><ele>934.0</ele><time>2026-04-25T10:18:24.103Z</time></trkpt><trkpt lat="45.6081026" lon="11.0294579"><ele>934.0</ele><time>2026-04-25T10:18:25.102Z</time></trkpt><trkpt lat="45.6082692" lon="11.0296064"><ele>934.0</ele><time>2026-04-25T10:18:26.103Z</time></trkpt><trkpt lat="45.6084264" lon="11.0297735"><ele>934.0</ele><time>2026-04-25T10:18:27.102Z</time></trkpt><trkpt lat="45.6085752" lon="11.0299473"><ele>934.0</ele><time>2026-04-25T10:18:28.103Z</time></trkpt><trkpt lat="45.6087311" lon="11.0301088"><ele>934.0</ele><time>2026-04-25T10:18:29.103Z</time></trkpt><trkpt lat="45.6088965" lon="11.0302593"><ele>934.0</ele><time>2026-04-25T10:18:30.102Z</time></trkpt><trkpt lat="45.6090658" lon="11.0304153"><ele>934.0</ele><time>2026-04-25T10:18:31.103Z</time></trkpt><trkpt lat="45.6092394" lon="11.0305656"><ele>934.0</ele><time>2026-04-25T10:18:32.103Z</time></trkpt><trkpt lat="45.6094152" lon="11.0307087"><ele>934.0</ele><time>2026-04-25T10:18:33.102Z</time></trkpt><trkpt lat="45.6095889" lon="11.0308494"><ele>934.0</ele><time>2026-04-25T10:18:34.103Z</time></trkpt><trkpt lat="45.60976" lon="11.0309811"><ele>934.0</ele><time>2026-04-25T10:18:35.102Z</time></trkpt><trkpt lat="45.6099101" lon="11.0310977"><ele>934.0</ele><time>2026-04-25T10:18:36.103Z</time></trkpt><trkpt lat="45.6100427" lon="11.0311991"><ele>933.9999999999999</ele><time>2026-04-25T10:18:37.102Z</time></trkpt><trkpt lat="45.6101537" lon="11.0312867"><ele>934.0</ele><time>2026-04-25T10:18:38.103Z</time></trkpt><trkpt lat="45.6102433" lon="11.0313546"><ele>934.0</ele><time>2026-04-25T10:18:39.103Z</time></trkpt><trkpt lat="45.6103199" lon="11.0313741"><ele>934.0</ele><time>2026-04-25T10:18:40.102Z</time></trkpt><trkpt lat="45.6103831" lon="11.0313311"><ele>933.9999999999999</ele><time>2026-04-25T10:18:41.102Z</time></trkpt><trkpt lat="45.6104124" lon="11.0312465"><ele>934.0</ele><time>2026-04-25T10:18:42.102Z</time></trkpt><trkpt lat="45.6103923" lon="11.0311554"><ele>934.0</ele><time>2026-04-25T10:18:43.102Z</time></trkpt><trkpt lat="45.6103351" lon="11.0310827"><ele>934.0000000000001</ele><time>2026-04-25T10:18:44.102Z</time></trkpt><trkpt lat="45.610253" lon="11.0309939"><ele>934.0000000000001</ele><time>2026-04-25T10:18:45.102Z</time></trkpt><trkpt lat="45.6101527" lon="11.030891"><ele>934.0</ele><time>2026-04-25T10:18:46.103Z</time></trkpt><trkpt lat="45.6100454" lon="11.0307723"><ele>934.0</ele><time>2026-04-25T10:18:47.103Z</time></trkpt><trkpt lat="45.609931" lon="11.0306453"><ele>942.6666666666666</ele><time>2026-04-25T10:18:48.103Z</time></trkpt><trkpt lat="45.6098059" lon="11.0305005"><ele>951.3333333333333</ele><time>2026-04-25T10:18:49.102Z</time></trkpt><trkpt lat="45.6096774" lon="11.0303444"><ele>960.0</ele><time>2026-04-25T10:18:50.102Z</time></trkpt><trkpt lat="45.6095479" lon="11.0301757"><ele>959.3333333333333</ele><time>2026-04-25T10:18:51.103Z</time></trkpt><trkpt lat="45.6094132" lon="11.030006"><ele>958.6666666666666</ele><time>2026-04-25T10:18:52.102Z</time></trkpt><trkpt lat="45.6092783" lon="11.0298263"><ele>958.0</ele><time>2026-04-25T10:18:53.102Z</time></trkpt><trkpt lat="45.6091418" lon="11.0296499"><ele>958.0</ele><time>2026-04-25T10:18:54.102Z</time></trkpt><trkpt lat="45.6090078" lon="11.0294731"><ele>958.0</ele><time>2026-04-25T10:18:55.102Z</time></trkpt><trkpt lat="45.6088735" lon="11.0292921"><ele>958.0</ele><time>2026-04-25T10:18:56.103Z</time></trkpt><trkpt lat="45.6087403" lon="11.0291122"><ele>957.0</ele><time>2026-04-25T10:18:57.102Z</time></trkpt><trkpt lat="45.6086079" lon="11.0289315"><ele>956.0</ele><time>2026-04-25T10:18:58.103Z</time></trkpt><trkpt lat="45.6084776" lon="11.0287505"><ele>955.0</ele><time>2026-04-25T10:18:59.103Z</time></trkpt><trkpt lat="45.6083476" lon="11.0285779"><ele>955.0</ele><time>2026-04-25T10:19:00.103Z</time></trkpt><trkpt lat="45.6082223" lon="11.0284098"><ele>955.0</ele><time>2026-04-25T10:19:01.102Z</time></trkpt><trkpt lat="45.6080979" lon="11.0282452"><ele>955.0</ele><time>2026-04-25T10:19:02.102Z</time></trkpt><trkpt lat="45.6079791" lon="11.028085"><ele>955.3333333333333</ele><time>2026-04-25T10:19:03.103Z</time></trkpt><trkpt lat="45.6078612" lon="11.0279254"><ele>955.6666666666667</ele><time>2026-04-25T10:19:04.102Z</time></trkpt><trkpt lat="45.6077453" lon="11.0277649"><ele>956.0</ele><time>2026-04-25T10:19:05.103Z</time></trkpt><trkpt lat="45.6076287" lon="11.0276051"><ele>958.6666666666667</ele><time>2026-04-25T10:19:06.103Z</time></trkpt><trkpt lat="45.6075087" lon="11.0274452"><ele>961.3333333333333</ele><time>2026-04-25T10:19:07.102Z</time></trkpt><trkpt lat="45.6073841" lon="11.0272864"><ele>964.0</ele><time>2026-04-25T10:19:08.102Z</time></trkpt><trkpt lat="45.6072606" lon="11.0271273"><ele>964.0</ele><time>2026-04-25T10:19:09.103Z</time></trkpt><trkpt lat="45.607139" lon="11.0269671"><ele>964.0</ele><time>2026-04-25T10:19:10.103Z</time></trkpt><trkpt lat="45.6070212" lon="11.0268058"><ele>964.0</ele><time>2026-04-25T10:19:11.104Z</time></trkpt><trkpt lat="45.6069034" lon="11.0266524"><ele>962.5</ele><time>2026-04-25T10:19:12.103Z</time></trkpt><trkpt lat="45.6067964" lon="11.0265122"><ele>961.0</ele><time>2026-04-25T10:19:13.102Z</time></trkpt><trkpt lat="45.6066979" lon="11.0263794"><ele>959.5</ele><time>2026-04-25T10:19:14.102Z</time></trkpt><trkpt lat="45.6066171" lon="11.0262464"><ele>958.0</ele><time>2026-04-25T10:19:15.102Z</time></trkpt><trkpt lat="45.6065633" lon="11.0261031"><ele>958.0</ele><time>2026-04-25T10:19:16.102Z</time></trkpt><trkpt lat="45.6065521" lon="11.0259513"><ele>958.0</ele><time>2026-04-25T10:19:17.103Z</time></trkpt><trkpt lat="45.6065847" lon="11.0258068"><ele>958.0</ele><time>2026-04-25T10:19:18.103Z</time></trkpt><trkpt lat="45.6066564" lon="11.0256922"><ele>958.0</ele><time>2026-04-25T10:19:19.102Z</time></trkpt><trkpt lat="45.6067545" lon="11.0256201"><ele>958.0</ele><time>2026-04-25T10:19:20.103Z</time></trkpt><trkpt lat="45.6068631" lon="11.0256019"><ele>959.25</ele><time>2026-04-25T10:19:21.104Z</time></trkpt><trkpt lat="45.6069709" lon="11.0256348"><ele>960.5</ele><time>2026-04-25T10:19:22.103Z</time></trkpt><trkpt lat="45.607066" lon="11.0257192"><ele>961.75</ele><time>2026-04-25T10:19:23.102Z</time></trkpt><trkpt lat="45.6071513" lon="11.0258422"><ele>963.0</ele><time>2026-04-25T10:19:24.103Z</time></trkpt><trkpt lat="45.6072321" lon="11.0259889"><ele>963.0</ele><time>2026-04-25T10:19:25.102Z</time></trkpt><trkpt lat="45.6073177" lon="11.0261528"><ele>963.0</ele><time>2026-04-25T10:19:26.102Z</time></trkpt><trkpt lat="45.6074119" lon="11.0263207"><ele>963.0</ele><time>2026-04-25T10:19:27.103Z</time></trkpt><trkpt lat="45.6075158" lon="11.0264942"><ele>963.3333333333333</ele><time>2026-04-25T10:19:28.103Z</time></trkpt><trkpt lat="45.6076237" lon="11.0266686"><ele>963.6666666666666</ele><time>2026-04-25T10:19:29.102Z</time></trkpt><trkpt lat="45.6077388" lon="11.0268404"><ele>964.0</ele><time>2026-04-25T10:19:30.103Z</time></trkpt><trkpt lat="45.6078652" lon="11.027003"><ele>968.6666666666666</ele><time>2026-04-25T10:19:31.102Z</time></trkpt><trkpt lat="45.6080019" lon="11.0271542"><ele>973.3333333333333</ele><time>2026-04-25T10:19:32.102Z</time></trkpt><trkpt lat="45.6081422" lon="11.0272962"><ele>978.0</ele><time>2026-04-25T10:19:33.103Z</time></trkpt><trkpt lat="45.6082889" lon="11.0274274"><ele>976.3333333333333</ele><time>2026-04-25T10:19:34.102Z</time></trkpt><trkpt lat="45.6084394" lon="11.0275561"><ele>974.6666666666666</ele><time>2026-04-25T10:19:35.102Z</time></trkpt><trkpt lat="45.6085857" lon="11.027686"><ele>973.0</ele><time>2026-04-25T10:19:36.102Z</time></trkpt><trkpt lat="45.6087289" lon="11.0278166"><ele>979.3333333333333</ele><time>2026-04-25T10:19:37.102Z</time></trkpt><trkpt lat="45.6088713" lon="11.0279524"><ele>985.6666666666667</ele><time>2026-04-25T10:19:38.103Z</time></trkpt><trkpt lat="45.6090112" lon="11.0280891"><ele>992.0</ele><time>2026-04-25T10:19:39.102Z</time></trkpt><trkpt lat="45.6091476" lon="11.0282297"><ele>990.0</ele><time>2026-04-25T10:19:40.102Z</time></trkpt><trkpt lat="45.6092817" lon="11.0283677"><ele>988.0</ele><time>2026-04-25T10:19:41.102Z</time></trkpt><trkpt lat="45.6094178" lon="11.028504"><ele>986.0</ele><time>2026-04-25T10:19:42.103Z</time></trkpt><trkpt lat="45.6095576" lon="11.0286342"><ele>992.3333333333334</ele><time>2026-04-25T10:19:43.102Z</time></trkpt><trkpt lat="45.6097059" lon="11.0287556"><ele>998.6666666666667</ele><time>2026-04-25T10:19:44.103Z</time></trkpt><trkpt lat="45.6098615" lon="11.0288753"><ele>1005.0</ele><time>2026-04-25T10:19:45.102Z</time></trkpt><trkpt lat="45.6100228" lon="11.0289999"><ele>1005.0</ele><time>2026-04-25T10:19:46.103Z</time></trkpt><trkpt lat="45.6101882" lon="11.0291254"><ele>1005.0</ele><time>2026-04-25T10:19:47.103Z</time></trkpt><trkpt lat="45.6103605" lon="11.0292502"><ele>1005.0</ele><time>2026-04-25T10:19:48.103Z</time></trkpt><trkpt lat="45.610539" lon="11.0293729"><ele>1007.3333333333333</ele><time>2026-04-25T10:19:49.103Z</time></trkpt><trkpt lat="45.6107203" lon="11.0294946"><ele>1009.6666666666666</ele><time>2026-04-25T10:19:50.104Z</time></trkpt><trkpt lat="45.6109054" lon="11.029611"><ele>1012.0</ele><time>2026-04-25T10:19:51.102Z</time></trkpt><trkpt lat="45.6110908" lon="11.0297224"><ele>1011.3333333333333</ele><time>2026-04-25T10:19:52.103Z</time></trkpt><trkpt lat="45.6112771" lon="11.0298269"><ele>1010.6666666666667</ele><time>2026-04-25T10:19:53.102Z</time></trkpt><trkpt lat="45.6114628" lon="11.0299253"><ele>1010.0</ele><time>2026-04-25T10:19:54.102Z</time></trkpt><trkpt lat="45.6116479" lon="11.0300182"><ele>1010.0</ele><time>2026-04-25T10:19:55.103Z</time></trkpt><trkpt lat="45.6118325" lon="11.0301033"><ele>1010.0</ele><time>2026-04-25T10:19:56.103Z</time></trkpt><trkpt lat="45.6120214" lon="11.030177"><ele>1010.0</ele><time>2026-04-25T10:19:57.103Z</time></trkpt><trkpt lat="45.61221" lon="11.0302415"><ele>1015.0</ele><time>2026-04-25T10:19:58.102Z</time></trkpt><trkpt lat="45.612397" lon="11.0302992"><ele>1020.0</ele><time>2026-04-25T10:19:59.102Z</time></trkpt><trkpt lat="45.6125852" lon="11.030349"><ele>1025.0</ele><time>2026-04-25T10:20:00.102Z</time></trkpt><trkpt lat="45.6127714" lon="11.0303912"><ele>1029.6666666666667</ele><time>2026-04-25T10:20:01.102Z</time></trkpt><trkpt lat="45.6129586" lon="11.0304292"><ele>1034.3333333333333</ele><time>2026-04-25T10:20:02.102Z</time></trkpt><trkpt lat="45.613144" lon="11.0304601"><ele>1039.0</ele><time>2026-04-25T10:20:03.103Z</time></trkpt><trkpt lat="45.6133304" lon="11.0304841"><ele>1039.0</ele><time>2026-04-25T10:20:04.102Z</time></trkpt><trkpt lat="45.6135158" lon="11.0305073"><ele>1039.0</ele><time>2026-04-25T10:20:05.103Z</time></trkpt><trkpt lat="45.6137" lon="11.030525"><ele>1039.0</ele><time>2026-04-25T10:20:06.102Z</time></trkpt><trkpt lat="45.613887" lon="11.0305386"><ele>1040.6666666666665</ele><time>2026-04-25T10:20:07.103Z</time></trkpt><trkpt lat="45.6140771" lon="11.0305483"><ele>1042.3333333333333</ele><time>2026-04-25T10:20:08.103Z</time></trkpt><trkpt lat="45.6142645" lon="11.0305515"><ele>1044.0</ele><time>2026-04-25T10:20:09.103Z</time></trkpt><trkpt lat="45.6144495" lon="11.0305625"><ele>1047.6666666666667</ele><time>2026-04-25T10:20:10.104Z</time></trkpt><trkpt lat="45.6146346" lon="11.0305791"><ele>1051.3333333333335</ele><time>2026-04-25T10:20:11.103Z</time></trkpt><trkpt lat="45.6148198" lon="11.0306028"><ele>1055.0</ele><time>2026-04-25T10:20:12.103Z</time></trkpt><trkpt lat="45.6150052" lon="11.0306343"><ele>1055.0</ele><time>2026-04-25T10:20:13.102Z</time></trkpt><trkpt lat="45.6151886" lon="11.0306696"><ele>1055.0</ele><time>2026-04-25T10:20:14.102Z</time></trkpt><trkpt lat="45.6153702" lon="11.0307049"><ele>1055.0</ele><time>2026-04-25T10:20:15.102Z</time></trkpt><trkpt lat="45.6155492" lon="11.0307381"><ele>1057.3333333333335</ele><time>2026-04-25T10:20:16.103Z</time></trkpt><trkpt lat="45.6157261" lon="11.0307769"><ele>1059.6666666666667</ele><time>2026-04-25T10:20:17.103Z</time></trkpt><trkpt lat="45.6158998" lon="11.0308099"><ele>1062.0</ele><time>2026-04-25T10:20:18.102Z</time></trkpt><trkpt lat="45.6160702" lon="11.0308429"><ele>1056.3333333333333</ele><time>2026-04-25T10:20:19.102Z</time></trkpt><trkpt lat="45.6162427" lon="11.030877"><ele>1050.6666666666665</ele><time>2026-04-25T10:20:20.102Z</time></trkpt><trkpt lat="45.6164192" lon="11.0309112"><ele>1045.0</ele><time>2026-04-25T10:20:21.103Z</time></trkpt><trkpt lat="45.6165954" lon="11.030947"><ele>1045.0</ele><time>2026-04-25T10:20:22.102Z</time></trkpt><trkpt lat="45.616771" lon="11.030999"><ele>1045.0</ele><time>2026-04-25T10:20:23.103Z</time></trkpt><trkpt lat="45.6169418" lon="11.0310711"><ele>1045.0</ele><time>2026-04-25T10:20:24.102Z</time></trkpt><trkpt lat="45.6171106" lon="11.0311654"><ele>1051.0</ele><time>2026-04-25T10:20:25.102Z</time></trkpt><trkpt lat="45.6172709" lon="11.0312777"><ele>1057.0</ele><time>2026-04-25T10:20:26.103Z</time></trkpt><trkpt lat="45.6174281" lon="11.0313862"><ele>1063.0</ele><time>2026-04-25T10:20:27.103Z</time></trkpt><trkpt lat="45.6175874" lon="11.0314746"><ele>1063.0</ele><time>2026-04-25T10:20:28.102Z</time></trkpt><trkpt lat="45.6177447" lon="11.0315516"><ele>1063.0</ele><time>2026-04-25T10:20:29.102Z</time></trkpt><trkpt lat="45.6178987" lon="11.0316242"><ele>1063.0</ele><time>2026-04-25T10:20:30.103Z</time></trkpt><trkpt lat="45.6180453" lon="11.0316962"><ele>1061.75</ele><time>2026-04-25T10:20:31.102Z</time></trkpt><trkpt lat="45.6181798" lon="11.0317779"><ele>1060.5</ele><time>2026-04-25T10:20:32.102Z</time></trkpt><trkpt lat="45.6183011" lon="11.0318791"><ele>1059.25</ele><time>2026-04-25T10:20:33.102Z</time></trkpt><trkpt lat="45.6184184" lon="11.0319868"><ele>1058.0</ele><time>2026-04-25T10:20:34.103Z</time></trkpt><trkpt lat="45.6185315" lon="11.0320947"><ele>1058.0</ele><time>2026-04-25T10:20:35.103Z</time></trkpt><trkpt lat="45.6186422" lon="11.0322007"><ele>1058.0</ele><time>2026-04-25T10:20:36.102Z</time></trkpt><trkpt lat="45.6187516" lon="11.0323045"><ele>1058.0</ele><time>2026-04-25T10:20:37.102Z</time></trkpt><trkpt lat="45.6188562" lon="11.032411"><ele>1058.0</ele><time>2026-04-25T10:20:38.102Z</time></trkpt><trkpt lat="45.618946" lon="11.0325238"><ele>1059.0</ele><time>2026-04-25T10:20:39.102Z</time></trkpt><trkpt lat="45.6190201" lon="11.0326488"><ele>1060.0</ele><time>2026-04-25T10:20:40.103Z</time></trkpt><trkpt lat="45.6190778" lon="11.0327873"><ele>1061.0</ele><time>2026-04-25T10:20:41.103Z</time></trkpt><trkpt lat="45.6191238" lon="11.0329351"><ele>1062.0</ele><time>2026-04-25T10:20:42.103Z</time></trkpt><trkpt lat="45.6191641" lon="11.0330878"><ele>1062.0</ele><time>2026-04-25T10:20:43.103Z</time></trkpt><trkpt lat="45.6192" lon="11.0332505"><ele>1062.0</ele><time>2026-04-25T10:20:44.102Z</time></trkpt><trkpt lat="45.6192355" lon="11.0334127"><ele>1062.0</ele><time>2026-04-25T10:20:45.103Z</time></trkpt><trkpt lat="45.6192717" lon="11.0335774"><ele>1062.0</ele><time>2026-04-25T10:20:46.102Z</time></trkpt><trkpt lat="45.6193061" lon="11.0337449"><ele>1060.4</ele><time>2026-04-25T10:20:47.102Z</time></trkpt><trkpt lat="45.6193391" lon="11.0339131"><ele>1058.8000000000002</ele><time>2026-04-25T10:20:48.102Z</time></trkpt><trkpt lat="45.6193619" lon="11.0340658"><ele>1057.2</ele><time>2026-04-25T10:20:49.102Z</time></trkpt><trkpt lat="45.6193783" lon="11.0342192"><ele>1055.6000000000001</ele><time>2026-04-25T10:20:50.103Z</time></trkpt><trkpt lat="45.6193873" lon="11.0343734"><ele>1054.0</ele><time>2026-04-25T10:20:51.103Z</time></trkpt><trkpt lat="45.6193875" lon="11.0345319"><ele>1054.2</ele><time>2026-04-25T10:20:52.103Z</time></trkpt><trkpt lat="45.6193815" lon="11.0346885"><ele>1054.4</ele><time>2026-04-25T10:20:53.103Z</time></trkpt><trkpt lat="45.6193742" lon="11.0348434"><ele>1054.6</ele><time>2026-04-25T10:20:54.103Z</time></trkpt><trkpt lat="45.6193709" lon="11.0349878"><ele>1054.8</ele><time>2026-04-25T10:20:55.102Z</time></trkpt><trkpt lat="45.6193676" lon="11.0351151"><ele>1055.0</ele><time>2026-04-25T10:20:56.102Z</time></trkpt><trkpt lat="45.6193764" lon="11.0352331"><ele>1055.0</ele><time>2026-04-25T10:20:57.104Z</time></trkpt><trkpt lat="45.6194033" lon="11.0353433"><ele>1055.0</ele><time>2026-04-25T10:20:58.102Z</time></trkpt><trkpt lat="45.6194455" lon="11.035423"><ele>1055.0</ele><time>2026-04-25T10:20:59.103Z</time></trkpt><trkpt lat="45.6194995" lon="11.0354732"><ele>1055.0</ele><time>2026-04-25T10:21:00.103Z</time></trkpt><trkpt lat="45.6196002" lon="11.0355394"><ele>1055.0</ele><time>2026-04-25T10:21:02.102Z</time></trkpt><trkpt lat="45.61968" lon="11.0355946"><ele>1055.0</ele><time>2026-04-25T10:21:04.102Z</time></trkpt><trkpt lat="45.6197502" lon="11.0355697"><ele>1057.0</ele><time>2026-04-25T10:21:07.103Z</time></trkpt><trkpt lat="45.6197899" lon="11.0354433"><ele>1059.0</ele><time>2026-04-25T10:23:45.102Z</time></trkpt><trkpt lat="45.6198134" lon="11.0353518"><ele>1061.0</ele><time>2026-04-25T10:23:47.103Z</time></trkpt><trkpt lat="45.6198699" lon="11.0352319"><ele>1063.0</ele><time>2026-04-25T10:23:49.103Z</time></trkpt><trkpt lat="45.6198963" lon="11.0351397"><ele>1065.0</ele><time>2026-04-25T10:23:50.102Z</time></trkpt><trkpt lat="45.6199103" lon="11.0350325"><ele>1067.0</ele><time>2026-04-25T10:23:51.104Z</time></trkpt><trkpt lat="45.619917" lon="11.0349089"><ele>1068.8</ele><time>2026-04-25T10:23:52.102Z</time></trkpt><trkpt lat="45.6199159" lon="11.0347766"><ele>1070.6</ele><time>2026-04-25T10:23:53.103Z</time></trkpt><trkpt lat="45.6199138" lon="11.0346436"><ele>1072.3999999999999</ele><time>2026-04-25T10:23:54.103Z</time></trkpt><trkpt lat="45.6199115" lon="11.0345102"><ele>1074.2</ele><time>2026-04-25T10:23:55.102Z</time></trkpt><trkpt lat="45.619909" lon="11.034369"><ele>1076.0</ele><time>2026-04-25T10:23:56.103Z</time></trkpt><trkpt lat="45.6198995" lon="11.034224"><ele>1077.8</ele><time>2026-04-25T10:23:57.103Z</time></trkpt><trkpt lat="45.6198899" lon="11.0340739"><ele>1079.6</ele><time>2026-04-25T10:23:58.103Z</time></trkpt><trkpt lat="45.6198818" lon="11.0339193"><ele>1081.4</ele><time>2026-04-25T10:23:59.102Z</time></trkpt><trkpt lat="45.6198773" lon="11.0337598"><ele>1083.2</ele><time>2026-04-25T10:24:00.103Z</time></trkpt><trkpt lat="45.6198719" lon="11.0336004"><ele>1085.0</ele><time>2026-04-25T10:24:01.103Z</time></trkpt><trkpt lat="45.6198772" lon="11.0334461"><ele>1085.2</ele><time>2026-04-25T10:24:02.103Z</time></trkpt><trkpt lat="45.6198877" lon="11.0333043"><ele>1085.4</ele><time>2026-04-25T10:24:03.103Z</time></trkpt><trkpt lat="45.6198872" lon="11.0331691"><ele>1085.6</ele><time>2026-04-25T10:24:04.103Z</time></trkpt><trkpt lat="45.6198768" lon="11.033035"><ele>1085.8</ele><time>2026-04-25T10:24:05.102Z</time></trkpt><trkpt lat="45.6198645" lon="11.0329019"><ele>1086.0</ele><time>2026-04-25T10:24:06.102Z</time></trkpt><trkpt lat="45.6198498" lon="11.032774"><ele>1086.0</ele><time>2026-04-25T10:24:07.103Z</time></trkpt><trkpt lat="45.6198392" lon="11.0326637"><ele>1086.0</ele><time>2026-04-25T10:24:08.102Z</time></trkpt><trkpt lat="45.619835" lon="11.0325679"><ele>1086.0</ele><time>2026-04-25T10:24:09.104Z</time></trkpt><trkpt lat="45.6198465" lon="11.0324736"><ele>1086.0</ele><time>2026-04-25T10:24:10.103Z</time></trkpt><trkpt lat="45.6198768" lon="11.0323866"><ele>1086.0</ele><time>2026-04-25T10:24:11.102Z</time></trkpt><trkpt lat="45.6199279" lon="11.0323095"><ele>1086.0</ele><time>2026-04-25T10:24:12.103Z</time></trkpt><trkpt lat="45.6199932" lon="11.0322402"><ele>1086.0</ele><time>2026-04-25T10:24:13.103Z</time></trkpt><trkpt lat="45.6200625" lon="11.0321695"><ele>1085.3333333333333</ele><time>2026-04-25T10:24:14.102Z</time></trkpt><trkpt lat="45.6201303" lon="11.0320952"><ele>1084.6666666666667</ele><time>2026-04-25T10:24:15.103Z</time></trkpt><trkpt lat="45.6201968" lon="11.0320191"><ele>1084.0</ele><time>2026-04-25T10:24:16.103Z</time></trkpt><trkpt lat="45.6202622" lon="11.0319442"><ele>1083.3333333333335</ele><time>2026-04-25T10:24:17.103Z</time></trkpt><trkpt lat="45.6203295" lon="11.0318724"><ele>1082.6666666666667</ele><time>2026-04-25T10:24:18.103Z</time></trkpt><trkpt lat="45.6204009" lon="11.0318098"><ele>1082.0</ele><time>2026-04-25T10:24:19.103Z</time></trkpt><trkpt lat="45.6204755" lon="11.0317636"><ele>1084.4285714285716</ele><time>2026-04-25T10:24:20.103Z</time></trkpt><trkpt lat="45.6205492" lon="11.0317141"><ele>1086.857142857143</ele><time>2026-04-25T10:24:21.102Z</time></trkpt><trkpt lat="45.6206115" lon="11.0316497"><ele>1089.2857142857142</ele><time>2026-04-25T10:24:22.102Z</time></trkpt><trkpt lat="45.6206567" lon="11.0315629"><ele>1091.7142857142858</ele><time>2026-04-25T10:24:23.103Z</time></trkpt><trkpt lat="45.6206673" lon="11.0314565"><ele>1094.142857142857</ele><time>2026-04-25T10:24:24.102Z</time></trkpt><trkpt lat="45.6206476" lon="11.0313604"><ele>1096.5714285714287</ele><time>2026-04-25T10:24:25.103Z</time></trkpt><trkpt lat="45.6206121" lon="11.0312746"><ele>1099.0</ele><time>2026-04-25T10:24:26.104Z</time></trkpt><trkpt lat="45.6205703" lon="11.0311941"><ele>1099.0</ele><time>2026-04-25T10:24:27.102Z</time></trkpt><trkpt lat="45.6205248" lon="11.0311157"><ele>1099.0</ele><time>2026-04-25T10:24:28.103Z</time></trkpt><trkpt lat="45.6204772" lon="11.0310412"><ele>1099.0</ele><time>2026-04-25T10:24:29.103Z</time></trkpt><trkpt lat="45.6204355" lon="11.0309696"><ele>1099.0</ele><time>2026-04-25T10:24:30.103Z</time></trkpt><trkpt lat="45.6203979" lon="11.0308024"><ele>1099.0</ele><time>2026-04-25T10:24:32.102Z</time></trkpt><trkpt lat="45.6204331" lon="11.0306381"><ele>1097.5714285714287</ele><time>2026-04-25T10:24:34.103Z</time></trkpt><trkpt lat="45.620478" lon="11.0305728"><ele>1096.142857142857</ele><time>2026-04-25T10:24:35.102Z</time></trkpt><trkpt lat="45.6205413" lon="11.0305321"><ele>1094.7142857142858</ele><time>2026-04-25T10:24:36.102Z</time></trkpt><trkpt lat="45.6206133" lon="11.0305135"><ele>1093.2857142857142</ele><time>2026-04-25T10:24:37.103Z</time></trkpt><trkpt lat="45.6206919" lon="11.0305149"><ele>1091.857142857143</ele><time>2026-04-25T10:24:38.102Z</time></trkpt><trkpt lat="45.6207665" lon="11.0305196"><ele>1090.4285714285716</ele><time>2026-04-25T10:24:39.102Z</time></trkpt><trkpt lat="45.6208295" lon="11.0305266"><ele>1089.0</ele><time>2026-04-25T10:24:40.102Z</time></trkpt><trkpt lat="45.6209486" lon="11.0305624"><ele>1089.0</ele><time>2026-04-25T10:24:42.104Z</time></trkpt><trkpt lat="45.6210154" lon="11.0305942"><ele>1089.0</ele><time>2026-04-25T10:24:43.103Z</time></trkpt><trkpt lat="45.621088" lon="11.0306268"><ele>1089.0</ele><time>2026-04-25T10:24:44.103Z</time></trkpt><trkpt lat="45.6211621" lon="11.0306619"><ele>1089.0</ele><time>2026-04-25T10:24:45.103Z</time></trkpt><trkpt lat="45.6212366" lon="11.0306955"><ele>1089.0</ele><time>2026-04-25T10:24:46.102Z</time></trkpt><trkpt lat="45.6213079" lon="11.0307284"><ele>1089.0</ele><time>2026-04-25T10:24:47.102Z</time></trkpt><trkpt lat="45.62138" lon="11.0307595"><ele>1090.7142857142858</ele><time>2026-04-25T10:24:48.103Z</time></trkpt><trkpt lat="45.6214536" lon="11.0307798"><ele>1092.4285714285716</ele><time>2026-04-25T10:24:49.103Z</time></trkpt><trkpt lat="45.621525" lon="11.0307796"><ele>1094.142857142857</ele><time>2026-04-25T10:24:50.103Z</time></trkpt><trkpt lat="45.6215966" lon="11.030768"><ele>1095.857142857143</ele><time>2026-04-25T10:24:51.102Z</time></trkpt><trkpt lat="45.6216684" lon="11.030723"><ele>1097.5714285714284</ele><time>2026-04-25T10:24:52.104Z</time></trkpt><trkpt lat="45.6217318" lon="11.0306824"><ele>1099.2857142857142</ele><time>2026-04-25T10:24:53.104Z</time></trkpt><trkpt lat="45.6217877" lon="11.0306408"><ele>1101.0</ele><time>2026-04-25T10:24:54.103Z</time></trkpt><trkpt lat="45.6219015" lon="11.0305879"><ele>1102.3999999999999</ele><time>2026-04-25T10:24:56.103Z</time></trkpt><trkpt lat="45.6219904" lon="11.0306054"><ele>1103.8</ele><time>2026-04-25T10:24:58.102Z</time></trkpt><trkpt lat="45.6220629" lon="11.0306297"><ele>1105.1999999999998</ele><time>2026-04-25T10:25:00.103Z</time></trkpt><trkpt lat="45.6221471" lon="11.0306642"><ele>1106.6</ele><time>2026-04-25T10:25:02.102Z</time></trkpt><trkpt lat="45.6222644" lon="11.030735"><ele>1108.0</ele><time>2026-04-25T10:25:04.103Z</time></trkpt><trkpt lat="45.622319" lon="11.0308042"><ele>1108.2</ele><time>2026-04-25T10:25:05.103Z</time></trkpt><trkpt lat="45.6223738" lon="11.0308868"><ele>1108.4</ele><time>2026-04-25T10:25:06.103Z</time></trkpt><trkpt lat="45.6224222" lon="11.0309906"><ele>1108.6000000000001</ele><time>2026-04-25T10:25:07.102Z</time></trkpt><trkpt lat="45.6224682" lon="11.031107"><ele>1108.8</ele><time>2026-04-25T10:25:08.103Z</time></trkpt><trkpt lat="45.622525" lon="11.0312192"><ele>1109.0</ele><time>2026-04-25T10:25:09.103Z</time></trkpt><trkpt lat="45.6225924" lon="11.0313116"><ele>1109.0</ele><time>2026-04-25T10:25:10.102Z</time></trkpt><trkpt lat="45.6226717" lon="11.0313831"><ele>1109.0</ele><time>2026-04-25T10:25:11.102Z</time></trkpt><trkpt lat="45.6227565" lon="11.0314365"><ele>1109.0</ele><time>2026-04-25T10:25:12.103Z</time></trkpt><trkpt lat="45.6228404" lon="11.0314811"><ele>1109.0</ele><time>2026-04-25T10:25:13.102Z</time></trkpt><trkpt lat="45.6229169" lon="11.0315523"><ele>1109.0</ele><time>2026-04-25T10:25:14.102Z</time></trkpt><trkpt lat="45.6229789" lon="11.0316561"><ele>1109.1666666666667</ele><time>2026-04-25T10:25:15.104Z</time></trkpt><trkpt lat="45.6230231" lon="11.0317746"><ele>1109.3333333333335</ele><time>2026-04-25T10:25:16.104Z</time></trkpt><trkpt lat="45.6230661" lon="11.0318807"><ele>1109.5</ele><time>2026-04-25T10:25:17.103Z</time></trkpt><trkpt lat="45.6231259" lon="11.0319651"><ele>1109.6666666666667</ele><time>2026-04-25T10:25:18.102Z</time></trkpt><trkpt lat="45.6232165" lon="11.0319965"><ele>1109.8333333333333</ele><time>2026-04-25T10:25:19.102Z</time></trkpt><trkpt lat="45.6232997" lon="11.0319824"><ele>1110.0</ele><time>2026-04-25T10:25:20.102Z</time></trkpt><trkpt lat="45.6233743" lon="11.0319202"><ele>1110.0</ele><time>2026-04-25T10:25:21.102Z</time></trkpt><trkpt lat="45.6234467" lon="11.0318512"><ele>1110.0</ele><time>2026-04-25T10:25:22.103Z</time></trkpt><trkpt lat="45.6235318" lon="11.0318202"><ele>1110.0</ele><time>2026-04-25T10:25:23.102Z</time></trkpt><trkpt lat="45.6236172" lon="11.0318206"><ele>1110.0</ele><time>2026-04-25T10:25:24.103Z</time></trkpt><trkpt lat="45.6236986" lon="11.0318713"><ele>1110.0</ele><time>2026-04-25T10:25:25.103Z</time></trkpt><trkpt lat="45.6237665" lon="11.0319586"><ele>1110.0</ele><time>2026-04-25T10:25:26.102Z</time></trkpt><trkpt lat="45.6238389" lon="11.0320462"><ele>1109.2</ele><time>2026-04-25T10:25:27.103Z</time></trkpt><trkpt lat="45.623934" lon="11.0321126"><ele>1108.4</ele><time>2026-04-25T10:25:28.102Z</time></trkpt><trkpt lat="45.6240379" lon="11.0321524"><ele>1107.6</ele><time>2026-04-25T10:25:29.102Z</time></trkpt><trkpt lat="45.624147" lon="11.0321549"><ele>1106.8</ele><time>2026-04-25T10:25:30.102Z</time></trkpt><trkpt lat="45.6242551" lon="11.0321375"><ele>1106.0</ele><time>2026-04-25T10:25:31.103Z</time></trkpt><trkpt lat="45.6243609" lon="11.0321078"><ele>1106.0</ele><time>2026-04-25T10:25:32.103Z</time></trkpt><trkpt lat="45.6244585" lon="11.0321004"><ele>1106.0</ele><time>2026-04-25T10:25:33.102Z</time></trkpt><trkpt lat="45.6245531" lon="11.0321358"><ele>1106.0</ele><time>2026-04-25T10:25:34.103Z</time></trkpt><trkpt lat="45.6246437" lon="11.0322146"><ele>1106.0</ele><time>2026-04-25T10:25:35.103Z</time></trkpt><trkpt lat="45.6247281" lon="11.0323088"><ele>1106.0</ele><time>2026-04-25T10:25:36.104Z</time></trkpt><trkpt lat="45.6248175" lon="11.0324055"><ele>1109.0</ele><time>2026-04-25T10:25:37.102Z</time></trkpt><trkpt lat="45.6249113" lon="11.0325048"><ele>1112.0</ele><time>2026-04-25T10:25:38.102Z</time></trkpt><trkpt lat="45.625008" lon="11.0325969"><ele>1115.0</ele><time>2026-04-25T10:25:39.102Z</time></trkpt><trkpt lat="45.6251034" lon="11.032662"><ele>1118.0</ele><time>2026-04-25T10:25:40.103Z</time></trkpt><trkpt lat="45.6252071" lon="11.0326912"><ele>1121.0</ele><time>2026-04-25T10:25:41.102Z</time></trkpt><trkpt lat="45.6253067" lon="11.0326755"><ele>1118.3999999999999</ele><time>2026-04-25T10:25:42.103Z</time></trkpt><trkpt lat="45.6253976" lon="11.0326687"><ele>1115.8</ele><time>2026-04-25T10:25:43.103Z</time></trkpt><trkpt lat="45.6254789" lon="11.0327014"><ele>1113.1999999999998</ele><time>2026-04-25T10:25:44.102Z</time></trkpt><trkpt lat="45.6255434" lon="11.0327856"><ele>1110.6</ele><time>2026-04-25T10:25:45.103Z</time></trkpt><trkpt lat="45.6255958" lon="11.0329034"><ele>1108.0</ele><time>2026-04-25T10:25:46.103Z</time></trkpt><trkpt lat="45.6256472" lon="11.0330384"><ele>1108.0</ele><time>2026-04-25T10:25:47.103Z</time></trkpt><trkpt lat="45.6257031" lon="11.0331754"><ele>1108.0</ele><time>2026-04-25T10:25:48.103Z</time></trkpt><trkpt lat="45.6257798" lon="11.0332805"><ele>1108.0</ele><time>2026-04-25T10:25:49.103Z</time></trkpt><trkpt lat="45.6258705" lon="11.0333593"><ele>1108.0</ele><time>2026-04-25T10:25:50.103Z</time></trkpt><trkpt lat="45.6259874" lon="11.0333644"><ele>1108.0</ele><time>2026-04-25T10:25:51.102Z</time></trkpt><trkpt lat="45.626102" lon="11.0333522"><ele>1109.25</ele><time>2026-04-25T10:25:52.102Z</time></trkpt><trkpt lat="45.6262223" lon="11.0333209"><ele>1110.5</ele><time>2026-04-25T10:25:53.102Z</time></trkpt><trkpt lat="45.6263319" lon="11.0332569"><ele>1111.75</ele><time>2026-04-25T10:25:54.104Z</time></trkpt><trkpt lat="45.6264288" lon="11.0331654"><ele>1113.0</ele><time>2026-04-25T10:25:55.103Z</time></trkpt><trkpt lat="45.6265141" lon="11.0330538"><ele>1113.0</ele><time>2026-04-25T10:25:56.102Z</time></trkpt><trkpt lat="45.6266114" lon="11.0329858"><ele>1113.0</ele><time>2026-04-25T10:25:57.103Z</time></trkpt><trkpt lat="45.6267223" lon="11.0329528"><ele>1113.0</ele><time>2026-04-25T10:25:58.102Z</time></trkpt><trkpt lat="45.6268366" lon="11.0329245"><ele>1113.0</ele><time>2026-04-25T10:25:59.103Z</time></trkpt><trkpt lat="45.6269516" lon="11.0328664"><ele>1112.25</ele><time>2026-04-25T10:26:00.102Z</time></trkpt><trkpt lat="45.6270634" lon="11.0327899"><ele>1111.5</ele><time>2026-04-25T10:26:01.102Z</time></trkpt><trkpt lat="45.6271737" lon="11.032702"><ele>1110.75</ele><time>2026-04-25T10:26:02.103Z</time></trkpt><trkpt lat="45.6272746" lon="11.032598"><ele>1110.0</ele><time>2026-04-25T10:26:03.103Z</time></trkpt><trkpt lat="45.627361" lon="11.0324649"><ele>1110.0</ele><time>2026-04-25T10:26:04.103Z</time></trkpt><trkpt lat="45.6274213" lon="11.0323155"><ele>1110.0</ele><time>2026-04-25T10:26:05.102Z</time></trkpt><trkpt lat="45.6274666" lon="11.0321587"><ele>1110.0</ele><time>2026-04-25T10:26:06.102Z</time></trkpt><trkpt lat="45.6275205" lon="11.0320221"><ele>1110.0</ele><time>2026-04-25T10:26:07.102Z</time></trkpt><trkpt lat="45.6275939" lon="11.031935"><ele>1110.0</ele><time>2026-04-25T10:26:08.102Z</time></trkpt><trkpt lat="45.6276733" lon="11.0319149"><ele>1110.0</ele><time>2026-04-25T10:26:09.102Z</time></trkpt><trkpt lat="45.6277908" lon="11.0319743"><ele>1110.0</ele><time>2026-04-25T10:26:11.102Z</time></trkpt><trkpt lat="45.6278346" lon="11.0320525"><ele>1110.0</ele><time>2026-04-25T10:26:12.103Z</time></trkpt><trkpt lat="45.6278833" lon="11.0321459"><ele>1110.0</ele><time>2026-04-25T10:26:13.103Z</time></trkpt><trkpt lat="45.6279306" lon="11.0322649"><ele>1110.0</ele><time>2026-04-25T10:26:14.102Z</time></trkpt><trkpt lat="45.6279848" lon="11.0323878"><ele>1113.1666666666667</ele><time>2026-04-25T10:26:15.103Z</time></trkpt><trkpt lat="45.6280368" lon="11.0324965"><ele>1116.3333333333333</ele><time>2026-04-25T10:26:16.104Z</time></trkpt><trkpt lat="45.6280949" lon="11.0325884"><ele>1119.5</ele><time>2026-04-25T10:26:17.103Z</time></trkpt><trkpt lat="45.6281802" lon="11.0326224"><ele>1122.6666666666665</ele><time>2026-04-25T10:26:18.102Z</time></trkpt><trkpt lat="45.6282635" lon="11.0326397"><ele>1125.8333333333333</ele><time>2026-04-25T10:26:19.104Z</time></trkpt><trkpt lat="45.6283414" lon="11.0326079"><ele>1129.0</ele><time>2026-04-25T10:26:20.104Z</time></trkpt><trkpt lat="45.6284131" lon="11.0325406"><ele>1124.4</ele><time>2026-04-25T10:26:21.102Z</time></trkpt><trkpt lat="45.6284824" lon="11.0324537"><ele>1119.8000000000002</ele><time>2026-04-25T10:26:22.102Z</time></trkpt><trkpt lat="45.6285509" lon="11.0323487"><ele>1115.1999999999998</ele><time>2026-04-25T10:26:23.103Z</time></trkpt><trkpt lat="45.6286178" lon="11.0322393"><ele>1110.6</ele><time>2026-04-25T10:26:24.102Z</time></trkpt><trkpt lat="45.6286983" lon="11.032127"><ele>1106.0</ele><time>2026-04-25T10:26:25.103Z</time></trkpt><trkpt lat="45.6287866" lon="11.032032"><ele>1105.6</ele><time>2026-04-25T10:26:26.102Z</time></trkpt><trkpt lat="45.6288765" lon="11.0319705"><ele>1105.1999999999998</ele><time>2026-04-25T10:26:27.103Z</time></trkpt><trkpt lat="45.628968" lon="11.0319403"><ele>1104.8000000000002</ele><time>2026-04-25T10:26:28.102Z</time></trkpt><trkpt lat="45.629066" lon="11.0319512"><ele>1104.4</ele><time>2026-04-25T10:26:29.102Z</time></trkpt><trkpt lat="45.6291626" lon="11.0319912"><ele>1104.0</ele><time>2026-04-25T10:26:30.103Z</time></trkpt><trkpt lat="45.6292672" lon="11.0320339"><ele>1104.0</ele><time>2026-04-25T10:26:31.104Z</time></trkpt><trkpt lat="45.6293833" lon="11.0320341"><ele>1104.0</ele><time>2026-04-25T10:26:32.102Z</time></trkpt><trkpt lat="45.6294931" lon="11.0319893"><ele>1104.0</ele><time>2026-04-25T10:26:33.103Z</time></trkpt><trkpt lat="45.6295956" lon="11.0319031"><ele>1104.0</ele><time>2026-04-25T10:26:34.103Z</time></trkpt><trkpt lat="45.6296809" lon="11.0317823"><ele>1104.75</ele><time>2026-04-25T10:26:35.103Z</time></trkpt><trkpt lat="45.6297374" lon="11.0316309"><ele>1105.5</ele><time>2026-04-25T10:26:36.103Z</time></trkpt><trkpt lat="45.6297743" lon="11.0314656"><ele>1106.25</ele><time>2026-04-25T10:26:37.103Z</time></trkpt><trkpt lat="45.6298058" lon="11.0313092"><ele>1107.0</ele><time>2026-04-25T10:26:38.103Z</time></trkpt><trkpt lat="45.6298535" lon="11.0311793"><ele>1107.0</ele><time>2026-04-25T10:26:39.102Z</time></trkpt><trkpt lat="45.6299235" lon="11.0310824"><ele>1107.0</ele><time>2026-04-25T10:26:40.102Z</time></trkpt><trkpt lat="45.630014" lon="11.0310174"><ele>1107.0</ele><time>2026-04-25T10:26:41.103Z</time></trkpt><trkpt lat="45.6301256" lon="11.0309797"><ele>1107.0</ele><time>2026-04-25T10:26:42.103Z</time></trkpt><trkpt lat="45.6302439" lon="11.0309283"><ele>1107.0</ele><time>2026-04-25T10:26:43.103Z</time></trkpt><trkpt lat="45.6303664" lon="11.0308534"><ele>1107.0</ele><time>2026-04-25T10:26:44.102Z</time></trkpt><trkpt lat="45.6304892" lon="11.0307595"><ele>1107.0</ele><time>2026-04-25T10:26:45.103Z</time></trkpt><trkpt lat="45.6306138" lon="11.030654"><ele>1107.0</ele><time>2026-04-25T10:26:46.102Z</time></trkpt><trkpt lat="45.6307296" lon="11.0305296"><ele>1107.0</ele><time>2026-04-25T10:26:47.102Z</time></trkpt><trkpt lat="45.6308193" lon="11.0303787"><ele>1107.0</ele><time>2026-04-25T10:26:48.103Z</time></trkpt><trkpt lat="45.6308949" lon="11.0302211"><ele>1107.0</ele><time>2026-04-25T10:26:49.102Z</time></trkpt><trkpt lat="45.6309574" lon="11.0300728"><ele>1107.0</ele><time>2026-04-25T10:26:50.103Z</time></trkpt><trkpt lat="45.6310279" lon="11.029955"><ele>1107.0</ele><time>2026-04-25T10:26:51.102Z</time></trkpt><trkpt lat="45.6311188" lon="11.0298853"><ele>1107.5</ele><time>2026-04-25T10:26:52.102Z</time></trkpt><trkpt lat="45.6312149" lon="11.0298658"><ele>1108.0</ele><time>2026-04-25T10:26:53.103Z</time></trkpt><trkpt lat="45.6313178" lon="11.0298961"><ele>1108.5</ele><time>2026-04-25T10:26:54.103Z</time></trkpt><trkpt lat="45.6314253" lon="11.0299631"><ele>1109.0</ele><time>2026-04-25T10:26:55.103Z</time></trkpt><trkpt lat="45.6315356" lon="11.0300651"><ele>1109.0</ele><time>2026-04-25T10:26:56.102Z</time></trkpt><trkpt lat="45.6316482" lon="11.0301904"><ele>1109.0</ele><time>2026-04-25T10:26:57.103Z</time></trkpt><trkpt lat="45.6317691" lon="11.0303035"><ele>1109.0</ele><time>2026-04-25T10:26:58.103Z</time></trkpt><trkpt lat="45.631903" lon="11.0303853"><ele>1109.0</ele><time>2026-04-25T10:26:59.102Z</time></trkpt><trkpt lat="45.6320441" lon="11.0304316"><ele>1107.0</ele><time>2026-04-25T10:27:00.104Z</time></trkpt><trkpt lat="45.6321897" lon="11.0304479"><ele>1105.0</ele><time>2026-04-25T10:27:01.102Z</time></trkpt><trkpt lat="45.6323407" lon="11.030457"><ele>1103.0</ele><time>2026-04-25T10:27:02.102Z</time></trkpt><trkpt lat="45.6324951" lon="11.0304832"><ele>1103.0</ele><time>2026-04-25T10:27:03.102Z</time></trkpt><trkpt lat="45.6326502" lon="11.0305208"><ele>1103.0</ele><time>2026-04-25T10:27:04.102Z</time></trkpt><trkpt lat="45.6328049" lon="11.0305648"><ele>1103.0</ele><time>2026-04-25T10:27:05.102Z</time></trkpt><trkpt lat="45.6329578" lon="11.030611"><ele>1105.25</ele><time>2026-04-25T10:27:06.102Z</time></trkpt><trkpt lat="45.633099" lon="11.0306548"><ele>1107.5</ele><time>2026-04-25T10:27:07.102Z</time></trkpt><trkpt lat="45.6332109" lon="11.0307019"><ele>1109.75</ele><time>2026-04-25T10:27:08.102Z</time></trkpt><trkpt lat="45.6332975" lon="11.030779"><ele>1112.0</ele><time>2026-04-25T10:27:09.103Z</time></trkpt><trkpt lat="45.6333634" lon="11.0309017"><ele>1112.0</ele><time>2026-04-25T10:27:10.102Z</time></trkpt><trkpt lat="45.6334029" lon="11.0310483"><ele>1112.0</ele><time>2026-04-25T10:27:11.103Z</time></trkpt><trkpt lat="45.6334097" lon="11.0312055"><ele>1112.0</ele><time>2026-04-25T10:27:12.102Z</time></trkpt><trkpt lat="45.6333847" lon="11.0313685"><ele>1112.0</ele><time>2026-04-25T10:27:13.103Z</time></trkpt><trkpt lat="45.6333447" lon="11.0315404"><ele>1114.75</ele><time>2026-04-25T10:27:14.102Z</time></trkpt><trkpt lat="45.6332998" lon="11.031724"><ele>1117.5</ele><time>2026-04-25T10:27:15.103Z</time></trkpt><trkpt lat="45.6332517" lon="11.0319118"><ele>1120.25</ele><time>2026-04-25T10:27:16.103Z</time></trkpt><trkpt lat="45.6332022" lon="11.0320909"><ele>1123.0</ele><time>2026-04-25T10:27:17.102Z</time></trkpt><trkpt lat="45.6331621" lon="11.0322524"><ele>1123.0</ele><time>2026-04-25T10:27:18.103Z</time></trkpt><trkpt lat="45.6331457" lon="11.0324071"><ele>1123.0</ele><time>2026-04-25T10:27:19.102Z</time></trkpt><trkpt lat="45.6331493" lon="11.0325589"><ele>1123.0</ele><time>2026-04-25T10:27:20.102Z</time></trkpt><trkpt lat="45.6331794" lon="11.0326963"><ele>1123.0</ele><time>2026-04-25T10:27:21.103Z</time></trkpt><trkpt lat="45.6332373" lon="11.0327991"><ele>1123.0</ele><time>2026-04-25T10:27:22.103Z</time></trkpt><trkpt lat="45.633317" lon="11.0328668"><ele>1122.4</ele><time>2026-04-25T10:27:23.103Z</time></trkpt><trkpt lat="45.6334137" lon="11.0328837"><ele>1121.8</ele><time>2026-04-25T10:27:24.103Z</time></trkpt><trkpt lat="45.6335169" lon="11.0328552"><ele>1121.2</ele><time>2026-04-25T10:27:25.102Z</time></trkpt><trkpt lat="45.6336238" lon="11.0328063"><ele>1120.6</ele><time>2026-04-25T10:27:26.104Z</time></trkpt><trkpt lat="45.633732" lon="11.0327841"><ele>1120.0</ele><time>2026-04-25T10:27:27.103Z</time></trkpt><trkpt lat="45.6338424" lon="11.0327906"><ele>1118.5</ele><time>2026-04-25T10:27:28.102Z</time></trkpt><trkpt lat="45.6339495" lon="11.0328242"><ele>1117.0</ele><time>2026-04-25T10:27:29.102Z</time></trkpt><trkpt lat="45.6340491" lon="11.032885"><ele>1115.5</ele><time>2026-04-25T10:27:30.103Z</time></trkpt><trkpt lat="45.6341513" lon="11.0329603"><ele>1114.0</ele><time>2026-04-25T10:27:31.102Z</time></trkpt><trkpt lat="45.6342592" lon="11.033037"><ele>1114.0</ele><time>2026-04-25T10:27:32.102Z</time></trkpt><trkpt lat="45.6343761" lon="11.0330698"><ele>1114.0</ele><time>2026-04-25T10:27:33.102Z</time></trkpt><trkpt lat="45.6344959" lon="11.0330551"><ele>1114.0</ele><time>2026-04-25T10:27:34.103Z</time></trkpt><trkpt lat="45.634612" lon="11.0330078"><ele>1114.0</ele><time>2026-04-25T10:27:35.102Z</time></trkpt><trkpt lat="45.6347326" lon="11.0330046"><ele>1116.25</ele><time>2026-04-25T10:27:36.103Z</time></trkpt><trkpt lat="45.6348597" lon="11.0330318"><ele>1118.5</ele><time>2026-04-25T10:27:37.102Z</time></trkpt><trkpt lat="45.6349926" lon="11.0330687"><ele>1120.75</ele><time>2026-04-25T10:27:38.102Z</time></trkpt><trkpt lat="45.6351301" lon="11.0331067"><ele>1123.0</ele><time>2026-04-25T10:27:39.102Z</time></trkpt><trkpt lat="45.6352684" lon="11.0331522"><ele>1128.0</ele><time>2026-04-25T10:27:40.103Z</time></trkpt><trkpt lat="45.6353966" lon="11.0332016"><ele>1133.0</ele><time>2026-04-25T10:27:41.103Z</time></trkpt><trkpt lat="45.6355127" lon="11.0332494"><ele>1138.0</ele><time>2026-04-25T10:27:42.102Z</time></trkpt><trkpt lat="45.6356159" lon="11.0332872"><ele>1143.0</ele><time>2026-04-25T10:27:43.103Z</time></trkpt><trkpt lat="45.6357061" lon="11.0332891"><ele>1143.0</ele><time>2026-04-25T10:27:44.102Z</time></trkpt><trkpt lat="45.6357794" lon="11.0332435"><ele>1143.0</ele><time>2026-04-25T10:27:45.102Z</time></trkpt><trkpt lat="45.635836" lon="11.0331648"><ele>1143.0</ele><time>2026-04-25T10:27:46.103Z</time></trkpt><trkpt lat="45.6358605" lon="11.0330495"><ele>1143.0</ele><time>2026-04-25T10:27:47.104Z</time></trkpt><trkpt lat="45.6358597" lon="11.0329143"><ele>1143.0</ele><time>2026-04-25T10:27:48.102Z</time></trkpt><trkpt lat="45.6358416" lon="11.0327672"><ele>1143.0</ele><time>2026-04-25T10:27:49.102Z</time></trkpt><trkpt lat="45.6357943" lon="11.0326221"><ele>1143.0</ele><time>2026-04-25T10:27:50.102Z</time></trkpt><trkpt lat="45.635717" lon="11.0324879"><ele>1143.0</ele><time>2026-04-25T10:27:51.103Z</time></trkpt><trkpt lat="45.635623" lon="11.0323664"><ele>1143.0</ele><time>2026-04-25T10:27:52.102Z</time></trkpt><trkpt lat="45.6355208" lon="11.0322581"><ele>1143.0</ele><time>2026-04-25T10:27:53.103Z</time></trkpt><trkpt lat="45.6354295" lon="11.0321622"><ele>1143.2</ele><time>2026-04-25T10:27:54.103Z</time></trkpt><trkpt lat="45.6353514" lon="11.0320569"><ele>1143.4</ele><time>2026-04-25T10:27:55.102Z</time></trkpt><trkpt lat="45.6352903" lon="11.0319379"><ele>1143.6000000000001</ele><time>2026-04-25T10:27:56.102Z</time></trkpt><trkpt lat="45.6352637" lon="11.0318198"><ele>1143.8</ele><time>2026-04-25T10:27:57.103Z</time></trkpt><trkpt lat="45.6352704" lon="11.0317048"><ele>1144.0</ele><time>2026-04-25T10:27:58.102Z</time></trkpt><trkpt lat="45.6353107" lon="11.0315913"><ele>1139.75</ele><time>2026-04-25T10:27:59.103Z</time></trkpt><trkpt lat="45.6353841" lon="11.0314843"><ele>1135.5</ele><time>2026-04-25T10:28:00.104Z</time></trkpt><trkpt lat="45.6354759" lon="11.0313921"><ele>1131.25</ele><time>2026-04-25T10:28:01.102Z</time></trkpt><trkpt lat="45.6355843" lon="11.0313204"><ele>1127.0</ele><time>2026-04-25T10:28:02.103Z</time></trkpt><trkpt lat="45.6357057" lon="11.0312762"><ele>1127.0</ele><time>2026-04-25T10:28:03.103Z</time></trkpt><trkpt lat="45.6358297" lon="11.0312677"><ele>1127.0</ele><time>2026-04-25T10:28:04.102Z</time></trkpt><trkpt lat="45.6359488" lon="11.0312865"><ele>1127.0</ele><time>2026-04-25T10:28:05.103Z</time></trkpt><trkpt lat="45.6360681" lon="11.0313196"><ele>1127.0</ele><time>2026-04-25T10:28:06.102Z</time></trkpt><trkpt lat="45.6361931" lon="11.0313529"><ele>1128.0</ele><time>2026-04-25T10:28:07.102Z</time></trkpt><trkpt lat="45.6363136" lon="11.0314033"><ele>1129.0</ele><time>2026-04-25T10:28:08.103Z</time></trkpt><trkpt lat="45.6364389" lon="11.0314513"><ele>1130.0</ele><time>2026-04-25T10:28:09.102Z</time></trkpt><trkpt lat="45.6365745" lon="11.0314718"><ele>1131.0</ele><time>2026-04-25T10:28:10.102Z</time></trkpt><trkpt lat="45.6367119" lon="11.0314761"><ele>1131.0</ele><time>2026-04-25T10:28:11.102Z</time></trkpt><trkpt lat="45.6368538" lon="11.0314655"><ele>1131.0</ele><time>2026-04-25T10:28:12.102Z</time></trkpt><trkpt lat="45.6369984" lon="11.0314443"><ele>1131.0</ele><time>2026-04-25T10:28:13.103Z</time></trkpt><trkpt lat="45.6371467" lon="11.0314122"><ele>1131.0</ele><time>2026-04-25T10:28:14.102Z</time></trkpt><trkpt lat="45.6372977" lon="11.0313735"><ele>1135.0</ele><time>2026-04-25T10:28:15.102Z</time></trkpt><trkpt lat="45.6374495" lon="11.0313218"><ele>1139.0</ele><time>2026-04-25T10:28:16.103Z</time></trkpt><trkpt lat="45.6375998" lon="11.0312514"><ele>1143.0</ele><time>2026-04-25T10:28:17.102Z</time></trkpt><trkpt lat="45.6377471" lon="11.0311761"><ele>1143.75</ele><time>2026-04-25T10:28:18.102Z</time></trkpt><trkpt lat="45.637888" lon="11.0310966"><ele>1144.5</ele><time>2026-04-25T10:28:19.102Z</time></trkpt><trkpt lat="45.6380195" lon="11.0310088"><ele>1145.25</ele><time>2026-04-25T10:28:20.103Z</time></trkpt><trkpt lat="45.6381455" lon="11.0309237"><ele>1146.0</ele><time>2026-04-25T10:28:21.102Z</time></trkpt><trkpt lat="45.6382691" lon="11.0308536"><ele>1146.0</ele><time>2026-04-25T10:28:22.103Z</time></trkpt><trkpt lat="45.6383835" lon="11.0307874"><ele>1146.0</ele><time>2026-04-25T10:28:23.103Z</time></trkpt><trkpt lat="45.6384861" lon="11.0307248"><ele>1146.0</ele><time>2026-04-25T10:28:24.102Z</time></trkpt><trkpt lat="45.6385813" lon="11.030673"><ele>1146.0</ele><time>2026-04-25T10:28:25.104Z</time></trkpt><trkpt lat="45.6386666" lon="11.0306579"><ele>1146.0</ele><time>2026-04-25T10:28:26.104Z</time></trkpt><trkpt lat="45.638745" lon="11.0306892"><ele>1146.0</ele><time>2026-04-25T10:28:27.102Z</time></trkpt><trkpt lat="45.6388154" lon="11.0307699"><ele>1146.0</ele><time>2026-04-25T10:28:28.103Z</time></trkpt><trkpt lat="45.6388759" lon="11.0308857"><ele>1146.0</ele><time>2026-04-25T10:28:29.102Z</time></trkpt><trkpt lat="45.6389386" lon="11.0310169"><ele>1146.0</ele><time>2026-04-25T10:28:30.104Z</time></trkpt><trkpt lat="45.6390148" lon="11.0311457"><ele>1146.0</ele><time>2026-04-25T10:28:31.102Z</time></trkpt><trkpt lat="45.6391001" lon="11.0312468"><ele>1144.25</ele><time>2026-04-25T10:28:32.102Z</time></trkpt><trkpt lat="45.6392015" lon="11.0313251"><ele>1142.5</ele><time>2026-04-25T10:28:33.102Z</time></trkpt><trkpt lat="45.6393168" lon="11.0313707"><ele>1140.75</ele><time>2026-04-25T10:28:34.103Z</time></trkpt><trkpt lat="45.6394423" lon="11.0313835"><ele>1139.0</ele><time>2026-04-25T10:28:35.103Z</time></trkpt><trkpt lat="45.6395735" lon="11.0313674"><ele>1135.75</ele><time>2026-04-25T10:28:36.102Z</time></trkpt><trkpt lat="45.6397081" lon="11.0313424"><ele>1132.5</ele><time>2026-04-25T10:28:37.102Z</time></trkpt><trkpt lat="45.6398397" lon="11.0313081"><ele>1129.25</ele><time>2026-04-25T10:28:38.103Z</time></trkpt><trkpt lat="45.6399624" lon="11.0312501"><ele>1126.0</ele><time>2026-04-25T10:28:39.102Z</time></trkpt><trkpt lat="45.6400737" lon="11.0311682"><ele>1126.0</ele><time>2026-04-25T10:28:40.103Z</time></trkpt><trkpt lat="45.6401749" lon="11.031055"><ele>1126.0</ele><time>2026-04-25T10:28:41.103Z</time></trkpt><trkpt lat="45.6402598" lon="11.030913"><ele>1126.0</ele><time>2026-04-25T10:28:42.103Z</time></trkpt><trkpt lat="45.6403167" lon="11.0307427"><ele>1126.0</ele><time>2026-04-25T10:28:43.103Z</time></trkpt><trkpt lat="45.6403524" lon="11.0305481"><ele>1131.0</ele><time>2026-04-25T10:28:44.102Z</time></trkpt><trkpt lat="45.6403744" lon="11.0303323"><ele>1136.0</ele><time>2026-04-25T10:28:45.102Z</time></trkpt><trkpt lat="45.6403932" lon="11.0301019"><ele>1141.0</ele><time>2026-04-25T10:28:46.103Z</time></trkpt><trkpt lat="45.6404148" lon="11.0298619"><ele>1141.0</ele><time>2026-04-25T10:28:47.103Z</time></trkpt><trkpt lat="45.6404335" lon="11.0296188"><ele>1141.0</ele><time>2026-04-25T10:28:48.102Z</time></trkpt><trkpt lat="45.6404523" lon="11.0293809"><ele>1141.0</ele><time>2026-04-25T10:28:49.102Z</time></trkpt><trkpt lat="45.6404805" lon="11.0291515"><ele>1135.6666666666665</ele><time>2026-04-25T10:28:50.102Z</time></trkpt><trkpt lat="45.6405293" lon="11.0289292"><ele>1130.3333333333333</ele><time>2026-04-25T10:28:51.102Z</time></trkpt><trkpt lat="45.6405931" lon="11.0287113"><ele>1125.0</ele><time>2026-04-25T10:28:52.102Z</time></trkpt><trkpt lat="45.6406706" lon="11.0284955"><ele>1119.0</ele><time>2026-04-25T10:28:53.103Z</time></trkpt><trkpt lat="45.6407527" lon="11.028279"><ele>1113.0</ele><time>2026-04-25T10:28:54.103Z</time></trkpt><trkpt lat="45.6408354" lon="11.0280697"><ele>1107.0</ele><time>2026-04-25T10:28:55.102Z</time></trkpt><trkpt lat="45.6409178" lon="11.0278648"><ele>1107.0</ele><time>2026-04-25T10:28:56.103Z</time></trkpt><trkpt lat="45.6409983" lon="11.0276656"><ele>1107.0</ele><time>2026-04-25T10:28:57.103Z</time></trkpt><trkpt lat="45.6410766" lon="11.0274713"><ele>1107.0</ele><time>2026-04-25T10:28:58.103Z</time></trkpt><trkpt lat="45.6411528" lon="11.0272816"><ele>1105.5</ele><time>2026-04-25T10:28:59.102Z</time></trkpt><trkpt lat="45.6412311" lon="11.0271146"><ele>1104.0</ele><time>2026-04-25T10:29:00.103Z</time></trkpt><trkpt lat="45.6413196" lon="11.0269728"><ele>1102.5</ele><time>2026-04-25T10:29:01.102Z</time></trkpt><trkpt lat="45.6414216" lon="11.0268542"><ele>1101.0</ele><time>2026-04-25T10:29:02.102Z</time></trkpt><trkpt lat="45.6415438" lon="11.0267617"><ele>1101.0</ele><time>2026-04-25T10:29:03.103Z</time></trkpt><trkpt lat="45.6416758" lon="11.0266826"><ele>1101.0</ele><time>2026-04-25T10:29:04.103Z</time></trkpt><trkpt lat="45.6418118" lon="11.0266109"><ele>1101.0</ele><time>2026-04-25T10:29:05.103Z</time></trkpt><trkpt lat="45.6419484" lon="11.0265285"><ele>1101.0</ele><time>2026-04-25T10:29:06.103Z</time></trkpt><trkpt lat="45.642083" lon="11.0264461"><ele>1099.0</ele><time>2026-04-25T10:29:07.103Z</time></trkpt><trkpt lat="45.642224" lon="11.0263738"><ele>1097.0</ele><time>2026-04-25T10:29:08.102Z</time></trkpt><trkpt lat="45.6423672" lon="11.0263105"><ele>1095.0</ele><time>2026-04-25T10:29:09.103Z</time></trkpt><trkpt lat="45.6425047" lon="11.0262341"><ele>1093.0</ele><time>2026-04-25T10:29:10.102Z</time></trkpt><trkpt lat="45.6426296" lon="11.0261222"><ele>1093.0</ele><time>2026-04-25T10:29:11.103Z</time></trkpt><trkpt lat="45.6427354" lon="11.0259911"><ele>1093.0</ele><time>2026-04-25T10:29:12.102Z</time></trkpt><trkpt lat="45.6428251" lon="11.0258491"><ele>1093.0</ele><time>2026-04-25T10:29:13.103Z</time></trkpt><trkpt lat="45.6429245" lon="11.0257116"><ele>1093.0</ele><time>2026-04-25T10:29:14.102Z</time></trkpt><trkpt lat="45.6430442" lon="11.0255906"><ele>1092.6666666666665</ele><time>2026-04-25T10:29:15.102Z</time></trkpt><trkpt lat="45.6431745" lon="11.0254773"><ele>1092.3333333333333</ele><time>2026-04-25T10:29:16.103Z</time></trkpt><trkpt lat="45.6433101" lon="11.025363"><ele>1092.0</ele><time>2026-04-25T10:29:17.103Z</time></trkpt><trkpt lat="45.6434442" lon="11.0252416"><ele>1092.0</ele><time>2026-04-25T10:29:18.103Z</time></trkpt><trkpt lat="45.6435729" lon="11.0251196"><ele>1092.0</ele><time>2026-04-25T10:29:19.102Z</time></trkpt><trkpt lat="45.6436946" lon="11.0249995"><ele>1092.0</ele><time>2026-04-25T10:29:20.102Z</time></trkpt><trkpt lat="45.6438151" lon="11.024886"><ele>1092.0</ele><time>2026-04-25T10:29:21.104Z</time></trkpt><trkpt lat="45.6439363" lon="11.0247726"><ele>1093.5</ele><time>2026-04-25T10:29:22.102Z</time></trkpt><trkpt lat="45.644054" lon="11.0246607"><ele>1095.0</ele><time>2026-04-25T10:29:23.104Z</time></trkpt><trkpt lat="45.6441637" lon="11.0245522"><ele>1096.5</ele><time>2026-04-25T10:29:24.104Z</time></trkpt><trkpt lat="45.6442642" lon="11.0244661"><ele>1098.0</ele><time>2026-04-25T10:29:25.103Z</time></trkpt><trkpt lat="45.6443604" lon="11.024409"><ele>1098.0</ele><time>2026-04-25T10:29:26.103Z</time></trkpt><trkpt lat="45.6444606" lon="11.0243933"><ele>1098.0</ele><time>2026-04-25T10:29:27.103Z</time></trkpt><trkpt lat="45.6445765" lon="11.024406"><ele>1098.0</ele><time>2026-04-25T10:29:28.102Z</time></trkpt><trkpt lat="45.6447072" lon="11.0244206"><ele>1098.0</ele><time>2026-04-25T10:29:29.103Z</time></trkpt><trkpt lat="45.6448301" lon="11.0244196"><ele>1096.75</ele><time>2026-04-25T10:29:30.103Z</time></trkpt><trkpt lat="45.6449488" lon="11.0243886"><ele>1095.5</ele><time>2026-04-25T10:29:31.103Z</time></trkpt><trkpt lat="45.6450593" lon="11.0243306"><ele>1094.25</ele><time>2026-04-25T10:29:32.103Z</time></trkpt><trkpt lat="45.6451646" lon="11.0242497"><ele>1093.0</ele><time>2026-04-25T10:29:33.103Z</time></trkpt><trkpt lat="45.6452733" lon="11.0241538"><ele>1097.25</ele><time>2026-04-25T10:29:34.103Z</time></trkpt><trkpt lat="45.6453791" lon="11.0240441"><ele>1101.5</ele><time>2026-04-25T10:29:35.102Z</time></trkpt><trkpt lat="45.6454782" lon="11.0239268"><ele>1105.75</ele><time>2026-04-25T10:29:36.103Z</time></trkpt><trkpt lat="45.6455655" lon="11.0238089"><ele>1110.0</ele><time>2026-04-25T10:29:37.103Z</time></trkpt><trkpt lat="45.6456229" lon="11.023675"><ele>1110.0</ele><time>2026-04-25T10:29:38.103Z</time></trkpt><trkpt lat="45.6456395" lon="11.0235304"><ele>1110.0</ele><time>2026-04-25T10:29:39.103Z</time></trkpt><trkpt lat="45.6456121" lon="11.0233836"><ele>1110.0</ele><time>2026-04-25T10:29:40.103Z</time></trkpt><trkpt lat="45.6455472" lon="11.0232443"><ele>1110.0</ele><time>2026-04-25T10:29:41.103Z</time></trkpt><trkpt lat="45.6454551" lon="11.0231065"><ele>1112.25</ele><time>2026-04-25T10:29:42.103Z</time></trkpt><trkpt lat="45.6453646" lon="11.022962"><ele>1114.5</ele><time>2026-04-25T10:29:43.102Z</time></trkpt><trkpt lat="45.645275" lon="11.0228211"><ele>1116.75</ele><time>2026-04-25T10:29:44.102Z</time></trkpt><trkpt lat="45.6451977" lon="11.0226898"><ele>1119.0</ele><time>2026-04-25T10:29:45.102Z</time></trkpt><trkpt lat="45.6451346" lon="11.0225408"><ele>1109.5</ele><time>2026-04-25T10:29:46.102Z</time></trkpt><trkpt lat="45.6450916" lon="11.0223677"><ele>1100.0</ele><time>2026-04-25T10:29:47.103Z</time></trkpt><trkpt lat="45.6450657" lon="11.0221903"><ele>1090.5</ele><time>2026-04-25T10:29:48.104Z</time></trkpt><trkpt lat="45.6450658" lon="11.0220177"><ele>1081.0</ele><time>2026-04-25T10:29:49.102Z</time></trkpt><trkpt lat="45.6450797" lon="11.0218489"><ele>1081.0</ele><time>2026-04-25T10:29:50.102Z</time></trkpt><trkpt lat="45.6451096" lon="11.0216765"><ele>1081.0</ele><time>2026-04-25T10:29:51.103Z</time></trkpt><trkpt lat="45.6451823" lon="11.0214787"><ele>1081.0</ele><time>2026-04-25T10:29:52.102Z</time></trkpt><trkpt lat="45.6452082" lon="11.0212938"><ele>1081.0</ele><time>2026-04-25T10:29:53.104Z</time></trkpt><trkpt lat="45.6452302" lon="11.0211253"><ele>1079.8</ele><time>2026-04-25T10:29:54.102Z</time></trkpt><trkpt lat="45.6452449" lon="11.02099"><ele>1078.6</ele><time>2026-04-25T10:29:55.103Z</time></trkpt><trkpt lat="45.6452997" lon="11.0208556"><ele>1077.4</ele><time>2026-04-25T10:29:56.102Z</time></trkpt><trkpt lat="45.6453813" lon="11.0207285"><ele>1076.2</ele><time>2026-04-25T10:29:57.102Z</time></trkpt><trkpt lat="45.6454515" lon="11.0205824"><ele>1075.0</ele><time>2026-04-25T10:29:58.103Z</time></trkpt><trkpt lat="45.6454964" lon="11.0204211"><ele>1077.0</ele><time>2026-04-25T10:29:59.103Z</time></trkpt><trkpt lat="45.6455131" lon="11.0202493"><ele>1079.0</ele><time>2026-04-25T10:30:00.102Z</time></trkpt><trkpt lat="45.645499" lon="11.0200725"><ele>1081.0</ele><time>2026-04-25T10:30:01.102Z</time></trkpt><trkpt lat="45.6454552" lon="11.0199158"><ele>1083.0</ele><time>2026-04-25T10:30:02.102Z</time></trkpt><trkpt lat="45.6454183" lon="11.0197699"><ele>1083.0</ele><time>2026-04-25T10:30:03.103Z</time></trkpt><trkpt lat="45.6454107" lon="11.0196201"><ele>1083.0</ele><time>2026-04-25T10:30:04.103Z</time></trkpt><trkpt lat="45.6454251" lon="11.0194767"><ele>1083.0</ele><time>2026-04-25T10:30:05.102Z</time></trkpt><trkpt lat="45.6454824" lon="11.0193609"><ele>1083.0</ele><time>2026-04-25T10:30:06.102Z</time></trkpt><trkpt lat="45.6455662" lon="11.0192633"><ele>1083.0</ele><time>2026-04-25T10:30:07.103Z</time></trkpt><trkpt lat="45.6456652" lon="11.0191605"><ele>1077.75</ele><time>2026-04-25T10:30:08.102Z</time></trkpt><trkpt lat="45.6457664" lon="11.0190482"><ele>1072.5</ele><time>2026-04-25T10:30:09.102Z</time></trkpt><trkpt lat="45.6458686" lon="11.0189242"><ele>1067.25</ele><time>2026-04-25T10:30:10.103Z</time></trkpt><trkpt lat="45.6459607" lon="11.0188085"><ele>1062.0</ele><time>2026-04-25T10:30:11.104Z</time></trkpt><trkpt lat="45.6460545" lon="11.0187181"><ele>1063.0</ele><time>2026-04-25T10:30:12.103Z</time></trkpt><trkpt lat="45.6461606" lon="11.018671"><ele>1064.0</ele><time>2026-04-25T10:30:13.103Z</time></trkpt><trkpt lat="45.6462733" lon="11.0186599"><ele>1065.0</ele><time>2026-04-25T10:30:14.103Z</time></trkpt><trkpt lat="45.6463945" lon="11.0186779"><ele>1066.0</ele><time>2026-04-25T10:30:15.103Z</time></trkpt><trkpt lat="45.6465223" lon="11.0187163"><ele>1066.0</ele><time>2026-04-25T10:30:16.102Z</time></trkpt><trkpt lat="45.6466568" lon="11.0187623"><ele>1066.0</ele><time>2026-04-25T10:30:17.102Z</time></trkpt><trkpt lat="45.6467984" lon="11.0188077"><ele>1066.0</ele><time>2026-04-25T10:30:18.103Z</time></trkpt><trkpt lat="45.6469436" lon="11.018856"><ele>1066.0</ele><time>2026-04-25T10:30:19.103Z</time></trkpt><trkpt lat="45.6470839" lon="11.0189127"><ele>1066.0</ele><time>2026-04-25T10:30:20.102Z</time></trkpt><trkpt lat="45.6472241" lon="11.0189709"><ele>1066.0</ele><time>2026-04-25T10:30:21.102Z</time></trkpt><trkpt lat="45.64736" lon="11.0190219"><ele>1066.0</ele><time>2026-04-25T10:30:22.103Z</time></trkpt><trkpt lat="45.6474982" lon="11.0190629"><ele>1066.0</ele><time>2026-04-25T10:30:23.102Z</time></trkpt><trkpt lat="45.6476406" lon="11.019085"><ele>1066.0</ele><time>2026-04-25T10:30:24.103Z</time></trkpt><trkpt lat="45.6477849" lon="11.0190885"><ele>1066.0</ele><time>2026-04-25T10:30:25.103Z</time></trkpt><trkpt lat="45.6479343" lon="11.0190766"><ele>1066.0</ele><time>2026-04-25T10:30:26.103Z</time></trkpt><trkpt lat="45.6480834" lon="11.0190415"><ele>1066.0</ele><time>2026-04-25T10:30:27.103Z</time></trkpt><trkpt lat="45.6482293" lon="11.0189792"><ele>1066.6666666666665</ele><time>2026-04-25T10:30:28.103Z</time></trkpt><trkpt lat="45.6483744" lon="11.0189099"><ele>1067.3333333333333</ele><time>2026-04-25T10:30:29.103Z</time></trkpt><trkpt lat="45.6485203" lon="11.0188488"><ele>1068.0</ele><time>2026-04-25T10:30:30.103Z</time></trkpt><trkpt lat="45.6486691" lon="11.0187923"><ele>1070.25</ele><time>2026-04-25T10:30:31.103Z</time></trkpt><trkpt lat="45.6488187" lon="11.0187406"><ele>1072.5</ele><time>2026-04-25T10:30:32.103Z</time></trkpt><trkpt lat="45.6489613" lon="11.0186832"><ele>1074.75</ele><time>2026-04-25T10:30:33.102Z</time></trkpt><trkpt lat="45.6490924" lon="11.018601"><ele>1077.0</ele><time>2026-04-25T10:30:34.103Z</time></trkpt><trkpt lat="45.6492125" lon="11.0184906"><ele>1077.0</ele><time>2026-04-25T10:30:35.102Z</time></trkpt><trkpt lat="45.649304" lon="11.01835"><ele>1077.0</ele><time>2026-04-25T10:30:36.103Z</time></trkpt><trkpt lat="45.6493599" lon="11.0181721"><ele>1077.0</ele><time>2026-04-25T10:30:37.102Z</time></trkpt><trkpt lat="45.649391" lon="11.0179709"><ele>1077.0</ele><time>2026-04-25T10:30:38.102Z</time></trkpt><trkpt lat="45.6494078" lon="11.0177766"><ele>1076.6</ele><time>2026-04-25T10:30:39.102Z</time></trkpt><trkpt lat="45.6494187" lon="11.0176073"><ele>1076.2</ele><time>2026-04-25T10:30:40.104Z</time></trkpt><trkpt lat="45.6494223" lon="11.0174646"><ele>1075.8</ele><time>2026-04-25T10:30:41.103Z</time></trkpt><trkpt lat="45.6494469" lon="11.0173399"><ele>1075.4</ele><time>2026-04-25T10:30:42.103Z</time></trkpt><trkpt lat="45.6495" lon="11.0172365"><ele>1075.0</ele><time>2026-04-25T10:30:43.102Z</time></trkpt><trkpt lat="45.6495806" lon="11.0171431"><ele>1073.25</ele><time>2026-04-25T10:30:44.102Z</time></trkpt><trkpt lat="45.6496764" lon="11.0170696"><ele>1071.5</ele><time>2026-04-25T10:30:45.102Z</time></trkpt><trkpt lat="45.6497843" lon="11.0170304"><ele>1069.75</ele><time>2026-04-25T10:30:46.103Z</time></trkpt><trkpt lat="45.6499047" lon="11.0170244"><ele>1068.0</ele><time>2026-04-25T10:30:47.102Z</time></trkpt><trkpt lat="45.6500326" lon="11.0170423"><ele>1068.0</ele><time>2026-04-25T10:30:48.103Z</time></trkpt><trkpt lat="45.6501671" lon="11.0170792"><ele>1068.0</ele><time>2026-04-25T10:30:49.103Z</time></trkpt><trkpt lat="45.6503007" lon="11.0171259"><ele>1068.0</ele><time>2026-04-25T10:30:50.102Z</time></trkpt><trkpt lat="45.6504247" lon="11.0171879"><ele>1068.0</ele><time>2026-04-25T10:30:51.102Z</time></trkpt><trkpt lat="45.6505349" lon="11.0172791"><ele>1069.5</ele><time>2026-04-25T10:30:52.102Z</time></trkpt><trkpt lat="45.6506268" lon="11.0173974"><ele>1071.0</ele><time>2026-04-25T10:30:53.102Z</time></trkpt><trkpt lat="45.6507074" lon="11.0175235"><ele>1072.5</ele><time>2026-04-25T10:30:54.103Z</time></trkpt><trkpt lat="45.6507865" lon="11.017634"><ele>1074.0</ele><time>2026-04-25T10:30:55.103Z</time></trkpt><trkpt lat="45.6508805" lon="11.0177028"><ele>1074.0</ele><time>2026-04-25T10:30:56.102Z</time></trkpt><trkpt lat="45.6509807" lon="11.0177412"><ele>1074.0</ele><time>2026-04-25T10:30:57.103Z</time></trkpt><trkpt lat="45.6510962" lon="11.0176988"><ele>1074.0</ele><time>2026-04-25T10:30:58.102Z</time></trkpt><trkpt lat="45.6512043" lon="11.0176476"><ele>1074.0</ele><time>2026-04-25T10:30:59.103Z</time></trkpt><trkpt lat="45.6513077" lon="11.0175964"><ele>1074.0</ele><time>2026-04-25T10:31:00.102Z</time></trkpt><trkpt lat="45.651403" lon="11.0175185"><ele>1072.5</ele><time>2026-04-25T10:31:01.103Z</time></trkpt><trkpt lat="45.6514926" lon="11.0174596"><ele>1071.0</ele><time>2026-04-25T10:31:02.103Z</time></trkpt><trkpt lat="45.6516132" lon="11.0174298"><ele>1069.5</ele><time>2026-04-25T10:31:03.103Z</time></trkpt><trkpt lat="45.6517487" lon="11.0174959"><ele>1068.0</ele><time>2026-04-25T10:31:04.102Z</time></trkpt><trkpt lat="45.6518727" lon="11.0175248"><ele>1062.75</ele><time>2026-04-25T10:31:05.102Z</time></trkpt><trkpt lat="45.6520023" lon="11.0175741"><ele>1057.5</ele><time>2026-04-25T10:31:06.103Z</time></trkpt><trkpt lat="45.6521326" lon="11.0176286"><ele>1052.25</ele><time>2026-04-25T10:31:07.103Z</time></trkpt><trkpt lat="45.6522645" lon="11.0176721"><ele>1047.0</ele><time>2026-04-25T10:31:08.102Z</time></trkpt><trkpt lat="45.6523799" lon="11.0177189"><ele>1047.0</ele><time>2026-04-25T10:31:09.102Z</time></trkpt><trkpt lat="45.6524802" lon="11.0177931"><ele>1047.0</ele><time>2026-04-25T10:31:10.102Z</time></trkpt><trkpt lat="45.6525709" lon="11.0178998"><ele>1047.0</ele><time>2026-04-25T10:31:11.103Z</time></trkpt><trkpt lat="45.6526602" lon="11.0180257"><ele>1047.0</ele><time>2026-04-25T10:31:12.102Z</time></trkpt><trkpt lat="45.6527429" lon="11.0181661"><ele>1043.75</ele><time>2026-04-25T10:31:13.103Z</time></trkpt><trkpt lat="45.6528189" lon="11.0183226"><ele>1040.5</ele><time>2026-04-25T10:31:14.102Z</time></trkpt><trkpt lat="45.6528966" lon="11.0184878"><ele>1037.25</ele><time>2026-04-25T10:31:15.103Z</time></trkpt><trkpt lat="45.6529752" lon="11.0186561"><ele>1034.0</ele><time>2026-04-25T10:31:16.103Z</time></trkpt><trkpt lat="45.6530522" lon="11.0188248"><ele>1034.0</ele><time>2026-04-25T10:31:17.102Z</time></trkpt><trkpt lat="45.6531193" lon="11.0189718"><ele>1034.0</ele><time>2026-04-25T10:31:18.102Z</time></trkpt><trkpt lat="45.6531793" lon="11.0191076"><ele>1034.0</ele><time>2026-04-25T10:31:19.102Z</time></trkpt><trkpt lat="45.6532269" lon="11.0192546"><ele>1034.0</ele><time>2026-04-25T10:31:20.102Z</time></trkpt><trkpt lat="45.6532884" lon="11.0193887"><ele>1039.6000000000001</ele><time>2026-04-25T10:31:21.102Z</time></trkpt><trkpt lat="45.6533638" lon="11.0195015"><ele>1045.2</ele><time>2026-04-25T10:31:22.104Z</time></trkpt><trkpt lat="45.6534409" lon="11.0196145"><ele>1050.8000000000002</ele><time>2026-04-25T10:31:23.102Z</time></trkpt><trkpt lat="45.6535229" lon="11.0196666"><ele>1056.4</ele><time>2026-04-25T10:31:24.103Z</time></trkpt><trkpt lat="45.6535843" lon="11.0197287"><ele>1062.0</ele><time>2026-04-25T10:31:25.102Z</time></trkpt><trkpt lat="45.6536584" lon="11.0197191"><ele>1063.4</ele><time>2026-04-25T10:31:26.103Z</time></trkpt><trkpt lat="45.6537208" lon="11.0196801"><ele>1064.8000000000002</ele><time>2026-04-25T10:31:27.103Z</time></trkpt><trkpt lat="45.6537741" lon="11.0195939"><ele>1066.2</ele><time>2026-04-25T10:31:28.102Z</time></trkpt><trkpt lat="45.6538142" lon="11.0194854"><ele>1067.6000000000001</ele><time>2026-04-25T10:31:29.103Z</time></trkpt><trkpt lat="45.6538407" lon="11.019325"><ele>1069.0</ele><time>2026-04-25T10:31:30.102Z</time></trkpt><trkpt lat="45.6538699" lon="11.0191595"><ele>1062.75</ele><time>2026-04-25T10:31:31.102Z</time></trkpt><trkpt lat="45.6538989" lon="11.0189815"><ele>1056.5</ele><time>2026-04-25T10:31:32.103Z</time></trkpt><trkpt lat="45.653924" lon="11.0188164"><ele>1050.25</ele><time>2026-04-25T10:31:33.103Z</time></trkpt><trkpt lat="45.6539644" lon="11.0186576"><ele>1044.0</ele><time>2026-04-25T10:31:34.103Z</time></trkpt><trkpt lat="45.654031" lon="11.0185062"><ele>1044.0</ele><time>2026-04-25T10:31:35.102Z</time></trkpt><trkpt lat="45.6541009" lon="11.0183594"><ele>1044.0</ele><time>2026-04-25T10:31:36.103Z</time></trkpt><trkpt lat="45.6541604" lon="11.0182327"><ele>1044.0</ele><time>2026-04-25T10:31:37.103Z</time></trkpt><trkpt lat="45.6542173" lon="11.0181476"><ele>1044.0</ele><time>2026-04-25T10:31:38.103Z</time></trkpt><trkpt lat="45.6542883" lon="11.0181116"><ele>1044.0</ele><time>2026-04-25T10:31:39.102Z</time></trkpt><trkpt lat="45.6543704" lon="11.0181021"><ele>1037.8</ele><time>2026-04-25T10:31:40.102Z</time></trkpt><trkpt lat="45.6544676" lon="11.0181268"><ele>1031.6000000000001</ele><time>2026-04-25T10:31:41.103Z</time></trkpt><trkpt lat="45.6545685" lon="11.0181681"><ele>1025.4</ele><time>2026-04-25T10:31:42.103Z</time></trkpt><trkpt lat="45.6546863" lon="11.0181741"><ele>1019.2</ele><time>2026-04-25T10:31:43.102Z</time></trkpt><trkpt lat="45.6548106" lon="11.0181322"><ele>1013.0</ele><time>2026-04-25T10:31:44.103Z</time></trkpt><trkpt lat="45.6549429" lon="11.0180711"><ele>1013.0</ele><time>2026-04-25T10:31:45.103Z</time></trkpt><trkpt lat="45.6550796" lon="11.0179883"><ele>1013.0</ele><time>2026-04-25T10:31:46.103Z</time></trkpt><trkpt lat="45.6552115" lon="11.0178807"><ele>1013.0</ele><time>2026-04-25T10:31:47.102Z</time></trkpt><trkpt lat="45.655328" lon="11.0177589"><ele>1013.0</ele><time>2026-04-25T10:31:48.102Z</time></trkpt><trkpt lat="45.655433" lon="11.0176486"><ele>1012.75</ele><time>2026-04-25T10:31:49.102Z</time></trkpt><trkpt lat="45.6555457" lon="11.0175634"><ele>1012.5</ele><time>2026-04-25T10:31:50.102Z</time></trkpt><trkpt lat="45.6556651" lon="11.0175017"><ele>1012.25</ele><time>2026-04-25T10:31:51.102Z</time></trkpt><trkpt lat="45.6557895" lon="11.0174433"><ele>1012.0</ele><time>2026-04-25T10:31:52.102Z</time></trkpt><trkpt lat="45.6559273" lon="11.0173952"><ele>1012.0</ele><time>2026-04-25T10:31:53.102Z</time></trkpt><trkpt lat="45.6560689" lon="11.0173552"><ele>1012.0</ele><time>2026-04-25T10:31:54.103Z</time></trkpt><trkpt lat="45.6562089" lon="11.0173342"><ele>1012.0</ele><time>2026-04-25T10:31:55.102Z</time></trkpt><trkpt lat="45.6563477" lon="11.0173073"><ele>1012.0</ele><time>2026-04-25T10:31:56.102Z</time></trkpt><trkpt lat="45.6564861" lon="11.0172684"><ele>1012.0</ele><time>2026-04-25T10:31:57.103Z</time></trkpt><trkpt lat="45.6566231" lon="11.0172209"><ele>1012.0</ele><time>2026-04-25T10:31:58.103Z</time></trkpt><trkpt lat="45.6567548" lon="11.0171768"><ele>1012.0</ele><time>2026-04-25T10:31:59.102Z</time></trkpt><trkpt lat="45.6568818" lon="11.0171421"><ele>1012.0</ele><time>2026-04-25T10:32:00.103Z</time></trkpt><trkpt lat="45.6570013" lon="11.0171069"><ele>1015.0</ele><time>2026-04-25T10:32:01.102Z</time></trkpt><trkpt lat="45.6571109" lon="11.0170793"><ele>1018.0</ele><time>2026-04-25T10:32:02.102Z</time></trkpt><trkpt lat="45.6572036" lon="11.0170555"><ele>1021.0</ele><time>2026-04-25T10:32:03.102Z</time></trkpt><trkpt lat="45.6572784" lon="11.0170315"><ele>1024.0</ele><time>2026-04-25T10:32:04.102Z</time></trkpt><trkpt lat="45.6573409" lon="11.0169877"><ele>1027.0</ele><time>2026-04-25T10:32:05.103Z</time></trkpt><trkpt lat="45.6573885" lon="11.0168418"><ele>1027.0</ele><time>2026-04-25T10:32:07.102Z</time></trkpt><trkpt lat="45.6573886" lon="11.0167423"><ele>1027.0</ele><time>2026-04-25T10:32:08.103Z</time></trkpt><trkpt lat="45.6573731" lon="11.0166332"><ele>1027.0</ele><time>2026-04-25T10:32:09.102Z</time></trkpt><trkpt lat="45.6573548" lon="11.0165146"><ele>1027.0</ele><time>2026-04-25T10:32:10.102Z</time></trkpt><trkpt lat="45.6573389" lon="11.0163926"><ele>1027.0</ele><time>2026-04-25T10:32:11.103Z</time></trkpt><trkpt lat="45.6573061" lon="11.0162822"><ele>1027.0</ele><time>2026-04-25T10:32:12.103Z</time></trkpt><trkpt lat="45.6572505" lon="11.0161905"><ele>1031.2</ele><time>2026-04-25T10:32:13.102Z</time></trkpt><trkpt lat="45.6571782" lon="11.0161394"><ele>1035.4</ele><time>2026-04-25T10:32:14.102Z</time></trkpt><trkpt lat="45.6570861" lon="11.0161048"><ele>1039.6</ele><time>2026-04-25T10:32:15.102Z</time></trkpt><trkpt lat="45.6569827" lon="11.016077"><ele>1043.8</ele><time>2026-04-25T10:32:16.102Z</time></trkpt><trkpt lat="45.6568693" lon="11.0160542"><ele>1048.0</ele><time>2026-04-25T10:32:17.102Z</time></trkpt><trkpt lat="45.6567462" lon="11.0160522"><ele>1048.0</ele><time>2026-04-25T10:32:18.102Z</time></trkpt><trkpt lat="45.6566242" lon="11.0160729"><ele>1048.0</ele><time>2026-04-25T10:32:19.102Z</time></trkpt><trkpt lat="45.6565069" lon="11.0161057"><ele>1048.0</ele><time>2026-04-25T10:32:20.102Z</time></trkpt><trkpt lat="45.656396" lon="11.016144"><ele>1048.0</ele><time>2026-04-25T10:32:21.102Z</time></trkpt><trkpt lat="45.6562826" lon="11.0161693"><ele>1048.0</ele><time>2026-04-25T10:32:22.104Z</time></trkpt><trkpt lat="45.6561653" lon="11.0161804"><ele>1048.0</ele><time>2026-04-25T10:32:23.103Z</time></trkpt><trkpt lat="45.6560444" lon="11.0161721"><ele>1048.0</ele><time>2026-04-25T10:32:24.102Z</time></trkpt><trkpt lat="45.6559201" lon="11.0161303"><ele>1048.0</ele><time>2026-04-25T10:32:25.103Z</time></trkpt><trkpt lat="45.6557851" lon="11.0160741"><ele>1049.75</ele><time>2026-04-25T10:32:26.102Z</time></trkpt><trkpt lat="45.6556426" lon="11.0160349"><ele>1051.5</ele><time>2026-04-25T10:32:27.103Z</time></trkpt><trkpt lat="45.6555025" lon="11.0160016"><ele>1053.25</ele><time>2026-04-25T10:32:28.102Z</time></trkpt><trkpt lat="45.6553634" lon="11.0159922"><ele>1055.0</ele><time>2026-04-25T10:32:29.102Z</time></trkpt><trkpt lat="45.6552217" lon="11.0160077"><ele>1057.25</ele><time>2026-04-25T10:32:30.103Z</time></trkpt><trkpt lat="45.6550973" lon="11.0160757"><ele>1059.5</ele><time>2026-04-25T10:32:31.102Z</time></trkpt><trkpt lat="45.6549699" lon="11.016145"><ele>1061.75</ele><time>2026-04-25T10:32:32.103Z</time></trkpt><trkpt lat="45.6548449" lon="11.0161771"><ele>1064.0</ele><time>2026-04-25T10:32:33.103Z</time></trkpt><trkpt lat="45.6547206" lon="11.0161833"><ele>1064.0</ele><time>2026-04-25T10:32:34.103Z</time></trkpt><trkpt lat="45.6545924" lon="11.0161439"><ele>1064.0</ele><time>2026-04-25T10:32:35.103Z</time></trkpt><trkpt lat="45.6544641" lon="11.0160946"><ele>1064.0</ele><time>2026-04-25T10:32:36.103Z</time></trkpt><trkpt lat="45.6543448" lon="11.0160566"><ele>1064.0</ele><time>2026-04-25T10:32:37.103Z</time></trkpt><trkpt lat="45.6542387" lon="11.0160005"><ele>1058.5</ele><time>2026-04-25T10:32:38.103Z</time></trkpt><trkpt lat="45.6541352" lon="11.0159102"><ele>1053.0</ele><time>2026-04-25T10:32:39.102Z</time></trkpt><trkpt lat="45.6540327" lon="11.0158132"><ele>1047.5</ele><time>2026-04-25T10:32:40.104Z</time></trkpt><trkpt lat="45.6539201" lon="11.0157364"><ele>1042.0</ele><time>2026-04-25T10:32:41.103Z</time></trkpt><trkpt lat="45.6538094" lon="11.0156606"><ele>1047.5</ele><time>2026-04-25T10:32:42.103Z</time></trkpt><trkpt lat="45.6537067" lon="11.0155496"><ele>1053.0</ele><time>2026-04-25T10:32:43.103Z</time></trkpt><trkpt lat="45.6536066" lon="11.0154269"><ele>1058.5</ele><time>2026-04-25T10:32:44.103Z</time></trkpt><trkpt lat="45.6535046" lon="11.0152973"><ele>1064.0</ele><time>2026-04-25T10:32:45.103Z</time></trkpt><trkpt lat="45.6534014" lon="11.0151744"><ele>1064.0</ele><time>2026-04-25T10:32:46.102Z</time></trkpt><trkpt lat="45.6532881" lon="11.015078"><ele>1064.0</ele><time>2026-04-25T10:32:47.102Z</time></trkpt><trkpt lat="45.6531715" lon="11.0149908"><ele>1064.0</ele><time>2026-04-25T10:32:48.102Z</time></trkpt><trkpt lat="45.6530502" lon="11.0149256"><ele>1064.0</ele><time>2026-04-25T10:32:49.102Z</time></trkpt><trkpt lat="45.6529211" lon="11.0148789"><ele>1067.5</ele><time>2026-04-25T10:32:50.103Z</time></trkpt><trkpt lat="45.6527896" lon="11.0148296"><ele>1071.0</ele><time>2026-04-25T10:32:51.102Z</time></trkpt><trkpt lat="45.6526612" lon="11.0147673"><ele>1074.5</ele><time>2026-04-25T10:32:52.104Z</time></trkpt><trkpt lat="45.6525358" lon="11.0147008"><ele>1078.0</ele><time>2026-04-25T10:32:53.102Z</time></trkpt><trkpt lat="45.6524197" lon="11.0146259"><ele>1078.0</ele><time>2026-04-25T10:32:54.102Z</time></trkpt><trkpt lat="45.652309" lon="11.0145608"><ele>1078.0</ele><time>2026-04-25T10:32:55.103Z</time></trkpt><trkpt lat="45.6522012" lon="11.0144991"><ele>1078.0</ele><time>2026-04-25T10:32:56.102Z</time></trkpt><trkpt lat="45.6521114" lon="11.0144303"><ele>1078.0</ele><time>2026-04-25T10:32:57.103Z</time></trkpt><trkpt lat="45.6520397" lon="11.0143274"><ele>1078.0</ele><time>2026-04-25T10:32:58.103Z</time></trkpt><trkpt lat="45.6519783" lon="11.0141934"><ele>1068.75</ele><time>2026-04-25T10:32:59.102Z</time></trkpt><trkpt lat="45.6519147" lon="11.0140604"><ele>1059.5</ele><time>2026-04-25T10:33:00.103Z</time></trkpt><trkpt lat="45.6518522" lon="11.0139208"><ele>1050.25</ele><time>2026-04-25T10:33:01.104Z</time></trkpt><trkpt lat="45.6518119" lon="11.0137645"><ele>1041.0</ele><time>2026-04-25T10:33:02.103Z</time></trkpt><trkpt lat="45.6517913" lon="11.0135985"><ele>1041.0</ele><time>2026-04-25T10:33:03.102Z</time></trkpt><trkpt lat="45.6517851" lon="11.0134186"><ele>1041.0</ele><time>2026-04-25T10:33:04.103Z</time></trkpt><trkpt lat="45.6517789" lon="11.0132274"><ele>1041.0</ele><time>2026-04-25T10:33:05.103Z</time></trkpt><trkpt lat="45.6517682" lon="11.0130321"><ele>1041.0</ele><time>2026-04-25T10:33:06.103Z</time></trkpt><trkpt lat="45.6517542" lon="11.01284"><ele>1042.75</ele><time>2026-04-25T10:33:07.104Z</time></trkpt><trkpt lat="45.651743" lon="11.0126601"><ele>1044.5</ele><time>2026-04-25T10:33:08.103Z</time></trkpt><trkpt lat="45.651747" lon="11.0124809"><ele>1046.25</ele><time>2026-04-25T10:33:09.103Z</time></trkpt><trkpt lat="45.6517468" lon="11.0122869"><ele>1048.0</ele><time>2026-04-25T10:33:10.102Z</time></trkpt><trkpt lat="45.6517735" lon="11.0121242"><ele>1053.25</ele><time>2026-04-25T10:33:11.103Z</time></trkpt><trkpt lat="45.6517821" lon="11.0119745"><ele>1058.5</ele><time>2026-04-25T10:33:12.102Z</time></trkpt><trkpt lat="45.6517574" lon="11.0118076"><ele>1063.75</ele><time>2026-04-25T10:33:13.104Z</time></trkpt><trkpt lat="45.651694" lon="11.0116733"><ele>1069.0</ele><time>2026-04-25T10:33:14.102Z</time></trkpt><trkpt lat="45.6516067" lon="11.0115726"><ele>1078.25</ele><time>2026-04-25T10:33:15.102Z</time></trkpt><trkpt lat="45.6515047" lon="11.011494"><ele>1087.5</ele><time>2026-04-25T10:33:16.103Z</time></trkpt><trkpt lat="45.6514272" lon="11.0113835"><ele>1096.75</ele><time>2026-04-25T10:33:17.103Z</time></trkpt><trkpt lat="45.6513559" lon="11.0112479"><ele>1106.0</ele><time>2026-04-25T10:33:18.102Z</time></trkpt><trkpt lat="45.6512847" lon="11.0110984"><ele>1106.0</ele><time>2026-04-25T10:33:19.102Z</time></trkpt><trkpt lat="45.6512105" lon="11.0109461"><ele>1106.0</ele><time>2026-04-25T10:33:20.103Z</time></trkpt><trkpt lat="45.651127" lon="11.0107986"><ele>1106.0</ele><time>2026-04-25T10:33:21.103Z</time></trkpt><trkpt lat="45.6510222" lon="11.0106774"><ele>1106.0</ele><time>2026-04-25T10:33:22.102Z</time></trkpt><trkpt lat="45.6509219" lon="11.0105661"><ele>1100.0</ele><time>2026-04-25T10:33:23.103Z</time></trkpt><trkpt lat="45.6508434" lon="11.0104492"><ele>1094.0</ele><time>2026-04-25T10:33:24.102Z</time></trkpt><trkpt lat="45.6507904" lon="11.0103181"><ele>1088.0</ele><time>2026-04-25T10:33:25.103Z</time></trkpt><trkpt lat="45.6507635" lon="11.0101678"><ele>1082.0</ele><time>2026-04-25T10:33:26.103Z</time></trkpt><trkpt lat="45.6507525" lon="11.0100022"><ele>1076.0</ele><time>2026-04-25T10:33:27.102Z</time></trkpt><trkpt lat="45.6507358" lon="11.0098335"><ele>1076.0</ele><time>2026-04-25T10:33:28.102Z</time></trkpt><trkpt lat="45.6507252" lon="11.0096616"><ele>1076.0</ele><time>2026-04-25T10:33:29.102Z</time></trkpt><trkpt lat="45.6507237" lon="11.0094949"><ele>1076.0</ele><time>2026-04-25T10:33:30.102Z</time></trkpt><trkpt lat="45.6507423" lon="11.0093258"><ele>1076.0</ele><time>2026-04-25T10:33:31.102Z</time></trkpt><trkpt lat="45.6507777" lon="11.0091627"><ele>1075.5</ele><time>2026-04-25T10:33:32.103Z</time></trkpt><trkpt lat="45.6508323" lon="11.0090049"><ele>1075.0</ele><time>2026-04-25T10:33:33.104Z</time></trkpt><trkpt lat="45.6508929" lon="11.0088387"><ele>1074.5</ele><time>2026-04-25T10:33:34.102Z</time></trkpt><trkpt lat="45.6509535" lon="11.008676"><ele>1074.0</ele><time>2026-04-25T10:33:35.102Z</time></trkpt><trkpt lat="45.6510061" lon="11.0085353"><ele>1074.0</ele><time>2026-04-25T10:33:36.104Z</time></trkpt><trkpt lat="45.6510315" lon="11.0084049"><ele>1074.0</ele><time>2026-04-25T10:33:37.103Z</time></trkpt><trkpt lat="45.6510197" lon="11.0082741"><ele>1074.0</ele><time>2026-04-25T10:33:38.103Z</time></trkpt><trkpt lat="45.6509742" lon="11.0081506"><ele>1074.0</ele><time>2026-04-25T10:33:39.102Z</time></trkpt><trkpt lat="45.6508963" lon="11.0080528"><ele>1074.0</ele><time>2026-04-25T10:33:40.102Z</time></trkpt><trkpt lat="45.6507862" lon="11.007997"><ele>1076.0</ele><time>2026-04-25T10:33:41.102Z</time></trkpt><trkpt lat="45.65066" lon="11.00797"><ele>1078.0</ele><time>2026-04-25T10:33:42.103Z</time></trkpt><trkpt lat="45.6505301" lon="11.0079359"><ele>1080.0</ele><time>2026-04-25T10:33:43.103Z</time></trkpt><trkpt lat="45.6503952" lon="11.0078854"><ele>1082.0</ele><time>2026-04-25T10:33:44.104Z</time></trkpt><trkpt lat="45.6502609" lon="11.0078116"><ele>1083.0</ele><time>2026-04-25T10:33:45.103Z</time></trkpt><trkpt lat="45.6501281" lon="11.0077123"><ele>1084.0</ele><time>2026-04-25T10:33:46.102Z</time></trkpt><trkpt lat="45.6499953" lon="11.0076083"><ele>1085.0</ele><time>2026-04-25T10:33:47.104Z</time></trkpt><trkpt lat="45.6498634" lon="11.0075103"><ele>1085.25</ele><time>2026-04-25T10:33:48.102Z</time></trkpt><trkpt lat="45.6497417" lon="11.007422"><ele>1085.5</ele><time>2026-04-25T10:33:49.102Z</time></trkpt><trkpt lat="45.6496327" lon="11.0073292"><ele>1085.75</ele><time>2026-04-25T10:33:50.103Z</time></trkpt><trkpt lat="45.6495565" lon="11.007231"><ele>1086.0</ele><time>2026-04-25T10:33:51.102Z</time></trkpt><trkpt lat="45.6495133" lon="11.0071281"><ele>1086.0</ele><time>2026-04-25T10:33:52.102Z</time></trkpt><trkpt lat="45.6495114" lon="11.0070185"><ele>1086.0</ele><time>2026-04-25T10:33:53.103Z</time></trkpt><trkpt lat="45.6495442" lon="11.0069046"><ele>1086.0</ele><time>2026-04-25T10:33:54.103Z</time></trkpt><trkpt lat="45.6495987" lon="11.0067848"><ele>1086.0</ele><time>2026-04-25T10:33:55.102Z</time></trkpt><trkpt lat="45.6496567" lon="11.0066528"><ele>1086.0</ele><time>2026-04-25T10:33:56.102Z</time></trkpt><trkpt lat="45.6497283" lon="11.0065296"><ele>1086.2</ele><time>2026-04-25T10:33:57.102Z</time></trkpt><trkpt lat="45.6498162" lon="11.0064274"><ele>1086.3999999999999</ele><time>2026-04-25T10:33:58.102Z</time></trkpt><trkpt lat="45.6499072" lon="11.0063442"><ele>1086.6</ele><time>2026-04-25T10:33:59.103Z</time></trkpt><trkpt lat="45.6499867" lon="11.0062768"><ele>1086.8</ele><time>2026-04-25T10:34:00.103Z</time></trkpt><trkpt lat="45.6500508" lon="11.006211"><ele>1087.0</ele><time>2026-04-25T10:34:01.102Z</time></trkpt><trkpt lat="45.6500927" lon="11.0061223"><ele>1087.0</ele><time>2026-04-25T10:34:02.102Z</time></trkpt><trkpt lat="45.6501048" lon="11.0060145"><ele>1087.0</ele><time>2026-04-25T10:34:03.103Z</time></trkpt><trkpt lat="45.6500755" lon="11.0059094"><ele>1087.0</ele><time>2026-04-25T10:34:04.102Z</time></trkpt><trkpt lat="45.6500117" lon="11.0058322"><ele>1087.0</ele><time>2026-04-25T10:34:05.103Z</time></trkpt><trkpt lat="45.6499235" lon="11.0057856"><ele>1087.0</ele><time>2026-04-25T10:34:06.102Z</time></trkpt><trkpt lat="45.6498169" lon="11.0057573"><ele>1087.0</ele><time>2026-04-25T10:34:07.102Z</time></trkpt><trkpt lat="45.6497012" lon="11.0057298"><ele>1092.5</ele><time>2026-04-25T10:34:08.103Z</time></trkpt><trkpt lat="45.6495763" lon="11.005704"><ele>1098.0</ele><time>2026-04-25T10:34:09.103Z</time></trkpt><trkpt lat="45.6494451" lon="11.0056863"><ele>1103.5</ele><time>2026-04-25T10:34:10.103Z</time></trkpt><trkpt lat="45.6493129" lon="11.0056732"><ele>1109.0</ele><time>2026-04-25T10:34:11.102Z</time></trkpt><trkpt lat="45.6491826" lon="11.0056581"><ele>1109.0</ele><time>2026-04-25T10:34:12.102Z</time></trkpt><trkpt lat="45.6490639" lon="11.0056317"><ele>1109.0</ele><time>2026-04-25T10:34:13.103Z</time></trkpt><trkpt lat="45.6489539" lon="11.0055758"><ele>1109.0</ele><time>2026-04-25T10:34:14.102Z</time></trkpt><trkpt lat="45.6488596" lon="11.0054752"><ele>1109.0</ele><time>2026-04-25T10:34:15.102Z</time></trkpt><trkpt lat="45.6487811" lon="11.0053428"><ele>1109.0</ele><time>2026-04-25T10:34:16.102Z</time></trkpt><trkpt lat="45.6487068" lon="11.0051952"><ele>1109.0</ele><time>2026-04-25T10:34:17.102Z</time></trkpt><trkpt lat="45.6486341" lon="11.0050449"><ele>1109.0</ele><time>2026-04-25T10:34:18.103Z</time></trkpt><trkpt lat="45.6485702" lon="11.0048992"><ele>1109.0</ele><time>2026-04-25T10:34:19.102Z</time></trkpt><trkpt lat="45.6485107" lon="11.0047751"><ele>1109.5</ele><time>2026-04-25T10:34:20.103Z</time></trkpt><trkpt lat="45.64844" lon="11.0046888"><ele>1110.0</ele><time>2026-04-25T10:34:21.104Z</time></trkpt><trkpt lat="45.6483599" lon="11.0046472"><ele>1110.5</ele><time>2026-04-25T10:34:22.103Z</time></trkpt><trkpt lat="45.6482863" lon="11.0046622"><ele>1111.0</ele><time>2026-04-25T10:34:23.103Z</time></trkpt><trkpt lat="45.6482273" lon="11.0047317"><ele>1111.5</ele><time>2026-04-25T10:34:24.102Z</time></trkpt><trkpt lat="45.6481766" lon="11.0048325"><ele>1112.0</ele><time>2026-04-25T10:34:25.102Z</time></trkpt><trkpt lat="45.6481254" lon="11.0049475"><ele>1111.0</ele><time>2026-04-25T10:34:26.102Z</time></trkpt><trkpt lat="45.6480676" lon="11.0050619"><ele>1110.0</ele><time>2026-04-25T10:34:27.102Z</time></trkpt><trkpt lat="45.6480079" lon="11.0051633"><ele>1109.0</ele><time>2026-04-25T10:34:28.102Z</time></trkpt><trkpt lat="45.6479287" lon="11.005229"><ele>1108.0</ele><time>2026-04-25T10:34:29.103Z</time></trkpt><trkpt lat="45.647837" lon="11.0052862"><ele>1107.0</ele><time>2026-04-25T10:34:30.103Z</time></trkpt><trkpt lat="45.6477378" lon="11.0053393"><ele>1107.0</ele><time>2026-04-25T10:34:31.103Z</time></trkpt><trkpt lat="45.6476424" lon="11.0053854"><ele>1107.0</ele><time>2026-04-25T10:34:32.103Z</time></trkpt><trkpt lat="45.6475441" lon="11.0053763"><ele>1107.0</ele><time>2026-04-25T10:34:33.103Z</time></trkpt><trkpt lat="45.6474409" lon="11.0053298"><ele>1107.0</ele><time>2026-04-25T10:34:34.102Z</time></trkpt><trkpt lat="45.647342" lon="11.0052541"><ele>1107.0</ele><time>2026-04-25T10:34:35.102Z</time></trkpt><trkpt lat="45.647246" lon="11.005161"><ele>1107.0</ele><time>2026-04-25T10:34:36.102Z</time></trkpt><trkpt lat="45.647149" lon="11.0050633"><ele>1107.0</ele><time>2026-04-25T10:34:37.103Z</time></trkpt><trkpt lat="45.6470514" lon="11.0049712"><ele>1107.0</ele><time>2026-04-25T10:34:38.102Z</time></trkpt><trkpt lat="45.6469532" lon="11.0048783"><ele>1107.0</ele><time>2026-04-25T10:34:39.102Z</time></trkpt><trkpt lat="45.6468574" lon="11.0047761"><ele>1107.75</ele><time>2026-04-25T10:34:40.102Z</time></trkpt><trkpt lat="45.6467641" lon="11.0046587"><ele>1108.5</ele><time>2026-04-25T10:34:41.102Z</time></trkpt><trkpt lat="45.6466715" lon="11.0045309"><ele>1109.25</ele><time>2026-04-25T10:34:42.103Z</time></trkpt><trkpt lat="45.646576" lon="11.0043886"><ele>1110.0</ele><time>2026-04-25T10:34:43.102Z</time></trkpt><trkpt lat="45.6464783" lon="11.004239"><ele>1113.75</ele><time>2026-04-25T10:34:44.102Z</time></trkpt><trkpt lat="45.6463825" lon="11.0040929"><ele>1117.5</ele><time>2026-04-25T10:34:45.102Z</time></trkpt><trkpt lat="45.6463126" lon="11.0039454"><ele>1121.25</ele><time>2026-04-25T10:34:46.102Z</time></trkpt><trkpt lat="45.6462551" lon="11.0037795"><ele>1125.0</ele><time>2026-04-25T10:34:47.103Z</time></trkpt><trkpt lat="45.6462128" lon="11.0036035"><ele>1125.0</ele><time>2026-04-25T10:34:48.102Z</time></trkpt><trkpt lat="45.6461713" lon="11.003424"><ele>1125.0</ele><time>2026-04-25T10:34:49.102Z</time></trkpt><trkpt lat="45.6461337" lon="11.0032503"><ele>1125.0</ele><time>2026-04-25T10:34:50.103Z</time></trkpt><trkpt lat="45.6461024" lon="11.0030941"><ele>1125.0</ele><time>2026-04-25T10:34:51.103Z</time></trkpt><trkpt lat="45.6460624" lon="11.0029458"><ele>1124.0</ele><time>2026-04-25T10:34:52.102Z</time></trkpt><trkpt lat="45.6460035" lon="11.0028074"><ele>1123.0</ele><time>2026-04-25T10:34:53.102Z</time></trkpt><trkpt lat="45.6459224" lon="11.0026973"><ele>1122.0</ele><time>2026-04-25T10:34:54.103Z</time></trkpt><trkpt lat="45.6458241" lon="11.0026354"><ele>1121.0</ele><time>2026-04-25T10:34:55.104Z</time></trkpt><trkpt lat="45.645723" lon="11.0026315"><ele>1120.0</ele><time>2026-04-25T10:34:56.102Z</time></trkpt><trkpt lat="45.6456217" lon="11.002688"><ele>1120.0</ele><time>2026-04-25T10:34:57.104Z</time></trkpt><trkpt lat="45.6455262" lon="11.002787"><ele>1120.0</ele><time>2026-04-25T10:34:58.103Z</time></trkpt><trkpt lat="45.6454217" lon="11.0028688"><ele>1120.0</ele><time>2026-04-25T10:34:59.102Z</time></trkpt><trkpt lat="45.6453078" lon="11.0029196"><ele>1120.0</ele><time>2026-04-25T10:35:00.102Z</time></trkpt><trkpt lat="45.6452067" lon="11.0029142"><ele>1118.4</ele><time>2026-04-25T10:35:01.103Z</time></trkpt><trkpt lat="45.645117" lon="11.0028563"><ele>1116.8</ele><time>2026-04-25T10:35:02.102Z</time></trkpt><trkpt lat="45.6450536" lon="11.0027416"><ele>1115.2</ele><time>2026-04-25T10:35:03.103Z</time></trkpt><trkpt lat="45.6450188" lon="11.0025941"><ele>1113.6</ele><time>2026-04-25T10:35:04.102Z</time></trkpt><trkpt lat="45.645017" lon="11.0024261"><ele>1112.0</ele><time>2026-04-25T10:35:05.103Z</time></trkpt><trkpt lat="45.6450485" lon="11.0022526"><ele>1112.0</ele><time>2026-04-25T10:35:06.103Z</time></trkpt><trkpt lat="45.6451032" lon="11.002076"><ele>1112.0</ele><time>2026-04-25T10:35:07.102Z</time></trkpt><trkpt lat="45.645161" lon="11.0018934"><ele>1112.0</ele><time>2026-04-25T10:35:08.102Z</time></trkpt><trkpt lat="45.6452218" lon="11.0017114"><ele>1112.0</ele><time>2026-04-25T10:35:09.102Z</time></trkpt><trkpt lat="45.6452761" lon="11.0015395"><ele>1113.75</ele><time>2026-04-25T10:35:10.102Z</time></trkpt><trkpt lat="45.6453095" lon="11.001369"><ele>1115.5</ele><time>2026-04-25T10:35:11.102Z</time></trkpt><trkpt lat="45.6453124" lon="11.0012004"><ele>1117.25</ele><time>2026-04-25T10:35:12.102Z</time></trkpt><trkpt lat="45.6452723" lon="11.0010469"><ele>1119.0</ele><time>2026-04-25T10:35:13.102Z</time></trkpt><trkpt lat="45.6451922" lon="11.0009266"><ele>1119.0</ele><time>2026-04-25T10:35:14.103Z</time></trkpt><trkpt lat="45.6450805" lon="11.0008527"><ele>1119.0</ele><time>2026-04-25T10:35:15.102Z</time></trkpt><trkpt lat="45.6449558" lon="11.0008331"><ele>1119.0</ele><time>2026-04-25T10:35:16.103Z</time></trkpt><trkpt lat="45.6448226" lon="11.0008639"><ele>1119.0</ele><time>2026-04-25T10:35:17.102Z</time></trkpt><trkpt lat="45.6446807" lon="11.0009157"><ele>1119.0</ele><time>2026-04-25T10:35:18.103Z</time></trkpt><trkpt lat="45.6445381" lon="11.0009784"><ele>1119.0</ele><time>2026-04-25T10:35:19.103Z</time></trkpt><trkpt lat="45.6443992" lon="11.0010465"><ele>1119.0</ele><time>2026-04-25T10:35:20.102Z</time></trkpt><trkpt lat="45.6442698" lon="11.0010984"><ele>1119.0</ele><time>2026-04-25T10:35:21.102Z</time></trkpt><trkpt lat="45.6441462" lon="11.0011192"><ele>1119.2</ele><time>2026-04-25T10:35:22.102Z</time></trkpt><trkpt lat="45.6440402" lon="11.0010887"><ele>1119.4</ele><time>2026-04-25T10:35:23.104Z</time></trkpt><trkpt lat="45.6439535" lon="11.0010043"><ele>1119.6</ele><time>2026-04-25T10:35:24.103Z</time></trkpt><trkpt lat="45.6438986" lon="11.0008723"><ele>1119.8</ele><time>2026-04-25T10:35:25.103Z</time></trkpt><trkpt lat="45.6438698" lon="11.0007133"><ele>1120.0</ele><time>2026-04-25T10:35:26.102Z</time></trkpt><trkpt lat="45.6438488" lon="11.0005315"><ele>1120.0</ele><time>2026-04-25T10:35:27.102Z</time></trkpt><trkpt lat="45.6438137" lon="11.0003591"><ele>1120.0</ele><time>2026-04-25T10:35:28.102Z</time></trkpt><trkpt lat="45.6437735" lon="11.0002024"><ele>1120.0</ele><time>2026-04-25T10:35:29.103Z</time></trkpt><trkpt lat="45.6437115" lon="11.0000584"><ele>1120.0</ele><time>2026-04-25T10:35:30.102Z</time></trkpt><trkpt lat="45.6436307" lon="10.9999437"><ele>1118.8</ele><time>2026-04-25T10:35:31.103Z</time></trkpt><trkpt lat="45.6435441" lon="10.9998545"><ele>1117.6</ele><time>2026-04-25T10:35:32.102Z</time></trkpt><trkpt lat="45.6434595" lon="10.9997807"><ele>1116.4</ele><time>2026-04-25T10:35:33.103Z</time></trkpt><trkpt lat="45.6433898" lon="10.9997062"><ele>1115.2</ele><time>2026-04-25T10:35:34.102Z</time></trkpt><trkpt lat="45.6433331" lon="10.9996278"><ele>1114.0</ele><time>2026-04-25T10:35:35.103Z</time></trkpt><trkpt lat="45.6432904" lon="10.9995307"><ele>1114.0</ele><time>2026-04-25T10:35:36.103Z</time></trkpt><trkpt lat="45.6432666" lon="10.9994294"><ele>1114.0</ele><time>2026-04-25T10:35:37.102Z</time></trkpt><trkpt lat="45.6432646" lon="10.9993191"><ele>1114.0</ele><time>2026-04-25T10:35:38.102Z</time></trkpt><trkpt lat="45.6432721" lon="10.9991918"><ele>1114.0</ele><time>2026-04-25T10:35:39.102Z</time></trkpt><trkpt lat="45.6432822" lon="10.9990524"><ele>1114.0</ele><time>2026-04-25T10:35:40.102Z</time></trkpt><trkpt lat="45.6433033" lon="10.9989038"><ele>1114.0</ele><time>2026-04-25T10:35:41.104Z</time></trkpt><trkpt lat="45.6433387" lon="10.9987519"><ele>1115.4</ele><time>2026-04-25T10:35:42.103Z</time></trkpt><trkpt lat="45.6433927" lon="10.9986179"><ele>1116.8000000000002</ele><time>2026-04-25T10:35:43.102Z</time></trkpt><trkpt lat="45.6434575" lon="10.9985096"><ele>1118.1999999999998</ele><time>2026-04-25T10:35:44.103Z</time></trkpt><trkpt lat="45.6435408" lon="10.998426"><ele>1119.6</ele><time>2026-04-25T10:35:45.103Z</time></trkpt><trkpt lat="45.6436371" lon="10.9983747"><ele>1121.0</ele><time>2026-04-25T10:35:46.102Z</time></trkpt><trkpt lat="45.6437402" lon="10.9983569"><ele>1122.0</ele><time>2026-04-25T10:35:47.103Z</time></trkpt><trkpt lat="45.6438459" lon="10.9983662"><ele>1123.0</ele><time>2026-04-25T10:35:48.103Z</time></trkpt><trkpt lat="45.6439557" lon="10.9983938"><ele>1124.0</ele><time>2026-04-25T10:35:49.103Z</time></trkpt><trkpt lat="45.6440684" lon="10.9984193"><ele>1125.0</ele><time>2026-04-25T10:35:50.103Z</time></trkpt><trkpt lat="45.6441743" lon="10.9984264"><ele>1126.0</ele><time>2026-04-25T10:35:51.102Z</time></trkpt><trkpt lat="45.6442722" lon="10.998421"><ele>1126.0</ele><time>2026-04-25T10:35:52.103Z</time></trkpt><trkpt lat="45.6443595" lon="10.998394"><ele>1126.0</ele><time>2026-04-25T10:35:53.102Z</time></trkpt><trkpt lat="45.6444422" lon="10.9983507"><ele>1126.0</ele><time>2026-04-25T10:35:54.103Z</time></trkpt><trkpt lat="45.6445276" lon="10.9982999"><ele>1126.0</ele><time>2026-04-25T10:35:55.102Z</time></trkpt><trkpt lat="45.6446077" lon="10.9982465"><ele>1126.0</ele><time>2026-04-25T10:35:56.104Z</time></trkpt><trkpt lat="45.6446881" lon="10.9981926"><ele>1126.0</ele><time>2026-04-25T10:35:57.102Z</time></trkpt><trkpt lat="45.6447705" lon="10.998157"><ele>1125.0</ele><time>2026-04-25T10:35:58.102Z</time></trkpt><trkpt lat="45.6448611" lon="10.998147"><ele>1124.0</ele><time>2026-04-25T10:35:59.102Z</time></trkpt><trkpt lat="45.6449572" lon="10.998146"><ele>1123.0</ele><time>2026-04-25T10:36:00.102Z</time></trkpt><trkpt lat="45.6450583" lon="10.9981412"><ele>1122.0</ele><time>2026-04-25T10:36:01.102Z</time></trkpt><trkpt lat="45.6451632" lon="10.99816"><ele>1121.0</ele><time>2026-04-25T10:36:02.103Z</time></trkpt><trkpt lat="45.645266" lon="10.9982097"><ele>1120.25</ele><time>2026-04-25T10:36:03.103Z</time></trkpt><trkpt lat="45.6453706" lon="10.9982782"><ele>1119.5</ele><time>2026-04-25T10:36:04.102Z</time></trkpt><trkpt lat="45.6454737" lon="10.9983539"><ele>1118.75</ele><time>2026-04-25T10:36:05.102Z</time></trkpt><trkpt lat="45.6455731" lon="10.9984394"><ele>1118.0</ele><time>2026-04-25T10:36:06.103Z</time></trkpt><trkpt lat="45.6456651" lon="10.9985267"><ele>1120.6</ele><time>2026-04-25T10:36:07.102Z</time></trkpt><trkpt lat="45.6457461" lon="10.9986278"><ele>1123.1999999999998</ele><time>2026-04-25T10:36:08.102Z</time></trkpt><trkpt lat="45.6458199" lon="10.9987458"><ele>1125.8</ele><time>2026-04-25T10:36:09.102Z</time></trkpt><trkpt lat="45.64588" lon="10.9988758"><ele>1128.3999999999999</ele><time>2026-04-25T10:36:10.103Z</time></trkpt><trkpt lat="45.6459331" lon="10.9990095"><ele>1131.0</ele><time>2026-04-25T10:36:11.103Z</time></trkpt><trkpt lat="45.645984" lon="10.9991273"><ele>1132.0</ele><time>2026-04-25T10:36:12.103Z</time></trkpt><trkpt lat="45.6460503" lon="10.9992223"><ele>1133.0</ele><time>2026-04-25T10:36:13.102Z</time></trkpt><trkpt lat="45.6461314" lon="10.9992881"><ele>1134.0</ele><time>2026-04-25T10:36:14.103Z</time></trkpt><trkpt lat="45.6462243" lon="10.999297"><ele>1135.0</ele><time>2026-04-25T10:36:15.102Z</time></trkpt><trkpt lat="45.6463152" lon="10.9992483"><ele>1136.0</ele><time>2026-04-25T10:36:16.102Z</time></trkpt><trkpt lat="45.6463955" lon="10.9991575"><ele>1136.0</ele><time>2026-04-25T10:36:17.102Z</time></trkpt><trkpt lat="45.6464662" lon="10.9990502"><ele>1136.0</ele><time>2026-04-25T10:36:18.104Z</time></trkpt><trkpt lat="45.6465268" lon="10.9989515"><ele>1136.0</ele><time>2026-04-25T10:36:19.103Z</time></trkpt><trkpt lat="45.6465833" lon="10.9988779"><ele>1136.0</ele><time>2026-04-25T10:36:20.102Z</time></trkpt><trkpt lat="45.6466424" lon="10.9988172"><ele>1136.0</ele><time>2026-04-25T10:36:21.102Z</time></trkpt><trkpt lat="45.6467097" lon="10.9987756"><ele>1136.0</ele><time>2026-04-25T10:36:22.102Z</time></trkpt><trkpt lat="45.6467819" lon="10.9987523"><ele>1136.0</ele><time>2026-04-25T10:36:23.104Z</time></trkpt><trkpt lat="45.6468645" lon="10.9987469"><ele>1136.0</ele><time>2026-04-25T10:36:24.102Z</time></trkpt><trkpt lat="45.6469559" lon="10.9987565"><ele>1136.0</ele><time>2026-04-25T10:36:25.103Z</time></trkpt><trkpt lat="45.6470532" lon="10.998779"><ele>1136.0</ele><time>2026-04-25T10:36:26.103Z</time></trkpt><trkpt lat="45.6471559" lon="10.9988162"><ele>1136.0</ele><time>2026-04-25T10:36:27.102Z</time></trkpt><trkpt lat="45.6472576" lon="10.9988646"><ele>1137.6</ele><time>2026-04-25T10:36:28.104Z</time></trkpt><trkpt lat="45.6473611" lon="10.9989096"><ele>1139.1999999999998</ele><time>2026-04-25T10:36:29.103Z</time></trkpt><trkpt lat="45.6474632" lon="10.9989307"><ele>1140.8000000000002</ele><time>2026-04-25T10:36:30.102Z</time></trkpt><trkpt lat="45.647563" lon="10.9989136"><ele>1142.4</ele><time>2026-04-25T10:36:31.102Z</time></trkpt><trkpt lat="45.6476577" lon="10.9988586"><ele>1144.0</ele><time>2026-04-25T10:36:32.103Z</time></trkpt><trkpt lat="45.6477428" lon="10.9987833"><ele>1146.6000000000001</ele><time>2026-04-25T10:36:33.102Z</time></trkpt><trkpt lat="45.6478156" lon="10.998687"><ele>1149.2</ele><time>2026-04-25T10:36:34.103Z</time></trkpt><trkpt lat="45.6478656" lon="10.9985596"><ele>1151.8000000000002</ele><time>2026-04-25T10:36:35.103Z</time></trkpt><trkpt lat="45.647892" lon="10.9984227"><ele>1154.4</ele><time>2026-04-25T10:36:36.102Z</time></trkpt><trkpt lat="45.6478858" lon="10.9982835"><ele>1157.0</ele><time>2026-04-25T10:36:37.103Z</time></trkpt><trkpt lat="45.6478526" lon="10.9981479"><ele>1157.0</ele><time>2026-04-25T10:36:38.102Z</time></trkpt><trkpt lat="45.64781" lon="10.9980156"><ele>1157.0</ele><time>2026-04-25T10:36:39.102Z</time></trkpt><trkpt lat="45.6477762" lon="10.9978819"><ele>1157.0</ele><time>2026-04-25T10:36:40.102Z</time></trkpt><trkpt lat="45.6477711" lon="10.9977497"><ele>1157.0</ele><time>2026-04-25T10:36:41.103Z</time></trkpt><trkpt lat="45.6477923" lon="10.9976242"><ele>1157.0</ele><time>2026-04-25T10:36:42.103Z</time></trkpt><trkpt lat="45.6478377" lon="10.9975168"><ele>1156.0</ele><time>2026-04-25T10:36:43.102Z</time></trkpt><trkpt lat="45.6478955" lon="10.9974205"><ele>1155.0</ele><time>2026-04-25T10:36:44.102Z</time></trkpt><trkpt lat="45.6479589" lon="10.9973256"><ele>1154.0</ele><time>2026-04-25T10:36:45.103Z</time></trkpt><trkpt lat="45.6480342" lon="10.997239"><ele>1153.0</ele><time>2026-04-25T10:36:46.103Z</time></trkpt><trkpt lat="45.6481183" lon="10.9971722"><ele>1152.0</ele><time>2026-04-25T10:36:47.103Z</time></trkpt><trkpt lat="45.6482063" lon="10.9971281"><ele>1152.0</ele><time>2026-04-25T10:36:48.103Z</time></trkpt><trkpt lat="45.6483" lon="10.9971113"><ele>1152.0</ele><time>2026-04-25T10:36:49.103Z</time></trkpt><trkpt lat="45.6483983" lon="10.9971175"><ele>1152.0</ele><time>2026-04-25T10:36:50.104Z</time></trkpt><trkpt lat="45.6485028" lon="10.9971407"><ele>1152.0</ele><time>2026-04-25T10:36:51.103Z</time></trkpt><trkpt lat="45.6486133" lon="10.9971719"><ele>1152.0</ele><time>2026-04-25T10:36:52.103Z</time></trkpt><trkpt lat="45.6487278" lon="10.9972038"><ele>1152.75</ele><time>2026-04-25T10:36:53.102Z</time></trkpt><trkpt lat="45.6488437" lon="10.9972412"><ele>1153.5</ele><time>2026-04-25T10:36:54.102Z</time></trkpt><trkpt lat="45.6489556" lon="10.9972852"><ele>1154.25</ele><time>2026-04-25T10:36:55.102Z</time></trkpt><trkpt lat="45.6490649" lon="10.9973373"><ele>1155.0</ele><time>2026-04-25T10:36:56.102Z</time></trkpt><trkpt lat="45.6491689" lon="10.9974066"><ele>1155.0</ele><time>2026-04-25T10:36:57.103Z</time></trkpt><trkpt lat="45.649272" lon="10.9974843"><ele>1155.0</ele><time>2026-04-25T10:36:58.104Z</time></trkpt><trkpt lat="45.6493767" lon="10.9975617"><ele>1155.0</ele><time>2026-04-25T10:36:59.102Z</time></trkpt><trkpt lat="45.6494806" lon="10.9976374"><ele>1155.0</ele><time>2026-04-25T10:37:00.103Z</time></trkpt><trkpt lat="45.6495819" lon="10.9977113"><ele>1158.0</ele><time>2026-04-25T10:37:01.103Z</time></trkpt><trkpt lat="45.6496866" lon="10.9977726"><ele>1161.0</ele><time>2026-04-25T10:37:02.102Z</time></trkpt><trkpt lat="45.6497824" lon="10.9978036"><ele>1164.0</ele><time>2026-04-25T10:37:03.103Z</time></trkpt><trkpt lat="45.649876" lon="10.9978119"><ele>1167.0</ele><time>2026-04-25T10:37:04.104Z</time></trkpt><trkpt lat="45.6499639" lon="10.9977981"><ele>1170.0</ele><time>2026-04-25T10:37:05.102Z</time></trkpt><trkpt lat="45.6500456" lon="10.997758"><ele>1170.0</ele><time>2026-04-25T10:37:06.102Z</time></trkpt><trkpt lat="45.6501363" lon="10.9976918"><ele>1170.0</ele><time>2026-04-25T10:37:07.102Z</time></trkpt><trkpt lat="45.6502289" lon="10.9976085"><ele>1170.0</ele><time>2026-04-25T10:37:08.103Z</time></trkpt><trkpt lat="45.6503224" lon="10.9975111"><ele>1170.0</ele><time>2026-04-25T10:37:09.103Z</time></trkpt><trkpt lat="45.6504078" lon="10.9973903"><ele>1170.0</ele><time>2026-04-25T10:37:10.102Z</time></trkpt><trkpt lat="45.6504815" lon="10.9972498"><ele>1170.5</ele><time>2026-04-25T10:37:11.102Z</time></trkpt><trkpt lat="45.6505493" lon="10.9970973"><ele>1171.0</ele><time>2026-04-25T10:37:12.102Z</time></trkpt><trkpt lat="45.6506163" lon="10.9969397"><ele>1171.5</ele><time>2026-04-25T10:37:13.102Z</time></trkpt><trkpt lat="45.6506785" lon="10.9967752"><ele>1172.0</ele><time>2026-04-25T10:37:14.104Z</time></trkpt><trkpt lat="45.6507326" lon="10.9965998"><ele>1172.0</ele><time>2026-04-25T10:37:15.102Z</time></trkpt><trkpt lat="45.650775" lon="10.9964119"><ele>1172.0</ele><time>2026-04-25T10:37:16.103Z</time></trkpt><trkpt lat="45.6508005" lon="10.9962135"><ele>1172.0</ele><time>2026-04-25T10:37:17.103Z</time></trkpt><trkpt lat="45.6508183" lon="10.9960109"><ele>1172.0</ele><time>2026-04-25T10:37:18.103Z</time></trkpt><trkpt lat="45.6508351" lon="10.9958142"><ele>1172.0</ele><time>2026-04-25T10:37:19.102Z</time></trkpt><trkpt lat="45.6508524" lon="10.9956304"><ele>1172.0</ele><time>2026-04-25T10:37:20.103Z</time></trkpt><trkpt lat="45.6508686" lon="10.9954606"><ele>1172.0</ele><time>2026-04-25T10:37:21.104Z</time></trkpt><trkpt lat="45.6508824" lon="10.9953067"><ele>1172.0</ele><time>2026-04-25T10:37:22.103Z</time></trkpt><trkpt lat="45.6508874" lon="10.9951666"><ele>1172.0</ele><time>2026-04-25T10:37:23.103Z</time></trkpt><trkpt lat="45.650883" lon="10.9950316"><ele>1172.0</ele><time>2026-04-25T10:37:24.103Z</time></trkpt><trkpt lat="45.6508652" lon="10.9948951"><ele>1172.0</ele><time>2026-04-25T10:37:25.103Z</time></trkpt><trkpt lat="45.6508327" lon="10.9947647"><ele>1172.0</ele><time>2026-04-25T10:37:26.102Z</time></trkpt><trkpt lat="45.6507982" lon="10.9946492"><ele>1172.0</ele><time>2026-04-25T10:37:27.102Z</time></trkpt><trkpt lat="45.6507711" lon="10.9945553"><ele>1172.0</ele><time>2026-04-25T10:37:28.102Z</time></trkpt><trkpt lat="45.6507696" lon="10.9944028"><ele>1171.6</ele><time>2026-04-25T10:37:30.103Z</time></trkpt><trkpt lat="45.6508443" lon="10.9943138"><ele>1171.2</ele><time>2026-04-25T10:37:32.102Z</time></trkpt><trkpt lat="45.6509311" lon="10.994364"><ele>1170.8</ele><time>2026-04-25T10:37:34.103Z</time></trkpt><trkpt lat="45.6509783" lon="10.994529"><ele>1170.4</ele><time>2026-04-25T10:37:36.103Z</time></trkpt><trkpt lat="45.6509912" lon="10.9946566"><ele>1170.0</ele><time>2026-04-25T10:37:37.103Z</time></trkpt><trkpt lat="45.651005" lon="10.9948122"><ele>1170.0</ele><time>2026-04-25T10:37:38.103Z</time></trkpt><trkpt lat="45.6510177" lon="10.9949895"><ele>1170.0</ele><time>2026-04-25T10:37:39.102Z</time></trkpt><trkpt lat="45.6510354" lon="10.9951786"><ele>1170.0</ele><time>2026-04-25T10:37:40.104Z</time></trkpt><trkpt lat="45.6510537" lon="10.9953777"><ele>1170.0</ele><time>2026-04-25T10:37:41.104Z</time></trkpt><trkpt lat="45.6510722" lon="10.9955736"><ele>1170.5</ele><time>2026-04-25T10:37:42.103Z</time></trkpt><trkpt lat="45.6510904" lon="10.995763"><ele>1171.0</ele><time>2026-04-25T10:37:43.102Z</time></trkpt><trkpt lat="45.6511083" lon="10.9959502"><ele>1171.5</ele><time>2026-04-25T10:37:44.102Z</time></trkpt><trkpt lat="45.6511299" lon="10.9961365"><ele>1172.0</ele><time>2026-04-25T10:37:45.103Z</time></trkpt><trkpt lat="45.6511525" lon="10.9963232"><ele>1178.5</ele><time>2026-04-25T10:37:46.103Z</time></trkpt><trkpt lat="45.6511705" lon="10.9965025"><ele>1185.0</ele><time>2026-04-25T10:37:47.102Z</time></trkpt><trkpt lat="45.6511882" lon="10.9966777"><ele>1191.5</ele><time>2026-04-25T10:37:48.102Z</time></trkpt><trkpt lat="45.6512028" lon="10.9968455"><ele>1198.0</ele><time>2026-04-25T10:37:49.103Z</time></trkpt><trkpt lat="45.6512169" lon="10.9970052"><ele>1198.0</ele><time>2026-04-25T10:37:50.102Z</time></trkpt><trkpt lat="45.6512332" lon="10.9971554"><ele>1198.0</ele><time>2026-04-25T10:37:51.103Z</time></trkpt><trkpt lat="45.6512563" lon="10.9973056"><ele>1198.0</ele><time>2026-04-25T10:37:52.103Z</time></trkpt><trkpt lat="45.6512871" lon="10.9974583"><ele>1198.0</ele><time>2026-04-25T10:37:53.103Z</time></trkpt><trkpt lat="45.6513227" lon="10.9976118"><ele>1198.0</ele><time>2026-04-25T10:37:54.104Z</time></trkpt><trkpt lat="45.6513648" lon="10.997765"><ele>1197.25</ele><time>2026-04-25T10:37:55.103Z</time></trkpt><trkpt lat="45.6514152" lon="10.9979194"><ele>1196.5</ele><time>2026-04-25T10:37:56.102Z</time></trkpt><trkpt lat="45.6514817" lon="10.9980689"><ele>1195.75</ele><time>2026-04-25T10:37:57.104Z</time></trkpt><trkpt lat="45.6515627" lon="10.9982081"><ele>1195.0</ele><time>2026-04-25T10:37:58.103Z</time></trkpt><trkpt lat="45.6516589" lon="10.9983365"><ele>1192.25</ele><time>2026-04-25T10:37:59.103Z</time></trkpt><trkpt lat="45.6517701" lon="10.9984522"><ele>1189.5</ele><time>2026-04-25T10:38:00.103Z</time></trkpt><trkpt lat="45.6518898" lon="10.9985665"><ele>1186.75</ele><time>2026-04-25T10:38:01.102Z</time></trkpt><trkpt lat="45.6520133" lon="10.998682"><ele>1184.0</ele><time>2026-04-25T10:38:02.103Z</time></trkpt><trkpt lat="45.6521355" lon="10.9988021"><ele>1186.6666666666667</ele><time>2026-04-25T10:38:03.102Z</time></trkpt><trkpt lat="45.6522635" lon="10.9989211"><ele>1189.3333333333333</ele><time>2026-04-25T10:38:04.102Z</time></trkpt><trkpt lat="45.6523831" lon="10.999057"><ele>1192.0</ele><time>2026-04-25T10:38:05.102Z</time></trkpt><trkpt lat="45.6525002" lon="10.9992097"><ele>1192.0</ele><time>2026-04-25T10:38:06.103Z</time></trkpt><trkpt lat="45.6526118" lon="10.9993769"><ele>1192.0</ele><time>2026-04-25T10:38:07.103Z</time></trkpt><trkpt lat="45.6527123" lon="10.9995548"><ele>1192.0</ele><time>2026-04-25T10:38:08.102Z</time></trkpt><trkpt lat="45.6528069" lon="10.9997439"><ele>1208.3333333333333</ele><time>2026-04-25T10:38:09.103Z</time></trkpt><trkpt lat="45.6529047" lon="10.9999363"><ele>1224.6666666666667</ele><time>2026-04-25T10:38:10.102Z</time></trkpt><trkpt lat="45.6529962" lon="11.0001316"><ele>1241.0</ele><time>2026-04-25T10:38:11.103Z</time></trkpt><trkpt lat="45.653086" lon="11.0003349"><ele>1241.0</ele><time>2026-04-25T10:38:12.102Z</time></trkpt><trkpt lat="45.6531737" lon="11.0005386"><ele>1241.0</ele><time>2026-04-25T10:38:13.103Z</time></trkpt><trkpt lat="45.6532584" lon="11.0007388"><ele>1241.0</ele><time>2026-04-25T10:38:14.103Z</time></trkpt><trkpt lat="45.6533375" lon="11.0009397"><ele>1235.75</ele><time>2026-04-25T10:38:15.102Z</time></trkpt><trkpt lat="45.653412" lon="11.001133"><ele>1230.5</ele><time>2026-04-25T10:38:16.104Z</time></trkpt><trkpt lat="45.6534781" lon="11.0013092"><ele>1225.25</ele><time>2026-04-25T10:38:17.104Z</time></trkpt><trkpt lat="45.6535413" lon="11.0014557"><ele>1220.0</ele><time>2026-04-25T10:38:18.102Z</time></trkpt><trkpt lat="45.6535994" lon="11.0015684"><ele>1220.3333333333335</ele><time>2026-04-25T10:38:19.103Z</time></trkpt><trkpt lat="45.6536556" lon="11.0016562"><ele>1220.6666666666667</ele><time>2026-04-25T10:38:20.102Z</time></trkpt><trkpt lat="45.6537109" lon="11.0017218"><ele>1221.0</ele><time>2026-04-25T10:38:21.103Z</time></trkpt><trkpt lat="45.6537729" lon="11.0017698"><ele>1221.3333333333333</ele><time>2026-04-25T10:38:22.103Z</time></trkpt><trkpt lat="45.6538392" lon="11.0017956"><ele>1221.6666666666665</ele><time>2026-04-25T10:38:23.103Z</time></trkpt><trkpt lat="45.6539606" lon="11.0017996"><ele>1222.0</ele><time>2026-04-25T10:38:25.103Z</time></trkpt><trkpt lat="45.6540737" lon="11.0017668"><ele>1222.0</ele><time>2026-04-25T10:38:27.103Z</time></trkpt><trkpt lat="45.6541681" lon="11.001668"><ele>1222.0</ele><time>2026-04-25T10:38:29.102Z</time></trkpt><trkpt lat="45.6542072" lon="11.0015966"><ele>1222.0</ele><time>2026-04-25T10:38:30.102Z</time></trkpt><trkpt lat="45.6542439" lon="11.0015139"><ele>1222.0</ele><time>2026-04-25T10:38:31.103Z</time></trkpt><trkpt lat="45.6542849" lon="11.0014318"><ele>1222.0</ele><time>2026-04-25T10:38:32.102Z</time></trkpt><trkpt lat="45.6543246" lon="11.0013452"><ele>1222.0</ele><time>2026-04-25T10:38:33.102Z</time></trkpt><trkpt lat="45.6543617" lon="11.001266"><ele>1226.0</ele><time>2026-04-25T10:38:34.103Z</time></trkpt><trkpt lat="45.6544167" lon="11.0011375"><ele>1230.0</ele><time>2026-04-25T10:38:36.102Z</time></trkpt><trkpt lat="45.6544981" lon="11.0010573"><ele>1234.0</ele><time>2026-04-25T10:38:38.102Z</time></trkpt><trkpt lat="45.6546077" lon="11.0010761"><ele>1238.0</ele><time>2026-04-25T10:38:40.102Z</time></trkpt><trkpt lat="45.6546928" lon="11.0012072"><ele>1242.0</ele><time>2026-04-25T10:38:42.102Z</time></trkpt><trkpt lat="45.6547204" lon="11.0013068"><ele>1242.4</ele><time>2026-04-25T10:38:43.103Z</time></trkpt><trkpt lat="45.6547499" lon="11.0014202"><ele>1242.8000000000002</ele><time>2026-04-25T10:38:44.102Z</time></trkpt><trkpt lat="45.6547848" lon="11.0015531"><ele>1243.2</ele><time>2026-04-25T10:38:45.103Z</time></trkpt><trkpt lat="45.6548276" lon="11.0016981"><ele>1243.6000000000001</ele><time>2026-04-25T10:38:46.102Z</time></trkpt><trkpt lat="45.654874" lon="11.0018494"><ele>1244.0</ele><time>2026-04-25T10:38:47.103Z</time></trkpt><trkpt lat="45.6549215" lon="11.0020067"><ele>1243.0</ele><time>2026-04-25T10:38:48.103Z</time></trkpt><trkpt lat="45.6549661" lon="11.002165"><ele>1242.0</ele><time>2026-04-25T10:38:49.104Z</time></trkpt><trkpt lat="45.6550077" lon="11.0023074"><ele>1241.0</ele><time>2026-04-25T10:38:50.102Z</time></trkpt><trkpt lat="45.6550473" lon="11.0024411"><ele>1240.0</ele><time>2026-04-25T10:38:51.104Z</time></trkpt><trkpt lat="45.6550852" lon="11.0025713"><ele>1239.0</ele><time>2026-04-25T10:38:52.102Z</time></trkpt><trkpt lat="45.6551241" lon="11.0027033"><ele>1236.6000000000001</ele><time>2026-04-25T10:38:53.103Z</time></trkpt><trkpt lat="45.6551635" lon="11.0028382"><ele>1234.2</ele><time>2026-04-25T10:38:54.102Z</time></trkpt><trkpt lat="45.6552029" lon="11.002975"><ele>1231.8000000000002</ele><time>2026-04-25T10:38:55.103Z</time></trkpt><trkpt lat="45.6552425" lon="11.0031152"><ele>1229.4</ele><time>2026-04-25T10:38:56.104Z</time></trkpt><trkpt lat="45.6552808" lon="11.0032528"><ele>1227.0</ele><time>2026-04-25T10:38:57.102Z</time></trkpt><trkpt lat="45.6553201" lon="11.0033876"><ele>1232.8</ele><time>2026-04-25T10:38:58.102Z</time></trkpt><trkpt lat="45.6553549" lon="11.0035259"><ele>1238.6</ele><time>2026-04-25T10:38:59.103Z</time></trkpt><trkpt lat="45.6553793" lon="11.0036683"><ele>1244.3999999999999</ele><time>2026-04-25T10:39:00.103Z</time></trkpt><trkpt lat="45.6553941" lon="11.0038139"><ele>1250.2</ele><time>2026-04-25T10:39:01.104Z</time></trkpt><trkpt lat="45.6553974" lon="11.0039579"><ele>1256.0</ele><time>2026-04-25T10:39:02.102Z</time></trkpt><trkpt lat="45.6553878" lon="11.0040967"><ele>1255.6</ele><time>2026-04-25T10:39:03.102Z</time></trkpt><trkpt lat="45.6553719" lon="11.0042298"><ele>1255.1999999999998</ele><time>2026-04-25T10:39:04.104Z</time></trkpt><trkpt lat="45.6553573" lon="11.0043661"><ele>1254.8000000000002</ele><time>2026-04-25T10:39:05.102Z</time></trkpt><trkpt lat="45.6553391" lon="11.0045005"><ele>1254.4</ele><time>2026-04-25T10:39:06.102Z</time></trkpt><trkpt lat="45.6553214" lon="11.0046193"><ele>1254.0</ele><time>2026-04-25T10:39:07.103Z</time></trkpt><trkpt lat="45.655305" lon="11.0047287"><ele>1254.0</ele><time>2026-04-25T10:39:08.102Z</time></trkpt><trkpt lat="45.6552951" lon="11.0048396"><ele>1254.0</ele><time>2026-04-25T10:39:09.102Z</time></trkpt><trkpt lat="45.6552987" lon="11.0049556"><ele>1254.0</ele><time>2026-04-25T10:39:10.103Z</time></trkpt><trkpt lat="45.6553192" lon="11.0050774"><ele>1254.0</ele><time>2026-04-25T10:39:11.102Z</time></trkpt><trkpt lat="45.6553489" lon="11.0052036"><ele>1254.0</ele><time>2026-04-25T10:39:12.103Z</time></trkpt><trkpt lat="45.6553716" lon="11.0053321"><ele>1254.0</ele><time>2026-04-25T10:39:13.102Z</time></trkpt><trkpt lat="45.6553784" lon="11.0054453"><ele>1254.0</ele><time>2026-04-25T10:39:14.103Z</time></trkpt><trkpt lat="45.6553791" lon="11.0055356"><ele>1254.0</ele><time>2026-04-25T10:39:15.102Z</time></trkpt><trkpt lat="45.6553666" lon="11.0056597"><ele>1254.0</ele><time>2026-04-25T10:39:17.103Z</time></trkpt><trkpt lat="45.6553546" lon="11.0057672"><ele>1254.0</ele><time>2026-04-25T10:39:19.103Z</time></trkpt><trkpt lat="45.6553343" lon="11.0059141"><ele>1254.0</ele><time>2026-04-25T10:39:21.103Z</time></trkpt><trkpt lat="45.6553181" lon="11.006018"><ele>1254.0</ele><time>2026-04-25T10:39:22.102Z</time></trkpt><trkpt lat="45.6552972" lon="11.0061202"><ele>1250.8333333333333</ele><time>2026-04-25T10:39:23.102Z</time></trkpt><trkpt lat="45.6552778" lon="11.0062271"><ele>1247.6666666666667</ele><time>2026-04-25T10:39:24.103Z</time></trkpt><trkpt lat="45.6552622" lon="11.0063267"><ele>1244.5</ele><time>2026-04-25T10:39:25.103Z</time></trkpt><trkpt lat="45.6552566" lon="11.0064361"><ele>1241.3333333333335</ele><time>2026-04-25T10:39:26.102Z</time></trkpt><trkpt lat="45.6552534" lon="11.0065468"><ele>1238.1666666666667</ele><time>2026-04-25T10:39:27.103Z</time></trkpt><trkpt lat="45.6552583" lon="11.0066561"><ele>1235.0</ele><time>2026-04-25T10:39:28.103Z</time></trkpt><trkpt lat="45.6552644" lon="11.0067707"><ele>1235.0</ele><time>2026-04-25T10:39:29.104Z</time></trkpt><trkpt lat="45.6552774" lon="11.0068714"><ele>1235.0</ele><time>2026-04-25T10:39:30.102Z</time></trkpt><trkpt lat="45.6552891" lon="11.006965"><ele>1235.0</ele><time>2026-04-25T10:39:31.104Z</time></trkpt><trkpt lat="45.655299" lon="11.0070559"><ele>1235.0</ele><time>2026-04-25T10:39:32.103Z</time></trkpt><trkpt lat="45.6553195" lon="11.0072162"><ele>1235.0</ele><time>2026-04-25T10:39:34.102Z</time></trkpt><trkpt lat="45.6553923" lon="11.0073585"><ele>1235.0</ele><time>2026-04-25T10:39:36.102Z</time></trkpt><trkpt lat="45.6554499" lon="11.0073989"><ele>1237.0</ele><time>2026-04-25T10:39:37.104Z</time></trkpt><trkpt lat="45.6555196" lon="11.007403"><ele>1239.0</ele><time>2026-04-25T10:39:38.103Z</time></trkpt><trkpt lat="45.6555953" lon="11.0073762"><ele>1241.0</ele><time>2026-04-25T10:39:39.102Z</time></trkpt><trkpt lat="45.6556737" lon="11.0073329"><ele>1243.0</ele><time>2026-04-25T10:39:40.102Z</time></trkpt><trkpt lat="45.6557508" lon="11.0072798"><ele>1245.0</ele><time>2026-04-25T10:39:41.104Z</time></trkpt><trkpt lat="45.6558251" lon="11.0072284"><ele>1247.0</ele><time>2026-04-25T10:39:42.102Z</time></trkpt><trkpt lat="45.6558925" lon="11.0071775"><ele>1247.0</ele><time>2026-04-25T10:39:43.102Z</time></trkpt><trkpt lat="45.6559549" lon="11.0071214"><ele>1247.0</ele><time>2026-04-25T10:39:44.103Z</time></trkpt><trkpt lat="45.6560128" lon="11.0070647"><ele>1247.0</ele><time>2026-04-25T10:39:45.104Z</time></trkpt><trkpt lat="45.6560814" lon="11.0069306"><ele>1247.0</ele><time>2026-04-25T10:39:47.102Z</time></trkpt><trkpt lat="45.6561131" lon="11.0067883"><ele>1247.0</ele><time>2026-04-25T10:39:49.104Z</time></trkpt><trkpt lat="45.6561172" lon="11.0066044"><ele>1247.8</ele><time>2026-04-25T10:39:51.103Z</time></trkpt><trkpt lat="45.6561026" lon="11.0064904"><ele>1248.6</ele><time>2026-04-25T10:39:52.102Z</time></trkpt><trkpt lat="45.6560922" lon="11.0063663"><ele>1249.3999999999999</ele><time>2026-04-25T10:39:53.103Z</time></trkpt><trkpt lat="45.6560919" lon="11.0062358"><ele>1250.2</ele><time>2026-04-25T10:39:54.102Z</time></trkpt><trkpt lat="45.656106" lon="11.0060947"><ele>1251.0</ele><time>2026-04-25T10:39:55.102Z</time></trkpt><trkpt lat="45.6561404" lon="11.005949"><ele>1251.75</ele><time>2026-04-25T10:39:56.103Z</time></trkpt><trkpt lat="45.6561963" lon="11.0058024"><ele>1252.5</ele><time>2026-04-25T10:39:57.102Z</time></trkpt><trkpt lat="45.65627" lon="11.0056452"><ele>1253.25</ele><time>2026-04-25T10:39:58.102Z</time></trkpt><trkpt lat="45.6563508" lon="11.0054816"><ele>1254.0</ele><time>2026-04-25T10:39:59.103Z</time></trkpt><trkpt lat="45.6564335" lon="11.0053163"><ele>1254.0</ele><time>2026-04-25T10:40:00.103Z</time></trkpt><trkpt lat="45.6565145" lon="11.0051631"><ele>1254.0</ele><time>2026-04-25T10:40:01.103Z</time></trkpt><trkpt lat="45.656584" lon="11.0050169"><ele>1254.0</ele><time>2026-04-25T10:40:02.103Z</time></trkpt><trkpt lat="45.6566551" lon="11.0048827"><ele>1254.0</ele><time>2026-04-25T10:40:03.102Z</time></trkpt><trkpt lat="45.6567184" lon="11.004762"><ele>1256.2</ele><time>2026-04-25T10:40:04.102Z</time></trkpt><trkpt lat="45.6567816" lon="11.0046419"><ele>1258.4</ele><time>2026-04-25T10:40:05.102Z</time></trkpt><trkpt lat="45.6568506" lon="11.0045247"><ele>1260.6</ele><time>2026-04-25T10:40:06.103Z</time></trkpt><trkpt lat="45.6569272" lon="11.0044103"><ele>1262.8</ele><time>2026-04-25T10:40:07.102Z</time></trkpt><trkpt lat="45.657009" lon="11.0043054"><ele>1265.0</ele><time>2026-04-25T10:40:08.102Z</time></trkpt><trkpt lat="45.6571004" lon="11.0042032"><ele>1268.4</ele><time>2026-04-25T10:40:09.103Z</time></trkpt><trkpt lat="45.6572001" lon="11.0041005"><ele>1271.8</ele><time>2026-04-25T10:40:10.102Z</time></trkpt><trkpt lat="45.6572812" lon="11.0040204"><ele>1275.1999999999998</ele><time>2026-04-25T10:40:11.102Z</time></trkpt><trkpt lat="45.6573675" lon="11.0039482"><ele>1278.6</ele><time>2026-04-25T10:40:12.103Z</time></trkpt><trkpt lat="45.6574676" lon="11.0038964"><ele>1282.0</ele><time>2026-04-25T10:40:13.103Z</time></trkpt><trkpt lat="45.6575713" lon="11.0038435"><ele>1282.0</ele><time>2026-04-25T10:40:14.103Z</time></trkpt><trkpt lat="45.6576827" lon="11.0038238"><ele>1282.0</ele><time>2026-04-25T10:40:15.102Z</time></trkpt><trkpt lat="45.6578108" lon="11.0038102"><ele>1282.0</ele><time>2026-04-25T10:40:16.102Z</time></trkpt><trkpt lat="45.6579339" lon="11.0038176"><ele>1282.0</ele><time>2026-04-25T10:40:17.102Z</time></trkpt><trkpt lat="45.6580652" lon="11.0038476"><ele>1282.5</ele><time>2026-04-25T10:40:18.102Z</time></trkpt><trkpt lat="45.6581972" lon="11.0039006"><ele>1283.0</ele><time>2026-04-25T10:40:19.103Z</time></trkpt><trkpt lat="45.6583324" lon="11.0039622"><ele>1283.5</ele><time>2026-04-25T10:40:20.103Z</time></trkpt><trkpt lat="45.6584696" lon="11.0040293"><ele>1284.0</ele><time>2026-04-25T10:40:21.103Z</time></trkpt><trkpt lat="45.6586143" lon="11.004094"><ele>1285.25</ele><time>2026-04-25T10:40:22.103Z</time></trkpt><trkpt lat="45.6587558" lon="11.004152"><ele>1286.5</ele><time>2026-04-25T10:40:23.103Z</time></trkpt><trkpt lat="45.6588943" lon="11.0042111"><ele>1287.75</ele><time>2026-04-25T10:40:24.102Z</time></trkpt><trkpt lat="45.6590241" lon="11.0042654"><ele>1289.0</ele><time>2026-04-25T10:40:25.102Z</time></trkpt><trkpt lat="45.6591336" lon="11.0043142"><ele>1289.0</ele><time>2026-04-25T10:40:26.102Z</time></trkpt><trkpt lat="45.6592272" lon="11.0043382"><ele>1289.0</ele><time>2026-04-25T10:40:27.102Z</time></trkpt><trkpt lat="45.6593044" lon="11.0043262"><ele>1289.0</ele><time>2026-04-25T10:40:28.102Z</time></trkpt><trkpt lat="45.6593628" lon="11.0042818"><ele>1289.0</ele><time>2026-04-25T10:40:29.103Z</time></trkpt><trkpt lat="45.6593996" lon="11.0041237"><ele>1289.0</ele><time>2026-04-25T10:40:31.102Z</time></trkpt><trkpt lat="45.6593676" lon="11.004041"><ele>1289.0</ele><time>2026-04-25T10:40:32.103Z</time></trkpt><trkpt lat="45.6593078" lon="11.003975"><ele>1289.0</ele><time>2026-04-25T10:40:33.102Z</time></trkpt><trkpt lat="45.6592277" lon="11.0039191"><ele>1289.0</ele><time>2026-04-25T10:40:34.104Z</time></trkpt><trkpt lat="45.659136" lon="11.0038596"><ele>1289.0</ele><time>2026-04-25T10:40:35.102Z</time></trkpt><trkpt lat="45.6590337" lon="11.0037893"><ele>1289.0</ele><time>2026-04-25T10:40:36.102Z</time></trkpt><trkpt lat="45.658921" lon="11.0037127"><ele>1289.0</ele><time>2026-04-25T10:40:37.102Z</time></trkpt><trkpt lat="45.6588021" lon="11.0036316"><ele>1289.0</ele><time>2026-04-25T10:40:38.103Z</time></trkpt><trkpt lat="45.6586747" lon="11.0035555"><ele>1289.0</ele><time>2026-04-25T10:40:39.103Z</time></trkpt><trkpt lat="45.6585439" lon="11.0034882"><ele>1289.0</ele><time>2026-04-25T10:40:40.102Z</time></trkpt><trkpt lat="45.6584082" lon="11.0034355"><ele>1289.0</ele><time>2026-04-25T10:40:41.103Z</time></trkpt><trkpt lat="45.6582724" lon="11.0033863"><ele>1287.75</ele><time>2026-04-25T10:40:42.103Z</time></trkpt><trkpt lat="45.6581359" lon="11.0033371"><ele>1286.5</ele><time>2026-04-25T10:40:43.102Z</time></trkpt><trkpt lat="45.6579982" lon="11.0032891"><ele>1285.25</ele><time>2026-04-25T10:40:44.102Z</time></trkpt><trkpt lat="45.6578581" lon="11.0032362"><ele>1284.0</ele><time>2026-04-25T10:40:45.102Z</time></trkpt><trkpt lat="45.6577159" lon="11.003169"><ele>1289.6666666666667</ele><time>2026-04-25T10:40:46.103Z</time></trkpt><trkpt lat="45.6575757" lon="11.0030889"><ele>1295.3333333333335</ele><time>2026-04-25T10:40:47.103Z</time></trkpt><trkpt lat="45.6574379" lon="11.0030003"><ele>1301.0</ele><time>2026-04-25T10:40:48.104Z</time></trkpt><trkpt lat="45.6573008" lon="11.0029107"><ele>1301.0</ele><time>2026-04-25T10:40:49.103Z</time></trkpt><trkpt lat="45.6571726" lon="11.0028247"><ele>1301.0</ele><time>2026-04-25T10:40:50.102Z</time></trkpt><trkpt lat="45.6570566" lon="11.002744"><ele>1301.0</ele><time>2026-04-25T10:40:51.102Z</time></trkpt><trkpt lat="45.6569516" lon="11.0026601"><ele>1301.0</ele><time>2026-04-25T10:40:52.102Z</time></trkpt><trkpt lat="45.6568625" lon="11.0025523"><ele>1301.0</ele><time>2026-04-25T10:40:53.102Z</time></trkpt><trkpt lat="45.656792" lon="11.0024135"><ele>1301.0</ele><time>2026-04-25T10:40:54.102Z</time></trkpt><trkpt lat="45.6567285" lon="11.002253"><ele>1301.0</ele><time>2026-04-25T10:40:55.103Z</time></trkpt><trkpt lat="45.6566642" lon="11.0020843"><ele>1301.0</ele><time>2026-04-25T10:40:56.103Z</time></trkpt><trkpt lat="45.6566073" lon="11.001922"><ele>1301.0</ele><time>2026-04-25T10:40:57.102Z</time></trkpt><trkpt lat="45.6565537" lon="11.001777"><ele>1301.0</ele><time>2026-04-25T10:40:58.103Z</time></trkpt><trkpt lat="45.6564989" lon="11.0016388"><ele>1301.0</ele><time>2026-04-25T10:40:59.102Z</time></trkpt><trkpt lat="45.6564472" lon="11.0015157"><ele>1301.0</ele><time>2026-04-25T10:41:00.102Z</time></trkpt><trkpt lat="45.6564127" lon="11.0013867"><ele>1301.0</ele><time>2026-04-25T10:41:01.102Z</time></trkpt><trkpt lat="45.6563957" lon="11.0012389"><ele>1301.75</ele><time>2026-04-25T10:41:02.102Z</time></trkpt><trkpt lat="45.6563985" lon="11.001071"><ele>1302.5</ele><time>2026-04-25T10:41:03.102Z</time></trkpt><trkpt lat="45.6564084" lon="11.0008977"><ele>1303.25</ele><time>2026-04-25T10:41:04.103Z</time></trkpt><trkpt lat="45.65641" lon="11.0007337"><ele>1304.0</ele><time>2026-04-25T10:41:05.102Z</time></trkpt><trkpt lat="45.6564117" lon="11.0005827"><ele>1302.8000000000002</ele><time>2026-04-25T10:41:06.103Z</time></trkpt><trkpt lat="45.6564352" lon="11.0004433"><ele>1301.6000000000001</ele><time>2026-04-25T10:41:07.103Z</time></trkpt><trkpt lat="45.6564851" lon="11.0003235"><ele>1300.4</ele><time>2026-04-25T10:41:08.103Z</time></trkpt><trkpt lat="45.6565565" lon="11.0002396"><ele>1299.2</ele><time>2026-04-25T10:41:09.104Z</time></trkpt><trkpt lat="45.6566377" lon="11.0002071"><ele>1298.0</ele><time>2026-04-25T10:41:10.103Z</time></trkpt><trkpt lat="45.6567339" lon="11.0002184"><ele>1298.0</ele><time>2026-04-25T10:41:11.102Z</time></trkpt><trkpt lat="45.6568318" lon="11.0002694"><ele>1298.0</ele><time>2026-04-25T10:41:12.104Z</time></trkpt><trkpt lat="45.656938" lon="11.0003462"><ele>1298.0</ele><time>2026-04-25T10:41:13.102Z</time></trkpt><trkpt lat="45.6570493" lon="11.0004225"><ele>1298.0</ele><time>2026-04-25T10:41:14.103Z</time></trkpt><trkpt lat="45.6571632" lon="11.0005019"><ele>1298.25</ele><time>2026-04-25T10:41:15.103Z</time></trkpt><trkpt lat="45.6572812" lon="11.0005829"><ele>1298.5</ele><time>2026-04-25T10:41:16.103Z</time></trkpt><trkpt lat="45.6574053" lon="11.0006693"><ele>1298.75</ele><time>2026-04-25T10:41:17.102Z</time></trkpt><trkpt lat="45.6575305" lon="11.0007565"><ele>1299.0</ele><time>2026-04-25T10:41:18.102Z</time></trkpt><trkpt lat="45.6576568" lon="11.0008464"><ele>1302.0</ele><time>2026-04-25T10:41:19.104Z</time></trkpt><trkpt lat="45.6577857" lon="11.0009391"><ele>1305.0</ele><time>2026-04-25T10:41:20.102Z</time></trkpt><trkpt lat="45.6579142" lon="11.0010337"><ele>1308.0</ele><time>2026-04-25T10:41:21.103Z</time></trkpt><trkpt lat="45.6580436" lon="11.0011245"><ele>1311.0</ele><time>2026-04-25T10:41:22.102Z</time></trkpt><trkpt lat="45.6581684" lon="11.0012119"><ele>1311.0</ele><time>2026-04-25T10:41:23.103Z</time></trkpt><trkpt lat="45.6582933" lon="11.001296"><ele>1311.0</ele><time>2026-04-25T10:41:24.103Z</time></trkpt><trkpt lat="45.6584153" lon="11.0013759"><ele>1311.0</ele><time>2026-04-25T10:41:25.103Z</time></trkpt><trkpt lat="45.6585396" lon="11.0014522"><ele>1311.0</ele><time>2026-04-25T10:41:26.103Z</time></trkpt><trkpt lat="45.6586631" lon="11.0015178"><ele>1312.0</ele><time>2026-04-25T10:41:27.102Z</time></trkpt><trkpt lat="45.6587938" lon="11.0015557"><ele>1313.0</ele><time>2026-04-25T10:41:28.103Z</time></trkpt><trkpt lat="45.6589204" lon="11.0015638"><ele>1314.0</ele><time>2026-04-25T10:41:29.102Z</time></trkpt><trkpt lat="45.6590423" lon="11.0015338"><ele>1315.0</ele><time>2026-04-25T10:41:30.102Z</time></trkpt><trkpt lat="45.6591622" lon="11.0014773"><ele>1315.0</ele><time>2026-04-25T10:41:31.103Z</time></trkpt><trkpt lat="45.6592845" lon="11.0014132"><ele>1315.0</ele><time>2026-04-25T10:41:32.102Z</time></trkpt><trkpt lat="45.659409" lon="11.0013457"><ele>1315.0</ele><time>2026-04-25T10:41:33.102Z</time></trkpt><trkpt lat="45.6595385" lon="11.0012719"><ele>1315.0</ele><time>2026-04-25T10:41:34.102Z</time></trkpt><trkpt lat="45.6596695" lon="11.0012009"><ele>1318.3333333333333</ele><time>2026-04-25T10:41:35.102Z</time></trkpt><trkpt lat="45.659803" lon="11.0011253"><ele>1321.6666666666667</ele><time>2026-04-25T10:41:36.102Z</time></trkpt><trkpt lat="45.6599463" lon="11.0010433"><ele>1325.0</ele><time>2026-04-25T10:41:37.102Z</time></trkpt><trkpt lat="45.6600941" lon="11.0009526"><ele>1325.0</ele><time>2026-04-25T10:41:38.103Z</time></trkpt><trkpt lat="45.6602466" lon="11.0008642"><ele>1325.0</ele><time>2026-04-25T10:41:39.102Z</time></trkpt><trkpt lat="45.6604029" lon="11.000793"><ele>1325.0</ele><time>2026-04-25T10:41:40.102Z</time></trkpt><trkpt lat="45.6605616" lon="11.0007451"><ele>1328.0</ele><time>2026-04-25T10:41:41.102Z</time></trkpt><trkpt lat="45.660722" lon="11.0007254"><ele>1331.0</ele><time>2026-04-25T10:41:42.103Z</time></trkpt><trkpt lat="45.6608799" lon="11.0007196"><ele>1334.0</ele><time>2026-04-25T10:41:43.103Z</time></trkpt><trkpt lat="45.6610376" lon="11.0007149"><ele>1336.75</ele><time>2026-04-25T10:41:44.102Z</time></trkpt><trkpt lat="45.6611923" lon="11.0007064"><ele>1339.5</ele><time>2026-04-25T10:41:45.102Z</time></trkpt><trkpt lat="45.6613346" lon="11.0007216"><ele>1342.25</ele><time>2026-04-25T10:41:46.103Z</time></trkpt><trkpt lat="45.6614779" lon="11.0007613"><ele>1345.0</ele><time>2026-04-25T10:41:47.102Z</time></trkpt><trkpt lat="45.6616162" lon="11.0008152"><ele>1344.25</ele><time>2026-04-25T10:41:48.103Z</time></trkpt><trkpt lat="45.6617499" lon="11.0008717"><ele>1343.5</ele><time>2026-04-25T10:41:49.103Z</time></trkpt><trkpt lat="45.6618807" lon="11.0009316"><ele>1342.75</ele><time>2026-04-25T10:41:50.103Z</time></trkpt><trkpt lat="45.6620014" lon="11.0009847"><ele>1342.0</ele><time>2026-04-25T10:41:51.103Z</time></trkpt><trkpt lat="45.6621054" lon="11.0010185"><ele>1342.0</ele><time>2026-04-25T10:41:52.102Z</time></trkpt><trkpt lat="45.6622026" lon="11.0010286"><ele>1342.0</ele><time>2026-04-25T10:41:53.102Z</time></trkpt><trkpt lat="45.6622902" lon="11.0009997"><ele>1342.0</ele><time>2026-04-25T10:41:54.103Z</time></trkpt><trkpt lat="45.6623597" lon="11.0009277"><ele>1342.0</ele><time>2026-04-25T10:41:55.102Z</time></trkpt><trkpt lat="45.6624054" lon="11.0008221"><ele>1342.0</ele><time>2026-04-25T10:41:56.103Z</time></trkpt><trkpt lat="45.6624426" lon="11.0006911"><ele>1344.6</ele><time>2026-04-25T10:41:57.103Z</time></trkpt><trkpt lat="45.6624686" lon="11.0005553"><ele>1347.1999999999998</ele><time>2026-04-25T10:41:58.102Z</time></trkpt><trkpt lat="45.6624918" lon="11.0004214"><ele>1349.8</ele><time>2026-04-25T10:41:59.103Z</time></trkpt><trkpt lat="45.6625372" lon="11.0003106"><ele>1352.4</ele><time>2026-04-25T10:42:00.102Z</time></trkpt><trkpt lat="45.6626033" lon="11.0002269"><ele>1355.0</ele><time>2026-04-25T10:42:01.102Z</time></trkpt><trkpt lat="45.6626842" lon="11.0001869"><ele>1355.0</ele><time>2026-04-25T10:42:02.102Z</time></trkpt><trkpt lat="45.6627703" lon="11.0001953"><ele>1355.0</ele><time>2026-04-25T10:42:03.103Z</time></trkpt><trkpt lat="45.6628544" lon="11.0002472"><ele>1355.0</ele><time>2026-04-25T10:42:04.103Z</time></trkpt><trkpt lat="45.6629351" lon="11.0003254"><ele>1355.0</ele><time>2026-04-25T10:42:05.104Z</time></trkpt><trkpt lat="45.6630177" lon="11.0004116"><ele>1355.0</ele><time>2026-04-25T10:42:06.103Z</time></trkpt><trkpt lat="45.6631057" lon="11.0004941"><ele>1356.6</ele><time>2026-04-25T10:42:07.102Z</time></trkpt><trkpt lat="45.6631893" lon="11.0005645"><ele>1358.2</ele><time>2026-04-25T10:42:08.103Z</time></trkpt><trkpt lat="45.6632753" lon="11.0006116"><ele>1359.8000000000002</ele><time>2026-04-25T10:42:09.102Z</time></trkpt><trkpt lat="45.6633727" lon="11.0006211"><ele>1361.4</ele><time>2026-04-25T10:42:10.102Z</time></trkpt><trkpt lat="45.6634776" lon="11.0006014"><ele>1363.0</ele><time>2026-04-25T10:42:11.102Z</time></trkpt><trkpt lat="45.6635909" lon="11.0005667"><ele>1362.5</ele><time>2026-04-25T10:42:12.103Z</time></trkpt><trkpt lat="45.6637107" lon="11.0005294"><ele>1362.0</ele><time>2026-04-25T10:42:13.102Z</time></trkpt><trkpt lat="45.6638293" lon="11.000482"><ele>1361.5</ele><time>2026-04-25T10:42:14.103Z</time></trkpt><trkpt lat="45.6639448" lon="11.000418"><ele>1361.0</ele><time>2026-04-25T10:42:15.102Z</time></trkpt><trkpt lat="45.6640587" lon="11.0003341"><ele>1361.0</ele><time>2026-04-25T10:42:16.104Z</time></trkpt><trkpt lat="45.6641652" lon="11.0002276"><ele>1361.0</ele><time>2026-04-25T10:42:17.102Z</time></trkpt><trkpt lat="45.6642651" lon="11.0001011"><ele>1361.0</ele><time>2026-04-25T10:42:18.102Z</time></trkpt><trkpt lat="45.6643653" lon="10.9999716"><ele>1361.0</ele><time>2026-04-25T10:42:19.104Z</time></trkpt><trkpt lat="45.6644618" lon="10.9998382"><ele>1358.75</ele><time>2026-04-25T10:42:20.102Z</time></trkpt><trkpt lat="45.6645531" lon="10.9997011"><ele>1356.5</ele><time>2026-04-25T10:42:21.103Z</time></trkpt><trkpt lat="45.6646411" lon="10.9995684"><ele>1354.25</ele><time>2026-04-25T10:42:22.102Z</time></trkpt><trkpt lat="45.6647332" lon="10.9994617"><ele>1352.0</ele><time>2026-04-25T10:42:23.102Z</time></trkpt><trkpt lat="45.6648384" lon="10.9993854"><ele>1352.0</ele><time>2026-04-25T10:42:24.103Z</time></trkpt><trkpt lat="45.6649545" lon="10.9993361"><ele>1352.0</ele><time>2026-04-25T10:42:25.103Z</time></trkpt><trkpt lat="45.6650779" lon="10.9992936"><ele>1352.0</ele><time>2026-04-25T10:42:26.102Z</time></trkpt><trkpt lat="45.6652093" lon="10.9992633"><ele>1352.0</ele><time>2026-04-25T10:42:27.102Z</time></trkpt><trkpt lat="45.6653442" lon="10.9992331"><ele>1356.25</ele><time>2026-04-25T10:42:28.102Z</time></trkpt><trkpt lat="45.6654736" lon="10.9991965"><ele>1360.5</ele><time>2026-04-25T10:42:29.102Z</time></trkpt><trkpt lat="45.6655885" lon="10.9991581"><ele>1364.75</ele><time>2026-04-25T10:42:30.102Z</time></trkpt><trkpt lat="45.6656957" lon="10.9991497"><ele>1369.0</ele><time>2026-04-25T10:42:31.103Z</time></trkpt><trkpt lat="45.6657969" lon="10.9991846"><ele>1369.0</ele><time>2026-04-25T10:42:32.102Z</time></trkpt><trkpt lat="45.6658873" lon="10.9992526"><ele>1369.0</ele><time>2026-04-25T10:42:33.102Z</time></trkpt><trkpt lat="45.6659606" lon="10.9993577"><ele>1369.0</ele><time>2026-04-25T10:42:34.103Z</time></trkpt><trkpt lat="45.6660057" lon="10.999494"><ele>1369.0</ele><time>2026-04-25T10:42:35.103Z</time></trkpt><trkpt lat="45.6660219" lon="10.9996426"><ele>1369.0</ele><time>2026-04-25T10:42:36.102Z</time></trkpt><trkpt lat="45.6660269" lon="10.9997956"><ele>1369.0</ele><time>2026-04-25T10:42:37.103Z</time></trkpt><trkpt lat="45.6660455" lon="10.9999244"><ele>1369.0</ele><time>2026-04-25T10:42:38.102Z</time></trkpt><trkpt lat="45.6660836" lon="11.0000293"><ele>1369.0</ele><time>2026-04-25T10:42:39.102Z</time></trkpt><trkpt lat="45.6661425" lon="11.0001097"><ele>1369.0</ele><time>2026-04-25T10:42:40.103Z</time></trkpt><trkpt lat="45.6662246" lon="11.0001508"><ele>1369.0</ele><time>2026-04-25T10:42:41.103Z</time></trkpt><trkpt lat="45.6663197" lon="11.0001514"><ele>1369.0</ele><time>2026-04-25T10:42:42.102Z</time></trkpt><trkpt lat="45.6664224" lon="11.0001365"><ele>1371.6</ele><time>2026-04-25T10:42:43.103Z</time></trkpt><trkpt lat="45.6665298" lon="11.0001121"><ele>1374.2</ele><time>2026-04-25T10:42:44.102Z</time></trkpt><trkpt lat="45.6666337" lon="11.0000655"><ele>1376.8</ele><time>2026-04-25T10:42:45.102Z</time></trkpt><trkpt lat="45.6667312" lon="10.9999969"><ele>1379.3999999999999</ele><time>2026-04-25T10:42:46.102Z</time></trkpt><trkpt lat="45.6668223" lon="10.9999054"><ele>1382.0</ele><time>2026-04-25T10:42:47.103Z</time></trkpt><trkpt lat="45.6669084" lon="10.999795"><ele>1381.25</ele><time>2026-04-25T10:42:48.102Z</time></trkpt><trkpt lat="45.6669893" lon="10.9996777"><ele>1380.5</ele><time>2026-04-25T10:42:49.103Z</time></trkpt><trkpt lat="45.6670839" lon="10.9995847"><ele>1379.75</ele><time>2026-04-25T10:42:50.103Z</time></trkpt><trkpt lat="45.6671912" lon="10.9995148"><ele>1379.0</ele><time>2026-04-25T10:42:51.103Z</time></trkpt><trkpt lat="45.6673043" lon="10.9994533"><ele>1379.0</ele><time>2026-04-25T10:42:52.103Z</time></trkpt><trkpt lat="45.6674154" lon="10.9994123"><ele>1379.0</ele><time>2026-04-25T10:42:53.102Z</time></trkpt><trkpt lat="45.6675268" lon="10.9994113"><ele>1379.0</ele><time>2026-04-25T10:42:54.102Z</time></trkpt><trkpt lat="45.6676347" lon="10.9994487"><ele>1379.0</ele><time>2026-04-25T10:42:55.104Z</time></trkpt><trkpt lat="45.6677248" lon="10.9995037"><ele>1379.0</ele><time>2026-04-25T10:42:56.102Z</time></trkpt><trkpt lat="45.667818" lon="10.9995663"><ele>1381.8000000000002</ele><time>2026-04-25T10:42:57.102Z</time></trkpt><trkpt lat="45.6679154" lon="10.9996392"><ele>1384.6000000000001</ele><time>2026-04-25T10:42:58.102Z</time></trkpt><trkpt lat="45.668008" lon="10.9997203"><ele>1387.4</ele><time>2026-04-25T10:42:59.102Z</time></trkpt><trkpt lat="45.6681011" lon="10.9998158"><ele>1390.2</ele><time>2026-04-25T10:43:00.102Z</time></trkpt><trkpt lat="45.6681969" lon="10.9999063"><ele>1393.0</ele><time>2026-04-25T10:43:01.104Z</time></trkpt><trkpt lat="45.6682993" lon="10.9999759"><ele>1393.0</ele><time>2026-04-25T10:43:02.103Z</time></trkpt><trkpt lat="45.6684174" lon="11.0000241"><ele>1393.0</ele><time>2026-04-25T10:43:03.102Z</time></trkpt><trkpt lat="45.6685492" lon="11.0000655"><ele>1393.0</ele><time>2026-04-25T10:43:04.103Z</time></trkpt><trkpt lat="45.6686885" lon="11.0000913"><ele>1393.0</ele><time>2026-04-25T10:43:05.102Z</time></trkpt><trkpt lat="45.6688284" lon="11.0001031"><ele>1395.25</ele><time>2026-04-25T10:43:06.103Z</time></trkpt><trkpt lat="45.6689597" lon="11.0001004"><ele>1397.5</ele><time>2026-04-25T10:43:07.104Z</time></trkpt><trkpt lat="45.669088" lon="11.0000852"><ele>1399.75</ele><time>2026-04-25T10:43:08.103Z</time></trkpt><trkpt lat="45.6692154" lon="11.0000557"><ele>1402.0</ele><time>2026-04-25T10:43:09.104Z</time></trkpt><trkpt lat="45.6693366" lon="11.0000065"><ele>1403.6</ele><time>2026-04-25T10:43:10.102Z</time></trkpt><trkpt lat="45.6694463" lon="10.9999528"><ele>1405.1999999999998</ele><time>2026-04-25T10:43:11.102Z</time></trkpt><trkpt lat="45.6695451" lon="10.9998987"><ele>1406.8</ele><time>2026-04-25T10:43:12.102Z</time></trkpt><trkpt lat="45.6696339" lon="10.9998599"><ele>1408.4</ele><time>2026-04-25T10:43:13.102Z</time></trkpt><trkpt lat="45.6697162" lon="10.9998548"><ele>1410.0</ele><time>2026-04-25T10:43:14.102Z</time></trkpt><trkpt lat="45.6697869" lon="10.9998873"><ele>1410.0</ele><time>2026-04-25T10:43:15.103Z</time></trkpt><trkpt lat="45.6698524" lon="10.999959"><ele>1410.0</ele><time>2026-04-25T10:43:16.103Z</time></trkpt><trkpt lat="45.669906" lon="11.0000565"><ele>1410.0</ele><time>2026-04-25T10:43:17.103Z</time></trkpt><trkpt lat="45.6699544" lon="11.0001663"><ele>1410.0</ele><time>2026-04-25T10:43:18.103Z</time></trkpt><trkpt lat="45.6700017" lon="11.0002802"><ele>1410.0</ele><time>2026-04-25T10:43:19.102Z</time></trkpt><trkpt lat="45.6700627" lon="11.0003816"><ele>1410.0</ele><time>2026-04-25T10:43:20.103Z</time></trkpt><trkpt lat="45.6701389" lon="11.0004554"><ele>1410.0</ele><time>2026-04-25T10:43:21.103Z</time></trkpt><trkpt lat="45.6702251" lon="11.0005014"><ele>1410.0</ele><time>2026-04-25T10:43:22.102Z</time></trkpt><trkpt lat="45.670326" lon="11.0005193"><ele>1410.0</ele><time>2026-04-25T10:43:23.102Z</time></trkpt><trkpt lat="45.6704373" lon="11.0005266"><ele>1410.0</ele><time>2026-04-25T10:43:24.104Z</time></trkpt><trkpt lat="45.6705565" lon="11.0005259"><ele>1410.0</ele><time>2026-04-25T10:43:25.102Z</time></trkpt><trkpt lat="45.6706791" lon="11.0005239"><ele>1409.4</ele><time>2026-04-25T10:43:26.102Z</time></trkpt><trkpt lat="45.670798" lon="11.0005329"><ele>1408.8</ele><time>2026-04-25T10:43:27.103Z</time></trkpt><trkpt lat="45.6709039" lon="11.000565"><ele>1408.1999999999998</ele><time>2026-04-25T10:43:28.102Z</time></trkpt><trkpt lat="45.6709916" lon="11.0006116"><ele>1407.6</ele><time>2026-04-25T10:43:29.103Z</time></trkpt><trkpt lat="45.6710631" lon="11.0006601"><ele>1407.0</ele><time>2026-04-25T10:43:30.102Z</time></trkpt><trkpt lat="45.6711226" lon="11.0007035"><ele>1407.0</ele><time>2026-04-25T10:43:31.102Z</time></trkpt><trkpt lat="45.671222" lon="11.0007715"><ele>1407.0</ele><time>2026-04-25T10:43:33.102Z</time></trkpt><trkpt lat="45.6713328" lon="11.0008408"><ele>1407.0</ele><time>2026-04-25T10:43:35.103Z</time></trkpt><trkpt lat="45.6714031" lon="11.0008766"><ele>1407.0</ele><time>2026-04-25T10:43:36.102Z</time></trkpt><trkpt lat="45.6714843" lon="11.0009083"><ele>1407.0</ele><time>2026-04-25T10:43:37.103Z</time></trkpt><trkpt lat="45.6715741" lon="11.0009332"><ele>1405.6</ele><time>2026-04-25T10:43:38.103Z</time></trkpt><trkpt lat="45.6716708" lon="11.0009408"><ele>1404.1999999999998</ele><time>2026-04-25T10:43:39.102Z</time></trkpt><trkpt lat="45.6717715" lon="11.0009265"><ele>1402.8</ele><time>2026-04-25T10:43:40.102Z</time></trkpt><trkpt lat="45.6718699" lon="11.0009002"><ele>1401.4</ele><time>2026-04-25T10:43:41.102Z</time></trkpt><trkpt lat="45.6719656" lon="11.0008601"><ele>1400.0</ele><time>2026-04-25T10:43:42.103Z</time></trkpt><trkpt lat="45.6720568" lon="11.0008062"><ele>1400.0</ele><time>2026-04-25T10:43:43.102Z</time></trkpt><trkpt lat="45.6721418" lon="11.0007449"><ele>1400.0</ele><time>2026-04-25T10:43:44.103Z</time></trkpt><trkpt lat="45.6722275" lon="11.0006884"><ele>1400.0</ele><time>2026-04-25T10:43:45.103Z</time></trkpt><trkpt lat="45.6723192" lon="11.0006437"><ele>1400.0</ele><time>2026-04-25T10:43:46.103Z</time></trkpt><trkpt lat="45.6724108" lon="11.0006217"><ele>1400.0</ele><time>2026-04-25T10:43:47.102Z</time></trkpt><trkpt lat="45.6724945" lon="11.000622"><ele>1400.0</ele><time>2026-04-25T10:43:48.102Z</time></trkpt><trkpt lat="45.6725663" lon="11.0006527"><ele>1400.0</ele><time>2026-04-25T10:43:49.102Z</time></trkpt><trkpt lat="45.6726134" lon="11.0007156"><ele>1400.0</ele><time>2026-04-25T10:43:50.102Z</time></trkpt><trkpt lat="45.6726448" lon="11.000805"><ele>1400.0</ele><time>2026-04-25T10:43:51.103Z</time></trkpt><trkpt lat="45.6726671" lon="11.0009107"><ele>1400.0</ele><time>2026-04-25T10:43:52.102Z</time></trkpt><trkpt lat="45.6726932" lon="11.0010285"><ele>1400.0</ele><time>2026-04-25T10:43:53.102Z</time></trkpt><trkpt lat="45.6727206" lon="11.0011494"><ele>1402.2</ele><time>2026-04-25T10:43:54.102Z</time></trkpt><trkpt lat="45.6727529" lon="11.0012728"><ele>1404.4</ele><time>2026-04-25T10:43:55.102Z</time></trkpt><trkpt lat="45.6728002" lon="11.0013884"><ele>1406.6</ele><time>2026-04-25T10:43:56.103Z</time></trkpt><trkpt lat="45.6728648" lon="11.0014832"><ele>1408.8</ele><time>2026-04-25T10:43:57.103Z</time></trkpt><trkpt lat="45.6729392" lon="11.0015557"><ele>1411.0</ele><time>2026-04-25T10:43:58.102Z</time></trkpt><trkpt lat="45.6730174" lon="11.0016176"><ele>1413.6</ele><time>2026-04-25T10:43:59.102Z</time></trkpt><trkpt lat="45.6730922" lon="11.0016713"><ele>1416.1999999999998</ele><time>2026-04-25T10:44:00.102Z</time></trkpt><trkpt lat="45.6731561" lon="11.0017284"><ele>1418.8000000000002</ele><time>2026-04-25T10:44:01.102Z</time></trkpt><trkpt lat="45.6732101" lon="11.0018652"><ele>1421.4</ele><time>2026-04-25T10:44:03.103Z</time></trkpt><trkpt lat="45.6732015" lon="11.002049"><ele>1424.0</ele><time>2026-04-25T10:44:05.103Z</time></trkpt><trkpt lat="45.6731916" lon="11.0021565"><ele>1424.0</ele><time>2026-04-25T10:44:06.104Z</time></trkpt><trkpt lat="45.6731885" lon="11.0022713"><ele>1424.0</ele><time>2026-04-25T10:44:07.102Z</time></trkpt><trkpt lat="45.6731953" lon="11.0023893"><ele>1424.0</ele><time>2026-04-25T10:44:08.103Z</time></trkpt><trkpt lat="45.6732085" lon="11.0025008"><ele>1424.0</ele><time>2026-04-25T10:44:09.102Z</time></trkpt><trkpt lat="45.6732227" lon="11.0026117"><ele>1424.0</ele><time>2026-04-25T10:44:10.104Z</time></trkpt><trkpt lat="45.6732381" lon="11.0027206"><ele>1424.0</ele><time>2026-04-25T10:44:11.103Z</time></trkpt><trkpt lat="45.673262" lon="11.0028265"><ele>1424.8333333333335</ele><time>2026-04-25T10:44:12.103Z</time></trkpt><trkpt lat="45.6732949" lon="11.0029184"><ele>1425.6666666666667</ele><time>2026-04-25T10:44:13.103Z</time></trkpt><trkpt lat="45.6733402" lon="11.0029883"><ele>1426.5</ele><time>2026-04-25T10:44:14.102Z</time></trkpt><trkpt lat="45.6734081" lon="11.003028"><ele>1427.3333333333333</ele><time>2026-04-25T10:44:15.103Z</time></trkpt><trkpt lat="45.6734902" lon="11.0030276"><ele>1428.1666666666665</ele><time>2026-04-25T10:44:16.102Z</time></trkpt><trkpt lat="45.6735712" lon="11.002995"><ele>1429.0</ele><time>2026-04-25T10:44:17.103Z</time></trkpt><trkpt lat="45.6736489" lon="11.0029308"><ele>1431.2</ele><time>2026-04-25T10:44:18.102Z</time></trkpt><trkpt lat="45.6737271" lon="11.0028596"><ele>1433.4</ele><time>2026-04-25T10:44:19.104Z</time></trkpt><trkpt lat="45.6738097" lon="11.0027838"><ele>1435.6</ele><time>2026-04-25T10:44:20.102Z</time></trkpt><trkpt lat="45.6738992" lon="11.0027001"><ele>1437.8</ele><time>2026-04-25T10:44:21.103Z</time></trkpt><trkpt lat="45.6739951" lon="11.0026072"><ele>1440.0</ele><time>2026-04-25T10:44:22.102Z</time></trkpt><trkpt lat="45.6740864" lon="11.0025133"><ele>1438.2</ele><time>2026-04-25T10:44:23.102Z</time></trkpt><trkpt lat="45.6741748" lon="11.0024188"><ele>1436.4</ele><time>2026-04-25T10:44:24.102Z</time></trkpt><trkpt lat="45.6742558" lon="11.0023281"><ele>1434.6</ele><time>2026-04-25T10:44:25.103Z</time></trkpt><trkpt lat="45.6743191" lon="11.0022361"><ele>1432.8</ele><time>2026-04-25T10:44:26.104Z</time></trkpt><trkpt lat="45.6743652" lon="11.0021421"><ele>1431.0</ele><time>2026-04-25T10:44:27.102Z</time></trkpt><trkpt lat="45.6743976" lon="11.0020597"><ele>1433.0</ele><time>2026-04-25T10:44:28.102Z</time></trkpt><trkpt lat="45.6744745" lon="11.0019305"><ele>1435.0</ele><time>2026-04-25T10:44:30.104Z</time></trkpt><trkpt lat="45.6745979" lon="11.0018602"><ele>1437.0</ele><time>2026-04-25T10:44:32.103Z</time></trkpt><trkpt lat="45.6746635" lon="11.0018147"><ele>1439.0</ele><time>2026-04-25T10:44:33.103Z</time></trkpt><trkpt lat="45.6747149" lon="11.0017407"><ele>1441.0</ele><time>2026-04-25T10:44:34.102Z</time></trkpt><trkpt lat="45.674746" lon="11.0016544"><ele>1441.0</ele><time>2026-04-25T10:44:35.102Z</time></trkpt><trkpt lat="45.6747712" lon="11.0015655"><ele>1441.0</ele><time>2026-04-25T10:44:36.103Z</time></trkpt><trkpt lat="45.6748526" lon="11.0014417"><ele>1441.0</ele><time>2026-04-25T10:44:38.102Z</time></trkpt><trkpt lat="45.6749733" lon="11.0014158"><ele>1441.0</ele><time>2026-04-25T10:44:40.103Z</time></trkpt><trkpt lat="45.6750425" lon="11.0014108"><ele>1441.0</ele><time>2026-04-25T10:44:41.103Z</time></trkpt><trkpt lat="45.675107" lon="11.0013732"><ele>1441.0</ele><time>2026-04-25T10:44:42.102Z</time></trkpt><trkpt lat="45.6751589" lon="11.0013086"><ele>1441.0</ele><time>2026-04-25T10:44:43.103Z</time></trkpt><trkpt lat="45.6751941" lon="11.0012208"><ele>1441.0</ele><time>2026-04-25T10:44:44.102Z</time></trkpt><trkpt lat="45.6752091" lon="11.0011166"><ele>1441.0</ele><time>2026-04-25T10:44:45.102Z</time></trkpt><trkpt lat="45.6752073" lon="11.0010045"><ele>1441.0</ele><time>2026-04-25T10:44:46.102Z</time></trkpt><trkpt lat="45.6751991" lon="11.0008978"><ele>1441.0</ele><time>2026-04-25T10:44:47.103Z</time></trkpt><trkpt lat="45.6751994" lon="11.0008007"><ele>1441.0</ele><time>2026-04-25T10:44:48.103Z</time></trkpt><trkpt lat="45.675252" lon="11.0006449"><ele>1441.4</ele><time>2026-04-25T10:44:50.102Z</time></trkpt><trkpt lat="45.6753105" lon="11.0005023"><ele>1441.8</ele><time>2026-04-25T10:44:52.102Z</time></trkpt><trkpt lat="45.6752893" lon="11.0003398"><ele>1442.2</ele><time>2026-04-25T10:44:54.103Z</time></trkpt><trkpt lat="45.6752416" lon="11.0002672"><ele>1442.6000000000001</ele><time>2026-04-25T10:44:55.103Z</time></trkpt><trkpt lat="45.675178" lon="11.0002056"><ele>1443.0</ele><time>2026-04-25T10:44:56.102Z</time></trkpt><trkpt lat="45.6751115" lon="11.0001474"><ele>1443.0</ele><time>2026-04-25T10:44:57.103Z</time></trkpt><trkpt lat="45.6750438" lon="11.0000872"><ele>1443.0</ele><time>2026-04-25T10:44:58.103Z</time></trkpt><trkpt lat="45.6749824" lon="11.0000258"><ele>1443.0</ele><time>2026-04-25T10:44:59.102Z</time></trkpt><trkpt lat="45.6749068" lon="10.9998901"><ele>1443.0</ele><time>2026-04-25T10:45:01.102Z</time></trkpt><trkpt lat="45.674929" lon="10.9997556"><ele>1443.0</ele><time>2026-04-25T10:45:03.102Z</time></trkpt><trkpt lat="45.6750326" lon="10.999704"><ele>1443.0</ele><time>2026-04-25T10:45:05.102Z</time></trkpt><trkpt lat="45.6750983" lon="10.9996639"><ele>1443.0</ele><time>2026-04-25T10:45:06.104Z</time></trkpt><trkpt lat="45.6751655" lon="10.9996014"><ele>1443.0</ele><time>2026-04-25T10:45:07.102Z</time></trkpt><trkpt lat="45.6752252" lon="10.9995145"><ele>1443.0</ele><time>2026-04-25T10:45:08.103Z</time></trkpt><trkpt lat="45.6752703" lon="10.9994062"><ele>1443.0</ele><time>2026-04-25T10:45:09.102Z</time></trkpt><trkpt lat="45.6752919" lon="10.9992815"><ele>1443.0</ele><time>2026-04-25T10:45:10.102Z</time></trkpt><trkpt lat="45.6752945" lon="10.9991595"><ele>1444.2857142857142</ele><time>2026-04-25T10:45:11.102Z</time></trkpt><trkpt lat="45.675289" lon="10.9990445"><ele>1445.5714285714287</ele><time>2026-04-25T10:45:12.102Z</time></trkpt><trkpt lat="45.6752853" lon="10.9989346"><ele>1446.8571428571427</ele><time>2026-04-25T10:45:13.102Z</time></trkpt><trkpt lat="45.6752981" lon="10.9988363"><ele>1448.142857142857</ele><time>2026-04-25T10:45:14.102Z</time></trkpt><trkpt lat="45.6753321" lon="10.9987506"><ele>1449.4285714285713</ele><time>2026-04-25T10:45:15.102Z</time></trkpt><trkpt lat="45.675386" lon="10.9986963"><ele>1450.7142857142856</ele><time>2026-04-25T10:45:16.104Z</time></trkpt><trkpt lat="45.6754498" lon="10.9986714"><ele>1452.0</ele><time>2026-04-25T10:45:17.103Z</time></trkpt><trkpt lat="45.675519" lon="10.9986741"><ele>1452.0</ele><time>2026-04-25T10:45:18.102Z</time></trkpt><trkpt lat="45.6755925" lon="10.9986956"><ele>1452.0</ele><time>2026-04-25T10:45:19.103Z</time></trkpt><trkpt lat="45.6756677" lon="10.9987267"><ele>1452.0</ele><time>2026-04-25T10:45:20.103Z</time></trkpt><trkpt lat="45.6757363" lon="10.998773"><ele>1452.0</ele><time>2026-04-25T10:45:21.102Z</time></trkpt><trkpt lat="45.6757993" lon="10.9988386"><ele>1452.0</ele><time>2026-04-25T10:45:22.103Z</time></trkpt><trkpt lat="45.6758529" lon="10.9989147"><ele>1452.0</ele><time>2026-04-25T10:45:23.103Z</time></trkpt><trkpt lat="45.6759031" lon="10.9989902"><ele>1452.0</ele><time>2026-04-25T10:45:24.102Z</time></trkpt><trkpt lat="45.675957" lon="10.9990681"><ele>1452.0</ele><time>2026-04-25T10:45:25.102Z</time></trkpt><trkpt lat="45.676017" lon="10.9991565"><ele>1452.0</ele><time>2026-04-25T10:45:26.103Z</time></trkpt><trkpt lat="45.6760784" lon="10.999264"><ele>1452.0</ele><time>2026-04-25T10:45:27.102Z</time></trkpt><trkpt lat="45.6761431" lon="10.9993962"><ele>1452.0</ele><time>2026-04-25T10:45:28.103Z</time></trkpt><trkpt lat="45.6762056" lon="10.9995455"><ele>1452.25</ele><time>2026-04-25T10:45:29.102Z</time></trkpt><trkpt lat="45.6762733" lon="10.999698"><ele>1452.5</ele><time>2026-04-25T10:45:30.103Z</time></trkpt><trkpt lat="45.6763487" lon="10.9998404"><ele>1452.75</ele><time>2026-04-25T10:45:31.102Z</time></trkpt><trkpt lat="45.6764234" lon="10.9999766"><ele>1453.0</ele><time>2026-04-25T10:45:32.103Z</time></trkpt><trkpt lat="45.6764922" lon="11.0001049"><ele>1453.0</ele><time>2026-04-25T10:45:33.102Z</time></trkpt><trkpt lat="45.6765558" lon="11.0002142"><ele>1453.0</ele><time>2026-04-25T10:45:34.103Z</time></trkpt><trkpt lat="45.6766024" lon="11.0003237"><ele>1453.0</ele><time>2026-04-25T10:45:35.102Z</time></trkpt><trkpt lat="45.6766415" lon="11.0004267"><ele>1453.0</ele><time>2026-04-25T10:45:36.103Z</time></trkpt><trkpt lat="45.6766831" lon="11.0005261"><ele>1453.0</ele><time>2026-04-25T10:45:37.102Z</time></trkpt><trkpt lat="45.6767405" lon="11.0006086"><ele>1453.0</ele><time>2026-04-25T10:45:38.102Z</time></trkpt><trkpt lat="45.6768075" lon="11.000674"><ele>1453.0</ele><time>2026-04-25T10:45:39.102Z</time></trkpt><trkpt lat="45.6768858" lon="11.000736"><ele>1453.0</ele><time>2026-04-25T10:45:40.102Z</time></trkpt><trkpt lat="45.6769673" lon="11.0007995"><ele>1453.0</ele><time>2026-04-25T10:45:41.102Z</time></trkpt><trkpt lat="45.6770503" lon="11.0008624"><ele>1453.0</ele><time>2026-04-25T10:45:42.103Z</time></trkpt><trkpt lat="45.6771319" lon="11.0009301"><ele>1453.0</ele><time>2026-04-25T10:45:43.103Z</time></trkpt><trkpt lat="45.6772036" lon="11.0010004"><ele>1453.0</ele><time>2026-04-25T10:45:44.102Z</time></trkpt><trkpt lat="45.6772614" lon="11.0010808"><ele>1453.0</ele><time>2026-04-25T10:45:45.103Z</time></trkpt><trkpt lat="45.677311" lon="11.0011819"><ele>1453.0</ele><time>2026-04-25T10:45:46.102Z</time></trkpt><trkpt lat="45.6773543" lon="11.0012923"><ele>1453.0</ele><time>2026-04-25T10:45:47.102Z</time></trkpt><trkpt lat="45.677401" lon="11.0014126"><ele>1453.0</ele><time>2026-04-25T10:45:48.102Z</time></trkpt><trkpt lat="45.6774561" lon="11.0015415"><ele>1456.75</ele><time>2026-04-25T10:45:49.102Z</time></trkpt><trkpt lat="45.6775161" lon="11.0016765"><ele>1460.5</ele><time>2026-04-25T10:45:50.103Z</time></trkpt><trkpt lat="45.677573" lon="11.0018255"><ele>1464.25</ele><time>2026-04-25T10:45:51.102Z</time></trkpt><trkpt lat="45.6776285" lon="11.0019902"><ele>1468.0</ele><time>2026-04-25T10:45:52.102Z</time></trkpt><trkpt lat="45.6776847" lon="11.0021649"><ele>1468.0</ele><time>2026-04-25T10:45:53.102Z</time></trkpt><trkpt lat="45.6777452" lon="11.0023574"><ele>1468.0</ele><time>2026-04-25T10:45:54.103Z</time></trkpt><trkpt lat="45.6778026" lon="11.0025629"><ele>1468.0</ele><time>2026-04-25T10:45:55.102Z</time></trkpt><trkpt lat="45.6778567" lon="11.0027739"><ele>1467.75</ele><time>2026-04-25T10:45:56.102Z</time></trkpt><trkpt lat="45.677914" lon="11.0029748"><ele>1467.5</ele><time>2026-04-25T10:45:57.104Z</time></trkpt><trkpt lat="45.6779725" lon="11.0031677"><ele>1467.25</ele><time>2026-04-25T10:45:58.102Z</time></trkpt><trkpt lat="45.6780337" lon="11.0033492"><ele>1467.0</ele><time>2026-04-25T10:45:59.102Z</time></trkpt><trkpt lat="45.6780977" lon="11.0035157"><ele>1469.25</ele><time>2026-04-25T10:46:00.102Z</time></trkpt><trkpt lat="45.678165" lon="11.0036693"><ele>1471.5</ele><time>2026-04-25T10:46:01.104Z</time></trkpt><trkpt lat="45.6782296" lon="11.0038115"><ele>1473.75</ele><time>2026-04-25T10:46:02.103Z</time></trkpt><trkpt lat="45.6782834" lon="11.0039434"><ele>1476.0</ele><time>2026-04-25T10:46:03.102Z</time></trkpt><trkpt lat="45.6783295" lon="11.0040674"><ele>1477.8</ele><time>2026-04-25T10:46:04.103Z</time></trkpt><trkpt lat="45.678365" lon="11.004196"><ele>1479.6</ele><time>2026-04-25T10:46:05.103Z</time></trkpt><trkpt lat="45.678394" lon="11.0043271"><ele>1481.4</ele><time>2026-04-25T10:46:06.103Z</time></trkpt><trkpt lat="45.6784217" lon="11.0044633"><ele>1483.2</ele><time>2026-04-25T10:46:07.103Z</time></trkpt><trkpt lat="45.6784471" lon="11.0045927"><ele>1485.0</ele><time>2026-04-25T10:46:08.103Z</time></trkpt><trkpt lat="45.6784725" lon="11.0047131"><ele>1485.0</ele><time>2026-04-25T10:46:09.102Z</time></trkpt><trkpt lat="45.6784932" lon="11.0048191"><ele>1485.0</ele><time>2026-04-25T10:46:10.103Z</time></trkpt><trkpt lat="45.6785132" lon="11.004909"><ele>1485.0</ele><time>2026-04-25T10:46:11.102Z</time></trkpt><trkpt lat="45.6785594" lon="11.0050734"><ele>1485.0</ele><time>2026-04-25T10:46:13.103Z</time></trkpt><trkpt lat="45.678594" lon="11.005152"><ele>1485.0</ele><time>2026-04-25T10:46:14.102Z</time></trkpt><trkpt lat="45.6786373" lon="11.0052294"><ele>1485.0</ele><time>2026-04-25T10:46:15.102Z</time></trkpt><trkpt lat="45.6786911" lon="11.0053038"><ele>1488.2</ele><time>2026-04-25T10:46:16.103Z</time></trkpt><trkpt lat="45.6787555" lon="11.0053834"><ele>1491.4</ele><time>2026-04-25T10:46:17.102Z</time></trkpt><trkpt lat="45.678821" lon="11.0054697"><ele>1494.6</ele><time>2026-04-25T10:46:18.103Z</time></trkpt><trkpt lat="45.6788869" lon="11.0055601"><ele>1497.8</ele><time>2026-04-25T10:46:19.102Z</time></trkpt><trkpt lat="45.6789541" lon="11.0056532"><ele>1501.0</ele><time>2026-04-25T10:46:20.102Z</time></trkpt><trkpt lat="45.6790254" lon="11.0057425"><ele>1501.0</ele><time>2026-04-25T10:46:21.103Z</time></trkpt><trkpt lat="45.6791001" lon="11.0058258"><ele>1501.0</ele><time>2026-04-25T10:46:22.103Z</time></trkpt><trkpt lat="45.6791738" lon="11.0059003"><ele>1501.0</ele><time>2026-04-25T10:46:23.104Z</time></trkpt><trkpt lat="45.6792447" lon="11.0059653"><ele>1501.0</ele><time>2026-04-25T10:46:24.102Z</time></trkpt><trkpt lat="45.6793147" lon="11.0060278"><ele>1501.0</ele><time>2026-04-25T10:46:25.104Z</time></trkpt><trkpt lat="45.6793901" lon="11.0060744"><ele>1501.0</ele><time>2026-04-25T10:46:26.102Z</time></trkpt><trkpt lat="45.6794738" lon="11.0061011"><ele>1501.0</ele><time>2026-04-25T10:46:27.102Z</time></trkpt><trkpt lat="45.6795642" lon="11.0061153"><ele>1501.0</ele><time>2026-04-25T10:46:28.102Z</time></trkpt><trkpt lat="45.6796558" lon="11.0061232"><ele>1501.0</ele><time>2026-04-25T10:46:29.102Z</time></trkpt><trkpt lat="45.6797488" lon="11.0061256"><ele>1501.0</ele><time>2026-04-25T10:46:30.103Z</time></trkpt><trkpt lat="45.679838" lon="11.0061221"><ele>1501.0</ele><time>2026-04-25T10:46:31.102Z</time></trkpt><trkpt lat="45.6799184" lon="11.0061161"><ele>1501.0</ele><time>2026-04-25T10:46:32.102Z</time></trkpt><trkpt lat="45.6799839" lon="11.0061093"><ele>1501.0</ele><time>2026-04-25T10:46:33.102Z</time></trkpt><trkpt lat="45.6800701" lon="11.0061161"><ele>1501.0</ele><time>2026-04-25T10:46:35.103Z</time></trkpt><trkpt lat="45.6801445" lon="11.0061203"><ele>1501.0</ele><time>2026-04-25T10:46:38.103Z</time></trkpt><trkpt lat="45.6802089" lon="11.0060663"><ele>1501.0</ele><time>2026-04-25T10:48:28.103Z</time></trkpt><trkpt lat="45.6802958" lon="11.0060464"><ele>1501.0</ele><time>2026-04-25T10:48:31.103Z</time></trkpt><trkpt lat="45.6803631" lon="11.0060657"><ele>1501.0</ele><time>2026-04-25T10:48:49.103Z</time></trkpt><trkpt lat="45.6804552" lon="11.0061192"><ele>1501.6666666666665</ele><time>2026-04-25T10:48:51.103Z</time></trkpt><trkpt lat="45.6805045" lon="11.0062037"><ele>1502.3333333333333</ele><time>2026-04-25T10:48:52.103Z</time></trkpt><trkpt lat="45.6805413" lon="11.0063077"><ele>1503.0</ele><time>2026-04-25T10:48:53.102Z</time></trkpt><trkpt lat="45.680578" lon="11.0064086"><ele>1503.6666666666667</ele><time>2026-04-25T10:48:54.104Z</time></trkpt><trkpt lat="45.6806255" lon="11.0065044"><ele>1504.3333333333335</ele><time>2026-04-25T10:48:55.103Z</time></trkpt><trkpt lat="45.6806888" lon="11.006578"><ele>1505.0</ele><time>2026-04-25T10:48:56.102Z</time></trkpt><trkpt lat="45.6807668" lon="11.0066173"><ele>1505.0</ele><time>2026-04-25T10:48:57.103Z</time></trkpt><trkpt lat="45.6808519" lon="11.0066276"><ele>1505.0</ele><time>2026-04-25T10:48:58.102Z</time></trkpt><trkpt lat="45.6809394" lon="11.0066053"><ele>1505.0</ele><time>2026-04-25T10:48:59.102Z</time></trkpt><trkpt lat="45.6810293" lon="11.0065675"><ele>1505.0</ele><time>2026-04-25T10:49:00.102Z</time></trkpt><trkpt lat="45.681123" lon="11.0065075"><ele>1505.0</ele><time>2026-04-25T10:49:01.102Z</time></trkpt><trkpt lat="45.6812217" lon="11.0064305"><ele>1505.0</ele><time>2026-04-25T10:49:02.102Z</time></trkpt><trkpt lat="45.6813112" lon="11.0063385"><ele>1505.0</ele><time>2026-04-25T10:49:03.102Z</time></trkpt><trkpt lat="45.6814007" lon="11.0062475"><ele>1505.0</ele><time>2026-04-25T10:49:04.103Z</time></trkpt><trkpt lat="45.6814831" lon="11.0061653"><ele>1505.0</ele><time>2026-04-25T10:49:05.102Z</time></trkpt><trkpt lat="45.6815699" lon="11.006089"><ele>1505.0</ele><time>2026-04-25T10:49:06.102Z</time></trkpt><trkpt lat="45.6816692" lon="11.0060273"><ele>1505.0</ele><time>2026-04-25T10:49:07.102Z</time></trkpt><trkpt lat="45.6817795" lon="11.0059808"><ele>1505.0</ele><time>2026-04-25T10:49:08.102Z</time></trkpt><trkpt lat="45.6818907" lon="11.00593"><ele>1505.0</ele><time>2026-04-25T10:49:09.102Z</time></trkpt><trkpt lat="45.6820024" lon="11.0058777"><ele>1505.0</ele><time>2026-04-25T10:49:10.102Z</time></trkpt><trkpt lat="45.6821149" lon="11.0058234"><ele>1507.8</ele><time>2026-04-25T10:49:11.103Z</time></trkpt><trkpt lat="45.6822195" lon="11.005761"><ele>1510.6</ele><time>2026-04-25T10:49:12.102Z</time></trkpt><trkpt lat="45.6823179" lon="11.0056972"><ele>1513.4</ele><time>2026-04-25T10:49:13.102Z</time></trkpt><trkpt lat="45.6824144" lon="11.0056321"><ele>1516.2</ele><time>2026-04-25T10:49:14.103Z</time></trkpt><trkpt lat="45.6825106" lon="11.0055617"><ele>1519.0</ele><time>2026-04-25T10:49:15.102Z</time></trkpt><trkpt lat="45.682603" lon="11.0054838"><ele>1519.0</ele><time>2026-04-25T10:49:16.102Z</time></trkpt><trkpt lat="45.6826925" lon="11.0054063"><ele>1519.0</ele><time>2026-04-25T10:49:17.103Z</time></trkpt><trkpt lat="45.6827736" lon="11.0053323"><ele>1519.0</ele><time>2026-04-25T10:49:18.102Z</time></trkpt><trkpt lat="45.6828406" lon="11.0052701"><ele>1519.0</ele><time>2026-04-25T10:49:19.103Z</time></trkpt><trkpt lat="45.6828988" lon="11.0052141"><ele>1519.0</ele><time>2026-04-25T10:49:20.102Z</time></trkpt><trkpt lat="45.6829527" lon="11.0051604"><ele>1519.0</ele><time>2026-04-25T10:49:21.102Z</time></trkpt><trkpt lat="45.6830103" lon="11.0051043"><ele>1519.8333333333333</ele><time>2026-04-25T10:49:22.103Z</time></trkpt><trkpt lat="45.6830668" lon="11.0050459"><ele>1520.6666666666665</ele><time>2026-04-25T10:49:23.102Z</time></trkpt><trkpt lat="45.6831237" lon="11.0049856"><ele>1521.5</ele><time>2026-04-25T10:49:24.103Z</time></trkpt><trkpt lat="45.6831786" lon="11.004927"><ele>1522.3333333333333</ele><time>2026-04-25T10:49:25.103Z</time></trkpt><trkpt lat="45.683278" lon="11.0048039"><ele>1523.1666666666667</ele><time>2026-04-25T10:49:27.103Z</time></trkpt><trkpt lat="45.6833356" lon="11.0047407"><ele>1524.0</ele><time>2026-04-25T10:49:28.103Z</time></trkpt><trkpt lat="45.6834" lon="11.0046766"><ele>1524.0</ele><time>2026-04-25T10:49:29.102Z</time></trkpt><trkpt lat="45.6834735" lon="11.004621"><ele>1524.0</ele><time>2026-04-25T10:49:30.102Z</time></trkpt><trkpt lat="45.6835451" lon="11.0045526"><ele>1524.0</ele><time>2026-04-25T10:49:31.102Z</time></trkpt><trkpt lat="45.6836145" lon="11.0044734"><ele>1524.0</ele><time>2026-04-25T10:49:32.102Z</time></trkpt><trkpt lat="45.6836834" lon="11.004388"><ele>1524.0</ele><time>2026-04-25T10:49:33.102Z</time></trkpt><trkpt lat="45.6837574" lon="11.0043161"><ele>1524.0</ele><time>2026-04-25T10:49:34.103Z</time></trkpt><trkpt lat="45.6838494" lon="11.0042841"><ele>1522.2</ele><time>2026-04-25T10:49:35.103Z</time></trkpt><trkpt lat="45.6839458" lon="11.0042814"><ele>1520.4</ele><time>2026-04-25T10:49:36.102Z</time></trkpt><trkpt lat="45.6840476" lon="11.0042922"><ele>1518.6</ele><time>2026-04-25T10:49:37.102Z</time></trkpt><trkpt lat="45.6841549" lon="11.0043014"><ele>1516.8</ele><time>2026-04-25T10:49:38.102Z</time></trkpt><trkpt lat="45.6842659" lon="11.0043054"><ele>1515.0</ele><time>2026-04-25T10:49:39.103Z</time></trkpt><trkpt lat="45.6843657" lon="11.0043099"><ele>1515.8</ele><time>2026-04-25T10:49:40.104Z</time></trkpt><trkpt lat="45.6844583" lon="11.0043268"><ele>1516.6</ele><time>2026-04-25T10:49:41.103Z</time></trkpt><trkpt lat="45.6845518" lon="11.0043551"><ele>1517.4</ele><time>2026-04-25T10:49:42.102Z</time></trkpt><trkpt lat="45.6846448" lon="11.0043863"><ele>1518.2</ele><time>2026-04-25T10:49:43.102Z</time></trkpt><trkpt lat="45.6847374" lon="11.0044108"><ele>1519.0</ele><time>2026-04-25T10:49:44.102Z</time></trkpt><trkpt lat="45.6848288" lon="11.0044244"><ele>1519.0</ele><time>2026-04-25T10:49:45.103Z</time></trkpt><trkpt lat="45.6849249" lon="11.0044176"><ele>1519.0</ele><time>2026-04-25T10:49:46.102Z</time></trkpt><trkpt lat="45.6850222" lon="11.0043902"><ele>1519.0</ele><time>2026-04-25T10:49:47.103Z</time></trkpt><trkpt lat="45.6851204" lon="11.0043426"><ele>1519.0</ele><time>2026-04-25T10:49:48.103Z</time></trkpt><trkpt lat="45.6852195" lon="11.0042865"><ele>1519.0</ele><time>2026-04-25T10:49:49.103Z</time></trkpt><trkpt lat="45.6853195" lon="11.0042311"><ele>1518.8000000000002</ele><time>2026-04-25T10:49:50.102Z</time></trkpt><trkpt lat="45.6854202" lon="11.0041778"><ele>1518.6000000000001</ele><time>2026-04-25T10:49:51.103Z</time></trkpt><trkpt lat="45.6855188" lon="11.0041273"><ele>1518.4</ele><time>2026-04-25T10:49:52.102Z</time></trkpt><trkpt lat="45.6856188" lon="11.0040865"><ele>1518.2</ele><time>2026-04-25T10:49:53.104Z</time></trkpt><trkpt lat="45.6857147" lon="11.0040489"><ele>1518.0</ele><time>2026-04-25T10:49:54.102Z</time></trkpt><trkpt lat="45.6858082" lon="11.0040154"><ele>1517.8000000000002</ele><time>2026-04-25T10:49:55.104Z</time></trkpt><trkpt lat="45.6859021" lon="11.0039912"><ele>1517.6</ele><time>2026-04-25T10:49:56.103Z</time></trkpt><trkpt lat="45.6859933" lon="11.0039726"><ele>1517.4</ele><time>2026-04-25T10:49:57.102Z</time></trkpt><trkpt lat="45.6860871" lon="11.0039676"><ele>1517.1999999999998</ele><time>2026-04-25T10:49:58.102Z</time></trkpt><trkpt lat="45.6861828" lon="11.0039789"><ele>1517.0</ele><time>2026-04-25T10:49:59.102Z</time></trkpt><trkpt lat="45.6862767" lon="11.0040158"><ele>1517.0</ele><time>2026-04-25T10:50:00.102Z</time></trkpt><trkpt lat="45.686364" lon="11.0040801"><ele>1517.0</ele><time>2026-04-25T10:50:01.102Z</time></trkpt><trkpt lat="45.686451" lon="11.0041597"><ele>1517.0</ele><time>2026-04-25T10:50:02.103Z</time></trkpt><trkpt lat="45.6865336" lon="11.0042479"><ele>1517.0</ele><time>2026-04-25T10:50:03.103Z</time></trkpt><trkpt lat="45.6866123" lon="11.0043442"><ele>1517.0</ele><time>2026-04-25T10:50:04.102Z</time></trkpt><trkpt lat="45.6866916" lon="11.0044469"><ele>1517.6</ele><time>2026-04-25T10:50:05.102Z</time></trkpt><trkpt lat="45.6867752" lon="11.00455"><ele>1518.1999999999998</ele><time>2026-04-25T10:50:06.103Z</time></trkpt><trkpt lat="45.6868583" lon="11.0046529"><ele>1518.8</ele><time>2026-04-25T10:50:07.103Z</time></trkpt><trkpt lat="45.6869435" lon="11.0047542"><ele>1519.4</ele><time>2026-04-25T10:50:08.103Z</time></trkpt><trkpt lat="45.6870275" lon="11.0048527"><ele>1520.0</ele><time>2026-04-25T10:50:09.103Z</time></trkpt><trkpt lat="45.6871115" lon="11.0049446"><ele>1521.2</ele><time>2026-04-25T10:50:10.102Z</time></trkpt><trkpt lat="45.6871983" lon="11.0050275"><ele>1522.4</ele><time>2026-04-25T10:50:11.102Z</time></trkpt><trkpt lat="45.6872895" lon="11.0051012"><ele>1523.6</ele><time>2026-04-25T10:50:12.103Z</time></trkpt><trkpt lat="45.6873846" lon="11.0051635"><ele>1524.8</ele><time>2026-04-25T10:50:13.103Z</time></trkpt><trkpt lat="45.6874855" lon="11.0052054"><ele>1526.0</ele><time>2026-04-25T10:50:14.103Z</time></trkpt><trkpt lat="45.6875881" lon="11.0052242"><ele>1526.0</ele><time>2026-04-25T10:50:15.102Z</time></trkpt><trkpt lat="45.6876913" lon="11.0052138"><ele>1526.0</ele><time>2026-04-25T10:50:16.103Z</time></trkpt><trkpt lat="45.6877928" lon="11.005182"><ele>1526.0</ele><time>2026-04-25T10:50:17.103Z</time></trkpt><trkpt lat="45.6878936" lon="11.0051382"><ele>1526.0</ele><time>2026-04-25T10:50:18.103Z</time></trkpt><trkpt lat="45.6879908" lon="11.0050837"><ele>1526.0</ele><time>2026-04-25T10:50:19.102Z</time></trkpt><trkpt lat="45.6880867" lon="11.0050242"><ele>1526.1999999999998</ele><time>2026-04-25T10:50:20.102Z</time></trkpt><trkpt lat="45.6881808" lon="11.0049619"><ele>1526.3999999999999</ele><time>2026-04-25T10:50:21.102Z</time></trkpt><trkpt lat="45.6882747" lon="11.0049004"><ele>1526.6</ele><time>2026-04-25T10:50:22.103Z</time></trkpt><trkpt lat="45.6883668" lon="11.0048436"><ele>1526.8</ele><time>2026-04-25T10:50:23.104Z</time></trkpt><trkpt lat="45.6884555" lon="11.004782"><ele>1527.0</ele><time>2026-04-25T10:50:24.103Z</time></trkpt><trkpt lat="45.6885526" lon="11.0046959"><ele>1531.0</ele><time>2026-04-25T10:50:25.103Z</time></trkpt><trkpt lat="45.6886524" lon="11.00459"><ele>1535.0</ele><time>2026-04-25T10:50:26.102Z</time></trkpt><trkpt lat="45.6887492" lon="11.0044757"><ele>1539.0</ele><time>2026-04-25T10:50:27.102Z</time></trkpt><trkpt lat="45.6888368" lon="11.0043582"><ele>1543.0</ele><time>2026-04-25T10:50:28.103Z</time></trkpt><trkpt lat="45.6889124" lon="11.0042394"><ele>1542.2</ele><time>2026-04-25T10:50:29.104Z</time></trkpt><trkpt lat="45.6889814" lon="11.0041207"><ele>1541.4</ele><time>2026-04-25T10:50:30.102Z</time></trkpt><trkpt lat="45.6890438" lon="11.0040029"><ele>1540.6000000000001</ele><time>2026-04-25T10:50:31.103Z</time></trkpt><trkpt lat="45.6890956" lon="11.0038882"><ele>1539.8000000000002</ele><time>2026-04-25T10:50:32.103Z</time></trkpt><trkpt lat="45.6891451" lon="11.0037802"><ele>1539.0</ele><time>2026-04-25T10:50:33.103Z</time></trkpt><trkpt lat="45.6892" lon="11.0036742"><ele>1539.0</ele><time>2026-04-25T10:50:34.102Z</time></trkpt><trkpt lat="45.6892647" lon="11.0035796"><ele>1539.0</ele><time>2026-04-25T10:50:35.103Z</time></trkpt><trkpt lat="45.6893367" lon="11.0034972"><ele>1539.0</ele><time>2026-04-25T10:50:36.102Z</time></trkpt><trkpt lat="45.6894113" lon="11.0034188"><ele>1539.0</ele><time>2026-04-25T10:50:37.102Z</time></trkpt><trkpt lat="45.6894885" lon="11.0033424"><ele>1539.0</ele><time>2026-04-25T10:50:38.103Z</time></trkpt><trkpt lat="45.6895709" lon="11.0032653"><ele>1540.6</ele><time>2026-04-25T10:50:39.102Z</time></trkpt><trkpt lat="45.6896586" lon="11.0031946"><ele>1542.2</ele><time>2026-04-25T10:50:40.102Z</time></trkpt><trkpt lat="45.6897509" lon="11.0031243"><ele>1543.8</ele><time>2026-04-25T10:50:41.103Z</time></trkpt><trkpt lat="45.689842" lon="11.0030583"><ele>1545.3999999999999</ele><time>2026-04-25T10:50:42.102Z</time></trkpt><trkpt lat="45.6899171" lon="11.0030079"><ele>1547.0</ele><time>2026-04-25T10:50:43.102Z</time></trkpt><trkpt lat="45.6899783" lon="11.0029641"><ele>1546.9999999999998</ele><time>2026-04-25T10:50:44.103Z</time></trkpt><trkpt lat="45.6900815" lon="11.0028856"><ele>1547.0</ele><time>2026-04-25T10:50:46.102Z</time></trkpt><trkpt lat="45.6901371" lon="11.0028399"><ele>1547.0</ele><time>2026-04-25T10:50:47.103Z</time></trkpt><trkpt lat="45.6901989" lon="11.0027826"><ele>1547.0</ele><time>2026-04-25T10:50:48.103Z</time></trkpt><trkpt lat="45.6902682" lon="11.0027251"><ele>1546.9999999999998</ele><time>2026-04-25T10:50:49.102Z</time></trkpt><trkpt lat="45.6903404" lon="11.0026638"><ele>1547.0</ele><time>2026-04-25T10:50:50.103Z</time></trkpt><trkpt lat="45.6904201" lon="11.0026197"><ele>1548.4999999999998</ele><time>2026-04-25T10:50:51.103Z</time></trkpt><trkpt lat="45.6905015" lon="11.0025874"><ele>1550.0</ele><time>2026-04-25T10:50:52.102Z</time></trkpt><trkpt lat="45.6905873" lon="11.0025714"><ele>1551.5</ele><time>2026-04-25T10:50:53.103Z</time></trkpt><trkpt lat="45.690674" lon="11.0025658"><ele>1553.0</ele><time>2026-04-25T10:50:54.103Z</time></trkpt><trkpt lat="45.6907511" lon="11.0025687"><ele>1554.4999999999998</ele><time>2026-04-25T10:50:55.102Z</time></trkpt><trkpt lat="45.6908206" lon="11.0025789"><ele>1556.0</ele><time>2026-04-25T10:50:56.102Z</time></trkpt><trkpt lat="45.6908891" lon="11.0025925"><ele>1555.9999999999998</ele><time>2026-04-25T10:50:57.102Z</time></trkpt><trkpt lat="45.6909543" lon="11.0026113"><ele>1556.0</ele><time>2026-04-25T10:50:58.103Z</time></trkpt><trkpt lat="45.691069" lon="11.0026521"><ele>1556.0</ele><time>2026-04-25T10:51:00.103Z</time></trkpt><trkpt lat="45.6911693" lon="11.0026989"><ele>1556.0</ele><time>2026-04-25T10:51:02.102Z</time></trkpt><trkpt lat="45.6912362" lon="11.002731"><ele>1555.9999999999998</ele><time>2026-04-25T10:51:04.103Z</time></trkpt><trkpt lat="45.6912997" lon="11.0027587"><ele>1556.0</ele><time>2026-04-25T10:51:06.103Z</time></trkpt><trkpt lat="45.6913745" lon="11.0027994"><ele>1556.9999999999998</ele><time>2026-04-25T10:51:08.102Z</time></trkpt><trkpt lat="45.6914614" lon="11.0028408"><ele>1558.0</ele><time>2026-04-25T10:51:10.102Z</time></trkpt><trkpt lat="45.6915446" lon="11.002886"><ele>1559.0</ele><time>2026-04-25T10:51:12.102Z</time></trkpt><trkpt lat="45.6916092" lon="11.0029173"><ele>1560.0</ele><time>2026-04-25T10:51:14.102Z</time></trkpt><trkpt lat="45.6916774" lon="11.0029328"><ele>1560.9999999999998</ele><time>2026-04-25T10:51:16.103Z</time></trkpt><trkpt lat="45.6917453" lon="11.0029259"><ele>1562.0</ele><time>2026-04-25T10:51:18.103Z</time></trkpt><trkpt lat="45.6918069" lon="11.0028908"><ele>1562.0</ele><time>2026-04-25T10:51:20.103Z</time></trkpt><trkpt lat="45.6918594" lon="11.0027946"><ele>1562.0</ele><time>2026-04-25T10:51:23.103Z</time></trkpt><trkpt lat="45.6919153" lon="11.0026905"><ele>1562.0</ele><time>2026-04-25T10:51:26.102Z</time></trkpt><trkpt lat="45.691939" lon="11.00259"><ele>1562.0</ele><time>2026-04-25T10:51:28.102Z</time></trkpt><trkpt lat="45.6919654" lon="11.0024469"><ele>1562.0</ele><time>2026-04-25T10:51:30.102Z</time></trkpt><trkpt lat="45.6919892" lon="11.0022744"><ele>1561.0</ele><time>2026-04-25T10:51:32.103Z</time></trkpt><trkpt lat="45.6920052" lon="11.0021077"><ele>1560.0</ele><time>2026-04-25T10:51:34.102Z</time></trkpt><trkpt lat="45.6920236" lon="11.0019218"><ele>1559.0</ele><time>2026-04-25T10:51:36.103Z</time></trkpt><trkpt lat="45.6920374" lon="11.0018141"><ele>1558.0</ele><time>2026-04-25T10:51:37.103Z</time></trkpt><trkpt lat="45.6920491" lon="11.0017024"><ele>1557.0</ele><time>2026-04-25T10:51:38.102Z</time></trkpt><trkpt lat="45.6920543" lon="11.0015792"><ele>1556.0</ele><time>2026-04-25T10:51:39.103Z</time></trkpt><trkpt lat="45.6920492" lon="11.0014462"><ele>1555.0</ele><time>2026-04-25T10:51:40.103Z</time></trkpt><trkpt lat="45.6920369" lon="11.0013135"><ele>1554.0</ele><time>2026-04-25T10:51:41.102Z</time></trkpt><trkpt lat="45.6920141" lon="11.0011874"><ele>1553.0</ele><time>2026-04-25T10:51:42.102Z</time></trkpt><trkpt lat="45.6919705" lon="11.0010676"><ele>1552.0</ele><time>2026-04-25T10:51:43.102Z</time></trkpt><trkpt lat="45.6919048" lon="11.0009525"><ele>1552.0</ele><time>2026-04-25T10:51:44.104Z</time></trkpt><trkpt lat="45.6918202" lon="11.0008599"><ele>1552.0</ele><time>2026-04-25T10:51:45.102Z</time></trkpt><trkpt lat="45.6917198" lon="11.0007859"><ele>1552.0</ele><time>2026-04-25T10:51:46.103Z</time></trkpt><trkpt lat="45.6916106" lon="11.0007116"><ele>1552.0</ele><time>2026-04-25T10:51:47.102Z</time></trkpt><trkpt lat="45.6915047" lon="11.0006315"><ele>1551.6</ele><time>2026-04-25T10:51:48.102Z</time></trkpt><trkpt lat="45.6914043" lon="11.0005562"><ele>1551.1999999999998</ele><time>2026-04-25T10:51:49.102Z</time></trkpt><trkpt lat="45.6913065" lon="11.0004886"><ele>1550.8</ele><time>2026-04-25T10:51:50.102Z</time></trkpt><trkpt lat="45.6912031" lon="11.0004422"><ele>1550.4</ele><time>2026-04-25T10:51:51.103Z</time></trkpt><trkpt lat="45.6910929" lon="11.0004313"><ele>1550.0</ele><time>2026-04-25T10:51:52.102Z</time></trkpt><trkpt lat="45.690973" lon="11.000458"><ele>1550.0</ele><time>2026-04-25T10:51:53.102Z</time></trkpt><trkpt lat="45.6908442" lon="11.0005052"><ele>1550.0</ele><time>2026-04-25T10:51:54.102Z</time></trkpt><trkpt lat="45.6907092" lon="11.0005606"><ele>1550.0</ele><time>2026-04-25T10:51:55.103Z</time></trkpt><trkpt lat="45.6905688" lon="11.0006254"><ele>1550.0</ele><time>2026-04-25T10:51:56.103Z</time></trkpt><trkpt lat="45.6904209" lon="11.0006932"><ele>1550.0</ele><time>2026-04-25T10:51:57.102Z</time></trkpt><trkpt lat="45.6902776" lon="11.0007598"><ele>1550.0</ele><time>2026-04-25T10:51:58.102Z</time></trkpt><trkpt lat="45.6901421" lon="11.0008257"><ele>1550.0</ele><time>2026-04-25T10:51:59.103Z</time></trkpt><trkpt lat="45.6900146" lon="11.0008956"><ele>1550.0</ele><time>2026-04-25T10:52:00.103Z</time></trkpt><trkpt lat="45.6898952" lon="11.0009686"><ele>1549.0</ele><time>2026-04-25T10:52:01.103Z</time></trkpt><trkpt lat="45.6897926" lon="11.0010388"><ele>1548.0</ele><time>2026-04-25T10:52:02.103Z</time></trkpt><trkpt lat="45.6897001" lon="11.0010968"><ele>1547.0</ele><time>2026-04-25T10:52:03.102Z</time></trkpt><trkpt lat="45.689606" lon="11.0011281"><ele>1546.0</ele><time>2026-04-25T10:52:04.102Z</time></trkpt><trkpt lat="45.6895191" lon="11.0011251"><ele>1545.0</ele><time>2026-04-25T10:52:05.104Z</time></trkpt><trkpt lat="45.6894448" lon="11.001077"><ele>1545.0</ele><time>2026-04-25T10:52:06.102Z</time></trkpt><trkpt lat="45.6893811" lon="11.0010001"><ele>1545.0</ele><time>2026-04-25T10:52:07.102Z</time></trkpt><trkpt lat="45.6893328" lon="11.0008915"><ele>1545.0</ele><time>2026-04-25T10:52:08.104Z</time></trkpt><trkpt lat="45.6892873" lon="11.0007674"><ele>1545.0</ele><time>2026-04-25T10:52:09.102Z</time></trkpt><trkpt lat="45.6892113" lon="11.0006658"><ele>1545.0</ele><time>2026-04-25T10:52:10.103Z</time></trkpt><trkpt lat="45.689116" lon="11.0005775"><ele>1545.0</ele><time>2026-04-25T10:52:11.102Z</time></trkpt><trkpt lat="45.6890204" lon="11.0004989"><ele>1545.0</ele><time>2026-04-25T10:52:12.103Z</time></trkpt><trkpt lat="45.688924" lon="11.0004189"><ele>1545.0</ele><time>2026-04-25T10:52:13.103Z</time></trkpt><trkpt lat="45.6888308" lon="11.0003308"><ele>1545.0</ele><time>2026-04-25T10:52:14.102Z</time></trkpt><trkpt lat="45.6887391" lon="11.0002274"><ele>1545.0</ele><time>2026-04-25T10:52:15.104Z</time></trkpt><trkpt lat="45.6886487" lon="11.000115"><ele>1545.0</ele><time>2026-04-25T10:52:16.103Z</time></trkpt><trkpt lat="45.68856" lon="10.9999922"><ele>1545.0</ele><time>2026-04-25T10:52:17.103Z</time></trkpt><trkpt lat="45.6884693" lon="10.9998747"><ele>1545.0</ele><time>2026-04-25T10:52:18.102Z</time></trkpt><trkpt lat="45.6883912" lon="10.9997572"><ele>1541.4</ele><time>2026-04-25T10:52:19.103Z</time></trkpt><trkpt lat="45.6883401" lon="10.9996256"><ele>1537.8</ele><time>2026-04-25T10:52:20.104Z</time></trkpt><trkpt lat="45.6883198" lon="10.9994798"><ele>1534.1999999999998</ele><time>2026-04-25T10:52:21.102Z</time></trkpt><trkpt lat="45.6883146" lon="10.9993291"><ele>1530.6</ele><time>2026-04-25T10:52:22.104Z</time></trkpt><trkpt lat="45.6883223" lon="10.9991928"><ele>1527.0</ele><time>2026-04-25T10:52:23.104Z</time></trkpt><trkpt lat="45.6883598" lon="10.9990746"><ele>1527.0</ele><time>2026-04-25T10:52:24.103Z</time></trkpt><trkpt lat="45.688429" lon="10.9989723"><ele>1527.0</ele><time>2026-04-25T10:52:25.102Z</time></trkpt><trkpt lat="45.6885267" lon="10.9988921"><ele>1527.0</ele><time>2026-04-25T10:52:26.104Z</time></trkpt><trkpt lat="45.6886401" lon="10.9988156"><ele>1527.0</ele><time>2026-04-25T10:52:27.102Z</time></trkpt><trkpt lat="45.6887644" lon="10.9987338"><ele>1530.5</ele><time>2026-04-25T10:52:28.102Z</time></trkpt><trkpt lat="45.6888881" lon="10.9986507"><ele>1534.0</ele><time>2026-04-25T10:52:29.103Z</time></trkpt><trkpt lat="45.688993" lon="10.9985763"><ele>1537.5</ele><time>2026-04-25T10:52:30.102Z</time></trkpt><trkpt lat="45.6890925" lon="10.9985105"><ele>1541.0</ele><time>2026-04-25T10:52:31.102Z</time></trkpt><trkpt lat="45.6891891" lon="10.9984434"><ele>1541.0</ele><time>2026-04-25T10:52:32.102Z</time></trkpt><trkpt lat="45.6892821" lon="10.9983765"><ele>1541.0</ele><time>2026-04-25T10:52:33.103Z</time></trkpt><trkpt lat="45.6893737" lon="10.9983095"><ele>1541.0</ele><time>2026-04-25T10:52:34.104Z</time></trkpt><trkpt lat="45.689466" lon="10.9982409"><ele>1541.0</ele><time>2026-04-25T10:52:35.102Z</time></trkpt><trkpt lat="45.6895608" lon="10.9981754"><ele>1541.0</ele><time>2026-04-25T10:52:36.103Z</time></trkpt><trkpt lat="45.6896557" lon="10.9981246"><ele>1541.9999999999998</ele><time>2026-04-25T10:52:37.103Z</time></trkpt><trkpt lat="45.6897441" lon="10.9981053"><ele>1543.0</ele><time>2026-04-25T10:52:38.102Z</time></trkpt><trkpt lat="45.6898254" lon="10.9981295"><ele>1544.0</ele><time>2026-04-25T10:52:39.103Z</time></trkpt><trkpt lat="45.6899041" lon="10.9981781"><ele>1545.0</ele><time>2026-04-25T10:52:40.103Z</time></trkpt><trkpt lat="45.6899813" lon="10.9982422"><ele>1545.9999999999998</ele><time>2026-04-25T10:52:41.103Z</time></trkpt><trkpt lat="45.6900594" lon="10.9983051"><ele>1547.0</ele><time>2026-04-25T10:52:42.103Z</time></trkpt><trkpt lat="45.6901369" lon="10.9983592"><ele>1546.9999999999998</ele><time>2026-04-25T10:52:43.102Z</time></trkpt><trkpt lat="45.6902153" lon="10.9984096"><ele>1547.0</ele><time>2026-04-25T10:52:44.102Z</time></trkpt><trkpt lat="45.6902963" lon="10.9984413"><ele>1547.0</ele><time>2026-04-25T10:52:45.103Z</time></trkpt><trkpt lat="45.690383" lon="10.9984543"><ele>1547.0</ele><time>2026-04-25T10:52:46.103Z</time></trkpt><trkpt lat="45.6904723" lon="10.9984556"><ele>1546.9999999999998</ele><time>2026-04-25T10:52:47.102Z</time></trkpt><trkpt lat="45.6905638" lon="10.9984455"><ele>1547.0</ele><time>2026-04-25T10:52:48.102Z</time></trkpt><trkpt lat="45.690658" lon="10.998429"><ele>1546.3333333333333</ele><time>2026-04-25T10:52:49.103Z</time></trkpt><trkpt lat="45.6907503" lon="10.9984113"><ele>1545.6666666666665</ele><time>2026-04-25T10:52:50.102Z</time></trkpt><trkpt lat="45.690841" lon="10.9983923"><ele>1545.0</ele><time>2026-04-25T10:52:51.102Z</time></trkpt><trkpt lat="45.6909258" lon="10.9983617"><ele>1544.3333333333335</ele><time>2026-04-25T10:52:52.102Z</time></trkpt><trkpt lat="45.6910026" lon="10.99831"><ele>1543.6666666666667</ele><time>2026-04-25T10:52:53.102Z</time></trkpt><trkpt lat="45.6910657" lon="10.9982223"><ele>1543.0</ele><time>2026-04-25T10:52:54.103Z</time></trkpt><trkpt lat="45.691104" lon="10.9981062"><ele>1543.0</ele><time>2026-04-25T10:52:55.102Z</time></trkpt><trkpt lat="45.6911262" lon="10.9979751"><ele>1543.0</ele><time>2026-04-25T10:52:56.103Z</time></trkpt><trkpt lat="45.6911387" lon="10.9978331"><ele>1543.0</ele><time>2026-04-25T10:52:57.102Z</time></trkpt><trkpt lat="45.6911536" lon="10.9976921"><ele>1543.0</ele><time>2026-04-25T10:52:58.102Z</time></trkpt><trkpt lat="45.6911641" lon="10.9975596"><ele>1543.0</ele><time>2026-04-25T10:52:59.102Z</time></trkpt><trkpt lat="45.6911729" lon="10.9974354"><ele>1541.3333333333335</ele><time>2026-04-25T10:53:00.104Z</time></trkpt><trkpt lat="45.6911836" lon="10.9973264"><ele>1539.6666666666667</ele><time>2026-04-25T10:53:01.102Z</time></trkpt><trkpt lat="45.6912066" lon="10.997225"><ele>1538.0</ele><time>2026-04-25T10:53:02.103Z</time></trkpt><trkpt lat="45.6912492" lon="10.9971341"><ele>1536.3333333333335</ele><time>2026-04-25T10:53:03.102Z</time></trkpt><trkpt lat="45.6913165" lon="10.9970666"><ele>1534.6666666666667</ele><time>2026-04-25T10:53:04.103Z</time></trkpt><trkpt lat="45.6914051" lon="10.9970218"><ele>1533.0</ele><time>2026-04-25T10:53:05.104Z</time></trkpt><trkpt lat="45.691505" lon="10.9969907"><ele>1533.0</ele><time>2026-04-25T10:53:06.102Z</time></trkpt><trkpt lat="45.6916125" lon="10.9969677"><ele>1533.0</ele><time>2026-04-25T10:53:07.103Z</time></trkpt><trkpt lat="45.6917241" lon="10.9969401"><ele>1533.0</ele><time>2026-04-25T10:53:08.103Z</time></trkpt><trkpt lat="45.6918418" lon="10.9969101"><ele>1533.0</ele><time>2026-04-25T10:53:09.102Z</time></trkpt><trkpt lat="45.6919562" lon="10.9968991"><ele>1533.6000000000001</ele><time>2026-04-25T10:53:10.104Z</time></trkpt><trkpt lat="45.6920602" lon="10.9969099"><ele>1534.2</ele><time>2026-04-25T10:53:11.103Z</time></trkpt><trkpt lat="45.6921577" lon="10.9969182"><ele>1534.8</ele><time>2026-04-25T10:53:12.102Z</time></trkpt><trkpt lat="45.6922456" lon="10.9968948"><ele>1535.4</ele><time>2026-04-25T10:53:13.103Z</time></trkpt><trkpt lat="45.6923172" lon="10.9968212"><ele>1536.0</ele><time>2026-04-25T10:53:14.102Z</time></trkpt><trkpt lat="45.6923553" lon="10.9967138"><ele>1534.6</ele><time>2026-04-25T10:53:15.102Z</time></trkpt><trkpt lat="45.6923547" lon="10.9965852"><ele>1533.1999999999998</ele><time>2026-04-25T10:53:16.103Z</time></trkpt><trkpt lat="45.6923208" lon="10.9964518"><ele>1531.8000000000002</ele><time>2026-04-25T10:53:17.103Z</time></trkpt><trkpt lat="45.6922673" lon="10.9963163"><ele>1530.4</ele><time>2026-04-25T10:53:18.103Z</time></trkpt><trkpt lat="45.6921996" lon="10.9961819"><ele>1529.0</ele><time>2026-04-25T10:53:19.103Z</time></trkpt><trkpt lat="45.6921274" lon="10.9960489"><ele>1529.0</ele><time>2026-04-25T10:53:20.102Z</time></trkpt><trkpt lat="45.6920496" lon="10.9959225"><ele>1529.0</ele><time>2026-04-25T10:53:21.103Z</time></trkpt><trkpt lat="45.6919622" lon="10.9958039"><ele>1529.0</ele><time>2026-04-25T10:53:22.102Z</time></trkpt><trkpt lat="45.6918688" lon="10.995689"><ele>1529.0</ele><time>2026-04-25T10:53:23.103Z</time></trkpt><trkpt lat="45.6917729" lon="10.9955712"><ele>1525.75</ele><time>2026-04-25T10:53:24.103Z</time></trkpt><trkpt lat="45.6916839" lon="10.9954376"><ele>1522.5</ele><time>2026-04-25T10:53:25.103Z</time></trkpt><trkpt lat="45.6916029" lon="10.9952964"><ele>1519.25</ele><time>2026-04-25T10:53:26.102Z</time></trkpt><trkpt lat="45.6915238" lon="10.9951589"><ele>1516.0</ele><time>2026-04-25T10:53:27.103Z</time></trkpt><trkpt lat="45.6914414" lon="10.995022"><ele>1516.25</ele><time>2026-04-25T10:53:28.103Z</time></trkpt><trkpt lat="45.6913627" lon="10.9948853"><ele>1516.5</ele><time>2026-04-25T10:53:29.102Z</time></trkpt><trkpt lat="45.6912961" lon="10.9947409"><ele>1516.75</ele><time>2026-04-25T10:53:30.102Z</time></trkpt><trkpt lat="45.6912452" lon="10.9945824"><ele>1517.0</ele><time>2026-04-25T10:53:31.103Z</time></trkpt><trkpt lat="45.6911948" lon="10.9944222"><ele>1517.0</ele><time>2026-04-25T10:53:32.102Z</time></trkpt><trkpt lat="45.6911326" lon="10.9942651"><ele>1517.0</ele><time>2026-04-25T10:53:33.102Z</time></trkpt><trkpt lat="45.6910603" lon="10.9941201"><ele>1517.0</ele><time>2026-04-25T10:53:34.102Z</time></trkpt><trkpt lat="45.6909797" lon="10.9940076"><ele>1517.0</ele><time>2026-04-25T10:53:35.102Z</time></trkpt><trkpt lat="45.6908919" lon="10.9939264"><ele>1514.8333333333335</ele><time>2026-04-25T10:53:36.103Z</time></trkpt><trkpt lat="45.6908085" lon="10.9938693"><ele>1512.6666666666667</ele><time>2026-04-25T10:53:37.103Z</time></trkpt><trkpt lat="45.690736" lon="10.9938238"><ele>1510.5</ele><time>2026-04-25T10:53:38.102Z</time></trkpt><trkpt lat="45.6906733" lon="10.9937736"><ele>1508.3333333333333</ele><time>2026-04-25T10:53:39.103Z</time></trkpt><trkpt lat="45.6906209" lon="10.9937095"><ele>1506.1666666666665</ele><time>2026-04-25T10:53:40.102Z</time></trkpt><trkpt lat="45.6905732" lon="10.9936376"><ele>1504.0</ele><time>2026-04-25T10:53:41.102Z</time></trkpt><trkpt lat="45.6905286" lon="10.9935507"><ele>1504.0</ele><time>2026-04-25T10:53:42.102Z</time></trkpt><trkpt lat="45.6904836" lon="10.9934497"><ele>1504.0</ele><time>2026-04-25T10:53:43.103Z</time></trkpt><trkpt lat="45.6904339" lon="10.9933417"><ele>1504.0</ele><time>2026-04-25T10:53:44.103Z</time></trkpt><trkpt lat="45.6903787" lon="10.993225"><ele>1504.0</ele><time>2026-04-25T10:53:45.102Z</time></trkpt><trkpt lat="45.6903218" lon="10.993103"><ele>1504.0</ele><time>2026-04-25T10:53:46.102Z</time></trkpt><trkpt lat="45.6902726" lon="10.9929817"><ele>1502.5</ele><time>2026-04-25T10:53:47.102Z</time></trkpt><trkpt lat="45.6902203" lon="10.9928677"><ele>1501.0</ele><time>2026-04-25T10:53:48.103Z</time></trkpt><trkpt lat="45.6901558" lon="10.9927808"><ele>1499.5</ele><time>2026-04-25T10:53:49.103Z</time></trkpt><trkpt lat="45.690081" lon="10.992711"><ele>1498.0</ele><time>2026-04-25T10:53:50.102Z</time></trkpt><trkpt lat="45.6900076" lon="10.9926598"><ele>1496.5</ele><time>2026-04-25T10:53:51.103Z</time></trkpt><trkpt lat="45.6899486" lon="10.9925834"><ele>1495.0</ele><time>2026-04-25T10:53:52.102Z</time></trkpt><trkpt lat="45.689914" lon="10.9924787"><ele>1494.5714285714287</ele><time>2026-04-25T10:53:53.102Z</time></trkpt><trkpt lat="45.6899037" lon="10.9923703"><ele>1494.142857142857</ele><time>2026-04-25T10:53:54.103Z</time></trkpt><trkpt lat="45.6898893" lon="10.9922665"><ele>1493.7142857142858</ele><time>2026-04-25T10:53:55.103Z</time></trkpt><trkpt lat="45.6898524" lon="10.9921768"><ele>1493.2857142857142</ele><time>2026-04-25T10:53:56.104Z</time></trkpt><trkpt lat="45.6897952" lon="10.9921186"><ele>1492.857142857143</ele><time>2026-04-25T10:53:57.103Z</time></trkpt><trkpt lat="45.6897253" lon="10.992108"><ele>1492.4285714285716</ele><time>2026-04-25T10:53:58.102Z</time></trkpt><trkpt lat="45.6896465" lon="10.9921375"><ele>1492.0</ele><time>2026-04-25T10:53:59.102Z</time></trkpt><trkpt lat="45.6895597" lon="10.9921756"><ele>1492.0</ele><time>2026-04-25T10:54:00.102Z</time></trkpt><trkpt lat="45.6894752" lon="10.9922288"><ele>1492.0</ele><time>2026-04-25T10:54:01.102Z</time></trkpt><trkpt lat="45.6894049" lon="10.9923078"><ele>1492.0</ele><time>2026-04-25T10:54:02.103Z</time></trkpt><trkpt lat="45.6893537" lon="10.992418"><ele>1492.0</ele><time>2026-04-25T10:54:03.102Z</time></trkpt><trkpt lat="45.6893203" lon="10.9925463"><ele>1492.0</ele><time>2026-04-25T10:54:04.102Z</time></trkpt><trkpt lat="45.6892998" lon="10.9926723"><ele>1491.5</ele><time>2026-04-25T10:54:05.102Z</time></trkpt><trkpt lat="45.6892573" lon="10.9927771"><ele>1491.0</ele><time>2026-04-25T10:54:06.102Z</time></trkpt><trkpt lat="45.689198" lon="10.992848"><ele>1490.5</ele><time>2026-04-25T10:54:07.102Z</time></trkpt><trkpt lat="45.6891275" lon="10.9928721"><ele>1490.0</ele><time>2026-04-25T10:54:08.102Z</time></trkpt><trkpt lat="45.6890567" lon="10.9928435"><ele>1489.5</ele><time>2026-04-25T10:54:09.103Z</time></trkpt><trkpt lat="45.6889929" lon="10.9927736"><ele>1489.0</ele><time>2026-04-25T10:54:10.103Z</time></trkpt><trkpt lat="45.6889206" lon="10.9926949"><ele>1489.0</ele><time>2026-04-25T10:54:11.103Z</time></trkpt><trkpt lat="45.6888339" lon="10.9926245"><ele>1489.0</ele><time>2026-04-25T10:54:12.102Z</time></trkpt><trkpt lat="45.6887322" lon="10.9925872"><ele>1489.0</ele><time>2026-04-25T10:54:13.102Z</time></trkpt><trkpt lat="45.6886488" lon="10.9925246"><ele>1489.0</ele><time>2026-04-25T10:54:14.102Z</time></trkpt><trkpt lat="45.6885971" lon="10.99242"><ele>1489.0</ele><time>2026-04-25T10:54:15.102Z</time></trkpt><trkpt lat="45.6885649" lon="10.9922972"><ele>1486.0</ele><time>2026-04-25T10:54:16.102Z</time></trkpt><trkpt lat="45.6885148" lon="10.9921686"><ele>1483.0</ele><time>2026-04-25T10:54:17.102Z</time></trkpt><trkpt lat="45.6884635" lon="10.9920414"><ele>1480.0</ele><time>2026-04-25T10:54:18.102Z</time></trkpt><trkpt lat="45.6884125" lon="10.9919266"><ele>1477.0</ele><time>2026-04-25T10:54:19.103Z</time></trkpt><trkpt lat="45.6883475" lon="10.9918391"><ele>1474.0</ele><time>2026-04-25T10:54:20.103Z</time></trkpt><trkpt lat="45.6882607" lon="10.9918101"><ele>1474.0</ele><time>2026-04-25T10:54:21.103Z</time></trkpt><trkpt lat="45.688175" lon="10.9918337"><ele>1474.0</ele><time>2026-04-25T10:54:22.102Z</time></trkpt><trkpt lat="45.6880913" lon="10.9919085"><ele>1474.0</ele><time>2026-04-25T10:54:23.104Z</time></trkpt><trkpt lat="45.6880104" lon="10.9919931"><ele>1474.0</ele><time>2026-04-25T10:54:24.103Z</time></trkpt><trkpt lat="45.6879386" lon="10.9920553"><ele>1474.0</ele><time>2026-04-25T10:54:25.103Z</time></trkpt><trkpt lat="45.6878599" lon="10.9920635"><ele>1474.0</ele><time>2026-04-25T10:54:26.102Z</time></trkpt><trkpt lat="45.6877855" lon="10.9920154"><ele>1473.1666666666665</ele><time>2026-04-25T10:54:27.103Z</time></trkpt><trkpt lat="45.6877173" lon="10.9919264"><ele>1472.3333333333333</ele><time>2026-04-25T10:54:28.103Z</time></trkpt><trkpt lat="45.6876602" lon="10.9918114"><ele>1471.5</ele><time>2026-04-25T10:54:29.103Z</time></trkpt><trkpt lat="45.6876041" lon="10.9916984"><ele>1470.6666666666667</ele><time>2026-04-25T10:54:30.103Z</time></trkpt><trkpt lat="45.6875535" lon="10.991597"><ele>1469.8333333333335</ele><time>2026-04-25T10:54:31.103Z</time></trkpt><trkpt lat="45.6875122" lon="10.9915165"><ele>1469.0</ele><time>2026-04-25T10:54:32.102Z</time></trkpt><trkpt lat="45.6874328" lon="10.9914558"><ele>1469.0</ele><time>2026-04-25T10:54:34.103Z</time></trkpt><trkpt lat="45.6873691" lon="10.9915252"><ele>1469.0</ele><time>2026-04-25T10:54:36.103Z</time></trkpt><trkpt lat="45.6874038" lon="10.9916408"><ele>1469.0</ele><time>2026-04-25T10:54:38.102Z</time></trkpt><trkpt lat="45.6874626" lon="10.9917555"><ele>1469.0</ele><time>2026-04-25T10:54:40.102Z</time></trkpt><trkpt lat="45.6874405" lon="10.9918843"><ele>1469.0</ele><time>2026-04-25T10:54:42.103Z</time></trkpt><trkpt lat="45.6873651" lon="10.9920078"><ele>1469.0</ele><time>2026-04-25T10:54:44.102Z</time></trkpt><trkpt lat="45.6873127" lon="10.9920736"><ele>1469.0</ele><time>2026-04-25T10:54:45.103Z</time></trkpt><trkpt lat="45.6872579" lon="10.9921542"><ele>1469.0</ele><time>2026-04-25T10:54:46.102Z</time></trkpt><trkpt lat="45.6871996" lon="10.9922522"><ele>1469.0</ele><time>2026-04-25T10:54:47.102Z</time></trkpt><trkpt lat="45.687142" lon="10.9923594"><ele>1469.0</ele><time>2026-04-25T10:54:48.102Z</time></trkpt><trkpt lat="45.6870773" lon="10.9924595"><ele>1469.0</ele><time>2026-04-25T10:54:49.102Z</time></trkpt><trkpt lat="45.6869991" lon="10.9925376"><ele>1466.5</ele><time>2026-04-25T10:54:50.103Z</time></trkpt><trkpt lat="45.6869222" lon="10.9926112"><ele>1464.0</ele><time>2026-04-25T10:54:51.102Z</time></trkpt><trkpt lat="45.6868591" lon="10.9926826"><ele>1461.5</ele><time>2026-04-25T10:54:52.103Z</time></trkpt><trkpt lat="45.6867992" lon="10.9927434"><ele>1459.0</ele><time>2026-04-25T10:54:53.103Z</time></trkpt><trkpt lat="45.686734" lon="10.9927762"><ele>1456.5</ele><time>2026-04-25T10:54:54.102Z</time></trkpt><trkpt lat="45.686629" lon="10.9927541"><ele>1454.0</ele><time>2026-04-25T10:54:56.102Z</time></trkpt><trkpt lat="45.6866028" lon="10.9926441"><ele>1454.0</ele><time>2026-04-25T10:54:58.102Z</time></trkpt><trkpt lat="45.6866768" lon="10.9925964"><ele>1454.0</ele><time>2026-04-25T10:55:00.103Z</time></trkpt><trkpt lat="45.6867912" lon="10.9925596"><ele>1454.0</ele><time>2026-04-25T10:55:02.102Z</time></trkpt><trkpt lat="45.6868504" lon="10.9924957"><ele>1454.0</ele><time>2026-04-25T10:55:03.102Z</time></trkpt><trkpt lat="45.6869014" lon="10.9924158"><ele>1454.0</ele><time>2026-04-25T10:55:04.103Z</time></trkpt><trkpt lat="45.6869501" lon="10.992336"><ele>1454.0</ele><time>2026-04-25T10:55:05.104Z</time></trkpt><trkpt lat="45.6869844" lon="10.9922542"><ele>1453.2</ele><time>2026-04-25T10:55:06.102Z</time></trkpt><trkpt lat="45.686995" lon="10.9921635"><ele>1452.4</ele><time>2026-04-25T10:55:07.102Z</time></trkpt><trkpt lat="45.6869474" lon="10.9920165"><ele>1451.6</ele><time>2026-04-25T10:55:09.103Z</time></trkpt><trkpt lat="45.686828" lon="10.9919544"><ele>1450.8</ele><time>2026-04-25T10:55:11.104Z</time></trkpt><trkpt lat="45.6867435" lon="10.9919591"><ele>1450.0</ele><time>2026-04-25T10:55:12.102Z</time></trkpt><trkpt lat="45.6866475" lon="10.9919682"><ele>1450.0</ele><time>2026-04-25T10:55:13.102Z</time></trkpt><trkpt lat="45.6865488" lon="10.9919761"><ele>1450.0</ele><time>2026-04-25T10:55:14.103Z</time></trkpt><trkpt lat="45.6864492" lon="10.9919863"><ele>1450.0</ele><time>2026-04-25T10:55:15.103Z</time></trkpt><trkpt lat="45.6863612" lon="10.9919969"><ele>1450.0</ele><time>2026-04-25T10:55:16.102Z</time></trkpt><trkpt lat="45.6862867" lon="10.9919976"><ele>1450.0</ele><time>2026-04-25T10:55:17.102Z</time></trkpt><trkpt lat="45.6862167" lon="10.9919717"><ele>1450.0</ele><time>2026-04-25T10:55:18.103Z</time></trkpt><trkpt lat="45.6861495" lon="10.9919179"><ele>1448.1666666666665</ele><time>2026-04-25T10:55:19.103Z</time></trkpt><trkpt lat="45.6860786" lon="10.9918571"><ele>1446.3333333333333</ele><time>2026-04-25T10:55:20.102Z</time></trkpt><trkpt lat="45.6859995" lon="10.9917871"><ele>1444.5</ele><time>2026-04-25T10:55:21.103Z</time></trkpt><trkpt lat="45.6859162" lon="10.9917224"><ele>1442.6666666666667</ele><time>2026-04-25T10:55:22.102Z</time></trkpt><trkpt lat="45.6858355" lon="10.9916637"><ele>1440.8333333333335</ele><time>2026-04-25T10:55:23.102Z</time></trkpt><trkpt lat="45.6857681" lon="10.9916089"><ele>1439.0</ele><time>2026-04-25T10:55:24.102Z</time></trkpt><trkpt lat="45.6857132" lon="10.9915498"><ele>1439.0</ele><time>2026-04-25T10:55:25.102Z</time></trkpt><trkpt lat="45.6856731" lon="10.991468"><ele>1439.0</ele><time>2026-04-25T10:55:26.102Z</time></trkpt><trkpt lat="45.6856482" lon="10.9913707"><ele>1439.0</ele><time>2026-04-25T10:55:27.102Z</time></trkpt><trkpt lat="45.6856408" lon="10.9912482"><ele>1439.0</ele><time>2026-04-25T10:55:28.104Z</time></trkpt><trkpt lat="45.6856397" lon="10.9911081"><ele>1439.0</ele><time>2026-04-25T10:55:29.102Z</time></trkpt><trkpt lat="45.6856258" lon="10.9909605"><ele>1439.0</ele><time>2026-04-25T10:55:30.103Z</time></trkpt><trkpt lat="45.6856063" lon="10.990812"><ele>1440.6666666666667</ele><time>2026-04-25T10:55:31.102Z</time></trkpt><trkpt lat="45.6855884" lon="10.990676"><ele>1442.3333333333335</ele><time>2026-04-25T10:55:32.103Z</time></trkpt><trkpt lat="45.6855712" lon="10.9905577"><ele>1444.0</ele><time>2026-04-25T10:55:33.103Z</time></trkpt><trkpt lat="45.6855376" lon="10.9904567"><ele>1445.6666666666667</ele><time>2026-04-25T10:55:34.103Z</time></trkpt><trkpt lat="45.685484" lon="10.9903795"><ele>1447.3333333333333</ele><time>2026-04-25T10:55:35.102Z</time></trkpt><trkpt lat="45.6854206" lon="10.9903315"><ele>1449.0</ele><time>2026-04-25T10:55:36.103Z</time></trkpt><trkpt lat="45.685359" lon="10.9902911"><ele>1449.0</ele><time>2026-04-25T10:55:37.102Z</time></trkpt><trkpt lat="45.6853117" lon="10.9902293"><ele>1449.0</ele><time>2026-04-25T10:55:38.102Z</time></trkpt><trkpt lat="45.6852621" lon="10.9900803"><ele>1449.0</ele><time>2026-04-25T10:55:40.102Z</time></trkpt><trkpt lat="45.6852723" lon="10.9899331"><ele>1449.0</ele><time>2026-04-25T10:55:42.102Z</time></trkpt><trkpt lat="45.6852943" lon="10.9897544"><ele>1449.0</ele><time>2026-04-25T10:55:44.102Z</time></trkpt><trkpt lat="45.6852752" lon="10.9896656"><ele>1442.0</ele><time>2026-04-25T10:55:45.104Z</time></trkpt><trkpt lat="45.685189" lon="10.9895391"><ele>1435.0</ele><time>2026-04-25T10:55:47.103Z</time></trkpt><trkpt lat="45.6851256" lon="10.9895088"><ele>1428.0</ele><time>2026-04-25T10:55:48.103Z</time></trkpt><trkpt lat="45.6850162" lon="10.9894424"><ele>1421.0</ele><time>2026-04-25T10:55:50.102Z</time></trkpt><trkpt lat="45.6849821" lon="10.9892984"><ele>1414.0</ele><time>2026-04-25T10:55:52.102Z</time></trkpt><trkpt lat="45.6850019" lon="10.9892054"><ele>1414.0</ele><time>2026-04-25T10:55:53.102Z</time></trkpt><trkpt lat="45.6850293" lon="10.989096"><ele>1414.0</ele><time>2026-04-25T10:55:54.102Z</time></trkpt><trkpt lat="45.6850596" lon="10.9889957"><ele>1414.0</ele><time>2026-04-25T10:55:55.103Z</time></trkpt><trkpt lat="45.6851022" lon="10.9889155"><ele>1414.0</ele><time>2026-04-25T10:55:56.103Z</time></trkpt><trkpt lat="45.6851625" lon="10.9888679"><ele>1414.0</ele><time>2026-04-25T10:55:57.102Z</time></trkpt><trkpt lat="45.6852415" lon="10.9888476"><ele>1414.0</ele><time>2026-04-25T10:55:58.102Z</time></trkpt><trkpt lat="45.6853283" lon="10.9888452"><ele>1416.5</ele><time>2026-04-25T10:55:59.102Z</time></trkpt><trkpt lat="45.6854374" lon="10.9888465"><ele>1419.0</ele><time>2026-04-25T10:56:00.103Z</time></trkpt><trkpt lat="45.6855458" lon="10.9888492"><ele>1421.5</ele><time>2026-04-25T10:56:01.103Z</time></trkpt><trkpt lat="45.6856629" lon="10.9888509"><ele>1424.0</ele><time>2026-04-25T10:56:02.102Z</time></trkpt><trkpt lat="45.685783" lon="10.988843"><ele>1424.0</ele><time>2026-04-25T10:56:03.103Z</time></trkpt><trkpt lat="45.685905" lon="10.9888132"><ele>1424.0</ele><time>2026-04-25T10:56:04.103Z</time></trkpt><trkpt lat="45.6860316" lon="10.9887748"><ele>1424.0</ele><time>2026-04-25T10:56:05.103Z</time></trkpt><trkpt lat="45.6861475" lon="10.9887268"><ele>1424.0</ele><time>2026-04-25T10:56:06.103Z</time></trkpt><trkpt lat="45.686249" lon="10.9886613"><ele>1424.8000000000002</ele><time>2026-04-25T10:56:07.102Z</time></trkpt><trkpt lat="45.6863322" lon="10.9885781"><ele>1425.6000000000001</ele><time>2026-04-25T10:56:08.103Z</time></trkpt><trkpt lat="45.6864036" lon="10.9884955"><ele>1426.4</ele><time>2026-04-25T10:56:09.102Z</time></trkpt><trkpt lat="45.6864849" lon="10.9884429"><ele>1427.2</ele><time>2026-04-25T10:56:10.103Z</time></trkpt><trkpt lat="45.686571" lon="10.9884242"><ele>1428.0</ele><time>2026-04-25T10:56:11.102Z</time></trkpt><trkpt lat="45.6866573" lon="10.988425"><ele>1428.0</ele><time>2026-04-25T10:56:12.102Z</time></trkpt><trkpt lat="45.6867313" lon="10.988406"><ele>1428.0</ele><time>2026-04-25T10:56:13.102Z</time></trkpt><trkpt lat="45.6867982" lon="10.9883657"><ele>1428.0</ele><time>2026-04-25T10:56:14.103Z</time></trkpt><trkpt lat="45.6868429" lon="10.9882877"><ele>1428.0</ele><time>2026-04-25T10:56:15.102Z</time></trkpt><trkpt lat="45.6868546" lon="10.988195"><ele>1428.0</ele><time>2026-04-25T10:56:16.102Z</time></trkpt><trkpt lat="45.6868373" lon="10.9881077"><ele>1428.0</ele><time>2026-04-25T10:56:17.102Z</time></trkpt><trkpt lat="45.6868144" lon="10.98802"><ele>1428.0</ele><time>2026-04-25T10:56:18.103Z</time></trkpt><trkpt lat="45.6868475" lon="10.987865"><ele>1427.8000000000002</ele><time>2026-04-25T10:56:20.102Z</time></trkpt><trkpt lat="45.6868979" lon="10.9877992"><ele>1427.6</ele><time>2026-04-25T10:56:21.103Z</time></trkpt><trkpt lat="45.6869618" lon="10.9877299"><ele>1427.4</ele><time>2026-04-25T10:56:22.102Z</time></trkpt><trkpt lat="45.6870305" lon="10.9876429"><ele>1427.1999999999998</ele><time>2026-04-25T10:56:23.103Z</time></trkpt><trkpt lat="45.6871048" lon="10.9875439"><ele>1427.0</ele><time>2026-04-25T10:56:24.102Z</time></trkpt><trkpt lat="45.6871812" lon="10.9874333"><ele>1423.6</ele><time>2026-04-25T10:56:25.102Z</time></trkpt><trkpt lat="45.6872552" lon="10.9873137"><ele>1420.1999999999998</ele><time>2026-04-25T10:56:26.102Z</time></trkpt><trkpt lat="45.687323" lon="10.9871909"><ele>1416.8</ele><time>2026-04-25T10:56:27.104Z</time></trkpt><trkpt lat="45.6873805" lon="10.9870691"><ele>1413.4</ele><time>2026-04-25T10:56:28.102Z</time></trkpt><trkpt lat="45.6874288" lon="10.986953"><ele>1410.0</ele><time>2026-04-25T10:56:29.102Z</time></trkpt><trkpt lat="45.687465" lon="10.9868369"><ele>1410.0</ele><time>2026-04-25T10:56:30.103Z</time></trkpt><trkpt lat="45.6874926" lon="10.9867255"><ele>1410.0</ele><time>2026-04-25T10:56:31.102Z</time></trkpt><trkpt lat="45.6875125" lon="10.9866143"><ele>1410.0</ele><time>2026-04-25T10:56:32.103Z</time></trkpt><trkpt lat="45.6875308" lon="10.9865013"><ele>1410.0</ele><time>2026-04-25T10:56:33.103Z</time></trkpt><trkpt lat="45.687567" lon="10.9863985"><ele>1410.0</ele><time>2026-04-25T10:56:34.103Z</time></trkpt><trkpt lat="45.6876236" lon="10.9863072"><ele>1410.0</ele><time>2026-04-25T10:56:35.102Z</time></trkpt><trkpt lat="45.6876998" lon="10.9862281"><ele>1409.4</ele><time>2026-04-25T10:56:36.103Z</time></trkpt><trkpt lat="45.6877941" lon="10.9861564"><ele>1408.8</ele><time>2026-04-25T10:56:37.103Z</time></trkpt><trkpt lat="45.6878935" lon="10.9860855"><ele>1408.1999999999998</ele><time>2026-04-25T10:56:38.103Z</time></trkpt><trkpt lat="45.6879886" lon="10.9860069"><ele>1407.6</ele><time>2026-04-25T10:56:39.102Z</time></trkpt><trkpt lat="45.6880728" lon="10.9859133"><ele>1407.0</ele><time>2026-04-25T10:56:40.103Z</time></trkpt><trkpt lat="45.6881365" lon="10.9857984"><ele>1403.0</ele><time>2026-04-25T10:56:41.102Z</time></trkpt><trkpt lat="45.688179" lon="10.9856625"><ele>1399.0</ele><time>2026-04-25T10:56:42.103Z</time></trkpt><trkpt lat="45.6882058" lon="10.9855064"><ele>1395.0</ele><time>2026-04-25T10:56:43.103Z</time></trkpt><trkpt lat="45.6882184" lon="10.985339"><ele>1391.0</ele><time>2026-04-25T10:56:44.103Z</time></trkpt><trkpt lat="45.6882188" lon="10.9851711"><ele>1388.75</ele><time>2026-04-25T10:56:45.103Z</time></trkpt><trkpt lat="45.6882103" lon="10.985003"><ele>1386.5</ele><time>2026-04-25T10:56:46.102Z</time></trkpt><trkpt lat="45.688179" lon="10.9848441"><ele>1384.25</ele><time>2026-04-25T10:56:47.104Z</time></trkpt><trkpt lat="45.6881246" lon="10.9846862"><ele>1382.0</ele><time>2026-04-25T10:56:48.103Z</time></trkpt><trkpt lat="45.6880615" lon="10.9845301"><ele>1382.0</ele><time>2026-04-25T10:56:49.104Z</time></trkpt><trkpt lat="45.6879903" lon="10.9843734"><ele>1382.0</ele><time>2026-04-25T10:56:50.104Z</time></trkpt><trkpt lat="45.6879202" lon="10.9842158"><ele>1382.0</ele><time>2026-04-25T10:56:51.103Z</time></trkpt><trkpt lat="45.6878554" lon="10.9840736"><ele>1382.0</ele><time>2026-04-25T10:56:52.103Z</time></trkpt><trkpt lat="45.6877891" lon="10.9839487"><ele>1380.8</ele><time>2026-04-25T10:56:53.103Z</time></trkpt><trkpt lat="45.6877187" lon="10.9838445"><ele>1379.6</ele><time>2026-04-25T10:56:54.104Z</time></trkpt><trkpt lat="45.6876433" lon="10.9837602"><ele>1378.3999999999999</ele><time>2026-04-25T10:56:55.104Z</time></trkpt><trkpt lat="45.6875626" lon="10.9836831"><ele>1377.1999999999998</ele><time>2026-04-25T10:56:56.104Z</time></trkpt><trkpt lat="45.687471" lon="10.9836071"><ele>1376.0</ele><time>2026-04-25T10:56:57.104Z</time></trkpt><trkpt lat="45.687376" lon="10.9835206"><ele>1376.0</ele><time>2026-04-25T10:56:58.104Z</time></trkpt><trkpt lat="45.6872805" lon="10.9834191"><ele>1376.0</ele><time>2026-04-25T10:56:59.104Z</time></trkpt><trkpt lat="45.687191" lon="10.9833018"><ele>1376.0</ele><time>2026-04-25T10:57:00.104Z</time></trkpt><trkpt lat="45.6870965" lon="10.9831871"><ele>1376.0</ele><time>2026-04-25T10:57:01.103Z</time></trkpt><trkpt lat="45.6869979" lon="10.9830902"><ele>1376.0</ele><time>2026-04-25T10:57:02.103Z</time></trkpt></trkseg></trk></gpx>